<?xml version='1.0' encoding='UTF-8'?><gpx version="1.1" creator="JPX - https://github.com/jenetics/jpx" xmlns="http://www.topografix.com/GPX/1/1"><trk><trkseg><trkpt lat="42.19116800285568" lon="14.220598424752946"><ele>568.0</ele><time>2026-05-01T12:11:39Z</time></trkpt><trkpt lat="42.191094199629795" lon="14.220586655512204"><ele>568.0</ele><time>2026-05-01T12:11:42Z</time></trkpt><trkpt lat="42.19100361851396" lon="14.220579422400455"><ele>568.0</ele><time>2026-05-01T12:11:56Z</time></trkpt><trkpt lat="42.19089172441947" lon="14.220620615300414"><ele>568.0</ele><time>2026-05-01T12:11:58Z</time></trkpt><trkpt lat="42.190826737420515" lon="14.220595500845608"><ele>568.0</ele><time>2026-05-01T12:11:59Z</time></trkpt><trkpt lat="42.19070176968966" lon="14.220562370690963"><ele>568.5</ele><time>2026-05-01T12:12:01Z</time></trkpt><trkpt lat="42.1906267056867" lon="14.220542094929966"><ele>569.0</ele><time>2026-05-01T12:12:02Z</time></trkpt><trkpt lat="42.190548411678535" lon="14.220519567150328"><ele>569.5</ele><time>2026-05-01T12:12:03Z</time></trkpt><trkpt lat="42.19048651196451" lon="14.220501756544618"><ele>570.0</ele><time>2026-05-01T12:12:04Z</time></trkpt><trkpt lat="42.190423298645236" lon="14.22048483376229"><ele>570.5</ele><time>2026-05-01T12:12:05Z</time></trkpt><trkpt lat="42.190322586094084" lon="14.220459947573099"><ele>571.0</ele><time>2026-05-01T12:12:07Z</time></trkpt><trkpt lat="42.19025834458041" lon="14.22041014606433"><ele>571.0</ele><time>2026-05-01T12:12:10Z</time></trkpt><trkpt lat="42.190212484382286" lon="14.220337624891938"><ele>571.0</ele><time>2026-05-01T12:12:13Z</time></trkpt><trkpt lat="42.19014733533264" lon="14.220282620691115"><ele>571.0</ele><time>2026-05-01T12:12:15Z</time></trkpt><trkpt lat="42.19009880212615" lon="14.220195293137573"><ele>571.0</ele><time>2026-05-01T12:12:19Z</time></trkpt><trkpt lat="42.190100784271756" lon="14.220094216520893"><ele>571.0</ele><time>2026-05-01T12:12:21Z</time></trkpt><trkpt lat="42.190020750154275" lon="14.220023128769578"><ele>571.0</ele><time>2026-05-01T12:12:23Z</time></trkpt><trkpt lat="42.18991231274006" lon="14.220048835606999"><ele>571.0</ele><time>2026-05-01T12:12:24.999Z</time></trkpt><trkpt lat="42.18981478964054" lon="14.220028832824283"><ele>571.0</ele><time>2026-05-01T12:12:26.999Z</time></trkpt><trkpt lat="42.18987234392378" lon="14.219946340103908"><ele>571.0</ele><time>2026-05-01T12:12:30.999Z</time></trkpt><trkpt lat="42.18994752447278" lon="14.21997131037754"><ele>571.0</ele><time>2026-05-01T12:12:31.999Z</time></trkpt><trkpt lat="42.19003403414226" lon="14.219951389648198"><ele>571.0</ele><time>2026-05-01T12:12:32.999Z</time></trkpt><trkpt lat="42.190132520885875" lon="14.219907206513176"><ele>571.0</ele><time>2026-05-01T12:12:33.999Z</time></trkpt><trkpt lat="42.1902310033228" lon="14.21984952277448"><ele>571.0</ele><time>2026-05-01T12:12:34.999Z</time></trkpt><trkpt lat="42.19032951252323" lon="14.219789981004878"><ele>571.0</ele><time>2026-05-01T12:12:35.999Z</time></trkpt><trkpt lat="42.190433395557996" lon="14.219732385316266"><ele>571.0</ele><time>2026-05-01T12:12:36.999Z</time></trkpt><trkpt lat="42.19052565465293" lon="14.21972513130401"><ele>571.0</ele><time>2026-05-01T12:12:37.999Z</time></trkpt><trkpt lat="42.19061550034521" lon="14.21972856712804"><ele>568.0</ele><time>2026-05-01T12:12:38.999Z</time></trkpt><trkpt lat="42.19070325579788" lon="14.21973721835455"><ele>565.0</ele><time>2026-05-01T12:12:39.999Z</time></trkpt><trkpt lat="42.190780859345026" lon="14.219734138203293"><ele>562.0</ele><time>2026-05-01T12:12:40.999Z</time></trkpt><trkpt lat="42.19085752048896" lon="14.219732600071461"><ele>559.0</ele><time>2026-05-01T12:12:41.999Z</time></trkpt><trkpt lat="42.190934645818274" lon="14.219735606689374"><ele>556.0</ele><time>2026-05-01T12:12:42.999Z</time></trkpt><trkpt lat="42.191002880967076" lon="14.219740874708819"><ele>553.0</ele><time>2026-05-01T12:12:43.999Z</time></trkpt><trkpt lat="42.191068623322096" lon="14.219748907085046"><ele>553.0</ele><time>2026-05-01T12:12:44.999Z</time></trkpt><trkpt lat="42.191134625579814" lon="14.219754052151922"><ele>553.0</ele><time>2026-05-01T12:12:45.999Z</time></trkpt><trkpt lat="42.191205622432356" lon="14.21975366820638"><ele>553.0</ele><time>2026-05-01T12:12:46.999Z</time></trkpt><trkpt lat="42.191286075694116" lon="14.219748497903245"><ele>553.0</ele><time>2026-05-01T12:12:47.999Z</time></trkpt><trkpt lat="42.19137079803834" lon="14.21974818204946"><ele>553.0</ele><time>2026-05-01T12:12:48.999Z</time></trkpt><trkpt lat="42.19145746480726" lon="14.219751983920009"><ele>553.0</ele><time>2026-05-01T12:12:49.999Z</time></trkpt><trkpt lat="42.19154973944505" lon="14.219755278945636"><ele>552.1999999999999</ele><time>2026-05-01T12:12:50.999Z</time></trkpt><trkpt lat="42.19164619389848" lon="14.219764182020079"><ele>551.4</ele><time>2026-05-01T12:12:51.999Z</time></trkpt><trkpt lat="42.19174631124016" lon="14.219764689984336"><ele>550.5999999999999</ele><time>2026-05-01T12:12:52.999Z</time></trkpt><trkpt lat="42.19185290158192" lon="14.219775651895926"><ele>549.8</ele><time>2026-05-01T12:12:53.999Z</time></trkpt><trkpt lat="42.19195010318503" lon="14.219784277885516"><ele>549.0</ele><time>2026-05-01T12:12:54.999Z</time></trkpt><trkpt lat="42.19204381752688" lon="14.219789601676242"><ele>549.0</ele><time>2026-05-01T12:12:55.999Z</time></trkpt><trkpt lat="42.19214344969722" lon="14.219799026673853"><ele>549.0</ele><time>2026-05-01T12:12:56.999Z</time></trkpt><trkpt lat="42.19224775538403" lon="14.219814084298543"><ele>549.0</ele><time>2026-05-01T12:12:57.999Z</time></trkpt><trkpt lat="42.19234905497314" lon="14.219838855044904"><ele>549.0</ele><time>2026-05-01T12:12:58.999Z</time></trkpt><trkpt lat="42.192449083645485" lon="14.219876804401279"><ele>549.0</ele><time>2026-05-01T12:12:59.999Z</time></trkpt><trkpt lat="42.19253456610436" lon="14.219913071972542"><ele>550.8333333333334</ele><time>2026-05-01T12:13:00.999Z</time></trkpt><trkpt lat="42.19261454517296" lon="14.219955014680483"><ele>552.6666666666666</ele><time>2026-05-01T12:13:01.999Z</time></trkpt><trkpt lat="42.19268927728841" lon="14.21999819998174"><ele>554.5</ele><time>2026-05-01T12:13:02.999Z</time></trkpt><trkpt lat="42.19275924918704" lon="14.220044997895323"><ele>556.3333333333333</ele><time>2026-05-01T12:13:03.999Z</time></trkpt><trkpt lat="42.1928251366591" lon="14.220099824627434"><ele>558.1666666666666</ele><time>2026-05-01T12:13:04.999Z</time></trkpt><trkpt lat="42.192892134623044" lon="14.220157639918945"><ele>560.0</ele><time>2026-05-01T12:13:05.999Z</time></trkpt><trkpt lat="42.192958079030106" lon="14.220217618682105"><ele>560.0</ele><time>2026-05-01T12:13:06.999Z</time></trkpt><trkpt lat="42.1930270778423" lon="14.220280637097206"><ele>560.0</ele><time>2026-05-01T12:13:07.999Z</time></trkpt><trkpt lat="42.19309694395173" lon="14.220340521302274"><ele>560.0</ele><time>2026-05-01T12:13:08.999Z</time></trkpt><trkpt lat="42.19316688785323" lon="14.220395725548139"><ele>560.0</ele><time>2026-05-01T12:13:09.999Z</time></trkpt><trkpt lat="42.19323566300631" lon="14.220441697523187"><ele>560.0</ele><time>2026-05-01T12:13:10.999Z</time></trkpt><trkpt lat="42.193306309864504" lon="14.220481060084236"><ele>560.0</ele><time>2026-05-01T12:13:11.999Z</time></trkpt><trkpt lat="42.1933818363957" lon="14.22050908528721"><ele>558.3333333333333</ele><time>2026-05-01T12:13:12.999Z</time></trkpt><trkpt lat="42.19345555819873" lon="14.220532903661795"><ele>556.6666666666666</ele><time>2026-05-01T12:13:13.999Z</time></trkpt><trkpt lat="42.19353257703195" lon="14.220555150578763"><ele>555.0</ele><time>2026-05-01T12:13:14.999Z</time></trkpt><trkpt lat="42.19359634063276" lon="14.220579466014849"><ele>553.3333333333334</ele><time>2026-05-01T12:13:15.999Z</time></trkpt><trkpt lat="42.19366303531522" lon="14.220603577466747"><ele>551.6666666666667</ele><time>2026-05-01T12:13:16.999Z</time></trkpt><trkpt lat="42.193779844988136" lon="14.22064021366709"><ele>550.0</ele><time>2026-05-01T12:13:18.999Z</time></trkpt><trkpt lat="42.19384788005628" lon="14.220647282263178"><ele>550.0</ele><time>2026-05-01T12:13:19.999Z</time></trkpt><trkpt lat="42.193887541554744" lon="14.220569405565406"><ele>550.0</ele><time>2026-05-01T12:13:20.999Z</time></trkpt><trkpt lat="42.193893032823915" lon="14.220470771140336"><ele>550.0</ele><time>2026-05-01T12:13:21.999Z</time></trkpt><trkpt lat="42.193857472174194" lon="14.220387986983878"><ele>550.0</ele><time>2026-05-01T12:13:22.999Z</time></trkpt><trkpt lat="42.19379865788206" lon="14.220326266552425"><ele>550.0</ele><time>2026-05-01T12:13:23.999Z</time></trkpt><trkpt lat="42.19371953650575" lon="14.220284603028967"><ele>550.0</ele><time>2026-05-01T12:13:24.999Z</time></trkpt><trkpt lat="42.19364564213653" lon="14.22024453058244"><ele>550.0</ele><time>2026-05-01T12:13:25.999Z</time></trkpt><trkpt lat="42.193560035625666" lon="14.220210025766"><ele>550.0</ele><time>2026-05-01T12:13:26.999Z</time></trkpt><trkpt lat="42.1934725065853" lon="14.220171646339857"><ele>550.0</ele><time>2026-05-01T12:13:27.999Z</time></trkpt><trkpt lat="42.19338870764535" lon="14.220119902733476"><ele>550.0</ele><time>2026-05-01T12:13:28.999Z</time></trkpt><trkpt lat="42.19330589662241" lon="14.22007250652327"><ele>550.0</ele><time>2026-05-01T12:13:30.999Z</time></trkpt><trkpt lat="42.19327644461447" lon="14.219975346506933"><ele>550.0</ele><time>2026-05-01T12:13:34.999Z</time></trkpt><trkpt lat="42.19335193680544" lon="14.220018048224832"><ele>550.0</ele><time>2026-05-01T12:13:37.999Z</time></trkpt><trkpt lat="42.193413542893516" lon="14.220051061967444"><ele>550.0</ele><time>2026-05-01T12:13:38.999Z</time></trkpt><trkpt lat="42.19349423153594" lon="14.22007677139513"><ele>550.0</ele><time>2026-05-01T12:13:39.999Z</time></trkpt><trkpt lat="42.193569389487735" lon="14.220130021436308"><ele>550.0</ele><time>2026-05-01T12:13:40.999Z</time></trkpt><trkpt lat="42.19363688375756" lon="14.220183685773705"><ele>550.0</ele><time>2026-05-01T12:13:41.999Z</time></trkpt><trkpt lat="42.19369286730265" lon="14.22022711213344"><ele>550.0</ele><time>2026-05-01T12:13:42.999Z</time></trkpt><trkpt lat="42.19380788011543" lon="14.220283264175341"><ele>550.0</ele><time>2026-05-01T12:13:44.999Z</time></trkpt><trkpt lat="42.193884500954326" lon="14.220295234371793"><ele>550.0</ele><time>2026-05-01T12:13:45.999Z</time></trkpt><trkpt lat="42.193935873600964" lon="14.220348207817327"><ele>550.0</ele><time>2026-05-01T12:13:46.999Z</time></trkpt><trkpt lat="42.19397179629921" lon="14.220433458669149"><ele>550.0</ele><time>2026-05-01T12:13:47.999Z</time></trkpt><trkpt lat="42.193981411704236" lon="14.220535783353363"><ele>550.0</ele><time>2026-05-01T12:13:48.999Z</time></trkpt><trkpt lat="42.19402257689203" lon="14.220643875699057"><ele>550.0</ele><time>2026-05-01T12:13:49.999Z</time></trkpt><trkpt lat="42.194044871477615" lon="14.220728505986484"><ele>550.0</ele><time>2026-05-01T12:13:50.999Z</time></trkpt><trkpt lat="42.194045446321695" lon="14.220847958448621"><ele>546.8</ele><time>2026-05-01T12:13:51.999Z</time></trkpt><trkpt lat="42.19404467595989" lon="14.220966416184703"><ele>543.6</ele><time>2026-05-01T12:13:52.999Z</time></trkpt><trkpt lat="42.194051279972854" lon="14.221097552948343"><ele>540.4</ele><time>2026-05-01T12:13:53.999Z</time></trkpt><trkpt lat="42.194040057000024" lon="14.22123673192668"><ele>537.2</ele><time>2026-05-01T12:13:54.999Z</time></trkpt><trkpt lat="42.19403930033336" lon="14.221376175177456"><ele>534.0</ele><time>2026-05-01T12:13:55.999Z</time></trkpt><trkpt lat="42.19403434853103" lon="14.221521528005463"><ele>532.75</ele><time>2026-05-01T12:13:56.999Z</time></trkpt><trkpt lat="42.19402999257502" lon="14.221671641239624"><ele>531.5</ele><time>2026-05-01T12:13:58Z</time></trkpt><trkpt lat="42.194024834777714" lon="14.221822877136818"><ele>530.25</ele><time>2026-05-01T12:13:59Z</time></trkpt><trkpt lat="42.19402020348499" lon="14.221973314245137"><ele>529.0</ele><time>2026-05-01T12:14:00Z</time></trkpt><trkpt lat="42.194024363028355" lon="14.222127957453061"><ele>529.0</ele><time>2026-05-01T12:14:01Z</time></trkpt><trkpt lat="42.19401867310494" lon="14.222275646124718"><ele>529.0</ele><time>2026-05-01T12:14:02Z</time></trkpt><trkpt lat="42.194010569022836" lon="14.222430348053255"><ele>529.0</ele><time>2026-05-01T12:14:03Z</time></trkpt><trkpt lat="42.19401577997735" lon="14.222586554113134"><ele>529.0</ele><time>2026-05-01T12:14:04Z</time></trkpt><trkpt lat="42.194026148575475" lon="14.222744991232183"><ele>527.25</ele><time>2026-05-01T12:14:05Z</time></trkpt><trkpt lat="42.19404125542017" lon="14.222897573917345"><ele>525.5</ele><time>2026-05-01T12:14:06Z</time></trkpt><trkpt lat="42.194058563817045" lon="14.223056841517895"><ele>523.75</ele><time>2026-05-01T12:14:07Z</time></trkpt><trkpt lat="42.19407337398781" lon="14.22321571194682"><ele>522.0</ele><time>2026-05-01T12:14:08Z</time></trkpt><trkpt lat="42.194093656196614" lon="14.22337314810445"><ele>520.8000000000001</ele><time>2026-05-01T12:14:09Z</time></trkpt><trkpt lat="42.19410742499348" lon="14.223506228943377"><ele>519.6</ele><time>2026-05-01T12:14:10Z</time></trkpt><trkpt lat="42.194120430643096" lon="14.223634610340001"><ele>518.4000000000001</ele><time>2026-05-01T12:14:11Z</time></trkpt><trkpt lat="42.19413229055961" lon="14.223736193992629"><ele>517.2</ele><time>2026-05-01T12:14:12Z</time></trkpt><trkpt lat="42.19415205862724" lon="14.223819341668236"><ele>516.0</ele><time>2026-05-01T12:14:13Z</time></trkpt><trkpt lat="42.19425212448714" lon="14.223910914705566"><ele>516.0</ele><time>2026-05-01T12:14:15Z</time></trkpt><trkpt lat="42.194323724635474" lon="14.223898901936645"><ele>516.0</ele><time>2026-05-01T12:14:16Z</time></trkpt><trkpt lat="42.194395570577605" lon="14.2238318936099"><ele>516.0</ele><time>2026-05-01T12:14:17Z</time></trkpt><trkpt lat="42.19447077309395" lon="14.223728464813606"><ele>516.0</ele><time>2026-05-01T12:14:18Z</time></trkpt><trkpt lat="42.19458303540427" lon="14.223639934189805"><ele>516.0</ele><time>2026-05-01T12:14:19Z</time></trkpt><trkpt lat="42.19467991292897" lon="14.22355967399213"><ele>516.0</ele><time>2026-05-01T12:14:19.999Z</time></trkpt><trkpt lat="42.19478453158545" lon="14.223473422875973"><ele>516.0</ele><time>2026-05-01T12:14:20.999Z</time></trkpt><trkpt lat="42.19489757723262" lon="14.223379743879608"><ele>516.0</ele><time>2026-05-01T12:14:21.999Z</time></trkpt><trkpt lat="42.19501309787022" lon="14.22328259173217"><ele>516.0</ele><time>2026-05-01T12:14:22.999Z</time></trkpt><trkpt lat="42.1951241124382" lon="14.223179716735252"><ele>514.5</ele><time>2026-05-01T12:14:23.999Z</time></trkpt><trkpt lat="42.19523947812917" lon="14.22304842596322"><ele>513.0</ele><time>2026-05-01T12:14:24.999Z</time></trkpt><trkpt lat="42.195319938709666" lon="14.222920560832245"><ele>511.5</ele><time>2026-05-01T12:14:25.999Z</time></trkpt><trkpt lat="42.19541488130446" lon="14.222773454088964"><ele>510.0</ele><time>2026-05-01T12:14:26.999Z</time></trkpt><trkpt lat="42.19552443030986" lon="14.222645304499197"><ele>510.0</ele><time>2026-05-01T12:14:27.999Z</time></trkpt><trkpt lat="42.195605648840555" lon="14.222506408733294"><ele>510.0</ele><time>2026-05-01T12:14:28.999Z</time></trkpt><trkpt lat="42.19565035073504" lon="14.22233299850764"><ele>510.0</ele><time>2026-05-01T12:14:29.999Z</time></trkpt><trkpt lat="42.19570914955209" lon="14.22216319187464"><ele>510.0</ele><time>2026-05-01T12:14:30.999Z</time></trkpt><trkpt lat="42.19575017535052" lon="14.221983780368495"><ele>508.75</ele><time>2026-05-01T12:14:31.999Z</time></trkpt><trkpt lat="42.19578445367409" lon="14.22180767405235"><ele>507.5</ele><time>2026-05-01T12:14:32.999Z</time></trkpt><trkpt lat="42.19580828220203" lon="14.22161840791837"><ele>506.25</ele><time>2026-05-01T12:14:33.999Z</time></trkpt><trkpt lat="42.19581388066796" lon="14.221431365417052"><ele>505.0</ele><time>2026-05-01T12:14:34.999Z</time></trkpt><trkpt lat="42.195807139241964" lon="14.221232762724105"><ele>505.0</ele><time>2026-05-01T12:14:35.999Z</time></trkpt><trkpt lat="42.19580126433748" lon="14.221039440395014"><ele>505.0</ele><time>2026-05-01T12:14:36.999Z</time></trkpt><trkpt lat="42.195796691924315" lon="14.220855497716707"><ele>505.0</ele><time>2026-05-01T12:14:37.999Z</time></trkpt><trkpt lat="42.195795020980825" lon="14.220687565456863"><ele>505.0</ele><time>2026-05-01T12:14:38.999Z</time></trkpt><trkpt lat="42.195785939662194" lon="14.220519226254078"><ele>505.5</ele><time>2026-05-01T12:14:39.999Z</time></trkpt><trkpt lat="42.195806757935706" lon="14.220349964004633"><ele>506.0</ele><time>2026-05-01T12:14:40.999Z</time></trkpt><trkpt lat="42.19586604846383" lon="14.220190474613938"><ele>506.5</ele><time>2026-05-01T12:14:41.999Z</time></trkpt><trkpt lat="42.19592192920369" lon="14.220032634947678"><ele>507.0</ele><time>2026-05-01T12:14:42.999Z</time></trkpt><trkpt lat="42.19597674338166" lon="14.219886529219222"><ele>507.25</ele><time>2026-05-01T12:14:43.999Z</time></trkpt><trkpt lat="42.196038149937046" lon="14.219758430795181"><ele>507.5</ele><time>2026-05-01T12:14:44.999Z</time></trkpt><trkpt lat="42.19612763392982" lon="14.219646283587393"><ele>507.75</ele><time>2026-05-01T12:14:45.999Z</time></trkpt><trkpt lat="42.196231254318704" lon="14.219547140973695"><ele>508.0</ele><time>2026-05-01T12:14:46.999Z</time></trkpt><trkpt lat="42.19633307694487" lon="14.219445347194018"><ele>508.00000000000006</ele><time>2026-05-01T12:14:47.999Z</time></trkpt><trkpt lat="42.19641657152571" lon="14.219350015149477"><ele>508.0</ele><time>2026-05-01T12:14:48.999Z</time></trkpt><trkpt lat="42.19649435987796" lon="14.219282637025625"><ele>508.0</ele><time>2026-05-01T12:14:49.999Z</time></trkpt><trkpt lat="42.19657203176317" lon="14.21923785510373"><ele>508.0</ele><time>2026-05-01T12:14:50.999Z</time></trkpt><trkpt lat="42.19662891537421" lon="14.219200447092792"><ele>508.00000000000006</ele><time>2026-05-01T12:14:51.999Z</time></trkpt><trkpt lat="42.19670875026839" lon="14.219236153017313"><ele>508.0</ele><time>2026-05-01T12:14:52.999Z</time></trkpt><trkpt lat="42.196835044109" lon="14.219229273867327"><ele>506.79999999999995</ele><time>2026-05-01T12:14:54.999Z</time></trkpt><trkpt lat="42.19690465170707" lon="14.219158352347517"><ele>505.59999999999997</ele><time>2026-05-01T12:14:55.999Z</time></trkpt><trkpt lat="42.196984267678296" lon="14.219078481166525"><ele>504.40000000000003</ele><time>2026-05-01T12:14:56.999Z</time></trkpt><trkpt lat="42.19709494939563" lon="14.21906942476937"><ele>503.20000000000005</ele><time>2026-05-01T12:14:57.999Z</time></trkpt><trkpt lat="42.19721452480311" lon="14.21909896546389"><ele>502.0</ele><time>2026-05-01T12:14:58.999Z</time></trkpt><trkpt lat="42.19735647375533" lon="14.2190617476824"><ele>501.0</ele><time>2026-05-01T12:14:59.999Z</time></trkpt><trkpt lat="42.19750695842255" lon="14.219038235454747"><ele>500.0</ele><time>2026-05-01T12:15:00.999Z</time></trkpt><trkpt lat="42.197658638874636" lon="14.21901105630927"><ele>499.0</ele><time>2026-05-01T12:15:01.999Z</time></trkpt><trkpt lat="42.19780531460799" lon="14.21898208331163"><ele>498.0</ele><time>2026-05-01T12:15:02.999Z</time></trkpt><trkpt lat="42.197942102390805" lon="14.218955449358985"><ele>497.0</ele><time>2026-05-01T12:15:03.999Z</time></trkpt><trkpt lat="42.19807976153965" lon="14.218920842160886"><ele>496.0</ele><time>2026-05-01T12:15:04.999Z</time></trkpt><trkpt lat="42.19822179608954" lon="14.218878510155307"><ele>495.0</ele><time>2026-05-01T12:15:05.999Z</time></trkpt><trkpt lat="42.19838196401053" lon="14.218843305942487"><ele>494.0</ele><time>2026-05-01T12:15:06.999Z</time></trkpt><trkpt lat="42.198540107787686" lon="14.21878305146306"><ele>493.0</ele><time>2026-05-01T12:15:07.999Z</time></trkpt><trkpt lat="42.19870649804794" lon="14.218715544458219"><ele>492.0</ele><time>2026-05-01T12:15:08.999Z</time></trkpt><trkpt lat="42.198879889648545" lon="14.218631339427127"><ele>490.33333333333337</ele><time>2026-05-01T12:15:09.999Z</time></trkpt><trkpt lat="42.199059539908966" lon="14.218553745521463"><ele>488.6666666666667</ele><time>2026-05-01T12:15:10.999Z</time></trkpt><trkpt lat="42.199227265901996" lon="14.218469202734884"><ele>487.0</ele><time>2026-05-01T12:15:11.999Z</time></trkpt><trkpt lat="42.199381407872636" lon="14.218397348557307"><ele>487.0</ele><time>2026-05-01T12:15:12.999Z</time></trkpt><trkpt lat="42.199543158328176" lon="14.218351201730865"><ele>487.0</ele><time>2026-05-01T12:15:13.999Z</time></trkpt><trkpt lat="42.19968475989594" lon="14.218281344111455"><ele>487.0</ele><time>2026-05-01T12:15:14.999Z</time></trkpt><trkpt lat="42.19983402126275" lon="14.218243122616807"><ele>485.75</ele><time>2026-05-01T12:15:15.999Z</time></trkpt><trkpt lat="42.19997444439179" lon="14.218213704484107"><ele>484.5</ele><time>2026-05-01T12:15:16.999Z</time></trkpt><trkpt lat="42.200101620959465" lon="14.218202722506746"><ele>483.25</ele><time>2026-05-01T12:15:17.999Z</time></trkpt><trkpt lat="42.20021656995732" lon="14.21820013432302"><ele>482.0</ele><time>2026-05-01T12:15:18.999Z</time></trkpt><trkpt lat="42.20031823749309" lon="14.218196232545633"><ele>482.0</ele><time>2026-05-01T12:15:19.999Z</time></trkpt><trkpt lat="42.200404978144185" lon="14.218189563968489"><ele>482.00000000000006</ele><time>2026-05-01T12:15:20.999Z</time></trkpt><trkpt lat="42.200472796231686" lon="14.218155632221526"><ele>482.00000000000006</ele><time>2026-05-01T12:15:21.999Z</time></trkpt><trkpt lat="42.20054251493175" lon="14.218112765983012"><ele>482.0</ele><time>2026-05-01T12:15:22.999Z</time></trkpt><trkpt lat="42.200648758203435" lon="14.218080926373101"><ele>482.0</ele><time>2026-05-01T12:15:23.999Z</time></trkpt><trkpt lat="42.200771819414115" lon="14.218055526782797"><ele>480.25</ele><time>2026-05-01T12:15:24.999Z</time></trkpt><trkpt lat="42.2009026161444" lon="14.218032347129315"><ele>478.5</ele><time>2026-05-01T12:15:25.999Z</time></trkpt><trkpt lat="42.20104757380823" lon="14.218004171803244"><ele>476.75</ele><time>2026-05-01T12:15:26.999Z</time></trkpt><trkpt lat="42.20120435045706" lon="14.217974169558113"><ele>475.0</ele><time>2026-05-01T12:15:27.999Z</time></trkpt><trkpt lat="42.20137854200846" lon="14.217961006414674"><ele>474.0</ele><time>2026-05-01T12:15:28.999Z</time></trkpt><trkpt lat="42.20155605325192" lon="14.217947928551311"><ele>473.0</ele><time>2026-05-01T12:15:29.999Z</time></trkpt><trkpt lat="42.20171969804073" lon="14.21794421962438"><ele>472.0</ele><time>2026-05-01T12:15:30.999Z</time></trkpt><trkpt lat="42.2018946176009" lon="14.21797905753905"><ele>472.0</ele><time>2026-05-01T12:15:31.999Z</time></trkpt><trkpt lat="42.202054459176736" lon="14.21802673941333"><ele>472.0</ele><time>2026-05-01T12:15:32.999Z</time></trkpt><trkpt lat="42.20221498089345" lon="14.218070765760459"><ele>472.0</ele><time>2026-05-01T12:15:33.999Z</time></trkpt><trkpt lat="42.20237250026778" lon="14.218082698056495"><ele>471.25</ele><time>2026-05-01T12:15:34.999Z</time></trkpt><trkpt lat="42.202522399426215" lon="14.218083554987869"><ele>470.5</ele><time>2026-05-01T12:15:35.999Z</time></trkpt><trkpt lat="42.20266044190396" lon="14.218073053907018"><ele>469.75</ele><time>2026-05-01T12:15:36.999Z</time></trkpt><trkpt lat="42.20278603807831" lon="14.218050763385474"><ele>469.0</ele><time>2026-05-01T12:15:37.999Z</time></trkpt><trkpt lat="42.20290367574442" lon="14.218027937702288"><ele>469.0</ele><time>2026-05-01T12:15:38.999Z</time></trkpt><trkpt lat="42.20302052579173" lon="14.218005979411467"><ele>469.0</ele><time>2026-05-01T12:15:40Z</time></trkpt><trkpt lat="42.2031262289099" lon="14.217967078909853"><ele>469.0</ele><time>2026-05-01T12:15:41Z</time></trkpt><trkpt lat="42.20322393297936" lon="14.21789287263766"><ele>469.0</ele><time>2026-05-01T12:15:42Z</time></trkpt><trkpt lat="42.20332675276888" lon="14.217796721661449"><ele>466.75</ele><time>2026-05-01T12:15:43Z</time></trkpt><trkpt lat="42.203438163128425" lon="14.217686823982826"><ele>464.5</ele><time>2026-05-01T12:15:44Z</time></trkpt><trkpt lat="42.203555369753666" lon="14.217584404205864"><ele>462.25</ele><time>2026-05-01T12:15:45Z</time></trkpt><trkpt lat="42.20366768085883" lon="14.217491337403395"><ele>460.0</ele><time>2026-05-01T12:15:46Z</time></trkpt><trkpt lat="42.20376603660611" lon="14.217407928188171"><ele>460.0</ele><time>2026-05-01T12:15:47Z</time></trkpt><trkpt lat="42.203856364481965" lon="14.217336474405148"><ele>460.0</ele><time>2026-05-01T12:15:48Z</time></trkpt><trkpt lat="42.20395670381398" lon="14.217291142788198"><ele>460.0</ele><time>2026-05-01T12:15:49Z</time></trkpt><trkpt lat="42.2040751099264" lon="14.217287814712432"><ele>460.0</ele><time>2026-05-01T12:15:50Z</time></trkpt><trkpt lat="42.204195728564" lon="14.21731013236087"><ele>460.75</ele><time>2026-05-01T12:15:51Z</time></trkpt><trkpt lat="42.20432235806324" lon="14.21732772092862"><ele>461.5</ele><time>2026-05-01T12:15:52Z</time></trkpt><trkpt lat="42.20444397322369" lon="14.217311597904226"><ele>462.25</ele><time>2026-05-01T12:15:53Z</time></trkpt><trkpt lat="42.20456765377028" lon="14.217264981716502"><ele>463.0</ele><time>2026-05-01T12:15:54Z</time></trkpt><trkpt lat="42.20468506133096" lon="14.21720921956005"><ele>463.0</ele><time>2026-05-01T12:15:55Z</time></trkpt><trkpt lat="42.204807659644295" lon="14.217158780282217"><ele>463.0</ele><time>2026-05-01T12:15:56Z</time></trkpt><trkpt lat="42.20492443198059" lon="14.217112519153023"><ele>463.0</ele><time>2026-05-01T12:15:57Z</time></trkpt><trkpt lat="42.205036460163385" lon="14.21705974934454"><ele>463.0</ele><time>2026-05-01T12:15:58Z</time></trkpt><trkpt lat="42.20514716126538" lon="14.217006501143498"><ele>462.2</ele><time>2026-05-01T12:15:59Z</time></trkpt><trkpt lat="42.205261975804724" lon="14.216985564526853"><ele>461.4</ele><time>2026-05-01T12:16:00Z</time></trkpt><trkpt lat="42.20535561743582" lon="14.216958859970903"><ele>460.59999999999997</ele><time>2026-05-01T12:16:01Z</time></trkpt><trkpt lat="42.20542817657528" lon="14.216946040994593"><ele>459.79999999999995</ele><time>2026-05-01T12:16:02Z</time></trkpt><trkpt lat="42.205539010428886" lon="14.216944026037899"><ele>459.0</ele><time>2026-05-01T12:16:04Z</time></trkpt><trkpt lat="42.205632269416405" lon="14.217166585985707"><ele>455.25</ele><time>2026-05-01T12:16:06Z</time></trkpt><trkpt lat="42.20569618380407" lon="14.21732901152497"><ele>451.5</ele><time>2026-05-01T12:16:07Z</time></trkpt><trkpt lat="42.20576286452635" lon="14.217467367722625"><ele>447.75</ele><time>2026-05-01T12:16:08Z</time></trkpt><trkpt lat="42.20582579925681" lon="14.217598172836835"><ele>444.0</ele><time>2026-05-01T12:16:09Z</time></trkpt><trkpt lat="42.20589752825422" lon="14.217743912207315"><ele>444.0</ele><time>2026-05-01T12:16:10Z</time></trkpt><trkpt lat="42.20597369431626" lon="14.217899694866068"><ele>444.0</ele><time>2026-05-01T12:16:11Z</time></trkpt><trkpt lat="42.206052546924035" lon="14.218050570440164"><ele>444.0</ele><time>2026-05-01T12:16:12Z</time></trkpt><trkpt lat="42.20611906793053" lon="14.218188981459253"><ele>444.0</ele><time>2026-05-01T12:16:13Z</time></trkpt><trkpt lat="42.20621225415572" lon="14.218296981162634"><ele>442.5</ele><time>2026-05-01T12:16:14Z</time></trkpt><trkpt lat="42.20631913937301" lon="14.218390442035693"><ele>441.0</ele><time>2026-05-01T12:16:15Z</time></trkpt><trkpt lat="42.20643219149236" lon="14.218466844697703"><ele>439.5</ele><time>2026-05-01T12:16:16Z</time></trkpt><trkpt lat="42.206538873382186" lon="14.218526919172223"><ele>438.0</ele><time>2026-05-01T12:16:17Z</time></trkpt><trkpt lat="42.20663381037438" lon="14.218596772633035"><ele>436.25</ele><time>2026-05-01T12:16:18Z</time></trkpt><trkpt lat="42.20671499644967" lon="14.218691530811665"><ele>434.5</ele><time>2026-05-01T12:16:19Z</time></trkpt><trkpt lat="42.206782148420324" lon="14.218816408125955"><ele>432.75</ele><time>2026-05-01T12:16:20Z</time></trkpt><trkpt lat="42.2068565889662" lon="14.218967212983603"><ele>431.0</ele><time>2026-05-01T12:16:21Z</time></trkpt><trkpt lat="42.206937377205435" lon="14.21914791672353"><ele>430.4</ele><time>2026-05-01T12:16:22Z</time></trkpt><trkpt lat="42.20700302013141" lon="14.21930715196081"><ele>429.8</ele><time>2026-05-01T12:16:23Z</time></trkpt><trkpt lat="42.20706079156154" lon="14.219448923280968"><ele>429.19999999999993</ele><time>2026-05-01T12:16:24Z</time></trkpt><trkpt lat="42.20710994136509" lon="14.219566718332842"><ele>428.59999999999997</ele><time>2026-05-01T12:16:25Z</time></trkpt><trkpt lat="42.20715868303103" lon="14.2196732613403"><ele>428.0</ele><time>2026-05-01T12:16:26Z</time></trkpt><trkpt lat="42.207208628699526" lon="14.219792985216586"><ele>427.2</ele><time>2026-05-01T12:16:27Z</time></trkpt><trkpt lat="42.20727002913412" lon="14.219893812378157"><ele>426.4</ele><time>2026-05-01T12:16:28Z</time></trkpt><trkpt lat="42.207349598487205" lon="14.21997001681535"><ele>425.59999999999997</ele><time>2026-05-01T12:16:29Z</time></trkpt><trkpt lat="42.2074327546309" lon="14.220039451808601"><ele>424.79999999999995</ele><time>2026-05-01T12:16:30Z</time></trkpt><trkpt lat="42.20754471876397" lon="14.220025926771388"><ele>424.0</ele><time>2026-05-01T12:16:31Z</time></trkpt><trkpt lat="42.20762430301248" lon="14.220007490278439"><ele>423.00000000000006</ele><time>2026-05-01T12:16:32Z</time></trkpt><trkpt lat="42.207695881454995" lon="14.220000132108703"><ele>422.0</ele><time>2026-05-01T12:16:34Z</time></trkpt><trkpt lat="42.20776964324556" lon="14.22003231527209"><ele>421.0</ele><time>2026-05-01T12:16:36Z</time></trkpt><trkpt lat="42.207806016835086" lon="14.22017692788049"><ele>420.0</ele><time>2026-05-01T12:16:39Z</time></trkpt><trkpt lat="42.20783420073404" lon="14.220259709729167"><ele>419.00000000000006</ele><time>2026-05-01T12:16:41Z</time></trkpt><trkpt lat="42.20788321193942" lon="14.22031726857712"><ele>418.0</ele><time>2026-05-01T12:16:44Z</time></trkpt><trkpt lat="42.207916163290015" lon="14.220436410753338"><ele>418.0</ele><time>2026-05-01T12:16:46Z</time></trkpt><trkpt lat="42.20792452603512" lon="14.2205310153223"><ele>418.0</ele><time>2026-05-01T12:16:49Z</time></trkpt><trkpt lat="42.20821684146809" lon="14.220400756205798"><ele>418.0</ele><time>2026-05-01T12:16:50Z</time></trkpt><trkpt lat="42.208277985182846" lon="14.2203601314095"><ele>418.0</ele><time>2026-05-01T12:16:51Z</time></trkpt><trkpt lat="42.20834579829381" lon="14.220330401986716"><ele>416.33333333333337</ele><time>2026-05-01T12:16:52Z</time></trkpt><trkpt lat="42.20841122274816" lon="14.220298783786694"><ele>414.6666666666667</ele><time>2026-05-01T12:16:53Z</time></trkpt><trkpt lat="42.20846834959008" lon="14.220244518088709"><ele>413.0</ele><time>2026-05-01T12:16:54Z</time></trkpt><trkpt lat="42.20854540202865" lon="14.220172962123026"><ele>411.33333333333337</ele><time>2026-05-01T12:16:55Z</time></trkpt><trkpt lat="42.208609718215804" lon="14.220096027447084"><ele>409.6666666666667</ele><time>2026-05-01T12:16:56Z</time></trkpt><trkpt lat="42.20869460307703" lon="14.22002038216991"><ele>408.0</ele><time>2026-05-01T12:16:57Z</time></trkpt><trkpt lat="42.2087723052106" lon="14.219959402529653"><ele>408.0</ele><time>2026-05-01T12:16:58Z</time></trkpt><trkpt lat="42.208839632221874" lon="14.219900232250255"><ele>408.0</ele><time>2026-05-01T12:16:59Z</time></trkpt><trkpt lat="42.208988556846194" lon="14.219939726727874"><ele>408.0</ele><time>2026-05-01T12:17:01Z</time></trkpt><trkpt lat="42.20910812628876" lon="14.219969162618604"><ele>408.0</ele><time>2026-05-01T12:17:02Z</time></trkpt><trkpt lat="42.209232744637966" lon="14.220013470118914"><ele>406.1666666666667</ele><time>2026-05-01T12:17:03Z</time></trkpt><trkpt lat="42.20929337064242" lon="14.22004195198517"><ele>404.33333333333337</ele><time>2026-05-01T12:17:04Z</time></trkpt><trkpt lat="42.209353013515255" lon="14.220069404930351"><ele>402.5</ele><time>2026-05-01T12:17:05Z</time></trkpt><trkpt lat="42.20945527667615" lon="14.220070174529576"><ele>400.6666666666667</ele><time>2026-05-01T12:17:07Z</time></trkpt><trkpt lat="42.20951807637187" lon="14.220050517082482"><ele>398.83333333333337</ele><time>2026-05-01T12:17:08Z</time></trkpt><trkpt lat="42.20958702900132" lon="14.2199697866808"><ele>397.0</ele><time>2026-05-01T12:17:09Z</time></trkpt><trkpt lat="42.20967144624986" lon="14.219834339243107"><ele>397.0</ele><time>2026-05-01T12:17:10Z</time></trkpt><trkpt lat="42.209732037835415" lon="14.219675571946562"><ele>397.0</ele><time>2026-05-01T12:17:11Z</time></trkpt><trkpt lat="42.20976893854526" lon="14.21956671260917"><ele>397.0</ele><time>2026-05-01T12:17:12Z</time></trkpt><trkpt lat="42.209761870837" lon="14.219474754672065"><ele>397.0</ele><time>2026-05-01T12:17:13Z</time></trkpt><trkpt lat="42.209776834217244" lon="14.219378560785797"><ele>397.0</ele><time>2026-05-01T12:17:15Z</time></trkpt><trkpt lat="42.209770395150684" lon="14.219522369134786"><ele>397.0</ele><time>2026-05-01T12:17:21Z</time></trkpt><trkpt lat="42.2097671805881" lon="14.219629092641949"><ele>397.0</ele><time>2026-05-01T12:17:22Z</time></trkpt><trkpt lat="42.209829564897774" lon="14.219885652244162"><ele>397.0</ele><time>2026-05-01T12:17:23.999Z</time></trkpt><trkpt lat="42.209821967399066" lon="14.219999536573827"><ele>397.0</ele><time>2026-05-01T12:17:24.999Z</time></trkpt><trkpt lat="42.209804646896714" lon="14.22011670078787"><ele>397.00000000000006</ele><time>2026-05-01T12:17:25.998Z</time></trkpt><trkpt lat="42.20978834671481" lon="14.22023924926923"><ele>397.0</ele><time>2026-05-01T12:17:26.998Z</time></trkpt><trkpt lat="42.20977413448701" lon="14.220347662353706"><ele>397.0</ele><time>2026-05-01T12:17:27.998Z</time></trkpt><trkpt lat="42.20977796162145" lon="14.220455088620014"><ele>397.0</ele><time>2026-05-01T12:17:28.998Z</time></trkpt><trkpt lat="42.20978361135418" lon="14.220540506883193"><ele>397.00000000000006</ele><time>2026-05-01T12:17:29.998Z</time></trkpt><trkpt lat="42.20980596407727" lon="14.220698844494741"><ele>397.0</ele><time>2026-05-01T12:17:31.998Z</time></trkpt><trkpt lat="42.20983943877451" lon="14.22082935386235"><ele>395.6</ele><time>2026-05-01T12:17:33.998Z</time></trkpt><trkpt lat="42.21003636717285" lon="14.220746994415743"><ele>394.20000000000005</ele><time>2026-05-01T12:17:37.998Z</time></trkpt><trkpt lat="42.21010519399451" lon="14.220711748538118"><ele>392.8</ele><time>2026-05-01T12:17:38.998Z</time></trkpt><trkpt lat="42.21018635255616" lon="14.220713489667945"><ele>391.4</ele><time>2026-05-01T12:17:39.999Z</time></trkpt><trkpt lat="42.21026694348629" lon="14.22071272521265"><ele>390.0</ele><time>2026-05-01T12:17:40.999Z</time></trkpt><trkpt lat="42.210357748528224" lon="14.220759344666293"><ele>390.0</ele><time>2026-05-01T12:17:42.999Z</time></trkpt><trkpt lat="42.21038887505282" lon="14.22089870664125"><ele>390.0</ele><time>2026-05-01T12:17:44.999Z</time></trkpt><trkpt lat="42.210495719080996" lon="14.220896364622684"><ele>390.0</ele><time>2026-05-01T12:17:46.999Z</time></trkpt><trkpt lat="42.21057061965999" lon="14.220859856961942"><ele>390.0</ele><time>2026-05-01T12:17:47.999Z</time></trkpt><trkpt lat="42.21065810753905" lon="14.220828887506778"><ele>390.0</ele><time>2026-05-01T12:17:48.999Z</time></trkpt><trkpt lat="42.210758248076104" lon="14.220804767993494"><ele>388.8</ele><time>2026-05-01T12:17:49.999Z</time></trkpt><trkpt lat="42.21085992353635" lon="14.22078188249928"><ele>387.6</ele><time>2026-05-01T12:17:50.999Z</time></trkpt><trkpt lat="42.21096539210174" lon="14.22076826148953"><ele>386.4</ele><time>2026-05-01T12:17:51.999Z</time></trkpt><trkpt lat="42.21105632823987" lon="14.22075305442903"><ele>385.2</ele><time>2026-05-01T12:17:52.999Z</time></trkpt><trkpt lat="42.21116480973391" lon="14.22073424041878"><ele>384.0</ele><time>2026-05-01T12:17:53.999Z</time></trkpt><trkpt lat="42.211261039846946" lon="14.22070363334844"><ele>384.0</ele><time>2026-05-01T12:17:54.999Z</time></trkpt><trkpt lat="42.21134242452237" lon="14.220684587395844"><ele>384.0</ele><time>2026-05-01T12:17:55.999Z</time></trkpt><trkpt lat="42.2114192887385" lon="14.220674771453396"><ele>384.0</ele><time>2026-05-01T12:17:56.999Z</time></trkpt><trkpt lat="42.21148572284097" lon="14.220644051654936"><ele>384.0</ele><time>2026-05-01T12:17:57.999Z</time></trkpt><trkpt lat="42.21156243669451" lon="14.2206051595347"><ele>384.0</ele><time>2026-05-01T12:17:58.999Z</time></trkpt><trkpt lat="42.21164327085252" lon="14.220580513327272"><ele>384.0</ele><time>2026-05-01T12:17:59.999Z</time></trkpt><trkpt lat="42.21172531718992" lon="14.2205779826377"><ele>381.6666666666667</ele><time>2026-05-01T12:18:00.999Z</time></trkpt><trkpt lat="42.21183249724858" lon="14.22054908159241"><ele>379.3333333333333</ele><time>2026-05-01T12:18:02.999Z</time></trkpt><trkpt lat="42.21190742455228" lon="14.220495697365724"><ele>377.0</ele><time>2026-05-01T12:18:04.999Z</time></trkpt><trkpt lat="42.21195948695134" lon="14.220432608498836"><ele>374.66666666666663</ele><time>2026-05-01T12:18:07.999Z</time></trkpt><trkpt lat="42.212003829405774" lon="14.220342116966165"><ele>372.3333333333333</ele><time>2026-05-01T12:18:12.999Z</time></trkpt><trkpt lat="42.21204767087959" lon="14.220268494458699"><ele>370.0</ele><time>2026-05-01T12:18:16.999Z</time></trkpt><trkpt lat="42.21212286614918" lon="14.220257100797213"><ele>370.0</ele><time>2026-05-01T12:18:19.999Z</time></trkpt><trkpt lat="42.21218474875933" lon="14.220232574712613"><ele>370.0</ele><time>2026-05-01T12:18:21.999Z</time></trkpt><trkpt lat="42.212248720730294" lon="14.220244407720774"><ele>370.0</ele><time>2026-05-01T12:18:25.999Z</time></trkpt><trkpt lat="42.21228011325293" lon="14.220344070171343"><ele>370.0</ele><time>2026-05-01T12:18:27.999Z</time></trkpt><trkpt lat="42.21227030377313" lon="14.220508899624546"><ele>370.0</ele><time>2026-05-01T12:18:29.999Z</time></trkpt><trkpt lat="42.21229995627967" lon="14.220668040027533"><ele>370.4</ele><time>2026-05-01T12:18:31.999Z</time></trkpt><trkpt lat="42.21231941991328" lon="14.220756588642606"><ele>370.8</ele><time>2026-05-01T12:18:32.999Z</time></trkpt><trkpt lat="42.21238047286291" lon="14.22082117807144"><ele>371.20000000000005</ele><time>2026-05-01T12:18:34.999Z</time></trkpt><trkpt lat="42.212513639911506" lon="14.220733665775029"><ele>371.6</ele><time>2026-05-01T12:18:36.999Z</time></trkpt><trkpt lat="42.21261549975112" lon="14.220670008653252"><ele>372.0</ele><time>2026-05-01T12:18:37.999Z</time></trkpt><trkpt lat="42.21270368286639" lon="14.22063390447131"><ele>372.0</ele><time>2026-05-01T12:18:38.999Z</time></trkpt><trkpt lat="42.21277648472423" lon="14.220584305909593"><ele>372.0</ele><time>2026-05-01T12:18:39.999Z</time></trkpt><trkpt lat="42.21287686235564" lon="14.22057129132504"><ele>372.0</ele><time>2026-05-01T12:18:41.999Z</time></trkpt><trkpt lat="42.21302600819903" lon="14.220643114100334"><ele>372.0</ele><time>2026-05-01T12:18:43.999Z</time></trkpt><trkpt lat="42.21308549014766" lon="14.220602520707658"><ele>372.0</ele><time>2026-05-01T12:18:44.999Z</time></trkpt><trkpt lat="42.213157542599916" lon="14.220552608077616"><ele>372.6666666666667</ele><time>2026-05-01T12:18:46.999Z</time></trkpt><trkpt lat="42.21323506384274" lon="14.220497812874669"><ele>373.3333333333333</ele><time>2026-05-01T12:18:48.999Z</time></trkpt><trkpt lat="42.213295547933804" lon="14.220453684740228"><ele>374.0</ele><time>2026-05-01T12:18:49.999Z</time></trkpt><trkpt lat="42.21336755584686" lon="14.220399588586373"><ele>374.66666666666663</ele><time>2026-05-01T12:18:50.999Z</time></trkpt><trkpt lat="42.21344476154138" lon="14.220338927490241"><ele>375.3333333333333</ele><time>2026-05-01T12:18:51.999Z</time></trkpt><trkpt lat="42.21350842594366" lon="14.220287522337324"><ele>376.0</ele><time>2026-05-01T12:18:52.999Z</time></trkpt><trkpt lat="42.21357022882138" lon="14.220235496767012"><ele>376.0</ele><time>2026-05-01T12:18:53.999Z</time></trkpt><trkpt lat="42.2136310549527" lon="14.22018214528185"><ele>376.0</ele><time>2026-05-01T12:18:54.999Z</time></trkpt><trkpt lat="42.21369411651742" lon="14.220125618377642"><ele>376.0</ele><time>2026-05-01T12:18:55.999Z</time></trkpt><trkpt lat="42.21375030989581" lon="14.220071252441647"><ele>376.0</ele><time>2026-05-01T12:18:56.999Z</time></trkpt><trkpt lat="42.21380782098393" lon="14.220015611702923"><ele>376.0</ele><time>2026-05-01T12:18:57.999Z</time></trkpt><trkpt lat="42.213859204894746" lon="14.219959262566196"><ele>376.0</ele><time>2026-05-01T12:18:58.999Z</time></trkpt><trkpt lat="42.213953581034026" lon="14.219857207015957"><ele>373.75</ele><time>2026-05-01T12:19:00.999Z</time></trkpt><trkpt lat="42.21404320427766" lon="14.219757003994317"><ele>371.5</ele><time>2026-05-01T12:19:02.999Z</time></trkpt><trkpt lat="42.214128688699695" lon="14.219651789181123"><ele>369.25</ele><time>2026-05-01T12:19:04.999Z</time></trkpt><trkpt lat="42.21421343202232" lon="14.219541831444701"><ele>367.0</ele><time>2026-05-01T12:19:06.999Z</time></trkpt><trkpt lat="42.21431013949904" lon="14.219414394870215"><ele>367.0</ele><time>2026-05-01T12:19:08.999Z</time></trkpt><trkpt lat="42.21439601630223" lon="14.219296682023462"><ele>367.0</ele><time>2026-05-01T12:19:10.999Z</time></trkpt><trkpt lat="42.21444194408167" lon="14.219233728003543"><ele>367.0</ele><time>2026-05-01T12:19:11.999Z</time></trkpt><trkpt lat="42.214494369014844" lon="14.219161868226028"><ele>367.0</ele><time>2026-05-01T12:19:12.999Z</time></trkpt><trkpt lat="42.214549964750816" lon="14.219085662166691"><ele>367.0</ele><time>2026-05-01T12:19:13.999Z</time></trkpt><trkpt lat="42.21461238450086" lon="14.219000102316286"><ele>367.0</ele><time>2026-05-01T12:19:14.999Z</time></trkpt><trkpt lat="42.21466658599722" lon="14.218925807352806"><ele>366.0</ele><time>2026-05-01T12:19:15.999Z</time></trkpt><trkpt lat="42.214740541294994" lon="14.21882443549147"><ele>365.0</ele><time>2026-05-01T12:19:16.999Z</time></trkpt><trkpt lat="42.21480336469953" lon="14.218738085413896"><ele>364.0</ele><time>2026-05-01T12:19:17.999Z</time></trkpt><trkpt lat="42.2148615059768" lon="14.21866387889998"><ele>363.0</ele><time>2026-05-01T12:19:18.999Z</time></trkpt><trkpt lat="42.21491484096249" lon="14.218597958400219"><ele>362.0</ele><time>2026-05-01T12:19:19.999Z</time></trkpt><trkpt lat="42.21496400151443" lon="14.218539690743881"><ele>361.0</ele><time>2026-05-01T12:19:20.999Z</time></trkpt><trkpt lat="42.215025322015585" lon="14.218468905222242"><ele>361.0</ele><time>2026-05-01T12:19:21.999Z</time></trkpt><trkpt lat="42.21509124230937" lon="14.218395631533172"><ele>361.0</ele><time>2026-05-01T12:19:22.999Z</time></trkpt><trkpt lat="42.215162415248926" lon="14.21831737466224"><ele>361.0</ele><time>2026-05-01T12:19:23.999Z</time></trkpt><trkpt lat="42.215239056935296" lon="14.218236887073562"><ele>361.0</ele><time>2026-05-01T12:19:24.999Z</time></trkpt><trkpt lat="42.215309228344495" lon="14.218165174338296"><ele>361.0</ele><time>2026-05-01T12:19:25.999Z</time></trkpt><trkpt lat="42.21538765934387" lon="14.218087756951308"><ele>359.5</ele><time>2026-05-01T12:19:26.999Z</time></trkpt><trkpt lat="42.21547165230667" lon="14.21800859238307"><ele>358.0</ele><time>2026-05-01T12:19:27.999Z</time></trkpt><trkpt lat="42.21554282816777" lon="14.217943376486161"><ele>356.5</ele><time>2026-05-01T12:19:28.999Z</time></trkpt><trkpt lat="42.215615713724375" lon="14.217882865818433"><ele>355.0</ele><time>2026-05-01T12:19:29.999Z</time></trkpt><trkpt lat="42.21568665160375" lon="14.217826810629658"><ele>353.5</ele><time>2026-05-01T12:19:30.999Z</time></trkpt><trkpt lat="42.215759872273324" lon="14.217772527807929"><ele>352.0</ele><time>2026-05-01T12:19:31.999Z</time></trkpt><trkpt lat="42.215838315477306" lon="14.217716710049407"><ele>352.0</ele><time>2026-05-01T12:19:32.999Z</time></trkpt><trkpt lat="42.21591757918724" lon="14.217663293202548"><ele>352.0</ele><time>2026-05-01T12:19:33.999Z</time></trkpt><trkpt lat="42.21599806050268" lon="14.217609286018472"><ele>352.0</ele><time>2026-05-01T12:19:34.999Z</time></trkpt><trkpt lat="42.21607163586673" lon="14.21756283030895"><ele>352.0</ele><time>2026-05-01T12:19:35.999Z</time></trkpt><trkpt lat="42.21615124469384" lon="14.21751246138168"><ele>352.0</ele><time>2026-05-01T12:19:36.999Z</time></trkpt><trkpt lat="42.21622800536501" lon="14.217463894510308"><ele>352.0</ele><time>2026-05-01T12:19:37.999Z</time></trkpt><trkpt lat="42.216308481323814" lon="14.217412976954215"><ele>352.0</ele><time>2026-05-01T12:19:38.999Z</time></trkpt><trkpt lat="42.21637840471068" lon="14.217368736047327"><ele>352.0</ele><time>2026-05-01T12:19:39.999Z</time></trkpt><trkpt lat="42.21646017119459" lon="14.21731700198127"><ele>352.0</ele><time>2026-05-01T12:19:40.999Z</time></trkpt><trkpt lat="42.21654187798743" lon="14.217265305664974"><ele>352.0</ele><time>2026-05-01T12:19:41.999Z</time></trkpt><trkpt lat="42.21663014477977" lon="14.217209458809988"><ele>352.0</ele><time>2026-05-01T12:19:42.999Z</time></trkpt><trkpt lat="42.21669659102053" lon="14.217167417928835"><ele>352.0</ele><time>2026-05-01T12:19:43.999Z</time></trkpt><trkpt lat="42.21681302029079" lon="14.217093752518315"><ele>350.3333333333333</ele><time>2026-05-01T12:19:46Z</time></trkpt><trkpt lat="42.21688470574525" lon="14.217048396758733"><ele>348.66666666666663</ele><time>2026-05-01T12:19:47Z</time></trkpt><trkpt lat="42.216952759573" lon="14.217005338739572"><ele>347.0</ele><time>2026-05-01T12:19:48Z</time></trkpt><trkpt lat="42.217030144352556" lon="14.216956376990053"><ele>345.3333333333333</ele><time>2026-05-01T12:19:49Z</time></trkpt><trkpt lat="42.217105824603834" lon="14.21690849370471"><ele>343.6666666666667</ele><time>2026-05-01T12:19:50Z</time></trkpt><trkpt lat="42.21718876650102" lon="14.216856015921001"><ele>342.0</ele><time>2026-05-01T12:19:51Z</time></trkpt><trkpt lat="42.21727238645181" lon="14.21680310915739"><ele>342.3333333333333</ele><time>2026-05-01T12:19:52Z</time></trkpt><trkpt lat="42.21736882653761" lon="14.216742091003667"><ele>342.6666666666667</ele><time>2026-05-01T12:19:53Z</time></trkpt><trkpt lat="42.21745020277971" lon="14.216690605296389"><ele>343.0</ele><time>2026-05-01T12:19:54Z</time></trkpt><trkpt lat="42.217519291113796" lon="14.216646116151454"><ele>343.33333333333337</ele><time>2026-05-01T12:19:55Z</time></trkpt><trkpt lat="42.21758593656813" lon="14.216602580192598"><ele>343.6666666666667</ele><time>2026-05-01T12:19:56Z</time></trkpt><trkpt lat="42.217664783861956" lon="14.21655107206208"><ele>344.0</ele><time>2026-05-01T12:19:58Z</time></trkpt><trkpt lat="42.21764326751171" lon="14.216443321829153"><ele>344.0</ele><time>2026-05-01T12:20:00Z</time></trkpt><trkpt lat="42.21768117393078" lon="14.216526457675077"><ele>344.0</ele><time>2026-05-01T12:20:01Z</time></trkpt><trkpt lat="42.2177119083675" lon="14.216625247843623"><ele>344.0</ele><time>2026-05-01T12:20:02Z</time></trkpt><trkpt lat="42.21774531080003" lon="14.216715937400831"><ele>344.0</ele><time>2026-05-01T12:20:03Z</time></trkpt><trkpt lat="42.21769113178007" lon="14.216771366282355"><ele>344.0</ele><time>2026-05-01T12:20:05Z</time></trkpt><trkpt lat="42.2175793506756" lon="14.216831060952451"><ele>344.0</ele><time>2026-05-01T12:20:07Z</time></trkpt><trkpt lat="42.21747382780369" lon="14.216873393823862"><ele>344.0</ele><time>2026-05-01T12:20:09Z</time></trkpt><trkpt lat="42.21755477479212" lon="14.216949521189903"><ele>344.0</ele><time>2026-05-01T12:20:12Z</time></trkpt><trkpt lat="42.21762431840363" lon="14.216945859093483"><ele>344.0</ele><time>2026-05-01T12:20:13Z</time></trkpt><trkpt lat="42.21772729257137" lon="14.216915257585356"><ele>344.0</ele><time>2026-05-01T12:20:14Z</time></trkpt><trkpt lat="42.21784111075841" lon="14.21688611085348"><ele>344.0</ele><time>2026-05-01T12:20:15Z</time></trkpt><trkpt lat="42.21792112252119" lon="14.216872708185372"><ele>344.0</ele><time>2026-05-01T12:20:16Z</time></trkpt><trkpt lat="42.21802822525991" lon="14.216937236570654"><ele>344.0</ele><time>2026-05-01T12:20:18Z</time></trkpt><trkpt lat="42.21816569383129" lon="14.217043503926373"><ele>344.0</ele><time>2026-05-01T12:20:20Z</time></trkpt><trkpt lat="42.218257011140054" lon="14.217173164841835"><ele>344.0</ele><time>2026-05-01T12:20:21Z</time></trkpt><trkpt lat="42.21832548545228" lon="14.217242567893758"><ele>344.6</ele><time>2026-05-01T12:20:22Z</time></trkpt><trkpt lat="42.21837251381326" lon="14.217130468148678"><ele>345.2</ele><time>2026-05-01T12:20:26Z</time></trkpt><trkpt lat="42.21840031621254" lon="14.217013150829855"><ele>345.8</ele><time>2026-05-01T12:20:29Z</time></trkpt><trkpt lat="42.21846230938066" lon="14.216945070535491"><ele>346.40000000000003</ele><time>2026-05-01T12:20:31Z</time></trkpt><trkpt lat="42.21853204250701" lon="14.216842907732739"><ele>347.0</ele><time>2026-05-01T12:20:33Z</time></trkpt><trkpt lat="42.21862422344417" lon="14.216742582510008"><ele>347.0</ele><time>2026-05-01T12:20:35Z</time></trkpt><trkpt lat="42.21872667918111" lon="14.216658929549325"><ele>347.0</ele><time>2026-05-01T12:20:37Z</time></trkpt><trkpt lat="42.21882907874229" lon="14.216570569485556"><ele>347.0</ele><time>2026-05-01T12:20:39Z</time></trkpt><trkpt lat="42.218930935789786" lon="14.216471487732624"><ele>347.0</ele><time>2026-05-01T12:20:41Z</time></trkpt><trkpt lat="42.21898265972172" lon="14.216408226356721"><ele>347.0</ele><time>2026-05-01T12:20:42Z</time></trkpt><trkpt lat="42.21903636616026" lon="14.216341038420486"><ele>346.0</ele><time>2026-05-01T12:20:43Z</time></trkpt><trkpt lat="42.21908124130729" lon="14.216267490416046"><ele>345.0</ele><time>2026-05-01T12:20:44Z</time></trkpt><trkpt lat="42.21915582565013" lon="14.216169693687043"><ele>344.0</ele><time>2026-05-01T12:20:46Z</time></trkpt><trkpt lat="42.21924149018205" lon="14.21606693139056"><ele>343.0</ele><time>2026-05-01T12:20:48Z</time></trkpt><trkpt lat="42.219289404248585" lon="14.215992802374682"><ele>342.0</ele><time>2026-05-01T12:20:49Z</time></trkpt><trkpt lat="42.21932395389264" lon="14.21589879790065"><ele>341.0</ele><time>2026-05-01T12:20:50Z</time></trkpt><trkpt lat="42.21935291285301" lon="14.21581820031612"><ele>341.0</ele><time>2026-05-01T12:20:51Z</time></trkpt><trkpt lat="42.21938534492754" lon="14.215737355718824"><ele>341.0</ele><time>2026-05-01T12:20:52Z</time></trkpt><trkpt lat="42.21942361263503" lon="14.215617658167387"><ele>341.0</ele><time>2026-05-01T12:20:53Z</time></trkpt><trkpt lat="42.21947933091928" lon="14.215462320179407"><ele>341.0</ele><time>2026-05-01T12:20:54Z</time></trkpt><trkpt lat="42.21954619255765" lon="14.215276202276442"><ele>341.0</ele><time>2026-05-01T12:20:54.999Z</time></trkpt><trkpt lat="42.21962313795239" lon="14.215090384695257"><ele>338.5</ele><time>2026-05-01T12:20:55.999Z</time></trkpt><trkpt lat="42.219709640889576" lon="14.214911610063757"><ele>336.0</ele><time>2026-05-01T12:20:56.999Z</time></trkpt><trkpt lat="42.21978705464727" lon="14.214750969387516"><ele>333.5</ele><time>2026-05-01T12:20:57.999Z</time></trkpt><trkpt lat="42.21985902689845" lon="14.21460731992849"><ele>331.0</ele><time>2026-05-01T12:20:58.999Z</time></trkpt><trkpt lat="42.21991787431065" lon="14.214464427141962"><ele>330.20000000000005</ele><time>2026-05-01T12:20:59.999Z</time></trkpt><trkpt lat="42.21996947167132" lon="14.214338887432108"><ele>329.40000000000003</ele><time>2026-05-01T12:21:00.999Z</time></trkpt><trkpt lat="42.22001322033427" lon="14.214231770573354"><ele>328.6</ele><time>2026-05-01T12:21:01.999Z</time></trkpt><trkpt lat="42.22004615213423" lon="14.214079058716239"><ele>327.8</ele><time>2026-05-01T12:21:03.999Z</time></trkpt><trkpt lat="42.220108495015594" lon="14.213927913651812"><ele>327.0</ele><time>2026-05-01T12:21:05.999Z</time></trkpt><trkpt lat="42.22014258323824" lon="14.213781283354301"><ele>326.0</ele><time>2026-05-01T12:21:07.999Z</time></trkpt><trkpt lat="42.22005883160083" lon="14.213658374958342"><ele>325.0</ele><time>2026-05-01T12:21:09.999Z</time></trkpt><trkpt lat="42.21998262366342" lon="14.213637076298008"><ele>324.0</ele><time>2026-05-01T12:21:10.999Z</time></trkpt><trkpt lat="42.21991906288237" lon="14.213621288183155"><ele>323.0</ele><time>2026-05-01T12:21:11.999Z</time></trkpt><trkpt lat="42.21989778323386" lon="14.213537134632654"><ele>322.0</ele><time>2026-05-01T12:21:12.999Z</time></trkpt><trkpt lat="42.21987945818507" lon="14.213408623118902"><ele>321.0</ele><time>2026-05-01T12:21:14.999Z</time></trkpt><trkpt lat="42.21992980187529" lon="14.213323162797403"><ele>321.0</ele><time>2026-05-01T12:21:15.999Z</time></trkpt><trkpt lat="42.219990481683226" lon="14.213238117051866"><ele>321.0</ele><time>2026-05-01T12:21:16.999Z</time></trkpt><trkpt lat="42.220056907637755" lon="14.213139332371867"><ele>321.0</ele><time>2026-05-01T12:21:17.999Z</time></trkpt><trkpt lat="42.22012539899543" lon="14.213027993628996"><ele>321.0</ele><time>2026-05-01T12:21:18.999Z</time></trkpt><trkpt lat="42.22019374770589" lon="14.212915990429517"><ele>321.0</ele><time>2026-05-01T12:21:19.999Z</time></trkpt><trkpt lat="42.22027723922061" lon="14.21281185087075"><ele>321.25</ele><time>2026-05-01T12:21:20.999Z</time></trkpt><trkpt lat="42.22036777935485" lon="14.212704465108532"><ele>321.5</ele><time>2026-05-01T12:21:21.999Z</time></trkpt><trkpt lat="42.22046529083766" lon="14.212595664361132"><ele>321.75</ele><time>2026-05-01T12:21:22.999Z</time></trkpt><trkpt lat="42.22056699684506" lon="14.212478351163597"><ele>322.0</ele><time>2026-05-01T12:21:23.999Z</time></trkpt><trkpt lat="42.2206698448851" lon="14.212353113692737"><ele>321.5</ele><time>2026-05-01T12:21:24.999Z</time></trkpt><trkpt lat="42.22076887275376" lon="14.21222264624283"><ele>321.0</ele><time>2026-05-01T12:21:25.999Z</time></trkpt><trkpt lat="42.22086121136761" lon="14.212089665280477"><ele>320.5</ele><time>2026-05-01T12:21:26.999Z</time></trkpt><trkpt lat="42.22095664143123" lon="14.211962715528506"><ele>320.0</ele><time>2026-05-01T12:21:27.999Z</time></trkpt><trkpt lat="42.22105728665372" lon="14.21185764743847"><ele>320.0</ele><time>2026-05-01T12:21:28.999Z</time></trkpt><trkpt lat="42.221172163806884" lon="14.211768855645108"><ele>320.0</ele><time>2026-05-01T12:21:29.999Z</time></trkpt><trkpt lat="42.22129942599549" lon="14.211685139896353"><ele>320.0</ele><time>2026-05-01T12:21:30.999Z</time></trkpt><trkpt lat="42.221426602437276" lon="14.211603140216472"><ele>320.0</ele><time>2026-05-01T12:21:31.999Z</time></trkpt><trkpt lat="42.22155986891858" lon="14.21154871216229"><ele>318.5</ele><time>2026-05-01T12:21:32.999Z</time></trkpt><trkpt lat="42.22167887406098" lon="14.21147150025677"><ele>317.0</ele><time>2026-05-01T12:21:33.999Z</time></trkpt><trkpt lat="42.22180511214531" lon="14.21139142523136"><ele>315.5</ele><time>2026-05-01T12:21:34.999Z</time></trkpt><trkpt lat="42.22192881583235" lon="14.21131707524471"><ele>314.0</ele><time>2026-05-01T12:21:35.999Z</time></trkpt><trkpt lat="42.22204021699199" lon="14.211254797160631"><ele>314.0</ele><time>2026-05-01T12:21:36.999Z</time></trkpt><trkpt lat="42.22216776603392" lon="14.21121143332607"><ele>314.0</ele><time>2026-05-01T12:21:37.999Z</time></trkpt><trkpt lat="42.22230188689681" lon="14.211176248128895"><ele>314.0</ele><time>2026-05-01T12:21:38.999Z</time></trkpt><trkpt lat="42.22244315096009" lon="14.211117862196744"><ele>314.0</ele><time>2026-05-01T12:21:39.999Z</time></trkpt><trkpt lat="42.22257556068585" lon="14.211045450604782"><ele>313.25</ele><time>2026-05-01T12:21:40.999Z</time></trkpt><trkpt lat="42.222704867150576" lon="14.210953045733312"><ele>312.5</ele><time>2026-05-01T12:21:41.999Z</time></trkpt><trkpt lat="42.22283070526049" lon="14.210851976949215"><ele>311.75</ele><time>2026-05-01T12:21:42.999Z</time></trkpt><trkpt lat="42.222950248555485" lon="14.210743616081418"><ele>311.0</ele><time>2026-05-01T12:21:43.999Z</time></trkpt><trkpt lat="42.22304838318875" lon="14.210641319993151"><ele>311.0</ele><time>2026-05-01T12:21:44.999Z</time></trkpt><trkpt lat="42.22314729211034" lon="14.210538233427478"><ele>311.0</ele><time>2026-05-01T12:21:45.999Z</time></trkpt><trkpt lat="42.22324476960016" lon="14.210428926534352"><ele>311.0</ele><time>2026-05-01T12:21:46.999Z</time></trkpt><trkpt lat="42.223340676632645" lon="14.210320467274286"><ele>311.0</ele><time>2026-05-01T12:21:47.999Z</time></trkpt><trkpt lat="42.22342044534202" lon="14.21020924885906"><ele>310.5</ele><time>2026-05-01T12:21:48.999Z</time></trkpt><trkpt lat="42.223511112990266" lon="14.210104305669734"><ele>310.0</ele><time>2026-05-01T12:21:49.999Z</time></trkpt><trkpt lat="42.22359573164156" lon="14.210008147719563"><ele>309.5</ele><time>2026-05-01T12:21:50.999Z</time></trkpt><trkpt lat="42.223698262233434" lon="14.209915897326177"><ele>309.0</ele><time>2026-05-01T12:21:52Z</time></trkpt><trkpt lat="42.22379861030412" lon="14.209852643768873"><ele>309.0</ele><time>2026-05-01T12:21:53Z</time></trkpt><trkpt lat="42.223896579974465" lon="14.209862718399279"><ele>309.0</ele><time>2026-05-01T12:21:54Z</time></trkpt><trkpt lat="42.2239918033089" lon="14.209846841135844"><ele>309.0</ele><time>2026-05-01T12:21:55Z</time></trkpt><trkpt lat="42.22409772800074" lon="14.209891187480213"><ele>309.0</ele><time>2026-05-01T12:21:56Z</time></trkpt><trkpt lat="42.22419413264727" lon="14.209915279450168"><ele>309.0</ele><time>2026-05-01T12:21:57Z</time></trkpt><trkpt lat="42.224269850681374" lon="14.20989298723542"><ele>309.0</ele><time>2026-05-01T12:21:58Z</time></trkpt><trkpt lat="42.224354803427595" lon="14.209863987531444"><ele>309.0</ele><time>2026-05-01T12:21:59Z</time></trkpt><trkpt lat="42.2244455096154" lon="14.209761824641324"><ele>309.0</ele><time>2026-05-01T12:22:00Z</time></trkpt><trkpt lat="42.22450669088631" lon="14.209606235382138"><ele>309.0</ele><time>2026-05-01T12:22:01Z</time></trkpt><trkpt lat="42.22459024291511" lon="14.209499616508689"><ele>309.4</ele><time>2026-05-01T12:22:02Z</time></trkpt><trkpt lat="42.22466741198883" lon="14.209398476788413"><ele>309.79999999999995</ele><time>2026-05-01T12:22:03Z</time></trkpt><trkpt lat="42.22475478279497" lon="14.209319516807042"><ele>310.20000000000005</ele><time>2026-05-01T12:22:04Z</time></trkpt><trkpt lat="42.22483295471382" lon="14.20924858805546"><ele>310.6</ele><time>2026-05-01T12:22:05Z</time></trkpt><trkpt lat="42.22491443352479" lon="14.209202905674443"><ele>311.0</ele><time>2026-05-01T12:22:06Z</time></trkpt><trkpt lat="42.22501144020051" lon="14.209182975905728"><ele>310.0</ele><time>2026-05-01T12:22:07Z</time></trkpt><trkpt lat="42.225127581844866" lon="14.20916323917316"><ele>309.0</ele><time>2026-05-01T12:22:08Z</time></trkpt><trkpt lat="42.225255410673654" lon="14.209122943364703"><ele>308.0</ele><time>2026-05-01T12:22:09Z</time></trkpt><trkpt lat="42.22536698560651" lon="14.209061351348577"><ele>307.0</ele><time>2026-05-01T12:22:10Z</time></trkpt><trkpt lat="42.225466415708794" lon="14.208980252855877"><ele>306.5</ele><time>2026-05-01T12:22:11Z</time></trkpt><trkpt lat="42.225564282535366" lon="14.208915308626354"><ele>306.0</ele><time>2026-05-01T12:22:12Z</time></trkpt><trkpt lat="42.22567227178078" lon="14.208859978313031"><ele>305.5</ele><time>2026-05-01T12:22:13Z</time></trkpt><trkpt lat="42.225780077992354" lon="14.208809341147859"><ele>305.0</ele><time>2026-05-01T12:22:14Z</time></trkpt><trkpt lat="42.22590077638972" lon="14.208798340653864"><ele>304.6</ele><time>2026-05-01T12:22:15Z</time></trkpt><trkpt lat="42.22600955202531" lon="14.208768957294126"><ele>304.2</ele><time>2026-05-01T12:22:16Z</time></trkpt><trkpt lat="42.22609570704853" lon="14.208714874888912"><ele>303.8</ele><time>2026-05-01T12:22:17Z</time></trkpt><trkpt lat="42.22616775822319" lon="14.208699943465069"><ele>303.4</ele><time>2026-05-01T12:22:18Z</time></trkpt><trkpt lat="42.22623472222808" lon="14.208618863425324"><ele>303.0</ele><time>2026-05-01T12:22:19Z</time></trkpt><trkpt lat="42.22628843124703" lon="14.20848342943953"><ele>303.0</ele><time>2026-05-01T12:22:20Z</time></trkpt><trkpt lat="42.22634472024423" lon="14.208341083865921"><ele>303.0</ele><time>2026-05-01T12:22:21Z</time></trkpt><trkpt lat="42.226394687973105" lon="14.208203192182717"><ele>303.0</ele><time>2026-05-01T12:22:22Z</time></trkpt><trkpt lat="42.22644174156943" lon="14.20806925306336"><ele>303.0</ele><time>2026-05-01T12:22:23Z</time></trkpt><trkpt lat="42.22646838620291" lon="14.20795339044066"><ele>303.0</ele><time>2026-05-01T12:22:24Z</time></trkpt><trkpt lat="42.22652230910019" lon="14.20787029921454"><ele>302.2</ele><time>2026-05-01T12:22:25Z</time></trkpt><trkpt lat="42.226565755838116" lon="14.207786929642921"><ele>301.4</ele><time>2026-05-01T12:22:26Z</time></trkpt><trkpt lat="42.22662160408331" lon="14.20769167083509"><ele>300.59999999999997</ele><time>2026-05-01T12:22:27Z</time></trkpt><trkpt lat="42.226687120597376" lon="14.207590977828165"><ele>299.8</ele><time>2026-05-01T12:22:28Z</time></trkpt><trkpt lat="42.226761579254855" lon="14.207497489016136"><ele>299.0</ele><time>2026-05-01T12:22:29Z</time></trkpt><trkpt lat="42.226835849348376" lon="14.207423573060742"><ele>299.0</ele><time>2026-05-01T12:22:30Z</time></trkpt><trkpt lat="42.22692478727563" lon="14.207364134182322"><ele>299.0</ele><time>2026-05-01T12:22:31Z</time></trkpt><trkpt lat="42.227013475868226" lon="14.207307316284544"><ele>299.0</ele><time>2026-05-01T12:22:32Z</time></trkpt><trkpt lat="42.22710300014303" lon="14.207251784185782"><ele>299.0</ele><time>2026-05-01T12:22:33Z</time></trkpt><trkpt lat="42.227188190514006" lon="14.207201120124985"><ele>299.0</ele><time>2026-05-01T12:22:34Z</time></trkpt><trkpt lat="42.22726452506126" lon="14.207155693485538"><ele>298.1666666666667</ele><time>2026-05-01T12:22:35Z</time></trkpt><trkpt lat="42.22734160934442" lon="14.207101021763592"><ele>297.33333333333337</ele><time>2026-05-01T12:22:36Z</time></trkpt><trkpt lat="42.22741691487889" lon="14.20701514062488"><ele>296.5</ele><time>2026-05-01T12:22:37Z</time></trkpt><trkpt lat="42.22748789483276" lon="14.206958781562031"><ele>295.6666666666667</ele><time>2026-05-01T12:22:38Z</time></trkpt><trkpt lat="42.22754920901614" lon="14.206882023472495"><ele>294.8333333333333</ele><time>2026-05-01T12:22:39Z</time></trkpt><trkpt lat="42.227608563132556" lon="14.206811712201127"><ele>294.0</ele><time>2026-05-01T12:22:40Z</time></trkpt><trkpt lat="42.227641985456444" lon="14.206702944583984"><ele>294.0</ele><time>2026-05-01T12:22:41Z</time></trkpt><trkpt lat="42.22764451481523" lon="14.206589155668365"><ele>294.0</ele><time>2026-05-01T12:22:42Z</time></trkpt><trkpt lat="42.227674549633186" lon="14.206480472790403"><ele>294.0</ele><time>2026-05-01T12:22:43Z</time></trkpt><trkpt lat="42.22771435794419" lon="14.206351516481094"><ele>294.0</ele><time>2026-05-01T12:22:44Z</time></trkpt><trkpt lat="42.227769984846056" lon="14.206212107445406"><ele>294.0</ele><time>2026-05-01T12:22:45Z</time></trkpt><trkpt lat="42.22779962007311" lon="14.206084543776855"><ele>293.5</ele><time>2026-05-01T12:22:46Z</time></trkpt><trkpt lat="42.22783832588236" lon="14.20600457319299"><ele>293.0</ele><time>2026-05-01T12:22:47Z</time></trkpt><trkpt lat="42.22783976775711" lon="14.20590697109142"><ele>292.5</ele><time>2026-05-01T12:22:48Z</time></trkpt><trkpt lat="42.22783218597234" lon="14.205785042266454"><ele>292.0</ele><time>2026-05-01T12:22:49Z</time></trkpt><trkpt lat="42.227777617933896" lon="14.205642981369518"><ele>291.5</ele><time>2026-05-01T12:22:50Z</time></trkpt><trkpt lat="42.227735960084104" lon="14.205525354050149"><ele>291.0</ele><time>2026-05-01T12:22:51Z</time></trkpt><trkpt lat="42.22771361875536" lon="14.205424695107194"><ele>290.8333333333333</ele><time>2026-05-01T12:22:52Z</time></trkpt><trkpt lat="42.22770866450587" lon="14.20533352839154"><ele>290.6666666666667</ele><time>2026-05-01T12:22:53Z</time></trkpt><trkpt lat="42.22775378276945" lon="14.20516750825959"><ele>290.5</ele><time>2026-05-01T12:22:55Z</time></trkpt><trkpt lat="42.22779262617758" lon="14.205088578575456"><ele>290.33333333333337</ele><time>2026-05-01T12:22:56Z</time></trkpt><trkpt lat="42.2278477308489" lon="14.205021669822928"><ele>290.1666666666667</ele><time>2026-05-01T12:22:57Z</time></trkpt><trkpt lat="42.22792809723637" lon="14.204985746327406"><ele>290.0</ele><time>2026-05-01T12:22:58Z</time></trkpt><trkpt lat="42.22802969609708" lon="14.20494407889866"><ele>290.0</ele><time>2026-05-01T12:22:59Z</time></trkpt><trkpt lat="42.228114084797916" lon="14.20488368222486"><ele>290.0</ele><time>2026-05-01T12:23:00Z</time></trkpt><trkpt lat="42.22819712188222" lon="14.204821457645275"><ele>290.0</ele><time>2026-05-01T12:23:01Z</time></trkpt><trkpt lat="42.22826605402615" lon="14.204730103017797"><ele>290.0</ele><time>2026-05-01T12:23:02Z</time></trkpt><trkpt lat="42.22834612500382" lon="14.204643829420638"><ele>290.0</ele><time>2026-05-01T12:23:03Z</time></trkpt><trkpt lat="42.22841386926893" lon="14.204491847784189"><ele>290.0</ele><time>2026-05-01T12:23:04Z</time></trkpt><trkpt lat="42.228466435223105" lon="14.204328941940258"><ele>290.0</ele><time>2026-05-01T12:23:05Z</time></trkpt><trkpt lat="42.228540513371456" lon="14.204188846892833"><ele>290.0</ele><time>2026-05-01T12:23:06Z</time></trkpt><trkpt lat="42.22860659188924" lon="14.204094478827358"><ele>290.0</ele><time>2026-05-01T12:23:07Z</time></trkpt><trkpt lat="42.22868821443291" lon="14.20401484071828"><ele>289.5</ele><time>2026-05-01T12:23:08Z</time></trkpt><trkpt lat="42.228793088757556" lon="14.203952411835031"><ele>289.0</ele><time>2026-05-01T12:23:09Z</time></trkpt><trkpt lat="42.228915224657094" lon="14.203893129039782"><ele>288.5</ele><time>2026-05-01T12:23:10Z</time></trkpt><trkpt lat="42.229031363768804" lon="14.203803650134244"><ele>288.0</ele><time>2026-05-01T12:23:11Z</time></trkpt><trkpt lat="42.229148440909135" lon="14.20373667618594"><ele>288.0</ele><time>2026-05-01T12:23:12Z</time></trkpt><trkpt lat="42.22926465834033" lon="14.203678322505505"><ele>288.0</ele><time>2026-05-01T12:23:13Z</time></trkpt><trkpt lat="42.2293751509876" lon="14.203592094002744"><ele>288.0</ele><time>2026-05-01T12:23:14Z</time></trkpt><trkpt lat="42.229469921525336" lon="14.203488823673386"><ele>288.0</ele><time>2026-05-01T12:23:15Z</time></trkpt><trkpt lat="42.22953433495218" lon="14.203353787891993"><ele>288.0</ele><time>2026-05-01T12:23:16Z</time></trkpt><trkpt lat="42.22959894053952" lon="14.20323295467191"><ele>288.0</ele><time>2026-05-01T12:23:17Z</time></trkpt><trkpt lat="42.22959729456021" lon="14.20306857133444"><ele>288.0</ele><time>2026-05-01T12:23:18Z</time></trkpt><trkpt lat="42.22960191580812" lon="14.202889970248851"><ele>288.0</ele><time>2026-05-01T12:23:19Z</time></trkpt><trkpt lat="42.22962754430175" lon="14.202694265932"><ele>287.0</ele><time>2026-05-01T12:23:20Z</time></trkpt><trkpt lat="42.229654628609296" lon="14.202529226471267"><ele>286.0</ele><time>2026-05-01T12:23:21Z</time></trkpt><trkpt lat="42.2296919810997" lon="14.202377641301824"><ele>285.0</ele><time>2026-05-01T12:23:22Z</time></trkpt><trkpt lat="42.22974914010895" lon="14.202231448323007"><ele>284.0</ele><time>2026-05-01T12:23:23Z</time></trkpt><trkpt lat="42.229834620706995" lon="14.202092688302118"><ele>283.75</ele><time>2026-05-01T12:23:24Z</time></trkpt><trkpt lat="42.22994518676509" lon="14.201977876995564"><ele>283.5</ele><time>2026-05-01T12:23:25Z</time></trkpt><trkpt lat="42.23003734961812" lon="14.201881437017787"><ele>283.25</ele><time>2026-05-01T12:23:26Z</time></trkpt><trkpt lat="42.23013534012673" lon="14.201795992441545"><ele>283.0</ele><time>2026-05-01T12:23:27Z</time></trkpt><trkpt lat="42.23023195576846" lon="14.201694405577365"><ele>283.0</ele><time>2026-05-01T12:23:28Z</time></trkpt><trkpt lat="42.23034436706931" lon="14.201633711182307"><ele>283.0</ele><time>2026-05-01T12:23:29Z</time></trkpt><trkpt lat="42.23046148929185" lon="14.201586283202838"><ele>283.0</ele><time>2026-05-01T12:23:30Z</time></trkpt><trkpt lat="42.23056515664331" lon="14.201492906889625"><ele>283.0</ele><time>2026-05-01T12:23:30.999Z</time></trkpt><trkpt lat="42.23064984966384" lon="14.20135719197971"><ele>282.75</ele><time>2026-05-01T12:23:31.999Z</time></trkpt><trkpt lat="42.2307560861632" lon="14.201226456455304"><ele>282.5</ele><time>2026-05-01T12:23:32.999Z</time></trkpt><trkpt lat="42.2308388019654" lon="14.201074588068495"><ele>282.25</ele><time>2026-05-01T12:23:33.999Z</time></trkpt><trkpt lat="42.230897827967084" lon="14.200927690129392"><ele>282.0</ele><time>2026-05-01T12:23:34.999Z</time></trkpt><trkpt lat="42.23095431494737" lon="14.200797353982452"><ele>282.0</ele><time>2026-05-01T12:23:35.999Z</time></trkpt><trkpt lat="42.231024914341816" lon="14.20068114793788"><ele>282.0</ele><time>2026-05-01T12:23:36.999Z</time></trkpt><trkpt lat="42.23112165331754" lon="14.200581103366762"><ele>282.0</ele><time>2026-05-01T12:23:37.999Z</time></trkpt><trkpt lat="42.23122864018245" lon="14.20047512671783"><ele>282.0</ele><time>2026-05-01T12:23:38.999Z</time></trkpt><trkpt lat="42.23133226199957" lon="14.200352007495813"><ele>281.25</ele><time>2026-05-01T12:23:39.999Z</time></trkpt><trkpt lat="42.2314255316829" lon="14.200216911581887"><ele>280.5</ele><time>2026-05-01T12:23:40.999Z</time></trkpt><trkpt lat="42.23151877073286" lon="14.200080016186215"><ele>279.75</ele><time>2026-05-01T12:23:41.999Z</time></trkpt><trkpt lat="42.23161727069448" lon="14.199940889589138"><ele>279.0</ele><time>2026-05-01T12:23:42.999Z</time></trkpt><trkpt lat="42.23170882190826" lon="14.199815840916514"><ele>278.4</ele><time>2026-05-01T12:23:43.999Z</time></trkpt><trkpt lat="42.23178473831548" lon="14.199726659176811"><ele>277.79999999999995</ele><time>2026-05-01T12:23:44.999Z</time></trkpt><trkpt lat="42.23183846934895" lon="14.199668531911657"><ele>277.20000000000005</ele><time>2026-05-01T12:23:45.999Z</time></trkpt><trkpt lat="42.2319131166654" lon="14.199576849564048"><ele>276.6</ele><time>2026-05-01T12:23:47.999Z</time></trkpt><trkpt lat="42.23198124957826" lon="14.19946599877187"><ele>276.0</ele><time>2026-05-01T12:23:49.999Z</time></trkpt><trkpt lat="42.23202439038483" lon="14.199376692728318"><ele>276.0</ele><time>2026-05-01T12:23:51.999Z</time></trkpt><trkpt lat="42.232060841911306" lon="14.199304004022148"><ele>276.0</ele><time>2026-05-01T12:26:12.001Z</time></trkpt><trkpt lat="42.23212356819359" lon="14.19918759526087"><ele>276.0</ele><time>2026-05-01T12:26:14.001Z</time></trkpt><trkpt lat="42.23217819576787" lon="14.199094345731252"><ele>276.0</ele><time>2026-05-01T12:26:15.001Z</time></trkpt><trkpt lat="42.232239227242815" lon="14.198995065519608"><ele>276.0</ele><time>2026-05-01T12:26:16.001Z</time></trkpt><trkpt lat="42.2323092193734" lon="14.198884524386601"><ele>275.0</ele><time>2026-05-01T12:26:17.001Z</time></trkpt><trkpt lat="42.232385575168806" lon="14.198769758351483"><ele>274.0</ele><time>2026-05-01T12:26:18.001Z</time></trkpt><trkpt lat="42.23245921616343" lon="14.198667875937128"><ele>273.0</ele><time>2026-05-01T12:26:19.001Z</time></trkpt><trkpt lat="42.2325446815928" lon="14.198554068714868"><ele>272.0</ele><time>2026-05-01T12:26:20.001Z</time></trkpt><trkpt lat="42.232639127844024" lon="14.198427320634453"><ele>272.0</ele><time>2026-05-01T12:26:21.001Z</time></trkpt><trkpt lat="42.23272001554585" lon="14.198313420257149"><ele>272.0</ele><time>2026-05-01T12:26:22Z</time></trkpt><trkpt lat="42.232782252611436" lon="14.198221539493474"><ele>272.0</ele><time>2026-05-01T12:26:23Z</time></trkpt><trkpt lat="42.23282760364285" lon="14.19812998933259"><ele>272.0</ele><time>2026-05-01T12:26:24Z</time></trkpt><trkpt lat="42.232877713684516" lon="14.198002825762412"><ele>272.0</ele><time>2026-05-01T12:26:26Z</time></trkpt><trkpt lat="42.23290304626252" lon="14.197919548742519"><ele>271.1666666666667</ele><time>2026-05-01T12:26:28Z</time></trkpt><trkpt lat="42.232928202143434" lon="14.197817824931803"><ele>270.33333333333337</ele><time>2026-05-01T12:26:40Z</time></trkpt><trkpt lat="42.233039212932766" lon="14.197787552713773"><ele>269.5</ele><time>2026-05-01T12:26:44Z</time></trkpt><trkpt lat="42.23310110469922" lon="14.197762385112693"><ele>268.6666666666667</ele><time>2026-05-01T12:26:46Z</time></trkpt><trkpt lat="42.233166032537596" lon="14.197725591690004"><ele>267.8333333333333</ele><time>2026-05-01T12:26:47Z</time></trkpt><trkpt lat="42.23324186692243" lon="14.197705941974972"><ele>267.0</ele><time>2026-05-01T12:26:48Z</time></trkpt><trkpt lat="42.23333683673759" lon="14.197651211860165"><ele>267.0</ele><time>2026-05-01T12:26:49Z</time></trkpt><trkpt lat="42.23343089646574" lon="14.197584928598463"><ele>267.0</ele><time>2026-05-01T12:26:50Z</time></trkpt><trkpt lat="42.23352042278772" lon="14.197514680141119"><ele>267.0</ele><time>2026-05-01T12:26:51Z</time></trkpt><trkpt lat="42.233598414117836" lon="14.197439214285017"><ele>267.0</ele><time>2026-05-01T12:26:52Z</time></trkpt><trkpt lat="42.233660675407236" lon="14.197367668114966"><ele>267.0</ele><time>2026-05-01T12:26:53Z</time></trkpt><trkpt lat="42.23372552108137" lon="14.197266748487491"><ele>267.0</ele><time>2026-05-01T12:26:54Z</time></trkpt><trkpt lat="42.233795843502904" lon="14.197127015343952"><ele>267.0</ele><time>2026-05-01T12:26:55Z</time></trkpt><trkpt lat="42.23385338423317" lon="14.196984861164598"><ele>267.0</ele><time>2026-05-01T12:26:56Z</time></trkpt><trkpt lat="42.233898962667396" lon="14.196860034977442"><ele>267.0</ele><time>2026-05-01T12:26:57Z</time></trkpt><trkpt lat="42.23393782539743" lon="14.196743808942536"><ele>267.0</ele><time>2026-05-01T12:26:58Z</time></trkpt><trkpt lat="42.23397139881594" lon="14.196610802815483"><ele>266.75</ele><time>2026-05-01T12:26:59Z</time></trkpt><trkpt lat="42.233992399176174" lon="14.196460782652077"><ele>266.5</ele><time>2026-05-01T12:27:00Z</time></trkpt><trkpt lat="42.23404045717694" lon="14.196321483078009"><ele>266.25</ele><time>2026-05-01T12:27:01Z</time></trkpt><trkpt lat="42.23409052233844" lon="14.196191688823301"><ele>266.0</ele><time>2026-05-01T12:27:02Z</time></trkpt><trkpt lat="42.23416211198443" lon="14.196040401117592"><ele>266.0</ele><time>2026-05-01T12:27:03Z</time></trkpt><trkpt lat="42.234230327661734" lon="14.19591597867394"><ele>266.0</ele><time>2026-05-01T12:27:04Z</time></trkpt><trkpt lat="42.23430682036166" lon="14.195800068110366"><ele>266.0</ele><time>2026-05-01T12:27:05Z</time></trkpt><trkpt lat="42.23438820718552" lon="14.19568688557874"><ele>266.0</ele><time>2026-05-01T12:27:06Z</time></trkpt><trkpt lat="42.234463712011134" lon="14.195562116314223"><ele>266.0</ele><time>2026-05-01T12:27:07Z</time></trkpt><trkpt lat="42.23456469887916" lon="14.19543691984757"><ele>266.0</ele><time>2026-05-01T12:27:08Z</time></trkpt><trkpt lat="42.23468067707835" lon="14.195325326813371"><ele>266.0</ele><time>2026-05-01T12:27:09Z</time></trkpt><trkpt lat="42.23477478632568" lon="14.195218545941167"><ele>266.0</ele><time>2026-05-01T12:27:10Z</time></trkpt><trkpt lat="42.234876347907296" lon="14.195106021321797"><ele>266.0</ele><time>2026-05-01T12:27:11Z</time></trkpt><trkpt lat="42.23500021168128" lon="14.194980369551304"><ele>266.0</ele><time>2026-05-01T12:27:12Z</time></trkpt><trkpt lat="42.23513210506495" lon="14.194858260897147"><ele>266.0</ele><time>2026-05-01T12:27:13Z</time></trkpt><trkpt lat="42.23524317078961" lon="14.194716075099139"><ele>265.75</ele><time>2026-05-01T12:27:14Z</time></trkpt><trkpt lat="42.23535200053479" lon="14.194598131513793"><ele>265.5</ele><time>2026-05-01T12:27:15Z</time></trkpt><trkpt lat="42.23544307358807" lon="14.194509187204481"><ele>265.25</ele><time>2026-05-01T12:27:16Z</time></trkpt><trkpt lat="42.23554041441274" lon="14.194449428200429"><ele>265.0</ele><time>2026-05-01T12:27:17Z</time></trkpt><trkpt lat="42.235625975360996" lon="14.194365524740608"><ele>265.0</ele><time>2026-05-01T12:27:18Z</time></trkpt><trkpt lat="42.23572053585543" lon="14.194328689317972"><ele>265.0</ele><time>2026-05-01T12:27:19Z</time></trkpt><trkpt lat="42.23583723598611" lon="14.194276186919724"><ele>265.0</ele><time>2026-05-01T12:27:20Z</time></trkpt><trkpt lat="42.235949671335426" lon="14.194214699001794"><ele>265.0</ele><time>2026-05-01T12:27:21Z</time></trkpt><trkpt lat="42.23602397629932" lon="14.194105309969613"><ele>264.25</ele><time>2026-05-01T12:27:22Z</time></trkpt><trkpt lat="42.23611045039232" lon="14.193979957102636"><ele>263.5</ele><time>2026-05-01T12:27:23Z</time></trkpt><trkpt lat="42.236183143971374" lon="14.193811936900923"><ele>262.75</ele><time>2026-05-01T12:27:24Z</time></trkpt><trkpt lat="42.2362468179708" lon="14.1936196619793"><ele>262.0</ele><time>2026-05-01T12:27:25Z</time></trkpt><trkpt lat="42.236300818888616" lon="14.19339672716092"><ele>262.0</ele><time>2026-05-01T12:27:26Z</time></trkpt><trkpt lat="42.23634265853535" lon="14.1932113306858"><ele>262.0</ele><time>2026-05-01T12:27:27Z</time></trkpt><trkpt lat="42.236384182837945" lon="14.193020526782828"><ele>262.0</ele><time>2026-05-01T12:27:28Z</time></trkpt><trkpt lat="42.236416806109816" lon="14.192856263726204"><ele>262.0</ele><time>2026-05-01T12:27:29Z</time></trkpt><trkpt lat="42.23645007998122" lon="14.192695731989035"><ele>262.25</ele><time>2026-05-01T12:27:30Z</time></trkpt><trkpt lat="42.23648709185085" lon="14.19255712936986"><ele>262.5</ele><time>2026-05-01T12:27:31Z</time></trkpt><trkpt lat="42.23653311661879" lon="14.192417962085992"><ele>262.75</ele><time>2026-05-01T12:27:32Z</time></trkpt><trkpt lat="42.23658559504755" lon="14.192271696641162"><ele>263.0</ele><time>2026-05-01T12:27:33Z</time></trkpt><trkpt lat="42.23663212339932" lon="14.192133535076076"><ele>261.5</ele><time>2026-05-01T12:27:34Z</time></trkpt><trkpt lat="42.23667867695808" lon="14.191992421262643"><ele>260.0</ele><time>2026-05-01T12:27:35Z</time></trkpt><trkpt lat="42.2367292839657" lon="14.191851488649062"><ele>258.5</ele><time>2026-05-01T12:27:36Z</time></trkpt><trkpt lat="42.23678918031738" lon="14.19172843862286"><ele>257.0</ele><time>2026-05-01T12:27:37Z</time></trkpt><trkpt lat="42.23687389923054" lon="14.191607859315798"><ele>255.75</ele><time>2026-05-01T12:27:38Z</time></trkpt><trkpt lat="42.23697914258636" lon="14.191467125595558"><ele>254.5</ele><time>2026-05-01T12:27:39Z</time></trkpt><trkpt lat="42.23707379560524" lon="14.191334918508778"><ele>253.25</ele><time>2026-05-01T12:27:40Z</time></trkpt><trkpt lat="42.23715324416782" lon="14.191204356905667"><ele>252.0</ele><time>2026-05-01T12:27:41Z</time></trkpt><trkpt lat="42.23720798580368" lon="14.191077726852624"><ele>252.0</ele><time>2026-05-01T12:27:42Z</time></trkpt><trkpt lat="42.23722718361329" lon="14.190902722477942"><ele>252.0</ele><time>2026-05-01T12:27:43Z</time></trkpt><trkpt lat="42.237257965448805" lon="14.190739161084382"><ele>252.0</ele><time>2026-05-01T12:27:44Z</time></trkpt><trkpt lat="42.23731744011258" lon="14.190573855748589"><ele>252.0</ele><time>2026-05-01T12:27:45Z</time></trkpt><trkpt lat="42.237381258830375" lon="14.190440393317802"><ele>252.2</ele><time>2026-05-01T12:27:46Z</time></trkpt><trkpt lat="42.237450466253904" lon="14.190331456171963"><ele>252.39999999999998</ele><time>2026-05-01T12:27:47Z</time></trkpt><trkpt lat="42.237529715720676" lon="14.190227224346774"><ele>252.60000000000002</ele><time>2026-05-01T12:27:48Z</time></trkpt><trkpt lat="42.237654599284085" lon="14.190210494749023"><ele>252.8</ele><time>2026-05-01T12:27:49Z</time></trkpt><trkpt lat="42.237729794441584" lon="14.190120281413675"><ele>253.0</ele><time>2026-05-01T12:27:50Z</time></trkpt><trkpt lat="42.237783007171586" lon="14.190030000249317"><ele>253.0</ele><time>2026-05-01T12:27:51Z</time></trkpt><trkpt lat="42.23783219948711" lon="14.189914839016014"><ele>253.0</ele><time>2026-05-01T12:27:52Z</time></trkpt><trkpt lat="42.23787718013714" lon="14.189779989400089"><ele>253.0</ele><time>2026-05-01T12:27:53Z</time></trkpt><trkpt lat="42.23790859275624" lon="14.189625564965747"><ele>253.0</ele><time>2026-05-01T12:27:54Z</time></trkpt><trkpt lat="42.23792888553654" lon="14.189488197865801"><ele>253.0</ele><time>2026-05-01T12:27:55Z</time></trkpt><trkpt lat="42.23794803925349" lon="14.189345368305815"><ele>252.16666666666666</ele><time>2026-05-01T12:27:56Z</time></trkpt><trkpt lat="42.23796137015276" lon="14.189224365711306"><ele>251.33333333333331</ele><time>2026-05-01T12:27:57Z</time></trkpt><trkpt lat="42.23796714721798" lon="14.189103163230662"><ele>250.5</ele><time>2026-05-01T12:27:58Z</time></trkpt><trkpt lat="42.237967951930045" lon="14.188995607713792"><ele>249.66666666666669</ele><time>2026-05-01T12:27:59Z</time></trkpt><trkpt lat="42.23796695681525" lon="14.188893508466636"><ele>248.83333333333334</ele><time>2026-05-01T12:28:00Z</time></trkpt><trkpt lat="42.237963616654795" lon="14.188793635288128"><ele>248.0</ele><time>2026-05-01T12:28:01Z</time></trkpt><trkpt lat="42.23795835544521" lon="14.188703031686625"><ele>247.4</ele><time>2026-05-01T12:28:02Z</time></trkpt><trkpt lat="42.23796063452092" lon="14.18861365083127"><ele>246.8</ele><time>2026-05-01T12:28:03Z</time></trkpt><trkpt lat="42.237972998435474" lon="14.188501966555574"><ele>246.2</ele><time>2026-05-01T12:28:04Z</time></trkpt><trkpt lat="42.238026095458345" lon="14.188373233915913"><ele>245.6</ele><time>2026-05-01T12:28:05Z</time></trkpt><trkpt lat="42.2381085905859" lon="14.188273086246982"><ele>245.0</ele><time>2026-05-01T12:28:06Z</time></trkpt><trkpt lat="42.238193463098106" lon="14.188200837722617"><ele>244.6</ele><time>2026-05-01T12:28:07Z</time></trkpt><trkpt lat="42.238266321151116" lon="14.188107486151377"><ele>244.2</ele><time>2026-05-01T12:28:08Z</time></trkpt><trkpt lat="42.23832620317599" lon="14.188018553960472"><ele>243.8</ele><time>2026-05-01T12:28:09.001Z</time></trkpt><trkpt lat="42.23836825839335" lon="14.187920259985932"><ele>243.4</ele><time>2026-05-01T12:28:10.001Z</time></trkpt><trkpt lat="42.238374032863334" lon="14.18779250309377"><ele>243.0</ele><time>2026-05-01T12:28:11.001Z</time></trkpt><trkpt lat="42.23837705851706" lon="14.187666819086255"><ele>243.0</ele><time>2026-05-01T12:28:12.001Z</time></trkpt><trkpt lat="42.238374553378875" lon="14.187523344760931"><ele>243.0</ele><time>2026-05-01T12:28:13.001Z</time></trkpt><trkpt lat="42.2384096750079" lon="14.187387494633503"><ele>243.0</ele><time>2026-05-01T12:28:15.001Z</time></trkpt><trkpt lat="42.23855216817165" lon="14.18732294517133"><ele>243.0</ele><time>2026-05-01T12:28:17.001Z</time></trkpt><trkpt lat="42.23866932896855" lon="14.187287954080004"><ele>243.8</ele><time>2026-05-01T12:28:18.001Z</time></trkpt><trkpt lat="42.238792784676335" lon="14.187264320925605"><ele>244.60000000000002</ele><time>2026-05-01T12:28:19.001Z</time></trkpt><trkpt lat="42.23887307789189" lon="14.187249830315306"><ele>245.39999999999998</ele><time>2026-05-01T12:28:20.001Z</time></trkpt><trkpt lat="42.23896487143219" lon="14.187191710535746"><ele>246.2</ele><time>2026-05-01T12:28:22.001Z</time></trkpt><trkpt lat="42.23903707493058" lon="14.187026123864497"><ele>247.0</ele><time>2026-05-01T12:28:24.001Z</time></trkpt><trkpt lat="42.23909563940119" lon="14.186905691018323"><ele>247.39999999999998</ele><time>2026-05-01T12:28:25Z</time></trkpt><trkpt lat="42.239153532798056" lon="14.186782280925563"><ele>247.79999999999998</ele><time>2026-05-01T12:28:26Z</time></trkpt><trkpt lat="42.239210461431185" lon="14.186611656734513"><ele>248.2</ele><time>2026-05-01T12:28:27Z</time></trkpt><trkpt lat="42.23926341933246" lon="14.186479999023915"><ele>248.6</ele><time>2026-05-01T12:28:28Z</time></trkpt><trkpt lat="42.23931564745869" lon="14.186395138999897"><ele>249.0</ele><time>2026-05-01T12:28:29Z</time></trkpt><trkpt lat="42.239356983554856" lon="14.186313324545452"><ele>250.2</ele><time>2026-05-01T12:28:30Z</time></trkpt><trkpt lat="42.239406069997926" lon="14.186237235417874"><ele>251.39999999999998</ele><time>2026-05-01T12:28:31Z</time></trkpt><trkpt lat="42.239474551589794" lon="14.186173576784865"><ele>252.6</ele><time>2026-05-01T12:28:32Z</time></trkpt><trkpt lat="42.2395615034232" lon="14.186092112184541"><ele>253.8</ele><time>2026-05-01T12:28:33Z</time></trkpt><trkpt lat="42.23964450996963" lon="14.185996848659544"><ele>255.0</ele><time>2026-05-01T12:28:34Z</time></trkpt><trkpt lat="42.239724048419795" lon="14.185898194566802"><ele>255.0</ele><time>2026-05-01T12:28:35Z</time></trkpt><trkpt lat="42.23979017528233" lon="14.185796176864857"><ele>255.0</ele><time>2026-05-01T12:28:36Z</time></trkpt><trkpt lat="42.2398235731139" lon="14.185690158079833"><ele>255.0</ele><time>2026-05-01T12:28:37Z</time></trkpt><trkpt lat="42.23986103468312" lon="14.185617085887639"><ele>255.0</ele><time>2026-05-01T12:28:38Z</time></trkpt><trkpt lat="42.23989192794452" lon="14.185529923541548"><ele>255.0</ele><time>2026-05-01T12:28:39Z</time></trkpt><trkpt lat="42.23992446934516" lon="14.18544599030115"><ele>255.0</ele><time>2026-05-01T12:28:40Z</time></trkpt><trkpt lat="42.23997264390758" lon="14.185368408908586"><ele>254.66666666666666</ele><time>2026-05-01T12:28:41Z</time></trkpt><trkpt lat="42.240022035356" lon="14.185287788219037"><ele>254.33333333333331</ele><time>2026-05-01T12:28:42Z</time></trkpt><trkpt lat="42.240092574123246" lon="14.185224565498723"><ele>254.0</ele><time>2026-05-01T12:28:43Z</time></trkpt><trkpt lat="42.240162034506184" lon="14.185148324267626"><ele>253.66666666666666</ele><time>2026-05-01T12:28:44Z</time></trkpt><trkpt lat="42.24022185442723" lon="14.18507921900053"><ele>253.33333333333331</ele><time>2026-05-01T12:28:45Z</time></trkpt><trkpt lat="42.24028078932299" lon="14.184994943041167"><ele>253.0</ele><time>2026-05-01T12:28:46Z</time></trkpt><trkpt lat="42.24033075272827" lon="14.184932026059661"><ele>252.99999999999997</ele><time>2026-05-01T12:28:47Z</time></trkpt><trkpt lat="42.24041088483399" lon="14.184844453786518"><ele>253.0</ele><time>2026-05-01T12:28:49Z</time></trkpt><trkpt lat="42.24046171173283" lon="14.184787875667011"><ele>253.0</ele><time>2026-05-01T12:28:51Z</time></trkpt><trkpt lat="42.24052885143084" lon="14.184742116985543"><ele>253.0</ele><time>2026-05-01T12:29:20Z</time></trkpt><trkpt lat="42.24060607725724" lon="14.184681374634806"><ele>252.99999999999997</ele><time>2026-05-01T12:29:22Z</time></trkpt><trkpt lat="42.2406794431701" lon="14.184736311720975"><ele>253.0</ele><time>2026-05-01T12:29:23Z</time></trkpt><trkpt lat="42.240751448969334" lon="14.18479386441517"><ele>252.2</ele><time>2026-05-01T12:29:24Z</time></trkpt><trkpt lat="42.240837109170705" lon="14.184848416695319"><ele>251.4</ele><time>2026-05-01T12:29:25Z</time></trkpt><trkpt lat="42.240917919216145" lon="14.184898896345937"><ele>250.59999999999997</ele><time>2026-05-01T12:29:26Z</time></trkpt><trkpt lat="42.24099564080762" lon="14.18494533650753"><ele>249.79999999999998</ele><time>2026-05-01T12:29:27Z</time></trkpt><trkpt lat="42.241086367480015" lon="14.185003100863558"><ele>249.0</ele><time>2026-05-01T12:29:28Z</time></trkpt><trkpt lat="42.241170068317174" lon="14.185057368977159"><ele>249.0</ele><time>2026-05-01T12:29:29Z</time></trkpt><trkpt lat="42.24126185813483" lon="14.185103035745326"><ele>249.0</ele><time>2026-05-01T12:29:30Z</time></trkpt><trkpt lat="42.24133631712224" lon="14.185147049221914"><ele>249.0</ele><time>2026-05-01T12:29:31Z</time></trkpt><trkpt lat="42.24141237142529" lon="14.185190442153429"><ele>249.0</ele><time>2026-05-01T12:29:32Z</time></trkpt><trkpt lat="42.24149420447224" lon="14.185196018862838"><ele>249.0</ele><time>2026-05-01T12:29:33Z</time></trkpt><trkpt lat="42.24157788343453" lon="14.185151475976188"><ele>249.0</ele><time>2026-05-01T12:29:34Z</time></trkpt><trkpt lat="42.24165516113335" lon="14.18507665936656"><ele>248.39999999999998</ele><time>2026-05-01T12:29:35Z</time></trkpt><trkpt lat="42.241722057485575" lon="14.18498407004778"><ele>247.79999999999998</ele><time>2026-05-01T12:29:36Z</time></trkpt><trkpt lat="42.24177828142877" lon="14.18491878930598"><ele>247.20000000000002</ele><time>2026-05-01T12:29:37Z</time></trkpt><trkpt lat="42.241857508973226" lon="14.18483116692027"><ele>246.60000000000002</ele><time>2026-05-01T12:29:38Z</time></trkpt><trkpt lat="42.241923042900694" lon="14.184718409723754"><ele>246.0</ele><time>2026-05-01T12:29:39Z</time></trkpt><trkpt lat="42.24198511860068" lon="14.184618610552798"><ele>246.0</ele><time>2026-05-01T12:29:40Z</time></trkpt><trkpt lat="42.24201910046229" lon="14.184486574436189"><ele>246.00000000000003</ele><time>2026-05-01T12:29:41Z</time></trkpt><trkpt lat="42.24203070513132" lon="14.184331262959756"><ele>246.00000000000003</ele><time>2026-05-01T12:29:42Z</time></trkpt><trkpt lat="42.242029509655474" lon="14.18417162067006"><ele>246.0</ele><time>2026-05-01T12:29:43Z</time></trkpt><trkpt lat="42.24205565115364" lon="14.184037980782323"><ele>246.0</ele><time>2026-05-01T12:29:44Z</time></trkpt><trkpt lat="42.242079463204874" lon="14.183911225722541"><ele>246.0</ele><time>2026-05-01T12:29:45Z</time></trkpt><trkpt lat="42.2421351381628" lon="14.183788330679805"><ele>246.0</ele><time>2026-05-01T12:29:46Z</time></trkpt><trkpt lat="42.24221500395217" lon="14.183641039964858"><ele>246.0</ele><time>2026-05-01T12:29:47Z</time></trkpt><trkpt lat="42.242279973836666" lon="14.183497291569417"><ele>246.0</ele><time>2026-05-01T12:29:48Z</time></trkpt><trkpt lat="42.2423576292932" lon="14.183388234961553"><ele>246.25</ele><time>2026-05-01T12:29:49Z</time></trkpt><trkpt lat="42.242441651334815" lon="14.183319382413911"><ele>246.5</ele><time>2026-05-01T12:29:50Z</time></trkpt><trkpt lat="42.24254676430478" lon="14.183299572366447"><ele>246.75</ele><time>2026-05-01T12:29:51Z</time></trkpt><trkpt lat="42.24266595754749" lon="14.18331029954952"><ele>247.0</ele><time>2026-05-01T12:29:52Z</time></trkpt><trkpt lat="42.24279387305699" lon="14.183355317069385"><ele>246.99999999999997</ele><time>2026-05-01T12:29:53Z</time></trkpt><trkpt lat="42.24290139073515" lon="14.183369093753996"><ele>247.0</ele><time>2026-05-01T12:29:54Z</time></trkpt><trkpt lat="42.242990787764576" lon="14.183386154971835"><ele>247.0</ele><time>2026-05-01T12:29:55Z</time></trkpt><trkpt lat="42.24305776770901" lon="14.183412354092887"><ele>247.0</ele><time>2026-05-01T12:29:56Z</time></trkpt><trkpt lat="42.24312679532402" lon="14.183422968127932"><ele>246.99999999999997</ele><time>2026-05-01T12:29:57Z</time></trkpt><trkpt lat="42.24323267210143" lon="14.183436354549531"><ele>247.0</ele><time>2026-05-01T12:29:59Z</time></trkpt><trkpt lat="42.24330629336587" lon="14.183356419971805"><ele>247.0</ele><time>2026-05-01T12:30:01Z</time></trkpt><trkpt lat="42.243352124280754" lon="14.183274350441517"><ele>247.0</ele><time>2026-05-01T12:30:03Z</time></trkpt><trkpt lat="42.24324547038095" lon="14.183132401487182"><ele>247.0</ele><time>2026-05-01T12:30:06.999Z</time></trkpt><trkpt lat="42.243162329912806" lon="14.18310122335716"><ele>247.0</ele><time>2026-05-01T12:30:07.999Z</time></trkpt><trkpt lat="42.243099808741086" lon="14.183042140221447"><ele>247.0</ele><time>2026-05-01T12:30:08.999Z</time></trkpt><trkpt lat="42.24302061033183" lon="14.182998056408715"><ele>247.33333333333331</ele><time>2026-05-01T12:30:09.999Z</time></trkpt><trkpt lat="42.2429442190187" lon="14.182956907680001"><ele>247.66666666666666</ele><time>2026-05-01T12:30:10.999Z</time></trkpt><trkpt lat="42.24286951524408" lon="14.18291666795687"><ele>248.0</ele><time>2026-05-01T12:30:11.999Z</time></trkpt><trkpt lat="42.242787940179426" lon="14.18287017256885"><ele>248.33333333333331</ele><time>2026-05-01T12:30:12.999Z</time></trkpt><trkpt lat="42.24270862945601" lon="14.182818641799965"><ele>248.66666666666666</ele><time>2026-05-01T12:30:13.999Z</time></trkpt><trkpt lat="42.24263524078684" lon="14.182763105277358"><ele>249.0</ele><time>2026-05-01T12:30:15.001Z</time></trkpt><trkpt lat="42.24257076551901" lon="14.182700035146514"><ele>249.0</ele><time>2026-05-01T12:30:16.001Z</time></trkpt><trkpt lat="42.24251523946359" lon="14.18263829111859"><ele>248.99999999999997</ele><time>2026-05-01T12:30:17.001Z</time></trkpt><trkpt lat="42.24242016021511" lon="14.182524822908416"><ele>248.99999999999997</ele><time>2026-05-01T12:30:19.001Z</time></trkpt><trkpt lat="42.2423722401305" lon="14.182465096163547"><ele>249.0</ele><time>2026-05-01T12:30:20.001Z</time></trkpt><trkpt lat="42.24233216495295" lon="14.182359520083372"><ele>249.0</ele><time>2026-05-01T12:30:22.001Z</time></trkpt><trkpt lat="42.242437223987665" lon="14.182277731784966"><ele>249.39999999999998</ele><time>2026-05-01T12:30:24.001Z</time></trkpt><trkpt lat="42.242527479683865" lon="14.18227219533177"><ele>249.79999999999998</ele><time>2026-05-01T12:30:25.001Z</time></trkpt><trkpt lat="42.24261557088203" lon="14.182224161254243"><ele>250.20000000000002</ele><time>2026-05-01T12:30:26.001Z</time></trkpt><trkpt lat="42.242710897003185" lon="14.18218360839185"><ele>250.60000000000002</ele><time>2026-05-01T12:30:27.001Z</time></trkpt><trkpt lat="42.24281179289509" lon="14.182116374682534"><ele>251.0</ele><time>2026-05-01T12:30:28.001Z</time></trkpt><trkpt lat="42.24291310721182" lon="14.182051659337565"><ele>251.0</ele><time>2026-05-01T12:30:29.001Z</time></trkpt><trkpt lat="42.24301210946879" lon="14.181988334911182"><ele>251.00000000000003</ele><time>2026-05-01T12:30:30Z</time></trkpt><trkpt lat="42.24310956927291" lon="14.181970906209468"><ele>251.00000000000003</ele><time>2026-05-01T12:30:31Z</time></trkpt><trkpt lat="42.24321005608392" lon="14.18192706661392"><ele>251.0</ele><time>2026-05-01T12:30:32Z</time></trkpt><trkpt lat="42.243294728413076" lon="14.18185935566583"><ele>251.0</ele><time>2026-05-01T12:30:33Z</time></trkpt><trkpt lat="42.2433921808149" lon="14.18179865240316"><ele>250.0</ele><time>2026-05-01T12:30:34Z</time></trkpt><trkpt lat="42.243483731412866" lon="14.181737686869608"><ele>249.00000000000003</ele><time>2026-05-01T12:30:35Z</time></trkpt><trkpt lat="42.24359111544872" lon="14.181696501179703"><ele>248.00000000000003</ele><time>2026-05-01T12:30:36Z</time></trkpt><trkpt lat="42.24368966170749" lon="14.181629750498299"><ele>247.0</ele><time>2026-05-01T12:30:37Z</time></trkpt><trkpt lat="42.2438026935341" lon="14.181570967724898"><ele>246.0</ele><time>2026-05-01T12:30:38Z</time></trkpt><trkpt lat="42.24391801018263" lon="14.181520073380957"><ele>244.75</ele><time>2026-05-01T12:30:39Z</time></trkpt><trkpt lat="42.24402783960625" lon="14.181449837085376"><ele>243.5</ele><time>2026-05-01T12:30:40Z</time></trkpt><trkpt lat="42.24413477132405" lon="14.181393530569368"><ele>242.25</ele><time>2026-05-01T12:30:41Z</time></trkpt><trkpt lat="42.244242182986895" lon="14.181335273279483"><ele>241.0</ele><time>2026-05-01T12:30:42Z</time></trkpt><trkpt lat="42.2443408592341" lon="14.181273409391544"><ele>241.0</ele><time>2026-05-01T12:30:43Z</time></trkpt><trkpt lat="42.2444334375712" lon="14.18121372722873"><ele>241.00000000000003</ele><time>2026-05-01T12:30:44Z</time></trkpt><trkpt lat="42.244521386669774" lon="14.181155837410406"><ele>241.00000000000003</ele><time>2026-05-01T12:30:45Z</time></trkpt><trkpt lat="42.24462004851399" lon="14.181118048689552"><ele>241.0</ele><time>2026-05-01T12:30:46Z</time></trkpt><trkpt lat="42.24470329112418" lon="14.181051675349329"><ele>241.0</ele><time>2026-05-01T12:30:47Z</time></trkpt><trkpt lat="42.24478940487082" lon="14.18104265981589"><ele>240.4</ele><time>2026-05-01T12:30:48Z</time></trkpt><trkpt lat="42.24486251152184" lon="14.181052562268691"><ele>239.8</ele><time>2026-05-01T12:30:49Z</time></trkpt><trkpt lat="42.24494583969739" lon="14.181093799499966"><ele>239.20000000000002</ele><time>2026-05-01T12:30:50Z</time></trkpt><trkpt lat="42.24504837420545" lon="14.1811275808476"><ele>238.60000000000002</ele><time>2026-05-01T12:30:51Z</time></trkpt><trkpt lat="42.24514795330892" lon="14.18121115304477"><ele>238.0</ele><time>2026-05-01T12:30:52Z</time></trkpt><trkpt lat="42.24526305252373" lon="14.18130104068875"><ele>238.0</ele><time>2026-05-01T12:30:53Z</time></trkpt><trkpt lat="42.24537668765643" lon="14.181411858371993"><ele>238.0</ele><time>2026-05-01T12:30:54Z</time></trkpt><trkpt lat="42.24548911680207" lon="14.181484934427031"><ele>238.0</ele><time>2026-05-01T12:30:55Z</time></trkpt><trkpt lat="42.245625475794874" lon="14.18153576536878"><ele>238.0</ele><time>2026-05-01T12:30:56Z</time></trkpt><trkpt lat="42.24575130570951" lon="14.181584146241072"><ele>237.75</ele><time>2026-05-01T12:30:57Z</time></trkpt><trkpt lat="42.24585174463883" lon="14.181650149070006"><ele>237.5</ele><time>2026-05-01T12:30:58Z</time></trkpt><trkpt lat="42.24594750722955" lon="14.181738256795311"><ele>237.25</ele><time>2026-05-01T12:30:59Z</time></trkpt><trkpt lat="42.2460346515992" lon="14.181837819072383"><ele>237.0</ele><time>2026-05-01T12:31:00Z</time></trkpt><trkpt lat="42.24614302204014" lon="14.181898783928157"><ele>237.0</ele><time>2026-05-01T12:31:01Z</time></trkpt><trkpt lat="42.24627403527325" lon="14.18192781217368"><ele>237.0</ele><time>2026-05-01T12:31:02Z</time></trkpt><trkpt lat="42.24640836293223" lon="14.181927254659998"><ele>237.0</ele><time>2026-05-01T12:31:03Z</time></trkpt><trkpt lat="42.24654027870881" lon="14.181907589587182"><ele>237.0</ele><time>2026-05-01T12:31:04Z</time></trkpt><trkpt lat="42.246655349537555" lon="14.181895610771917"><ele>235.75</ele><time>2026-05-01T12:31:05Z</time></trkpt><trkpt lat="42.24676498140247" lon="14.181912262707286"><ele>234.5</ele><time>2026-05-01T12:31:06Z</time></trkpt><trkpt lat="42.24687953238604" lon="14.181946473778176"><ele>233.25</ele><time>2026-05-01T12:31:07Z</time></trkpt><trkpt lat="42.2469952152047" lon="14.182010045554229"><ele>232.0</ele><time>2026-05-01T12:31:08Z</time></trkpt><trkpt lat="42.24710644099274" lon="14.182083079911786"><ele>232.0</ele><time>2026-05-01T12:31:09Z</time></trkpt><trkpt lat="42.24719904273019" lon="14.182174313599281"><ele>232.0</ele><time>2026-05-01T12:31:10Z</time></trkpt><trkpt lat="42.247280507740626" lon="14.18227584821535"><ele>232.0</ele><time>2026-05-01T12:31:11Z</time></trkpt><trkpt lat="42.247339843479644" lon="14.182391564657978"><ele>232.0</ele><time>2026-05-01T12:31:12Z</time></trkpt><trkpt lat="42.24738478198614" lon="14.182507116669298"><ele>232.0</ele><time>2026-05-01T12:31:13Z</time></trkpt><trkpt lat="42.24740954299626" lon="14.182612782818842"><ele>232.0</ele><time>2026-05-01T12:31:14Z</time></trkpt><trkpt lat="42.24740838529185" lon="14.182711486841777"><ele>232.0</ele><time>2026-05-01T12:31:15Z</time></trkpt><trkpt lat="42.247526618733836" lon="14.182849204352445"><ele>232.0</ele><time>2026-05-01T12:31:17Z</time></trkpt><trkpt lat="42.24760060509799" lon="14.182912342660027"><ele>232.0</ele><time>2026-05-01T12:31:18Z</time></trkpt><trkpt lat="42.24766951811211" lon="14.182962960071148"><ele>232.0</ele><time>2026-05-01T12:31:19Z</time></trkpt><trkpt lat="42.247741139511724" lon="14.183009225748464"><ele>231.99999999999997</ele><time>2026-05-01T12:31:20Z</time></trkpt><trkpt lat="42.247811128888834" lon="14.18306576469472"><ele>232.0</ele><time>2026-05-01T12:31:21Z</time></trkpt><trkpt lat="42.24787732194739" lon="14.183129638015666"><ele>232.0</ele><time>2026-05-01T12:31:22Z</time></trkpt><trkpt lat="42.24792956462797" lon="14.18322184036643"><ele>232.0</ele><time>2026-05-01T12:31:23Z</time></trkpt><trkpt lat="42.24797207872962" lon="14.183320413966774"><ele>231.99999999999997</ele><time>2026-05-01T12:31:24Z</time></trkpt><trkpt lat="42.24800887130984" lon="14.183406378701754"><ele>232.0</ele><time>2026-05-01T12:31:25Z</time></trkpt><trkpt lat="42.248031945614606" lon="14.183497646297138"><ele>232.39999999999998</ele><time>2026-05-01T12:31:26Z</time></trkpt><trkpt lat="42.248050506659325" lon="14.183586560078563"><ele>232.79999999999998</ele><time>2026-05-01T12:31:27Z</time></trkpt><trkpt lat="42.24805730769016" lon="14.183672163061736"><ele>233.2</ele><time>2026-05-01T12:31:28Z</time></trkpt><trkpt lat="42.2480413403751" lon="14.18382881464818"><ele>233.6</ele><time>2026-05-01T12:31:30Z</time></trkpt><trkpt lat="42.24804177825971" lon="14.1839288489667"><ele>234.0</ele><time>2026-05-01T12:31:32Z</time></trkpt><trkpt lat="42.24816475551282" lon="14.183868660410011"><ele>232.39999999999998</ele><time>2026-05-01T12:31:34Z</time></trkpt><trkpt lat="42.24819204685535" lon="14.183751247173038"><ele>230.79999999999998</ele><time>2026-05-01T12:31:35Z</time></trkpt><trkpt lat="42.24824588579231" lon="14.18364055070533"><ele>229.20000000000002</ele><time>2026-05-01T12:31:36Z</time></trkpt><trkpt lat="42.24829952770216" lon="14.183517042898634"><ele>227.60000000000002</ele><time>2026-05-01T12:31:37Z</time></trkpt><trkpt lat="42.24835278848384" lon="14.183387532470434"><ele>226.0</ele><time>2026-05-01T12:31:38Z</time></trkpt><trkpt lat="42.24843217681637" lon="14.183302252649472"><ele>226.0</ele><time>2026-05-01T12:31:39Z</time></trkpt><trkpt lat="42.24852624665829" lon="14.183239691284236"><ele>226.00000000000003</ele><time>2026-05-01T12:31:40Z</time></trkpt><trkpt lat="42.24862724424372" lon="14.183202344702577"><ele>226.00000000000003</ele><time>2026-05-01T12:31:41Z</time></trkpt><trkpt lat="42.24873567001861" lon="14.183189347413927"><ele>226.0</ele><time>2026-05-01T12:31:42Z</time></trkpt><trkpt lat="42.24884485030858" lon="14.18319918741525"><ele>226.0</ele><time>2026-05-01T12:31:43Z</time></trkpt><trkpt lat="42.24893836444654" lon="14.183233186481997"><ele>224.60000000000002</ele><time>2026-05-01T12:31:44Z</time></trkpt><trkpt lat="42.249003090166234" lon="14.18331821467623"><ele>223.20000000000002</ele><time>2026-05-01T12:31:45Z</time></trkpt><trkpt lat="42.24905165870714" lon="14.183389703214013"><ele>221.79999999999998</ele><time>2026-05-01T12:31:46Z</time></trkpt><trkpt lat="42.24909414333949" lon="14.183468665646918"><ele>220.39999999999998</ele><time>2026-05-01T12:31:47Z</time></trkpt><trkpt lat="42.24914659601045" lon="14.183565539966951"><ele>219.0</ele><time>2026-05-01T12:31:49Z</time></trkpt><trkpt lat="42.24927798410498" lon="14.183466216763525"><ele>219.0</ele><time>2026-05-01T12:31:50Z</time></trkpt><trkpt lat="42.24934893872759" lon="14.183382802990794"><ele>218.99999999999997</ele><time>2026-05-01T12:31:51Z</time></trkpt><trkpt lat="42.24943227294629" lon="14.183292169122392"><ele>218.99999999999997</ele><time>2026-05-01T12:31:52Z</time></trkpt><trkpt lat="42.24952625911688" lon="14.183212607770644"><ele>219.0</ele><time>2026-05-01T12:31:53Z</time></trkpt><trkpt lat="42.24958559121752" lon="14.183120332781645"><ele>219.0</ele><time>2026-05-01T12:31:54Z</time></trkpt><trkpt lat="42.24965555255763" lon="14.183021834395559"><ele>218.79999999999998</ele><time>2026-05-01T12:31:56Z</time></trkpt><trkpt lat="42.24970471668218" lon="14.182951008739176"><ele>218.59999999999997</ele><time>2026-05-01T12:31:58Z</time></trkpt><trkpt lat="42.24975906675628" lon="14.18290624974699"><ele>218.4</ele><time>2026-05-01T12:32:00Z</time></trkpt><trkpt lat="42.249882883259396" lon="14.182812490080304"><ele>218.2</ele><time>2026-05-01T12:32:02Z</time></trkpt><trkpt lat="42.24994758731368" lon="14.182719754430936"><ele>218.0</ele><time>2026-05-01T12:32:03Z</time></trkpt><trkpt lat="42.250005789474656" lon="14.182625809294585"><ele>218.00000000000003</ele><time>2026-05-01T12:32:04Z</time></trkpt><trkpt lat="42.250047700873935" lon="14.182542667642362"><ele>218.0</ele><time>2026-05-01T12:32:04.999Z</time></trkpt><trkpt lat="42.25008957418921" lon="14.182468836829948"><ele>218.0</ele><time>2026-05-01T12:32:05.999Z</time></trkpt><trkpt lat="42.25014691955945" lon="14.182391276538075"><ele>218.0</ele><time>2026-05-01T12:32:06.999Z</time></trkpt><trkpt lat="42.25019638808067" lon="14.182318652715011"><ele>218.00000000000003</ele><time>2026-05-01T12:32:07.999Z</time></trkpt><trkpt lat="42.25024322817335" lon="14.182255322802586"><ele>218.0</ele><time>2026-05-01T12:32:08.999Z</time></trkpt><trkpt lat="42.250345175586304" lon="14.182165423848451"><ele>217.66666666666669</ele><time>2026-05-01T12:32:10.999Z</time></trkpt><trkpt lat="42.250442939167456" lon="14.182082161271147"><ele>217.33333333333334</ele><time>2026-05-01T12:32:12.999Z</time></trkpt><trkpt lat="42.250504643278695" lon="14.182028041956066"><ele>217.0</ele><time>2026-05-01T12:32:13.999Z</time></trkpt><trkpt lat="42.250564802779024" lon="14.18196656522184"><ele>216.66666666666669</ele><time>2026-05-01T12:32:14.999Z</time></trkpt><trkpt lat="42.25062770288179" lon="14.181899692044565"><ele>216.33333333333334</ele><time>2026-05-01T12:32:15.999Z</time></trkpt><trkpt lat="42.25069277140761" lon="14.181826184708363"><ele>216.0</ele><time>2026-05-01T12:32:16.999Z</time></trkpt><trkpt lat="42.25077278767354" lon="14.181742803177913"><ele>216.0</ele><time>2026-05-01T12:32:17.999Z</time></trkpt><trkpt lat="42.25086573579522" lon="14.181670860376995"><ele>216.00000000000003</ele><time>2026-05-01T12:32:18.999Z</time></trkpt><trkpt lat="42.25096135297462" lon="14.181608723024446"><ele>216.00000000000003</ele><time>2026-05-01T12:32:19.999Z</time></trkpt><trkpt lat="42.251068870266984" lon="14.181545276806863"><ele>216.0</ele><time>2026-05-01T12:32:21Z</time></trkpt><trkpt lat="42.251168703076615" lon="14.181487950977292"><ele>216.0</ele><time>2026-05-01T12:32:22Z</time></trkpt><trkpt lat="42.25126835730633" lon="14.181429386982517"><ele>217.20000000000002</ele><time>2026-05-01T12:32:23Z</time></trkpt><trkpt lat="42.2513580940588" lon="14.181374319419907"><ele>218.40000000000003</ele><time>2026-05-01T12:32:24Z</time></trkpt><trkpt lat="42.25143482279888" lon="14.181321219197123"><ele>219.6</ele><time>2026-05-01T12:32:25Z</time></trkpt><trkpt lat="42.251543847196174" lon="14.181260158195215"><ele>220.8</ele><time>2026-05-01T12:32:27Z</time></trkpt><trkpt lat="42.2516456012183" lon="14.181318361467694"><ele>222.0</ele><time>2026-05-01T12:32:29Z</time></trkpt><trkpt lat="42.25172135474745" lon="14.181381464279848"><ele>222.39999999999998</ele><time>2026-05-01T12:32:30Z</time></trkpt><trkpt lat="42.251806629078644" lon="14.18144642406386"><ele>222.79999999999998</ele><time>2026-05-01T12:32:31Z</time></trkpt><trkpt lat="42.251900050421774" lon="14.181530829141447"><ele>223.2</ele><time>2026-05-01T12:32:32Z</time></trkpt><trkpt lat="42.25197892133099" lon="14.18163216787022"><ele>223.6</ele><time>2026-05-01T12:32:33Z</time></trkpt><trkpt lat="42.252045391971855" lon="14.1817201562746"><ele>224.0</ele><time>2026-05-01T12:32:34Z</time></trkpt><trkpt lat="42.25212397668848" lon="14.181800797381477"><ele>221.5</ele><time>2026-05-01T12:32:35Z</time></trkpt><trkpt lat="42.252214579181306" lon="14.181869366667042"><ele>219.0</ele><time>2026-05-01T12:32:36Z</time></trkpt><trkpt lat="42.25232107854417" lon="14.181922116977688"><ele>216.5</ele><time>2026-05-01T12:32:37Z</time></trkpt><trkpt lat="42.25243171682499" lon="14.181942966355514"><ele>214.0</ele><time>2026-05-01T12:32:38Z</time></trkpt><trkpt lat="42.252556941252315" lon="14.181933812956704"><ele>213.75</ele><time>2026-05-01T12:32:39Z</time></trkpt><trkpt lat="42.25268718440137" lon="14.181902080811444"><ele>213.5</ele><time>2026-05-01T12:32:40Z</time></trkpt><trkpt lat="42.25283338787969" lon="14.181867003138768"><ele>213.25</ele><time>2026-05-01T12:32:41Z</time></trkpt><trkpt lat="42.25298589236577" lon="14.181831896500578"><ele>213.0</ele><time>2026-05-01T12:32:42Z</time></trkpt><trkpt lat="42.25313694118835" lon="14.18179724471682"><ele>214.5</ele><time>2026-05-01T12:32:43Z</time></trkpt><trkpt lat="42.253280216832685" lon="14.18177239804548"><ele>216.0</ele><time>2026-05-01T12:32:44Z</time></trkpt><trkpt lat="42.25341272261298" lon="14.181772481477347"><ele>217.5</ele><time>2026-05-01T12:32:45Z</time></trkpt><trkpt lat="42.25353311524546" lon="14.181796191304855"><ele>219.0</ele><time>2026-05-01T12:32:46Z</time></trkpt><trkpt lat="42.25363981195375" lon="14.181876278491371"><ele>219.0</ele><time>2026-05-01T12:32:47Z</time></trkpt><trkpt lat="42.25375509867556" lon="14.18195535497766"><ele>219.0</ele><time>2026-05-01T12:32:48Z</time></trkpt><trkpt lat="42.25386575741201" lon="14.182061631197994"><ele>219.0</ele><time>2026-05-01T12:32:49Z</time></trkpt><trkpt lat="42.253985987416144" lon="14.182169579843992"><ele>219.0</ele><time>2026-05-01T12:32:50Z</time></trkpt><trkpt lat="42.25411478519443" lon="14.182269633283699"><ele>219.33333333333331</ele><time>2026-05-01T12:32:51Z</time></trkpt><trkpt lat="42.254249409579096" lon="14.182373087441213"><ele>219.66666666666666</ele><time>2026-05-01T12:32:52Z</time></trkpt><trkpt lat="42.254390636249106" lon="14.18247879423535"><ele>220.0</ele><time>2026-05-01T12:32:53Z</time></trkpt><trkpt lat="42.25452651588264" lon="14.182586317248175"><ele>220.0</ele><time>2026-05-01T12:32:54Z</time></trkpt><trkpt lat="42.25465151223388" lon="14.182700316325153"><ele>220.0</ele><time>2026-05-01T12:32:55Z</time></trkpt><trkpt lat="42.25475974165749" lon="14.182818527986317"><ele>220.0</ele><time>2026-05-01T12:32:56Z</time></trkpt><trkpt lat="42.254852663778486" lon="14.182947865708652"><ele>220.0</ele><time>2026-05-01T12:32:57Z</time></trkpt><trkpt lat="42.25494124796685" lon="14.183087670545325"><ele>220.33333333333331</ele><time>2026-05-01T12:32:58Z</time></trkpt><trkpt lat="42.25503623508726" lon="14.183233589420496"><ele>220.66666666666669</ele><time>2026-05-01T12:32:59Z</time></trkpt><trkpt lat="42.25514510634627" lon="14.183381436203286"><ele>221.0</ele><time>2026-05-01T12:33:00Z</time></trkpt><trkpt lat="42.25526563560729" lon="14.183537172628512"><ele>221.0</ele><time>2026-05-01T12:33:01Z</time></trkpt><trkpt lat="42.25538163374178" lon="14.183695011940834"><ele>221.0</ele><time>2026-05-01T12:33:02Z</time></trkpt><trkpt lat="42.25549006958191" lon="14.183842481801337"><ele>221.0</ele><time>2026-05-01T12:33:03Z</time></trkpt><trkpt lat="42.255598496111276" lon="14.183991875061801"><ele>221.0</ele><time>2026-05-01T12:33:04Z</time></trkpt><trkpt lat="42.25568913869581" lon="14.184144138025705"><ele>221.0</ele><time>2026-05-01T12:33:05Z</time></trkpt><trkpt lat="42.25577018161155" lon="14.184282209985264"><ele>221.0</ele><time>2026-05-01T12:33:06Z</time></trkpt><trkpt lat="42.25585242455492" lon="14.184408506272186"><ele>221.0</ele><time>2026-05-01T12:33:07Z</time></trkpt><trkpt lat="42.2559402756595" lon="14.184515979375625"><ele>221.0</ele><time>2026-05-01T12:33:08Z</time></trkpt><trkpt lat="42.25605268965644" lon="14.184613410145554"><ele>221.0</ele><time>2026-05-01T12:33:09Z</time></trkpt><trkpt lat="42.25619361836539" lon="14.184702913564278"><ele>221.0</ele><time>2026-05-01T12:33:10Z</time></trkpt><trkpt lat="42.25632602878738" lon="14.18479649066212"><ele>221.0</ele><time>2026-05-01T12:33:11Z</time></trkpt><trkpt lat="42.2564271972964" lon="14.184878121260487"><ele>221.00000000000003</ele><time>2026-05-01T12:33:12Z</time></trkpt><trkpt lat="42.256507327555155" lon="14.184956085721259"><ele>221.0</ele><time>2026-05-01T12:33:13Z</time></trkpt><trkpt lat="42.25658133715136" lon="14.185019360783503"><ele>221.0</ele><time>2026-05-01T12:33:14Z</time></trkpt><trkpt lat="42.25663929894586" lon="14.185070425598248"><ele>221.0</ele><time>2026-05-01T12:33:15Z</time></trkpt><trkpt lat="42.256740847195346" lon="14.184984159573876"><ele>221.00000000000003</ele><time>2026-05-01T12:33:18Z</time></trkpt><trkpt lat="42.25677171475657" lon="14.18489798747369"><ele>221.0</ele><time>2026-05-01T12:33:19Z</time></trkpt><trkpt lat="42.2568162348444" lon="14.184809433137744"><ele>222.5</ele><time>2026-05-01T12:33:20Z</time></trkpt><trkpt lat="42.25690684088764" lon="14.184670168732792"><ele>224.0</ele><time>2026-05-01T12:33:21Z</time></trkpt><trkpt lat="42.25699786060661" lon="14.184584211853815"><ele>225.5</ele><time>2026-05-01T12:33:22Z</time></trkpt><trkpt lat="42.25711249925713" lon="14.18451690877716"><ele>227.0</ele><time>2026-05-01T12:33:23Z</time></trkpt><trkpt lat="42.257228549179715" lon="14.18443779117875"><ele>227.39999999999998</ele><time>2026-05-01T12:33:24Z</time></trkpt><trkpt lat="42.25734222691004" lon="14.184347294638842"><ele>227.79999999999998</ele><time>2026-05-01T12:33:25Z</time></trkpt><trkpt lat="42.257443222926085" lon="14.184241615183982"><ele>228.2</ele><time>2026-05-01T12:33:26Z</time></trkpt><trkpt lat="42.25751734001963" lon="14.18415206032864"><ele>228.6</ele><time>2026-05-01T12:33:27Z</time></trkpt><trkpt lat="42.257558229574" lon="14.18407866815391"><ele>229.0</ele><time>2026-05-01T12:33:28Z</time></trkpt><trkpt lat="42.25757790542751" lon="14.183985845576045"><ele>230.2</ele><time>2026-05-01T12:33:29Z</time></trkpt><trkpt lat="42.257576038043794" lon="14.183849665618798"><ele>231.39999999999998</ele><time>2026-05-01T12:33:30Z</time></trkpt><trkpt lat="42.25758093065199" lon="14.183718637641336"><ele>232.6</ele><time>2026-05-01T12:33:31Z</time></trkpt><trkpt lat="42.257560800879425" lon="14.183563505974202"><ele>233.8</ele><time>2026-05-01T12:33:32Z</time></trkpt><trkpt lat="42.25753155356703" lon="14.183411457313374"><ele>235.0</ele><time>2026-05-01T12:33:33Z</time></trkpt><trkpt lat="42.257503133262354" lon="14.183264658264008"><ele>237.2</ele><time>2026-05-01T12:33:34Z</time></trkpt><trkpt lat="42.25746700049992" lon="14.183107080281943"><ele>239.4</ele><time>2026-05-01T12:33:35Z</time></trkpt><trkpt lat="42.25743779648184" lon="14.182970605806178"><ele>241.60000000000002</ele><time>2026-05-01T12:33:36Z</time></trkpt><trkpt lat="42.25740868374948" lon="14.18286449519429"><ele>243.8</ele><time>2026-05-01T12:33:37Z</time></trkpt><trkpt lat="42.25736195529615" lon="14.182797672709992"><ele>246.0</ele><time>2026-05-01T12:33:38Z</time></trkpt><trkpt lat="42.25728487525329" lon="14.182749634813296"><ele>246.33333333333334</ele><time>2026-05-01T12:33:39Z</time></trkpt><trkpt lat="42.25718885616227" lon="14.182724192831419"><ele>246.66666666666669</ele><time>2026-05-01T12:33:40Z</time></trkpt><trkpt lat="42.25710594372312" lon="14.182700014629216"><ele>247.0</ele><time>2026-05-01T12:33:41Z</time></trkpt><trkpt lat="42.25703182129938" lon="14.182659825094461"><ele>247.33333333333334</ele><time>2026-05-01T12:33:42Z</time></trkpt><trkpt lat="42.25700681571465" lon="14.182551921720734"><ele>247.66666666666669</ele><time>2026-05-01T12:33:44Z</time></trkpt><trkpt lat="42.25705393068493" lon="14.182472111518463"><ele>248.0</ele><time>2026-05-01T12:33:45Z</time></trkpt><trkpt lat="42.257087239948504" lon="14.182336928048702"><ele>249.4</ele><time>2026-05-01T12:33:46Z</time></trkpt><trkpt lat="42.257077558059244" lon="14.18223388265777"><ele>250.8</ele><time>2026-05-01T12:33:47Z</time></trkpt><trkpt lat="42.257107428676434" lon="14.182129013347636"><ele>252.2</ele><time>2026-05-01T12:33:49Z</time></trkpt><trkpt lat="42.25719686540188" lon="14.182073642157206"><ele>253.6</ele><time>2026-05-01T12:33:50Z</time></trkpt><trkpt lat="42.25727871687368" lon="14.181964349091635"><ele>255.0</ele><time>2026-05-01T12:33:51Z</time></trkpt><trkpt lat="42.25733082951517" lon="14.181872590647217"><ele>255.0</ele><time>2026-05-01T12:33:52Z</time></trkpt><trkpt lat="42.25736841277383" lon="14.181714661831087"><ele>255.0</ele><time>2026-05-01T12:33:53Z</time></trkpt><trkpt lat="42.25741419632227" lon="14.18153545166861"><ele>255.0</ele><time>2026-05-01T12:33:54Z</time></trkpt><trkpt lat="42.25746253495084" lon="14.181364926565392"><ele>255.0</ele><time>2026-05-01T12:33:55Z</time></trkpt><trkpt lat="42.2574746193192" lon="14.18126550748625"><ele>256.8</ele><time>2026-05-01T12:33:56Z</time></trkpt><trkpt lat="42.257491791378165" lon="14.181181855617798"><ele>258.6</ele><time>2026-05-01T12:33:57Z</time></trkpt><trkpt lat="42.25753707392098" lon="14.181093014648336"><ele>260.4</ele><time>2026-05-01T12:34:00Z</time></trkpt><trkpt lat="42.25763193168155" lon="14.181030144333691"><ele>262.2</ele><time>2026-05-01T12:34:04Z</time></trkpt><trkpt lat="42.2576856421783" lon="14.180929446454083"><ele>264.0</ele><time>2026-05-01T12:34:05Z</time></trkpt><trkpt lat="42.25775374803354" lon="14.180797807450904"><ele>266.59999999999997</ele><time>2026-05-01T12:34:06Z</time></trkpt><trkpt lat="42.257812332729735" lon="14.180666376983156"><ele>269.2</ele><time>2026-05-01T12:34:07Z</time></trkpt><trkpt lat="42.257849100046336" lon="14.180530550011726"><ele>271.79999999999995</ele><time>2026-05-01T12:34:08Z</time></trkpt><trkpt lat="42.25787154071008" lon="14.180407048792988"><ele>274.4</ele><time>2026-05-01T12:34:09Z</time></trkpt><trkpt lat="42.257882772028736" lon="14.180234610514635"><ele>277.0</ele><time>2026-05-01T12:34:10Z</time></trkpt><trkpt lat="42.2578822512253" lon="14.180071880503869"><ele>277.0</ele><time>2026-05-01T12:34:11Z</time></trkpt><trkpt lat="42.25788183618095" lon="14.179904073224472"><ele>277.0</ele><time>2026-05-01T12:34:12Z</time></trkpt><trkpt lat="42.25788459015122" lon="14.17974420173476"><ele>277.0</ele><time>2026-05-01T12:34:13Z</time></trkpt><trkpt lat="42.25790530302489" lon="14.17959328267348"><ele>277.0</ele><time>2026-05-01T12:34:14Z</time></trkpt><trkpt lat="42.257911311052496" lon="14.17946083451272"><ele>278.8333333333333</ele><time>2026-05-01T12:34:14.999Z</time></trkpt><trkpt lat="42.2578988323949" lon="14.179354551024588"><ele>280.66666666666663</ele><time>2026-05-01T12:34:15.999Z</time></trkpt><trkpt lat="42.25790825644744" lon="14.179235295926379"><ele>282.5</ele><time>2026-05-01T12:34:16.999Z</time></trkpt><trkpt lat="42.257937404421476" lon="14.179130629989382"><ele>284.3333333333333</ele><time>2026-05-01T12:34:17.999Z</time></trkpt><trkpt lat="42.257961198795115" lon="14.179003734346834"><ele>286.1666666666667</ele><time>2026-05-01T12:34:18.999Z</time></trkpt><trkpt lat="42.25796701793237" lon="14.178871932566892"><ele>288.0</ele><time>2026-05-01T12:34:19.999Z</time></trkpt><trkpt lat="42.257999420875244" lon="14.17875342888573"><ele>290.0</ele><time>2026-05-01T12:34:20.999Z</time></trkpt><trkpt lat="42.258038012760544" lon="14.178636032244102"><ele>292.0</ele><time>2026-05-01T12:34:21.999Z</time></trkpt><trkpt lat="42.25805498367896" lon="14.178476095418763"><ele>294.0</ele><time>2026-05-01T12:34:22.999Z</time></trkpt><trkpt lat="42.25806106596195" lon="14.178324222296473"><ele>296.0</ele><time>2026-05-01T12:34:23.999Z</time></trkpt><trkpt lat="42.25807802777318" lon="14.178226289842579"><ele>298.0</ele><time>2026-05-01T12:34:24.999Z</time></trkpt><trkpt lat="42.258096977715006" lon="14.178070662193987"><ele>299.16666666666663</ele><time>2026-05-01T12:34:27.001Z</time></trkpt><trkpt lat="42.25808906113829" lon="14.177961163764225"><ele>300.3333333333333</ele><time>2026-05-01T12:34:28.001Z</time></trkpt><trkpt lat="42.25807783678517" lon="14.177867127152533"><ele>301.5</ele><time>2026-05-01T12:34:29.001Z</time></trkpt><trkpt lat="42.25796243432556" lon="14.177795357680976"><ele>302.6666666666667</ele><time>2026-05-01T12:34:31.001Z</time></trkpt><trkpt lat="42.25789612184097" lon="14.177770305452356"><ele>303.83333333333337</ele><time>2026-05-01T12:34:32.001Z</time></trkpt><trkpt lat="42.25784032244857" lon="14.177705818181629"><ele>305.0</ele><time>2026-05-01T12:34:33.001Z</time></trkpt><trkpt lat="42.25770524859921" lon="14.177726793002552"><ele>305.0</ele><time>2026-05-01T12:34:35.001Z</time></trkpt><trkpt lat="42.257626592465385" lon="14.177766594906691"><ele>305.0</ele><time>2026-05-01T12:34:36.001Z</time></trkpt><trkpt lat="42.25756288298657" lon="14.177742598498021"><ele>305.0</ele><time>2026-05-01T12:34:37.001Z</time></trkpt><trkpt lat="42.25743448915139" lon="14.17768696414905"><ele>305.0</ele><time>2026-05-01T12:34:39.001Z</time></trkpt><trkpt lat="42.25734413771045" lon="14.177743084841792"><ele>305.0</ele><time>2026-05-01T12:34:40.001Z</time></trkpt><trkpt lat="42.257280634553155" lon="14.177787937025961"><ele>307.2</ele><time>2026-05-01T12:34:41.001Z</time></trkpt><trkpt lat="42.25719319499464" lon="14.177840334433247"><ele>309.4</ele><time>2026-05-01T12:34:42Z</time></trkpt><trkpt lat="42.25715240759796" lon="14.177912128627407"><ele>311.6</ele><time>2026-05-01T12:34:43Z</time></trkpt><trkpt lat="42.25709591279127" lon="14.177967096022675"><ele>313.8</ele><time>2026-05-01T12:34:45Z</time></trkpt><trkpt lat="42.25703214167533" lon="14.177875137073425"><ele>316.0</ele><time>2026-05-01T12:34:47Z</time></trkpt><trkpt lat="42.257077056700695" lon="14.177698590939604"><ele>316.0</ele><time>2026-05-01T12:34:49Z</time></trkpt><trkpt lat="42.25711384627986" lon="14.177557030910226"><ele>316.0</ele><time>2026-05-01T12:34:50Z</time></trkpt><trkpt lat="42.257149341909304" lon="14.177399750354638"><ele>316.0</ele><time>2026-05-01T12:34:51Z</time></trkpt><trkpt lat="42.257209400772815" lon="14.17725593315645"><ele>316.0</ele><time>2026-05-01T12:34:52Z</time></trkpt><trkpt lat="42.25730131124957" lon="14.17711531630432"><ele>315.75</ele><time>2026-05-01T12:34:53Z</time></trkpt><trkpt lat="42.257377886275066" lon="14.17698283916655"><ele>315.5</ele><time>2026-05-01T12:34:54Z</time></trkpt><trkpt lat="42.25742437555062" lon="14.176836947173364"><ele>315.25</ele><time>2026-05-01T12:34:55Z</time></trkpt><trkpt lat="42.25746219730882" lon="14.176674669086308"><ele>315.0</ele><time>2026-05-01T12:34:56Z</time></trkpt><trkpt lat="42.257500476369955" lon="14.1765115034063"><ele>317.25</ele><time>2026-05-01T12:34:57Z</time></trkpt><trkpt lat="42.257547984946704" lon="14.176386457813077"><ele>319.5</ele><time>2026-05-01T12:34:58Z</time></trkpt><trkpt lat="42.25758807390919" lon="14.17627189634367"><ele>321.75</ele><time>2026-05-01T12:35:00Z</time></trkpt><trkpt lat="42.25753807520313" lon="14.176136752641664"><ele>324.0</ele><time>2026-05-01T12:35:02Z</time></trkpt><trkpt lat="42.25740355637585" lon="14.176062767882286"><ele>324.0</ele><time>2026-05-01T12:35:04Z</time></trkpt><trkpt lat="42.25734265298694" lon="14.176007202985305"><ele>324.0</ele><time>2026-05-01T12:35:05Z</time></trkpt><trkpt lat="42.257292226076586" lon="14.175924651639729"><ele>324.0</ele><time>2026-05-01T12:35:06Z</time></trkpt><trkpt lat="42.25725127217789" lon="14.175837232081205"><ele>324.0</ele><time>2026-05-01T12:35:07Z</time></trkpt><trkpt lat="42.257224416512656" lon="14.1757110327884"><ele>324.0</ele><time>2026-05-01T12:35:09Z</time></trkpt><trkpt lat="42.257202123010686" lon="14.175631366306826"><ele>324.0</ele><time>2026-05-01T12:35:10Z</time></trkpt><trkpt lat="42.257118952582076" lon="14.175484688036025"><ele>324.8333333333333</ele><time>2026-05-01T12:35:12Z</time></trkpt><trkpt lat="42.25711430092542" lon="14.175398076708314"><ele>325.6666666666667</ele><time>2026-05-01T12:35:14Z</time></trkpt><trkpt lat="42.25714267213094" lon="14.175285117907439"><ele>326.5</ele><time>2026-05-01T12:35:17Z</time></trkpt><trkpt lat="42.25717031265409" lon="14.175184217518254"><ele>327.33333333333337</ele><time>2026-05-01T12:35:18Z</time></trkpt><trkpt lat="42.257213918137545" lon="14.175090096404144"><ele>328.1666666666667</ele><time>2026-05-01T12:35:19Z</time></trkpt><trkpt lat="42.257251367132" lon="14.175002583517923"><ele>329.0</ele><time>2026-05-01T12:35:20Z</time></trkpt><trkpt lat="42.257301864368586" lon="14.174880387389807"><ele>332.33333333333337</ele><time>2026-05-01T12:35:21Z</time></trkpt><trkpt lat="42.25736849171723" lon="14.174721602258968"><ele>335.6666666666667</ele><time>2026-05-01T12:35:22Z</time></trkpt><trkpt lat="42.25746713877415" lon="14.174536873352558"><ele>339.0</ele><time>2026-05-01T12:35:23Z</time></trkpt><trkpt lat="42.2575438659293" lon="14.174358364567047"><ele>339.0</ele><time>2026-05-01T12:35:24Z</time></trkpt><trkpt lat="42.25761740789086" lon="14.174183698425056"><ele>339.0</ele><time>2026-05-01T12:35:25Z</time></trkpt><trkpt lat="42.25769601634924" lon="14.174004977248476"><ele>339.0</ele><time>2026-05-01T12:35:26Z</time></trkpt><trkpt lat="42.25778329329194" lon="14.173824281961947"><ele>340.25</ele><time>2026-05-01T12:35:27Z</time></trkpt><trkpt lat="42.25788024945821" lon="14.173658453761531"><ele>341.5</ele><time>2026-05-01T12:35:28Z</time></trkpt><trkpt lat="42.25798364397197" lon="14.1735051127535"><ele>342.75</ele><time>2026-05-01T12:35:29Z</time></trkpt><trkpt lat="42.258082840193374" lon="14.173384889289313"><ele>344.0</ele><time>2026-05-01T12:35:30Z</time></trkpt><trkpt lat="42.258186041751934" lon="14.173272990117988"><ele>346.6</ele><time>2026-05-01T12:35:31Z</time></trkpt><trkpt lat="42.258275514195" lon="14.173158490857912"><ele>349.2</ele><time>2026-05-01T12:35:32Z</time></trkpt><trkpt lat="42.25833704398766" lon="14.173105128251217"><ele>351.8</ele><time>2026-05-01T12:35:33Z</time></trkpt><trkpt lat="42.258402651889" lon="14.173043507144609"><ele>354.40000000000003</ele><time>2026-05-01T12:35:36Z</time></trkpt><trkpt lat="42.258497386586335" lon="14.172998225164028"><ele>357.0</ele><time>2026-05-01T12:35:42Z</time></trkpt><trkpt lat="42.25852774897458" lon="14.172796489653356"><ele>357.0</ele><time>2026-05-01T12:35:43Z</time></trkpt><trkpt lat="42.25859358727184" lon="14.172664526936883"><ele>357.0</ele><time>2026-05-01T12:35:44.999Z</time></trkpt><trkpt lat="42.25864250110582" lon="14.172602997822146"><ele>357.0</ele><time>2026-05-01T12:35:45.999Z</time></trkpt><trkpt lat="42.258699175113755" lon="14.172548870785992"><ele>357.0</ele><time>2026-05-01T12:35:46.999Z</time></trkpt><trkpt lat="42.258748225668384" lon="14.172453872017863"><ele>357.0</ele><time>2026-05-01T12:35:47.999Z</time></trkpt><trkpt lat="42.258821457407564" lon="14.172366678967782"><ele>357.0</ele><time>2026-05-01T12:35:48.999Z</time></trkpt><trkpt lat="42.25890317983706" lon="14.172263407412805"><ele>361.0</ele><time>2026-05-01T12:35:49.999Z</time></trkpt><trkpt lat="42.2590048366644" lon="14.172159678842963"><ele>365.0</ele><time>2026-05-01T12:35:50.999Z</time></trkpt><trkpt lat="42.25909648034669" lon="14.17206403867737"><ele>369.0</ele><time>2026-05-01T12:35:51.999Z</time></trkpt><trkpt lat="42.25917700162946" lon="14.1719833706853"><ele>373.0</ele><time>2026-05-01T12:35:52.999Z</time></trkpt><trkpt lat="42.25926157526598" lon="14.171892201754492"><ele>373.0</ele><time>2026-05-01T12:35:53.999Z</time></trkpt><trkpt lat="42.259353867694536" lon="14.17179094705261"><ele>373.0</ele><time>2026-05-01T12:35:54.999Z</time></trkpt><trkpt lat="42.259440067165286" lon="14.171663017265098"><ele>373.0</ele><time>2026-05-01T12:35:55.999Z</time></trkpt><trkpt lat="42.259505808667164" lon="14.171521284151352"><ele>373.0</ele><time>2026-05-01T12:35:56.999Z</time></trkpt><trkpt lat="42.25955193960965" lon="14.171398949797986"><ele>372.4</ele><time>2026-05-01T12:35:57.999Z</time></trkpt><trkpt lat="42.259604451893644" lon="14.171329113497897"><ele>371.79999999999995</ele><time>2026-05-01T12:35:58.999Z</time></trkpt><trkpt lat="42.25967086207488" lon="14.171184273109752"><ele>371.2</ele><time>2026-05-01T12:36:00.999Z</time></trkpt><trkpt lat="42.25975994432377" lon="14.171116338084142"><ele>370.6</ele><time>2026-05-01T12:36:01.999Z</time></trkpt><trkpt lat="42.25986096898316" lon="14.170994682058017"><ele>370.0</ele><time>2026-05-01T12:36:02.999Z</time></trkpt><trkpt lat="42.259978169947544" lon="14.170885582137457"><ele>370.0</ele><time>2026-05-01T12:36:03.999Z</time></trkpt><trkpt lat="42.260076515744764" lon="14.170785936770736"><ele>370.0</ele><time>2026-05-01T12:36:04.999Z</time></trkpt><trkpt lat="42.260166995460445" lon="14.170689239754633"><ele>370.0</ele><time>2026-05-01T12:36:05.999Z</time></trkpt><trkpt lat="42.260263351113714" lon="14.170594274276025"><ele>370.0</ele><time>2026-05-01T12:36:06.999Z</time></trkpt><trkpt lat="42.26036418027382" lon="14.17050692435462"><ele>369.25</ele><time>2026-05-01T12:36:07.999Z</time></trkpt><trkpt lat="42.26046355809476" lon="14.170408367546838"><ele>368.5</ele><time>2026-05-01T12:36:08.999Z</time></trkpt><trkpt lat="42.260561413918936" lon="14.170310337351793"><ele>367.75</ele><time>2026-05-01T12:36:09.999Z</time></trkpt><trkpt lat="42.26064822529838" lon="14.170207720121867"><ele>367.0</ele><time>2026-05-01T12:36:10.999Z</time></trkpt><trkpt lat="42.26072493243648" lon="14.17012936748679"><ele>365.0</ele><time>2026-05-01T12:36:11.999Z</time></trkpt><trkpt lat="42.26079614625791" lon="14.17002012113913"><ele>363.0</ele><time>2026-05-01T12:36:12.999Z</time></trkpt><trkpt lat="42.260866119533276" lon="14.169938581950136"><ele>361.0</ele><time>2026-05-01T12:36:13.999Z</time></trkpt><trkpt lat="42.260920068157816" lon="14.169857411709012"><ele>359.0</ele><time>2026-05-01T12:36:14.999Z</time></trkpt><trkpt lat="42.26096261136856" lon="14.169773259475226"><ele>357.0</ele><time>2026-05-01T12:36:15.999Z</time></trkpt><trkpt lat="42.260992199542315" lon="14.169662927528417"><ele>355.0</ele><time>2026-05-01T12:36:16.999Z</time></trkpt><trkpt lat="42.26100466838407" lon="14.169518423483584"><ele>353.6</ele><time>2026-05-01T12:36:17.999Z</time></trkpt><trkpt lat="42.261024734846586" lon="14.169384984533876"><ele>352.2</ele><time>2026-05-01T12:36:18.999Z</time></trkpt><trkpt lat="42.26103502990449" lon="14.16927842283971"><ele>350.79999999999995</ele><time>2026-05-01T12:36:19.999Z</time></trkpt><trkpt lat="42.26104678118549" lon="14.169157030564223"><ele>349.4</ele><time>2026-05-01T12:36:20.999Z</time></trkpt><trkpt lat="42.26105053949478" lon="14.169000232588195"><ele>348.0</ele><time>2026-05-01T12:36:21.998Z</time></trkpt><trkpt lat="42.261021136253405" lon="14.168859045138344"><ele>347.0</ele><time>2026-05-01T12:36:22.998Z</time></trkpt><trkpt lat="42.261004180108" lon="14.168727654027327"><ele>346.0</ele><time>2026-05-01T12:36:23.998Z</time></trkpt><trkpt lat="42.261024843211885" lon="14.16858594859642"><ele>345.0</ele><time>2026-05-01T12:36:24.998Z</time></trkpt><trkpt lat="42.261045618626646" lon="14.168433501207959"><ele>344.0</ele><time>2026-05-01T12:36:25.998Z</time></trkpt><trkpt lat="42.261080226620294" lon="14.168282709254896"><ele>343.0</ele><time>2026-05-01T12:36:26.998Z</time></trkpt><trkpt lat="42.2611081217135" lon="14.16813469035546"><ele>341.2</ele><time>2026-05-01T12:36:27.998Z</time></trkpt><trkpt lat="42.26114268388344" lon="14.168017408011352"><ele>339.4</ele><time>2026-05-01T12:36:28.998Z</time></trkpt><trkpt lat="42.26116450536829" lon="14.16790586394358"><ele>337.59999999999997</ele><time>2026-05-01T12:36:29.998Z</time></trkpt><trkpt lat="42.261179234683055" lon="14.167774684797232"><ele>335.79999999999995</ele><time>2026-05-01T12:36:30.998Z</time></trkpt><trkpt lat="42.26117548255022" lon="14.167629614341799"><ele>334.0</ele><time>2026-05-01T12:36:31.998Z</time></trkpt><trkpt lat="42.26117861651092" lon="14.16749872715361"><ele>334.0</ele><time>2026-05-01T12:36:33Z</time></trkpt><trkpt lat="42.26117208592538" lon="14.167381648083047"><ele>334.0</ele><time>2026-05-01T12:36:34Z</time></trkpt><trkpt lat="42.26114849050371" lon="14.167283117914987"><ele>334.0</ele><time>2026-05-01T12:36:35Z</time></trkpt><trkpt lat="42.26114280187067" lon="14.167196088611547"><ele>334.0</ele><time>2026-05-01T12:36:36Z</time></trkpt><trkpt lat="42.261151158516064" lon="14.167086125545238"><ele>334.0</ele><time>2026-05-01T12:36:38Z</time></trkpt><trkpt lat="42.260981818338074" lon="14.167025499157337"><ele>333.0</ele><time>2026-05-01T12:36:41Z</time></trkpt><trkpt lat="42.260890014789105" lon="14.167002093529554"><ele>332.0</ele><time>2026-05-01T12:36:42Z</time></trkpt><trkpt lat="42.26079113333284" lon="14.166961315823043"><ele>331.0</ele><time>2026-05-01T12:36:43Z</time></trkpt><trkpt lat="42.26070423840989" lon="14.166927032476028"><ele>330.0</ele><time>2026-05-01T12:36:44Z</time></trkpt><trkpt lat="42.26060397200312" lon="14.166888212670008"><ele>329.0</ele><time>2026-05-01T12:36:45Z</time></trkpt><trkpt lat="42.260531785786185" lon="14.166850866154594"><ele>329.0</ele><time>2026-05-01T12:36:46Z</time></trkpt><trkpt lat="42.26046649090654" lon="14.16682706407316"><ele>329.0</ele><time>2026-05-01T12:36:47Z</time></trkpt><trkpt lat="42.26033127938123" lon="14.166763215788903"><ele>329.0</ele><time>2026-05-01T12:36:49Z</time></trkpt><trkpt lat="42.26025894800187" lon="14.166723553631615"><ele>329.0</ele><time>2026-05-01T12:36:50Z</time></trkpt><trkpt lat="42.26018058714412" lon="14.166687353969571"><ele>329.0</ele><time>2026-05-01T12:36:51Z</time></trkpt><trkpt lat="42.26010082576441" lon="14.16667462631597"><ele>329.0</ele><time>2026-05-01T12:36:52Z</time></trkpt><trkpt lat="42.26001140691291" lon="14.166688882675752"><ele>329.0</ele><time>2026-05-01T12:36:53Z</time></trkpt><trkpt lat="42.25993257254186" lon="14.16670781313564"><ele>329.0</ele><time>2026-05-01T12:36:54Z</time></trkpt><trkpt lat="42.25985135942895" lon="14.166717880585999"><ele>329.0</ele><time>2026-05-01T12:36:55Z</time></trkpt><trkpt lat="42.259768877514865" lon="14.166697117125379"><ele>329.0</ele><time>2026-05-01T12:36:56Z</time></trkpt><trkpt lat="42.2596944500706" lon="14.166659290232412"><ele>329.0</ele><time>2026-05-01T12:36:57Z</time></trkpt><trkpt lat="42.259613614276674" lon="14.166617331756422"><ele>330.25</ele><time>2026-05-01T12:36:58Z</time></trkpt><trkpt lat="42.25951131994259" lon="14.16654735152307"><ele>331.5</ele><time>2026-05-01T12:36:59Z</time></trkpt><trkpt lat="42.259392906768475" lon="14.166487849783705"><ele>332.75</ele><time>2026-05-01T12:36:59.999Z</time></trkpt><trkpt lat="42.25927732237609" lon="14.166440716133344"><ele>334.0</ele><time>2026-05-01T12:37:00.999Z</time></trkpt><trkpt lat="42.25917143123353" lon="14.166407391718293"><ele>334.0</ele><time>2026-05-01T12:37:01.999Z</time></trkpt><trkpt lat="42.259071586731984" lon="14.166381763205894"><ele>334.0</ele><time>2026-05-01T12:37:02.999Z</time></trkpt><trkpt lat="42.258994985100266" lon="14.166348495891214"><ele>334.0</ele><time>2026-05-01T12:37:03.999Z</time></trkpt><trkpt lat="42.258923573110145" lon="14.166293083776328"><ele>334.0</ele><time>2026-05-01T12:37:04.999Z</time></trkpt><trkpt lat="42.25884365795455" lon="14.166237648452247"><ele>334.0</ele><time>2026-05-01T12:37:05.999Z</time></trkpt><trkpt lat="42.258747176696716" lon="14.16620321013354"><ele>337.6</ele><time>2026-05-01T12:37:06.999Z</time></trkpt><trkpt lat="42.2586531448828" lon="14.166179876739367"><ele>341.2</ele><time>2026-05-01T12:37:07.999Z</time></trkpt><trkpt lat="42.25855912819669" lon="14.166169888537263"><ele>344.8</ele><time>2026-05-01T12:37:08.999Z</time></trkpt><trkpt lat="42.258460911832465" lon="14.166160003050198"><ele>348.40000000000003</ele><time>2026-05-01T12:37:09.999Z</time></trkpt><trkpt lat="42.25836172050072" lon="14.16614101827789"><ele>352.0</ele><time>2026-05-01T12:37:10.999Z</time></trkpt><trkpt lat="42.25827040196188" lon="14.166143414916757"><ele>352.0</ele><time>2026-05-01T12:37:11.999Z</time></trkpt><trkpt lat="42.258163835338564" lon="14.166169986281739"><ele>352.0</ele><time>2026-05-01T12:37:12.999Z</time></trkpt><trkpt lat="42.25806687751685" lon="14.166190674456203"><ele>352.0</ele><time>2026-05-01T12:37:13.999Z</time></trkpt><trkpt lat="42.25799486261738" lon="14.166177380534378"><ele>352.0</ele><time>2026-05-01T12:37:14.999Z</time></trkpt><trkpt lat="42.257869846127704" lon="14.166239149856219"><ele>352.0</ele><time>2026-05-01T12:37:16.999Z</time></trkpt><trkpt lat="42.25780884725087" lon="14.166343757174378"><ele>352.6</ele><time>2026-05-01T12:37:17.999Z</time></trkpt><trkpt lat="42.25774836381968" lon="14.166458002550447"><ele>353.20000000000005</ele><time>2026-05-01T12:37:18.999Z</time></trkpt><trkpt lat="42.25768885268394" lon="14.16657668073623"><ele>353.8</ele><time>2026-05-01T12:37:19.999Z</time></trkpt><trkpt lat="42.25763562439476" lon="14.166715896769377"><ele>354.4</ele><time>2026-05-01T12:37:20.999Z</time></trkpt><trkpt lat="42.2575809881382" lon="14.166855980630736"><ele>355.0</ele><time>2026-05-01T12:37:21.999Z</time></trkpt><trkpt lat="42.257517427674024" lon="14.16698383510063"><ele>355.0</ele><time>2026-05-01T12:37:22.999Z</time></trkpt><trkpt lat="42.257458154570166" lon="14.167095583082839"><ele>355.0</ele><time>2026-05-01T12:37:23.999Z</time></trkpt><trkpt lat="42.25739003837819" lon="14.167213266854684"><ele>355.0</ele><time>2026-05-01T12:37:24.999Z</time></trkpt><trkpt lat="42.2573285556367" lon="14.167308609699854"><ele>355.0</ele><time>2026-05-01T12:37:25.999Z</time></trkpt><trkpt lat="42.25727291100646" lon="14.167390071060584"><ele>355.0</ele><time>2026-05-01T12:37:26.999Z</time></trkpt><trkpt lat="42.257224131166446" lon="14.16748292413272"><ele>354.6</ele><time>2026-05-01T12:37:27.999Z</time></trkpt><trkpt lat="42.25714107274796" lon="14.167524064759107"><ele>354.2</ele><time>2026-05-01T12:37:28.999Z</time></trkpt><trkpt lat="42.257044308340255" lon="14.16757311786154"><ele>353.79999999999995</ele><time>2026-05-01T12:37:29.999Z</time></trkpt><trkpt lat="42.256939682273305" lon="14.167588282499434"><ele>353.4</ele><time>2026-05-01T12:37:30.999Z</time></trkpt><trkpt lat="42.256826071711714" lon="14.167573169473393"><ele>353.0</ele><time>2026-05-01T12:37:31.999Z</time></trkpt><trkpt lat="42.256733418049414" lon="14.167575574849998"><ele>353.0</ele><time>2026-05-01T12:37:32.999Z</time></trkpt><trkpt lat="42.25665790774843" lon="14.167618171911856"><ele>353.0</ele><time>2026-05-01T12:37:33.999Z</time></trkpt><trkpt lat="42.256554910703976" lon="14.167665963363724"><ele>353.0</ele><time>2026-05-01T12:37:34.999Z</time></trkpt><trkpt lat="42.2564618312637" lon="14.167762654033329"><ele>353.0</ele><time>2026-05-01T12:37:35.999Z</time></trkpt><trkpt lat="42.25635796329383" lon="14.16784798086184"><ele>353.0</ele><time>2026-05-01T12:37:36.999Z</time></trkpt><trkpt lat="42.25626035641084" lon="14.167936707522125"><ele>351.4</ele><time>2026-05-01T12:37:37.999Z</time></trkpt><trkpt lat="42.25617706171104" lon="14.168025186589169"><ele>349.79999999999995</ele><time>2026-05-01T12:37:38.999Z</time></trkpt><trkpt lat="42.25610198209387" lon="14.168115732500118"><ele>348.2</ele><time>2026-05-01T12:37:39.999Z</time></trkpt><trkpt lat="42.256026354248476" lon="14.16821488426449"><ele>346.6</ele><time>2026-05-01T12:37:40.999Z</time></trkpt><trkpt lat="42.2559539850884" lon="14.168279042320508"><ele>345.0</ele><time>2026-05-01T12:37:41.999Z</time></trkpt><trkpt lat="42.25591187914074" lon="14.168371852131624"><ele>345.0</ele><time>2026-05-01T12:37:42.999Z</time></trkpt><trkpt lat="42.25587569487308" lon="14.168457555857836"><ele>345.0</ele><time>2026-05-01T12:37:43.999Z</time></trkpt><trkpt lat="42.25584098114622" lon="14.168568982415552"><ele>345.0</ele><time>2026-05-01T12:37:44.999Z</time></trkpt><trkpt lat="42.255767789695824" lon="14.168672488652046"><ele>345.0</ele><time>2026-05-01T12:37:45.999Z</time></trkpt><trkpt lat="42.25572019035324" lon="14.168794156352307"><ele>345.0</ele><time>2026-05-01T12:37:46.999Z</time></trkpt><trkpt lat="42.25567336861077" lon="14.168914636501892"><ele>345.0</ele><time>2026-05-01T12:37:47.999Z</time></trkpt><trkpt lat="42.25563710458916" lon="14.169025394588097"><ele>345.0</ele><time>2026-05-01T12:37:48.999Z</time></trkpt><trkpt lat="42.25560249259239" lon="14.169120249302068"><ele>345.0</ele><time>2026-05-01T12:37:49.999Z</time></trkpt><trkpt lat="42.25556068520006" lon="14.169187227001633"><ele>345.0</ele><time>2026-05-01T12:37:50.999Z</time></trkpt><trkpt lat="42.255498002469736" lon="14.16902492480251"><ele>345.0</ele><time>2026-05-01T12:37:55.999Z</time></trkpt><trkpt lat="42.25546701632953" lon="14.16887360362307"><ele>342.0</ele><time>2026-05-01T12:37:56.999Z</time></trkpt><trkpt lat="42.255431594680495" lon="14.16869540788968"><ele>339.0</ele><time>2026-05-01T12:37:57.999Z</time></trkpt><trkpt lat="42.25545032665298" lon="14.168499991844165"><ele>336.0</ele><time>2026-05-01T12:37:58.999Z</time></trkpt><trkpt lat="42.255438578663" lon="14.168330900725117"><ele>333.0</ele><time>2026-05-01T12:37:59.999Z</time></trkpt><trkpt lat="42.25541028333897" lon="14.16817152011147"><ele>332.75</ele><time>2026-05-01T12:38:00.999Z</time></trkpt><trkpt lat="42.25538191785902" lon="14.168004785505124"><ele>332.5</ele><time>2026-05-01T12:38:01.999Z</time></trkpt><trkpt lat="42.255349573960636" lon="14.167837370079587"><ele>332.25</ele><time>2026-05-01T12:38:02.999Z</time></trkpt><trkpt lat="42.25532428393185" lon="14.167679802499185"><ele>332.0</ele><time>2026-05-01T12:38:03.999Z</time></trkpt><trkpt lat="42.25530573024739" lon="14.167536227970196"><ele>332.0</ele><time>2026-05-01T12:38:04.999Z</time></trkpt><trkpt lat="42.25528564211188" lon="14.16738892013292"><ele>332.0</ele><time>2026-05-01T12:38:05.999Z</time></trkpt><trkpt lat="42.25523269560504" lon="14.167247089798169"><ele>332.0</ele><time>2026-05-01T12:38:06.999Z</time></trkpt><trkpt lat="42.255160096041074" lon="14.16709440695513"><ele>332.0</ele><time>2026-05-01T12:38:07.999Z</time></trkpt><trkpt lat="42.25507572590827" lon="14.166927239241025"><ele>330.25</ele><time>2026-05-01T12:38:08.999Z</time></trkpt><trkpt lat="42.25499645049413" lon="14.166765543803344"><ele>328.5</ele><time>2026-05-01T12:38:09.999Z</time></trkpt><trkpt lat="42.25492019691061" lon="14.166609514605662"><ele>326.75</ele><time>2026-05-01T12:38:10.999Z</time></trkpt><trkpt lat="42.25486218594334" lon="14.166440416521484"><ele>325.0</ele><time>2026-05-01T12:38:11.999Z</time></trkpt><trkpt lat="42.2547835805078" lon="14.166259705474772"><ele>324.0</ele><time>2026-05-01T12:38:12.999Z</time></trkpt><trkpt lat="42.254694169103686" lon="14.166082224337664"><ele>323.0</ele><time>2026-05-01T12:38:13.999Z</time></trkpt><trkpt lat="42.25460215262814" lon="14.16592502634666"><ele>322.0</ele><time>2026-05-01T12:38:14.999Z</time></trkpt><trkpt lat="42.25451104247455" lon="14.165792979983465"><ele>321.0</ele><time>2026-05-01T12:38:15.999Z</time></trkpt><trkpt lat="42.254430977763356" lon="14.16563538945403"><ele>319.5</ele><time>2026-05-01T12:38:16.999Z</time></trkpt><trkpt lat="42.25433843635019" lon="14.16548590058608"><ele>318.0</ele><time>2026-05-01T12:38:17.999Z</time></trkpt><trkpt lat="42.25426193820271" lon="14.16534230074024"><ele>316.5</ele><time>2026-05-01T12:38:18.999Z</time></trkpt><trkpt lat="42.254190087463684" lon="14.16520340515255"><ele>315.0</ele><time>2026-05-01T12:38:19.999Z</time></trkpt><trkpt lat="42.25412193097006" lon="14.165044769245071"><ele>315.0</ele><time>2026-05-01T12:38:20.999Z</time></trkpt><trkpt lat="42.25403637368024" lon="14.164882525214653"><ele>315.0</ele><time>2026-05-01T12:38:21.999Z</time></trkpt><trkpt lat="42.25394615519856" lon="14.164716828598984"><ele>315.0</ele><time>2026-05-01T12:38:22.999Z</time></trkpt><trkpt lat="42.25385556393993" lon="14.164539630532996"><ele>313.0</ele><time>2026-05-01T12:38:23.999Z</time></trkpt><trkpt lat="42.25374179315504" lon="14.164353257207546"><ele>311.0</ele><time>2026-05-01T12:38:24.999Z</time></trkpt><trkpt lat="42.25362935981706" lon="14.1641598878572"><ele>309.0</ele><time>2026-05-01T12:38:25.999Z</time></trkpt><trkpt lat="42.25351532510108" lon="14.163974512786517"><ele>309.0</ele><time>2026-05-01T12:38:26.999Z</time></trkpt><trkpt lat="42.25341903863551" lon="14.16381228869276"><ele>309.0</ele><time>2026-05-01T12:38:27.999Z</time></trkpt><trkpt lat="42.25333494000923" lon="14.163657251358266"><ele>309.0</ele><time>2026-05-01T12:38:28.999Z</time></trkpt><trkpt lat="42.25326202859637" lon="14.163509888574602"><ele>309.0</ele><time>2026-05-01T12:38:29.999Z</time></trkpt><trkpt lat="42.253199380605366" lon="14.163368896382877"><ele>309.0</ele><time>2026-05-01T12:38:30.999Z</time></trkpt><trkpt lat="42.25314784404583" lon="14.163226849731018"><ele>309.0</ele><time>2026-05-01T12:38:31.999Z</time></trkpt><trkpt lat="42.25312371395674" lon="14.16306445976771"><ele>309.0</ele><time>2026-05-01T12:38:32.999Z</time></trkpt><trkpt lat="42.253077448846085" lon="14.162888264951935"><ele>309.0</ele><time>2026-05-01T12:38:33.999Z</time></trkpt><trkpt lat="42.25306058356737" lon="14.162694768262027"><ele>306.6666666666667</ele><time>2026-05-01T12:38:34.999Z</time></trkpt><trkpt lat="42.25302295715486" lon="14.1624909036345"><ele>304.33333333333337</ele><time>2026-05-01T12:38:35.999Z</time></trkpt><trkpt lat="42.25298139801092" lon="14.16229407061859"><ele>302.0</ele><time>2026-05-01T12:38:36.999Z</time></trkpt><trkpt lat="42.25291849954551" lon="14.162072800700031"><ele>302.0</ele><time>2026-05-01T12:38:37.999Z</time></trkpt><trkpt lat="42.25285984174174" lon="14.161855694204702"><ele>302.0</ele><time>2026-05-01T12:38:39Z</time></trkpt><trkpt lat="42.25279847752282" lon="14.161638204591595"><ele>302.0</ele><time>2026-05-01T12:38:40Z</time></trkpt><trkpt lat="42.25274672812403" lon="14.161440143572959"><ele>301.0</ele><time>2026-05-01T12:38:41Z</time></trkpt><trkpt lat="42.25269105844832" lon="14.161258537871396"><ele>300.0</ele><time>2026-05-01T12:38:42Z</time></trkpt><trkpt lat="42.252632798301626" lon="14.161082203370364"><ele>299.0</ele><time>2026-05-01T12:38:43Z</time></trkpt><trkpt lat="42.252575716405055" lon="14.160916400069922"><ele>298.0</ele><time>2026-05-01T12:38:44Z</time></trkpt><trkpt lat="42.25252230550982" lon="14.160759887469178"><ele>295.5</ele><time>2026-05-01T12:38:45Z</time></trkpt><trkpt lat="42.25245931058571" lon="14.160601473249619"><ele>293.0</ele><time>2026-05-01T12:38:46Z</time></trkpt><trkpt lat="42.252406371782556" lon="14.160418414305157"><ele>290.5</ele><time>2026-05-01T12:38:47Z</time></trkpt><trkpt lat="42.25238098989132" lon="14.160210654447155"><ele>288.0</ele><time>2026-05-01T12:38:48Z</time></trkpt><trkpt lat="42.25235337383283" lon="14.160000889925596"><ele>288.25</ele><time>2026-05-01T12:38:49Z</time></trkpt><trkpt lat="42.252310259903474" lon="14.159824854147333"><ele>288.5</ele><time>2026-05-01T12:38:50Z</time></trkpt><trkpt lat="42.252286458207344" lon="14.159664354131811"><ele>288.75</ele><time>2026-05-01T12:38:51Z</time></trkpt><trkpt lat="42.25223455222995" lon="14.159517886504869"><ele>289.0</ele><time>2026-05-01T12:38:52Z</time></trkpt><trkpt lat="42.2521526092217" lon="14.15936037911968"><ele>289.0</ele><time>2026-05-01T12:38:53Z</time></trkpt><trkpt lat="42.25208201940624" lon="14.159209311854895"><ele>289.0</ele><time>2026-05-01T12:38:54Z</time></trkpt><trkpt lat="42.25202111180831" lon="14.159085549544901"><ele>289.0</ele><time>2026-05-01T12:38:55Z</time></trkpt><trkpt lat="42.2519588828148" lon="14.15897511050698"><ele>289.0</ele><time>2026-05-01T12:38:56Z</time></trkpt><trkpt lat="42.25188421721122" lon="14.15888135941585"><ele>289.0</ele><time>2026-05-01T12:38:57Z</time></trkpt><trkpt lat="42.25181459159262" lon="14.158794306128648"><ele>286.5</ele><time>2026-05-01T12:38:58Z</time></trkpt><trkpt lat="42.25173530962986" lon="14.158724576030842"><ele>284.0</ele><time>2026-05-01T12:38:59Z</time></trkpt><trkpt lat="42.25163624049535" lon="14.158643089548042"><ele>281.5</ele><time>2026-05-01T12:39:00Z</time></trkpt><trkpt lat="42.25150129465609" lon="14.15857123222351"><ele>279.0</ele><time>2026-05-01T12:39:01Z</time></trkpt><trkpt lat="42.25134983632215" lon="14.158474116648698"><ele>279.0</ele><time>2026-05-01T12:39:02Z</time></trkpt><trkpt lat="42.25122496160075" lon="14.158419546215713"><ele>279.0</ele><time>2026-05-01T12:39:03Z</time></trkpt><trkpt lat="42.25110668660016" lon="14.15834454469854"><ele>279.0</ele><time>2026-05-01T12:39:04Z</time></trkpt><trkpt lat="42.25098708303161" lon="14.15829443768267"><ele>279.0</ele><time>2026-05-01T12:39:05Z</time></trkpt><trkpt lat="42.25088286369924" lon="14.158245606542485"><ele>279.0</ele><time>2026-05-01T12:39:06Z</time></trkpt><trkpt lat="42.2507874825301" lon="14.15822206392969"><ele>279.0</ele><time>2026-05-01T12:39:07Z</time></trkpt><trkpt lat="42.250701220217096" lon="14.15825947027907"><ele>279.0</ele><time>2026-05-01T12:39:08Z</time></trkpt><trkpt lat="42.25060564334247" lon="14.158279606936793"><ele>279.0</ele><time>2026-05-01T12:39:09Z</time></trkpt><trkpt lat="42.25054857412838" lon="14.158347154929244"><ele>279.0</ele><time>2026-05-01T12:39:10Z</time></trkpt><trkpt lat="42.25048307668506" lon="14.158365777660705"><ele>279.0</ele><time>2026-05-01T12:39:11Z</time></trkpt><trkpt lat="42.25034461413041" lon="14.15804131097004"><ele>278.0</ele><time>2026-05-01T12:39:12Z</time></trkpt><trkpt lat="42.25027085767586" lon="14.1579385612909"><ele>277.0</ele><time>2026-05-01T12:39:13Z</time></trkpt><trkpt lat="42.250202628689685" lon="14.15785550892006"><ele>276.0</ele><time>2026-05-01T12:39:14Z</time></trkpt><trkpt lat="42.250122911358275" lon="14.157807540321386"><ele>275.0</ele><time>2026-05-01T12:39:15Z</time></trkpt><trkpt lat="42.25004643786895" lon="14.157799786567198"><ele>274.0</ele><time>2026-05-01T12:39:16Z</time></trkpt><trkpt lat="42.24997236937108" lon="14.157826188165135"><ele>273.0</ele><time>2026-05-01T12:39:17Z</time></trkpt><trkpt lat="42.249864148437936" lon="14.157845230024185"><ele>276.0</ele><time>2026-05-01T12:39:18Z</time></trkpt><trkpt lat="42.24977899297639" lon="14.15785788508369"><ele>279.0</ele><time>2026-05-01T12:39:18.999Z</time></trkpt><trkpt lat="42.24966898384228" lon="14.157850854180825"><ele>282.0</ele><time>2026-05-01T12:39:19.999Z</time></trkpt><trkpt lat="42.249556526849425" lon="14.157810934254176"><ele>285.0</ele><time>2026-05-01T12:39:20.999Z</time></trkpt><trkpt lat="42.2494585357614" lon="14.157764100924517"><ele>288.0</ele><time>2026-05-01T12:39:21.999Z</time></trkpt><trkpt lat="42.249357931212785" lon="14.157689156485416"><ele>288.0</ele><time>2026-05-01T12:39:22.999Z</time></trkpt><trkpt lat="42.249244792463784" lon="14.157634583791198"><ele>288.0</ele><time>2026-05-01T12:39:23.999Z</time></trkpt><trkpt lat="42.2491261474692" lon="14.157597334780311"><ele>288.0</ele><time>2026-05-01T12:39:24.999Z</time></trkpt><trkpt lat="42.2489975106821" lon="14.157556744388396"><ele>288.0</ele><time>2026-05-01T12:39:25.999Z</time></trkpt><trkpt lat="42.24888011407045" lon="14.157514461264512"><ele>290.0</ele><time>2026-05-01T12:39:26.999Z</time></trkpt><trkpt lat="42.248755065602595" lon="14.15746954272949"><ele>292.0</ele><time>2026-05-01T12:39:27.999Z</time></trkpt><trkpt lat="42.24862908645304" lon="14.157417128928559"><ele>294.0</ele><time>2026-05-01T12:39:28.999Z</time></trkpt><trkpt lat="42.24851860297068" lon="14.157377211107423"><ele>296.0</ele><time>2026-05-01T12:39:29.999Z</time></trkpt><trkpt lat="42.248431168266215" lon="14.157328113657202"><ele>296.0</ele><time>2026-05-01T12:39:30.999Z</time></trkpt><trkpt lat="42.24834320969685" lon="14.157252659507012"><ele>296.0</ele><time>2026-05-01T12:39:31.999Z</time></trkpt><trkpt lat="42.24823585466598" lon="14.157175360425754"><ele>296.0</ele><time>2026-05-01T12:39:32.999Z</time></trkpt><trkpt lat="42.24813512786211" lon="14.157109323461516"><ele>296.0</ele><time>2026-05-01T12:39:33.999Z</time></trkpt><trkpt lat="42.248045387644524" lon="14.157008025279822"><ele>298.75</ele><time>2026-05-01T12:39:34.999Z</time></trkpt><trkpt lat="42.24797801488518" lon="14.156882599332942"><ele>301.5</ele><time>2026-05-01T12:39:35.999Z</time></trkpt><trkpt lat="42.247915500768535" lon="14.156744611042297"><ele>304.25</ele><time>2026-05-01T12:39:36.999Z</time></trkpt><trkpt lat="42.24783858488251" lon="14.156587616035722"><ele>307.0</ele><time>2026-05-01T12:39:37.999Z</time></trkpt><trkpt lat="42.24775367375837" lon="14.156434103196915"><ele>307.0</ele><time>2026-05-01T12:39:38.999Z</time></trkpt><trkpt lat="42.24767903502371" lon="14.156289437732475"><ele>307.0</ele><time>2026-05-01T12:39:39.999Z</time></trkpt><trkpt lat="42.24762503348315" lon="14.156145343414362"><ele>307.0</ele><time>2026-05-01T12:39:40.999Z</time></trkpt><trkpt lat="42.24758097815308" lon="14.1560231687379"><ele>307.0</ele><time>2026-05-01T12:39:41.999Z</time></trkpt><trkpt lat="42.247541170944615" lon="14.1558952799347"><ele>307.0</ele><time>2026-05-01T12:39:42.999Z</time></trkpt><trkpt lat="42.24750052006057" lon="14.155784769710563"><ele>307.0</ele><time>2026-05-01T12:39:43.999Z</time></trkpt><trkpt lat="42.24746843819471" lon="14.155685316874527"><ele>307.0</ele><time>2026-05-01T12:39:44.999Z</time></trkpt><trkpt lat="42.24744855494153" lon="14.155585148277801"><ele>307.0</ele><time>2026-05-01T12:39:45.999Z</time></trkpt><trkpt lat="42.24741674913084" lon="14.155476607801452"><ele>307.0</ele><time>2026-05-01T12:39:46.999Z</time></trkpt><trkpt lat="42.24740671942148" lon="14.155383834546091"><ele>307.0</ele><time>2026-05-01T12:39:47.999Z</time></trkpt><trkpt lat="42.24745173471027" lon="14.15527252149581"><ele>307.5</ele><time>2026-05-01T12:39:48.999Z</time></trkpt><trkpt lat="42.24749596513558" lon="14.155191550716655"><ele>308.0</ele><time>2026-05-01T12:39:49.999Z</time></trkpt><trkpt lat="42.24749304977624" lon="14.155099170244046"><ele>308.5</ele><time>2026-05-01T12:39:50.999Z</time></trkpt><trkpt lat="42.24743880084687" lon="14.155000192585437"><ele>309.0</ele><time>2026-05-01T12:39:51.999Z</time></trkpt><trkpt lat="42.24737246222162" lon="14.154937079977174"><ele>309.5</ele><time>2026-05-01T12:39:52.999Z</time></trkpt><trkpt lat="42.24728523433876" lon="14.154883050607813"><ele>310.0</ele><time>2026-05-01T12:39:53.999Z</time></trkpt><trkpt lat="42.247190523273424" lon="14.154828133055148"><ele>310.0</ele><time>2026-05-01T12:39:54.999Z</time></trkpt><trkpt lat="42.24709929073541" lon="14.154783969492719"><ele>310.0</ele><time>2026-05-01T12:39:55.999Z</time></trkpt><trkpt lat="42.24700573706568" lon="14.15472571130724"><ele>310.0</ele><time>2026-05-01T12:39:56.999Z</time></trkpt><trkpt lat="42.246950990701116" lon="14.154670451242936"><ele>310.0</ele><time>2026-05-01T12:39:57.999Z</time></trkpt><trkpt lat="42.246946992920485" lon="14.154543486646629"><ele>310.0</ele><time>2026-05-01T12:39:59.999Z</time></trkpt><trkpt lat="42.246937454669975" lon="14.154388437152251"><ele>310.0</ele><time>2026-05-01T12:40:01.999Z</time></trkpt><trkpt lat="42.24683072150631" lon="14.15438689119894"><ele>310.0</ele><time>2026-05-01T12:40:04.999Z</time></trkpt><trkpt lat="42.24672200460386" lon="14.154385113323714"><ele>310.0</ele><time>2026-05-01T12:40:06.999Z</time></trkpt><trkpt lat="42.24665056345358" lon="14.154384480834086"><ele>310.0</ele><time>2026-05-01T12:40:07.999Z</time></trkpt><trkpt lat="42.24658543554635" lon="14.154372486663778"><ele>310.0</ele><time>2026-05-01T12:40:08.999Z</time></trkpt><trkpt lat="42.24647761911423" lon="14.154362194000305"><ele>312.5</ele><time>2026-05-01T12:40:09.999Z</time></trkpt><trkpt lat="42.246378293514745" lon="14.154362179925906"><ele>315.0</ele><time>2026-05-01T12:40:10.999Z</time></trkpt><trkpt lat="42.24629256977922" lon="14.154404427355628"><ele>317.5</ele><time>2026-05-01T12:40:11.999Z</time></trkpt><trkpt lat="42.246221091175485" lon="14.154465879455472"><ele>320.0</ele><time>2026-05-01T12:40:12.999Z</time></trkpt><trkpt lat="42.24615564088058" lon="14.154524432213334"><ele>322.5</ele><time>2026-05-01T12:40:13.999Z</time></trkpt><trkpt lat="42.24608359948111" lon="14.154559666979166"><ele>325.0</ele><time>2026-05-01T12:40:14.999Z</time></trkpt><trkpt lat="42.2460074611158" lon="14.154555745143226"><ele>325.0</ele><time>2026-05-01T12:40:15.999Z</time></trkpt><trkpt lat="42.24593821008539" lon="14.154563485999377"><ele>325.0</ele><time>2026-05-01T12:40:16.999Z</time></trkpt><trkpt lat="42.24587417804583" lon="14.15460060808585"><ele>325.0</ele><time>2026-05-01T12:40:17.999Z</time></trkpt><trkpt lat="42.245809919054174" lon="14.154668910811761"><ele>325.0</ele><time>2026-05-01T12:40:18.999Z</time></trkpt><trkpt lat="42.24573820808363" lon="14.154731355514606"><ele>325.0</ele><time>2026-05-01T12:40:19.999Z</time></trkpt><trkpt lat="42.24564627244723" lon="14.154788155795323"><ele>325.0</ele><time>2026-05-01T12:40:20.999Z</time></trkpt><trkpt lat="42.24555427674299" lon="14.154810970340167"><ele>328.0</ele><time>2026-05-01T12:40:21.999Z</time></trkpt><trkpt lat="42.245479300672585" lon="14.15484477598314"><ele>331.0</ele><time>2026-05-01T12:40:22.999Z</time></trkpt><trkpt lat="42.24542461617599" lon="14.154899726485695"><ele>334.0</ele><time>2026-05-01T12:40:23.999Z</time></trkpt><trkpt lat="42.24536192389153" lon="14.154974928815102"><ele>337.0</ele><time>2026-05-01T12:40:24.999Z</time></trkpt><trkpt lat="42.24528685456987" lon="14.155062098929342"><ele>340.0</ele><time>2026-05-01T12:40:25.999Z</time></trkpt><trkpt lat="42.24522387401419" lon="14.155138663911279"><ele>343.0</ele><time>2026-05-01T12:40:26.999Z</time></trkpt><trkpt lat="42.245164438458154" lon="14.155209946652148"><ele>343.14285714285717</ele><time>2026-05-01T12:40:27.999Z</time></trkpt><trkpt lat="42.245107645975146" lon="14.15526677269291"><ele>343.2857142857143</ele><time>2026-05-01T12:40:28.999Z</time></trkpt><trkpt lat="42.24503861389475" lon="14.155332535194391"><ele>343.42857142857144</ele><time>2026-05-01T12:40:29.999Z</time></trkpt><trkpt lat="42.24497940280078" lon="14.15536790102229"><ele>343.57142857142856</ele><time>2026-05-01T12:40:30.999Z</time></trkpt><trkpt lat="42.24491054221579" lon="14.155388714366797"><ele>343.7142857142857</ele><time>2026-05-01T12:40:31.999Z</time></trkpt><trkpt lat="42.244848349264466" lon="14.155414616515337"><ele>343.8571428571429</ele><time>2026-05-01T12:40:32.999Z</time></trkpt><trkpt lat="42.24478349729491" lon="14.155441351904345"><ele>344.0</ele><time>2026-05-01T12:40:33.999Z</time></trkpt><trkpt lat="42.24470478719583" lon="14.15547418493113"><ele>347.79999999999995</ele><time>2026-05-01T12:40:34.999Z</time></trkpt><trkpt lat="42.24462801312153" lon="14.155522116916321"><ele>351.59999999999997</ele><time>2026-05-01T12:40:35.999Z</time></trkpt><trkpt lat="42.24455565915433" lon="14.155599533414867"><ele>355.4</ele><time>2026-05-01T12:40:36.999Z</time></trkpt><trkpt lat="42.2444867166873" lon="14.15570341712336"><ele>359.2</ele><time>2026-05-01T12:40:37.999Z</time></trkpt><trkpt lat="42.24441573084941" lon="14.155797459201905"><ele>363.0</ele><time>2026-05-01T12:40:38.999Z</time></trkpt><trkpt lat="42.244350698863975" lon="14.155876970606409"><ele>363.0</ele><time>2026-05-01T12:40:39.999Z</time></trkpt><trkpt lat="42.24424465486497" lon="14.155926386443475"><ele>363.0</ele><time>2026-05-01T12:40:41.999Z</time></trkpt><trkpt lat="42.244179245160474" lon="14.155814833373366"><ele>363.0</ele><time>2026-05-01T12:40:43.999Z</time></trkpt><trkpt lat="42.244087362379275" lon="14.155748439592024"><ele>363.0</ele><time>2026-05-01T12:40:45Z</time></trkpt><trkpt lat="42.244034837113496" lon="14.1556163574686"><ele>363.0</ele><time>2026-05-01T12:40:46Z</time></trkpt><trkpt lat="42.24400214998012" lon="14.155512826934462"><ele>365.0</ele><time>2026-05-01T12:40:47Z</time></trkpt><trkpt lat="42.24395819235349" lon="14.155447394131059"><ele>367.0</ele><time>2026-05-01T12:40:49Z</time></trkpt><trkpt lat="42.243930007427444" lon="14.155369927402704"><ele>369.0</ele><time>2026-05-01T12:41:09Z</time></trkpt><trkpt lat="42.24388718685515" lon="14.155303677220509"><ele>371.0</ele><time>2026-05-01T12:41:36.999Z</time></trkpt><trkpt lat="42.24384432933054" lon="14.155144934392508"><ele>373.0</ele><time>2026-05-01T12:41:38.999Z</time></trkpt><trkpt lat="42.24382286907444" lon="14.155015672843492"><ele>375.0</ele><time>2026-05-01T12:41:39.999Z</time></trkpt><trkpt lat="42.24381576356241" lon="14.154839613158728"><ele>375.5</ele><time>2026-05-01T12:41:40.999Z</time></trkpt><trkpt lat="42.24376236088225" lon="14.154654744465358"><ele>376.0</ele><time>2026-05-01T12:41:41.999Z</time></trkpt><trkpt lat="42.24367678326546" lon="14.154478234236223"><ele>376.5</ele><time>2026-05-01T12:41:42.999Z</time></trkpt><trkpt lat="42.24360748887439" lon="14.154310299639873"><ele>377.0</ele><time>2026-05-01T12:41:43.999Z</time></trkpt><trkpt lat="42.24354260577537" lon="14.154160860601205"><ele>377.0</ele><time>2026-05-01T12:41:44.999Z</time></trkpt><trkpt lat="42.243510906677095" lon="14.154004011326283"><ele>377.0</ele><time>2026-05-01T12:41:45.999Z</time></trkpt><trkpt lat="42.243505825026084" lon="14.153829884304828"><ele>377.0</ele><time>2026-05-01T12:41:46.999Z</time></trkpt><trkpt lat="42.24350435484223" lon="14.15362736922246"><ele>377.0</ele><time>2026-05-01T12:41:47.999Z</time></trkpt><trkpt lat="42.24348641952094" lon="14.153421778496979"><ele>377.0</ele><time>2026-05-01T12:41:48.999Z</time></trkpt><trkpt lat="42.243461831381474" lon="14.153213148016176"><ele>377.0</ele><time>2026-05-01T12:41:49.999Z</time></trkpt><trkpt lat="42.24340266632303" lon="14.15302689255419"><ele>377.0</ele><time>2026-05-01T12:41:50.999Z</time></trkpt><trkpt lat="42.24332217236964" lon="14.152857211298494"><ele>377.75</ele><time>2026-05-01T12:41:51.999Z</time></trkpt><trkpt lat="42.243240023072026" lon="14.152691676572974"><ele>378.5</ele><time>2026-05-01T12:41:52.999Z</time></trkpt><trkpt lat="42.24319024376594" lon="14.152538014888725"><ele>379.25</ele><time>2026-05-01T12:41:53.999Z</time></trkpt><trkpt lat="42.243179713058744" lon="14.152378394727501"><ele>380.0</ele><time>2026-05-01T12:41:54.999Z</time></trkpt><trkpt lat="42.24323120114248" lon="14.152209435942265"><ele>380.5</ele><time>2026-05-01T12:41:55.999Z</time></trkpt><trkpt lat="42.243267037114755" lon="14.152012543615246"><ele>381.0</ele><time>2026-05-01T12:41:56.999Z</time></trkpt><trkpt lat="42.243297671066806" lon="14.151841391325934"><ele>381.5</ele><time>2026-05-01T12:41:57.999Z</time></trkpt><trkpt lat="42.243307475346406" lon="14.151651804056852"><ele>382.0</ele><time>2026-05-01T12:41:58.999Z</time></trkpt><trkpt lat="42.24329793191056" lon="14.151451401313999"><ele>382.66666666666663</ele><time>2026-05-01T12:41:59.999Z</time></trkpt><trkpt lat="42.24327372684537" lon="14.151246979380723"><ele>383.3333333333333</ele><time>2026-05-01T12:42:00.999Z</time></trkpt><trkpt lat="42.24325183034677" lon="14.15103770125283"><ele>384.0</ele><time>2026-05-01T12:42:01.999Z</time></trkpt><trkpt lat="42.24321258437419" lon="14.150831987522452"><ele>383.75</ele><time>2026-05-01T12:42:02.999Z</time></trkpt><trkpt lat="42.243147770361766" lon="14.150647269193133"><ele>383.5</ele><time>2026-05-01T12:42:03.999Z</time></trkpt><trkpt lat="42.24307822519267" lon="14.150458578813163"><ele>383.25</ele><time>2026-05-01T12:42:04.999Z</time></trkpt><trkpt lat="42.24301810092681" lon="14.150290247917201"><ele>383.0</ele><time>2026-05-01T12:42:05.999Z</time></trkpt><trkpt lat="42.242977299806135" lon="14.150103534782714"><ele>383.0</ele><time>2026-05-01T12:42:06.999Z</time></trkpt><trkpt lat="42.242943671507334" lon="14.149908775227617"><ele>383.0</ele><time>2026-05-01T12:42:07.999Z</time></trkpt><trkpt lat="42.242910104680085" lon="14.1497016142979"><ele>383.0</ele><time>2026-05-01T12:42:08.999Z</time></trkpt><trkpt lat="42.24287569801887" lon="14.149491412824807"><ele>385.33333333333337</ele><time>2026-05-01T12:42:09.999Z</time></trkpt><trkpt lat="42.2428366906482" lon="14.149274328317048"><ele>387.6666666666667</ele><time>2026-05-01T12:42:10.999Z</time></trkpt><trkpt lat="42.24280399994312" lon="14.149067198951148"><ele>390.0</ele><time>2026-05-01T12:42:11.999Z</time></trkpt><trkpt lat="42.24279052181869" lon="14.148829341950258"><ele>391.66666666666663</ele><time>2026-05-01T12:42:12.999Z</time></trkpt><trkpt lat="42.24278663424881" lon="14.148587353260083"><ele>393.3333333333333</ele><time>2026-05-01T12:42:13.999Z</time></trkpt><trkpt lat="42.242774259429375" lon="14.14833005671442"><ele>395.0</ele><time>2026-05-01T12:42:14.999Z</time></trkpt><trkpt lat="42.24277008308462" lon="14.148080230069445"><ele>396.3333333333333</ele><time>2026-05-01T12:42:15.999Z</time></trkpt><trkpt lat="42.24276576956065" lon="14.147839408284076"><ele>397.66666666666663</ele><time>2026-05-01T12:42:16.999Z</time></trkpt><trkpt lat="42.2427560530843" lon="14.147607098382109"><ele>399.0</ele><time>2026-05-01T12:42:17.999Z</time></trkpt><trkpt lat="42.24274315388379" lon="14.147377435858875"><ele>399.66666666666663</ele><time>2026-05-01T12:42:18.999Z</time></trkpt><trkpt lat="42.242750940308724" lon="14.147154457401694"><ele>400.3333333333333</ele><time>2026-05-01T12:42:19.999Z</time></trkpt><trkpt lat="42.24274286490149" lon="14.146916386760827"><ele>401.0</ele><time>2026-05-01T12:42:20.999Z</time></trkpt><trkpt lat="42.24277052944395" lon="14.146676842259083"><ele>401.0</ele><time>2026-05-01T12:42:21.999Z</time></trkpt><trkpt lat="42.24279984875001" lon="14.146444932087608"><ele>401.0</ele><time>2026-05-01T12:42:22.999Z</time></trkpt><trkpt lat="42.242841563343504" lon="14.146213180380698"><ele>401.0</ele><time>2026-05-01T12:42:23.999Z</time></trkpt><trkpt lat="42.24287558523997" lon="14.145998660549553"><ele>401.0</ele><time>2026-05-01T12:42:24.999Z</time></trkpt><trkpt lat="42.24289026367425" lon="14.145768401453156"><ele>401.0</ele><time>2026-05-01T12:42:25.999Z</time></trkpt><trkpt lat="42.242898201388705" lon="14.145532338831496"><ele>401.0</ele><time>2026-05-01T12:42:26.999Z</time></trkpt><trkpt lat="42.242896476141546" lon="14.145301617220069"><ele>402.66666666666663</ele><time>2026-05-01T12:42:27.999Z</time></trkpt><trkpt lat="42.242892797534644" lon="14.14505488796871"><ele>404.33333333333337</ele><time>2026-05-01T12:42:28.999Z</time></trkpt><trkpt lat="42.24286583473938" lon="14.144812615377349"><ele>406.0</ele><time>2026-05-01T12:42:29.999Z</time></trkpt><trkpt lat="42.24282843558217" lon="14.144578600021907"><ele>406.33333333333337</ele><time>2026-05-01T12:42:30.999Z</time></trkpt><trkpt lat="42.242812849865885" lon="14.144357036595142"><ele>406.66666666666663</ele><time>2026-05-01T12:42:31.999Z</time></trkpt><trkpt lat="42.242784814475925" lon="14.144138548464742"><ele>407.0</ele><time>2026-05-01T12:42:32.999Z</time></trkpt><trkpt lat="42.24276387245228" lon="14.143939280581034"><ele>407.0</ele><time>2026-05-01T12:42:33.999Z</time></trkpt><trkpt lat="42.24274906957464" lon="14.143747728587119"><ele>407.0</ele><time>2026-05-01T12:42:34.999Z</time></trkpt><trkpt lat="42.2427364395345" lon="14.143566160075789"><ele>407.0</ele><time>2026-05-01T12:42:35.999Z</time></trkpt><trkpt lat="42.242771820659875" lon="14.143401356650195"><ele>407.0</ele><time>2026-05-01T12:42:36.999Z</time></trkpt><trkpt lat="42.2428587022126" lon="14.143269807230679"><ele>406.0</ele><time>2026-05-01T12:42:37.999Z</time></trkpt><trkpt lat="42.24293861071589" lon="14.143116525773689"><ele>405.0</ele><time>2026-05-01T12:42:38.999Z</time></trkpt><trkpt lat="42.24305397452666" lon="14.142972875338009"><ele>404.0</ele><time>2026-05-01T12:42:39.999Z</time></trkpt><trkpt lat="42.243129744123564" lon="14.14279269713194"><ele>403.0</ele><time>2026-05-01T12:42:40.999Z</time></trkpt><trkpt lat="42.24316643274589" lon="14.142575300828227"><ele>401.33333333333337</ele><time>2026-05-01T12:42:41.999Z</time></trkpt><trkpt lat="42.243173347419685" lon="14.142352395352244"><ele>399.66666666666663</ele><time>2026-05-01T12:42:42.999Z</time></trkpt><trkpt lat="42.24316514576955" lon="14.1421189585618"><ele>398.0</ele><time>2026-05-01T12:42:43.999Z</time></trkpt><trkpt lat="42.243170959006456" lon="14.141858105384753"><ele>399.3333333333333</ele><time>2026-05-01T12:42:44.999Z</time></trkpt><trkpt lat="42.24311595609353" lon="14.141585314072024"><ele>400.66666666666663</ele><time>2026-05-01T12:42:45.999Z</time></trkpt><trkpt lat="42.243070858760085" lon="14.141303776856107"><ele>402.0</ele><time>2026-05-01T12:42:46.999Z</time></trkpt><trkpt lat="42.24303608570874" lon="14.141021126807441"><ele>402.0</ele><time>2026-05-01T12:42:47.999Z</time></trkpt><trkpt lat="42.24303504159527" lon="14.140763549333519"><ele>402.0</ele><time>2026-05-01T12:42:48.999Z</time></trkpt><trkpt lat="42.24302262812081" lon="14.140548344894444"><ele>402.0</ele><time>2026-05-01T12:42:49.999Z</time></trkpt><trkpt lat="42.24301000209523" lon="14.140357947348804"><ele>405.0</ele><time>2026-05-01T12:42:51Z</time></trkpt><trkpt lat="42.24294410977186" lon="14.140164242588707"><ele>408.0</ele><time>2026-05-01T12:42:52Z</time></trkpt><trkpt lat="42.242884233909834" lon="14.139971287420233"><ele>411.0</ele><time>2026-05-01T12:42:53Z</time></trkpt><trkpt lat="42.24281142615617" lon="14.139777340112875"><ele>413.0</ele><time>2026-05-01T12:42:54Z</time></trkpt><trkpt lat="42.242737209803515" lon="14.13956040310709"><ele>415.0</ele><time>2026-05-01T12:42:55Z</time></trkpt><trkpt lat="42.24266934070375" lon="14.139339282608345"><ele>417.0</ele><time>2026-05-01T12:42:56Z</time></trkpt><trkpt lat="42.242611176328744" lon="14.139129795628909"><ele>417.5</ele><time>2026-05-01T12:42:57Z</time></trkpt><trkpt lat="42.24257769578795" lon="14.138928893103644"><ele>418.0</ele><time>2026-05-01T12:42:58Z</time></trkpt><trkpt lat="42.24254613103036" lon="14.13875191427789"><ele>418.5</ele><time>2026-05-01T12:42:59Z</time></trkpt><trkpt lat="42.24252049147747" lon="14.138573401036542"><ele>419.0</ele><time>2026-05-01T12:43:00Z</time></trkpt><trkpt lat="42.24249875967275" lon="14.138369573063432"><ele>420.3333333333333</ele><time>2026-05-01T12:43:01Z</time></trkpt><trkpt lat="42.24246629476925" lon="14.138150236700366"><ele>421.66666666666663</ele><time>2026-05-01T12:43:02Z</time></trkpt><trkpt lat="42.24246253932001" lon="14.13789050302404"><ele>423.0</ele><time>2026-05-01T12:43:03Z</time></trkpt><trkpt lat="42.2424629442301" lon="14.137631709111682"><ele>423.66666666666663</ele><time>2026-05-01T12:43:04Z</time></trkpt><trkpt lat="42.2424615839815" lon="14.137375298012117"><ele>424.3333333333333</ele><time>2026-05-01T12:43:05Z</time></trkpt><trkpt lat="42.24245010449724" lon="14.137131898855523"><ele>425.0</ele><time>2026-05-01T12:43:06Z</time></trkpt><trkpt lat="42.24241834809869" lon="14.13689402049258"><ele>425.0</ele><time>2026-05-01T12:43:07Z</time></trkpt><trkpt lat="42.24238143029782" lon="14.136680937346375"><ele>425.0</ele><time>2026-05-01T12:43:08Z</time></trkpt><trkpt lat="42.24236483148751" lon="14.136471308411004"><ele>425.0</ele><time>2026-05-01T12:43:09Z</time></trkpt><trkpt lat="42.24239658839896" lon="14.136275797271855"><ele>425.66666666666663</ele><time>2026-05-01T12:43:10Z</time></trkpt><trkpt lat="42.2424108077607" lon="14.136121223135556"><ele>426.3333333333333</ele><time>2026-05-01T12:43:11Z</time></trkpt><trkpt lat="42.24241870531416" lon="14.136023415064477"><ele>427.0</ele><time>2026-05-01T12:43:12Z</time></trkpt><trkpt lat="42.24243214391879" lon="14.135868424514195"><ele>427.66666666666663</ele><time>2026-05-01T12:43:14Z</time></trkpt><trkpt lat="42.242422476632434" lon="14.13577858300941"><ele>428.3333333333333</ele><time>2026-05-01T12:43:16Z</time></trkpt><trkpt lat="42.24242532009202" lon="14.135878582494355"><ele>429.0</ele><time>2026-05-01T12:43:19Z</time></trkpt><trkpt lat="42.24238850498679" lon="14.136007920438004"><ele>429.0</ele><time>2026-05-01T12:43:20Z</time></trkpt><trkpt lat="42.24238135208013" lon="14.136125187517464"><ele>429.0</ele><time>2026-05-01T12:43:21Z</time></trkpt><trkpt lat="42.242371591580095" lon="14.136277589799366"><ele>429.0</ele><time>2026-05-01T12:43:23Z</time></trkpt><trkpt lat="42.24243524409168" lon="14.136305470165581"><ele>429.0</ele><time>2026-05-01T12:43:25Z</time></trkpt><trkpt lat="42.24249384956817" lon="14.136184703493598"><ele>429.0</ele><time>2026-05-01T12:43:28Z</time></trkpt><trkpt lat="42.242512918113086" lon="14.136086375013951"><ele>429.0</ele><time>2026-05-01T12:43:29Z</time></trkpt><trkpt lat="42.24254017356494" lon="14.135963160327567"><ele>429.0</ele><time>2026-05-01T12:43:30Z</time></trkpt><trkpt lat="42.24257843514824" lon="14.135836592702997"><ele>429.0</ele><time>2026-05-01T12:43:31Z</time></trkpt><trkpt lat="42.24262844092108" lon="14.13571451047446"><ele>429.0</ele><time>2026-05-01T12:43:32Z</time></trkpt><trkpt lat="42.24267917322153" lon="14.1356246256229"><ele>429.0</ele><time>2026-05-01T12:43:33Z</time></trkpt><trkpt lat="42.24272023377538" lon="14.135535116264704"><ele>429.0</ele><time>2026-05-01T12:43:34Z</time></trkpt><trkpt lat="42.24276661352642" lon="14.135439274894752"><ele>429.0</ele><time>2026-05-01T12:43:35Z</time></trkpt><trkpt lat="42.24280981797453" lon="14.135360148673172"><ele>429.0</ele><time>2026-05-01T12:43:36Z</time></trkpt><trkpt lat="42.242856326165274" lon="14.135298666282578"><ele>429.0</ele><time>2026-05-01T12:43:37Z</time></trkpt><trkpt lat="42.24291072263196" lon="14.13525211884236"><ele>429.0</ele><time>2026-05-01T12:43:40Z</time></trkpt><trkpt lat="42.24295055446573" lon="14.135152571360294"><ele>429.0</ele><time>2026-05-01T12:44:27.999Z</time></trkpt><trkpt lat="42.243003485838" lon="14.135046588983135"><ele>429.0</ele><time>2026-05-01T12:44:29.999Z</time></trkpt><trkpt lat="42.24306262088678" lon="14.13500857459105"><ele>429.0</ele><time>2026-05-01T12:44:30.999Z</time></trkpt><trkpt lat="42.243156694724895" lon="14.135003854779402"><ele>427.0</ele><time>2026-05-01T12:44:32.999Z</time></trkpt><trkpt lat="42.243285581126145" lon="14.135020361224724"><ele>425.0</ele><time>2026-05-01T12:44:34.999Z</time></trkpt><trkpt lat="42.24337658788901" lon="14.134991747320822"><ele>423.0</ele><time>2026-05-01T12:44:36.999Z</time></trkpt><trkpt lat="42.243441746051204" lon="14.134936574004263"><ele>421.0</ele><time>2026-05-01T12:44:38.999Z</time></trkpt><trkpt lat="42.243561944264606" lon="14.134860674327646"><ele>419.0</ele><time>2026-05-01T12:44:40.999Z</time></trkpt><trkpt lat="42.24363445806215" lon="14.134788074551855"><ele>418.99999999999994</ele><time>2026-05-01T12:44:42.999Z</time></trkpt><trkpt lat="42.24370565653721" lon="14.134686287617072"><ele>419.0</ele><time>2026-05-01T12:44:46.999Z</time></trkpt><trkpt lat="42.243753910129314" lon="14.13458573442582"><ele>419.0</ele><time>2026-05-01T12:44:48.999Z</time></trkpt><trkpt lat="42.243804067813294" lon="14.13452551837908"><ele>419.0</ele><time>2026-05-01T12:44:50.999Z</time></trkpt><trkpt lat="42.243852117575805" lon="14.134453897306427"><ele>418.99999999999994</ele><time>2026-05-01T12:44:52.999Z</time></trkpt><trkpt lat="42.24390971980906" lon="14.134373094913345"><ele>419.0</ele><time>2026-05-01T12:44:57Z</time></trkpt><trkpt lat="42.24395171765672" lon="14.134297285497668"><ele>418.49999999999994</ele><time>2026-05-01T12:44:59Z</time></trkpt><trkpt lat="42.24398236428274" lon="14.134216212661801"><ele>418.0</ele><time>2026-05-01T12:45:01Z</time></trkpt><trkpt lat="42.243980063253666" lon="14.134071416942286"><ele>417.5</ele><time>2026-05-01T12:45:04Z</time></trkpt><trkpt lat="42.243995771896294" lon="14.133978993354106"><ele>417.0</ele><time>2026-05-01T12:45:43Z</time></trkpt><trkpt lat="42.24408155937365" lon="14.133872480825861"><ele>416.49999999999994</ele><time>2026-05-01T12:45:46Z</time></trkpt><trkpt lat="42.24408027605597" lon="14.133768873737854"><ele>416.0</ele><time>2026-05-01T12:45:48Z</time></trkpt><trkpt lat="42.24404979514306" lon="14.133666740647586"><ele>415.99999999999994</ele><time>2026-05-01T12:45:50Z</time></trkpt><trkpt lat="42.24399961781753" lon="14.13357509338853"><ele>416.0</ele><time>2026-05-01T12:45:52Z</time></trkpt><trkpt lat="42.2439701334857" lon="14.133487130854286"><ele>416.0</ele><time>2026-05-01T12:45:58Z</time></trkpt><trkpt lat="42.2440082551714" lon="14.133367457985957"><ele>416.0</ele><time>2026-05-01T12:46:00Z</time></trkpt><trkpt lat="42.24402884398144" lon="14.13320427906433"><ele>415.99999999999994</ele><time>2026-05-01T12:46:02Z</time></trkpt><trkpt lat="42.24404584937728" lon="14.13311665232783"><ele>416.0</ele><time>2026-05-01T12:46:03Z</time></trkpt><trkpt lat="42.244066956823985" lon="14.133018375481397"><ele>418.3333333333333</ele><time>2026-05-01T12:46:04Z</time></trkpt><trkpt lat="42.24412464967792" lon="14.132872462217513"><ele>420.66666666666663</ele><time>2026-05-01T12:46:05.999Z</time></trkpt><trkpt lat="42.24416049259473" lon="14.132787127239624"><ele>423.0</ele><time>2026-05-01T12:46:06.999Z</time></trkpt><trkpt lat="42.24418995590454" lon="14.132683346730245"><ele>425.33333333333337</ele><time>2026-05-01T12:46:07.999Z</time></trkpt><trkpt lat="42.24422470171777" lon="14.132596221412022"><ele>427.6666666666667</ele><time>2026-05-01T12:46:08.999Z</time></trkpt><trkpt lat="42.24431147830312" lon="14.132641664694841"><ele>430.0</ele><time>2026-05-01T12:46:11.999Z</time></trkpt><trkpt lat="42.24441658322351" lon="14.132677274087019"><ele>430.00000000000006</ele><time>2026-05-01T12:46:13.999Z</time></trkpt><trkpt lat="42.244487738014904" lon="14.1325779509964"><ele>430.0</ele><time>2026-05-01T12:46:15.999Z</time></trkpt><trkpt lat="42.24455330439467" lon="14.132522381616974"><ele>430.0</ele><time>2026-05-01T12:46:16.999Z</time></trkpt><trkpt lat="42.24465146492901" lon="14.132561229038952"><ele>430.0</ele><time>2026-05-01T12:46:18.999Z</time></trkpt><trkpt lat="42.24471537884516" lon="14.13256241730463"><ele>430.00000000000006</ele><time>2026-05-01T12:46:19.999Z</time></trkpt><trkpt lat="42.24479495077114" lon="14.132535515050478"><ele>430.0</ele><time>2026-05-01T12:46:21.999Z</time></trkpt><trkpt lat="42.24486368812118" lon="14.132565185593677"><ele>428.2</ele><time>2026-05-01T12:46:23.999Z</time></trkpt><trkpt lat="42.244952452653" lon="14.132623568901993"><ele>426.4</ele><time>2026-05-01T12:46:25.999Z</time></trkpt><trkpt lat="42.24509406377333" lon="14.132599887541213"><ele>424.6</ele><time>2026-05-01T12:46:27.999Z</time></trkpt><trkpt lat="42.24516355926511" lon="14.132567238737167"><ele>422.8</ele><time>2026-05-01T12:46:28.999Z</time></trkpt><trkpt lat="42.24523679816904" lon="14.132488615997074"><ele>421.0</ele><time>2026-05-01T12:46:30.999Z</time></trkpt><trkpt lat="42.2453421026598" lon="14.132614862387733"><ele>421.00000000000006</ele><time>2026-05-01T12:46:33.999Z</time></trkpt><trkpt lat="42.24539921139936" lon="14.132737614180204"><ele>421.0</ele><time>2026-05-01T12:46:34.999Z</time></trkpt><trkpt lat="42.245439515134684" lon="14.132833006845146"><ele>421.0</ele><time>2026-05-01T12:46:35.999Z</time></trkpt><trkpt lat="42.245460713642764" lon="14.132976343946055"><ele>421.0</ele><time>2026-05-01T12:46:37.999Z</time></trkpt><trkpt lat="42.24551571665122" lon="14.133028795090686"><ele>421.00000000000006</ele><time>2026-05-01T12:46:38.999Z</time></trkpt><trkpt lat="42.24559205858849" lon="14.13306521408161"><ele>421.0</ele><time>2026-05-01T12:46:39.999Z</time></trkpt><trkpt lat="42.24567127036825" lon="14.133084039990516"><ele>418.50000000000006</ele><time>2026-05-01T12:46:40.999Z</time></trkpt><trkpt lat="42.24577110006493" lon="14.133073637190735"><ele>416.0</ele><time>2026-05-01T12:46:41.999Z</time></trkpt><trkpt lat="42.245855707928506" lon="14.133103209575165"><ele>413.5</ele><time>2026-05-01T12:46:42.999Z</time></trkpt><trkpt lat="42.24592626455107" lon="14.133115991073392"><ele>411.0</ele><time>2026-05-01T12:46:43.999Z</time></trkpt><trkpt lat="42.24601454475444" lon="14.133124537952918"><ele>408.50000000000006</ele><time>2026-05-01T12:46:44.999Z</time></trkpt><trkpt lat="42.2460887285325" lon="14.133140820818884"><ele>406.0</ele><time>2026-05-01T12:46:45.999Z</time></trkpt><trkpt lat="42.246159753977565" lon="14.13314302349229"><ele>406.0</ele><time>2026-05-01T12:46:46.999Z</time></trkpt><trkpt lat="42.246250718527946" lon="14.133116822804997"><ele>406.0</ele><time>2026-05-01T12:46:48.999Z</time></trkpt><trkpt lat="42.246329374111184" lon="14.133098536480935"><ele>406.0</ele><time>2026-05-01T12:46:50.999Z</time></trkpt><trkpt lat="42.246441321756535" lon="14.133064761305338"><ele>406.0</ele><time>2026-05-01T12:46:52.999Z</time></trkpt><trkpt lat="42.246515904319246" lon="14.13292967231619"><ele>406.0</ele><time>2026-05-01T12:46:54.999Z</time></trkpt><trkpt lat="42.24654096087676" lon="14.13283527149034"><ele>405.14285714285717</ele><time>2026-05-01T12:46:55.999Z</time></trkpt><trkpt lat="42.24656879817453" lon="14.132745588805298"><ele>404.2857142857143</ele><time>2026-05-01T12:46:56.999Z</time></trkpt><trkpt lat="42.24658872071718" lon="14.132661590513056"><ele>403.42857142857144</ele><time>2026-05-01T12:46:57.999Z</time></trkpt><trkpt lat="42.246622995459454" lon="14.132587689679655"><ele>402.57142857142856</ele><time>2026-05-01T12:46:58.999Z</time></trkpt><trkpt lat="42.24663996149858" lon="14.132491337281204"><ele>401.7142857142857</ele><time>2026-05-01T12:46:59.999Z</time></trkpt><trkpt lat="42.246692147950995" lon="14.132416852110362"><ele>400.8571428571429</ele><time>2026-05-01T12:47:00.999Z</time></trkpt><trkpt lat="42.24675405739305" lon="14.132377230474683"><ele>400.0</ele><time>2026-05-01T12:47:01.999Z</time></trkpt><trkpt lat="42.246819648422566" lon="14.13236920488663"><ele>399.50000000000006</ele><time>2026-05-01T12:47:03Z</time></trkpt><trkpt lat="42.24693657134096" lon="14.13245276278979"><ele>399.0</ele><time>2026-05-01T12:47:05Z</time></trkpt><trkpt lat="42.24696118435481" lon="14.132543548827472"><ele>398.5</ele><time>2026-05-01T12:47:06Z</time></trkpt><trkpt lat="42.24696589101195" lon="14.132652748948997"><ele>398.0</ele><time>2026-05-01T12:47:07Z</time></trkpt><trkpt lat="42.246958282211615" lon="14.13275388136001"><ele>397.50000000000006</ele><time>2026-05-01T12:47:08Z</time></trkpt><trkpt lat="42.24693189939341" lon="14.132853287363808"><ele>397.0</ele><time>2026-05-01T12:47:09Z</time></trkpt><trkpt lat="42.24691262901281" lon="14.13299274384958"><ele>397.0</ele><time>2026-05-01T12:47:11Z</time></trkpt><trkpt lat="42.246886327615954" lon="14.13309354278703"><ele>397.0</ele><time>2026-05-01T12:47:13Z</time></trkpt><trkpt lat="42.24689465216436" lon="14.133191536387562"><ele>397.0</ele><time>2026-05-01T12:47:16Z</time></trkpt><trkpt lat="42.24701370753399" lon="14.133215784064667"><ele>397.0</ele><time>2026-05-01T12:47:19Z</time></trkpt><trkpt lat="42.24710560734973" lon="14.133254562877163"><ele>397.0</ele><time>2026-05-01T12:47:20Z</time></trkpt><trkpt lat="42.24720181362796" lon="14.133289046235785"><ele>394.0</ele><time>2026-05-01T12:47:21Z</time></trkpt><trkpt lat="42.24729896663521" lon="14.133327985003946"><ele>391.0</ele><time>2026-05-01T12:47:22Z</time></trkpt><trkpt lat="42.2473971808015" lon="14.133381483848433"><ele>388.0</ele><time>2026-05-01T12:47:23Z</time></trkpt><trkpt lat="42.24749870148357" lon="14.133446708119957"><ele>385.0</ele><time>2026-05-01T12:47:24Z</time></trkpt><trkpt lat="42.24759061221588" lon="14.13352185712854"><ele>382.0</ele><time>2026-05-01T12:47:25Z</time></trkpt><trkpt lat="42.247688693290854" lon="14.133604783639639"><ele>382.0</ele><time>2026-05-01T12:47:26Z</time></trkpt><trkpt lat="42.24778956693735" lon="14.133675533062554"><ele>382.0</ele><time>2026-05-01T12:47:27Z</time></trkpt><trkpt lat="42.24788144430547" lon="14.13372749518296"><ele>382.0</ele><time>2026-05-01T12:47:28Z</time></trkpt><trkpt lat="42.24795568272112" lon="14.1337837081577"><ele>382.0</ele><time>2026-05-01T12:47:29Z</time></trkpt><trkpt lat="42.248035214607526" lon="14.133847021244"><ele>382.0</ele><time>2026-05-01T12:47:30Z</time></trkpt><trkpt lat="42.248113419365026" lon="14.133896101471048"><ele>380.3333333333333</ele><time>2026-05-01T12:47:31Z</time></trkpt><trkpt lat="42.248186325288856" lon="14.133967420993862"><ele>378.66666666666663</ele><time>2026-05-01T12:47:32Z</time></trkpt><trkpt lat="42.24827033134847" lon="14.13403513359163"><ele>377.0</ele><time>2026-05-01T12:47:33Z</time></trkpt><trkpt lat="42.24835073489338" lon="14.134082646537014"><ele>375.3333333333333</ele><time>2026-05-01T12:47:34Z</time></trkpt><trkpt lat="42.24843584155205" lon="14.1341091710765"><ele>373.6666666666667</ele><time>2026-05-01T12:47:35Z</time></trkpt><trkpt lat="42.2485101191604" lon="14.134143133922821"><ele>372.0</ele><time>2026-05-01T12:47:36Z</time></trkpt><trkpt lat="42.24858247113953" lon="14.134210536336328"><ele>371.5</ele><time>2026-05-01T12:47:37Z</time></trkpt><trkpt lat="42.24863775869242" lon="14.134352809301546"><ele>371.0</ele><time>2026-05-01T12:47:38Z</time></trkpt><trkpt lat="42.248712671848665" lon="14.134471073208697"><ele>370.5</ele><time>2026-05-01T12:47:39Z</time></trkpt><trkpt lat="42.24876816045105" lon="14.13460846977335"><ele>370.0</ele><time>2026-05-01T12:47:40Z</time></trkpt><trkpt lat="42.24882537216825" lon="14.134748721929476"><ele>370.0</ele><time>2026-05-01T12:47:41Z</time></trkpt><trkpt lat="42.2488617211254" lon="14.13486517772686"><ele>370.0</ele><time>2026-05-01T12:47:42Z</time></trkpt><trkpt lat="42.24888405356407" lon="14.134955325042892"><ele>370.0</ele><time>2026-05-01T12:47:43Z</time></trkpt><trkpt lat="42.2488798221717" lon="14.135111474986024"><ele>370.0</ele><time>2026-05-01T12:47:45Z</time></trkpt><trkpt lat="42.248930395544136" lon="14.135228437465587"><ele>370.0</ele><time>2026-05-01T12:47:46Z</time></trkpt><trkpt lat="42.24892691061578" lon="14.135388912327498"><ele>366.5</ele><time>2026-05-01T12:47:47Z</time></trkpt><trkpt lat="42.248923902805885" lon="14.13557807652347"><ele>363.0</ele><time>2026-05-01T12:47:48Z</time></trkpt><trkpt lat="42.24893404447368" lon="14.135769417252078"><ele>359.5</ele><time>2026-05-01T12:47:49Z</time></trkpt><trkpt lat="42.24893761883192" lon="14.135934964469644"><ele>356.0</ele><time>2026-05-01T12:47:50Z</time></trkpt><trkpt lat="42.24895056492532" lon="14.136084694372663"><ele>355.1666666666667</ele><time>2026-05-01T12:47:51Z</time></trkpt><trkpt lat="42.24898839720871" lon="14.136217212248413"><ele>354.33333333333337</ele><time>2026-05-01T12:47:52Z</time></trkpt><trkpt lat="42.24904350819886" lon="14.136318796290412"><ele>353.5</ele><time>2026-05-01T12:47:53Z</time></trkpt><trkpt lat="42.249108143323454" lon="14.136386498010749"><ele>352.6666666666667</ele><time>2026-05-01T12:47:54Z</time></trkpt><trkpt lat="42.24917995490746" lon="14.13642199738754"><ele>351.8333333333333</ele><time>2026-05-01T12:47:55Z</time></trkpt><trkpt lat="42.24924707389523" lon="14.136454664396723"><ele>351.0</ele><time>2026-05-01T12:47:57Z</time></trkpt><trkpt lat="42.24932799903177" lon="14.136492595598721"><ele>351.0</ele><time>2026-05-01T12:48:24.999Z</time></trkpt><trkpt lat="42.24943101756593" lon="14.136497728790738"><ele>351.0</ele><time>2026-05-01T12:48:26.999Z</time></trkpt><trkpt lat="42.24987721864853" lon="14.136972165751349"><ele>347.0</ele><time>2026-05-01T12:48:32.999Z</time></trkpt><trkpt lat="42.24997920988322" lon="14.137025631734119"><ele>343.0</ele><time>2026-05-01T12:48:33.999Z</time></trkpt><trkpt lat="42.250081490445744" lon="14.137073895056837"><ele>339.0</ele><time>2026-05-01T12:48:34.999Z</time></trkpt><trkpt lat="42.25017832005076" lon="14.13712594369941"><ele>335.0</ele><time>2026-05-01T12:48:35.999Z</time></trkpt><trkpt lat="42.25026691167167" lon="14.13717786354542"><ele>331.0</ele><time>2026-05-01T12:48:36.999Z</time></trkpt><trkpt lat="42.25035452514593" lon="14.137226269747925"><ele>331.0</ele><time>2026-05-01T12:48:37.999Z</time></trkpt><trkpt lat="42.25043999850838" lon="14.137262295320912"><ele>331.0</ele><time>2026-05-01T12:48:38.999Z</time></trkpt><trkpt lat="42.25053301516448" lon="14.137285651592611"><ele>331.0</ele><time>2026-05-01T12:48:39.999Z</time></trkpt><trkpt lat="42.25060454845659" lon="14.137335561201066"><ele>331.0</ele><time>2026-05-01T12:48:40.999Z</time></trkpt><trkpt lat="42.250684221419284" lon="14.1373842674992"><ele>331.0</ele><time>2026-05-01T12:48:41.999Z</time></trkpt><trkpt lat="42.25076634045356" lon="14.137430626083491"><ele>331.0</ele><time>2026-05-01T12:48:42.999Z</time></trkpt><trkpt lat="42.250850355761926" lon="14.137488993178374"><ele>329.66666666666663</ele><time>2026-05-01T12:48:43.999Z</time></trkpt><trkpt lat="42.250918223979305" lon="14.137549704462273"><ele>328.3333333333333</ele><time>2026-05-01T12:48:44.999Z</time></trkpt><trkpt lat="42.25098471226049" lon="14.137614051719847"><ele>327.0</ele><time>2026-05-01T12:48:45.999Z</time></trkpt><trkpt lat="42.25105725421648" lon="14.13766190856881"><ele>325.6666666666667</ele><time>2026-05-01T12:48:46.999Z</time></trkpt><trkpt lat="42.25112857174143" lon="14.137700376450749"><ele>324.33333333333337</ele><time>2026-05-01T12:48:47.999Z</time></trkpt><trkpt lat="42.251189740065506" lon="14.137738620963978"><ele>323.0</ele><time>2026-05-01T12:48:48.999Z</time></trkpt><trkpt lat="42.25125075622942" lon="14.137780453985743"><ele>323.0</ele><time>2026-05-01T12:48:49.999Z</time></trkpt><trkpt lat="42.25134049678716" lon="14.137856691788889"><ele>323.0</ele><time>2026-05-01T12:48:51.999Z</time></trkpt><trkpt lat="42.251418421611106" lon="14.137860984688086"><ele>323.0</ele><time>2026-05-01T12:48:55.999Z</time></trkpt><trkpt lat="42.25149829030967" lon="14.137795068976931"><ele>323.0</ele><time>2026-05-01T12:48:57.999Z</time></trkpt><trkpt lat="42.25160321722149" lon="14.137794204092849"><ele>323.0</ele><time>2026-05-01T12:48:59.999Z</time></trkpt><trkpt lat="42.25170373451368" lon="14.137769498347055"><ele>321.6666666666667</ele><time>2026-05-01T12:49:02.999Z</time></trkpt><trkpt lat="42.251783025623965" lon="14.13774889145457"><ele>320.33333333333337</ele><time>2026-05-01T12:49:04.999Z</time></trkpt><trkpt lat="42.251872747498744" lon="14.137746875752843"><ele>319.0</ele><time>2026-05-01T12:49:07.999Z</time></trkpt><trkpt lat="42.25194772135968" lon="14.13772097097943"><ele>317.6666666666667</ele><time>2026-05-01T12:49:11Z</time></trkpt><trkpt lat="42.25201632938734" lon="14.13767098759756"><ele>316.3333333333333</ele><time>2026-05-01T12:49:14Z</time></trkpt><trkpt lat="42.252010635314804" lon="14.137585125869899"><ele>315.0</ele><time>2026-05-01T12:49:17Z</time></trkpt><trkpt lat="42.25194512685754" lon="14.137497267944152"><ele>315.0</ele><time>2026-05-01T12:49:18Z</time></trkpt><trkpt lat="42.25184080658168" lon="14.13739487981811"><ele>315.0</ele><time>2026-05-01T12:49:19Z</time></trkpt><trkpt lat="42.25176296351782" lon="14.137291391308604"><ele>315.0</ele><time>2026-05-01T12:49:20Z</time></trkpt><trkpt lat="42.251702339668455" lon="14.137176365851605"><ele>315.0</ele><time>2026-05-01T12:49:21Z</time></trkpt><trkpt lat="42.2516355200493" lon="14.137049305949498"><ele>315.2</ele><time>2026-05-01T12:49:22Z</time></trkpt><trkpt lat="42.25159964692601" lon="14.136910575504158"><ele>315.4</ele><time>2026-05-01T12:49:23Z</time></trkpt><trkpt lat="42.25159974618327" lon="14.136778410656952"><ele>315.6</ele><time>2026-05-01T12:49:24Z</time></trkpt><trkpt lat="42.251586888301475" lon="14.136667235746197"><ele>315.8</ele><time>2026-05-01T12:49:25Z</time></trkpt><trkpt lat="42.25162585209781" lon="14.136556477612721"><ele>316.0</ele><time>2026-05-01T12:49:26Z</time></trkpt><trkpt lat="42.25170918838888" lon="14.13648205701932"><ele>316.0</ele><time>2026-05-01T12:49:27Z</time></trkpt><trkpt lat="42.251819763929426" lon="14.136471172649372"><ele>316.0</ele><time>2026-05-01T12:49:28Z</time></trkpt><trkpt lat="42.251938092029576" lon="14.136443643148704"><ele>316.0</ele><time>2026-05-01T12:49:29Z</time></trkpt><trkpt lat="42.252063746161916" lon="14.13644790264655"><ele>316.0</ele><time>2026-05-01T12:49:30Z</time></trkpt><trkpt lat="42.25219405753547" lon="14.136442068177367"><ele>313.5</ele><time>2026-05-01T12:49:31Z</time></trkpt><trkpt lat="42.25231140854127" lon="14.136373064546028"><ele>311.0</ele><time>2026-05-01T12:49:32Z</time></trkpt><trkpt lat="42.25241425019639" lon="14.136267880565196"><ele>308.5</ele><time>2026-05-01T12:49:33Z</time></trkpt><trkpt lat="42.2525066371063" lon="14.136135079309176"><ele>306.0</ele><time>2026-05-01T12:49:34Z</time></trkpt><trkpt lat="42.25260279874822" lon="14.135980251468524"><ele>306.0</ele><time>2026-05-01T12:49:35Z</time></trkpt><trkpt lat="42.25266444521872" lon="14.135825956968361"><ele>306.0</ele><time>2026-05-01T12:49:36Z</time></trkpt><trkpt lat="42.25274255124941" lon="14.135680059159897"><ele>306.0</ele><time>2026-05-01T12:49:37Z</time></trkpt><trkpt lat="42.252824286339816" lon="14.135559147590634"><ele>306.0</ele><time>2026-05-01T12:49:38Z</time></trkpt><trkpt lat="42.25290153654328" lon="14.135436342716488"><ele>306.2</ele><time>2026-05-01T12:49:39Z</time></trkpt><trkpt lat="42.25298085660976" lon="14.135331502763547"><ele>306.40000000000003</ele><time>2026-05-01T12:49:40Z</time></trkpt><trkpt lat="42.25305973187913" lon="14.135238920580537"><ele>306.6</ele><time>2026-05-01T12:49:41Z</time></trkpt><trkpt lat="42.2531287383432" lon="14.13514507676063"><ele>306.8</ele><time>2026-05-01T12:49:42Z</time></trkpt><trkpt lat="42.25319290769323" lon="14.135051475468757"><ele>307.0</ele><time>2026-05-01T12:49:43Z</time></trkpt><trkpt lat="42.25326014121849" lon="14.134967752762874"><ele>305.0</ele><time>2026-05-01T12:49:44Z</time></trkpt><trkpt lat="42.253351246692226" lon="14.134918130648302"><ele>303.0</ele><time>2026-05-01T12:49:45Z</time></trkpt><trkpt lat="42.253452017412556" lon="14.134914894597856"><ele>301.0</ele><time>2026-05-01T12:49:46Z</time></trkpt><trkpt lat="42.253552596297524" lon="14.134962546258937"><ele>299.0</ele><time>2026-05-01T12:49:47Z</time></trkpt><trkpt lat="42.253651266836115" lon="14.135042734231163"><ele>297.0</ele><time>2026-05-01T12:49:48Z</time></trkpt><trkpt lat="42.25374825653114" lon="14.135136006733266"><ele>297.0</ele><time>2026-05-01T12:49:49Z</time></trkpt><trkpt lat="42.253861422630585" lon="14.135246453782942"><ele>297.0</ele><time>2026-05-01T12:49:50Z</time></trkpt><trkpt lat="42.253966534186965" lon="14.135361534628153"><ele>297.0</ele><time>2026-05-01T12:49:51Z</time></trkpt><trkpt lat="42.25405089891077" lon="14.135479388920615"><ele>297.0</ele><time>2026-05-01T12:49:52Z</time></trkpt><trkpt lat="42.254129793344696" lon="14.135592779254406"><ele>295.4</ele><time>2026-05-01T12:49:53Z</time></trkpt><trkpt lat="42.254202471649556" lon="14.135712216857794"><ele>293.79999999999995</ele><time>2026-05-01T12:49:54Z</time></trkpt><trkpt lat="42.25425324723608" lon="14.135849204321964"><ele>292.2</ele><time>2026-05-01T12:49:55Z</time></trkpt><trkpt lat="42.25428448065021" lon="14.13599622635373"><ele>290.59999999999997</ele><time>2026-05-01T12:49:56Z</time></trkpt><trkpt lat="42.254291361613866" lon="14.13614037797936"><ele>289.0</ele><time>2026-05-01T12:49:57Z</time></trkpt><trkpt lat="42.25430704386605" lon="14.136274659725753"><ele>289.0</ele><time>2026-05-01T12:49:58Z</time></trkpt><trkpt lat="42.25434828176821" lon="14.136394764608566"><ele>289.0</ele><time>2026-05-01T12:49:59Z</time></trkpt><trkpt lat="42.254416621935896" lon="14.136491671116653"><ele>289.0</ele><time>2026-05-01T12:50:00Z</time></trkpt><trkpt lat="42.25450393636723" lon="14.136559837773826"><ele>289.0</ele><time>2026-05-01T12:50:01Z</time></trkpt><trkpt lat="42.254606190316615" lon="14.136596755740726"><ele>289.0</ele><time>2026-05-01T12:50:02Z</time></trkpt><trkpt lat="42.25470185831666" lon="14.136644381475632"><ele>288.0</ele><time>2026-05-01T12:50:03Z</time></trkpt><trkpt lat="42.25480640155638" lon="14.136705475724147"><ele>287.0</ele><time>2026-05-01T12:50:04Z</time></trkpt><trkpt lat="42.25497829888029" lon="14.13658679250942"><ele>286.0</ele><time>2026-05-01T12:50:05Z</time></trkpt><trkpt lat="42.25510645729" lon="14.136590164774645"><ele>285.0</ele><time>2026-05-01T12:50:06Z</time></trkpt><trkpt lat="42.255229368703546" lon="14.136601085867774"><ele>285.0</ele><time>2026-05-01T12:50:07Z</time></trkpt><trkpt lat="42.255351816686755" lon="14.136603575445367"><ele>285.0</ele><time>2026-05-01T12:50:08Z</time></trkpt><trkpt lat="42.25547306790316" lon="14.136607289290735"><ele>285.0</ele><time>2026-05-01T12:50:09Z</time></trkpt><trkpt lat="42.255596797035984" lon="14.13660943820705"><ele>285.0</ele><time>2026-05-01T12:50:10Z</time></trkpt><trkpt lat="42.25571330835211" lon="14.13661096875676"><ele>284.2</ele><time>2026-05-01T12:50:11Z</time></trkpt><trkpt lat="42.25581991626193" lon="14.136614841196323"><ele>283.4</ele><time>2026-05-01T12:50:12Z</time></trkpt><trkpt lat="42.25592593422076" lon="14.136648484077085"><ele>282.6</ele><time>2026-05-01T12:50:13Z</time></trkpt><trkpt lat="42.25602923781975" lon="14.136689855850683"><ele>281.8</ele><time>2026-05-01T12:50:14Z</time></trkpt><trkpt lat="42.25612289295886" lon="14.136747653362763"><ele>281.0</ele><time>2026-05-01T12:50:15Z</time></trkpt><trkpt lat="42.25620793652096" lon="14.136793977872275"><ele>281.0</ele><time>2026-05-01T12:50:16Z</time></trkpt><trkpt lat="42.25627609126755" lon="14.136853393435809"><ele>281.0</ele><time>2026-05-01T12:50:17Z</time></trkpt><trkpt lat="42.25635498235184" lon="14.136884267523412"><ele>281.0</ele><time>2026-05-01T12:50:18Z</time></trkpt><trkpt lat="42.256443825862775" lon="14.136888996228075"><ele>281.0</ele><time>2026-05-01T12:50:19Z</time></trkpt><trkpt lat="42.25653196529094" lon="14.136832598672562"><ele>281.0</ele><time>2026-05-01T12:50:20Z</time></trkpt><trkpt lat="42.256610057389054" lon="14.136754299824105"><ele>281.0</ele><time>2026-05-01T12:50:21Z</time></trkpt><trkpt lat="42.25667930437791" lon="14.13666955800444"><ele>278.5</ele><time>2026-05-01T12:50:22Z</time></trkpt><trkpt lat="42.256684659457115" lon="14.136506129085127"><ele>276.0</ele><time>2026-05-01T12:50:23Z</time></trkpt><trkpt lat="42.256696777390566" lon="14.13634730542243"><ele>273.5</ele><time>2026-05-01T12:50:24Z</time></trkpt><trkpt lat="42.25671368397615" lon="14.136175269679311"><ele>271.0</ele><time>2026-05-01T12:50:25Z</time></trkpt><trkpt lat="42.25673029229465" lon="14.135984588533326"><ele>271.0</ele><time>2026-05-01T12:50:26Z</time></trkpt><trkpt lat="42.25674801986113" lon="14.135791090974694"><ele>271.0</ele><time>2026-05-01T12:50:27Z</time></trkpt><trkpt lat="42.25677861402592" lon="14.135606886581952"><ele>271.0</ele><time>2026-05-01T12:50:28Z</time></trkpt><trkpt lat="42.25678189990661" lon="14.135437485458493"><ele>271.0</ele><time>2026-05-01T12:50:29Z</time></trkpt><trkpt lat="42.25680622760243" lon="14.13529340404652"><ele>271.0</ele><time>2026-05-01T12:50:30Z</time></trkpt><trkpt lat="42.256813310220885" lon="14.135178227178494"><ele>271.0</ele><time>2026-05-01T12:50:31Z</time></trkpt><trkpt lat="42.25682213019963" lon="14.13508253872366"><ele>271.0</ele><time>2026-05-01T12:50:32Z</time></trkpt><trkpt lat="42.256840416673334" lon="14.13494318638608"><ele>271.0</ele><time>2026-05-01T12:50:34Z</time></trkpt><trkpt lat="42.256881042587025" lon="14.134852937104583"><ele>271.0</ele><time>2026-05-01T12:50:37.999Z</time></trkpt><trkpt lat="42.25702782210588" lon="14.134903409449604"><ele>271.0</ele><time>2026-05-01T12:50:40.999Z</time></trkpt><trkpt lat="42.257106538121" lon="14.134899314085692"><ele>271.0</ele><time>2026-05-01T12:50:41.999Z</time></trkpt><trkpt lat="42.257212712866604" lon="14.134866366382917"><ele>271.0</ele><time>2026-05-01T12:50:42.999Z</time></trkpt><trkpt lat="42.25733309835735" lon="14.134865744266705"><ele>271.0</ele><time>2026-05-01T12:50:43.999Z</time></trkpt><trkpt lat="42.2574356416614" lon="14.134872239737923"><ele>271.0</ele><time>2026-05-01T12:50:44.999Z</time></trkpt><trkpt lat="42.25754334230556" lon="14.134904442631937"><ele>271.25</ele><time>2026-05-01T12:50:45.999Z</time></trkpt><trkpt lat="42.25767121425365" lon="14.134926386470283"><ele>271.5</ele><time>2026-05-01T12:50:46.999Z</time></trkpt><trkpt lat="42.25778415526559" lon="14.134955017723456"><ele>271.75</ele><time>2026-05-01T12:50:47.999Z</time></trkpt><trkpt lat="42.2578959242176" lon="14.134974467376907"><ele>272.0</ele><time>2026-05-01T12:50:48.999Z</time></trkpt><trkpt lat="42.258000125810426" lon="14.134989751505303"><ele>272.0</ele><time>2026-05-01T12:50:49.999Z</time></trkpt><trkpt lat="42.25810033046123" lon="14.135024794101145"><ele>272.0</ele><time>2026-05-01T12:50:50.999Z</time></trkpt><trkpt lat="42.25819526570859" lon="14.135042311329778"><ele>272.0</ele><time>2026-05-01T12:50:51.999Z</time></trkpt><trkpt lat="42.25829234230385" lon="14.135026561552491"><ele>272.0</ele><time>2026-05-01T12:50:52.999Z</time></trkpt><trkpt lat="42.25838819894071" lon="14.1350135404242"><ele>272.0</ele><time>2026-05-01T12:50:53.999Z</time></trkpt><trkpt lat="42.25847916744837" lon="14.135034560994832"><ele>272.8</ele><time>2026-05-01T12:50:54.999Z</time></trkpt><trkpt lat="42.258573630422674" lon="14.135086581022266"><ele>273.6</ele><time>2026-05-01T12:50:55.999Z</time></trkpt><trkpt lat="42.25866894891454" lon="14.135140622646153"><ele>274.40000000000003</ele><time>2026-05-01T12:50:56.999Z</time></trkpt><trkpt lat="42.25876328081452" lon="14.135214576445613"><ele>275.2</ele><time>2026-05-01T12:50:57.999Z</time></trkpt><trkpt lat="42.2588741434336" lon="14.135256177725836"><ele>276.0</ele><time>2026-05-01T12:50:58.999Z</time></trkpt><trkpt lat="42.25898724910432" lon="14.135256217373232"><ele>277.1666666666667</ele><time>2026-05-01T12:50:59.999Z</time></trkpt><trkpt lat="42.25907928674542" lon="14.135254058509377"><ele>278.3333333333333</ele><time>2026-05-01T12:51:00.999Z</time></trkpt><trkpt lat="42.25916745235909" lon="14.135262900934359"><ele>279.5</ele><time>2026-05-01T12:51:01.999Z</time></trkpt><trkpt lat="42.2592508133617" lon="14.13526231504902"><ele>280.66666666666663</ele><time>2026-05-01T12:51:02.999Z</time></trkpt><trkpt lat="42.25932017668919" lon="14.13526679418837"><ele>281.8333333333333</ele><time>2026-05-01T12:51:03.999Z</time></trkpt><trkpt lat="42.25939225712646" lon="14.135270907419951"><ele>283.0</ele><time>2026-05-01T12:51:04.999Z</time></trkpt><trkpt lat="42.25945812574825" lon="14.135293572525725"><ele>283.0</ele><time>2026-05-01T12:51:05.999Z</time></trkpt><trkpt lat="42.25951700607749" lon="14.13534026115645"><ele>283.0</ele><time>2026-05-01T12:51:06.999Z</time></trkpt><trkpt lat="42.25958145784982" lon="14.135330510607126"><ele>283.0</ele><time>2026-05-01T12:51:08.999Z</time></trkpt><trkpt lat="42.25964493750316" lon="14.13525751199744"><ele>283.0</ele><time>2026-05-01T12:51:10.999Z</time></trkpt><trkpt lat="42.25970176683624" lon="14.135195398154437"><ele>283.0</ele><time>2026-05-01T12:51:13.999Z</time></trkpt><trkpt lat="42.259859968985644" lon="14.135297522695284"><ele>282.8333333333333</ele><time>2026-05-01T12:51:17Z</time></trkpt><trkpt lat="42.25993677362851" lon="14.135327710601288"><ele>282.66666666666663</ele><time>2026-05-01T12:51:18Z</time></trkpt><trkpt lat="42.26001913857255" lon="14.135340019510553"><ele>282.5</ele><time>2026-05-01T12:51:19Z</time></trkpt><trkpt lat="42.26010503629304" lon="14.135347311603073"><ele>282.3333333333333</ele><time>2026-05-01T12:51:20Z</time></trkpt><trkpt lat="42.260176086361824" lon="14.135360153029255"><ele>282.1666666666667</ele><time>2026-05-01T12:51:21Z</time></trkpt><trkpt lat="42.26024513676979" lon="14.13538049562229"><ele>282.0</ele><time>2026-05-01T12:51:22Z</time></trkpt><trkpt lat="42.26030919671393" lon="14.13540605899506"><ele>282.0</ele><time>2026-05-01T12:51:23Z</time></trkpt><trkpt lat="42.26037488573838" lon="14.135425663533194"><ele>282.0</ele><time>2026-05-01T12:51:24Z</time></trkpt><trkpt lat="42.26045109814844" lon="14.135441343912081"><ele>282.0</ele><time>2026-05-01T12:51:25Z</time></trkpt><trkpt lat="42.260541636758745" lon="14.135457690162447"><ele>282.0</ele><time>2026-05-01T12:51:26Z</time></trkpt><trkpt lat="42.26062938704589" lon="14.135501034420175"><ele>282.0</ele><time>2026-05-01T12:51:27Z</time></trkpt><trkpt lat="42.260705338400086" lon="14.135550119313718"><ele>282.0</ele><time>2026-05-01T12:51:28Z</time></trkpt><trkpt lat="42.26079105681879" lon="14.135622926209171"><ele>279.2</ele><time>2026-05-01T12:51:29Z</time></trkpt><trkpt lat="42.260888837198294" lon="14.135728323781326"><ele>276.4</ele><time>2026-05-01T12:51:30Z</time></trkpt><trkpt lat="42.26096540540785" lon="14.135821489101719"><ele>273.6</ele><time>2026-05-01T12:51:31Z</time></trkpt><trkpt lat="42.26103694050757" lon="14.135935078216951"><ele>270.8</ele><time>2026-05-01T12:51:32Z</time></trkpt><trkpt lat="42.26111337058526" lon="14.136039939288333"><ele>268.0</ele><time>2026-05-01T12:51:33Z</time></trkpt><trkpt lat="42.26118804441734" lon="14.136154377587347"><ele>268.0</ele><time>2026-05-01T12:51:34Z</time></trkpt><trkpt lat="42.261251576608124" lon="14.136255254581496"><ele>268.0</ele><time>2026-05-01T12:51:35Z</time></trkpt><trkpt lat="42.26131608315831" lon="14.136339373055113"><ele>268.0</ele><time>2026-05-01T12:51:36Z</time></trkpt><trkpt lat="42.26137947946046" lon="14.136419735452767"><ele>268.0</ele><time>2026-05-01T12:51:37Z</time></trkpt><trkpt lat="42.261447557842445" lon="14.136488486216374"><ele>268.0</ele><time>2026-05-01T12:51:38Z</time></trkpt><trkpt lat="42.26153057147915" lon="14.136551166891888"><ele>266.0</ele><time>2026-05-01T12:51:39Z</time></trkpt><trkpt lat="42.261623559317606" lon="14.136626478769603"><ele>264.0</ele><time>2026-05-01T12:51:40Z</time></trkpt><trkpt lat="42.26169428808906" lon="14.136708961511872"><ele>262.0</ele><time>2026-05-01T12:51:41Z</time></trkpt><trkpt lat="42.26174516301917" lon="14.136796597896417"><ele>260.0</ele><time>2026-05-01T12:51:42Z</time></trkpt><trkpt lat="42.26178721457291" lon="14.136898893934145"><ele>258.0</ele><time>2026-05-01T12:51:43Z</time></trkpt><trkpt lat="42.26182419247121" lon="14.136989279581398"><ele>256.0</ele><time>2026-05-01T12:51:44Z</time></trkpt><trkpt lat="42.26183836105073" lon="14.137141497665215"><ele>255.99999999999997</ele><time>2026-05-01T12:51:46Z</time></trkpt><trkpt lat="42.26182994728918" lon="14.137240290280936"><ele>256.0</ele><time>2026-05-01T12:51:47Z</time></trkpt><trkpt lat="42.2618115944614" lon="14.137336290709984"><ele>256.0</ele><time>2026-05-01T12:51:48Z</time></trkpt><trkpt lat="42.261777880189186" lon="14.137430404123315"><ele>256.0</ele><time>2026-05-01T12:51:49Z</time></trkpt><trkpt lat="42.26174674301447" lon="14.13753178274102"><ele>255.99999999999997</ele><time>2026-05-01T12:51:50Z</time></trkpt><trkpt lat="42.2617559985108" lon="14.1376557741041"><ele>256.0</ele><time>2026-05-01T12:51:52Z</time></trkpt><trkpt lat="42.26179726720812" lon="14.137762203455711"><ele>256.6</ele><time>2026-05-01T12:51:56Z</time></trkpt><trkpt lat="42.26173544055453" lon="14.13791067340474"><ele>257.20000000000005</ele><time>2026-05-01T12:51:58Z</time></trkpt><trkpt lat="42.26167598220186" lon="14.138029923518843"><ele>257.79999999999995</ele><time>2026-05-01T12:52:00Z</time></trkpt><trkpt lat="42.26162323136336" lon="14.138135208172086"><ele>258.4</ele><time>2026-05-01T12:52:02Z</time></trkpt><trkpt lat="42.26157156235484" lon="14.138262002450743"><ele>259.0</ele><time>2026-05-01T12:52:04Z</time></trkpt><trkpt lat="42.26149139004437" lon="14.13839495771692"><ele>262.5</ele><time>2026-05-01T12:52:06Z</time></trkpt><trkpt lat="42.261437699409285" lon="14.138468135637668"><ele>266.0</ele><time>2026-05-01T12:52:07Z</time></trkpt><trkpt lat="42.26138225798096" lon="14.138527638205586"><ele>269.5</ele><time>2026-05-01T12:52:08Z</time></trkpt><trkpt lat="42.261333578380516" lon="14.138584976826532"><ele>273.0</ele><time>2026-05-01T12:52:09Z</time></trkpt><trkpt lat="42.261286700607826" lon="14.13864556654763"><ele>276.5</ele><time>2026-05-01T12:52:10Z</time></trkpt><trkpt lat="42.26123822531525" lon="14.13873866025501"><ele>280.0</ele><time>2026-05-01T12:52:11Z</time></trkpt><trkpt lat="42.26119395428896" lon="14.138845117479773"><ele>280.0</ele><time>2026-05-01T12:52:12Z</time></trkpt><trkpt lat="42.26116168459476" lon="14.13893585739494"><ele>280.0</ele><time>2026-05-01T12:52:13Z</time></trkpt><trkpt lat="42.261137528386826" lon="14.139015765603055"><ele>280.0</ele><time>2026-05-01T12:52:14Z</time></trkpt><trkpt lat="42.26118040910448" lon="14.139086472050003"><ele>280.0</ele><time>2026-05-01T12:52:17Z</time></trkpt><trkpt lat="42.26121960484209" lon="14.139172201276418"><ele>280.0</ele><time>2026-05-01T12:52:19Z</time></trkpt><trkpt lat="42.261256377580764" lon="14.139322806702555"><ele>280.0</ele><time>2026-05-01T12:52:20.999Z</time></trkpt><trkpt lat="42.26128983800364" lon="14.13940812265981"><ele>280.3333333333333</ele><time>2026-05-01T12:52:21.999Z</time></trkpt><trkpt lat="42.261324278979075" lon="14.139488948354558"><ele>280.66666666666663</ele><time>2026-05-01T12:52:22.999Z</time></trkpt><trkpt lat="42.26139089141506" lon="14.139579221352378"><ele>281.0</ele><time>2026-05-01T12:52:24.999Z</time></trkpt><trkpt lat="42.26147364896589" lon="14.13961561357996"><ele>281.3333333333333</ele><time>2026-05-01T12:52:27.999Z</time></trkpt><trkpt lat="42.26154928622723" lon="14.139632912818655"><ele>281.6666666666667</ele><time>2026-05-01T12:52:29.999Z</time></trkpt><trkpt lat="42.261665790280105" lon="14.139602742678475"><ele>282.0</ele><time>2026-05-01T12:52:31.999Z</time></trkpt><trkpt lat="42.26178177583861" lon="14.139670604836684"><ele>277.8</ele><time>2026-05-01T12:52:33.999Z</time></trkpt><trkpt lat="42.26186988434178" lon="14.139721756344924"><ele>273.6</ele><time>2026-05-01T12:52:34.999Z</time></trkpt><trkpt lat="42.26194376310234" lon="14.139780418543127"><ele>269.40000000000003</ele><time>2026-05-01T12:52:35.999Z</time></trkpt><trkpt lat="42.26200878479862" lon="14.139838217022062"><ele>265.2</ele><time>2026-05-01T12:52:36.999Z</time></trkpt><trkpt lat="42.26206956440197" lon="14.139905728882368"><ele>261.0</ele><time>2026-05-01T12:52:37.999Z</time></trkpt><trkpt lat="42.26212114453769" lon="14.140057105514831"><ele>261.0</ele><time>2026-05-01T12:52:39.999Z</time></trkpt><trkpt lat="42.26214433157494" lon="14.140146804988051"><ele>261.0</ele><time>2026-05-01T12:52:40.999Z</time></trkpt><trkpt lat="42.26217528685084" lon="14.140231900670702"><ele>261.0</ele><time>2026-05-01T12:52:41.999Z</time></trkpt><trkpt lat="42.26220812114695" lon="14.140316106744956"><ele>261.0</ele><time>2026-05-01T12:52:42.999Z</time></trkpt><trkpt lat="42.262237413872604" lon="14.140405047927835"><ele>261.0</ele><time>2026-05-01T12:52:43.999Z</time></trkpt><trkpt lat="42.262251454307595" lon="14.140492193215888"><ele>261.0</ele><time>2026-05-01T12:52:44.999Z</time></trkpt><trkpt lat="42.2622815836844" lon="14.140578667269493"><ele>261.0</ele><time>2026-05-01T12:52:45.999Z</time></trkpt><trkpt lat="42.262306025659356" lon="14.140681699643865"><ele>257.8333333333333</ele><time>2026-05-01T12:52:46.999Z</time></trkpt><trkpt lat="42.26233415834555" lon="14.14079661616228"><ele>254.66666666666669</ele><time>2026-05-01T12:52:47.999Z</time></trkpt><trkpt lat="42.262353287779526" lon="14.140913011457537"><ele>251.5</ele><time>2026-05-01T12:52:48.999Z</time></trkpt><trkpt lat="42.262367809388564" lon="14.141043266406383"><ele>248.33333333333334</ele><time>2026-05-01T12:52:49.999Z</time></trkpt><trkpt lat="42.262385863769346" lon="14.141160189436434"><ele>245.16666666666669</ele><time>2026-05-01T12:52:50.999Z</time></trkpt><trkpt lat="42.26242315935393" lon="14.141260592661261"><ele>242.0</ele><time>2026-05-01T12:52:51.999Z</time></trkpt><trkpt lat="42.26246847878092" lon="14.141329716553283"><ele>242.0</ele><time>2026-05-01T12:52:52.999Z</time></trkpt><trkpt lat="42.26259523571308" lon="14.141351604943422"><ele>242.0</ele><time>2026-05-01T12:52:54.999Z</time></trkpt><trkpt lat="42.26268299621999" lon="14.14136031413319"><ele>242.0</ele><time>2026-05-01T12:52:55.999Z</time></trkpt><trkpt lat="42.262804873074366" lon="14.141399799632872"><ele>242.0</ele><time>2026-05-01T12:52:57.999Z</time></trkpt><trkpt lat="42.262870031344384" lon="14.141397767705058"><ele>242.0</ele><time>2026-05-01T12:52:58.999Z</time></trkpt><trkpt lat="42.26293556318894" lon="14.141373753461469"><ele>242.00000000000003</ele><time>2026-05-01T12:52:59.999Z</time></trkpt><trkpt lat="42.26298608879427" lon="14.141276310667518"><ele>242.0</ele><time>2026-05-01T12:53:00.999Z</time></trkpt><trkpt lat="42.263068643760015" lon="14.141221970296078"><ele>242.0</ele><time>2026-05-01T12:53:01.999Z</time></trkpt><trkpt lat="42.26314035887642" lon="14.141196619104393"><ele>242.0</ele><time>2026-05-01T12:53:02.999Z</time></trkpt><trkpt lat="42.26321826699958" lon="14.141141805705074"><ele>242.00000000000003</ele><time>2026-05-01T12:53:03.999Z</time></trkpt><trkpt lat="42.26330479847268" lon="14.141133181284834"><ele>242.0</ele><time>2026-05-01T12:53:04.999Z</time></trkpt><trkpt lat="42.26340679593862" lon="14.141169489866398"><ele>238.0</ele><time>2026-05-01T12:53:05.999Z</time></trkpt><trkpt lat="42.2635045206845" lon="14.141190477948095"><ele>234.0</ele><time>2026-05-01T12:53:06.999Z</time></trkpt><trkpt lat="42.26362112127762" lon="14.141199463448912"><ele>230.0</ele><time>2026-05-01T12:53:07.999Z</time></trkpt><trkpt lat="42.26370931229242" lon="14.141208815990089"><ele>226.0</ele><time>2026-05-01T12:53:08.999Z</time></trkpt><trkpt lat="42.26378202738136" lon="14.141208281739209"><ele>222.0</ele><time>2026-05-01T12:53:09.999Z</time></trkpt><trkpt lat="42.263893549243804" lon="14.141228367873211"><ele>218.83333333333334</ele><time>2026-05-01T12:53:11.999Z</time></trkpt><trkpt lat="42.26395943753137" lon="14.14123953035299"><ele>215.66666666666669</ele><time>2026-05-01T12:53:12.999Z</time></trkpt><trkpt lat="42.26403776680092" lon="14.141242030691451"><ele>212.5</ele><time>2026-05-01T12:53:13.999Z</time></trkpt><trkpt lat="42.26412047632903" lon="14.141241606340778"><ele>209.33333333333334</ele><time>2026-05-01T12:53:14.999Z</time></trkpt><trkpt lat="42.26419671499029" lon="14.141256657783403"><ele>206.16666666666669</ele><time>2026-05-01T12:53:15.999Z</time></trkpt><trkpt lat="42.264292786624516" lon="14.141247896406208"><ele>203.0</ele><time>2026-05-01T12:53:17.999Z</time></trkpt><trkpt lat="42.2642915981322" lon="14.141085865971867"><ele>203.0</ele><time>2026-05-01T12:53:19.999Z</time></trkpt><trkpt lat="42.26429143473156" lon="14.140994408649602"><ele>203.0</ele><time>2026-05-01T12:53:21Z</time></trkpt><trkpt lat="42.2643131989941" lon="14.140899784293033"><ele>203.0</ele><time>2026-05-01T12:53:22Z</time></trkpt><trkpt lat="42.264346058044026" lon="14.140803787961554"><ele>203.0</ele><time>2026-05-01T12:53:23Z</time></trkpt><trkpt lat="42.26438547724526" lon="14.140732526986596"><ele>203.0</ele><time>2026-05-01T12:53:24Z</time></trkpt><trkpt lat="42.26445492789866" lon="14.140706618929146"><ele>203.0</ele><time>2026-05-01T12:53:26Z</time></trkpt><trkpt lat="42.2645380432651" lon="14.14071841366174"><ele>203.0</ele><time>2026-05-01T12:53:27Z</time></trkpt><trkpt lat="42.264611173618576" lon="14.140708315461206"><ele>202.33333333333334</ele><time>2026-05-01T12:53:28Z</time></trkpt><trkpt lat="42.264687414476704" lon="14.14068481708591"><ele>201.66666666666669</ele><time>2026-05-01T12:53:29Z</time></trkpt><trkpt lat="42.26476625683799" lon="14.140676738701623"><ele>201.0</ele><time>2026-05-01T12:53:30Z</time></trkpt><trkpt lat="42.26485476677385" lon="14.140660936157733"><ele>200.33333333333331</ele><time>2026-05-01T12:53:31Z</time></trkpt><trkpt lat="42.26493691271327" lon="14.140643511148387"><ele>199.66666666666666</ele><time>2026-05-01T12:53:32Z</time></trkpt><trkpt lat="42.26501506491489" lon="14.140647614288156"><ele>199.0</ele><time>2026-05-01T12:53:33Z</time></trkpt><trkpt lat="42.26511206853981" lon="14.14065298683962"><ele>195.79999999999998</ele><time>2026-05-01T12:53:34Z</time></trkpt><trkpt lat="42.26519301376488" lon="14.140648063571302"><ele>192.6</ele><time>2026-05-01T12:53:35Z</time></trkpt><trkpt lat="42.265290123359776" lon="14.140643646068165"><ele>189.4</ele><time>2026-05-01T12:53:36Z</time></trkpt><trkpt lat="42.26538269985374" lon="14.140637079779912"><ele>186.2</ele><time>2026-05-01T12:53:37Z</time></trkpt><trkpt lat="42.26547927739599" lon="14.140623477672474"><ele>183.0</ele><time>2026-05-01T12:53:38Z</time></trkpt><trkpt lat="42.2655649423353" lon="14.140603569875676"><ele>182.0</ele><time>2026-05-01T12:53:39Z</time></trkpt><trkpt lat="42.26564167075006" lon="14.140591593878396"><ele>181.0</ele><time>2026-05-01T12:53:40Z</time></trkpt><trkpt lat="42.26571225710212" lon="14.140598584247092"><ele>180.0</ele><time>2026-05-01T12:53:41Z</time></trkpt><trkpt lat="42.265768733152704" lon="14.140641653234416"><ele>179.0</ele><time>2026-05-01T12:53:42Z</time></trkpt><trkpt lat="42.265808534990796" lon="14.140719295699055"><ele>178.0</ele><time>2026-05-01T12:53:43Z</time></trkpt><trkpt lat="42.2658544531851" lon="14.140835249432898"><ele>177.0</ele><time>2026-05-01T12:53:44Z</time></trkpt><trkpt lat="42.26590603071128" lon="14.140980372623403"><ele>177.0</ele><time>2026-05-01T12:53:45Z</time></trkpt><trkpt lat="42.26595444175344" lon="14.141074644160167"><ele>177.0</ele><time>2026-05-01T12:53:46Z</time></trkpt><trkpt lat="42.26600916617057" lon="14.141230462452043"><ele>177.0</ele><time>2026-05-01T12:53:48Z</time></trkpt><trkpt lat="42.26604239679541" lon="14.14134911493251"><ele>177.0</ele><time>2026-05-01T12:53:50Z</time></trkpt><trkpt lat="42.266087577160775" lon="14.14144860329295"><ele>177.0</ele><time>2026-05-01T12:53:52Z</time></trkpt><trkpt lat="42.266125558150875" lon="14.141517000682754"><ele>176.83333333333334</ele><time>2026-05-01T12:53:53Z</time></trkpt><trkpt lat="42.266146331062636" lon="14.141601067737609"><ele>176.66666666666666</ele><time>2026-05-01T12:53:54Z</time></trkpt><trkpt lat="42.26618274682963" lon="14.141712577877792"><ele>176.5</ele><time>2026-05-01T12:53:55Z</time></trkpt><trkpt lat="42.26619256367235" lon="14.141835005422461"><ele>176.33333333333331</ele><time>2026-05-01T12:53:57Z</time></trkpt><trkpt lat="42.26626867611684" lon="14.141827503216302"><ele>176.16666666666666</ele><time>2026-05-01T12:54:00Z</time></trkpt><trkpt lat="42.26635488786124" lon="14.141727760051692"><ele>176.0</ele><time>2026-05-01T12:54:02Z</time></trkpt><trkpt lat="42.266396428103555" lon="14.141635459404947"><ele>176.0</ele><time>2026-05-01T12:54:03Z</time></trkpt><trkpt lat="42.26643395936111" lon="14.141514890035504"><ele>176.0</ele><time>2026-05-01T12:54:04Z</time></trkpt><trkpt lat="42.26646647254514" lon="14.14141642464424"><ele>176.0</ele><time>2026-05-01T12:54:05Z</time></trkpt><trkpt lat="42.26650984269674" lon="14.141519978386826"><ele>176.0</ele><time>2026-05-01T12:54:10Z</time></trkpt><trkpt lat="42.266492713228715" lon="14.141641363058907"><ele>176.0</ele><time>2026-05-01T12:54:11Z</time></trkpt><trkpt lat="42.26648106679912" lon="14.14176836452943"><ele>176.0</ele><time>2026-05-01T12:54:12Z</time></trkpt><trkpt lat="42.26647027126066" lon="14.141887611425089"><ele>176.0</ele><time>2026-05-01T12:54:13Z</time></trkpt><trkpt lat="42.26645324039697" lon="14.14200494509988"><ele>176.0</ele><time>2026-05-01T12:54:14Z</time></trkpt><trkpt lat="42.26642062190411" lon="14.142126371135031"><ele>176.0</ele><time>2026-05-01T12:54:15Z</time></trkpt><trkpt lat="42.266377162879515" lon="14.142203724213692"><ele>176.0</ele><time>2026-05-01T12:54:16Z</time></trkpt><trkpt lat="42.266337197463876" lon="14.142293515663237"><ele>176.0</ele><time>2026-05-01T12:54:17Z</time></trkpt><trkpt lat="42.26631064940971" lon="14.142378132278079"><ele>176.8</ele><time>2026-05-01T12:54:17.999Z</time></trkpt><trkpt lat="42.26626863631237" lon="14.14245671440671"><ele>177.60000000000002</ele><time>2026-05-01T12:54:18.999Z</time></trkpt><trkpt lat="42.26625323088705" lon="14.142619540409449"><ele>178.4</ele><time>2026-05-01T12:54:20.999Z</time></trkpt><trkpt lat="42.26626227025347" lon="14.142728511377626"><ele>179.2</ele><time>2026-05-01T12:54:21.999Z</time></trkpt><trkpt lat="42.266294845418145" lon="14.142852251492677"><ele>180.0</ele><time>2026-05-01T12:54:22.999Z</time></trkpt><trkpt lat="42.266329948928664" lon="14.142969364498795"><ele>180.0</ele><time>2026-05-01T12:54:23.999Z</time></trkpt><trkpt lat="42.266350797554985" lon="14.143080392826956"><ele>180.0</ele><time>2026-05-01T12:54:24.999Z</time></trkpt><trkpt lat="42.26637547255772" lon="14.143169911641522"><ele>180.0</ele><time>2026-05-01T12:54:25.999Z</time></trkpt><trkpt lat="42.266402930512335" lon="14.14325325393097"><ele>180.0</ele><time>2026-05-01T12:54:26.999Z</time></trkpt><trkpt lat="42.26641346501803" lon="14.143341278149443"><ele>180.0</ele><time>2026-05-01T12:54:27.999Z</time></trkpt><trkpt lat="42.266399176433524" lon="14.143438359107003"><ele>180.0</ele><time>2026-05-01T12:54:28.999Z</time></trkpt><trkpt lat="42.266374097377586" lon="14.143541157126988"><ele>180.0</ele><time>2026-05-01T12:54:29.999Z</time></trkpt><trkpt lat="42.26635259685296" lon="14.143654424343843"><ele>181.83333333333334</ele><time>2026-05-01T12:54:30.999Z</time></trkpt><trkpt lat="42.26634293804823" lon="14.143763143034457"><ele>183.66666666666666</ele><time>2026-05-01T12:54:31.999Z</time></trkpt><trkpt lat="42.26633641319931" lon="14.143874234087507"><ele>185.5</ele><time>2026-05-01T12:54:32.999Z</time></trkpt><trkpt lat="42.266338012823724" lon="14.143988590139509"><ele>187.33333333333331</ele><time>2026-05-01T12:54:33.999Z</time></trkpt><trkpt lat="42.266361237040336" lon="14.144112624352971"><ele>189.16666666666666</ele><time>2026-05-01T12:54:34.999Z</time></trkpt><trkpt lat="42.26638973508464" lon="14.144232815238349"><ele>191.0</ele><time>2026-05-01T12:54:35.999Z</time></trkpt><trkpt lat="42.26640945652898" lon="14.144352737900702"><ele>192.66666666666666</ele><time>2026-05-01T12:54:36.999Z</time></trkpt><trkpt lat="42.266422202372816" lon="14.14445599605124"><ele>194.33333333333331</ele><time>2026-05-01T12:54:37.999Z</time></trkpt><trkpt lat="42.26642591130708" lon="14.144574847156612"><ele>196.0</ele><time>2026-05-01T12:54:38.999Z</time></trkpt><trkpt lat="42.26641454764932" lon="14.144672428433147"><ele>197.66666666666666</ele><time>2026-05-01T12:54:39.999Z</time></trkpt><trkpt lat="42.266396275820156" lon="14.14477221678297"><ele>199.33333333333334</ele><time>2026-05-01T12:54:40.999Z</time></trkpt><trkpt lat="42.26639986535666" lon="14.144873432919878"><ele>201.0</ele><time>2026-05-01T12:54:41.999Z</time></trkpt><trkpt lat="42.266430032841605" lon="14.144991815213507"><ele>203.4</ele><time>2026-05-01T12:54:42.999Z</time></trkpt><trkpt lat="42.26647264576305" lon="14.145081060465769"><ele>205.8</ele><time>2026-05-01T12:54:43.999Z</time></trkpt><trkpt lat="42.26647555272057" lon="14.145174426375723"><ele>208.20000000000002</ele><time>2026-05-01T12:54:44.999Z</time></trkpt><trkpt lat="42.26645803155457" lon="14.14531343295167"><ele>210.60000000000002</ele><time>2026-05-01T12:54:45.999Z</time></trkpt><trkpt lat="42.266434834084095" lon="14.145461944534105"><ele>213.0</ele><time>2026-05-01T12:54:46.999Z</time></trkpt><trkpt lat="42.26640521806969" lon="14.145601016971595"><ele>218.4</ele><time>2026-05-01T12:54:47.999Z</time></trkpt><trkpt lat="42.26638326402861" lon="14.145730921401844"><ele>223.8</ele><time>2026-05-01T12:54:48.999Z</time></trkpt><trkpt lat="42.26638997496218" lon="14.145876575142779"><ele>229.2</ele><time>2026-05-01T12:54:49.999Z</time></trkpt><trkpt lat="42.26639893829883" lon="14.146029610379111"><ele>234.6</ele><time>2026-05-01T12:54:50.999Z</time></trkpt><trkpt lat="42.26639836753466" lon="14.14618294141054"><ele>240.0</ele><time>2026-05-01T12:54:51.999Z</time></trkpt><trkpt lat="42.26639758317945" lon="14.146312793914616"><ele>240.0</ele><time>2026-05-01T12:54:52.999Z</time></trkpt><trkpt lat="42.26636965123185" lon="14.1464324877272"><ele>240.0</ele><time>2026-05-01T12:54:53.999Z</time></trkpt><trkpt lat="42.26632350061835" lon="14.146536186645065"><ele>240.0</ele><time>2026-05-01T12:54:54.999Z</time></trkpt><trkpt lat="42.26628327321931" lon="14.146625620201714"><ele>240.0</ele><time>2026-05-01T12:54:55.999Z</time></trkpt><trkpt lat="42.26620461928934" lon="14.146737295611885"><ele>240.0</ele><time>2026-05-01T12:54:57.999Z</time></trkpt><trkpt lat="42.26616283334677" lon="14.146812922923848"><ele>240.0</ele><time>2026-05-01T12:54:58.999Z</time></trkpt><trkpt lat="42.266163883845394" lon="14.146927180460441"><ele>243.5</ele><time>2026-05-01T12:54:59.999Z</time></trkpt><trkpt lat="42.266199017802975" lon="14.147058846617254"><ele>247.0</ele><time>2026-05-01T12:55:00.999Z</time></trkpt><trkpt lat="42.26624433881299" lon="14.1472171094389"><ele>250.5</ele><time>2026-05-01T12:55:01.999Z</time></trkpt><trkpt lat="42.266271876830615" lon="14.147364669600414"><ele>254.0</ele><time>2026-05-01T12:55:02.999Z</time></trkpt><trkpt lat="42.26628254036856" lon="14.147520031144944"><ele>254.0</ele><time>2026-05-01T12:55:03.999Z</time></trkpt><trkpt lat="42.26629412336386" lon="14.147685666137322"><ele>254.0</ele><time>2026-05-01T12:55:04.999Z</time></trkpt><trkpt lat="42.2663228535174" lon="14.14784058712707"><ele>254.0</ele><time>2026-05-01T12:55:05.998Z</time></trkpt><trkpt lat="42.26635122638358" lon="14.148001504952752"><ele>254.0</ele><time>2026-05-01T12:55:06.998Z</time></trkpt><trkpt lat="42.266365990159834" lon="14.14817388044024"><ele>254.5</ele><time>2026-05-01T12:55:07.998Z</time></trkpt><trkpt lat="42.266385705493114" lon="14.148369006732105"><ele>255.0</ele><time>2026-05-01T12:55:08.998Z</time></trkpt><trkpt lat="42.26640031389438" lon="14.148534233763836"><ele>255.5</ele><time>2026-05-01T12:55:09.998Z</time></trkpt><trkpt lat="42.266407876289044" lon="14.148678840368861"><ele>256.0</ele><time>2026-05-01T12:55:10.998Z</time></trkpt><trkpt lat="42.26641855214215" lon="14.148816425979389"><ele>255.99999999999997</ele><time>2026-05-01T12:55:11.998Z</time></trkpt><trkpt lat="42.26642769361541" lon="14.14894939828046"><ele>256.0</ele><time>2026-05-01T12:55:12.998Z</time></trkpt><trkpt lat="42.2664360274746" lon="14.149087361663568"><ele>256.0</ele><time>2026-05-01T12:55:13.998Z</time></trkpt><trkpt lat="42.26644399433991" lon="14.149209556610547"><ele>256.0</ele><time>2026-05-01T12:55:14.998Z</time></trkpt><trkpt lat="42.26644482150571" lon="14.149299755851215"><ele>255.99999999999997</ele><time>2026-05-01T12:55:15.998Z</time></trkpt><trkpt lat="42.26651023655466" lon="14.149313321532748"><ele>256.0</ele><time>2026-05-01T12:55:18.998Z</time></trkpt><trkpt lat="42.26660258100303" lon="14.149248235259503"><ele>261.66666666666663</ele><time>2026-05-01T12:55:20.998Z</time></trkpt><trkpt lat="42.26666799600528" lon="14.149257589021536"><ele>267.3333333333333</ele><time>2026-05-01T12:55:21.998Z</time></trkpt><trkpt lat="42.26675315750356" lon="14.149277210731206"><ele>273.0</ele><time>2026-05-01T12:55:22.998Z</time></trkpt><trkpt lat="42.26683370856222" lon="14.149303156413934"><ele>278.6666666666667</ele><time>2026-05-01T12:55:23.998Z</time></trkpt><trkpt lat="42.26690458835342" lon="14.149318570602754"><ele>284.33333333333337</ele><time>2026-05-01T12:55:24.998Z</time></trkpt><trkpt lat="42.26697323267204" lon="14.149336865294075"><ele>290.0</ele><time>2026-05-01T12:55:25.998Z</time></trkpt><trkpt lat="42.26704403265658" lon="14.149362475924583"><ele>290.0</ele><time>2026-05-01T12:55:26.999Z</time></trkpt><trkpt lat="42.26711383078017" lon="14.149370733889592"><ele>290.0</ele><time>2026-05-01T12:55:27.999Z</time></trkpt><trkpt lat="42.26719104128438" lon="14.149395699692423"><ele>290.0</ele><time>2026-05-01T12:55:28.999Z</time></trkpt><trkpt lat="42.2672625396955" lon="14.149418697665709"><ele>290.0</ele><time>2026-05-01T12:55:29.999Z</time></trkpt><trkpt lat="42.26735459065063" lon="14.149451888393216"><ele>290.0</ele><time>2026-05-01T12:55:30.999Z</time></trkpt><trkpt lat="42.26744534765124" lon="14.149482300875665"><ele>290.0</ele><time>2026-05-01T12:55:31.999Z</time></trkpt><trkpt lat="42.2675297009121" lon="14.149511835448399"><ele>288.1666666666667</ele><time>2026-05-01T12:55:32.999Z</time></trkpt><trkpt lat="42.2676236060516" lon="14.14954233743226"><ele>286.33333333333337</ele><time>2026-05-01T12:55:33.999Z</time></trkpt><trkpt lat="42.26770526138582" lon="14.149582158666563"><ele>284.5</ele><time>2026-05-01T12:55:34.999Z</time></trkpt><trkpt lat="42.267770600946704" lon="14.14961695345612"><ele>282.6666666666667</ele><time>2026-05-01T12:55:35.999Z</time></trkpt><trkpt lat="42.26784273559981" lon="14.149649822251869"><ele>280.8333333333333</ele><time>2026-05-01T12:55:36.999Z</time></trkpt><trkpt lat="42.2679233671537" lon="14.149688104490428"><ele>279.0</ele><time>2026-05-01T12:55:37.999Z</time></trkpt><trkpt lat="42.26800431153448" lon="14.149726707418171"><ele>279.0</ele><time>2026-05-01T12:55:38.999Z</time></trkpt><trkpt lat="42.26809108022894" lon="14.149761092190811"><ele>279.0</ele><time>2026-05-01T12:55:39.999Z</time></trkpt><trkpt lat="42.268170238448235" lon="14.149786380572166"><ele>279.0</ele><time>2026-05-01T12:55:40.999Z</time></trkpt><trkpt lat="42.268254905765524" lon="14.149807325776461"><ele>279.0</ele><time>2026-05-01T12:55:41.999Z</time></trkpt><trkpt lat="42.26832949366333" lon="14.149824041742507"><ele>279.0</ele><time>2026-05-01T12:55:42.999Z</time></trkpt><trkpt lat="42.268421037330384" lon="14.149845998468242"><ele>279.0</ele><time>2026-05-01T12:55:43.999Z</time></trkpt><trkpt lat="42.26849929216439" lon="14.14985826186667"><ele>278.8333333333333</ele><time>2026-05-01T12:55:44.999Z</time></trkpt><trkpt lat="42.268582468962315" lon="14.149874941189067"><ele>278.6666666666667</ele><time>2026-05-01T12:55:45.999Z</time></trkpt><trkpt lat="42.268663595899284" lon="14.14990707258978"><ele>278.5</ele><time>2026-05-01T12:55:46.999Z</time></trkpt><trkpt lat="42.26872973990409" lon="14.14995727016623"><ele>278.33333333333337</ele><time>2026-05-01T12:55:47.999Z</time></trkpt><trkpt lat="42.26881017743303" lon="14.149965450130846"><ele>278.1666666666667</ele><time>2026-05-01T12:55:48.999Z</time></trkpt><trkpt lat="42.26890244119628" lon="14.149944849501981"><ele>278.0</ele><time>2026-05-01T12:55:49.999Z</time></trkpt><trkpt lat="42.26900266807866" lon="14.149937472924396"><ele>277.2</ele><time>2026-05-01T12:55:50.999Z</time></trkpt><trkpt lat="42.2690888885" lon="14.149986660446892"><ele>276.4</ele><time>2026-05-01T12:55:51.999Z</time></trkpt><trkpt lat="42.26918977856378" lon="14.150052383391362"><ele>275.59999999999997</ele><time>2026-05-01T12:55:52.999Z</time></trkpt><trkpt lat="42.26928721589796" lon="14.150097562145424"><ele>274.8</ele><time>2026-05-01T12:55:53.999Z</time></trkpt><trkpt lat="42.26934444361502" lon="14.1501346424037"><ele>274.0</ele><time>2026-05-01T12:55:54.999Z</time></trkpt><trkpt lat="42.269431136052695" lon="14.15016712510218"><ele>274.0</ele><time>2026-05-01T12:55:56.999Z</time></trkpt><trkpt lat="42.269548514289326" lon="14.150067231595715"><ele>274.0</ele><time>2026-05-01T12:55:58.999Z</time></trkpt><trkpt lat="42.26960651211973" lon="14.149993082902354"><ele>274.0</ele><time>2026-05-01T12:55:59.999Z</time></trkpt><trkpt lat="42.269699519973834" lon="14.149934376438074"><ele>274.0</ele><time>2026-05-01T12:56:00.999Z</time></trkpt><trkpt lat="42.269767336394146" lon="14.149910703940439"><ele>274.0</ele><time>2026-05-01T12:56:01.999Z</time></trkpt><trkpt lat="42.269839334697636" lon="14.149884773977671"><ele>274.66666666666663</ele><time>2026-05-01T12:56:02.999Z</time></trkpt><trkpt lat="42.26991071856082" lon="14.149845549149006"><ele>275.3333333333333</ele><time>2026-05-01T12:56:03.999Z</time></trkpt><trkpt lat="42.26997212860401" lon="14.149820348603493"><ele>276.0</ele><time>2026-05-01T12:56:04.999Z</time></trkpt><trkpt lat="42.27008598933055" lon="14.149810489383071"><ele>276.6666666666667</ele><time>2026-05-01T12:56:06.999Z</time></trkpt><trkpt lat="42.270173974265994" lon="14.149826910389455"><ele>277.33333333333337</ele><time>2026-05-01T12:56:08.999Z</time></trkpt><trkpt lat="42.27023256513363" lon="14.149928982894057"><ele>278.0</ele><time>2026-05-01T12:56:10.999Z</time></trkpt><trkpt lat="42.270257685247174" lon="14.15004041009701"><ele>278.75</ele><time>2026-05-01T12:56:11.999Z</time></trkpt><trkpt lat="42.27028623888357" lon="14.15020016042686"><ele>279.5</ele><time>2026-05-01T12:56:12.999Z</time></trkpt><trkpt lat="42.270306457493945" lon="14.150376912228484"><ele>280.25</ele><time>2026-05-01T12:56:13.999Z</time></trkpt><trkpt lat="42.27032008615988" lon="14.150525214979606"><ele>281.0</ele><time>2026-05-01T12:56:14.999Z</time></trkpt><trkpt lat="42.27034339457217" lon="14.150643722242455"><ele>281.25</ele><time>2026-05-01T12:56:15.999Z</time></trkpt><trkpt lat="42.270371221785794" lon="14.150768282507919"><ele>281.5</ele><time>2026-05-01T12:56:16.999Z</time></trkpt><trkpt lat="42.27040526390202" lon="14.15092923924605"><ele>281.75</ele><time>2026-05-01T12:56:17.999Z</time></trkpt><trkpt lat="42.270444211982564" lon="14.151089410023461"><ele>282.0</ele><time>2026-05-01T12:56:18.999Z</time></trkpt><trkpt lat="42.27047950551039" lon="14.151231605415104"><ele>282.0</ele><time>2026-05-01T12:56:19.999Z</time></trkpt><trkpt lat="42.27049517859606" lon="14.1513591671993"><ele>282.0</ele><time>2026-05-01T12:56:20.999Z</time></trkpt><trkpt lat="42.2704901286273" lon="14.151484146461357"><ele>282.0</ele><time>2026-05-01T12:56:21.999Z</time></trkpt><trkpt lat="42.270473528333746" lon="14.15159031159737"><ele>282.0</ele><time>2026-05-01T12:56:22.999Z</time></trkpt><trkpt lat="42.270454666257756" lon="14.151708289719888"><ele>282.0</ele><time>2026-05-01T12:56:23.999Z</time></trkpt><trkpt lat="42.270431198740695" lon="14.151851668818692"><ele>282.1666666666667</ele><time>2026-05-01T12:56:24.999Z</time></trkpt><trkpt lat="42.27041941492545" lon="14.15199295326104"><ele>282.3333333333333</ele><time>2026-05-01T12:56:25.999Z</time></trkpt><trkpt lat="42.27041851423248" lon="14.152129232449784"><ele>282.5</ele><time>2026-05-01T12:56:26.999Z</time></trkpt><trkpt lat="42.27041155562161" lon="14.152244177780997"><ele>282.66666666666663</ele><time>2026-05-01T12:56:27.999Z</time></trkpt><trkpt lat="42.270410226469814" lon="14.152343951926502"><ele>282.8333333333333</ele><time>2026-05-01T12:56:28.999Z</time></trkpt><trkpt lat="42.27041639607603" lon="14.15243424307305"><ele>283.0</ele><time>2026-05-01T12:56:29.999Z</time></trkpt><trkpt lat="42.27043029978455" lon="14.152587781973528"><ele>283.0</ele><time>2026-05-01T12:56:31.999Z</time></trkpt><trkpt lat="42.27040457627499" lon="14.152750286686802"><ele>283.0</ele><time>2026-05-01T12:56:33.999Z</time></trkpt><trkpt lat="42.27035477997985" lon="14.152815781376674"><ele>283.0</ele><time>2026-05-01T12:56:34.999Z</time></trkpt><trkpt lat="42.270286740614594" lon="14.152853745166698"><ele>283.0</ele><time>2026-05-01T12:56:35.999Z</time></trkpt><trkpt lat="42.270221135366704" lon="14.152879511706278"><ele>283.0</ele><time>2026-05-01T12:56:36.999Z</time></trkpt><trkpt lat="42.27013536930983" lon="14.152889924354453"><ele>283.0</ele><time>2026-05-01T12:56:38.999Z</time></trkpt><trkpt lat="42.270126282876994" lon="14.152983098456085"><ele>283.0</ele><time>2026-05-01T12:56:42.999Z</time></trkpt><trkpt lat="42.27027261881489" lon="14.153005348259462"><ele>283.0</ele><time>2026-05-01T12:56:44.999Z</time></trkpt><trkpt lat="42.27040016366677" lon="14.152984747067885"><ele>283.0</ele><time>2026-05-01T12:56:45.999Z</time></trkpt><trkpt lat="42.2704889299866" lon="14.152958857245752"><ele>283.0</ele><time>2026-05-01T12:56:46.999Z</time></trkpt><trkpt lat="42.27060261438156" lon="14.152909074946479"><ele>282.2</ele><time>2026-05-01T12:56:47.999Z</time></trkpt><trkpt lat="42.27072361622417" lon="14.152844639083604"><ele>281.4</ele><time>2026-05-01T12:56:48.999Z</time></trkpt><trkpt lat="42.27083859656763" lon="14.152798254168463"><ele>280.59999999999997</ele><time>2026-05-01T12:56:49.999Z</time></trkpt><trkpt lat="42.2709109198767" lon="14.15275161394545"><ele>279.8</ele><time>2026-05-01T12:56:50.999Z</time></trkpt><trkpt lat="42.27097795325149" lon="14.152740275498559"><ele>279.0</ele><time>2026-05-01T12:56:51.999Z</time></trkpt><trkpt lat="42.27105913320184" lon="14.152692852320122"><ele>279.0</ele><time>2026-05-01T12:56:53.999Z</time></trkpt><trkpt lat="42.271141355095935" lon="14.152667582223852"><ele>279.0</ele><time>2026-05-01T12:57:04.999Z</time></trkpt><trkpt lat="42.27120521904472" lon="14.152639793782054"><ele>279.0</ele><time>2026-05-01T12:57:05.999Z</time></trkpt><trkpt lat="42.2712940208332" lon="14.152599057539387"><ele>279.0</ele><time>2026-05-01T12:57:06.999Z</time></trkpt><trkpt lat="42.271411820179374" lon="14.152545900679929"><ele>279.0</ele><time>2026-05-01T12:57:07.999Z</time></trkpt><trkpt lat="42.27148677577988" lon="14.152512213279302"><ele>279.0</ele><time>2026-05-01T12:57:08.999Z</time></trkpt><trkpt lat="42.27155927195559" lon="14.152479631227006"><ele>276.2</ele><time>2026-05-01T12:57:09.999Z</time></trkpt><trkpt lat="42.271635816223565" lon="14.15244522983716"><ele>273.4</ele><time>2026-05-01T12:57:10.999Z</time></trkpt><trkpt lat="42.27171909529276" lon="14.152407801602681"><ele>270.6</ele><time>2026-05-01T12:57:11.999Z</time></trkpt><trkpt lat="42.27181623526863" lon="14.152364143849864"><ele>267.8</ele><time>2026-05-01T12:57:13.999Z</time></trkpt><trkpt lat="42.2719777973901" lon="14.152382071671491"><ele>265.0</ele><time>2026-05-01T12:57:14.999Z</time></trkpt><trkpt lat="42.272065756826095" lon="14.15241611156277"><ele>265.0</ele><time>2026-05-01T12:57:16.999Z</time></trkpt><trkpt lat="42.27212529239744" lon="14.153070658559145"><ele>265.0</ele><time>2026-05-01T12:57:18.999Z</time></trkpt><trkpt lat="42.272163559678994" lon="14.153138748093873"><ele>265.0</ele><time>2026-05-01T12:57:19.999Z</time></trkpt><trkpt lat="42.27219575146035" lon="14.153215560585076"><ele>265.0</ele><time>2026-05-01T12:57:20.999Z</time></trkpt><trkpt lat="42.272240598492026" lon="14.153302716010138"><ele>265.0</ele><time>2026-05-01T12:57:21.999Z</time></trkpt><trkpt lat="42.27229398102529" lon="14.153388363406156"><ele>265.0</ele><time>2026-05-01T12:57:22.999Z</time></trkpt><trkpt lat="42.27236839772935" lon="14.153462977021302"><ele>265.0</ele><time>2026-05-01T12:57:23.999Z</time></trkpt><trkpt lat="42.27243244999081" lon="14.153538214886009"><ele>261.16666666666663</ele><time>2026-05-01T12:57:24.999Z</time></trkpt><trkpt lat="42.27248431252" lon="14.153622756465865"><ele>257.3333333333333</ele><time>2026-05-01T12:57:25.999Z</time></trkpt><trkpt lat="42.27253070003254" lon="14.15371669003348"><ele>253.5</ele><time>2026-05-01T12:57:26.999Z</time></trkpt><trkpt lat="42.27255635001854" lon="14.153809354393546"><ele>249.66666666666669</ele><time>2026-05-01T12:57:27.999Z</time></trkpt><trkpt lat="42.27261340706781" lon="14.153892300742177"><ele>245.83333333333334</ele><time>2026-05-01T12:57:28.999Z</time></trkpt><trkpt lat="42.27266719010604" lon="14.153952581182002"><ele>242.0</ele><time>2026-05-01T12:57:29.999Z</time></trkpt><trkpt lat="42.272731747827805" lon="14.153999497952888"><ele>239.83333333333334</ele><time>2026-05-01T12:57:30.998Z</time></trkpt><trkpt lat="42.27279673372268" lon="14.154053849720674"><ele>237.66666666666669</ele><time>2026-05-01T12:57:31.998Z</time></trkpt><trkpt lat="42.27286419928715" lon="14.15411936842992"><ele>235.5</ele><time>2026-05-01T12:57:33Z</time></trkpt><trkpt lat="42.27293269761696" lon="14.154177130315052"><ele>233.33333333333331</ele><time>2026-05-01T12:57:34Z</time></trkpt><trkpt lat="42.27301162799735" lon="14.15422551670483"><ele>231.16666666666666</ele><time>2026-05-01T12:57:35Z</time></trkpt><trkpt lat="42.27309757363558" lon="14.154266256383462"><ele>229.0</ele><time>2026-05-01T12:57:36Z</time></trkpt><trkpt lat="42.273170121556625" lon="14.154295979198235"><ele>226.0</ele><time>2026-05-01T12:57:37Z</time></trkpt><trkpt lat="42.273240789884554" lon="14.154351486586913"><ele>222.99999999999997</ele><time>2026-05-01T12:57:38Z</time></trkpt><trkpt lat="42.27334071792826" lon="14.154463064693191"><ele>219.99999999999997</ele><time>2026-05-01T12:57:40Z</time></trkpt><trkpt lat="42.27337375813457" lon="14.154566355173339"><ele>217.0</ele><time>2026-05-01T12:57:41Z</time></trkpt><trkpt lat="42.27339669064088" lon="14.154681758507728"><ele>214.0</ele><time>2026-05-01T12:57:42Z</time></trkpt><trkpt lat="42.27343075946649" lon="14.154843533727199"><ele>211.49999999999997</ele><time>2026-05-01T12:57:44Z</time></trkpt><trkpt lat="42.27345100137521" lon="14.154985032793725"><ele>209.0</ele><time>2026-05-01T12:57:46Z</time></trkpt><trkpt lat="42.27354268724373" lon="14.155105822788027"><ele>206.5</ele><time>2026-05-01T12:57:48Z</time></trkpt><trkpt lat="42.27360645946714" lon="14.15514334699643"><ele>204.0</ele><time>2026-05-01T12:57:49Z</time></trkpt><trkpt lat="42.27367528656484" lon="14.155176436838103"><ele>201.49999999999997</ele><time>2026-05-01T12:57:50Z</time></trkpt><trkpt lat="42.27373513762589" lon="14.15522666012513"><ele>199.0</ele><time>2026-05-01T12:57:51Z</time></trkpt><trkpt lat="42.273795941194074" lon="14.155274206874239"><ele>199.0</ele><time>2026-05-01T12:57:52Z</time></trkpt><trkpt lat="42.27385980834407" lon="14.155346048563999"><ele>199.0</ele><time>2026-05-01T12:57:53Z</time></trkpt><trkpt lat="42.273911449285016" lon="14.155439481156451"><ele>199.0</ele><time>2026-05-01T12:57:54Z</time></trkpt><trkpt lat="42.273953811840684" lon="14.155534883815733"><ele>199.0</ele><time>2026-05-01T12:57:55Z</time></trkpt><trkpt lat="42.27398614887987" lon="14.155609760325223"><ele>199.0</ele><time>2026-05-01T12:57:56Z</time></trkpt><trkpt lat="42.274116295937354" lon="14.155660103819452"><ele>197.83333333333331</ele><time>2026-05-01T12:57:58Z</time></trkpt><trkpt lat="42.27417782378381" lon="14.155691703396688"><ele>196.66666666666666</ele><time>2026-05-01T12:57:59Z</time></trkpt><trkpt lat="42.27422330070178" lon="14.155822777341633"><ele>195.5</ele><time>2026-05-01T12:58:01Z</time></trkpt><trkpt lat="42.27424193705397" lon="14.155905733273997"><ele>194.33333333333331</ele><time>2026-05-01T12:58:01.999Z</time></trkpt><trkpt lat="42.27426969246578" lon="14.156068523145366"><ele>193.16666666666666</ele><time>2026-05-01T12:58:03.999Z</time></trkpt><trkpt lat="42.2742942885733" lon="14.156148517678492"><ele>192.0</ele><time>2026-05-01T12:58:04.999Z</time></trkpt><trkpt lat="42.274327522140524" lon="14.156223992811245"><ele>190.8</ele><time>2026-05-01T12:58:05.999Z</time></trkpt><trkpt lat="42.27438864633417" lon="14.156344666679319"><ele>189.6</ele><time>2026-05-01T12:58:07.999Z</time></trkpt><trkpt lat="42.274420139541476" lon="14.156489713550789"><ele>188.4</ele><time>2026-05-01T12:58:09.999Z</time></trkpt><trkpt lat="42.27448845220594" lon="14.156574494654702"><ele>187.20000000000002</ele><time>2026-05-01T12:58:11.999Z</time></trkpt><trkpt lat="42.274576258616065" lon="14.156645019821616"><ele>186.0</ele><time>2026-05-01T12:58:13.999Z</time></trkpt><trkpt lat="42.274640844180034" lon="14.15670377408982"><ele>180.33333333333334</ele><time>2026-05-01T12:58:15.999Z</time></trkpt><trkpt lat="42.27471658834984" lon="14.156690345620433"><ele>174.66666666666669</ele><time>2026-05-01T12:58:17.999Z</time></trkpt><trkpt lat="42.27492894984175" lon="14.157022662425524"><ele>169.0</ele><time>2026-05-01T12:58:19.999Z</time></trkpt><trkpt lat="42.27500478403474" lon="14.156974704403947"><ele>167.83333333333334</ele><time>2026-05-01T12:58:21.999Z</time></trkpt><trkpt lat="42.27507234300621" lon="14.15693199131436"><ele>166.66666666666669</ele><time>2026-05-01T12:58:25.999Z</time></trkpt><trkpt lat="42.2751673603873" lon="14.156871965705918"><ele>165.5</ele><time>2026-05-01T12:58:28.999Z</time></trkpt><trkpt lat="42.27524150168094" lon="14.156825128205801"><ele>164.33333333333334</ele><time>2026-05-01T12:58:31.999Z</time></trkpt><trkpt lat="42.27533160073522" lon="14.15676821110623"><ele>163.16666666666666</ele><time>2026-05-01T12:58:33.999Z</time></trkpt><trkpt lat="42.275408957986855" lon="14.156719342011453"><ele>162.0</ele><time>2026-05-01T12:58:35.999Z</time></trkpt><trkpt lat="42.275485371692625" lon="14.156671068883028"><ele>162.0</ele><time>2026-05-01T12:58:38.999Z</time></trkpt><trkpt lat="42.2755445713173" lon="14.15663407417503"><ele>162.0</ele><time>2026-05-01T12:58:40.999Z</time></trkpt><trkpt lat="42.27549666782328" lon="14.156525238956577"><ele>162.0</ele><time>2026-05-01T12:58:41.999Z</time></trkpt><trkpt lat="42.275554040029206" lon="14.156665483696848"><ele>162.0</ele><time>2026-05-01T12:58:43.999Z</time></trkpt><trkpt lat="42.27560305436058" lon="14.156799242772678"><ele>162.0</ele><time>2026-05-01T12:58:45.999Z</time></trkpt><trkpt lat="42.27568957882348" lon="14.15683453793305"><ele>162.66666666666666</ele><time>2026-05-01T12:58:48.999Z</time></trkpt><trkpt lat="42.27574814464055" lon="14.156800415782051"><ele>163.33333333333334</ele><time>2026-05-01T12:58:49.999Z</time></trkpt><trkpt lat="42.275803335330274" lon="14.156739483246218"><ele>164.0</ele><time>2026-05-01T12:58:50.999Z</time></trkpt><trkpt lat="42.2758655979196" lon="14.156668361378529"><ele>164.66666666666669</ele><time>2026-05-01T12:58:51.999Z</time></trkpt><trkpt lat="42.275941347761204" lon="14.156573821736647"><ele>165.33333333333334</ele><time>2026-05-01T12:58:52.999Z</time></trkpt><trkpt lat="42.27601653827704" lon="14.156491496915978"><ele>166.0</ele><time>2026-05-01T12:58:53.999Z</time></trkpt><trkpt lat="42.27610520393758" lon="14.156458514056071"><ele>166.0</ele><time>2026-05-01T12:58:54.999Z</time></trkpt><trkpt lat="42.27621670869732" lon="14.15639628080075"><ele>166.0</ele><time>2026-05-01T12:58:55.999Z</time></trkpt><trkpt lat="42.27631133712185" lon="14.156334273612497"><ele>166.0</ele><time>2026-05-01T12:58:56.999Z</time></trkpt><trkpt lat="42.276410551080566" lon="14.156250508655937"><ele>166.0</ele><time>2026-05-01T12:58:57.999Z</time></trkpt><trkpt lat="42.27651793394893" lon="14.15616005945966"><ele>163.5</ele><time>2026-05-01T12:58:58.999Z</time></trkpt><trkpt lat="42.27661881098164" lon="14.156100308573087"><ele>161.0</ele><time>2026-05-01T12:58:59.999Z</time></trkpt><trkpt lat="42.27672577068742" lon="14.156046884978627"><ele>158.5</ele><time>2026-05-01T12:59:00.999Z</time></trkpt><trkpt lat="42.27683979374164" lon="14.155986840468556"><ele>156.0</ele><time>2026-05-01T12:59:01.999Z</time></trkpt><trkpt lat="42.276953108093174" lon="14.155930434998618"><ele>156.0</ele><time>2026-05-01T12:59:02.999Z</time></trkpt><trkpt lat="42.277072848477076" lon="14.155868714070063"><ele>156.0</ele><time>2026-05-01T12:59:03.999Z</time></trkpt><trkpt lat="42.277187754504666" lon="14.15580065664668"><ele>156.0</ele><time>2026-05-01T12:59:04.999Z</time></trkpt><trkpt lat="42.27729111103208" lon="14.15573705782517"><ele>156.0</ele><time>2026-05-01T12:59:05.999Z</time></trkpt><trkpt lat="42.2773468886977" lon="14.15564451558112"><ele>156.0</ele><time>2026-05-01T12:59:06.999Z</time></trkpt><trkpt lat="42.277411302865204" lon="14.155604079480383"><ele>156.0</ele><time>2026-05-01T12:59:07.999Z</time></trkpt><trkpt lat="42.27748392075515" lon="14.1555584879844"><ele>156.0</ele><time>2026-05-01T12:59:08.999Z</time></trkpt><trkpt lat="42.277566447056294" lon="14.15550667576838"><ele>156.0</ele><time>2026-05-01T12:59:09.999Z</time></trkpt><trkpt lat="42.277661176647996" lon="14.155447201957204"><ele>156.0</ele><time>2026-05-01T12:59:10.999Z</time></trkpt><trkpt lat="42.2777499173872" lon="14.155391488014407"><ele>156.0</ele><time>2026-05-01T12:59:11.999Z</time></trkpt><trkpt lat="42.277833704970334" lon="14.15533888403056"><ele>156.0</ele><time>2026-05-01T12:59:12.999Z</time></trkpt><trkpt lat="42.27792265165528" lon="14.155283040902813"><ele>156.0</ele><time>2026-05-01T12:59:13.999Z</time></trkpt><trkpt lat="42.27801836799075" lon="14.155222947624171"><ele>156.0</ele><time>2026-05-01T12:59:14.999Z</time></trkpt><trkpt lat="42.278114836410886" lon="14.155162504954644"><ele>156.0</ele><time>2026-05-01T12:59:15.999Z</time></trkpt><trkpt lat="42.27821066531861" lon="14.155102531657866"><ele>156.0</ele><time>2026-05-01T12:59:16.999Z</time></trkpt><trkpt lat="42.278293700911746" lon="14.155050564884673"><ele>154.8</ele><time>2026-05-01T12:59:17.999Z</time></trkpt><trkpt lat="42.27838041868057" lon="14.15499629366263"><ele>153.6</ele><time>2026-05-01T12:59:18.999Z</time></trkpt><trkpt lat="42.27847509859827" lon="14.154937039402883"><ele>152.4</ele><time>2026-05-01T12:59:19.999Z</time></trkpt><trkpt lat="42.27856699080552" lon="14.154879529828142"><ele>151.2</ele><time>2026-05-01T12:59:20.999Z</time></trkpt><trkpt lat="42.278656087854344" lon="14.154823769576545"><ele>150.0</ele><time>2026-05-01T12:59:21.999Z</time></trkpt><trkpt lat="42.27874639491643" lon="14.15476725202481"><ele>150.0</ele><time>2026-05-01T12:59:22.999Z</time></trkpt><trkpt lat="42.27883917427062" lon="14.154709187230479"><ele>150.0</ele><time>2026-05-01T12:59:23.999Z</time></trkpt><trkpt lat="42.27893365179848" lon="14.154650058658017"><ele>150.0</ele><time>2026-05-01T12:59:24.999Z</time></trkpt><trkpt lat="42.27903178265307" lon="14.154588643415531"><ele>150.0</ele><time>2026-05-01T12:59:25.999Z</time></trkpt><trkpt lat="42.27914502150653" lon="14.15451777286942"><ele>150.0</ele><time>2026-05-01T12:59:26.999Z</time></trkpt><trkpt lat="42.27926381736354" lon="14.1544433671946"><ele>147.75</ele><time>2026-05-01T12:59:27.999Z</time></trkpt><trkpt lat="42.27938702088754" lon="14.154366168426424"><ele>145.5</ele><time>2026-05-01T12:59:28.999Z</time></trkpt><trkpt lat="42.27950087767403" lon="14.154294131275883"><ele>143.25</ele><time>2026-05-01T12:59:29.999Z</time></trkpt><trkpt lat="42.27959887302597" lon="14.154232445126292"><ele>141.0</ele><time>2026-05-01T12:59:30.999Z</time></trkpt><trkpt lat="42.27969713241381" lon="14.154171029699825"><ele>141.5</ele><time>2026-05-01T12:59:31.999Z</time></trkpt><trkpt lat="42.27980609875344" lon="14.154102922072612"><ele>142.0</ele><time>2026-05-01T12:59:32.999Z</time></trkpt><trkpt lat="42.279929247367214" lon="14.154026009418859"><ele>142.5</ele><time>2026-05-01T12:59:33.999Z</time></trkpt><trkpt lat="42.280040374274215" lon="14.153958597475526"><ele>143.0</ele><time>2026-05-01T12:59:34.999Z</time></trkpt><trkpt lat="42.280160798760924" lon="14.153885555598167"><ele>143.0</ele><time>2026-05-01T12:59:35.999Z</time></trkpt><trkpt lat="42.28025918790022" lon="14.15382707614568"><ele>143.0</ele><time>2026-05-01T12:59:36.999Z</time></trkpt><trkpt lat="42.28035609251151" lon="14.153770475227235"><ele>143.0</ele><time>2026-05-01T12:59:37.999Z</time></trkpt><trkpt lat="42.280450155990465" lon="14.153716825579403"><ele>143.0</ele><time>2026-05-01T12:59:39Z</time></trkpt><trkpt lat="42.280542803382495" lon="14.153668610380029"><ele>143.0</ele><time>2026-05-01T12:59:40Z</time></trkpt><trkpt lat="42.28063253674438" lon="14.153624748289483"><ele>141.33333333333331</ele><time>2026-05-01T12:59:41Z</time></trkpt><trkpt lat="42.280724649599875" lon="14.153579644355053"><ele>139.66666666666666</ele><time>2026-05-01T12:59:42Z</time></trkpt><trkpt lat="42.28081340374569" lon="14.153538606856207"><ele>138.0</ele><time>2026-05-01T12:59:43Z</time></trkpt><trkpt lat="42.28089385789302" lon="14.153501508089692"><ele>136.33333333333334</ele><time>2026-05-01T12:59:44Z</time></trkpt><trkpt lat="42.280963132889" lon="14.153470148239347"><ele>134.66666666666669</ele><time>2026-05-01T12:59:45Z</time></trkpt><trkpt lat="42.28103939217933" lon="14.153435626684162"><ele>133.0</ele><time>2026-05-01T12:59:46Z</time></trkpt><trkpt lat="42.281117392061496" lon="14.153401579585747"><ele>133.0</ele><time>2026-05-01T12:59:47Z</time></trkpt><trkpt lat="42.28118208842888" lon="14.153375470575803"><ele>133.0</ele><time>2026-05-01T12:59:48Z</time></trkpt><trkpt lat="42.28125330314404" lon="14.153346772564532"><ele>133.0</ele><time>2026-05-01T12:59:49Z</time></trkpt><trkpt lat="42.281322881355386" lon="14.153320612171033"><ele>133.0</ele><time>2026-05-01T12:59:50Z</time></trkpt><trkpt lat="42.2813945935706" lon="14.15329428032434"><ele>133.0</ele><time>2026-05-01T12:59:51Z</time></trkpt><trkpt lat="42.281456561338686" lon="14.153272266173555"><ele>133.0</ele><time>2026-05-01T12:59:52Z</time></trkpt><trkpt lat="42.28152201669029" lon="14.153250200756084"><ele>133.0</ele><time>2026-05-01T12:59:53Z</time></trkpt><trkpt lat="42.28158777382415" lon="14.153228677113441"><ele>130.4</ele><time>2026-05-01T12:59:54Z</time></trkpt><trkpt lat="42.28168553133863" lon="14.15319820703619"><ele>127.80000000000001</ele><time>2026-05-01T12:59:55Z</time></trkpt><trkpt lat="42.28178100809891" lon="14.153155914715834"><ele>125.2</ele><time>2026-05-01T12:59:56Z</time></trkpt><trkpt lat="42.281890872626434" lon="14.153124511393743"><ele>122.6</ele><time>2026-05-01T12:59:57Z</time></trkpt><trkpt lat="42.28200391092844" lon="14.153089045887752"><ele>120.0</ele><time>2026-05-01T12:59:58Z</time></trkpt><trkpt lat="42.28210771164911" lon="14.153055910094121"><ele>120.0</ele><time>2026-05-01T12:59:59Z</time></trkpt><trkpt lat="42.28221464621584" lon="14.153028141450353"><ele>120.0</ele><time>2026-05-01T13:00:00Z</time></trkpt><trkpt lat="42.282290494350484" lon="14.153022977857278"><ele>120.0</ele><time>2026-05-01T13:00:01Z</time></trkpt><trkpt lat="42.28235818163738" lon="14.153016526562162"><ele>120.0</ele><time>2026-05-01T13:00:02Z</time></trkpt><trkpt lat="42.28243123656777" lon="14.153014061717498"><ele>120.0</ele><time>2026-05-01T13:00:05Z</time></trkpt><trkpt lat="42.28248533610169" lon="14.15295363468052"><ele>120.0</ele><time>2026-05-01T13:00:07Z</time></trkpt><trkpt lat="42.28251029850693" lon="14.152859083678308"><ele>119.8</ele><time>2026-05-01T13:00:10Z</time></trkpt><trkpt lat="42.28250348625412" lon="14.152764614648218"><ele>119.6</ele><time>2026-05-01T13:00:11Z</time></trkpt><trkpt lat="42.28246537050751" lon="14.152630628959608"><ele>119.4</ele><time>2026-05-01T13:00:12Z</time></trkpt><trkpt lat="42.28244253819409" lon="14.152508567335959"><ele>119.2</ele><time>2026-05-01T13:00:13Z</time></trkpt><trkpt lat="42.28240862503292" lon="14.152375996122474"><ele>119.0</ele><time>2026-05-01T13:00:14Z</time></trkpt><trkpt lat="42.28237407916955" lon="14.152273425962338"><ele>119.0</ele><time>2026-05-01T13:00:15Z</time></trkpt><trkpt lat="42.282332534380195" lon="14.152198068741528"><ele>119.0</ele><time>2026-05-01T13:00:16Z</time></trkpt><trkpt lat="42.28237346923376" lon="14.152093461249082"><ele>119.0</ele><time>2026-05-01T13:00:20Z</time></trkpt><trkpt lat="42.28243934413096" lon="14.152090933123876"><ele>119.0</ele><time>2026-05-01T13:00:21Z</time></trkpt><trkpt lat="42.2825484400925" lon="14.15212572002145"><ele>119.0</ele><time>2026-05-01T13:00:22Z</time></trkpt><trkpt lat="42.28266561955969" lon="14.152158018504034"><ele>118.99999999999999</ele><time>2026-05-01T13:00:23Z</time></trkpt><trkpt lat="42.28278817118701" lon="14.15217164376227"><ele>119.0</ele><time>2026-05-01T13:00:24Z</time></trkpt><trkpt lat="42.282882175055555" lon="14.152167673526975"><ele>119.0</ele><time>2026-05-01T13:00:25Z</time></trkpt><trkpt lat="42.28295180308686" lon="14.152154395627713"><ele>119.0</ele><time>2026-05-01T13:00:26Z</time></trkpt><trkpt lat="42.2830079951363" lon="14.15210372860681"><ele>118.99999999999999</ele><time>2026-05-01T13:00:27Z</time></trkpt><trkpt lat="42.283049459479855" lon="14.152020285482454"><ele>119.0</ele><time>2026-05-01T13:00:28Z</time></trkpt><trkpt lat="42.28307620810546" lon="14.151904324464095"><ele>119.0</ele><time>2026-05-01T13:00:29Z</time></trkpt><trkpt lat="42.28309165329982" lon="14.15176466217491"><ele>119.0</ele><time>2026-05-01T13:00:29.999Z</time></trkpt><trkpt lat="42.28310542524252" lon="14.151626471992618"><ele>119.0</ele><time>2026-05-01T13:00:30.999Z</time></trkpt><trkpt lat="42.28312402261114" lon="14.151499278169544"><ele>119.0</ele><time>2026-05-01T13:00:31.999Z</time></trkpt><trkpt lat="42.28314930209418" lon="14.151370965321373"><ele>119.0</ele><time>2026-05-01T13:00:32.999Z</time></trkpt><trkpt lat="42.28316977124972" lon="14.151263242334334"><ele>120.0</ele><time>2026-05-01T13:00:33.999Z</time></trkpt><trkpt lat="42.28319733322924" lon="14.151128557627999"><ele>121.0</ele><time>2026-05-01T13:00:35.999Z</time></trkpt><trkpt lat="42.283075681142485" lon="14.150972059380509"><ele>122.0</ele><time>2026-05-01T13:00:40.999Z</time></trkpt><trkpt lat="42.282990716851856" lon="14.150928467744807"><ele>123.0</ele><time>2026-05-01T13:00:41.999Z</time></trkpt><trkpt lat="42.28290763557008" lon="14.150868061970666"><ele>123.0</ele><time>2026-05-01T13:00:42.999Z</time></trkpt><trkpt lat="42.28282000752751" lon="14.150805031758267"><ele>123.0</ele><time>2026-05-01T13:00:43.999Z</time></trkpt><trkpt lat="42.28274449497622" lon="14.150719595708566"><ele>123.0</ele><time>2026-05-01T13:00:44.999Z</time></trkpt><trkpt lat="42.282649910432916" lon="14.150608981814596"><ele>123.0</ele><time>2026-05-01T13:00:45.999Z</time></trkpt><trkpt lat="42.28255209974451" lon="14.150466559646103"><ele>122.66666666666666</ele><time>2026-05-01T13:00:46.999Z</time></trkpt><trkpt lat="42.28244987220032" lon="14.150295793945562"><ele>122.33333333333333</ele><time>2026-05-01T13:00:47.999Z</time></trkpt><trkpt lat="42.28235352172692" lon="14.150106626162263"><ele>122.0</ele><time>2026-05-01T13:00:48.999Z</time></trkpt><trkpt lat="42.28225446842765" lon="14.149909061500711"><ele>122.66666666666666</ele><time>2026-05-01T13:00:49.999Z</time></trkpt><trkpt lat="42.28215246932557" lon="14.149702686364078"><ele>123.33333333333334</ele><time>2026-05-01T13:00:50.999Z</time></trkpt><trkpt lat="42.28205217900395" lon="14.149516749298263"><ele>124.0</ele><time>2026-05-01T13:00:51.999Z</time></trkpt><trkpt lat="42.28196026608655" lon="14.149349333252866"><ele>124.0</ele><time>2026-05-01T13:00:52.999Z</time></trkpt><trkpt lat="42.281881602652774" lon="14.149196900505329"><ele>124.0</ele><time>2026-05-01T13:00:53.999Z</time></trkpt><trkpt lat="42.28181050081697" lon="14.149053580208424"><ele>124.0</ele><time>2026-05-01T13:00:54.999Z</time></trkpt><trkpt lat="42.28174562187536" lon="14.148923634452094"><ele>124.0</ele><time>2026-05-01T13:00:55.999Z</time></trkpt><trkpt lat="42.281684979745364" lon="14.148799319533804"><ele>124.0</ele><time>2026-05-01T13:00:56.999Z</time></trkpt><trkpt lat="42.2816248888546" lon="14.148679163796928"><ele>124.0</ele><time>2026-05-01T13:00:57.999Z</time></trkpt><trkpt lat="42.28156395470468" lon="14.148558359162996"><ele>124.0</ele><time>2026-05-01T13:00:58.999Z</time></trkpt><trkpt lat="42.28150597125165" lon="14.148435761054044"><ele>124.0</ele><time>2026-05-01T13:00:59.999Z</time></trkpt><trkpt lat="42.28145396393708" lon="14.148320624843265"><ele>124.0</ele><time>2026-05-01T13:01:00.999Z</time></trkpt><trkpt lat="42.28140718749023" lon="14.148214845589992"><ele>123.66666666666667</ele><time>2026-05-01T13:01:01.999Z</time></trkpt><trkpt lat="42.28136486007603" lon="14.148117155751427"><ele>123.33333333333334</ele><time>2026-05-01T13:01:02.999Z</time></trkpt><trkpt lat="42.28132480981429" lon="14.148022328043899"><ele>123.0</ele><time>2026-05-01T13:01:03.999Z</time></trkpt><trkpt lat="42.28129004014738" lon="14.147946673211349"><ele>122.66666666666666</ele><time>2026-05-01T13:01:04.999Z</time></trkpt><trkpt lat="42.28123929012565" lon="14.147835072865117"><ele>122.33333333333333</ele><time>2026-05-01T13:01:06.999Z</time></trkpt><trkpt lat="42.2812134658221" lon="14.147726712214627"><ele>122.0</ele><time>2026-05-01T13:01:08.999Z</time></trkpt><trkpt lat="42.28119123986327" lon="14.14764345089693"><ele>122.0</ele><time>2026-05-01T13:01:12.999Z</time></trkpt><trkpt lat="42.28131693918394" lon="14.14755100014507"><ele>121.99999999999999</ele><time>2026-05-01T13:01:15.999Z</time></trkpt><trkpt lat="42.281366899674936" lon="14.147488779201316"><ele>121.99999999999999</ele><time>2026-05-01T13:01:16.999Z</time></trkpt><trkpt lat="42.28142809915329" lon="14.147429488107228"><ele>122.0</ele><time>2026-05-01T13:01:17.999Z</time></trkpt><trkpt lat="42.28151041176245" lon="14.147314892436263"><ele>122.0</ele><time>2026-05-01T13:01:19.999Z</time></trkpt><trkpt lat="42.281567013206946" lon="14.14713144561149"><ele>123.28571428571428</ele><time>2026-05-01T13:01:21.999Z</time></trkpt><trkpt lat="42.281600880835576" lon="14.14703269599418"><ele>124.57142857142857</ele><time>2026-05-01T13:01:22.999Z</time></trkpt><trkpt lat="42.281614675569976" lon="14.1469393241264"><ele>125.85714285714286</ele><time>2026-05-01T13:01:23.999Z</time></trkpt><trkpt lat="42.28160312869338" lon="14.146844973066782"><ele>127.14285714285714</ele><time>2026-05-01T13:01:24.999Z</time></trkpt><trkpt lat="42.28157634369884" lon="14.146749607674247"><ele>128.42857142857144</ele><time>2026-05-01T13:01:25.999Z</time></trkpt><trkpt lat="42.28156664166473" lon="14.146662199413498"><ele>129.71428571428572</ele><time>2026-05-01T13:01:26.999Z</time></trkpt><trkpt lat="42.28156561107745" lon="14.14656912796148"><ele>131.0</ele><time>2026-05-01T13:01:27.999Z</time></trkpt><trkpt lat="42.28154795749061" lon="14.146452768730994"><ele>131.16666666666666</ele><time>2026-05-01T13:01:28.999Z</time></trkpt><trkpt lat="42.281519104004865" lon="14.14633085425366"><ele>131.33333333333331</ele><time>2026-05-01T13:01:29.999Z</time></trkpt><trkpt lat="42.28148141055776" lon="14.146206352873184"><ele>131.5</ele><time>2026-05-01T13:01:30.999Z</time></trkpt><trkpt lat="42.281454401457" lon="14.146111407259166"><ele>131.66666666666666</ele><time>2026-05-01T13:01:31.999Z</time></trkpt><trkpt lat="42.28143793069354" lon="14.146009698443146"><ele>131.83333333333334</ele><time>2026-05-01T13:01:32.999Z</time></trkpt><trkpt lat="42.28141491052457" lon="14.145926757658644"><ele>132.0</ele><time>2026-05-01T13:01:33.999Z</time></trkpt><trkpt lat="42.28136726377202" lon="14.145766046225337"><ele>133.66666666666666</ele><time>2026-05-01T13:01:35.999Z</time></trkpt><trkpt lat="42.2813340577186" lon="14.145657996099843"><ele>135.33333333333334</ele><time>2026-05-01T13:01:36.999Z</time></trkpt><trkpt lat="42.28128436376354" lon="14.145551689672143"><ele>137.0</ele><time>2026-05-01T13:01:37.999Z</time></trkpt><trkpt lat="42.281232495400936" lon="14.145470030291246"><ele>138.66666666666669</ele><time>2026-05-01T13:01:38.999Z</time></trkpt><trkpt lat="42.28118763178672" lon="14.145370674363015"><ele>140.33333333333334</ele><time>2026-05-01T13:01:39.999Z</time></trkpt><trkpt lat="42.28117760900011" lon="14.1452757246468"><ele>142.0</ele><time>2026-05-01T13:01:40.999Z</time></trkpt><trkpt lat="42.28118535317817" lon="14.145178971152044"><ele>142.0</ele><time>2026-05-01T13:01:41.999Z</time></trkpt><trkpt lat="42.28120221428669" lon="14.145061283261397"><ele>142.0</ele><time>2026-05-01T13:01:42.999Z</time></trkpt><trkpt lat="42.28121034360855" lon="14.144918493645177"><ele>142.0</ele><time>2026-05-01T13:01:43.999Z</time></trkpt><trkpt lat="42.281225286450464" lon="14.144802003085116"><ele>142.0</ele><time>2026-05-01T13:01:45Z</time></trkpt><trkpt lat="42.28123667311092" lon="14.14468186625059"><ele>142.0</ele><time>2026-05-01T13:01:46Z</time></trkpt><trkpt lat="42.28124333497067" lon="14.14459124901169"><ele>142.0</ele><time>2026-05-01T13:01:47Z</time></trkpt><trkpt lat="42.28125254828048" lon="14.144476483687363"><ele>143.33333333333334</ele><time>2026-05-01T13:01:48Z</time></trkpt><trkpt lat="42.28126188939683" lon="14.14437797638778"><ele>144.66666666666669</ele><time>2026-05-01T13:01:49Z</time></trkpt><trkpt lat="42.28127048588919" lon="14.144276830557178"><ele>146.0</ele><time>2026-05-01T13:01:50Z</time></trkpt><trkpt lat="42.281285954228586" lon="14.144180262959722"><ele>147.33333333333334</ele><time>2026-05-01T13:01:51Z</time></trkpt><trkpt lat="42.28129460062515" lon="14.144076189364187"><ele>148.66666666666666</ele><time>2026-05-01T13:01:52Z</time></trkpt><trkpt lat="42.28130431122907" lon="14.1439723969214"><ele>150.0</ele><time>2026-05-01T13:01:53Z</time></trkpt><trkpt lat="42.28131811490838" lon="14.143869481712791"><ele>152.2</ele><time>2026-05-01T13:01:54Z</time></trkpt><trkpt lat="42.28133079453229" lon="14.14377440476408"><ele>154.4</ele><time>2026-05-01T13:01:55Z</time></trkpt><trkpt lat="42.281348548795016" lon="14.143616401382587"><ele>156.60000000000002</ele><time>2026-05-01T13:01:57Z</time></trkpt><trkpt lat="42.28134469314428" lon="14.14348655414228"><ele>158.8</ele><time>2026-05-01T13:01:59Z</time></trkpt><trkpt lat="42.28131646700871" lon="14.14336777076874"><ele>161.0</ele><time>2026-05-01T13:02:00.999Z</time></trkpt><trkpt lat="42.28127831064728" lon="14.14321947032665"><ele>164.20000000000002</ele><time>2026-05-01T13:02:02.999Z</time></trkpt><trkpt lat="42.28126275203722" lon="14.143131187573198"><ele>167.4</ele><time>2026-05-01T13:02:03.999Z</time></trkpt><trkpt lat="42.28123277670662" lon="14.143051651825866"><ele>170.6</ele><time>2026-05-01T13:02:04.999Z</time></trkpt><trkpt lat="42.28123514103752" lon="14.142915693087295"><ele>173.8</ele><time>2026-05-01T13:02:06.999Z</time></trkpt><trkpt lat="42.281291405035006" lon="14.142807858808258"><ele>177.0</ele><time>2026-05-01T13:02:07.999Z</time></trkpt><trkpt lat="42.28141729587576" lon="14.142705130188915"><ele>175.83333333333334</ele><time>2026-05-01T13:02:09.999Z</time></trkpt><trkpt lat="42.281485880326954" lon="14.142608410420738"><ele>174.66666666666666</ele><time>2026-05-01T13:02:10.999Z</time></trkpt><trkpt lat="42.281534075293735" lon="14.142529965533019"><ele>173.5</ele><time>2026-05-01T13:02:11.999Z</time></trkpt><trkpt lat="42.281580622086935" lon="14.142430509363413"><ele>172.33333333333331</ele><time>2026-05-01T13:02:13.999Z</time></trkpt><trkpt lat="42.28150918471584" lon="14.142391658441186"><ele>171.16666666666666</ele><time>2026-05-01T13:02:16.998Z</time></trkpt><trkpt lat="42.28141354683055" lon="14.14236749674393"><ele>170.0</ele><time>2026-05-01T13:02:18.998Z</time></trkpt><trkpt lat="42.28134087672985" lon="14.142343012420772"><ele>173.66666666666666</ele><time>2026-05-01T13:02:19.998Z</time></trkpt><trkpt lat="42.28125944514987" lon="14.142328220877076"><ele>177.33333333333331</ele><time>2026-05-01T13:02:20.998Z</time></trkpt><trkpt lat="42.28118291919599" lon="14.142307286148165"><ele>181.0</ele><time>2026-05-01T13:02:21.998Z</time></trkpt><trkpt lat="42.281081567897175" lon="14.14226560726741"><ele>184.66666666666666</ele><time>2026-05-01T13:02:22.998Z</time></trkpt><trkpt lat="42.28099603707589" lon="14.142211688654449"><ele>188.33333333333334</ele><time>2026-05-01T13:02:23.998Z</time></trkpt><trkpt lat="42.280934169047356" lon="14.142149959379907"><ele>192.0</ele><time>2026-05-01T13:02:24.998Z</time></trkpt><trkpt lat="42.28089738604572" lon="14.142069546597458"><ele>192.0</ele><time>2026-05-01T13:02:25.998Z</time></trkpt><trkpt lat="42.280890392801666" lon="14.141920593130436"><ele>192.0</ele><time>2026-05-01T13:02:27.998Z</time></trkpt><trkpt lat="42.280871052275884" lon="14.14173683856758"><ele>192.0</ele><time>2026-05-01T13:02:29.998Z</time></trkpt><trkpt lat="42.280851815765416" lon="14.141650351046362"><ele>192.0</ele><time>2026-05-01T13:02:30.998Z</time></trkpt><trkpt lat="42.28083634250472" lon="14.14155642626934"><ele>192.0</ele><time>2026-05-01T13:02:31.998Z</time></trkpt><trkpt lat="42.280821623392264" lon="14.141440796935132"><ele>192.0</ele><time>2026-05-01T13:02:32.998Z</time></trkpt><trkpt lat="42.28080439040009" lon="14.141319506433748"><ele>192.0</ele><time>2026-05-01T13:02:33.998Z</time></trkpt><trkpt lat="42.28078125985099" lon="14.141195564906084"><ele>192.0</ele><time>2026-05-01T13:02:34.998Z</time></trkpt><trkpt lat="42.28075685594069" lon="14.141084782720656"><ele>192.0</ele><time>2026-05-01T13:02:35.998Z</time></trkpt><trkpt lat="42.2807453471594" lon="14.14098358377248"><ele>192.0</ele><time>2026-05-01T13:02:36.998Z</time></trkpt><trkpt lat="42.28082136760877" lon="14.140927216847466"><ele>192.0</ele><time>2026-05-01T13:02:38.998Z</time></trkpt><trkpt lat="42.28092551950022" lon="14.140918367883076"><ele>192.0</ele><time>2026-05-01T13:02:40.998Z</time></trkpt><trkpt lat="42.281008597950645" lon="14.140876509746175"><ele>192.0</ele><time>2026-05-01T13:02:41.998Z</time></trkpt><trkpt lat="42.28112153410214" lon="14.140802349617587"><ele>192.0</ele><time>2026-05-01T13:02:42.998Z</time></trkpt><trkpt lat="42.28122474924166" lon="14.140730899870347"><ele>192.0</ele><time>2026-05-01T13:02:43.998Z</time></trkpt><trkpt lat="42.28135825860138" lon="14.14067577732842"><ele>195.39999999999998</ele><time>2026-05-01T13:02:44.998Z</time></trkpt><trkpt lat="42.28148211063761" lon="14.140619498341337"><ele>198.79999999999998</ele><time>2026-05-01T13:02:45.998Z</time></trkpt><trkpt lat="42.28158451628866" lon="14.140566465896443"><ele>202.2</ele><time>2026-05-01T13:02:46.998Z</time></trkpt><trkpt lat="42.28165736471519" lon="14.140508074568572"><ele>205.6</ele><time>2026-05-01T13:02:47.998Z</time></trkpt><trkpt lat="42.28172184601329" lon="14.14043134173908"><ele>209.0</ele><time>2026-05-01T13:02:48.998Z</time></trkpt><trkpt lat="42.28179046747369" lon="14.140336814760257"><ele>209.00000000000003</ele><time>2026-05-01T13:02:49.998Z</time></trkpt><trkpt lat="42.281862515912046" lon="14.140235575346004"><ele>209.0</ele><time>2026-05-01T13:02:50.998Z</time></trkpt><trkpt lat="42.28191291662938" lon="14.140159197250439"><ele>209.0</ele><time>2026-05-01T13:02:51.998Z</time></trkpt><trkpt lat="42.28195132317675" lon="14.140087675936993"><ele>209.0</ele><time>2026-05-01T13:02:52.998Z</time></trkpt><trkpt lat="42.28199889093263" lon="14.140002382896526"><ele>209.00000000000003</ele><time>2026-05-01T13:02:53.998Z</time></trkpt><trkpt lat="42.28205260440133" lon="14.139931359217414"><ele>209.0</ele><time>2026-05-01T13:02:54.998Z</time></trkpt><trkpt lat="42.282147308061056" lon="14.139840056774544"><ele>209.79999999999998</ele><time>2026-05-01T13:02:55.998Z</time></trkpt><trkpt lat="42.282241033375186" lon="14.139717267740863"><ele>210.6</ele><time>2026-05-01T13:02:56.998Z</time></trkpt><trkpt lat="42.282335045547605" lon="14.139631007678847"><ele>211.4</ele><time>2026-05-01T13:02:57.998Z</time></trkpt><trkpt lat="42.28240212739118" lon="14.1395618334289"><ele>212.2</ele><time>2026-05-01T13:02:58.998Z</time></trkpt><trkpt lat="42.28247660608551" lon="14.139475082001265"><ele>213.0</ele><time>2026-05-01T13:02:59.998Z</time></trkpt><trkpt lat="42.28255002518461" lon="14.139384589064594"><ele>213.0</ele><time>2026-05-01T13:03:00.998Z</time></trkpt><trkpt lat="42.28261557069722" lon="14.139288443967802"><ele>213.0</ele><time>2026-05-01T13:03:01.998Z</time></trkpt><trkpt lat="42.28268421699282" lon="14.13918562683424"><ele>213.0</ele><time>2026-05-01T13:03:02.998Z</time></trkpt><trkpt lat="42.282753759478936" lon="14.139086013896021"><ele>213.0</ele><time>2026-05-01T13:03:03.998Z</time></trkpt><trkpt lat="42.282813293875165" lon="14.138985266812385"><ele>213.0</ele><time>2026-05-01T13:03:04.998Z</time></trkpt><trkpt lat="42.28287838059262" lon="14.138892857938826"><ele>213.66666666666666</ele><time>2026-05-01T13:03:05.998Z</time></trkpt><trkpt lat="42.2829375637469" lon="14.138792720415749"><ele>214.33333333333331</ele><time>2026-05-01T13:03:06.998Z</time></trkpt><trkpt lat="42.283007198804555" lon="14.138692270152728"><ele>215.0</ele><time>2026-05-01T13:03:07.998Z</time></trkpt><trkpt lat="42.283067778113576" lon="14.138612569025941"><ele>215.66666666666666</ele><time>2026-05-01T13:03:08.998Z</time></trkpt><trkpt lat="42.28311771618541" lon="14.138553395398056"><ele>216.33333333333331</ele><time>2026-05-01T13:03:09.998Z</time></trkpt><trkpt lat="42.28316731435108" lon="14.138490479690343"><ele>217.0</ele><time>2026-05-01T13:03:10.998Z</time></trkpt><trkpt lat="42.28322315860147" lon="14.1384319401985"><ele>217.0</ele><time>2026-05-01T13:03:11.998Z</time></trkpt><trkpt lat="42.28327885006169" lon="14.138386480399921"><ele>217.0</ele><time>2026-05-01T13:03:12.998Z</time></trkpt><trkpt lat="42.28333606237905" lon="14.13834958667586"><ele>217.0</ele><time>2026-05-01T13:03:13.998Z</time></trkpt><trkpt lat="42.28324343475802" lon="14.138233078179125"><ele>217.0</ele><time>2026-05-01T13:03:17.997Z</time></trkpt><trkpt lat="42.283157271479595" lon="14.138182681970772"><ele>217.0</ele><time>2026-05-01T13:03:18.997Z</time></trkpt><trkpt lat="42.283063204164584" lon="14.138132846849125"><ele>213.8</ele><time>2026-05-01T13:03:19.997Z</time></trkpt><trkpt lat="42.28296497588021" lon="14.138132039972222"><ele>210.6</ele><time>2026-05-01T13:03:20.997Z</time></trkpt><trkpt lat="42.28288538431381" lon="14.138110836088206"><ele>207.4</ele><time>2026-05-01T13:03:21.997Z</time></trkpt><trkpt lat="42.282821259556236" lon="14.138087031137816"><ele>204.20000000000002</ele><time>2026-05-01T13:03:22.997Z</time></trkpt><trkpt lat="42.282736527093206" lon="14.138077683419782"><ele>201.0</ele><time>2026-05-01T13:03:24.997Z</time></trkpt><trkpt lat="42.28277950899573" lon="14.137922745105813"><ele>201.0</ele><time>2026-05-01T13:03:29.997Z</time></trkpt><trkpt lat="42.28284884521278" lon="14.137872856955696"><ele>201.0</ele><time>2026-05-01T13:03:30.997Z</time></trkpt><trkpt lat="42.28289645000585" lon="14.137803601663874"><ele>201.0</ele><time>2026-05-01T13:03:31.997Z</time></trkpt><trkpt lat="42.28293493071857" lon="14.137732214110498"><ele>201.0</ele><time>2026-05-01T13:03:32.997Z</time></trkpt><trkpt lat="42.28295383158648" lon="14.137646409170214"><ele>201.0</ele><time>2026-05-01T13:03:33.997Z</time></trkpt><trkpt lat="42.282943012914835" lon="14.137538131931967"><ele>201.0</ele><time>2026-05-01T13:03:34.997Z</time></trkpt><trkpt lat="42.28291439808585" lon="14.13742933482292"><ele>201.0</ele><time>2026-05-01T13:03:35.997Z</time></trkpt><trkpt lat="42.28287462474383" lon="14.137341762444768"><ele>202.0</ele><time>2026-05-01T13:03:36.997Z</time></trkpt><trkpt lat="42.28283131650652" lon="14.137269167968235"><ele>203.0</ele><time>2026-05-01T13:03:37.997Z</time></trkpt><trkpt lat="42.282799771202605" lon="14.13719028806284"><ele>204.0</ele><time>2026-05-01T13:03:38.997Z</time></trkpt><trkpt lat="42.28278112260119" lon="14.137078294479602"><ele>205.0</ele><time>2026-05-01T13:03:39.997Z</time></trkpt><trkpt lat="42.282775508323425" lon="14.136960251951638"><ele>206.0</ele><time>2026-05-01T13:03:40.997Z</time></trkpt><trkpt lat="42.282769916584094" lon="14.136842704121175"><ele>207.0</ele><time>2026-05-01T13:03:41.997Z</time></trkpt><trkpt lat="42.28276680016294" lon="14.136721620594935"><ele>207.0</ele><time>2026-05-01T13:03:42.997Z</time></trkpt><trkpt lat="42.282762681530265" lon="14.13661331618765"><ele>207.0</ele><time>2026-05-01T13:03:43.997Z</time></trkpt><trkpt lat="42.28273286701158" lon="14.136491284449328"><ele>207.0</ele><time>2026-05-01T13:03:44.997Z</time></trkpt><trkpt lat="42.28269485269851" lon="14.136369007689385"><ele>207.0</ele><time>2026-05-01T13:03:45.997Z</time></trkpt><trkpt lat="42.2826560999795" lon="14.136238417705577"><ele>207.0</ele><time>2026-05-01T13:03:46.997Z</time></trkpt><trkpt lat="42.28261344179426" lon="14.136131098855559"><ele>208.39999999999998</ele><time>2026-05-01T13:03:47.997Z</time></trkpt><trkpt lat="42.28254506901627" lon="14.136034478833853"><ele>209.79999999999998</ele><time>2026-05-01T13:03:48.997Z</time></trkpt><trkpt lat="42.28246876043037" lon="14.13594989521041"><ele>211.2</ele><time>2026-05-01T13:03:49.997Z</time></trkpt><trkpt lat="42.28239941683777" lon="14.135847353674931"><ele>212.6</ele><time>2026-05-01T13:03:50.998Z</time></trkpt><trkpt lat="42.28235100075084" lon="14.135750611228598"><ele>214.0</ele><time>2026-05-01T13:03:51.998Z</time></trkpt><trkpt lat="42.282311738738386" lon="14.135634185727707"><ele>212.66666666666666</ele><time>2026-05-01T13:03:52.998Z</time></trkpt><trkpt lat="42.28227836741831" lon="14.135534044986677"><ele>211.33333333333331</ele><time>2026-05-01T13:03:53.998Z</time></trkpt><trkpt lat="42.282262928366535" lon="14.135443238361121"><ele>210.0</ele><time>2026-05-01T13:03:54.999Z</time></trkpt><trkpt lat="42.282264587435954" lon="14.135313208815962"><ele>208.66666666666669</ele><time>2026-05-01T13:03:55.999Z</time></trkpt><trkpt lat="42.28226105800406" lon="14.135189070918953"><ele>207.33333333333334</ele><time>2026-05-01T13:03:56.999Z</time></trkpt><trkpt lat="42.282239794732384" lon="14.135062151796532"><ele>206.0</ele><time>2026-05-01T13:03:57.999Z</time></trkpt><trkpt lat="42.28221952992571" lon="14.134935264742863"><ele>207.50000000000003</ele><time>2026-05-01T13:03:58.999Z</time></trkpt><trkpt lat="42.28220523536466" lon="14.134811497564694"><ele>209.0</ele><time>2026-05-01T13:03:59.999Z</time></trkpt><trkpt lat="42.28218271536338" lon="14.134693853842316"><ele>210.5</ele><time>2026-05-01T13:04:00.999Z</time></trkpt><trkpt lat="42.28217139283805" lon="14.134571828446147"><ele>212.0</ele><time>2026-05-01T13:04:01.999Z</time></trkpt><trkpt lat="42.28215212871692" lon="14.134453327880147"><ele>213.50000000000003</ele><time>2026-05-01T13:04:02.999Z</time></trkpt><trkpt lat="42.28213578469987" lon="14.134341572045628"><ele>215.0</ele><time>2026-05-01T13:04:03.999Z</time></trkpt><trkpt lat="42.28210898443847" lon="14.134226865397114"><ele>215.0</ele><time>2026-05-01T13:04:04.999Z</time></trkpt><trkpt lat="42.28207452012618" lon="14.134097907340768"><ele>215.0</ele><time>2026-05-01T13:04:05.999Z</time></trkpt><trkpt lat="42.28205265321708" lon="14.133957690050496"><ele>215.0</ele><time>2026-05-01T13:04:06.999Z</time></trkpt><trkpt lat="42.28204376425101" lon="14.133827814965498"><ele>215.0</ele><time>2026-05-01T13:04:07.999Z</time></trkpt><trkpt lat="42.28202206770313" lon="14.133679208046495"><ele>215.0</ele><time>2026-05-01T13:04:09Z</time></trkpt><trkpt lat="42.28200026028106" lon="14.133531211259315"><ele>215.83333333333334</ele><time>2026-05-01T13:04:10Z</time></trkpt><trkpt lat="42.28199370336798" lon="14.133409832999083"><ele>216.66666666666669</ele><time>2026-05-01T13:04:11Z</time></trkpt><trkpt lat="42.28198628320116" lon="14.133319606437901"><ele>217.5</ele><time>2026-05-01T13:04:12Z</time></trkpt><trkpt lat="42.281917914838914" lon="14.133191531686526"><ele>218.33333333333331</ele><time>2026-05-01T13:04:14Z</time></trkpt><trkpt lat="42.281838024124895" lon="14.133174333183137"><ele>219.16666666666666</ele><time>2026-05-01T13:04:15Z</time></trkpt><trkpt lat="42.281747507822" lon="14.133142533670867"><ele>220.0</ele><time>2026-05-01T13:04:16Z</time></trkpt><trkpt lat="42.28168232150305" lon="14.133074704009026"><ele>220.8</ele><time>2026-05-01T13:04:17Z</time></trkpt><trkpt lat="42.281621566509045" lon="14.133001528504007"><ele>221.6</ele><time>2026-05-01T13:04:18Z</time></trkpt><trkpt lat="42.28154653950464" lon="14.13296445393393"><ele>222.39999999999998</ele><time>2026-05-01T13:04:19Z</time></trkpt><trkpt lat="42.28145765244045" lon="14.132989782772562"><ele>223.2</ele><time>2026-05-01T13:04:20Z</time></trkpt><trkpt lat="42.28135291319652" lon="14.133066495978213"><ele>224.0</ele><time>2026-05-01T13:04:21Z</time></trkpt><trkpt lat="42.28123111039813" lon="14.133138406942606"><ele>224.00000000000003</ele><time>2026-05-01T13:04:22Z</time></trkpt><trkpt lat="42.28110670951207" lon="14.133173090564572"><ele>224.0</ele><time>2026-05-01T13:04:23Z</time></trkpt><trkpt lat="42.28101434716872" lon="14.133187977908037"><ele>224.0</ele><time>2026-05-01T13:04:24Z</time></trkpt><trkpt lat="42.280939691817345" lon="14.133188764142426"><ele>224.0</ele><time>2026-05-01T13:04:25Z</time></trkpt><trkpt lat="42.28086652333931" lon="14.13316764774802"><ele>224.00000000000003</ele><time>2026-05-01T13:04:26Z</time></trkpt><trkpt lat="42.28082587173077" lon="14.133098459350327"><ele>224.0</ele><time>2026-05-01T13:04:27Z</time></trkpt><trkpt lat="42.28076760161362" lon="14.133013568238177"><ele>224.0</ele><time>2026-05-01T13:04:28Z</time></trkpt><trkpt lat="42.2806836690271" lon="14.132905337500285"><ele>223.99999999999997</ele><time>2026-05-01T13:04:29Z</time></trkpt><trkpt lat="42.28058978987701" lon="14.132799902750852"><ele>223.99999999999997</ele><time>2026-05-01T13:04:30Z</time></trkpt><trkpt lat="42.280494883568466" lon="14.132748965767629"><ele>224.0</ele><time>2026-05-01T13:04:31Z</time></trkpt><trkpt lat="42.280392883583644" lon="14.132705539009033"><ele>224.0</ele><time>2026-05-01T13:04:32Z</time></trkpt><trkpt lat="42.280303622584874" lon="14.132590902821976"><ele>225.0</ele><time>2026-05-01T13:04:33Z</time></trkpt><trkpt lat="42.28019699173964" lon="14.13253669686054"><ele>225.99999999999997</ele><time>2026-05-01T13:04:34Z</time></trkpt><trkpt lat="42.28009926907832" lon="14.132477009820464"><ele>226.99999999999997</ele><time>2026-05-01T13:04:35Z</time></trkpt><trkpt lat="42.28000978595443" lon="14.132420318255473"><ele>228.0</ele><time>2026-05-01T13:04:36Z</time></trkpt><trkpt lat="42.279929388573514" lon="14.132367957977008"><ele>229.0</ele><time>2026-05-01T13:04:37Z</time></trkpt><trkpt lat="42.27986819123109" lon="14.132319380467635"><ele>229.0</ele><time>2026-05-01T13:04:38Z</time></trkpt><trkpt lat="42.27986054522228" lon="14.132221828826967"><ele>228.99999999999997</ele><time>2026-05-01T13:04:40Z</time></trkpt><trkpt lat="42.27986609096173" lon="14.132120890244359"><ele>228.99999999999997</ele><time>2026-05-01T13:04:41Z</time></trkpt><trkpt lat="42.27981143791306" lon="14.131920790193249"><ele>229.0</ele><time>2026-05-01T13:04:42Z</time></trkpt><trkpt lat="42.27975689238969" lon="14.131746727693969"><ele>229.0</ele><time>2026-05-01T13:04:43Z</time></trkpt><trkpt lat="42.27972458764569" lon="14.131610314303648"><ele>231.0</ele><time>2026-05-01T13:04:44Z</time></trkpt><trkpt lat="42.27970688708499" lon="14.131493594867084"><ele>233.0</ele><time>2026-05-01T13:04:45Z</time></trkpt><trkpt lat="42.279891734533244" lon="14.131478562188462"><ele>235.0</ele><time>2026-05-01T13:04:50Z</time></trkpt><trkpt lat="42.280024252978556" lon="14.131513318996204"><ele>237.0</ele><time>2026-05-01T13:04:51Z</time></trkpt><trkpt lat="42.28015491380806" lon="14.13153518612924"><ele>238.25</ele><time>2026-05-01T13:04:52Z</time></trkpt><trkpt lat="42.280284004126784" lon="14.131526641650792"><ele>239.5</ele><time>2026-05-01T13:04:53Z</time></trkpt><trkpt lat="42.28040936280955" lon="14.131495556196485"><ele>240.75</ele><time>2026-05-01T13:04:54Z</time></trkpt><trkpt lat="42.28053149091295" lon="14.131464238413662"><ele>242.0</ele><time>2026-05-01T13:04:55Z</time></trkpt><trkpt lat="42.28064943782285" lon="14.131437630250629"><ele>242.0</ele><time>2026-05-01T13:04:56Z</time></trkpt><trkpt lat="42.280744024464944" lon="14.131390354960816"><ele>242.0</ele><time>2026-05-01T13:04:57Z</time></trkpt><trkpt lat="42.28083029826487" lon="14.131281628067144"><ele>242.0</ele><time>2026-05-01T13:04:58Z</time></trkpt><trkpt lat="42.28088384429743" lon="14.131122587931126"><ele>242.0</ele><time>2026-05-01T13:04:59Z</time></trkpt><trkpt lat="42.28091767892998" lon="14.130939841202421"><ele>242.0</ele><time>2026-05-01T13:05:00Z</time></trkpt><trkpt lat="42.28095980104404" lon="14.1307663248193"><ele>242.0</ele><time>2026-05-01T13:05:01Z</time></trkpt><trkpt lat="42.281003928563415" lon="14.130617195041454"><ele>242.0</ele><time>2026-05-01T13:05:02Z</time></trkpt><trkpt lat="42.28102351538719" lon="14.130467280256752"><ele>242.0</ele><time>2026-05-01T13:05:03Z</time></trkpt><trkpt lat="42.28104678781074" lon="14.130333770153616"><ele>243.2</ele><time>2026-05-01T13:05:04Z</time></trkpt><trkpt lat="42.281060459529336" lon="14.130196284180597"><ele>244.39999999999998</ele><time>2026-05-01T13:05:05Z</time></trkpt><trkpt lat="42.28105673319722" lon="14.130062562253666"><ele>245.60000000000002</ele><time>2026-05-01T13:05:06Z</time></trkpt><trkpt lat="42.28099702079213" lon="14.12994721866652"><ele>246.8</ele><time>2026-05-01T13:05:07Z</time></trkpt><trkpt lat="42.2809233510816" lon="14.129857866815437"><ele>248.0</ele><time>2026-05-01T13:05:08Z</time></trkpt><trkpt lat="42.28082845649413" lon="14.129852910932582"><ele>248.0</ele><time>2026-05-01T13:05:09Z</time></trkpt><trkpt lat="42.280728102474434" lon="14.129885687182854"><ele>248.0</ele><time>2026-05-01T13:05:10Z</time></trkpt><trkpt lat="42.28064177438971" lon="14.12999016428588"><ele>248.0</ele><time>2026-05-01T13:05:11Z</time></trkpt><trkpt lat="42.280561827008164" lon="14.130131134558933"><ele>248.0</ele><time>2026-05-01T13:05:12Z</time></trkpt><trkpt lat="42.28045900705702" lon="14.130267182975809"><ele>249.5</ele><time>2026-05-01T13:05:12.999Z</time></trkpt><trkpt lat="42.28034618976778" lon="14.130371634157605"><ele>251.0</ele><time>2026-05-01T13:05:13.999Z</time></trkpt><trkpt lat="42.280260173576345" lon="14.13047291943212"><ele>252.5</ele><time>2026-05-01T13:05:14.999Z</time></trkpt><trkpt lat="42.280164517082675" lon="14.130514569655764"><ele>254.0</ele><time>2026-05-01T13:05:15.999Z</time></trkpt><trkpt lat="42.280067626562584" lon="14.130481664928146"><ele>254.0</ele><time>2026-05-01T13:05:16.999Z</time></trkpt><trkpt lat="42.27996578653355" lon="14.13042716453387"><ele>254.0</ele><time>2026-05-01T13:05:17.999Z</time></trkpt><trkpt lat="42.27985437843212" lon="14.130364703402186"><ele>254.0</ele><time>2026-05-01T13:05:18.999Z</time></trkpt><trkpt lat="42.27972153751884" lon="14.130293682448634"><ele>254.0</ele><time>2026-05-01T13:05:19.999Z</time></trkpt><trkpt lat="42.27957297711514" lon="14.130219031105012"><ele>253.5</ele><time>2026-05-01T13:05:20.999Z</time></trkpt><trkpt lat="42.27945339280612" lon="14.130121879680381"><ele>253.0</ele><time>2026-05-01T13:05:21.999Z</time></trkpt><trkpt lat="42.27935055935552" lon="14.130040955269173"><ele>252.5</ele><time>2026-05-01T13:05:22.999Z</time></trkpt><trkpt lat="42.27929264662778" lon="14.129925654240667"><ele>252.0</ele><time>2026-05-01T13:05:23.999Z</time></trkpt><trkpt lat="42.279282348816366" lon="14.129784453915018"><ele>254.6</ele><time>2026-05-01T13:05:24.999Z</time></trkpt><trkpt lat="42.279321775812946" lon="14.1296647142275"><ele>257.2</ele><time>2026-05-01T13:05:25.999Z</time></trkpt><trkpt lat="42.279414982319985" lon="14.129598988218342"><ele>259.8</ele><time>2026-05-01T13:05:26.999Z</time></trkpt><trkpt lat="42.27951760571558" lon="14.129577489878082"><ele>262.4</ele><time>2026-05-01T13:05:27.999Z</time></trkpt><trkpt lat="42.27963616880844" lon="14.129591694803908"><ele>265.0</ele><time>2026-05-01T13:05:28.999Z</time></trkpt><trkpt lat="42.27975455650375" lon="14.129581024217737"><ele>263.75</ele><time>2026-05-01T13:05:29.999Z</time></trkpt><trkpt lat="42.27985768078518" lon="14.129511507262054"><ele>262.5</ele><time>2026-05-01T13:05:30.999Z</time></trkpt><trkpt lat="42.27994417883928" lon="14.12938903291881"><ele>261.25</ele><time>2026-05-01T13:05:31.999Z</time></trkpt><trkpt lat="42.28000109614742" lon="14.12923053971577"><ele>260.0</ele><time>2026-05-01T13:05:32.999Z</time></trkpt><trkpt lat="42.28006711176827" lon="14.129044425649225"><ele>262.75</ele><time>2026-05-01T13:05:33.999Z</time></trkpt><trkpt lat="42.28012725869841" lon="14.128827531597473"><ele>265.5</ele><time>2026-05-01T13:05:34.999Z</time></trkpt><trkpt lat="42.28018464970923" lon="14.128648382393452"><ele>268.25</ele><time>2026-05-01T13:05:35.999Z</time></trkpt><trkpt lat="42.28025279825003" lon="14.128510015369264"><ele>271.0</ele><time>2026-05-01T13:05:36.999Z</time></trkpt><trkpt lat="42.28031590681935" lon="14.128387079446298"><ele>271.0</ele><time>2026-05-01T13:05:37.999Z</time></trkpt><trkpt lat="42.28037568192665" lon="14.128263362534899"><ele>271.0</ele><time>2026-05-01T13:05:38.999Z</time></trkpt><trkpt lat="42.280469247590915" lon="14.128189618931854"><ele>271.0</ele><time>2026-05-01T13:05:39.999Z</time></trkpt><trkpt lat="42.28058856554483" lon="14.128166369295469"><ele>271.0</ele><time>2026-05-01T13:05:40.999Z</time></trkpt><trkpt lat="42.28069769734665" lon="14.12810379395834"><ele>272.5</ele><time>2026-05-01T13:05:41.999Z</time></trkpt><trkpt lat="42.28083711552205" lon="14.12802929825776"><ele>274.0</ele><time>2026-05-01T13:05:42.999Z</time></trkpt><trkpt lat="42.280946771798114" lon="14.127967875558035"><ele>275.5</ele><time>2026-05-01T13:05:43.999Z</time></trkpt><trkpt lat="42.28103176472152" lon="14.127894614824067"><ele>277.0</ele><time>2026-05-01T13:05:44.999Z</time></trkpt><trkpt lat="42.28107962400131" lon="14.127798376775392"><ele>277.0</ele><time>2026-05-01T13:05:45.999Z</time></trkpt><trkpt lat="42.281099622899895" lon="14.127655915050662"><ele>277.0</ele><time>2026-05-01T13:05:46.999Z</time></trkpt><trkpt lat="42.28107413253217" lon="14.127506405870397"><ele>277.0</ele><time>2026-05-01T13:05:47.999Z</time></trkpt><trkpt lat="42.28100010566532" lon="14.1273806439422"><ele>277.0</ele><time>2026-05-01T13:05:48.999Z</time></trkpt><trkpt lat="42.28089704304893" lon="14.12730190213827"><ele>279.75</ele><time>2026-05-01T13:05:49.999Z</time></trkpt><trkpt lat="42.28078829634397" lon="14.1272677822856"><ele>282.5</ele><time>2026-05-01T13:05:50.999Z</time></trkpt><trkpt lat="42.280664444955356" lon="14.127306365497956"><ele>285.25</ele><time>2026-05-01T13:05:51.999Z</time></trkpt><trkpt lat="42.28050160987493" lon="14.12732188805107"><ele>288.0</ele><time>2026-05-01T13:05:52.999Z</time></trkpt><trkpt lat="42.28033332585196" lon="14.127339240221552"><ele>288.0</ele><time>2026-05-01T13:05:53.999Z</time></trkpt><trkpt lat="42.280164027029706" lon="14.127356871858161"><ele>288.0</ele><time>2026-05-01T13:05:54.999Z</time></trkpt><trkpt lat="42.27997799271106" lon="14.12737693458071"><ele>288.0</ele><time>2026-05-01T13:05:55.999Z</time></trkpt><trkpt lat="42.27980675228737" lon="14.12739607374768"><ele>286.0</ele><time>2026-05-01T13:05:57Z</time></trkpt><trkpt lat="42.27963286468097" lon="14.127414749727595"><ele>284.0</ele><time>2026-05-01T13:05:58Z</time></trkpt><trkpt lat="42.27941162432209" lon="14.127448549196643"><ele>282.0</ele><time>2026-05-01T13:05:59Z</time></trkpt><trkpt lat="42.27920716039005" lon="14.12748180061758"><ele>282.0</ele><time>2026-05-01T13:06:00Z</time></trkpt><trkpt lat="42.27903557264632" lon="14.12750723842648"><ele>282.0</ele><time>2026-05-01T13:06:01Z</time></trkpt><trkpt lat="42.278886303677666" lon="14.127537624414746"><ele>282.0</ele><time>2026-05-01T13:06:02Z</time></trkpt><trkpt lat="42.27874024606017" lon="14.12755184861678"><ele>282.5</ele><time>2026-05-01T13:06:03Z</time></trkpt><trkpt lat="42.27860723128446" lon="14.127522774822541"><ele>283.0</ele><time>2026-05-01T13:06:04Z</time></trkpt><trkpt lat="42.27850155577618" lon="14.127420650425782"><ele>283.5</ele><time>2026-05-01T13:06:05Z</time></trkpt><trkpt lat="42.27846398752049" lon="14.127258705085012"><ele>284.0</ele><time>2026-05-01T13:06:06Z</time></trkpt><trkpt lat="42.27843950079002" lon="14.12717424211176"><ele>284.8</ele><time>2026-05-01T13:06:07Z</time></trkpt><trkpt lat="42.27841047803421" lon="14.127080844311584"><ele>285.59999999999997</ele><time>2026-05-01T13:06:09Z</time></trkpt><trkpt lat="42.27841316622878" lon="14.126971862914576"><ele>286.4</ele><time>2026-05-01T13:06:11Z</time></trkpt><trkpt lat="42.278407083099445" lon="14.126862295859416"><ele>287.2</ele><time>2026-05-01T13:06:13Z</time></trkpt><trkpt lat="42.27837947562556" lon="14.127050394243842"><ele>288.0</ele><time>2026-05-01T13:06:16Z</time></trkpt><trkpt lat="42.27840775642522" lon="14.12720287087215"><ele>288.0</ele><time>2026-05-01T13:06:17Z</time></trkpt><trkpt lat="42.27845803127836" lon="14.127351681791898"><ele>288.0</ele><time>2026-05-01T13:06:18Z</time></trkpt><trkpt lat="42.27853856449714" lon="14.127470536101567"><ele>288.0</ele><time>2026-05-01T13:06:19Z</time></trkpt><trkpt lat="42.27863470880027" lon="14.127534314714532"><ele>288.0</ele><time>2026-05-01T13:06:20Z</time></trkpt><trkpt lat="42.278738522744206" lon="14.127579481447379"><ele>287.3333333333333</ele><time>2026-05-01T13:06:21Z</time></trkpt><trkpt lat="42.2788372618271" lon="14.127602882502813"><ele>286.6666666666667</ele><time>2026-05-01T13:06:22Z</time></trkpt><trkpt lat="42.27893024973933" lon="14.127564038282209"><ele>286.0</ele><time>2026-05-01T13:06:23Z</time></trkpt><trkpt lat="42.279008334250825" lon="14.127539920493117"><ele>285.33333333333337</ele><time>2026-05-01T13:06:24Z</time></trkpt><trkpt lat="42.27908346565104" lon="14.127530468026693"><ele>284.6666666666667</ele><time>2026-05-01T13:06:25Z</time></trkpt><trkpt lat="42.279152132745" lon="14.127518489175374"><ele>284.0</ele><time>2026-05-01T13:06:26Z</time></trkpt><trkpt lat="42.27921649208021" lon="14.127507885367633"><ele>283.6666666666667</ele><time>2026-05-01T13:06:27Z</time></trkpt><trkpt lat="42.27927988705662" lon="14.127504860022254"><ele>283.33333333333337</ele><time>2026-05-01T13:06:28Z</time></trkpt><trkpt lat="42.27934996242154" lon="14.127524508513684"><ele>283.0</ele><time>2026-05-01T13:06:30Z</time></trkpt><trkpt lat="42.27926952631588" lon="14.127619739522473"><ele>282.6666666666667</ele><time>2026-05-01T13:06:33Z</time></trkpt><trkpt lat="42.27919679120799" lon="14.127630554409803"><ele>282.3333333333333</ele><time>2026-05-01T13:06:34Z</time></trkpt><trkpt lat="42.27911596677499" lon="14.127634047235343"><ele>282.0</ele><time>2026-05-01T13:06:35Z</time></trkpt><trkpt lat="42.27902838168645" lon="14.127639733424319"><ele>282.5</ele><time>2026-05-01T13:06:36Z</time></trkpt><trkpt lat="42.27892841149939" lon="14.127644139350993"><ele>283.0</ele><time>2026-05-01T13:06:37Z</time></trkpt><trkpt lat="42.278814823652496" lon="14.12764150340659"><ele>283.5</ele><time>2026-05-01T13:06:38Z</time></trkpt><trkpt lat="42.278692105673116" lon="14.12763224511426"><ele>284.0</ele><time>2026-05-01T13:06:39Z</time></trkpt><trkpt lat="42.27855982853985" lon="14.127624848465048"><ele>284.0</ele><time>2026-05-01T13:06:40Z</time></trkpt><trkpt lat="42.27842386056037" lon="14.127618636855155"><ele>284.0</ele><time>2026-05-01T13:06:41Z</time></trkpt><trkpt lat="42.278288652353545" lon="14.127581075783779"><ele>284.0</ele><time>2026-05-01T13:06:42Z</time></trkpt><trkpt lat="42.278149826391605" lon="14.127584844760703"><ele>284.0</ele><time>2026-05-01T13:06:43Z</time></trkpt><trkpt lat="42.27802453119382" lon="14.12754046188243"><ele>284.5</ele><time>2026-05-01T13:06:44Z</time></trkpt><trkpt lat="42.27790221027239" lon="14.127485838957202"><ele>285.0</ele><time>2026-05-01T13:06:45Z</time></trkpt><trkpt lat="42.27777395374453" lon="14.12743787384481"><ele>285.5</ele><time>2026-05-01T13:06:46Z</time></trkpt><trkpt lat="42.27765183240641" lon="14.127414488307313"><ele>286.0</ele><time>2026-05-01T13:06:47Z</time></trkpt><trkpt lat="42.27751998225327" lon="14.127377559304366"><ele>288.0</ele><time>2026-05-01T13:06:48Z</time></trkpt><trkpt lat="42.277397061040205" lon="14.127345372959134"><ele>290.0</ele><time>2026-05-01T13:06:49Z</time></trkpt><trkpt lat="42.277276358115316" lon="14.127388394149671"><ele>292.0</ele><time>2026-05-01T13:06:50Z</time></trkpt><trkpt lat="42.27715169619713" lon="14.127386685693535"><ele>294.0</ele><time>2026-05-01T13:06:51Z</time></trkpt><trkpt lat="42.277040156410344" lon="14.127370617216284"><ele>294.59999999999997</ele><time>2026-05-01T13:06:52Z</time></trkpt><trkpt lat="42.276935295033155" lon="14.127304121338014"><ele>295.2</ele><time>2026-05-01T13:06:53Z</time></trkpt><trkpt lat="42.27682263857379" lon="14.12725181105326"><ele>295.79999999999995</ele><time>2026-05-01T13:06:54Z</time></trkpt><trkpt lat="42.2767152583246" lon="14.127227839046821"><ele>296.4</ele><time>2026-05-01T13:06:55Z</time></trkpt><trkpt lat="42.27662837517002" lon="14.127172468931368"><ele>297.0</ele><time>2026-05-01T13:06:56Z</time></trkpt><trkpt lat="42.27656316407229" lon="14.127160522515384"><ele>297.0</ele><time>2026-05-01T13:06:57Z</time></trkpt><trkpt lat="42.27649125310553" lon="14.127232139323102"><ele>297.0</ele><time>2026-05-01T13:06:58Z</time></trkpt><trkpt lat="42.2764338044879" lon="14.127355799462155"><ele>297.0</ele><time>2026-05-01T13:06:59Z</time></trkpt><trkpt lat="42.27634875122484" lon="14.127463868882376"><ele>297.0</ele><time>2026-05-01T13:07:00Z</time></trkpt><trkpt lat="42.27626448572147" lon="14.127611520423466"><ele>296.75</ele><time>2026-05-01T13:07:01Z</time></trkpt><trkpt lat="42.27617739938082" lon="14.127750520429181"><ele>296.5</ele><time>2026-05-01T13:07:02Z</time></trkpt><trkpt lat="42.27609173297171" lon="14.127845901514934"><ele>296.25</ele><time>2026-05-01T13:07:03Z</time></trkpt><trkpt lat="42.27600140256822" lon="14.127905665169854"><ele>296.0</ele><time>2026-05-01T13:07:04Z</time></trkpt><trkpt lat="42.275899957286576" lon="14.127947385370502"><ele>296.0</ele><time>2026-05-01T13:07:05Z</time></trkpt><trkpt lat="42.275774490542446" lon="14.127973586917706"><ele>296.0</ele><time>2026-05-01T13:07:06Z</time></trkpt><trkpt lat="42.27563760243529" lon="14.12800912185023"><ele>296.0</ele><time>2026-05-01T13:07:07Z</time></trkpt><trkpt lat="42.275496953963575" lon="14.128070440065608"><ele>296.0</ele><time>2026-05-01T13:07:08Z</time></trkpt><trkpt lat="42.275391198133" lon="14.128166377705504"><ele>296.8</ele><time>2026-05-01T13:07:09Z</time></trkpt><trkpt lat="42.27530368800184" lon="14.128220205687082"><ele>297.6</ele><time>2026-05-01T13:07:10Z</time></trkpt><trkpt lat="42.275244395238545" lon="14.128263182574683"><ele>298.4</ele><time>2026-05-01T13:07:11Z</time></trkpt><trkpt lat="42.275164021736735" lon="14.128288211500319"><ele>299.2</ele><time>2026-05-01T13:07:13Z</time></trkpt><trkpt lat="42.275122975467376" lon="14.128064946354481"><ele>300.0</ele><time>2026-05-01T13:07:15Z</time></trkpt><trkpt lat="42.27506721630927" lon="14.127929053417551"><ele>301.0</ele><time>2026-05-01T13:07:16Z</time></trkpt><trkpt lat="42.275017955629934" lon="14.127761412404109"><ele>302.0</ele><time>2026-05-01T13:07:17Z</time></trkpt><trkpt lat="42.274955281406214" lon="14.127577551152093"><ele>303.0</ele><time>2026-05-01T13:07:18Z</time></trkpt><trkpt lat="42.274883350373855" lon="14.127373800515374"><ele>303.6666666666667</ele><time>2026-05-01T13:07:19Z</time></trkpt><trkpt lat="42.27482400136353" lon="14.127139215090507"><ele>304.33333333333337</ele><time>2026-05-01T13:07:20Z</time></trkpt><trkpt lat="42.27475042335706" lon="14.126895765305127"><ele>305.0</ele><time>2026-05-01T13:07:21Z</time></trkpt><trkpt lat="42.27468956352917" lon="14.126643361288615"><ele>301.5</ele><time>2026-05-01T13:07:22Z</time></trkpt><trkpt lat="42.27464457806454" lon="14.126419315293207"><ele>298.0</ele><time>2026-05-01T13:07:23Z</time></trkpt><trkpt lat="42.274620995497244" lon="14.126223477003444"><ele>294.5</ele><time>2026-05-01T13:07:23.999Z</time></trkpt><trkpt lat="42.27463396945066" lon="14.126050034887593"><ele>291.0</ele><time>2026-05-01T13:07:24.999Z</time></trkpt><trkpt lat="42.274677155887666" lon="14.125874329574579"><ele>291.25</ele><time>2026-05-01T13:07:25.999Z</time></trkpt><trkpt lat="42.27471588810151" lon="14.125682766260853"><ele>291.5</ele><time>2026-05-01T13:07:26.999Z</time></trkpt><trkpt lat="42.2747745771071" lon="14.125509223028834"><ele>291.75</ele><time>2026-05-01T13:07:27.999Z</time></trkpt><trkpt lat="42.27482290004014" lon="14.125323579768802"><ele>292.0</ele><time>2026-05-01T13:07:28.999Z</time></trkpt><trkpt lat="42.274867924419915" lon="14.125139833753023"><ele>298.75</ele><time>2026-05-01T13:07:29.999Z</time></trkpt><trkpt lat="42.27493229145256" lon="14.124977696638359"><ele>305.5</ele><time>2026-05-01T13:07:30.999Z</time></trkpt><trkpt lat="42.274985326647226" lon="14.124828660753991"><ele>312.25</ele><time>2026-05-01T13:07:31.999Z</time></trkpt><trkpt lat="42.27503234806105" lon="14.124674843786645"><ele>319.0</ele><time>2026-05-01T13:07:32.999Z</time></trkpt><trkpt lat="42.27510066107339" lon="14.124530303745285"><ele>320.6</ele><time>2026-05-01T13:07:33.999Z</time></trkpt><trkpt lat="42.27515798272947" lon="14.124408839551077"><ele>322.2</ele><time>2026-05-01T13:07:34.999Z</time></trkpt><trkpt lat="42.275214346418615" lon="14.124312642895733"><ele>323.8</ele><time>2026-05-01T13:07:35.999Z</time></trkpt><trkpt lat="42.2753000841654" lon="14.124243778793074"><ele>325.40000000000003</ele><time>2026-05-01T13:07:36.999Z</time></trkpt><trkpt lat="42.27542716342745" lon="14.124259734540829"><ele>327.0</ele><time>2026-05-01T13:07:37.999Z</time></trkpt><trkpt lat="42.27556643953096" lon="14.12422855830746"><ele>325.5</ele><time>2026-05-01T13:07:38.999Z</time></trkpt><trkpt lat="42.27569766335915" lon="14.12422983001158"><ele>324.0</ele><time>2026-05-01T13:07:39.999Z</time></trkpt><trkpt lat="42.27582340776733" lon="14.124220214213517"><ele>322.5</ele><time>2026-05-01T13:07:40.999Z</time></trkpt><trkpt lat="42.27594531781816" lon="14.124211110602783"><ele>321.0</ele><time>2026-05-01T13:07:41.999Z</time></trkpt><trkpt lat="42.276062790979665" lon="14.124185161246839"><ele>321.0</ele><time>2026-05-01T13:07:42.999Z</time></trkpt><trkpt lat="42.27616166356662" lon="14.124141686181275"><ele>321.0</ele><time>2026-05-01T13:07:43.999Z</time></trkpt><trkpt lat="42.276251093133375" lon="14.124141065004128"><ele>321.0</ele><time>2026-05-01T13:07:44.999Z</time></trkpt><trkpt lat="42.276348900282954" lon="14.124132421244502"><ele>321.0</ele><time>2026-05-01T13:07:45.999Z</time></trkpt><trkpt lat="42.27643735114688" lon="14.124114483774507"><ele>321.0</ele><time>2026-05-01T13:07:46.999Z</time></trkpt><trkpt lat="42.27650660060333" lon="14.12411825151509"><ele>320.2</ele><time>2026-05-01T13:07:47.999Z</time></trkpt><trkpt lat="42.27658298051011" lon="14.124113731939264"><ele>319.40000000000003</ele><time>2026-05-01T13:07:49.999Z</time></trkpt><trkpt lat="42.27654384328238" lon="14.12403991005079"><ele>318.6</ele><time>2026-05-01T13:07:52.999Z</time></trkpt><trkpt lat="42.27641477803835" lon="14.123956052957253"><ele>317.8</ele><time>2026-05-01T13:07:54.999Z</time></trkpt><trkpt lat="42.276345128832" lon="14.123862064462132"><ele>317.0</ele><time>2026-05-01T13:07:55.999Z</time></trkpt><trkpt lat="42.27626444661698" lon="14.123748546801991"><ele>317.0</ele><time>2026-05-01T13:07:56.999Z</time></trkpt><trkpt lat="42.27620137345128" lon="14.123606795031183"><ele>317.0</ele><time>2026-05-01T13:07:57.999Z</time></trkpt><trkpt lat="42.27612539526853" lon="14.12350621774099"><ele>317.0</ele><time>2026-05-01T13:07:58.999Z</time></trkpt><trkpt lat="42.27607625479631" lon="14.123407683946004"><ele>317.0</ele><time>2026-05-01T13:07:59.999Z</time></trkpt><trkpt lat="42.2759929780453" lon="14.123359645239848"><ele>317.0</ele><time>2026-05-01T13:08:00.999Z</time></trkpt><trkpt lat="42.2758788214438" lon="14.123346031438192"><ele>317.0</ele><time>2026-05-01T13:08:01.999Z</time></trkpt><trkpt lat="42.27575624281511" lon="14.123289657014851"><ele>317.0</ele><time>2026-05-01T13:08:03Z</time></trkpt><trkpt lat="42.275602665999315" lon="14.123264956544244"><ele>317.0</ele><time>2026-05-01T13:08:04Z</time></trkpt><trkpt lat="42.27546124079339" lon="14.123205044951419"><ele>317.0</ele><time>2026-05-01T13:08:05Z</time></trkpt><trkpt lat="42.275312963227115" lon="14.123162773536817"><ele>316.4</ele><time>2026-05-01T13:08:06Z</time></trkpt><trkpt lat="42.27516668979663" lon="14.123119131250613"><ele>315.79999999999995</ele><time>2026-05-01T13:08:07Z</time></trkpt><trkpt lat="42.2750580754271" lon="14.12309044985805"><ele>315.2</ele><time>2026-05-01T13:08:08Z</time></trkpt><trkpt lat="42.27496489115523" lon="14.123093716717271"><ele>314.59999999999997</ele><time>2026-05-01T13:08:09Z</time></trkpt><trkpt lat="42.27488386448916" lon="14.123086892792154"><ele>314.0</ele><time>2026-05-01T13:08:10Z</time></trkpt><trkpt lat="42.27478237603655" lon="14.123072915126999"><ele>315.2</ele><time>2026-05-01T13:08:11Z</time></trkpt><trkpt lat="42.2746834628644" lon="14.123062525377923"><ele>316.4</ele><time>2026-05-01T13:08:12Z</time></trkpt><trkpt lat="42.27459200220825" lon="14.123045001029064"><ele>317.6</ele><time>2026-05-01T13:08:13Z</time></trkpt><trkpt lat="42.274507938234926" lon="14.12302208120623"><ele>318.8</ele><time>2026-05-01T13:08:14Z</time></trkpt><trkpt lat="42.27442127911271" lon="14.122984023376707"><ele>320.0</ele><time>2026-05-01T13:08:15Z</time></trkpt><trkpt lat="42.27433400754242" lon="14.122926345254958"><ele>320.0</ele><time>2026-05-01T13:08:16Z</time></trkpt><trkpt lat="42.274251231948014" lon="14.12286454709532"><ele>320.0</ele><time>2026-05-01T13:08:17Z</time></trkpt><trkpt lat="42.27417167135955" lon="14.12280476518548"><ele>320.0</ele><time>2026-05-01T13:08:18Z</time></trkpt><trkpt lat="42.27409898130234" lon="14.122742844474091"><ele>320.0</ele><time>2026-05-01T13:08:19Z</time></trkpt><trkpt lat="42.27404163057408" lon="14.122654783486206"><ele>320.0</ele><time>2026-05-01T13:08:20Z</time></trkpt><trkpt lat="42.2740211315678" lon="14.122548058465078"><ele>320.0</ele><time>2026-05-01T13:08:21Z</time></trkpt><trkpt lat="42.27395934053286" lon="14.122436989671089"><ele>316.2</ele><time>2026-05-01T13:08:23Z</time></trkpt><trkpt lat="42.27393145271911" lon="14.122353734932114"><ele>312.4</ele><time>2026-05-01T13:08:25Z</time></trkpt><trkpt lat="42.27387207820987" lon="14.12232458456005"><ele>308.6</ele><time>2026-05-01T13:08:27Z</time></trkpt><trkpt lat="42.27381787933935" lon="14.122243523117886"><ele>304.8</ele><time>2026-05-01T13:08:29Z</time></trkpt><trkpt lat="42.27372989986777" lon="14.122136949275182"><ele>301.0</ele><time>2026-05-01T13:08:31Z</time></trkpt><trkpt lat="42.27366810990889" lon="14.121980131767623"><ele>301.0</ele><time>2026-05-01T13:08:33Z</time></trkpt><trkpt lat="42.27365478312563" lon="14.121871406502247"><ele>301.0</ele><time>2026-05-01T13:08:34Z</time></trkpt><trkpt lat="42.273620744677046" lon="14.121749322839534"><ele>301.0</ele><time>2026-05-01T13:08:35Z</time></trkpt><trkpt lat="42.273571550078564" lon="14.12164545023917"><ele>301.0</ele><time>2026-05-01T13:08:36Z</time></trkpt><trkpt lat="42.273506089991365" lon="14.121554681347611"><ele>301.0</ele><time>2026-05-01T13:08:37Z</time></trkpt><trkpt lat="42.27343282738994" lon="14.121479878101676"><ele>300.40000000000003</ele><time>2026-05-01T13:08:38Z</time></trkpt><trkpt lat="42.27336989092307" lon="14.121427999573502"><ele>299.8</ele><time>2026-05-01T13:08:39Z</time></trkpt><trkpt lat="42.273316639409956" lon="14.121380359302046"><ele>299.20000000000005</ele><time>2026-05-01T13:08:40Z</time></trkpt><trkpt lat="42.273274380066454" lon="14.121230396150763"><ele>298.6</ele><time>2026-05-01T13:08:42Z</time></trkpt><trkpt lat="42.27319359005548" lon="14.121082902892743"><ele>298.0</ele><time>2026-05-01T13:08:44Z</time></trkpt><trkpt lat="42.27313187270281" lon="14.120999140937574"><ele>296.8</ele><time>2026-05-01T13:08:45Z</time></trkpt><trkpt lat="42.2730364218038" lon="14.120934132338252"><ele>295.6</ele><time>2026-05-01T13:08:46Z</time></trkpt><trkpt lat="42.27295303249428" lon="14.120879717185558"><ele>294.4</ele><time>2026-05-01T13:08:47Z</time></trkpt><trkpt lat="42.272870751068425" lon="14.120834690363296"><ele>293.2</ele><time>2026-05-01T13:08:48Z</time></trkpt><trkpt lat="42.27279451659395" lon="14.120796663805445"><ele>292.0</ele><time>2026-05-01T13:08:49Z</time></trkpt><trkpt lat="42.27271762214823" lon="14.120765339502377"><ele>290.5</ele><time>2026-05-01T13:08:50Z</time></trkpt><trkpt lat="42.272650378134756" lon="14.120705646984483"><ele>289.0</ele><time>2026-05-01T13:08:51Z</time></trkpt><trkpt lat="42.272582898739024" lon="14.120652970161958"><ele>287.5</ele><time>2026-05-01T13:08:52Z</time></trkpt><trkpt lat="42.27251210337723" lon="14.120593326537298"><ele>286.0</ele><time>2026-05-01T13:08:53Z</time></trkpt><trkpt lat="42.27242811317937" lon="14.120544535355497"><ele>284.5</ele><time>2026-05-01T13:08:54Z</time></trkpt><trkpt lat="42.2723546608601" lon="14.120454829265668"><ele>283.0</ele><time>2026-05-01T13:08:55Z</time></trkpt><trkpt lat="42.27228182136739" lon="14.12039262764504"><ele>282.66666666666663</ele><time>2026-05-01T13:08:56Z</time></trkpt><trkpt lat="42.27221593863512" lon="14.120336366879071"><ele>282.3333333333333</ele><time>2026-05-01T13:08:57Z</time></trkpt><trkpt lat="42.27215809530552" lon="14.120286971199953"><ele>282.0</ele><time>2026-05-01T13:08:58Z</time></trkpt><trkpt lat="42.27209385799233" lon="14.120232115353858"><ele>281.6666666666667</ele><time>2026-05-01T13:08:59Z</time></trkpt><trkpt lat="42.272017618847585" lon="14.120189527847039"><ele>281.33333333333337</ele><time>2026-05-01T13:09:00Z</time></trkpt><trkpt lat="42.27196458341062" lon="14.120133728354615"><ele>281.0</ele><time>2026-05-01T13:09:01Z</time></trkpt><trkpt lat="42.27188928480206" lon="14.120086368552649"><ele>281.0</ele><time>2026-05-01T13:09:02Z</time></trkpt><trkpt lat="42.27181305643735" lon="14.120025978539227"><ele>281.0</ele><time>2026-05-01T13:09:03Z</time></trkpt><trkpt lat="42.271739235591404" lon="14.119969363708126"><ele>281.0</ele><time>2026-05-01T13:09:04Z</time></trkpt><trkpt lat="42.27166864401572" lon="14.119896292692296"><ele>281.0</ele><time>2026-05-01T13:09:05Z</time></trkpt><trkpt lat="42.27159331492386" lon="14.119834009878515"><ele>281.0</ele><time>2026-05-01T13:09:06Z</time></trkpt><trkpt lat="42.27151979107005" lon="14.119765447384864"><ele>281.0</ele><time>2026-05-01T13:09:07Z</time></trkpt><trkpt lat="42.27145841907739" lon="14.119688579555744"><ele>280.40000000000003</ele><time>2026-05-01T13:09:08Z</time></trkpt><trkpt lat="42.27143813746594" lon="14.119549930524093"><ele>279.8</ele><time>2026-05-01T13:09:09Z</time></trkpt><trkpt lat="42.27138656987159" lon="14.119409966453087"><ele>279.20000000000005</ele><time>2026-05-01T13:09:10Z</time></trkpt><trkpt lat="42.27133798518274" lon="14.119274406466998"><ele>278.6</ele><time>2026-05-01T13:09:11Z</time></trkpt><trkpt lat="42.271309568998824" lon="14.119163725822114"><ele>278.0</ele><time>2026-05-01T13:09:12Z</time></trkpt><trkpt lat="42.271272463305934" lon="14.119073327694641"><ele>277.2</ele><time>2026-05-01T13:09:13Z</time></trkpt><trkpt lat="42.27124165309199" lon="14.118959987380348"><ele>276.4</ele><time>2026-05-01T13:09:14Z</time></trkpt><trkpt lat="42.271195726579556" lon="14.11885825764977"><ele>275.59999999999997</ele><time>2026-05-01T13:09:15Z</time></trkpt><trkpt lat="42.27113020562303" lon="14.118781429390172"><ele>274.8</ele><time>2026-05-01T13:09:16Z</time></trkpt><trkpt lat="42.27105509333365" lon="14.118755019485498"><ele>274.0</ele><time>2026-05-01T13:09:17Z</time></trkpt><trkpt lat="42.2709383319069" lon="14.118744671015655"><ele>274.0</ele><time>2026-05-01T13:09:19Z</time></trkpt><trkpt lat="42.27086908440116" lon="14.118738211358586"><ele>274.0</ele><time>2026-05-01T13:09:20Z</time></trkpt><trkpt lat="42.27079143799954" lon="14.11875066911849"><ele>274.0</ele><time>2026-05-01T13:09:21Z</time></trkpt><trkpt lat="42.27071012509303" lon="14.118719711381013"><ele>274.0</ele><time>2026-05-01T13:09:22Z</time></trkpt><trkpt lat="42.27060301749904" lon="14.118703261937853"><ele>274.0</ele><time>2026-05-01T13:09:23Z</time></trkpt><trkpt lat="42.270496850808804" lon="14.118709252972328"><ele>274.0</ele><time>2026-05-01T13:09:24Z</time></trkpt><trkpt lat="42.27039785588578" lon="14.118691563831034"><ele>276.0</ele><time>2026-05-01T13:09:25Z</time></trkpt><trkpt lat="42.270310841410954" lon="14.118643956868313"><ele>278.0</ele><time>2026-05-01T13:09:26Z</time></trkpt><trkpt lat="42.270218502641924" lon="14.118603302537709"><ele>280.0</ele><time>2026-05-01T13:09:27Z</time></trkpt><trkpt lat="42.27009762697109" lon="14.118536897573208"><ele>282.0</ele><time>2026-05-01T13:09:28Z</time></trkpt><trkpt lat="42.26997455076245" lon="14.11847794735974"><ele>282.0</ele><time>2026-05-01T13:09:29Z</time></trkpt><trkpt lat="42.26988630001697" lon="14.11839852439055"><ele>282.0</ele><time>2026-05-01T13:09:30Z</time></trkpt><trkpt lat="42.26983084660876" lon="14.11835750530639"><ele>282.0</ele><time>2026-05-01T13:09:31Z</time></trkpt><trkpt lat="42.269773311281064" lon="14.118311988597858"><ele>282.0</ele><time>2026-05-01T13:09:32Z</time></trkpt><trkpt lat="42.269694835643016" lon="14.11826677882829"><ele>282.0</ele><time>2026-05-01T13:09:33Z</time></trkpt><trkpt lat="42.26962318601092" lon="14.118187681261228"><ele>282.0</ele><time>2026-05-01T13:09:34Z</time></trkpt><trkpt lat="42.269574706435534" lon="14.118106332460785"><ele>279.8333333333333</ele><time>2026-05-01T13:09:35Z</time></trkpt><trkpt lat="42.269522349088895" lon="14.118020507988637"><ele>277.6666666666667</ele><time>2026-05-01T13:09:36Z</time></trkpt><trkpt lat="42.26946928162563" lon="14.117920760546836"><ele>275.5</ele><time>2026-05-01T13:09:37Z</time></trkpt><trkpt lat="42.26943273610199" lon="14.117823582078639"><ele>273.33333333333337</ele><time>2026-05-01T13:09:38Z</time></trkpt><trkpt lat="42.26940503782542" lon="14.117717412765652"><ele>271.1666666666667</ele><time>2026-05-01T13:09:39Z</time></trkpt><trkpt lat="42.26938444866973" lon="14.117625225417505"><ele>269.0</ele><time>2026-05-01T13:09:39.999Z</time></trkpt><trkpt lat="42.269400617088365" lon="14.117509622822311"><ele>267.0</ele><time>2026-05-01T13:09:40.999Z</time></trkpt><trkpt lat="42.26943327458632" lon="14.117363897997642"><ele>265.0</ele><time>2026-05-01T13:09:41.999Z</time></trkpt><trkpt lat="42.26947944786681" lon="14.117257426437495"><ele>263.0</ele><time>2026-05-01T13:09:42.999Z</time></trkpt><trkpt lat="42.269542400823866" lon="14.11715641044474"><ele>261.0</ele><time>2026-05-01T13:09:43.999Z</time></trkpt><trkpt lat="42.26959006271114" lon="14.117063704946613"><ele>259.0</ele><time>2026-05-01T13:09:44.999Z</time></trkpt><trkpt lat="42.269615692441604" lon="14.116936584310563"><ele>259.0</ele><time>2026-05-01T13:09:45.999Z</time></trkpt><trkpt lat="42.26961002475735" lon="14.116795942473614"><ele>259.0</ele><time>2026-05-01T13:09:46.999Z</time></trkpt><trkpt lat="42.26959113357392" lon="14.116661909313772"><ele>259.0</ele><time>2026-05-01T13:09:47.999Z</time></trkpt><trkpt lat="42.26959815299665" lon="14.116538996761802"><ele>259.0</ele><time>2026-05-01T13:09:48.999Z</time></trkpt><trkpt lat="42.269584652563374" lon="14.116400983069264"><ele>259.0</ele><time>2026-05-01T13:09:49.999Z</time></trkpt><trkpt lat="42.26958503143574" lon="14.116252191723744"><ele>257.8</ele><time>2026-05-01T13:09:50.999Z</time></trkpt><trkpt lat="42.26958060385561" lon="14.116127426113689"><ele>256.59999999999997</ele><time>2026-05-01T13:09:51.999Z</time></trkpt><trkpt lat="42.26956688085568" lon="14.116006770024054"><ele>255.4</ele><time>2026-05-01T13:09:52.999Z</time></trkpt><trkpt lat="42.26952314508884" lon="14.115873982754671"><ele>254.2</ele><time>2026-05-01T13:09:53.999Z</time></trkpt><trkpt lat="42.26946551698318" lon="14.115775258889228"><ele>253.0</ele><time>2026-05-01T13:09:54.999Z</time></trkpt><trkpt lat="42.26938847890393" lon="14.115702441748263"><ele>251.8</ele><time>2026-05-01T13:09:55.999Z</time></trkpt><trkpt lat="42.26929345529706" lon="14.115641473101883"><ele>250.60000000000002</ele><time>2026-05-01T13:09:56.999Z</time></trkpt><trkpt lat="42.26921889739106" lon="14.11554639989318"><ele>249.39999999999998</ele><time>2026-05-01T13:09:57.999Z</time></trkpt><trkpt lat="42.26915008549451" lon="14.115465753404992"><ele>248.2</ele><time>2026-05-01T13:09:58.999Z</time></trkpt><trkpt lat="42.26910353497757" lon="14.115368174559942"><ele>247.0</ele><time>2026-05-01T13:09:59.999Z</time></trkpt><trkpt lat="42.26905032485824" lon="14.115277981552195"><ele>247.0</ele><time>2026-05-01T13:10:00.999Z</time></trkpt><trkpt lat="42.26900739886924" lon="14.115171128940538"><ele>247.0</ele><time>2026-05-01T13:10:01.999Z</time></trkpt><trkpt lat="42.26897003860399" lon="14.115047621008747"><ele>247.0</ele><time>2026-05-01T13:10:03.999Z</time></trkpt><trkpt lat="42.26895780098648" lon="14.1149637770761"><ele>247.0</ele><time>2026-05-01T13:10:04.999Z</time></trkpt><trkpt lat="42.268907962822" lon="14.114816064688322"><ele>247.0</ele><time>2026-05-01T13:10:06.999Z</time></trkpt><trkpt lat="42.268873396902976" lon="14.114699260189438"><ele>243.99999999999997</ele><time>2026-05-01T13:10:08Z</time></trkpt><trkpt lat="42.268843919945326" lon="14.114591456224675"><ele>241.0</ele><time>2026-05-01T13:10:09Z</time></trkpt><trkpt lat="42.2688270838737" lon="14.114490422113404"><ele>238.0</ele><time>2026-05-01T13:10:10Z</time></trkpt><trkpt lat="42.26881051514346" lon="14.114379065276529"><ele>235.0</ele><time>2026-05-01T13:10:11Z</time></trkpt><trkpt lat="42.26879547667106" lon="14.114271899305017"><ele>231.99999999999997</ele><time>2026-05-01T13:10:12Z</time></trkpt><trkpt lat="42.26876841515763" lon="14.114147409252043"><ele>229.0</ele><time>2026-05-01T13:10:13Z</time></trkpt><trkpt lat="42.26871410167353" lon="14.11403358537944"><ele>229.0</ele><time>2026-05-01T13:10:14Z</time></trkpt><trkpt lat="42.268670293413415" lon="14.113932636523828"><ele>228.99999999999997</ele><time>2026-05-01T13:10:15Z</time></trkpt><trkpt lat="42.26860715049459" lon="14.113840750668063"><ele>228.99999999999997</ele><time>2026-05-01T13:10:16Z</time></trkpt><trkpt lat="42.26850481793241" lon="14.113783252040246"><ele>229.0</ele><time>2026-05-01T13:10:17Z</time></trkpt><trkpt lat="42.26840234074415" lon="14.11370341387873"><ele>229.0</ele><time>2026-05-01T13:10:18Z</time></trkpt><trkpt lat="42.26829320061818" lon="14.113638566955018"><ele>229.0</ele><time>2026-05-01T13:10:19Z</time></trkpt><trkpt lat="42.26819663753708" lon="14.113537422229324"><ele>228.99999999999997</ele><time>2026-05-01T13:10:20Z</time></trkpt><trkpt lat="42.26809748322843" lon="14.113482580256614"><ele>228.99999999999997</ele><time>2026-05-01T13:10:21Z</time></trkpt><trkpt lat="42.26802874495611" lon="14.113390938610417"><ele>229.0</ele><time>2026-05-01T13:10:22Z</time></trkpt><trkpt lat="42.26795031393369" lon="14.113269498359685"><ele>229.0</ele><time>2026-05-01T13:10:23Z</time></trkpt><trkpt lat="42.26788062553012" lon="14.113126327266453"><ele>229.79999999999998</ele><time>2026-05-01T13:10:24Z</time></trkpt><trkpt lat="42.267831999385564" lon="14.112985621404997"><ele>230.59999999999997</ele><time>2026-05-01T13:10:25Z</time></trkpt><trkpt lat="42.2677866327066" lon="14.112880049867188"><ele>231.4</ele><time>2026-05-01T13:10:26Z</time></trkpt><trkpt lat="42.26770788876748" lon="14.112773938485587"><ele>232.2</ele><time>2026-05-01T13:10:27Z</time></trkpt><trkpt lat="42.26760858229548" lon="14.112665566470792"><ele>233.0</ele><time>2026-05-01T13:10:28Z</time></trkpt><trkpt lat="42.267514545911965" lon="14.112545573434074"><ele>233.0</ele><time>2026-05-01T13:10:29Z</time></trkpt><trkpt lat="42.26745688768942" lon="14.112454167840792"><ele>233.0</ele><time>2026-05-01T13:10:30Z</time></trkpt><trkpt lat="42.26741412359942" lon="14.112351418558143"><ele>233.0</ele><time>2026-05-01T13:10:31Z</time></trkpt><trkpt lat="42.267377128391225" lon="14.112202458117643"><ele>233.0</ele><time>2026-05-01T13:10:32Z</time></trkpt><trkpt lat="42.26734117837493" lon="14.112032545792607"><ele>233.0</ele><time>2026-05-01T13:10:33Z</time></trkpt><trkpt lat="42.26729120256581" lon="14.11186369343201"><ele>235.75</ele><time>2026-05-01T13:10:34Z</time></trkpt><trkpt lat="42.26725391658232" lon="14.11171917128574"><ele>238.5</ele><time>2026-05-01T13:10:35Z</time></trkpt><trkpt lat="42.2672044715745" lon="14.111581693493491"><ele>241.25</ele><time>2026-05-01T13:10:36Z</time></trkpt><trkpt lat="42.26717846642476" lon="14.111439567979788"><ele>244.0</ele><time>2026-05-01T13:10:37Z</time></trkpt><trkpt lat="42.26713214258865" lon="14.111288930678667"><ele>244.0</ele><time>2026-05-01T13:10:38Z</time></trkpt><trkpt lat="42.26707694828457" lon="14.111150114674727"><ele>244.0</ele><time>2026-05-01T13:10:39Z</time></trkpt><trkpt lat="42.26703509529948" lon="14.110992467814155"><ele>244.0</ele><time>2026-05-01T13:10:40Z</time></trkpt><trkpt lat="42.26697161905294" lon="14.1108577974117"><ele>244.0</ele><time>2026-05-01T13:10:41Z</time></trkpt><trkpt lat="42.26693091529475" lon="14.110721941614564"><ele>244.75</ele><time>2026-05-01T13:10:42Z</time></trkpt><trkpt lat="42.26688734642777" lon="14.110590943124345"><ele>245.5</ele><time>2026-05-01T13:10:43Z</time></trkpt><trkpt lat="42.26686668480731" lon="14.110453505491137"><ele>246.25</ele><time>2026-05-01T13:10:44Z</time></trkpt><trkpt lat="42.26683418319581" lon="14.110279935972638"><ele>247.0</ele><time>2026-05-01T13:10:45Z</time></trkpt><trkpt lat="42.266826949233284" lon="14.110133059241214"><ele>247.0</ele><time>2026-05-01T13:10:46Z</time></trkpt><trkpt lat="42.26679458640842" lon="14.109982384286054"><ele>247.0</ele><time>2026-05-01T13:10:47Z</time></trkpt><trkpt lat="42.266773493877466" lon="14.109838932809671"><ele>247.0</ele><time>2026-05-01T13:10:48Z</time></trkpt><trkpt lat="42.26672314251284" lon="14.109726680343906"><ele>247.0</ele><time>2026-05-01T13:10:49Z</time></trkpt><trkpt lat="42.266708053268104" lon="14.10963055135255"><ele>247.0</ele><time>2026-05-01T13:10:50Z</time></trkpt><trkpt lat="42.266661916901256" lon="14.10951598254384"><ele>249.0</ele><time>2026-05-01T13:10:51Z</time></trkpt><trkpt lat="42.26661122321635" lon="14.109405240246684"><ele>251.0</ele><time>2026-05-01T13:10:52Z</time></trkpt><trkpt lat="42.26654768451585" lon="14.109281196966762"><ele>253.0</ele><time>2026-05-01T13:10:53Z</time></trkpt><trkpt lat="42.266472179894826" lon="14.109149317923013"><ele>255.0</ele><time>2026-05-01T13:10:54Z</time></trkpt><trkpt lat="42.26639329004445" lon="14.109036453117087"><ele>257.0</ele><time>2026-05-01T13:10:55Z</time></trkpt><trkpt lat="42.26633002457363" lon="14.10893425432799"><ele>259.0</ele><time>2026-05-01T13:10:56Z</time></trkpt><trkpt lat="42.26627338988855" lon="14.108834766114915"><ele>261.0</ele><time>2026-05-01T13:10:57Z</time></trkpt><trkpt lat="42.266214601067325" lon="14.108707755431801"><ele>263.0</ele><time>2026-05-01T13:10:58Z</time></trkpt><trkpt lat="42.26614553586475" lon="14.108592237356149"><ele>265.0</ele><time>2026-05-01T13:10:59Z</time></trkpt><trkpt lat="42.266068497560525" lon="14.108463383623635"><ele>267.0</ele><time>2026-05-01T13:11:00Z</time></trkpt><trkpt lat="42.26599150597924" lon="14.108334608008462"><ele>267.5</ele><time>2026-05-01T13:11:01Z</time></trkpt><trkpt lat="42.26591505289312" lon="14.108206732995198"><ele>268.0</ele><time>2026-05-01T13:11:02Z</time></trkpt><trkpt lat="42.26584389686979" lon="14.108083162973085"><ele>268.5</ele><time>2026-05-01T13:11:03Z</time></trkpt><trkpt lat="42.265774575844866" lon="14.107956456747482"><ele>269.0</ele><time>2026-05-01T13:11:04Z</time></trkpt><trkpt lat="42.26571708606318" lon="14.10783499371219"><ele>269.0</ele><time>2026-05-01T13:11:05Z</time></trkpt><trkpt lat="42.265672531126505" lon="14.107697678788924"><ele>269.0</ele><time>2026-05-01T13:11:06Z</time></trkpt><trkpt lat="42.26562451244181" lon="14.10757139373268"><ele>269.0</ele><time>2026-05-01T13:11:07Z</time></trkpt><trkpt lat="42.265559312912934" lon="14.107439601328371"><ele>269.0</ele><time>2026-05-01T13:11:08Z</time></trkpt><trkpt lat="42.26548074586779" lon="14.107319925406188"><ele>269.2</ele><time>2026-05-01T13:11:09Z</time></trkpt><trkpt lat="42.26543282654086" lon="14.107183098359211"><ele>269.4</ele><time>2026-05-01T13:11:10Z</time></trkpt><trkpt lat="42.2653942785271" lon="14.107082477832119"><ele>269.6</ele><time>2026-05-01T13:11:11Z</time></trkpt><trkpt lat="42.265343715869626" lon="14.106994419435336"><ele>269.8</ele><time>2026-05-01T13:11:28Z</time></trkpt><trkpt lat="42.265422346854535" lon="14.106898895024429"><ele>270.0</ele><time>2026-05-01T13:11:31Z</time></trkpt><trkpt lat="42.26548069640015" lon="14.106780653148457"><ele>270.0</ele><time>2026-05-01T13:11:33Z</time></trkpt><trkpt lat="42.26551502357499" lon="14.10669879949073"><ele>270.0</ele><time>2026-05-01T13:11:34Z</time></trkpt><trkpt lat="42.265554885339505" lon="14.10661342181561"><ele>270.0</ele><time>2026-05-01T13:11:35Z</time></trkpt><trkpt lat="42.26559780222075" lon="14.106531269880268"><ele>270.0</ele><time>2026-05-01T13:11:36Z</time></trkpt><trkpt lat="42.26564947378839" lon="14.106461198466855"><ele>270.0</ele><time>2026-05-01T13:11:37Z</time></trkpt><trkpt lat="42.26573783060924" lon="14.10640706580381"><ele>270.0</ele><time>2026-05-01T13:11:39Z</time></trkpt><trkpt lat="42.26584484964005" lon="14.106345399841622"><ele>265.8333333333333</ele><time>2026-05-01T13:11:41Z</time></trkpt><trkpt lat="42.265949086936374" lon="14.106261815957245"><ele>261.6666666666667</ele><time>2026-05-01T13:11:43Z</time></trkpt><trkpt lat="42.26603834756522" lon="14.106153978142538"><ele>257.5</ele><time>2026-05-01T13:11:45Z</time></trkpt><trkpt lat="42.26608394425762" lon="14.106086925153067"><ele>253.33333333333334</ele><time>2026-05-01T13:11:46Z</time></trkpt><trkpt lat="42.26612142951194" lon="14.10601090955193"><ele>249.16666666666669</ele><time>2026-05-01T13:11:47Z</time></trkpt><trkpt lat="42.26615192968889" lon="14.105935651227519"><ele>245.0</ele><time>2026-05-01T13:11:48Z</time></trkpt><trkpt lat="42.26618053880987" lon="14.105843931681514"><ele>240.4</ele><time>2026-05-01T13:11:49Z</time></trkpt><trkpt lat="42.26621896711887" lon="14.105676175473327"><ele>235.8</ele><time>2026-05-01T13:11:51Z</time></trkpt><trkpt lat="42.26623292415594" lon="14.10559031160098"><ele>231.2</ele><time>2026-05-01T13:11:52Z</time></trkpt><trkpt lat="42.26625158700478" lon="14.105497482025621"><ele>226.6</ele><time>2026-05-01T13:11:52.999Z</time></trkpt><trkpt lat="42.266285494220334" lon="14.105348383312043"><ele>222.0</ele><time>2026-05-01T13:11:54.999Z</time></trkpt><trkpt lat="42.26631523869655" lon="14.105212459499954"><ele>222.0</ele><time>2026-05-01T13:11:56.999Z</time></trkpt><trkpt lat="42.26635542246824" lon="14.105083211488088"><ele>222.0</ele><time>2026-05-01T13:11:58.999Z</time></trkpt><trkpt lat="42.26639973011298" lon="14.105012251482664"><ele>222.0</ele><time>2026-05-01T13:11:59.999Z</time></trkpt><trkpt lat="42.266454967567746" lon="14.104941229989887"><ele>222.0</ele><time>2026-05-01T13:12:00.999Z</time></trkpt><trkpt lat="42.266531377738666" lon="14.10487677257862"><ele>222.0</ele><time>2026-05-01T13:12:01.999Z</time></trkpt><trkpt lat="42.26660536992454" lon="14.104814037817619"><ele>222.0</ele><time>2026-05-01T13:12:02.999Z</time></trkpt><trkpt lat="42.26668226775456" lon="14.104767554329564"><ele>218.8</ele><time>2026-05-01T13:12:03.999Z</time></trkpt><trkpt lat="42.26676721774317" lon="14.104740062065796"><ele>215.6</ele><time>2026-05-01T13:12:04.999Z</time></trkpt><trkpt lat="42.26685911256329" lon="14.10472897624313"><ele>212.4</ele><time>2026-05-01T13:12:05.999Z</time></trkpt><trkpt lat="42.26694686303527" lon="14.104731633626548"><ele>209.20000000000002</ele><time>2026-05-01T13:12:06.999Z</time></trkpt><trkpt lat="42.267044667813714" lon="14.104720300818862"><ele>206.0</ele><time>2026-05-01T13:12:07.999Z</time></trkpt><trkpt lat="42.26715433277957" lon="14.104702518350546"><ele>206.0</ele><time>2026-05-01T13:12:08.999Z</time></trkpt><trkpt lat="42.267271248366235" lon="14.104673618561078"><ele>206.0</ele><time>2026-05-01T13:12:09.999Z</time></trkpt><trkpt lat="42.267391375363566" lon="14.104642592439687"><ele>206.0</ele><time>2026-05-01T13:12:10.999Z</time></trkpt><trkpt lat="42.26750958825823" lon="14.104610479107071"><ele>206.0</ele><time>2026-05-01T13:12:11.999Z</time></trkpt><trkpt lat="42.267616840028445" lon="14.104591980426486"><ele>206.75</ele><time>2026-05-01T13:12:13.001Z</time></trkpt><trkpt lat="42.267747850099724" lon="14.104581270783232"><ele>207.5</ele><time>2026-05-01T13:12:14.001Z</time></trkpt><trkpt lat="42.26788990822008" lon="14.104536063810356"><ele>208.25</ele><time>2026-05-01T13:12:15.001Z</time></trkpt><trkpt lat="42.26803850943815" lon="14.10452792406084"><ele>209.0</ele><time>2026-05-01T13:12:16.001Z</time></trkpt><trkpt lat="42.26818934912685" lon="14.104494638279974"><ele>210.0</ele><time>2026-05-01T13:12:17.001Z</time></trkpt><trkpt lat="42.268323100407656" lon="14.104464268888403"><ele>211.0</ele><time>2026-05-01T13:12:18.001Z</time></trkpt><trkpt lat="42.26843727539387" lon="14.104420069952123"><ele>211.99999999999997</ele><time>2026-05-01T13:12:19.001Z</time></trkpt><trkpt lat="42.268514100407025" lon="14.104400156807923"><ele>213.0</ele><time>2026-05-01T13:12:20.001Z</time></trkpt><trkpt lat="42.268625808400884" lon="14.104387276321892"><ele>214.0</ele><time>2026-05-01T13:12:22.001Z</time></trkpt><trkpt lat="42.268746892939944" lon="14.104413814434633"><ele>214.0</ele><time>2026-05-01T13:12:24.001Z</time></trkpt><trkpt lat="42.26882178188146" lon="14.104439244563206"><ele>213.99999999999997</ele><time>2026-05-01T13:12:25.001Z</time></trkpt><trkpt lat="42.268913436444016" lon="14.104452903952385"><ele>213.99999999999997</ele><time>2026-05-01T13:12:26.001Z</time></trkpt><trkpt lat="42.26901496933914" lon="14.104478735779283"><ele>214.0</ele><time>2026-05-01T13:12:27.001Z</time></trkpt><trkpt lat="42.2691216595659" lon="14.104511405978052"><ele>214.0</ele><time>2026-05-01T13:12:28.001Z</time></trkpt><trkpt lat="42.26923081189783" lon="14.104540186765005"><ele>213.79999999999998</ele><time>2026-05-01T13:12:29Z</time></trkpt><trkpt lat="42.26931926824317" lon="14.104578427279694"><ele>213.59999999999997</ele><time>2026-05-01T13:12:30Z</time></trkpt><trkpt lat="42.26941507366793" lon="14.104626096506342"><ele>213.4</ele><time>2026-05-01T13:12:31Z</time></trkpt><trkpt lat="42.26951143326035" lon="14.10464510840696"><ele>213.2</ele><time>2026-05-01T13:12:32Z</time></trkpt><trkpt lat="42.26961521786672" lon="14.104630868908783"><ele>213.0</ele><time>2026-05-01T13:12:33Z</time></trkpt><trkpt lat="42.269729260808944" lon="14.104597440619045"><ele>214.25</ele><time>2026-05-01T13:12:34Z</time></trkpt><trkpt lat="42.26985066596843" lon="14.104570078077549"><ele>215.5</ele><time>2026-05-01T13:12:35Z</time></trkpt><trkpt lat="42.26996946681934" lon="14.104580028913384"><ele>216.75</ele><time>2026-05-01T13:12:36Z</time></trkpt><trkpt lat="42.27009014190083" lon="14.104606143745809"><ele>218.0</ele><time>2026-05-01T13:12:37Z</time></trkpt><trkpt lat="42.27020138665797" lon="14.104627276364235"><ele>218.0</ele><time>2026-05-01T13:12:38Z</time></trkpt><trkpt lat="42.27031051074014" lon="14.104638093765594"><ele>218.0</ele><time>2026-05-01T13:12:39Z</time></trkpt><trkpt lat="42.27041044767513" lon="14.104634294957416"><ele>218.0</ele><time>2026-05-01T13:12:40Z</time></trkpt><trkpt lat="42.270513023905785" lon="14.104630602154902"><ele>218.0</ele><time>2026-05-01T13:12:41Z</time></trkpt><trkpt lat="42.27061053685585" lon="14.10461707244304"><ele>218.0</ele><time>2026-05-01T13:12:42Z</time></trkpt><trkpt lat="42.27067528297844" lon="14.104610077423091"><ele>217.60000000000002</ele><time>2026-05-01T13:12:43Z</time></trkpt><trkpt lat="42.27075412258286" lon="14.104587531169058"><ele>217.20000000000002</ele><time>2026-05-01T13:12:44Z</time></trkpt><trkpt lat="42.27086742394329" lon="14.104568197055428"><ele>216.8</ele><time>2026-05-01T13:12:45Z</time></trkpt><trkpt lat="42.27097744611736" lon="14.104541134849535"><ele>216.4</ele><time>2026-05-01T13:12:46Z</time></trkpt><trkpt lat="42.27109036173225" lon="14.104499505852724"><ele>216.0</ele><time>2026-05-01T13:12:47Z</time></trkpt><trkpt lat="42.271219180986826" lon="14.104458565733745"><ele>216.0</ele><time>2026-05-01T13:12:48Z</time></trkpt><trkpt lat="42.27135406670053" lon="14.104438704020392"><ele>216.00000000000003</ele><time>2026-05-01T13:12:49Z</time></trkpt><trkpt lat="42.27147679362843" lon="14.104430574069239"><ele>216.00000000000003</ele><time>2026-05-01T13:12:49.999Z</time></trkpt><trkpt lat="42.271577522817445" lon="14.104426503813546"><ele>216.0</ele><time>2026-05-01T13:12:50.999Z</time></trkpt><trkpt lat="42.27165944158675" lon="14.104398381394866"><ele>216.0</ele><time>2026-05-01T13:12:51.999Z</time></trkpt><trkpt lat="42.27174853260612" lon="14.104327813924947"><ele>214.25</ele><time>2026-05-01T13:12:52.999Z</time></trkpt><trkpt lat="42.271854536813926" lon="14.104218280638326"><ele>212.5</ele><time>2026-05-01T13:12:53.999Z</time></trkpt><trkpt lat="42.27196105986698" lon="14.104103099931224"><ele>210.75</ele><time>2026-05-01T13:12:54.999Z</time></trkpt><trkpt lat="42.272019894794816" lon="14.104002068525274"><ele>209.0</ele><time>2026-05-01T13:12:55.999Z</time></trkpt><trkpt lat="42.27206154437303" lon="14.103890999569375"><ele>206.2</ele><time>2026-05-01T13:12:56.999Z</time></trkpt><trkpt lat="42.27208705577001" lon="14.103797481242633"><ele>203.39999999999998</ele><time>2026-05-01T13:12:57.999Z</time></trkpt><trkpt lat="42.27210909310194" lon="14.10368882003319"><ele>200.6</ele><time>2026-05-01T13:12:58.999Z</time></trkpt><trkpt lat="42.27213717318382" lon="14.103555200695645"><ele>197.8</ele><time>2026-05-01T13:12:59.999Z</time></trkpt><trkpt lat="42.27217975874235" lon="14.103385704311988"><ele>195.0</ele><time>2026-05-01T13:13:00.999Z</time></trkpt><trkpt lat="42.2722143092891" lon="14.103193612143874"><ele>192.8</ele><time>2026-05-01T13:13:01.999Z</time></trkpt><trkpt lat="42.27222412441312" lon="14.10300441275246"><ele>190.6</ele><time>2026-05-01T13:13:02.999Z</time></trkpt><trkpt lat="42.272218280050616" lon="14.102868841177097"><ele>188.39999999999998</ele><time>2026-05-01T13:13:03.999Z</time></trkpt><trkpt lat="42.272237550957804" lon="14.102772279822105"><ele>186.2</ele><time>2026-05-01T13:13:04.999Z</time></trkpt><trkpt lat="42.27228761172132" lon="14.102702340696984"><ele>184.0</ele><time>2026-05-01T13:13:05.999Z</time></trkpt><trkpt lat="42.27236612958585" lon="14.10262046233262"><ele>186.0</ele><time>2026-05-01T13:13:06.999Z</time></trkpt><trkpt lat="42.272467542768744" lon="14.102545254397183"><ele>188.0</ele><time>2026-05-01T13:13:07.999Z</time></trkpt><trkpt lat="42.272591493282285" lon="14.102452586341563"><ele>190.0</ele><time>2026-05-01T13:13:08.999Z</time></trkpt><trkpt lat="42.27269954050746" lon="14.102356449599917"><ele>192.0</ele><time>2026-05-01T13:13:09.999Z</time></trkpt><trkpt lat="42.27278323249003" lon="14.102258695144776"><ele>192.0</ele><time>2026-05-01T13:13:10.999Z</time></trkpt><trkpt lat="42.27284128342472" lon="14.102137425037533"><ele>192.0</ele><time>2026-05-01T13:13:11.999Z</time></trkpt><trkpt lat="42.272872517932285" lon="14.102007130929614"><ele>192.0</ele><time>2026-05-01T13:13:12.999Z</time></trkpt><trkpt lat="42.2728949670726" lon="14.101876344578761"><ele>192.0</ele><time>2026-05-01T13:13:13.999Z</time></trkpt><trkpt lat="42.272922544858815" lon="14.10176128249795"><ele>192.0</ele><time>2026-05-01T13:13:14.999Z</time></trkpt><trkpt lat="42.272966305457835" lon="14.10165161913904"><ele>191.83333333333334</ele><time>2026-05-01T13:13:15.999Z</time></trkpt><trkpt lat="42.27302230706231" lon="14.101566167570645"><ele>191.66666666666666</ele><time>2026-05-01T13:13:16.999Z</time></trkpt><trkpt lat="42.27307579303906" lon="14.10151092466164"><ele>191.5</ele><time>2026-05-01T13:13:17.999Z</time></trkpt><trkpt lat="42.27314366286885" lon="14.10146333666964"><ele>191.33333333333331</ele><time>2026-05-01T13:13:18.999Z</time></trkpt><trkpt lat="42.27322329273587" lon="14.101443065420627"><ele>191.16666666666666</ele><time>2026-05-01T13:13:19.999Z</time></trkpt><trkpt lat="42.27330768325489" lon="14.101459480226877"><ele>191.0</ele><time>2026-05-01T13:13:20.999Z</time></trkpt><trkpt lat="42.27339027282652" lon="14.101497549925753"><ele>191.0</ele><time>2026-05-01T13:13:21.999Z</time></trkpt><trkpt lat="42.273473852540164" lon="14.1015319752107"><ele>191.0</ele><time>2026-05-01T13:13:22.999Z</time></trkpt><trkpt lat="42.27356058577125" lon="14.101565245965762"><ele>191.0</ele><time>2026-05-01T13:13:23.999Z</time></trkpt><trkpt lat="42.2736410591561" lon="14.101600545497316"><ele>191.0</ele><time>2026-05-01T13:13:24.999Z</time></trkpt><trkpt lat="42.2737231999112" lon="14.101629417217953"><ele>191.0</ele><time>2026-05-01T13:13:25.999Z</time></trkpt><trkpt lat="42.273803616976814" lon="14.101669525990687"><ele>191.0</ele><time>2026-05-01T13:13:26.999Z</time></trkpt><trkpt lat="42.27388919155327" lon="14.101704655072188"><ele>189.8</ele><time>2026-05-01T13:13:27.999Z</time></trkpt><trkpt lat="42.27397516992787" lon="14.101738827192584"><ele>188.60000000000002</ele><time>2026-05-01T13:13:28.999Z</time></trkpt><trkpt lat="42.27406458526827" lon="14.101772009308187"><ele>187.4</ele><time>2026-05-01T13:13:29.999Z</time></trkpt><trkpt lat="42.274163340423776" lon="14.101792418278931"><ele>186.2</ele><time>2026-05-01T13:13:30.999Z</time></trkpt><trkpt lat="42.2742667505494" lon="14.1017995592443"><ele>185.0</ele><time>2026-05-01T13:13:31.999Z</time></trkpt><trkpt lat="42.27433681683059" lon="14.101803226061113"><ele>185.0</ele><time>2026-05-01T13:13:32.999Z</time></trkpt><trkpt lat="42.27442732674905" lon="14.10178051354679"><ele>185.0</ele><time>2026-05-01T13:13:33.999Z</time></trkpt><trkpt lat="42.27450437300891" lon="14.101740286575263"><ele>185.0</ele><time>2026-05-01T13:13:34.999Z</time></trkpt><trkpt lat="42.27458169012821" lon="14.101693312638009"><ele>185.0</ele><time>2026-05-01T13:13:35.999Z</time></trkpt><trkpt lat="42.27465550266815" lon="14.101624949733043"><ele>185.0</ele><time>2026-05-01T13:13:36.999Z</time></trkpt><trkpt lat="42.27473961181269" lon="14.101531361299582"><ele>183.8</ele><time>2026-05-01T13:13:37.999Z</time></trkpt><trkpt lat="42.274835160405296" lon="14.101401402053536"><ele>182.6</ele><time>2026-05-01T13:13:38.999Z</time></trkpt><trkpt lat="42.274897273386095" lon="14.1012896949426"><ele>181.39999999999998</ele><time>2026-05-01T13:13:39.999Z</time></trkpt><trkpt lat="42.27493746509211" lon="14.101194595236628"><ele>180.2</ele><time>2026-05-01T13:13:40.999Z</time></trkpt><trkpt lat="42.27498460855255" lon="14.101049579602618"><ele>179.0</ele><time>2026-05-01T13:13:41.999Z</time></trkpt><trkpt lat="42.275031835501764" lon="14.100887844823562"><ele>177.75</ele><time>2026-05-01T13:13:42.999Z</time></trkpt><trkpt lat="42.275089926994674" lon="14.100739582658775"><ele>176.5</ele><time>2026-05-01T13:13:43.999Z</time></trkpt><trkpt lat="42.27515620049695" lon="14.100589412359879"><ele>175.25</ele><time>2026-05-01T13:13:44.999Z</time></trkpt><trkpt lat="42.27522563436265" lon="14.100431438619133"><ele>174.0</ele><time>2026-05-01T13:13:45.999Z</time></trkpt><trkpt lat="42.27529219266187" lon="14.100265609743188"><ele>174.0</ele><time>2026-05-01T13:13:46.999Z</time></trkpt><trkpt lat="42.275349734826825" lon="14.100107973937954"><ele>174.0</ele><time>2026-05-01T13:13:47.999Z</time></trkpt><trkpt lat="42.27541287192606" lon="14.099950529418464"><ele>174.0</ele><time>2026-05-01T13:13:48.999Z</time></trkpt><trkpt lat="42.27546758748315" lon="14.099787132913338"><ele>174.0</ele><time>2026-05-01T13:13:49.999Z</time></trkpt><trkpt lat="42.2755094142807" lon="14.099598808211608"><ele>174.33333333333334</ele><time>2026-05-01T13:13:50.999Z</time></trkpt><trkpt lat="42.275517080526726" lon="14.099396941883382"><ele>174.66666666666669</ele><time>2026-05-01T13:13:51.999Z</time></trkpt><trkpt lat="42.27548804706793" lon="14.099178069717821"><ele>175.0</ele><time>2026-05-01T13:13:52.999Z</time></trkpt><trkpt lat="42.275443183360025" lon="14.09894256544204"><ele>176.66666666666669</ele><time>2026-05-01T13:13:53.999Z</time></trkpt><trkpt lat="42.27540069206501" lon="14.098727823147811"><ele>178.33333333333334</ele><time>2026-05-01T13:13:54.999Z</time></trkpt><trkpt lat="42.275382068928664" lon="14.098522963362557"><ele>180.0</ele><time>2026-05-01T13:13:55.999Z</time></trkpt><trkpt lat="42.27533419704987" lon="14.098304203240774"><ele>180.0</ele><time>2026-05-01T13:13:56.999Z</time></trkpt><trkpt lat="42.275327560246" lon="14.0980784712474"><ele>180.0</ele><time>2026-05-01T13:13:57.999Z</time></trkpt><trkpt lat="42.27532081968797" lon="14.09786121641124"><ele>180.0</ele><time>2026-05-01T13:13:58.999Z</time></trkpt><trkpt lat="42.2753181792815" lon="14.097648270536578"><ele>180.0</ele><time>2026-05-01T13:13:59.999Z</time></trkpt><trkpt lat="42.275337087955435" lon="14.097448244895293"><ele>180.0</ele><time>2026-05-01T13:14:00.999Z</time></trkpt><trkpt lat="42.27535153326506" lon="14.09726745294277"><ele>180.0</ele><time>2026-05-01T13:14:01.999Z</time></trkpt><trkpt lat="42.27536806234386" lon="14.09710136202392"><ele>180.0</ele><time>2026-05-01T13:14:02.999Z</time></trkpt><trkpt lat="42.27538837813943" lon="14.096921856510928"><ele>178.75</ele><time>2026-05-01T13:14:03.999Z</time></trkpt><trkpt lat="42.275408249172216" lon="14.09672620987482"><ele>177.5</ele><time>2026-05-01T13:14:04.999Z</time></trkpt><trkpt lat="42.275429645509725" lon="14.096530356705953"><ele>176.25</ele><time>2026-05-01T13:14:05.999Z</time></trkpt><trkpt lat="42.27544912979528" lon="14.096341467236089"><ele>175.0</ele><time>2026-05-01T13:14:06.998Z</time></trkpt><trkpt lat="42.27547016993687" lon="14.0961554884876"><ele>173.25</ele><time>2026-05-01T13:14:07.998Z</time></trkpt><trkpt lat="42.275496303512625" lon="14.095978627547495"><ele>171.5</ele><time>2026-05-01T13:14:08.998Z</time></trkpt><trkpt lat="42.275527938311" lon="14.09581280093764"><ele>169.75</ele><time>2026-05-01T13:14:09.998Z</time></trkpt><trkpt lat="42.27558051417311" lon="14.095682029139107"><ele>168.0</ele><time>2026-05-01T13:14:10.998Z</time></trkpt><trkpt lat="42.275586899233794" lon="14.095556142254956"><ele>167.5</ele><time>2026-05-01T13:14:11.998Z</time></trkpt><trkpt lat="42.27561120287839" lon="14.095438903660849"><ele>167.0</ele><time>2026-05-01T13:14:12.998Z</time></trkpt><trkpt lat="42.27559359345235" lon="14.095326364975694"><ele>166.5</ele><time>2026-05-01T13:14:13.998Z</time></trkpt><trkpt lat="42.275604577394134" lon="14.095228318971536"><ele>166.0</ele><time>2026-05-01T13:14:14.998Z</time></trkpt><trkpt lat="42.27565042976771" lon="14.095153025237071"><ele>165.5</ele><time>2026-05-01T13:14:15.998Z</time></trkpt><trkpt lat="42.275742851297125" lon="14.09511970862065"><ele>165.0</ele><time>2026-05-01T13:14:16.998Z</time></trkpt><trkpt lat="42.27587929131114" lon="14.095057931541012"><ele>165.0</ele><time>2026-05-01T13:14:17.998Z</time></trkpt><trkpt lat="42.276000503785156" lon="14.095003352380466"><ele>165.0</ele><time>2026-05-01T13:14:19Z</time></trkpt><trkpt lat="42.27610508279769" lon="14.094941341130696"><ele>165.0</ele><time>2026-05-01T13:14:20Z</time></trkpt><trkpt lat="42.276211488547446" lon="14.094874688227021"><ele>165.0</ele><time>2026-05-01T13:14:21Z</time></trkpt><trkpt lat="42.27632856382141" lon="14.094811205219195"><ele>162.25</ele><time>2026-05-01T13:14:22Z</time></trkpt><trkpt lat="42.27644784387102" lon="14.094742597194209"><ele>159.5</ele><time>2026-05-01T13:14:23Z</time></trkpt><trkpt lat="42.27656685798109" lon="14.094665103175192"><ele>156.75</ele><time>2026-05-01T13:14:24Z</time></trkpt><trkpt lat="42.27667281977861" lon="14.094574156696021"><ele>154.0</ele><time>2026-05-01T13:14:25Z</time></trkpt><trkpt lat="42.2767730196972" lon="14.094447954167345"><ele>154.0</ele><time>2026-05-01T13:14:26Z</time></trkpt><trkpt lat="42.27685585243347" lon="14.09428077519096"><ele>154.0</ele><time>2026-05-01T13:14:27Z</time></trkpt><trkpt lat="42.2769006838847" lon="14.094079409224817"><ele>154.0</ele><time>2026-05-01T13:14:28Z</time></trkpt><trkpt lat="42.276938319033036" lon="14.09384443655519"><ele>151.0</ele><time>2026-05-01T13:14:29Z</time></trkpt><trkpt lat="42.276977365440224" lon="14.093615777727072"><ele>148.0</ele><time>2026-05-01T13:14:30Z</time></trkpt><trkpt lat="42.27701565011756" lon="14.093413573270563"><ele>145.0</ele><time>2026-05-01T13:14:31Z</time></trkpt><trkpt lat="42.27705301996734" lon="14.093221356635201"><ele>142.75</ele><time>2026-05-01T13:14:32Z</time></trkpt><trkpt lat="42.277087369592216" lon="14.093045121415525"><ele>140.5</ele><time>2026-05-01T13:14:33Z</time></trkpt><trkpt lat="42.27711335090633" lon="14.092879918987167"><ele>138.25</ele><time>2026-05-01T13:14:34Z</time></trkpt><trkpt lat="42.277131951243405" lon="14.09271330174854"><ele>136.0</ele><time>2026-05-01T13:14:35Z</time></trkpt><trkpt lat="42.277142746211226" lon="14.092529798002941"><ele>133.75</ele><time>2026-05-01T13:14:36Z</time></trkpt><trkpt lat="42.27714997713517" lon="14.092333436459315"><ele>131.5</ele><time>2026-05-01T13:14:37Z</time></trkpt><trkpt lat="42.27714341566991" lon="14.092131272086323"><ele>129.25</ele><time>2026-05-01T13:14:38Z</time></trkpt><trkpt lat="42.27714459204318" lon="14.091960192163178"><ele>127.0</ele><time>2026-05-01T13:14:39Z</time></trkpt><trkpt lat="42.27714836762254" lon="14.091788504606935"><ele>127.0</ele><time>2026-05-01T13:14:40Z</time></trkpt><trkpt lat="42.27715577196731" lon="14.091622743698485"><ele>127.0</ele><time>2026-05-01T13:14:41Z</time></trkpt><trkpt lat="42.27717679330657" lon="14.09147291461593"><ele>127.0</ele><time>2026-05-01T13:14:42Z</time></trkpt><trkpt lat="42.2772111792241" lon="14.091327297078736"><ele>127.0</ele><time>2026-05-01T13:14:42.999Z</time></trkpt><trkpt lat="42.27725442566523" lon="14.091194785512185"><ele>128.2</ele><time>2026-05-01T13:14:43.999Z</time></trkpt><trkpt lat="42.277309418846194" lon="14.091085993936735"><ele>129.39999999999998</ele><time>2026-05-01T13:14:44.999Z</time></trkpt><trkpt lat="42.27738088302081" lon="14.091011835186613"><ele>130.60000000000002</ele><time>2026-05-01T13:14:45.999Z</time></trkpt><trkpt lat="42.277474913255226" lon="14.091003757293805"><ele>131.8</ele><time>2026-05-01T13:14:46.999Z</time></trkpt><trkpt lat="42.27758383964672" lon="14.091082591059807"><ele>133.0</ele><time>2026-05-01T13:14:47.999Z</time></trkpt><trkpt lat="42.27771298607316" lon="14.091158095735693"><ele>133.0</ele><time>2026-05-01T13:14:48.999Z</time></trkpt><trkpt lat="42.277803013031225" lon="14.091234204209014"><ele>133.0</ele><time>2026-05-01T13:14:49.999Z</time></trkpt><trkpt lat="42.27788726904289" lon="14.09125950896695"><ele>133.0</ele><time>2026-05-01T13:14:50.999Z</time></trkpt><trkpt lat="42.277962497478285" lon="14.091259175795724"><ele>133.0</ele><time>2026-05-01T13:14:51.999Z</time></trkpt><trkpt lat="42.278028730978804" lon="14.091232933308506"><ele>133.0</ele><time>2026-05-01T13:14:52.999Z</time></trkpt><trkpt lat="42.278055704934424" lon="14.091098202622584"><ele>133.0</ele><time>2026-05-01T13:14:53.999Z</time></trkpt><trkpt lat="42.27804879791249" lon="14.09094353203078"><ele>133.0</ele><time>2026-05-01T13:14:54.999Z</time></trkpt><trkpt lat="42.27804355701705" lon="14.090828776593371"><ele>133.0</ele><time>2026-05-01T13:14:55.999Z</time></trkpt><trkpt lat="42.27803335754093" lon="14.09073996161368"><ele>133.0</ele><time>2026-05-01T13:14:56.999Z</time></trkpt><trkpt lat="42.27801057530591" lon="14.090631586567616"><ele>133.0</ele><time>2026-05-01T13:14:58.999Z</time></trkpt><trkpt lat="42.27810345445379" lon="14.09072888949735"><ele>133.0</ele><time>2026-05-01T13:15:02.999Z</time></trkpt><trkpt lat="42.278157252367535" lon="14.09084386041262"><ele>129.75</ele><time>2026-05-01T13:15:03.999Z</time></trkpt><trkpt lat="42.27820148457819" lon="14.09096396491091"><ele>126.5</ele><time>2026-05-01T13:15:04.999Z</time></trkpt><trkpt lat="42.278255346147425" lon="14.091091433444667"><ele>123.25</ele><time>2026-05-01T13:15:05.999Z</time></trkpt><trkpt lat="42.27829173704963" lon="14.091233738113715"><ele>120.0</ele><time>2026-05-01T13:15:06.999Z</time></trkpt><trkpt lat="42.27833767124093" lon="14.091404319342356"><ele>120.0</ele><time>2026-05-01T13:15:07.999Z</time></trkpt><trkpt lat="42.27839092839209" lon="14.091583440021994"><ele>120.0</ele><time>2026-05-01T13:15:08.999Z</time></trkpt><trkpt lat="42.278428497712895" lon="14.091778525200633"><ele>120.0</ele><time>2026-05-01T13:15:09.999Z</time></trkpt><trkpt lat="42.27846622248232" lon="14.091982379047545"><ele>120.0</ele><time>2026-05-01T13:15:10.999Z</time></trkpt><trkpt lat="42.278484916019586" lon="14.092187513469284"><ele>121.0</ele><time>2026-05-01T13:15:11.999Z</time></trkpt><trkpt lat="42.27851189092225" lon="14.09240501176353"><ele>122.0</ele><time>2026-05-01T13:15:12.999Z</time></trkpt><trkpt lat="42.278534706128376" lon="14.092595601819378"><ele>123.0</ele><time>2026-05-01T13:15:13.999Z</time></trkpt><trkpt lat="42.278578478969294" lon="14.092757768920988"><ele>124.0</ele><time>2026-05-01T13:15:14.999Z</time></trkpt><trkpt lat="42.27862766143675" lon="14.092902750052266"><ele>124.2</ele><time>2026-05-01T13:15:15.999Z</time></trkpt><trkpt lat="42.27869441307175" lon="14.09303348603117"><ele>124.4</ele><time>2026-05-01T13:15:16.999Z</time></trkpt><trkpt lat="42.27877361176463" lon="14.093144246430018"><ele>124.6</ele><time>2026-05-01T13:15:17.999Z</time></trkpt><trkpt lat="42.27886702842306" lon="14.093221414923407"><ele>124.8</ele><time>2026-05-01T13:15:18.999Z</time></trkpt><trkpt lat="42.27897300744273" lon="14.0932469750388"><ele>125.0</ele><time>2026-05-01T13:15:19.999Z</time></trkpt><trkpt lat="42.27908846060932" lon="14.093212398334568"><ele>122.75</ele><time>2026-05-01T13:15:20.999Z</time></trkpt><trkpt lat="42.27921600297132" lon="14.093144472538738"><ele>120.5</ele><time>2026-05-01T13:15:21.999Z</time></trkpt><trkpt lat="42.279322369373475" lon="14.093140342510614"><ele>118.25</ele><time>2026-05-01T13:15:22.999Z</time></trkpt><trkpt lat="42.27942754419961" lon="14.09314262869254"><ele>116.0</ele><time>2026-05-01T13:15:23.999Z</time></trkpt><trkpt lat="42.279518986661806" lon="14.093276109877225"><ele>116.0</ele><time>2026-05-01T13:15:24.999Z</time></trkpt><trkpt lat="42.27960999165576" lon="14.093391539296006"><ele>116.0</ele><time>2026-05-01T13:15:25.999Z</time></trkpt><trkpt lat="42.27971964675639" lon="14.093514299535174"><ele>116.0</ele><time>2026-05-01T13:15:26.999Z</time></trkpt><trkpt lat="42.27982125954382" lon="14.093663423045927"><ele>116.0</ele><time>2026-05-01T13:15:27.999Z</time></trkpt><trkpt lat="42.279927748294014" lon="14.093787398114236"><ele>113.0</ele><time>2026-05-01T13:15:28.999Z</time></trkpt><trkpt lat="42.28003132921343" lon="14.09388041474618"><ele>110.0</ele><time>2026-05-01T13:15:29.999Z</time></trkpt><trkpt lat="42.28010479775808" lon="14.093967536250936"><ele>107.0</ele><time>2026-05-01T13:15:30.999Z</time></trkpt><trkpt lat="42.28014892850081" lon="14.09408735506455"><ele>104.0</ele><time>2026-05-01T13:15:31.999Z</time></trkpt><trkpt lat="42.28012434916193" lon="14.094248906277407"><ele>101.0</ele><time>2026-05-01T13:15:32.999Z</time></trkpt><trkpt lat="42.2801307046613" lon="14.094436205525081"><ele>100.66666666666666</ele><time>2026-05-01T13:15:33.999Z</time></trkpt><trkpt lat="42.28013509871852" lon="14.094652679945664"><ele>100.33333333333334</ele><time>2026-05-01T13:15:34.999Z</time></trkpt><trkpt lat="42.28016264515722" lon="14.09488758796869"><ele>100.0</ele><time>2026-05-01T13:15:35.999Z</time></trkpt><trkpt lat="42.28017635342655" lon="14.095136842448769"><ele>100.0</ele><time>2026-05-01T13:15:36.999Z</time></trkpt><trkpt lat="42.2801947068288" lon="14.095397371687376"><ele>100.0</ele><time>2026-05-01T13:15:37.999Z</time></trkpt><trkpt lat="42.28021088258207" lon="14.095639586366229"><ele>100.0</ele><time>2026-05-01T13:15:38.999Z</time></trkpt><trkpt lat="42.28023174150366" lon="14.09586663345445"><ele>100.0</ele><time>2026-05-01T13:15:39.999Z</time></trkpt><trkpt lat="42.28025597217629" lon="14.096092304063719"><ele>100.0</ele><time>2026-05-01T13:15:40.999Z</time></trkpt><trkpt lat="42.280287038471556" lon="14.096318161903898"><ele>100.0</ele><time>2026-05-01T13:15:41.999Z</time></trkpt><trkpt lat="42.280333968007994" lon="14.096557661647608"><ele>101.0</ele><time>2026-05-01T13:15:42.999Z</time></trkpt><trkpt lat="42.280391087307656" lon="14.096780375182345"><ele>102.0</ele><time>2026-05-01T13:15:43.999Z</time></trkpt><trkpt lat="42.28043554154427" lon="14.096987884321987"><ele>103.0</ele><time>2026-05-01T13:15:44.999Z</time></trkpt><trkpt lat="42.28043186841278" lon="14.097199552439086"><ele>103.0</ele><time>2026-05-01T13:15:45.999Z</time></trkpt><trkpt lat="42.280454080790385" lon="14.097417844404792"><ele>103.0</ele><time>2026-05-01T13:15:46.999Z</time></trkpt><trkpt lat="42.28046774560338" lon="14.097635335276813"><ele>103.0</ele><time>2026-05-01T13:15:47.999Z</time></trkpt><trkpt lat="42.280512601658735" lon="14.09789651645792"><ele>103.0</ele><time>2026-05-01T13:15:48.999Z</time></trkpt><trkpt lat="42.28056873382265" lon="14.098157625274096"><ele>103.0</ele><time>2026-05-01T13:15:49.999Z</time></trkpt><trkpt lat="42.28062596705069" lon="14.0984316334079"><ele>103.0</ele><time>2026-05-01T13:15:50.999Z</time></trkpt><trkpt lat="42.2806823347345" lon="14.0987046512447"><ele>105.33333333333334</ele><time>2026-05-01T13:15:51.999Z</time></trkpt><trkpt lat="42.28074023193658" lon="14.098985170000809"><ele>107.66666666666666</ele><time>2026-05-01T13:15:52.999Z</time></trkpt><trkpt lat="42.28079708084467" lon="14.099232776821417"><ele>110.0</ele><time>2026-05-01T13:15:53.999Z</time></trkpt><trkpt lat="42.28083862831213" lon="14.099423302041446"><ele>111.75</ele><time>2026-05-01T13:15:54.999Z</time></trkpt><trkpt lat="42.2808790915509" lon="14.099592058481633"><ele>113.5</ele><time>2026-05-01T13:15:55.999Z</time></trkpt><trkpt lat="42.28092242556902" lon="14.09974647721311"><ele>115.25</ele><time>2026-05-01T13:15:56.999Z</time></trkpt><trkpt lat="42.28095784143618" lon="14.099879930432671"><ele>117.0</ele><time>2026-05-01T13:15:57.999Z</time></trkpt><trkpt lat="42.28098519237117" lon="14.100003743898453"><ele>118.39999999999999</ele><time>2026-05-01T13:15:58.999Z</time></trkpt><trkpt lat="42.28098658988969" lon="14.100112997287095"><ele>119.79999999999998</ele><time>2026-05-01T13:15:59.999Z</time></trkpt><trkpt lat="42.281006363400266" lon="14.100284743975713"><ele>121.2</ele><time>2026-05-01T13:16:01.999Z</time></trkpt><trkpt lat="42.28102169751718" lon="14.10040524023298"><ele>122.6</ele><time>2026-05-01T13:16:02.999Z</time></trkpt><trkpt lat="42.28103706110236" lon="14.100525968796404"><ele>124.0</ele><time>2026-05-01T13:16:03.999Z</time></trkpt><trkpt lat="42.281043043310504" lon="14.100686229350268"><ele>124.0</ele><time>2026-05-01T13:16:05.999Z</time></trkpt><trkpt lat="42.28106123236276" lon="14.100859969513566"><ele>124.0</ele><time>2026-05-01T13:16:07.999Z</time></trkpt><trkpt lat="42.281074650071794" lon="14.100957996924764"><ele>124.0</ele><time>2026-05-01T13:16:08.999Z</time></trkpt><trkpt lat="42.28108858198701" lon="14.101063985258081"><ele>124.0</ele><time>2026-05-01T13:16:09.999Z</time></trkpt><trkpt lat="42.28159325856488" lon="14.101225080620765"><ele>124.0</ele><time>2026-05-01T13:16:10.999Z</time></trkpt><trkpt lat="42.28165339515587" lon="14.10136582008364"><ele>124.0</ele><time>2026-05-01T13:16:11.999Z</time></trkpt><trkpt lat="42.28171875240191" lon="14.101506818382237"><ele>124.0</ele><time>2026-05-01T13:16:12.999Z</time></trkpt><trkpt lat="42.281790469693085" lon="14.101654088223087"><ele>124.0</ele><time>2026-05-01T13:16:13.999Z</time></trkpt><trkpt lat="42.281861782564334" lon="14.101796931288375"><ele>126.25</ele><time>2026-05-01T13:16:14.999Z</time></trkpt><trkpt lat="42.28192117410578" lon="14.101936898465867"><ele>128.5</ele><time>2026-05-01T13:16:15.999Z</time></trkpt><trkpt lat="42.28198811780792" lon="14.102081649456814"><ele>130.75</ele><time>2026-05-01T13:16:16.999Z</time></trkpt><trkpt lat="42.282058766371605" lon="14.102226504162765"><ele>133.0</ele><time>2026-05-01T13:16:17.999Z</time></trkpt><trkpt lat="42.282118959542366" lon="14.102376869988019"><ele>135.25</ele><time>2026-05-01T13:16:18.999Z</time></trkpt><trkpt lat="42.2821769052437" lon="14.102515954518848"><ele>137.5</ele><time>2026-05-01T13:16:19.999Z</time></trkpt><trkpt lat="42.28223800126765" lon="14.102661371704118"><ele>139.75</ele><time>2026-05-01T13:16:20.999Z</time></trkpt><trkpt lat="42.282306876396206" lon="14.10281331833287"><ele>142.0</ele><time>2026-05-01T13:16:21.999Z</time></trkpt><trkpt lat="42.282376992659614" lon="14.102964302012257"><ele>138.75</ele><time>2026-05-01T13:16:22.999Z</time></trkpt><trkpt lat="42.28244736432172" lon="14.103123931999306"><ele>135.5</ele><time>2026-05-01T13:16:24Z</time></trkpt><trkpt lat="42.28251199554852" lon="14.103280884056597"><ele>132.25</ele><time>2026-05-01T13:16:25Z</time></trkpt><trkpt lat="42.2825754914683" lon="14.103429573420467"><ele>129.0</ele><time>2026-05-01T13:16:26Z</time></trkpt><trkpt lat="42.28263198258591" lon="14.103565905003322"><ele>129.0</ele><time>2026-05-01T13:16:27Z</time></trkpt><trkpt lat="42.28268489758424" lon="14.103711002384772"><ele>129.0</ele><time>2026-05-01T13:16:28Z</time></trkpt><trkpt lat="42.282739685568835" lon="14.103838675014849"><ele>129.0</ele><time>2026-05-01T13:16:29Z</time></trkpt><trkpt lat="42.28279279429058" lon="14.103960119256566"><ele>129.0</ele><time>2026-05-01T13:16:30Z</time></trkpt><trkpt lat="42.282831360165076" lon="14.104077155068822"><ele>129.0</ele><time>2026-05-01T13:16:31Z</time></trkpt><trkpt lat="42.28286265006551" lon="14.104165299396715"><ele>130.4</ele><time>2026-05-01T13:16:32Z</time></trkpt><trkpt lat="42.28291392416208" lon="14.104319148426189"><ele>131.8</ele><time>2026-05-01T13:16:34Z</time></trkpt><trkpt lat="42.28294484534226" lon="14.10441219787609"><ele>133.2</ele><time>2026-05-01T13:16:35Z</time></trkpt><trkpt lat="42.282989353726585" lon="14.104543783393826"><ele>134.6</ele><time>2026-05-01T13:16:36Z</time></trkpt><trkpt lat="42.283026090942656" lon="14.104654887738482"><ele>136.0</ele><time>2026-05-01T13:16:37Z</time></trkpt><trkpt lat="42.283065595138964" lon="14.104773935656738"><ele>132.5</ele><time>2026-05-01T13:16:38Z</time></trkpt><trkpt lat="42.283115140084966" lon="14.104912518072227"><ele>129.0</ele><time>2026-05-01T13:16:39Z</time></trkpt><trkpt lat="42.283177575731266" lon="14.105061971086567"><ele>125.5</ele><time>2026-05-01T13:16:40Z</time></trkpt><trkpt lat="42.283244900118525" lon="14.10522791781394"><ele>122.0</ele><time>2026-05-01T13:16:41Z</time></trkpt><trkpt lat="42.28330342558388" lon="14.105391858885264"><ele>122.0</ele><time>2026-05-01T13:16:42Z</time></trkpt><trkpt lat="42.28334827846805" lon="14.10553052729812"><ele>121.99999999999999</ele><time>2026-05-01T13:16:43Z</time></trkpt><trkpt lat="42.28338784142173" lon="14.10565782397483"><ele>121.99999999999999</ele><time>2026-05-01T13:16:44Z</time></trkpt><trkpt lat="42.28342808453834" lon="14.10577837198645"><ele>122.0</ele><time>2026-05-01T13:16:45Z</time></trkpt><trkpt lat="42.28346189613643" lon="14.105878424524544"><ele>122.0</ele><time>2026-05-01T13:16:46Z</time></trkpt><trkpt lat="42.283497595485606" lon="14.105978426731909"><ele>123.19999999999999</ele><time>2026-05-01T13:16:47Z</time></trkpt><trkpt lat="42.28354422711797" lon="14.10609455929355"><ele>124.39999999999999</ele><time>2026-05-01T13:16:48Z</time></trkpt><trkpt lat="42.28358819735145" lon="14.106199019701906"><ele>125.60000000000001</ele><time>2026-05-01T13:16:49Z</time></trkpt><trkpt lat="42.28362948378762" lon="14.10630388758"><ele>126.80000000000001</ele><time>2026-05-01T13:16:50Z</time></trkpt><trkpt lat="42.28366654181148" lon="14.106428062060884"><ele>128.0</ele><time>2026-05-01T13:16:51Z</time></trkpt><trkpt lat="42.28370651547877" lon="14.106554528137604"><ele>129.6</ele><time>2026-05-01T13:16:52Z</time></trkpt><trkpt lat="42.28375697313811" lon="14.106708634114032"><ele>131.20000000000002</ele><time>2026-05-01T13:16:53Z</time></trkpt><trkpt lat="42.283808294870724" lon="14.106854862786358"><ele>132.8</ele><time>2026-05-01T13:16:54Z</time></trkpt><trkpt lat="42.283850574337656" lon="14.106974015141331"><ele>134.4</ele><time>2026-05-01T13:16:55Z</time></trkpt><trkpt lat="42.28388227533738" lon="14.107080270009941"><ele>136.0</ele><time>2026-05-01T13:16:56Z</time></trkpt><trkpt lat="42.28391319074968" lon="14.107170904299993"><ele>134.83333333333334</ele><time>2026-05-01T13:16:57Z</time></trkpt><trkpt lat="42.2839403360912" lon="14.107258881065148"><ele>133.66666666666669</ele><time>2026-05-01T13:16:57.999Z</time></trkpt><trkpt lat="42.283970078189235" lon="14.107359008111617"><ele>132.5</ele><time>2026-05-01T13:16:58.999Z</time></trkpt><trkpt lat="42.28400145659441" lon="14.107463869437524"><ele>131.33333333333334</ele><time>2026-05-01T13:16:59.999Z</time></trkpt><trkpt lat="42.28403544410128" lon="14.10756985908532"><ele>130.16666666666666</ele><time>2026-05-01T13:17:00.999Z</time></trkpt><trkpt lat="42.284070176534016" lon="14.107678267121118"><ele>129.0</ele><time>2026-05-01T13:17:01.999Z</time></trkpt><trkpt lat="42.284103954526344" lon="14.107799252106185"><ele>129.0</ele><time>2026-05-01T13:17:02.999Z</time></trkpt><trkpt lat="42.284137709047656" lon="14.107914194963808"><ele>129.0</ele><time>2026-05-01T13:17:03.999Z</time></trkpt><trkpt lat="42.284173633484" lon="14.108031849591194"><ele>129.0</ele><time>2026-05-01T13:17:04.999Z</time></trkpt><trkpt lat="42.284217704003204" lon="14.108156899235686"><ele>129.0</ele><time>2026-05-01T13:17:05.999Z</time></trkpt><trkpt lat="42.284256550220356" lon="14.108274288756627"><ele>129.0</ele><time>2026-05-01T13:17:06.999Z</time></trkpt><trkpt lat="42.28428385078239" lon="14.108359658019696"><ele>129.5</ele><time>2026-05-01T13:17:07.999Z</time></trkpt><trkpt lat="42.284316075431505" lon="14.108471156701528"><ele>130.0</ele><time>2026-05-01T13:17:08.999Z</time></trkpt><trkpt lat="42.28434913176711" lon="14.108571900143295"><ele>130.5</ele><time>2026-05-01T13:17:09.999Z</time></trkpt><trkpt lat="42.284381589098565" lon="14.108655093971734"><ele>131.0</ele><time>2026-05-01T13:17:10.999Z</time></trkpt><trkpt lat="42.28441596806128" lon="14.108737763055194"><ele>131.5</ele><time>2026-05-01T13:17:11.999Z</time></trkpt><trkpt lat="42.28445478561225" lon="14.108843478016443"><ele>132.0</ele><time>2026-05-01T13:17:12.999Z</time></trkpt><trkpt lat="42.28448246534826" lon="14.108942358981562"><ele>132.0</ele><time>2026-05-01T13:17:13.999Z</time></trkpt><trkpt lat="42.284522226464354" lon="14.109060271979343"><ele>132.0</ele><time>2026-05-01T13:17:15.999Z</time></trkpt><trkpt lat="42.284550637542154" lon="14.109138248340377"><ele>132.0</ele><time>2026-05-01T13:17:18.999Z</time></trkpt><trkpt lat="42.284587421010244" lon="14.109223215733985"><ele>132.0</ele><time>2026-05-01T13:17:25.999Z</time></trkpt><trkpt lat="42.28462840018958" lon="14.109364425107806"><ele>132.0</ele><time>2026-05-01T13:17:27.999Z</time></trkpt><trkpt lat="42.2846624376663" lon="14.109458612551167"><ele>132.0</ele><time>2026-05-01T13:17:28.999Z</time></trkpt><trkpt lat="42.284695646760845" lon="14.109546837220371"><ele>133.0</ele><time>2026-05-01T13:17:29.999Z</time></trkpt><trkpt lat="42.28473593045014" lon="14.109638866563813"><ele>134.0</ele><time>2026-05-01T13:17:30.999Z</time></trkpt><trkpt lat="42.284780756495614" lon="14.109743867639184"><ele>135.0</ele><time>2026-05-01T13:17:31.999Z</time></trkpt><trkpt lat="42.284825185698196" lon="14.109839647498886"><ele>136.0</ele><time>2026-05-01T13:17:32.999Z</time></trkpt><trkpt lat="42.28486771293155" lon="14.109959073293597"><ele>137.0</ele><time>2026-05-01T13:17:33.999Z</time></trkpt><trkpt lat="42.28491149415276" lon="14.11008507689731"><ele>135.0</ele><time>2026-05-01T13:17:34.999Z</time></trkpt><trkpt lat="42.28495664543075" lon="14.110224816009527"><ele>133.0</ele><time>2026-05-01T13:17:35.999Z</time></trkpt><trkpt lat="42.28499260448667" lon="14.110336498399874"><ele>131.0</ele><time>2026-05-01T13:17:36.999Z</time></trkpt><trkpt lat="42.28502558972591" lon="14.110456876296965"><ele>129.0</ele><time>2026-05-01T13:17:37.999Z</time></trkpt><trkpt lat="42.285067067872625" lon="14.110593768599346"><ele>127.0</ele><time>2026-05-01T13:17:38.999Z</time></trkpt><trkpt lat="42.28509962888162" lon="14.110721261080402"><ele>128.6</ele><time>2026-05-01T13:17:39.999Z</time></trkpt><trkpt lat="42.28512989101478" lon="14.110828699224886"><ele>130.2</ele><time>2026-05-01T13:17:40.999Z</time></trkpt><trkpt lat="42.28516413927718" lon="14.110951686351488"><ele>131.8</ele><time>2026-05-01T13:17:41.999Z</time></trkpt><trkpt lat="42.28519712998801" lon="14.111085259961435"><ele>133.4</ele><time>2026-05-01T13:17:42.999Z</time></trkpt><trkpt lat="42.28523190771433" lon="14.111224917191265"><ele>135.0</ele><time>2026-05-01T13:17:43.999Z</time></trkpt><trkpt lat="42.28526340735241" lon="14.111347994005268"><ele>135.0</ele><time>2026-05-01T13:17:44.999Z</time></trkpt><trkpt lat="42.2852937849384" lon="14.111480352801061"><ele>135.0</ele><time>2026-05-01T13:17:45.999Z</time></trkpt><trkpt lat="42.28532505647814" lon="14.111604155554131"><ele>135.0</ele><time>2026-05-01T13:17:46.999Z</time></trkpt><trkpt lat="42.28535709676218" lon="14.111702998052388"><ele>135.0</ele><time>2026-05-01T13:17:47.999Z</time></trkpt><trkpt lat="42.28538626597464" lon="14.111780238822448"><ele>135.0</ele><time>2026-05-01T13:17:48.999Z</time></trkpt><trkpt lat="42.285411543358535" lon="14.111940349840104"><ele>135.8</ele><time>2026-05-01T13:17:50.999Z</time></trkpt><trkpt lat="42.28544931986977" lon="14.11204723147779"><ele>136.6</ele><time>2026-05-01T13:17:51.999Z</time></trkpt><trkpt lat="42.28551303581809" lon="14.112153502986923"><ele>137.4</ele><time>2026-05-01T13:17:52.999Z</time></trkpt><trkpt lat="42.285594406909354" lon="14.11227459251217"><ele>138.2</ele><time>2026-05-01T13:17:53.999Z</time></trkpt><trkpt lat="42.28566605714471" lon="14.112384122519268"><ele>139.0</ele><time>2026-05-01T13:17:54.999Z</time></trkpt><trkpt lat="42.28573467408485" lon="14.112495619935007"><ele>137.2</ele><time>2026-05-01T13:17:55.999Z</time></trkpt><trkpt lat="42.28580338720335" lon="14.112606653044036"><ele>135.4</ele><time>2026-05-01T13:17:56.999Z</time></trkpt><trkpt lat="42.28587593372234" lon="14.112698064277161"><ele>133.6</ele><time>2026-05-01T13:17:57.999Z</time></trkpt><trkpt lat="42.28594837276436" lon="14.112805007916874"><ele>131.8</ele><time>2026-05-01T13:17:58.999Z</time></trkpt><trkpt lat="42.28602091709577" lon="14.112914108030623"><ele>130.0</ele><time>2026-05-01T13:17:59.999Z</time></trkpt><trkpt lat="42.286092332110705" lon="14.1130255831923"><ele>130.0</ele><time>2026-05-01T13:18:00.999Z</time></trkpt><trkpt lat="42.28615113766029" lon="14.113127903130579"><ele>130.0</ele><time>2026-05-01T13:18:01.999Z</time></trkpt><trkpt lat="42.28619455294734" lon="14.113231413183865"><ele>130.0</ele><time>2026-05-01T13:18:02.999Z</time></trkpt><trkpt lat="42.28622376998751" lon="14.1133315300425"><ele>130.0</ele><time>2026-05-01T13:18:03.999Z</time></trkpt><trkpt lat="42.28624583965432" lon="14.113449028502714"><ele>130.0</ele><time>2026-05-01T13:18:04.999Z</time></trkpt><trkpt lat="42.28625935593868" lon="14.113580180980236"><ele>131.8</ele><time>2026-05-01T13:18:05.999Z</time></trkpt><trkpt lat="42.28626428211889" lon="14.113715958945276"><ele>133.6</ele><time>2026-05-01T13:18:06.999Z</time></trkpt><trkpt lat="42.28627190186166" lon="14.113844456307108"><ele>135.4</ele><time>2026-05-01T13:18:07.999Z</time></trkpt><trkpt lat="42.286285216233715" lon="14.11397626969165"><ele>137.2</ele><time>2026-05-01T13:18:08.999Z</time></trkpt><trkpt lat="42.28629671227043" lon="14.114105282135823"><ele>139.0</ele><time>2026-05-01T13:18:09.999Z</time></trkpt><trkpt lat="42.28630939284423" lon="14.114222141356077"><ele>139.83333333333334</ele><time>2026-05-01T13:18:10.999Z</time></trkpt><trkpt lat="42.28631853555126" lon="14.114324497789509"><ele>140.66666666666669</ele><time>2026-05-01T13:18:11.999Z</time></trkpt><trkpt lat="42.28632937375793" lon="14.114431452012417"><ele>141.5</ele><time>2026-05-01T13:18:12.999Z</time></trkpt><trkpt lat="42.28634192921259" lon="14.114555771769195"><ele>142.33333333333334</ele><time>2026-05-01T13:18:13.999Z</time></trkpt><trkpt lat="42.286354002132775" lon="14.114686485282778"><ele>143.16666666666666</ele><time>2026-05-01T13:18:14.999Z</time></trkpt><trkpt lat="42.28636594271678" lon="14.114812597530719"><ele>144.0</ele><time>2026-05-01T13:18:15.999Z</time></trkpt><trkpt lat="42.28637424750207" lon="14.114915176043446"><ele>145.4</ele><time>2026-05-01T13:18:16.999Z</time></trkpt><trkpt lat="42.286395872165926" lon="14.115040369001925"><ele>146.8</ele><time>2026-05-01T13:18:17.999Z</time></trkpt><trkpt lat="42.28641978369022" lon="14.115154907909421"><ele>148.2</ele><time>2026-05-01T13:18:18.999Z</time></trkpt><trkpt lat="42.28644973580944" lon="14.115275583104737"><ele>149.6</ele><time>2026-05-01T13:18:19.999Z</time></trkpt><trkpt lat="42.28648084246867" lon="14.115408558337483"><ele>151.0</ele><time>2026-05-01T13:18:20.999Z</time></trkpt><trkpt lat="42.286519915064915" lon="14.115538119686136"><ele>148.2</ele><time>2026-05-01T13:18:21.999Z</time></trkpt><trkpt lat="42.28655102985885" lon="14.115644167765163"><ele>145.39999999999998</ele><time>2026-05-01T13:18:22.999Z</time></trkpt><trkpt lat="42.28655409996138" lon="14.115783935230759"><ele>142.6</ele><time>2026-05-01T13:18:24.999Z</time></trkpt><trkpt lat="42.28651993011184" lon="14.115922268904509"><ele>139.79999999999998</ele><time>2026-05-01T13:18:27.999Z</time></trkpt><trkpt lat="42.28649949920852" lon="14.116024019722474"><ele>137.0</ele><time>2026-05-01T13:18:28.999Z</time></trkpt><trkpt lat="42.286460396031174" lon="14.116132900462286"><ele>139.0</ele><time>2026-05-01T13:18:30Z</time></trkpt><trkpt lat="42.286407925351845" lon="14.11623457816157"><ele>141.0</ele><time>2026-05-01T13:18:31Z</time></trkpt><trkpt lat="42.28634687078453" lon="14.116331530988909"><ele>143.0</ele><time>2026-05-01T13:18:32Z</time></trkpt><trkpt lat="42.28629062831746" lon="14.116434987218389"><ele>145.0</ele><time>2026-05-01T13:18:33Z</time></trkpt><trkpt lat="42.28623576228839" lon="14.11651970833711"><ele>147.0</ele><time>2026-05-01T13:18:34Z</time></trkpt><trkpt lat="42.28619213362322" lon="14.116605253035226"><ele>149.0</ele><time>2026-05-01T13:18:35Z</time></trkpt><trkpt lat="42.28616508852745" lon="14.116695340926288"><ele>149.0</ele><time>2026-05-01T13:18:36Z</time></trkpt><trkpt lat="42.286147819638714" lon="14.116793994502926"><ele>149.0</ele><time>2026-05-01T13:18:37Z</time></trkpt><trkpt lat="42.28613626676613" lon="14.116893488200116"><ele>149.0</ele><time>2026-05-01T13:18:38Z</time></trkpt><trkpt lat="42.286135212357564" lon="14.117018452718776"><ele>149.0</ele><time>2026-05-01T13:18:39Z</time></trkpt><trkpt lat="42.28613359298774" lon="14.117155959377477"><ele>149.0</ele><time>2026-05-01T13:18:40Z</time></trkpt><trkpt lat="42.28612581262574" lon="14.117304414120275"><ele>149.4</ele><time>2026-05-01T13:18:41Z</time></trkpt><trkpt lat="42.28611830664462" lon="14.11744194664416"><ele>149.8</ele><time>2026-05-01T13:18:42Z</time></trkpt><trkpt lat="42.28611339087363" lon="14.117573877635873"><ele>150.2</ele><time>2026-05-01T13:18:43Z</time></trkpt><trkpt lat="42.286104283568655" lon="14.117713752996579"><ele>150.6</ele><time>2026-05-01T13:18:44Z</time></trkpt><trkpt lat="42.28608487872129" lon="14.11785118025786"><ele>151.0</ele><time>2026-05-01T13:18:45Z</time></trkpt><trkpt lat="42.28605975647626" lon="14.117978491339413"><ele>151.0</ele><time>2026-05-01T13:18:46Z</time></trkpt><trkpt lat="42.286022656664464" lon="14.11810521950009"><ele>151.0</ele><time>2026-05-01T13:18:47Z</time></trkpt><trkpt lat="42.285981606429594" lon="14.118218759553026"><ele>151.0</ele><time>2026-05-01T13:18:48Z</time></trkpt><trkpt lat="42.285941895098624" lon="14.118335867203927"><ele>151.0</ele><time>2026-05-01T13:18:49Z</time></trkpt><trkpt lat="42.28591342868165" lon="14.118463259009228"><ele>151.0</ele><time>2026-05-01T13:18:50Z</time></trkpt><trkpt lat="42.28589149113514" lon="14.118563458166596"><ele>151.8</ele><time>2026-05-01T13:18:51Z</time></trkpt><trkpt lat="42.285850606031886" lon="14.11874324317499"><ele>152.6</ele><time>2026-05-01T13:18:53Z</time></trkpt><trkpt lat="42.285854226358545" lon="14.118853709631315"><ele>153.4</ele><time>2026-05-01T13:18:54Z</time></trkpt><trkpt lat="42.285849049631935" lon="14.118974426798848"><ele>154.2</ele><time>2026-05-01T13:18:55Z</time></trkpt><trkpt lat="42.28581784172465" lon="14.119102241724647"><ele>155.0</ele><time>2026-05-01T13:18:56Z</time></trkpt><trkpt lat="42.28577460137582" lon="14.119204737847456"><ele>155.83333333333331</ele><time>2026-05-01T13:18:57Z</time></trkpt><trkpt lat="42.285715994232916" lon="14.119294183281388"><ele>156.66666666666666</ele><time>2026-05-01T13:18:58Z</time></trkpt><trkpt lat="42.28566428717293" lon="14.11935152790188"><ele>157.5</ele><time>2026-05-01T13:18:59Z</time></trkpt><trkpt lat="42.28560258257465" lon="14.119435443947225"><ele>158.33333333333334</ele><time>2026-05-01T13:19:00Z</time></trkpt><trkpt lat="42.28552287300029" lon="14.11952011684797"><ele>159.16666666666669</ele><time>2026-05-01T13:19:01Z</time></trkpt><trkpt lat="42.285440020224996" lon="14.119605694252161"><ele>160.0</ele><time>2026-05-01T13:19:02Z</time></trkpt><trkpt lat="42.28535771718564" lon="14.119682914167953"><ele>162.0</ele><time>2026-05-01T13:19:03Z</time></trkpt><trkpt lat="42.28528336624618" lon="14.11975191618879"><ele>164.0</ele><time>2026-05-01T13:19:04Z</time></trkpt><trkpt lat="42.28520279372722" lon="14.119821214711129"><ele>166.0</ele><time>2026-05-01T13:19:04.999Z</time></trkpt><trkpt lat="42.28512991109598" lon="14.119884842399252"><ele>168.0</ele><time>2026-05-01T13:19:05.999Z</time></trkpt><trkpt lat="42.28504803766842" lon="14.11994637713653"><ele>170.0</ele><time>2026-05-01T13:19:06.999Z</time></trkpt><trkpt lat="42.28497635103009" lon="14.12000246937099"><ele>172.0</ele><time>2026-05-01T13:19:07.999Z</time></trkpt><trkpt lat="42.2848930054905" lon="14.120068129158486"><ele>172.00000000000003</ele><time>2026-05-01T13:19:08.999Z</time></trkpt><trkpt lat="42.28482682410565" lon="14.120122671708033"><ele>172.0</ele><time>2026-05-01T13:19:09.999Z</time></trkpt><trkpt lat="42.28476060125192" lon="14.120178650066013"><ele>172.0</ele><time>2026-05-01T13:19:10.999Z</time></trkpt><trkpt lat="42.28469834728419" lon="14.120229348691018"><ele>172.0</ele><time>2026-05-01T13:19:11.999Z</time></trkpt><trkpt lat="42.2846458735319" lon="14.12028978189655"><ele>172.0</ele><time>2026-05-01T13:19:12.999Z</time></trkpt><trkpt lat="42.28460745082947" lon="14.120357702781385"><ele>172.00000000000003</ele><time>2026-05-01T13:19:13.999Z</time></trkpt><trkpt lat="42.284575289646504" lon="14.120434506684957"><ele>172.0</ele><time>2026-05-01T13:19:14.999Z</time></trkpt><trkpt lat="42.284535789718355" lon="14.120531914362985"><ele>174.66666666666669</ele><time>2026-05-01T13:19:15.999Z</time></trkpt><trkpt lat="42.28449893858305" lon="14.12064048699662"><ele>177.33333333333334</ele><time>2026-05-01T13:19:16.999Z</time></trkpt><trkpt lat="42.28447834962573" lon="14.120744533423016"><ele>180.0</ele><time>2026-05-01T13:19:17.999Z</time></trkpt><trkpt lat="42.28445128390606" lon="14.120855367793514"><ele>182.66666666666666</ele><time>2026-05-01T13:19:18.999Z</time></trkpt><trkpt lat="42.28443302088601" lon="14.120948082099801"><ele>185.33333333333331</ele><time>2026-05-01T13:19:19.999Z</time></trkpt><trkpt lat="42.28442473675103" lon="14.121036079092073"><ele>188.0</ele><time>2026-05-01T13:19:20.999Z</time></trkpt><trkpt lat="42.28441643549279" lon="14.121134399666587"><ele>188.0</ele><time>2026-05-01T13:19:21.999Z</time></trkpt><trkpt lat="42.28440547628794" lon="14.121252483254798"><ele>188.0</ele><time>2026-05-01T13:19:22.999Z</time></trkpt><trkpt lat="42.28439708153452" lon="14.121378059567213"><ele>188.0</ele><time>2026-05-01T13:19:23.999Z</time></trkpt><trkpt lat="42.284391597601186" lon="14.121517288786633"><ele>188.0</ele><time>2026-05-01T13:19:24.999Z</time></trkpt><trkpt lat="42.284372543801815" lon="14.121653898659094"><ele>188.0</ele><time>2026-05-01T13:19:25.999Z</time></trkpt><trkpt lat="42.284351754735745" lon="14.121756881622742"><ele>188.16666666666666</ele><time>2026-05-01T13:19:26.999Z</time></trkpt><trkpt lat="42.28433331167779" lon="14.121870183890712"><ele>188.33333333333331</ele><time>2026-05-01T13:19:27.999Z</time></trkpt><trkpt lat="42.284299176571004" lon="14.121969081615376"><ele>188.5</ele><time>2026-05-01T13:19:28.999Z</time></trkpt><trkpt lat="42.28424563718792" lon="14.12206083043525"><ele>188.66666666666666</ele><time>2026-05-01T13:19:29.999Z</time></trkpt><trkpt lat="42.284189451407194" lon="14.122118559359922"><ele>188.83333333333334</ele><time>2026-05-01T13:19:30.999Z</time></trkpt><trkpt lat="42.28410997794504" lon="14.122160772393462"><ele>189.0</ele><time>2026-05-01T13:19:31.999Z</time></trkpt><trkpt lat="42.28401247685707" lon="14.12216275936858"><ele>193.33333333333334</ele><time>2026-05-01T13:19:32.999Z</time></trkpt><trkpt lat="42.2839147940486" lon="14.12214381419811"><ele>197.66666666666669</ele><time>2026-05-01T13:19:33.999Z</time></trkpt><trkpt lat="42.283834316163905" lon="14.122099563535008"><ele>202.0</ele><time>2026-05-01T13:19:34.999Z</time></trkpt><trkpt lat="42.28377447187458" lon="14.122021037184131"><ele>206.33333333333334</ele><time>2026-05-01T13:19:35.999Z</time></trkpt><trkpt lat="42.28373152785431" lon="14.121923036203373"><ele>210.66666666666669</ele><time>2026-05-01T13:19:36.999Z</time></trkpt><trkpt lat="42.283684705084674" lon="14.121833947161123"><ele>215.0</ele><time>2026-05-01T13:19:37.999Z</time></trkpt><trkpt lat="42.28358670230219" lon="14.12168270817962"><ele>215.0</ele><time>2026-05-01T13:19:39.999Z</time></trkpt><trkpt lat="42.283511105372796" lon="14.121559591369078"><ele>215.0</ele><time>2026-05-01T13:19:40.999Z</time></trkpt><trkpt lat="42.2834325518307" lon="14.121427624800623"><ele>215.0</ele><time>2026-05-01T13:19:41.999Z</time></trkpt><trkpt lat="42.283371635738305" lon="14.121306710344493"><ele>215.0</ele><time>2026-05-01T13:19:42.999Z</time></trkpt><trkpt lat="42.28331628330543" lon="14.121162802164996"><ele>215.0</ele><time>2026-05-01T13:19:43.999Z</time></trkpt><trkpt lat="42.283261339808554" lon="14.121038733310568"><ele>215.0</ele><time>2026-05-01T13:19:44.999Z</time></trkpt><trkpt lat="42.283227253506695" lon="14.120943794012438"><ele>215.0</ele><time>2026-05-01T13:19:45.999Z</time></trkpt><trkpt lat="42.283177076025304" lon="14.12076617574433"><ele>215.0</ele><time>2026-05-01T13:19:47.999Z</time></trkpt><trkpt lat="42.283147525505065" lon="14.120631367290102"><ele>215.0</ele><time>2026-05-01T13:19:48.999Z</time></trkpt><trkpt lat="42.2831044337754" lon="14.120465254803007"><ele>220.0</ele><time>2026-05-01T13:19:49.999Z</time></trkpt><trkpt lat="42.28303943905461" lon="14.12027830415155"><ele>225.0</ele><time>2026-05-01T13:19:50.999Z</time></trkpt><trkpt lat="42.28297840790238" lon="14.12005209916405"><ele>230.0</ele><time>2026-05-01T13:19:51.999Z</time></trkpt><trkpt lat="42.28291820782923" lon="14.119849540645568"><ele>230.0</ele><time>2026-05-01T13:19:52.999Z</time></trkpt><trkpt lat="42.28286073908807" lon="14.119650245209398"><ele>230.0</ele><time>2026-05-01T13:19:53.999Z</time></trkpt><trkpt lat="42.282805018787066" lon="14.119438430167465"><ele>230.0</ele><time>2026-05-01T13:19:54.999Z</time></trkpt><trkpt lat="42.28274691763177" lon="14.11924053793422"><ele>229.0</ele><time>2026-05-01T13:19:55.999Z</time></trkpt><trkpt lat="42.28269895449966" lon="14.119054146637435"><ele>228.0</ele><time>2026-05-01T13:19:56.999Z</time></trkpt><trkpt lat="42.28264164014599" lon="14.118867805290813"><ele>227.0</ele><time>2026-05-01T13:19:57.999Z</time></trkpt><trkpt lat="42.28258744567553" lon="14.11869283174062"><ele>226.0</ele><time>2026-05-01T13:19:58.999Z</time></trkpt><trkpt lat="42.282535121577105" lon="14.118534352995983"><ele>226.0</ele><time>2026-05-01T13:19:59.999Z</time></trkpt><trkpt lat="42.28248247552177" lon="14.118359237681464"><ele>226.0</ele><time>2026-05-01T13:20:00.999Z</time></trkpt><trkpt lat="42.282427772780885" lon="14.118195414355272"><ele>226.0</ele><time>2026-05-01T13:20:01.999Z</time></trkpt><trkpt lat="42.28235943451487" lon="14.118020258141707"><ele>226.0</ele><time>2026-05-01T13:20:02.999Z</time></trkpt><trkpt lat="42.282284462099085" lon="14.117852749938402"><ele>225.49999999999997</ele><time>2026-05-01T13:20:03.999Z</time></trkpt><trkpt lat="42.282211874591795" lon="14.117729049736115"><ele>225.0</ele><time>2026-05-01T13:20:04.999Z</time></trkpt><trkpt lat="42.282153060958684" lon="14.117641991977052"><ele>224.5</ele><time>2026-05-01T13:20:05.999Z</time></trkpt><trkpt lat="42.28208564151849" lon="14.117576160742033"><ele>224.0</ele><time>2026-05-01T13:20:07.999Z</time></trkpt><trkpt lat="42.28201887210135" lon="14.117653187953554"><ele>223.49999999999997</ele><time>2026-05-01T13:20:12.999Z</time></trkpt><trkpt lat="42.28202076682034" lon="14.117742895704415"><ele>223.0</ele><time>2026-05-01T13:20:13.999Z</time></trkpt><trkpt lat="42.28205374067272" lon="14.117886190107606"><ele>223.0</ele><time>2026-05-01T13:20:14.999Z</time></trkpt><trkpt lat="42.282054117162666" lon="14.118040252575435"><ele>223.0</ele><time>2026-05-01T13:20:15.999Z</time></trkpt><trkpt lat="42.282048210424264" lon="14.11816145648766"><ele>223.0</ele><time>2026-05-01T13:20:16.999Z</time></trkpt><trkpt lat="42.28203750703022" lon="14.118263220545458"><ele>223.0</ele><time>2026-05-01T13:20:17.999Z</time></trkpt><trkpt lat="42.28201436177241" lon="14.118365913516971"><ele>223.0</ele><time>2026-05-01T13:20:18.999Z</time></trkpt><trkpt lat="42.28199911608895" lon="14.11852312252471"><ele>224.25</ele><time>2026-05-01T13:20:19.999Z</time></trkpt><trkpt lat="42.28197736361657" lon="14.118712982818538"><ele>225.5</ele><time>2026-05-01T13:20:20.999Z</time></trkpt><trkpt lat="42.281954479157065" lon="14.118897635241975"><ele>226.75</ele><time>2026-05-01T13:20:21.999Z</time></trkpt><trkpt lat="42.28193137237823" lon="14.119081994534588"><ele>228.0</ele><time>2026-05-01T13:20:22.999Z</time></trkpt><trkpt lat="42.28190538266842" lon="14.119296735817564"><ele>230.66666666666669</ele><time>2026-05-01T13:20:23.999Z</time></trkpt><trkpt lat="42.281887713983934" lon="14.119533380004583"><ele>233.33333333333334</ele><time>2026-05-01T13:20:24.999Z</time></trkpt><trkpt lat="42.28189044644397" lon="14.119752155084274"><ele>236.0</ele><time>2026-05-01T13:20:25.999Z</time></trkpt><trkpt lat="42.2819164267394" lon="14.1199747469928"><ele>238.0</ele><time>2026-05-01T13:20:26.999Z</time></trkpt><trkpt lat="42.28197246216463" lon="14.12019975479859"><ele>240.0</ele><time>2026-05-01T13:20:27.999Z</time></trkpt><trkpt lat="42.28203320258712" lon="14.120399859185854"><ele>242.0</ele><time>2026-05-01T13:20:28.999Z</time></trkpt><trkpt lat="42.282080992338656" lon="14.120585574705645"><ele>244.0</ele><time>2026-05-01T13:20:29.999Z</time></trkpt><trkpt lat="42.282100889618086" lon="14.120779821948743"><ele>246.0</ele><time>2026-05-01T13:20:30.999Z</time></trkpt><trkpt lat="42.28209916635515" lon="14.12098672304569"><ele>248.0</ele><time>2026-05-01T13:20:31.999Z</time></trkpt><trkpt lat="42.28208530581028" lon="14.121198966398504"><ele>248.0</ele><time>2026-05-01T13:20:32.999Z</time></trkpt><trkpt lat="42.282026748318465" lon="14.121409764583168"><ele>248.0</ele><time>2026-05-01T13:20:33.999Z</time></trkpt><trkpt lat="42.28200537847058" lon="14.121627688148678"><ele>248.0</ele><time>2026-05-01T13:20:34.999Z</time></trkpt><trkpt lat="42.2819847306776" lon="14.121837062508073"><ele>249.33333333333334</ele><time>2026-05-01T13:20:36Z</time></trkpt><trkpt lat="42.28199708126454" lon="14.122067557837468"><ele>250.66666666666669</ele><time>2026-05-01T13:20:37Z</time></trkpt><trkpt lat="42.2820327599895" lon="14.12231298728227"><ele>252.0</ele><time>2026-05-01T13:20:38Z</time></trkpt><trkpt lat="42.282088297826" lon="14.122566294141485"><ele>254.33333333333331</ele><time>2026-05-01T13:20:39Z</time></trkpt><trkpt lat="42.28210759827322" lon="14.122809252116332"><ele>256.66666666666663</ele><time>2026-05-01T13:20:40Z</time></trkpt><trkpt lat="42.282117089955804" lon="14.123013856027704"><ele>259.0</ele><time>2026-05-01T13:20:41Z</time></trkpt><trkpt lat="42.28212498726971" lon="14.123213505633275"><ele>262.0</ele><time>2026-05-01T13:20:42Z</time></trkpt><trkpt lat="42.28213359876444" lon="14.123430798445593"><ele>265.0</ele><time>2026-05-01T13:20:43Z</time></trkpt><trkpt lat="42.28215485743311" lon="14.123620477931995"><ele>268.0</ele><time>2026-05-01T13:20:44Z</time></trkpt><trkpt lat="42.28216076052393" lon="14.123775067279917"><ele>271.0</ele><time>2026-05-01T13:20:45Z</time></trkpt><trkpt lat="42.282163091072995" lon="14.123926111608181"><ele>273.0</ele><time>2026-05-01T13:20:46Z</time></trkpt><trkpt lat="42.28215988434809" lon="14.12407753916944"><ele>275.0</ele><time>2026-05-01T13:20:47Z</time></trkpt><trkpt lat="42.28216880572499" lon="14.124240565728174"><ele>277.0</ele><time>2026-05-01T13:20:48Z</time></trkpt><trkpt lat="42.282175513690916" lon="14.124409481089913"><ele>279.0</ele><time>2026-05-01T13:20:49Z</time></trkpt><trkpt lat="42.28218843384305" lon="14.124590964254471"><ele>279.0</ele><time>2026-05-01T13:20:50Z</time></trkpt><trkpt lat="42.28220275024878" lon="14.124762223604199"><ele>279.0</ele><time>2026-05-01T13:20:51Z</time></trkpt><trkpt lat="42.28222131568824" lon="14.124942996661227"><ele>279.0</ele><time>2026-05-01T13:20:52Z</time></trkpt><trkpt lat="42.28224416404494" lon="14.12513273413147"><ele>279.0</ele><time>2026-05-01T13:20:53Z</time></trkpt><trkpt lat="42.282264764270444" lon="14.125326664059966"><ele>279.5</ele><time>2026-05-01T13:20:54Z</time></trkpt><trkpt lat="42.28227580825728" lon="14.125522009652878"><ele>280.0</ele><time>2026-05-01T13:20:55Z</time></trkpt><trkpt lat="42.28229589082627" lon="14.12572140343811"><ele>280.5</ele><time>2026-05-01T13:20:56Z</time></trkpt><trkpt lat="42.28231324928583" lon="14.125921174048317"><ele>281.0</ele><time>2026-05-01T13:20:57Z</time></trkpt><trkpt lat="42.28233528974578" lon="14.126115301781022"><ele>283.0</ele><time>2026-05-01T13:20:58Z</time></trkpt><trkpt lat="42.282364180390125" lon="14.12630036473248"><ele>285.0</ele><time>2026-05-01T13:20:59Z</time></trkpt><trkpt lat="42.282417416432295" lon="14.126481736498656"><ele>287.0</ele><time>2026-05-01T13:21:00Z</time></trkpt><trkpt lat="42.28248199620619" lon="14.12662346153148"><ele>289.0</ele><time>2026-05-01T13:21:01Z</time></trkpt><trkpt lat="42.282540624318166" lon="14.126742076474196"><ele>290.8333333333333</ele><time>2026-05-01T13:21:02Z</time></trkpt><trkpt lat="42.282584812108915" lon="14.126844512581245"><ele>292.66666666666663</ele><time>2026-05-01T13:21:03Z</time></trkpt><trkpt lat="42.28262538212482" lon="14.126945139210838"><ele>294.5</ele><time>2026-05-01T13:21:04Z</time></trkpt><trkpt lat="42.282655308436865" lon="14.127029386665454"><ele>296.3333333333333</ele><time>2026-05-01T13:21:05Z</time></trkpt><trkpt lat="42.282672918259195" lon="14.127130197831837"><ele>298.1666666666667</ele><time>2026-05-01T13:21:06Z</time></trkpt><trkpt lat="42.28274278459782" lon="14.127232494442973"><ele>300.0</ele><time>2026-05-01T13:21:07Z</time></trkpt><trkpt lat="42.282818494925785" lon="14.127384180380805"><ele>300.3333333333333</ele><time>2026-05-01T13:21:08Z</time></trkpt><trkpt lat="42.28291560605982" lon="14.127550894999548"><ele>300.66666666666663</ele><time>2026-05-01T13:21:09Z</time></trkpt><trkpt lat="42.283013406331406" lon="14.127720119331041"><ele>301.0</ele><time>2026-05-01T13:21:10Z</time></trkpt><trkpt lat="42.28311398398426" lon="14.127892302269098"><ele>301.3333333333333</ele><time>2026-05-01T13:21:11Z</time></trkpt><trkpt lat="42.283215045421024" lon="14.128069148575396"><ele>301.6666666666667</ele><time>2026-05-01T13:21:12Z</time></trkpt><trkpt lat="42.283313537103574" lon="14.128251812810195"><ele>302.0</ele><time>2026-05-01T13:21:13Z</time></trkpt><trkpt lat="42.28342281145374" lon="14.128431259214839"><ele>302.0</ele><time>2026-05-01T13:21:14Z</time></trkpt><trkpt lat="42.2835261371762" lon="14.128572549614264"><ele>302.0</ele><time>2026-05-01T13:21:15Z</time></trkpt><trkpt lat="42.2836320198533" lon="14.128661706434258"><ele>302.0</ele><time>2026-05-01T13:21:16Z</time></trkpt><trkpt lat="42.28375366452575" lon="14.128711246833053"><ele>302.0</ele><time>2026-05-01T13:21:17Z</time></trkpt><trkpt lat="42.28390199132904" lon="14.128726664215206"><ele>302.5</ele><time>2026-05-01T13:21:18Z</time></trkpt><trkpt lat="42.28406263031564" lon="14.128728350746341"><ele>303.0</ele><time>2026-05-01T13:21:19Z</time></trkpt><trkpt lat="42.28420437269575" lon="14.128749061884404"><ele>303.5</ele><time>2026-05-01T13:21:20Z</time></trkpt><trkpt lat="42.28433068236421" lon="14.12882130016614"><ele>304.0</ele><time>2026-05-01T13:21:21Z</time></trkpt><trkpt lat="42.28445153375801" lon="14.128929121354348"><ele>304.0</ele><time>2026-05-01T13:21:22Z</time></trkpt><trkpt lat="42.28456246750842" lon="14.129056959355358"><ele>304.0</ele><time>2026-05-01T13:21:23Z</time></trkpt><trkpt lat="42.28467922041457" lon="14.129177394078084"><ele>304.0</ele><time>2026-05-01T13:21:24Z</time></trkpt><trkpt lat="42.28480300225004" lon="14.129297296816507"><ele>304.0</ele><time>2026-05-01T13:21:25Z</time></trkpt><trkpt lat="42.284925027455046" lon="14.12942913607073"><ele>303.3333333333333</ele><time>2026-05-01T13:21:26Z</time></trkpt><trkpt lat="42.285042719747516" lon="14.129566962546528"><ele>302.6666666666667</ele><time>2026-05-01T13:21:27Z</time></trkpt><trkpt lat="42.28515831760217" lon="14.129709455723786"><ele>302.0</ele><time>2026-05-01T13:21:28Z</time></trkpt><trkpt lat="42.28527102104837" lon="14.129858741532258"><ele>303.6666666666667</ele><time>2026-05-01T13:21:29Z</time></trkpt><trkpt lat="42.28537688601251" lon="14.130008590967956"><ele>305.3333333333333</ele><time>2026-05-01T13:21:30Z</time></trkpt><trkpt lat="42.28548515798247" lon="14.130167758303553"><ele>307.0</ele><time>2026-05-01T13:21:31Z</time></trkpt><trkpt lat="42.28559577210384" lon="14.13034486184769"><ele>304.0</ele><time>2026-05-01T13:21:32Z</time></trkpt><trkpt lat="42.285696744079694" lon="14.130544876613392"><ele>301.0</ele><time>2026-05-01T13:21:33Z</time></trkpt><trkpt lat="42.28579858925845" lon="14.13077605554196"><ele>298.0</ele><time>2026-05-01T13:21:34Z</time></trkpt><trkpt lat="42.2858971643853" lon="14.131001832791453"><ele>298.0</ele><time>2026-05-01T13:21:35Z</time></trkpt><trkpt lat="42.285995330745706" lon="14.131198951455035"><ele>298.0</ele><time>2026-05-01T13:21:36Z</time></trkpt><trkpt lat="42.28611330173158" lon="14.13138052723047"><ele>298.0</ele><time>2026-05-01T13:21:37Z</time></trkpt><trkpt lat="42.286243076367" lon="14.13156671266914"><ele>299.3333333333333</ele><time>2026-05-01T13:21:38Z</time></trkpt><trkpt lat="42.28635679092111" lon="14.1317329261467"><ele>300.6666666666667</ele><time>2026-05-01T13:21:38.999Z</time></trkpt><trkpt lat="42.28646073928316" lon="14.131900200185331"><ele>302.0</ele><time>2026-05-01T13:21:39.999Z</time></trkpt><trkpt lat="42.286544185181114" lon="14.132061263856066"><ele>298.6666666666667</ele><time>2026-05-01T13:21:40.999Z</time></trkpt><trkpt lat="42.286624135636124" lon="14.132228337703435"><ele>295.3333333333333</ele><time>2026-05-01T13:21:41.999Z</time></trkpt><trkpt lat="42.286696556802966" lon="14.13241265415365"><ele>292.0</ele><time>2026-05-01T13:21:42.999Z</time></trkpt><trkpt lat="42.28674763032897" lon="14.132622623764796"><ele>292.0</ele><time>2026-05-01T13:21:43.999Z</time></trkpt><trkpt lat="42.286777121357794" lon="14.132807360139088"><ele>292.0</ele><time>2026-05-01T13:21:44.999Z</time></trkpt><trkpt lat="42.286805631099945" lon="14.132974718556289"><ele>292.0</ele><time>2026-05-01T13:21:45.999Z</time></trkpt><trkpt lat="42.28683055142931" lon="14.133133274103516"><ele>292.0</ele><time>2026-05-01T13:21:46.999Z</time></trkpt><trkpt lat="42.28688417656729" lon="14.133269361036776"><ele>291.25</ele><time>2026-05-01T13:21:47.999Z</time></trkpt><trkpt lat="42.28694914161417" lon="14.133392646620837"><ele>290.5</ele><time>2026-05-01T13:21:48.999Z</time></trkpt><trkpt lat="42.28708834142018" lon="14.133443168191011"><ele>289.75</ele><time>2026-05-01T13:21:49.999Z</time></trkpt><trkpt lat="42.287238536398725" lon="14.133494781559676"><ele>289.0</ele><time>2026-05-01T13:21:50.999Z</time></trkpt><trkpt lat="42.28739686218034" lon="14.133547528565172"><ele>289.0</ele><time>2026-05-01T13:21:51.999Z</time></trkpt><trkpt lat="42.287564991410264" lon="14.133606663225446"><ele>289.0</ele><time>2026-05-01T13:21:52.999Z</time></trkpt><trkpt lat="42.28772848463198" lon="14.1336646077403"><ele>289.0</ele><time>2026-05-01T13:21:53.999Z</time></trkpt><trkpt lat="42.28786498927175" lon="14.133719705702372"><ele>289.0</ele><time>2026-05-01T13:21:54.999Z</time></trkpt><trkpt lat="42.28797320966202" lon="14.133804764858935"><ele>289.0</ele><time>2026-05-01T13:21:55.999Z</time></trkpt><trkpt lat="42.28806950392699" lon="14.133934759178004"><ele>289.0</ele><time>2026-05-01T13:21:56.999Z</time></trkpt><trkpt lat="42.28815613848602" lon="14.134118048298825"><ele>289.0</ele><time>2026-05-01T13:21:57.999Z</time></trkpt><trkpt lat="42.28824473379098" lon="14.134308546940812"><ele>292.0</ele><time>2026-05-01T13:21:58.999Z</time></trkpt><trkpt lat="42.288348305149164" lon="14.134491523337608"><ele>295.0</ele><time>2026-05-01T13:21:59.999Z</time></trkpt><trkpt lat="42.2884601347488" lon="14.134637921789643"><ele>298.0</ele><time>2026-05-01T13:22:00.999Z</time></trkpt><trkpt lat="42.28859119871129" lon="14.134770696177617"><ele>298.0</ele><time>2026-05-01T13:22:01.999Z</time></trkpt><trkpt lat="42.288734899696244" lon="14.134879973983901"><ele>298.0</ele><time>2026-05-01T13:22:02.999Z</time></trkpt><trkpt lat="42.28888958044272" lon="14.13499623197365"><ele>298.0</ele><time>2026-05-01T13:22:03.999Z</time></trkpt><trkpt lat="42.28902837269601" lon="14.13512289338252"><ele>301.0</ele><time>2026-05-01T13:22:04.999Z</time></trkpt><trkpt lat="42.28915042082753" lon="14.135245102001699"><ele>304.0</ele><time>2026-05-01T13:22:05.999Z</time></trkpt><trkpt lat="42.28926033715822" lon="14.135358794590932"><ele>307.0</ele><time>2026-05-01T13:22:06.999Z</time></trkpt><trkpt lat="42.2893652519732" lon="14.135482841634495"><ele>310.0</ele><time>2026-05-01T13:22:07.999Z</time></trkpt><trkpt lat="42.28948105083877" lon="14.135602952648362"><ele>310.0</ele><time>2026-05-01T13:22:08.999Z</time></trkpt><trkpt lat="42.28959960048226" lon="14.135698935263836"><ele>310.0</ele><time>2026-05-01T13:22:09.999Z</time></trkpt><trkpt lat="42.28973995255273" lon="14.135772460680663"><ele>310.0</ele><time>2026-05-01T13:22:10.999Z</time></trkpt><trkpt lat="42.28989127108997" lon="14.135810912101268"><ele>310.0</ele><time>2026-05-01T13:22:11.999Z</time></trkpt><trkpt lat="42.29005705554136" lon="14.135841046535944"><ele>310.3333333333333</ele><time>2026-05-01T13:22:12.999Z</time></trkpt><trkpt lat="42.29021852490393" lon="14.135888740581038"><ele>310.6666666666667</ele><time>2026-05-01T13:22:13.999Z</time></trkpt><trkpt lat="42.29036731309184" lon="14.135941728867003"><ele>311.0</ele><time>2026-05-01T13:22:14.999Z</time></trkpt><trkpt lat="42.290515641370654" lon="14.135994635033429"><ele>312.5</ele><time>2026-05-01T13:22:15.999Z</time></trkpt><trkpt lat="42.29066121112786" lon="14.13604114245454"><ele>314.0</ele><time>2026-05-01T13:22:16.999Z</time></trkpt><trkpt lat="42.290791985863045" lon="14.136084364081993"><ele>315.5</ele><time>2026-05-01T13:22:17.999Z</time></trkpt><trkpt lat="42.29090936570366" lon="14.136116874763553"><ele>317.0</ele><time>2026-05-01T13:22:18.999Z</time></trkpt><trkpt lat="42.29100669030903" lon="14.13613221351408"><ele>317.0</ele><time>2026-05-01T13:22:19.999Z</time></trkpt><trkpt lat="42.291083004779686" lon="14.13612671742034"><ele>317.0</ele><time>2026-05-01T13:22:20.999Z</time></trkpt><trkpt lat="42.29114596196143" lon="14.136110653524296"><ele>317.0</ele><time>2026-05-01T13:22:21.999Z</time></trkpt><trkpt lat="42.29124401073764" lon="14.136054223228081"><ele>317.0</ele><time>2026-05-01T13:22:23.999Z</time></trkpt><trkpt lat="42.29132531232632" lon="14.136014137074554"><ele>317.0</ele><time>2026-05-01T13:22:25.999Z</time></trkpt><trkpt lat="42.2914138066967" lon="14.135993624851928"><ele>317.0</ele><time>2026-05-01T13:22:27.999Z</time></trkpt><trkpt lat="42.29145994085899" lon="14.135887285211645"><ele>317.0</ele><time>2026-05-01T13:22:29.999Z</time></trkpt><trkpt lat="42.29137775908471" lon="14.135728307617962"><ele>317.0</ele><time>2026-05-01T13:22:31.999Z</time></trkpt><trkpt lat="42.29133699381417" lon="14.135634819511921"><ele>317.0</ele><time>2026-05-01T13:22:32.999Z</time></trkpt><trkpt lat="42.291290615946856" lon="14.135487363642975"><ele>317.0</ele><time>2026-05-01T13:22:34.999Z</time></trkpt><trkpt lat="42.29126426104594" lon="14.135307822449448"><ele>318.0</ele><time>2026-05-01T13:22:35.999Z</time></trkpt><trkpt lat="42.291234630743496" lon="14.135137582601548"><ele>319.0</ele><time>2026-05-01T13:22:36.999Z</time></trkpt><trkpt lat="42.291196677868015" lon="14.134975516176718"><ele>320.0</ele><time>2026-05-01T13:22:37.999Z</time></trkpt><trkpt lat="42.29115949101505" lon="14.134837955236918"><ele>321.0</ele><time>2026-05-01T13:22:38.999Z</time></trkpt><trkpt lat="42.291122463944276" lon="14.134703910538443"><ele>321.0</ele><time>2026-05-01T13:22:39.999Z</time></trkpt><trkpt lat="42.29105850729459" lon="14.134554433300693"><ele>321.0</ele><time>2026-05-01T13:22:40.999Z</time></trkpt><trkpt lat="42.29098916521083" lon="14.134397824720768"><ele>321.0</ele><time>2026-05-01T13:22:42Z</time></trkpt><trkpt lat="42.2909011635205" lon="14.134261796176238"><ele>321.0</ele><time>2026-05-01T13:22:43Z</time></trkpt><trkpt lat="42.29080886814487" lon="14.134145726845235"><ele>321.0</ele><time>2026-05-01T13:22:44Z</time></trkpt><trkpt lat="42.290695525354266" lon="14.134111331256651"><ele>321.0</ele><time>2026-05-01T13:22:45Z</time></trkpt><trkpt lat="42.29063454210677" lon="14.134042637314844"><ele>321.0</ele><time>2026-05-01T13:22:46Z</time></trkpt><trkpt lat="42.290549931015384" lon="14.133964467171303"><ele>321.0</ele><time>2026-05-01T13:22:47Z</time></trkpt><trkpt lat="42.290416098557365" lon="14.133902784272564"><ele>321.0</ele><time>2026-05-01T13:22:48Z</time></trkpt><trkpt lat="42.29026714586433" lon="14.13383060993635"><ele>320.5</ele><time>2026-05-01T13:22:49Z</time></trkpt><trkpt lat="42.29012107563191" lon="14.13376204730096"><ele>320.0</ele><time>2026-05-01T13:22:50Z</time></trkpt><trkpt lat="42.29000666882838" lon="14.133674839094265"><ele>319.5</ele><time>2026-05-01T13:22:51Z</time></trkpt><trkpt lat="42.28992313305542" lon="14.133537743823629"><ele>319.0</ele><time>2026-05-01T13:22:52Z</time></trkpt><trkpt lat="42.2898554017696" lon="14.133384083746563"><ele>319.0</ele><time>2026-05-01T13:22:53Z</time></trkpt><trkpt lat="42.289803547451314" lon="14.133241005562128"><ele>319.0</ele><time>2026-05-01T13:22:54Z</time></trkpt><trkpt lat="42.2897469965613" lon="14.133133077390582"><ele>319.0</ele><time>2026-05-01T13:22:55Z</time></trkpt><trkpt lat="42.28967662762352" lon="14.133056217961759"><ele>319.0</ele><time>2026-05-01T13:22:56Z</time></trkpt><trkpt lat="42.28960668409949" lon="14.132979546185778"><ele>319.0</ele><time>2026-05-01T13:22:57Z</time></trkpt><trkpt lat="42.289538289933255" lon="14.132938344671707"><ele>317.75</ele><time>2026-05-01T13:22:58Z</time></trkpt><trkpt lat="42.28962601634608" lon="14.132744619285802"><ele>316.5</ele><time>2026-05-01T13:22:59Z</time></trkpt><trkpt lat="42.28964861226881" lon="14.132569010362246"><ele>315.25</ele><time>2026-05-01T13:23:00Z</time></trkpt><trkpt lat="42.28967998879632" lon="14.132372743556026"><ele>314.0</ele><time>2026-05-01T13:23:01Z</time></trkpt><trkpt lat="42.2897252039112" lon="14.132179073631598"><ele>313.0</ele><time>2026-05-01T13:23:02Z</time></trkpt><trkpt lat="42.28976965859592" lon="14.132040634609579"><ele>312.0</ele><time>2026-05-01T13:23:03Z</time></trkpt><trkpt lat="42.289818139856784" lon="14.131925338164645"><ele>311.0</ele><time>2026-05-01T13:23:04Z</time></trkpt><trkpt lat="42.289857961652565" lon="14.131835602033174"><ele>310.0</ele><time>2026-05-01T13:23:05Z</time></trkpt><trkpt lat="42.28991430554538" lon="14.131708820106724"><ele>309.0</ele><time>2026-05-01T13:23:07Z</time></trkpt><trkpt lat="42.2899562450925" lon="14.131614449978649"><ele>305.8</ele><time>2026-05-01T13:23:08Z</time></trkpt><trkpt lat="42.28999341704483" lon="14.131530808216143"><ele>302.59999999999997</ele><time>2026-05-01T13:23:09Z</time></trkpt><trkpt lat="42.29005358109732" lon="14.131428565042457"><ele>299.4</ele><time>2026-05-01T13:23:11Z</time></trkpt><trkpt lat="42.29010983578094" lon="14.131290491537667"><ele>296.2</ele><time>2026-05-01T13:23:13Z</time></trkpt><trkpt lat="42.29016276209691" lon="14.13117344352167"><ele>293.0</ele><time>2026-05-01T13:23:15Z</time></trkpt><trkpt lat="42.290200703846466" lon="14.130998838662336"><ele>293.0</ele><time>2026-05-01T13:23:17Z</time></trkpt><trkpt lat="42.290249220160426" lon="14.130845536642804"><ele>293.0</ele><time>2026-05-01T13:23:19Z</time></trkpt><trkpt lat="42.29026936018152" lon="14.130759638941482"><ele>293.0</ele><time>2026-05-01T13:23:20Z</time></trkpt><trkpt lat="42.290276559038354" lon="14.130660564695168"><ele>293.0</ele><time>2026-05-01T13:23:21Z</time></trkpt><trkpt lat="42.2903126554746" lon="14.130560088829537"><ele>293.0</ele><time>2026-05-01T13:23:22Z</time></trkpt><trkpt lat="42.29032995418849" lon="14.130388517175643"><ele>290.33333333333337</ele><time>2026-05-01T13:23:24Z</time></trkpt><trkpt lat="42.290353653539306" lon="14.130286449433775"><ele>287.6666666666667</ele><time>2026-05-01T13:23:25Z</time></trkpt><trkpt lat="42.29037816702684" lon="14.130175688438609"><ele>285.0</ele><time>2026-05-01T13:23:26Z</time></trkpt><trkpt lat="42.29038738221069" lon="14.130057413175614"><ele>282.3333333333333</ele><time>2026-05-01T13:23:27Z</time></trkpt><trkpt lat="42.290382677505725" lon="14.129936237638923"><ele>279.66666666666663</ele><time>2026-05-01T13:23:28Z</time></trkpt><trkpt lat="42.2903746613324" lon="14.129819307924913"><ele>277.0</ele><time>2026-05-01T13:23:29Z</time></trkpt><trkpt lat="42.29036704297781" lon="14.129708522752429"><ele>275.66666666666663</ele><time>2026-05-01T13:23:30Z</time></trkpt><trkpt lat="42.29037699155177" lon="14.129590350793208"><ele>274.3333333333333</ele><time>2026-05-01T13:23:31Z</time></trkpt><trkpt lat="42.290372292162466" lon="14.129476378614262"><ele>273.0</ele><time>2026-05-01T13:23:32Z</time></trkpt><trkpt lat="42.29036832738523" lon="14.129356692284087"><ele>271.6666666666667</ele><time>2026-05-01T13:23:33Z</time></trkpt><trkpt lat="42.29037001678479" lon="14.129235604373335"><ele>270.33333333333337</ele><time>2026-05-01T13:23:34Z</time></trkpt><trkpt lat="42.29037344341675" lon="14.129112436587857"><ele>269.0</ele><time>2026-05-01T13:23:35Z</time></trkpt><trkpt lat="42.29038126162675" lon="14.12898446645356"><ele>265.6666666666667</ele><time>2026-05-01T13:23:36Z</time></trkpt><trkpt lat="42.29038914769289" lon="14.128867169549457"><ele>262.33333333333337</ele><time>2026-05-01T13:23:37Z</time></trkpt><trkpt lat="42.290383255146985" lon="14.128753625199684"><ele>259.0</ele><time>2026-05-01T13:23:38Z</time></trkpt><trkpt lat="42.29039850508507" lon="14.128652173210199"><ele>255.66666666666669</ele><time>2026-05-01T13:23:39Z</time></trkpt><trkpt lat="42.290429572878416" lon="14.128551802745136"><ele>252.33333333333334</ele><time>2026-05-01T13:23:40Z</time></trkpt><trkpt lat="42.290449122639195" lon="14.128446779415018"><ele>249.0</ele><time>2026-05-01T13:23:41Z</time></trkpt><trkpt lat="42.29045139699819" lon="14.128326741159508"><ele>245.5</ele><time>2026-05-01T13:23:42Z</time></trkpt><trkpt lat="42.29048034747834" lon="14.128202318492127"><ele>242.0</ele><time>2026-05-01T13:23:43Z</time></trkpt><trkpt lat="42.2904804982307" lon="14.128072241795774"><ele>238.5</ele><time>2026-05-01T13:23:44Z</time></trkpt><trkpt lat="42.290511387584985" lon="14.127959302652153"><ele>235.0</ele><time>2026-05-01T13:23:45Z</time></trkpt><trkpt lat="42.290525300434524" lon="14.12785037756445"><ele>231.5</ele><time>2026-05-01T13:23:45.999Z</time></trkpt><trkpt lat="42.29053729747308" lon="14.127756451641847"><ele>228.0</ele><time>2026-05-01T13:23:46.999Z</time></trkpt><trkpt lat="42.2905393614191" lon="14.127643034247777"><ele>228.0</ele><time>2026-05-01T13:23:47.999Z</time></trkpt><trkpt lat="42.29056678999264" lon="14.127525393982433"><ele>228.0</ele><time>2026-05-01T13:23:48.999Z</time></trkpt><trkpt lat="42.29056413733761" lon="14.127420491291621"><ele>228.0</ele><time>2026-05-01T13:23:49.999Z</time></trkpt><trkpt lat="42.29058582923324" lon="14.127313077342214"><ele>228.0</ele><time>2026-05-01T13:23:50.999Z</time></trkpt><trkpt lat="42.290596754901955" lon="14.127192057802908"><ele>228.0</ele><time>2026-05-01T13:23:51.999Z</time></trkpt><trkpt lat="42.2906110262534" lon="14.127066915432279"><ele>228.0</ele><time>2026-05-01T13:23:52.999Z</time></trkpt><trkpt lat="42.290625287376265" lon="14.126942011595391"><ele>227.2</ele><time>2026-05-01T13:23:53.999Z</time></trkpt><trkpt lat="42.290641067493745" lon="14.12682253777455"><ele>226.4</ele><time>2026-05-01T13:23:54.999Z</time></trkpt><trkpt lat="42.29064057247557" lon="14.126706891418179"><ele>225.59999999999997</ele><time>2026-05-01T13:23:55.999Z</time></trkpt><trkpt lat="42.290631518498856" lon="14.126585969051533"><ele>224.79999999999998</ele><time>2026-05-01T13:23:56.999Z</time></trkpt><trkpt lat="42.2906363956246" lon="14.126453076960885"><ele>224.0</ele><time>2026-05-01T13:23:57.999Z</time></trkpt><trkpt lat="42.29062749560322" lon="14.126333698589796"><ele>222.50000000000003</ele><time>2026-05-01T13:23:58.999Z</time></trkpt><trkpt lat="42.29061842517764" lon="14.126215745284842"><ele>221.0</ele><time>2026-05-01T13:23:59.999Z</time></trkpt><trkpt lat="42.290608658201485" lon="14.12610165247298"><ele>219.5</ele><time>2026-05-01T13:24:00.999Z</time></trkpt><trkpt lat="42.29059800379632" lon="14.125977193554476"><ele>218.0</ele><time>2026-05-01T13:24:01.999Z</time></trkpt><trkpt lat="42.29058825100471" lon="14.125863266804208"><ele>216.50000000000003</ele><time>2026-05-01T13:24:02.999Z</time></trkpt><trkpt lat="42.29057711549907" lon="14.125733188150788"><ele>215.0</ele><time>2026-05-01T13:24:03.999Z</time></trkpt><trkpt lat="42.29056723933358" lon="14.125610787138841"><ele>212.33333333333334</ele><time>2026-05-01T13:24:04.999Z</time></trkpt><trkpt lat="42.29056050537193" lon="14.125517867660504"><ele>209.66666666666669</ele><time>2026-05-01T13:24:05.999Z</time></trkpt><trkpt lat="42.29055446432" lon="14.125426107567629"><ele>207.0</ele><time>2026-05-01T13:24:06.999Z</time></trkpt><trkpt lat="42.29054853223872" lon="14.125321880725126"><ele>204.33333333333331</ele><time>2026-05-01T13:24:07.999Z</time></trkpt><trkpt lat="42.29054367798161" lon="14.125209253318772"><ele>201.66666666666666</ele><time>2026-05-01T13:24:08.999Z</time></trkpt><trkpt lat="42.2905279395026" lon="14.12511263503322"><ele>199.0</ele><time>2026-05-01T13:24:09.999Z</time></trkpt><trkpt lat="42.29054559548416" lon="14.125003366788771"><ele>197.75</ele><time>2026-05-01T13:24:10.999Z</time></trkpt><trkpt lat="42.29056460878852" lon="14.124854415218978"><ele>196.5</ele><time>2026-05-01T13:24:12.999Z</time></trkpt><trkpt lat="42.29064142303634" lon="14.124730808806975"><ele>195.25</ele><time>2026-05-01T13:24:14.999Z</time></trkpt><trkpt lat="42.290696079485244" lon="14.124617481457436"><ele>194.0</ele><time>2026-05-01T13:24:16.999Z</time></trkpt><trkpt lat="42.29075457938882" lon="14.12447386397764"><ele>194.00000000000003</ele><time>2026-05-01T13:24:18.999Z</time></trkpt><trkpt lat="42.29080591021945" lon="14.12441135562578"><ele>194.0</ele><time>2026-05-01T13:24:19.999Z</time></trkpt><trkpt lat="42.29085052898969" lon="14.124316296610223"><ele>194.0</ele><time>2026-05-01T13:24:20.999Z</time></trkpt><trkpt lat="42.290890143795366" lon="14.12421493233967"><ele>194.0</ele><time>2026-05-01T13:24:21.999Z</time></trkpt><trkpt lat="42.290918136944505" lon="14.124116980077849"><ele>194.00000000000003</ele><time>2026-05-01T13:24:22.999Z</time></trkpt><trkpt lat="42.290927516452605" lon="14.124013359633416"><ele>194.0</ele><time>2026-05-01T13:24:23.999Z</time></trkpt><trkpt lat="42.2909431497319" lon="14.123920305872435"><ele>191.00000000000003</ele><time>2026-05-01T13:24:24.999Z</time></trkpt><trkpt lat="42.29096212256515" lon="14.123810191586356"><ele>188.0</ele><time>2026-05-01T13:24:25.999Z</time></trkpt><trkpt lat="42.290974600195554" lon="14.123715374703211"><ele>185.0</ele><time>2026-05-01T13:24:26.999Z</time></trkpt><trkpt lat="42.29098585310887" lon="14.123621771152791"><ele>182.0</ele><time>2026-05-01T13:24:27.999Z</time></trkpt><trkpt lat="42.290994573975404" lon="14.12352220380089"><ele>179.0</ele><time>2026-05-01T13:24:28.999Z</time></trkpt><trkpt lat="42.290971143746354" lon="14.123418192254045"><ele>176.0</ele><time>2026-05-01T13:24:29.999Z</time></trkpt><trkpt lat="42.2909255048972" lon="14.123289493154271"><ele>173.0</ele><time>2026-05-01T13:24:30.999Z</time></trkpt><trkpt lat="42.29088338879867" lon="14.123184885919455"><ele>170.0</ele><time>2026-05-01T13:24:31.999Z</time></trkpt><trkpt lat="42.290837977798965" lon="14.12304888464636"><ele>167.0</ele><time>2026-05-01T13:24:33.999Z</time></trkpt><trkpt lat="42.2908034376528" lon="14.12292528920099"><ele>164.0</ele><time>2026-05-01T13:24:35.999Z</time></trkpt><trkpt lat="42.29076968493673" lon="14.122781384655866"><ele>161.0</ele><time>2026-05-01T13:24:37.999Z</time></trkpt><trkpt lat="42.29074833525035" lon="14.122659480547819"><ele>161.0</ele><time>2026-05-01T13:24:39.999Z</time></trkpt><trkpt lat="42.29074242796715" lon="14.122524235030575"><ele>161.0</ele><time>2026-05-01T13:24:41.999Z</time></trkpt><trkpt lat="42.29077157440973" lon="14.122433946436416"><ele>161.0</ele><time>2026-05-01T13:24:43.999Z</time></trkpt><trkpt lat="42.2908373441964" lon="14.122377838715522"><ele>161.0</ele><time>2026-05-01T13:24:44.999Z</time></trkpt><trkpt lat="42.29089804595532" lon="14.122323356615597"><ele>161.0</ele><time>2026-05-01T13:24:45.999Z</time></trkpt><trkpt lat="42.2909387473427" lon="14.122255713606478"><ele>161.0</ele><time>2026-05-01T13:24:46.999Z</time></trkpt><trkpt lat="42.290994716169116" lon="14.122159948530626"><ele>161.0</ele><time>2026-05-01T13:24:49Z</time></trkpt><trkpt lat="42.291013681994656" lon="14.122056650982701"><ele>161.0</ele><time>2026-05-01T13:24:51Z</time></trkpt><trkpt lat="42.2910029562648" lon="14.121966512312204"><ele>161.0</ele><time>2026-05-01T13:24:52Z</time></trkpt><trkpt lat="42.29099850863042" lon="14.12187391984854"><ele>161.0</ele><time>2026-05-01T13:24:53Z</time></trkpt><trkpt lat="42.29104949385206" lon="14.121780453824874"><ele>161.0</ele><time>2026-05-01T13:24:55Z</time></trkpt><trkpt lat="42.29109853628211" lon="14.121699881677644"><ele>161.0</ele><time>2026-05-01T13:24:56Z</time></trkpt><trkpt lat="42.2911462269038" lon="14.121607341430805"><ele>162.66666666666666</ele><time>2026-05-01T13:24:57Z</time></trkpt><trkpt lat="42.29117818687456" lon="14.121508643720006"><ele>164.33333333333331</ele><time>2026-05-01T13:24:58Z</time></trkpt><trkpt lat="42.2912376013959" lon="14.121422837908788"><ele>166.0</ele><time>2026-05-01T13:24:59Z</time></trkpt><trkpt lat="42.29128595238051" lon="14.121322743984567"><ele>167.66666666666666</ele><time>2026-05-01T13:25:00Z</time></trkpt><trkpt lat="42.291329557102536" lon="14.121205810804977"><ele>169.33333333333334</ele><time>2026-05-01T13:25:01Z</time></trkpt><trkpt lat="42.29136914525011" lon="14.121114998366833"><ele>171.0</ele><time>2026-05-01T13:25:02Z</time></trkpt><trkpt lat="42.29141720871314" lon="14.121042495178177"><ele>172.5</ele><time>2026-05-01T13:25:03Z</time></trkpt><trkpt lat="42.29145155613859" lon="14.120968886557652"><ele>174.0</ele><time>2026-05-01T13:25:04Z</time></trkpt><trkpt lat="42.291479023873045" lon="14.120877683723831"><ele>175.5</ele><time>2026-05-01T13:25:05Z</time></trkpt><trkpt lat="42.29154228489276" lon="14.120773230900499"><ele>177.0</ele><time>2026-05-01T13:25:06Z</time></trkpt><trkpt lat="42.29156623227444" lon="14.12067891768166"><ele>178.5</ele><time>2026-05-01T13:25:07Z</time></trkpt><trkpt lat="42.29161090543615" lon="14.120589343447673"><ele>180.0</ele><time>2026-05-01T13:25:08Z</time></trkpt><trkpt lat="42.29165274950406" lon="14.120510570556826"><ele>182.83333333333334</ele><time>2026-05-01T13:25:09Z</time></trkpt><trkpt lat="42.291697901478855" lon="14.1204108118299"><ele>185.66666666666669</ele><time>2026-05-01T13:25:10Z</time></trkpt><trkpt lat="42.29173617249799" lon="14.120339049968655"><ele>188.5</ele><time>2026-05-01T13:25:11Z</time></trkpt><trkpt lat="42.29177891799875" lon="14.12026199625222"><ele>191.33333333333334</ele><time>2026-05-01T13:25:12Z</time></trkpt><trkpt lat="42.29183684754585" lon="14.120133944337331"><ele>194.16666666666669</ele><time>2026-05-01T13:25:14Z</time></trkpt><trkpt lat="42.29181597405417" lon="14.120029900108907"><ele>197.0</ele><time>2026-05-01T13:25:15Z</time></trkpt><trkpt lat="42.2918058365308" lon="14.119912147367375"><ele>200.00000000000003</ele><time>2026-05-01T13:25:16Z</time></trkpt><trkpt lat="42.29181386058245" lon="14.119801007333798"><ele>203.0</ele><time>2026-05-01T13:25:17Z</time></trkpt><trkpt lat="42.29177698135898" lon="14.119674733000556"><ele>206.0</ele><time>2026-05-01T13:25:18Z</time></trkpt><trkpt lat="42.29176965297819" lon="14.119570518920879"><ele>209.0</ele><time>2026-05-01T13:25:19Z</time></trkpt><trkpt lat="42.291740287591985" lon="14.119476735417752"><ele>212.00000000000003</ele><time>2026-05-01T13:25:20Z</time></trkpt><trkpt lat="42.29183593985118" lon="14.119491073440615"><ele>215.0</ele><time>2026-05-01T13:25:24Z</time></trkpt><trkpt lat="42.291900044801146" lon="14.119536659770064"><ele>215.0</ele><time>2026-05-01T13:25:25Z</time></trkpt><trkpt lat="42.29203242077549" lon="14.119537998319306"><ele>215.0</ele><time>2026-05-01T13:25:27Z</time></trkpt><trkpt lat="42.2920954025813" lon="14.119499696681547"><ele>215.0</ele><time>2026-05-01T13:25:28Z</time></trkpt><trkpt lat="42.29217694711617" lon="14.119440024775555"><ele>215.0</ele><time>2026-05-01T13:25:29Z</time></trkpt><trkpt lat="42.29224952808958" lon="14.11939608803502"><ele>215.0</ele><time>2026-05-01T13:25:30Z</time></trkpt><trkpt lat="42.29232999077603" lon="14.119344727520874"><ele>217.14285714285714</ele><time>2026-05-01T13:25:31Z</time></trkpt><trkpt lat="42.292396796622455" lon="14.119297489184794"><ele>219.28571428571428</ele><time>2026-05-01T13:25:32Z</time></trkpt><trkpt lat="42.292465456918286" lon="14.119250199938332"><ele>221.42857142857142</ele><time>2026-05-01T13:25:33Z</time></trkpt><trkpt lat="42.29253086977844" lon="14.119203850427459"><ele>223.57142857142856</ele><time>2026-05-01T13:25:34Z</time></trkpt><trkpt lat="42.29259194425462" lon="14.11915045904407"><ele>225.71428571428572</ele><time>2026-05-01T13:25:35Z</time></trkpt><trkpt lat="42.29264117941624" lon="14.119084584153573"><ele>227.85714285714283</ele><time>2026-05-01T13:25:36Z</time></trkpt><trkpt lat="42.292692404093586" lon="14.119010956107193"><ele>229.99999999999997</ele><time>2026-05-01T13:25:37Z</time></trkpt><trkpt lat="42.29280044141696" lon="14.118882640633972"><ele>232.4285714285714</ele><time>2026-05-01T13:25:39Z</time></trkpt><trkpt lat="42.29286497610539" lon="14.118819910260887"><ele>234.85714285714283</ele><time>2026-05-01T13:25:40Z</time></trkpt><trkpt lat="42.29292734195327" lon="14.118760721226572"><ele>237.28571428571428</ele><time>2026-05-01T13:25:41Z</time></trkpt><trkpt lat="42.29298806693352" lon="14.11871131137088"><ele>239.7142857142857</ele><time>2026-05-01T13:25:42Z</time></trkpt><trkpt lat="42.293044012719925" lon="14.118660893806082"><ele>242.1428571428571</ele><time>2026-05-01T13:25:43Z</time></trkpt><trkpt lat="42.29306118151036" lon="14.11857121987719"><ele>244.57142857142858</ele><time>2026-05-01T13:25:45Z</time></trkpt><trkpt lat="42.2930348891473" lon="14.118485107668445"><ele>247.0</ele><time>2026-05-01T13:25:46Z</time></trkpt><trkpt lat="42.293001679747256" lon="14.118366831835578"><ele>246.99999999999997</ele><time>2026-05-01T13:25:47Z</time></trkpt><trkpt lat="42.29300643093667" lon="14.118252259824763"><ele>247.0</ele><time>2026-05-01T13:25:48Z</time></trkpt><trkpt lat="42.29298527741594" lon="14.118158016104495"><ele>247.0</ele><time>2026-05-01T13:25:50Z</time></trkpt><trkpt lat="42.29286980290875" lon="14.118116002450753"><ele>247.0</ele><time>2026-05-01T13:25:52Z</time></trkpt><trkpt lat="42.29279757716989" lon="14.118086609984568"><ele>246.99999999999997</ele><time>2026-05-01T13:25:53Z</time></trkpt><trkpt lat="42.29272729140497" lon="14.118076066393927"><ele>247.0</ele><time>2026-05-01T13:25:54Z</time></trkpt><trkpt lat="42.29265885004465" lon="14.11804905397445"><ele>246.28571428571428</ele><time>2026-05-01T13:25:55Z</time></trkpt><trkpt lat="42.29258917027667" lon="14.118016566835378"><ele>245.57142857142856</ele><time>2026-05-01T13:25:56Z</time></trkpt><trkpt lat="42.292521522991684" lon="14.117982654800544"><ele>244.85714285714283</ele><time>2026-05-01T13:25:57Z</time></trkpt><trkpt lat="42.29246852589162" lon="14.117919328310032"><ele>244.14285714285714</ele><time>2026-05-01T13:25:58Z</time></trkpt><trkpt lat="42.292410500960514" lon="14.117866249177432"><ele>243.4285714285714</ele><time>2026-05-01T13:25:59Z</time></trkpt><trkpt lat="42.29235541330617" lon="14.117802910745922"><ele>242.7142857142857</ele><time>2026-05-01T13:26:00Z</time></trkpt><trkpt lat="42.292347288346754" lon="14.117698329336175"><ele>242.0</ele><time>2026-05-01T13:26:01Z</time></trkpt><trkpt lat="42.29237541342501" lon="14.117594644529934"><ele>242.0</ele><time>2026-05-01T13:26:02Z</time></trkpt><trkpt lat="42.29244402665099" lon="14.117515946893933"><ele>242.0</ele><time>2026-05-01T13:26:03Z</time></trkpt><trkpt lat="42.29253869750835" lon="14.11750754228194"><ele>242.0</ele><time>2026-05-01T13:26:03.999Z</time></trkpt><trkpt lat="42.29263752517184" lon="14.11756984789809"><ele>242.0</ele><time>2026-05-01T13:26:04.999Z</time></trkpt><trkpt lat="42.29274699810086" lon="14.117670864053531"><ele>242.0</ele><time>2026-05-01T13:26:05.999Z</time></trkpt><trkpt lat="42.29286017324178" lon="14.117756260952374"><ele>242.00000000000003</ele><time>2026-05-01T13:26:06.999Z</time></trkpt><trkpt lat="42.29293284828802" lon="14.117813101489944"><ele>242.0</ele><time>2026-05-01T13:26:07.999Z</time></trkpt><trkpt lat="42.29301228759646" lon="14.117834356261397"><ele>242.0</ele><time>2026-05-01T13:26:08.999Z</time></trkpt><trkpt lat="42.29308860626019" lon="14.117824223620252"><ele>242.0</ele><time>2026-05-01T13:26:09.999Z</time></trkpt><trkpt lat="42.29314496849225" lon="14.117766985825172"><ele>242.00000000000003</ele><time>2026-05-01T13:26:10.999Z</time></trkpt><trkpt lat="42.29318002834509" lon="14.117692063496168"><ele>242.0</ele><time>2026-05-01T13:26:11.999Z</time></trkpt><trkpt lat="42.29316115419458" lon="14.11756345043413"><ele>242.0</ele><time>2026-05-01T13:26:12.999Z</time></trkpt><trkpt lat="42.29304484477489" lon="14.117473280413286"><ele>242.0</ele><time>2026-05-01T13:26:13.999Z</time></trkpt><trkpt lat="42.2929457770136" lon="14.11738049697001"><ele>242.0</ele><time>2026-05-01T13:26:14.999Z</time></trkpt><trkpt lat="42.29284335897709" lon="14.117264637418362"><ele>242.0</ele><time>2026-05-01T13:26:15.999Z</time></trkpt><trkpt lat="42.29275247886617" lon="14.117138915997067"><ele>238.75</ele><time>2026-05-01T13:26:16.999Z</time></trkpt><trkpt lat="42.29266477134887" lon="14.11698095492945"><ele>235.5</ele><time>2026-05-01T13:26:17.999Z</time></trkpt><trkpt lat="42.29258040502508" lon="14.116814095124198"><ele>232.25</ele><time>2026-05-01T13:26:18.999Z</time></trkpt><trkpt lat="42.29250261940818" lon="14.116662329787314"><ele>229.0</ele><time>2026-05-01T13:26:19.999Z</time></trkpt><trkpt lat="42.29241485481451" lon="14.116537190869128"><ele>224.33333333333331</ele><time>2026-05-01T13:26:20.999Z</time></trkpt><trkpt lat="42.29234232453123" lon="14.116381023293249"><ele>219.66666666666669</ele><time>2026-05-01T13:26:21.999Z</time></trkpt><trkpt lat="42.29222503397951" lon="14.1162310125907"><ele>215.0</ele><time>2026-05-01T13:26:22.999Z</time></trkpt><trkpt lat="42.292102616022575" lon="14.116085429236056"><ele>215.0</ele><time>2026-05-01T13:26:23.999Z</time></trkpt><trkpt lat="42.29198733357463" lon="14.115948135943766"><ele>215.0</ele><time>2026-05-01T13:26:24.999Z</time></trkpt><trkpt lat="42.29187395120469" lon="14.115793056183218"><ele>215.0</ele><time>2026-05-01T13:26:25.999Z</time></trkpt><trkpt lat="42.29174543933226" lon="14.11560764211019"><ele>214.0</ele><time>2026-05-01T13:26:26.999Z</time></trkpt><trkpt lat="42.29163034421009" lon="14.115430236307972"><ele>213.0</ele><time>2026-05-01T13:26:27.999Z</time></trkpt><trkpt lat="42.29153131820614" lon="14.115270924106868"><ele>212.0</ele><time>2026-05-01T13:26:28.999Z</time></trkpt><trkpt lat="42.2914446798444" lon="14.115123987846761"><ele>212.0</ele><time>2026-05-01T13:26:29.999Z</time></trkpt><trkpt lat="42.29134913665351" lon="14.114986945955746"><ele>212.0</ele><time>2026-05-01T13:26:30.999Z</time></trkpt><trkpt lat="42.291268658816314" lon="14.114823823703333"><ele>212.0</ele><time>2026-05-01T13:26:31.999Z</time></trkpt><trkpt lat="42.29119165358747" lon="14.11466142387482"><ele>212.0</ele><time>2026-05-01T13:26:32.999Z</time></trkpt><trkpt lat="42.29111877509832" lon="14.114495024470624"><ele>212.5</ele><time>2026-05-01T13:26:33.999Z</time></trkpt><trkpt lat="42.29103577131678" lon="14.114325023761575"><ele>213.0</ele><time>2026-05-01T13:26:34.999Z</time></trkpt><trkpt lat="42.29095854266907" lon="14.114145461874893"><ele>213.5</ele><time>2026-05-01T13:26:35.999Z</time></trkpt><trkpt lat="42.29088294656304" lon="14.113979571641687"><ele>214.0</ele><time>2026-05-01T13:26:36.999Z</time></trkpt><trkpt lat="42.29080268760602" lon="14.113805025105998"><ele>214.0</ele><time>2026-05-01T13:26:37.999Z</time></trkpt><trkpt lat="42.29073140115791" lon="14.113643280057403"><ele>214.0</ele><time>2026-05-01T13:26:38.999Z</time></trkpt><trkpt lat="42.29066558138106" lon="14.113498706804691"><ele>214.0</ele><time>2026-05-01T13:26:39.999Z</time></trkpt><trkpt lat="42.29060851561799" lon="14.113367715725005"><ele>214.0</ele><time>2026-05-01T13:26:40.999Z</time></trkpt><trkpt lat="42.29054938313818" lon="14.113213740252265"><ele>217.33333333333331</ele><time>2026-05-01T13:26:41.999Z</time></trkpt><trkpt lat="42.29049539866322" lon="14.113031094466018"><ele>220.66666666666669</ele><time>2026-05-01T13:26:42.999Z</time></trkpt><trkpt lat="42.29043764829534" lon="14.11283291489401"><ele>224.0</ele><time>2026-05-01T13:26:43.999Z</time></trkpt><trkpt lat="42.290381410014156" lon="14.11261953018982"><ele>224.0</ele><time>2026-05-01T13:26:44.999Z</time></trkpt><trkpt lat="42.290349579280715" lon="14.112414982335563"><ele>224.0</ele><time>2026-05-01T13:26:45.999Z</time></trkpt><trkpt lat="42.290305803850345" lon="14.11220927160185"><ele>224.0</ele><time>2026-05-01T13:26:46.999Z</time></trkpt><trkpt lat="42.29024735406724" lon="14.11199446202142"><ele>222.33333333333334</ele><time>2026-05-01T13:26:47.999Z</time></trkpt><trkpt lat="42.2902040622965" lon="14.111775372927525"><ele>220.66666666666669</ele><time>2026-05-01T13:26:48.999Z</time></trkpt><trkpt lat="42.29016168633317" lon="14.111552368846544"><ele>219.0</ele><time>2026-05-01T13:26:49.999Z</time></trkpt><trkpt lat="42.290135610439805" lon="14.111335599574833"><ele>217.25</ele><time>2026-05-01T13:26:50.999Z</time></trkpt><trkpt lat="42.29014614389649" lon="14.11114271406921"><ele>215.5</ele><time>2026-05-01T13:26:51.999Z</time></trkpt><trkpt lat="42.29017291234139" lon="14.11095771275278"><ele>213.75</ele><time>2026-05-01T13:26:52.999Z</time></trkpt><trkpt lat="42.290219248989295" lon="14.110778936098066"><ele>212.0</ele><time>2026-05-01T13:26:54Z</time></trkpt><trkpt lat="42.29027392241968" lon="14.110609752807214"><ele>212.5</ele><time>2026-05-01T13:26:55Z</time></trkpt><trkpt lat="42.29033400537787" lon="14.110468268723515"><ele>213.0</ele><time>2026-05-01T13:26:56Z</time></trkpt><trkpt lat="42.290400563891026" lon="14.110336970748662"><ele>213.5</ele><time>2026-05-01T13:26:57Z</time></trkpt><trkpt lat="42.290519344573966" lon="14.110261721192128"><ele>214.0</ele><time>2026-05-01T13:26:58Z</time></trkpt><trkpt lat="42.29063660587205" lon="14.110152678034419"><ele>214.0</ele><time>2026-05-01T13:26:59Z</time></trkpt><trkpt lat="42.29076680477528" lon="14.110043459521348"><ele>214.0</ele><time>2026-05-01T13:27:00Z</time></trkpt><trkpt lat="42.29090083115761" lon="14.109908194459646"><ele>214.0</ele><time>2026-05-01T13:27:01Z</time></trkpt><trkpt lat="42.29102186283085" lon="14.10977822451581"><ele>212.25</ele><time>2026-05-01T13:27:02Z</time></trkpt><trkpt lat="42.2911342230864" lon="14.109646937396581"><ele>210.5</ele><time>2026-05-01T13:27:03Z</time></trkpt><trkpt lat="42.2912423168552" lon="14.109513884743793"><ele>208.75</ele><time>2026-05-01T13:27:04Z</time></trkpt><trkpt lat="42.29136539470943" lon="14.109397007755653"><ele>207.0</ele><time>2026-05-01T13:27:05Z</time></trkpt><trkpt lat="42.29148396265878" lon="14.109258246695267"><ele>212.66666666666669</ele><time>2026-05-01T13:27:06Z</time></trkpt><trkpt lat="42.29162488998531" lon="14.109169889481546"><ele>218.33333333333334</ele><time>2026-05-01T13:27:07Z</time></trkpt><trkpt lat="42.2917592442551" lon="14.109099022923427"><ele>224.0</ele><time>2026-05-01T13:27:08Z</time></trkpt><trkpt lat="42.2919009212992" lon="14.10902382585076"><ele>223.5</ele><time>2026-05-01T13:27:09Z</time></trkpt><trkpt lat="42.29201599167002" lon="14.10893042929538"><ele>223.0</ele><time>2026-05-01T13:27:10Z</time></trkpt><trkpt lat="42.29212414044479" lon="14.108818368539787"><ele>222.5</ele><time>2026-05-01T13:27:11Z</time></trkpt><trkpt lat="42.29223448008235" lon="14.108705430864807"><ele>222.0</ele><time>2026-05-01T13:27:12Z</time></trkpt><trkpt lat="42.292336363803805" lon="14.108560061621041"><ele>222.0</ele><time>2026-05-01T13:27:13Z</time></trkpt><trkpt lat="42.29242713296471" lon="14.108392505176433"><ele>222.0</ele><time>2026-05-01T13:27:14Z</time></trkpt><trkpt lat="42.29250982678188" lon="14.108178187009543"><ele>222.0</ele><time>2026-05-01T13:27:15Z</time></trkpt><trkpt lat="42.29259404522824" lon="14.107964343452718"><ele>223.66666666666669</ele><time>2026-05-01T13:27:16Z</time></trkpt><trkpt lat="42.2926756083114" lon="14.10775438222255"><ele>225.33333333333334</ele><time>2026-05-01T13:27:17Z</time></trkpt><trkpt lat="42.292763765113854" lon="14.107566505461817"><ele>227.0</ele><time>2026-05-01T13:27:18Z</time></trkpt><trkpt lat="42.29282096698775" lon="14.107361123542226"><ele>228.0</ele><time>2026-05-01T13:27:19Z</time></trkpt><trkpt lat="42.29290013528524" lon="14.107149697638059"><ele>229.0</ele><time>2026-05-01T13:27:20Z</time></trkpt><trkpt lat="42.29297824793802" lon="14.106925559857425"><ele>230.0</ele><time>2026-05-01T13:27:21Z</time></trkpt><trkpt lat="42.29305869984491" lon="14.106703524065418"><ele>225.66666666666669</ele><time>2026-05-01T13:27:22Z</time></trkpt><trkpt lat="42.29313583120909" lon="14.106501749994857"><ele>221.33333333333331</ele><time>2026-05-01T13:27:23Z</time></trkpt><trkpt lat="42.29322554214994" lon="14.106315271739751"><ele>217.0</ele><time>2026-05-01T13:27:24Z</time></trkpt><trkpt lat="42.293306172810574" lon="14.10613947398545"><ele>217.0</ele><time>2026-05-01T13:27:25Z</time></trkpt><trkpt lat="42.293397976230835" lon="14.10597944072044"><ele>217.0</ele><time>2026-05-01T13:27:26Z</time></trkpt><trkpt lat="42.29349307673038" lon="14.105833386319588"><ele>217.0</ele><time>2026-05-01T13:27:27Z</time></trkpt><trkpt lat="42.29359555099764" lon="14.105695911991148"><ele>217.0</ele><time>2026-05-01T13:27:28Z</time></trkpt><trkpt lat="42.29369150315652" lon="14.105550876051852"><ele>218.0</ele><time>2026-05-01T13:27:29Z</time></trkpt><trkpt lat="42.29379825366201" lon="14.105407132009494"><ele>219.0</ele><time>2026-05-01T13:27:30Z</time></trkpt><trkpt lat="42.293896780330286" lon="14.105240876224133"><ele>220.0</ele><time>2026-05-01T13:27:31Z</time></trkpt><trkpt lat="42.293995450746564" lon="14.10504861452357"><ele>216.33333333333331</ele><time>2026-05-01T13:27:32Z</time></trkpt><trkpt lat="42.2940892848405" lon="14.104849222088612"><ele>212.66666666666669</ele><time>2026-05-01T13:27:33Z</time></trkpt><trkpt lat="42.29417907451824" lon="14.104654226136143"><ele>209.0</ele><time>2026-05-01T13:27:34Z</time></trkpt><trkpt lat="42.294274558840094" lon="14.104466435130004"><ele>209.0</ele><time>2026-05-01T13:27:35Z</time></trkpt><trkpt lat="42.29436546898972" lon="14.10428759070689"><ele>209.0</ele><time>2026-05-01T13:27:36Z</time></trkpt><trkpt lat="42.294455045954805" lon="14.104107505106393"><ele>209.0</ele><time>2026-05-01T13:27:37Z</time></trkpt><trkpt lat="42.294564655787795" lon="14.103929048360088"><ele>209.0</ele><time>2026-05-01T13:27:38Z</time></trkpt><trkpt lat="42.29465956975777" lon="14.103743458438316"><ele>209.0</ele><time>2026-05-01T13:27:39Z</time></trkpt><trkpt lat="42.294754458836245" lon="14.103549891942151"><ele>209.0</ele><time>2026-05-01T13:27:40Z</time></trkpt><trkpt lat="42.294849167922145" lon="14.103350700969413"><ele>207.33333333333334</ele><time>2026-05-01T13:27:41Z</time></trkpt><trkpt lat="42.29494297144704" lon="14.103153322831727"><ele>205.66666666666669</ele><time>2026-05-01T13:27:42Z</time></trkpt><trkpt lat="42.2950354496073" lon="14.102959906462635"><ele>204.0</ele><time>2026-05-01T13:27:43Z</time></trkpt><trkpt lat="42.295133919853676" lon="14.10276544377622"><ele>204.0</ele><time>2026-05-01T13:27:44Z</time></trkpt><trkpt lat="42.29523671436042" lon="14.102578871327973"><ele>204.0</ele><time>2026-05-01T13:27:45Z</time></trkpt><trkpt lat="42.295335429579445" lon="14.102384385471895"><ele>204.0</ele><time>2026-05-01T13:27:46Z</time></trkpt><trkpt lat="42.29544565702901" lon="14.102227004244616"><ele>203.75</ele><time>2026-05-01T13:27:47Z</time></trkpt><trkpt lat="42.29554799944633" lon="14.102089060672453"><ele>203.5</ele><time>2026-05-01T13:27:48Z</time></trkpt><trkpt lat="42.295647159913926" lon="14.101964734216535"><ele>203.25</ele><time>2026-05-01T13:27:49Z</time></trkpt><trkpt lat="42.29575384194828" lon="14.101866791259654"><ele>203.0</ele><time>2026-05-01T13:27:50Z</time></trkpt><trkpt lat="42.2958647758931" lon="14.10175233478953"><ele>202.66666666666669</ele><time>2026-05-01T13:27:51Z</time></trkpt><trkpt lat="42.29597248547742" lon="14.101615252149296"><ele>202.33333333333331</ele><time>2026-05-01T13:27:52Z</time></trkpt><trkpt lat="42.29606843037486" lon="14.101440200978281"><ele>202.0</ele><time>2026-05-01T13:27:53Z</time></trkpt><trkpt lat="42.296178131527405" lon="14.101282588312554"><ele>201.5</ele><time>2026-05-01T13:27:54Z</time></trkpt><trkpt lat="42.296288148163725" lon="14.101153716549746"><ele>201.0</ele><time>2026-05-01T13:27:55Z</time></trkpt><trkpt lat="42.29638501389744" lon="14.101015512436433"><ele>200.5</ele><time>2026-05-01T13:27:56Z</time></trkpt><trkpt lat="42.29647098311976" lon="14.100872348722442"><ele>200.0</ele><time>2026-05-01T13:27:57Z</time></trkpt><trkpt lat="42.2965822606939" lon="14.100746609884293"><ele>200.0</ele><time>2026-05-01T13:27:58Z</time></trkpt><trkpt lat="42.29670809829946" lon="14.100622457957451"><ele>200.0</ele><time>2026-05-01T13:27:59Z</time></trkpt><trkpt lat="42.296849043053214" lon="14.10050198483087"><ele>200.0</ele><time>2026-05-01T13:28:00Z</time></trkpt><trkpt lat="42.29699496095905" lon="14.10037382200663"><ele>200.0</ele><time>2026-05-01T13:28:01Z</time></trkpt><trkpt lat="42.29712326751928" lon="14.100225519482995"><ele>200.0</ele><time>2026-05-01T13:28:02Z</time></trkpt><trkpt lat="42.29722926710839" lon="14.100072013121787"><ele>200.0</ele><time>2026-05-01T13:28:03Z</time></trkpt><trkpt lat="42.29732816885508" lon="14.099911745328967"><ele>196.0</ele><time>2026-05-01T13:28:04Z</time></trkpt><trkpt lat="42.29741321179639" lon="14.099762687524125"><ele>192.0</ele><time>2026-05-01T13:28:05Z</time></trkpt><trkpt lat="42.29748758639854" lon="14.099612069462763"><ele>188.0</ele><time>2026-05-01T13:28:06Z</time></trkpt><trkpt lat="42.297548990817035" lon="14.09944509902491"><ele>184.0</ele><time>2026-05-01T13:28:07Z</time></trkpt><trkpt lat="42.29759369536876" lon="14.099249610243646"><ele>182.33333333333334</ele><time>2026-05-01T13:28:08Z</time></trkpt><trkpt lat="42.29761872255064" lon="14.099046336772426"><ele>180.66666666666666</ele><time>2026-05-01T13:28:09Z</time></trkpt><trkpt lat="42.297626344503385" lon="14.09883207147624"><ele>179.0</ele><time>2026-05-01T13:28:10Z</time></trkpt><trkpt lat="42.297623050443775" lon="14.098609403768565"><ele>179.0</ele><time>2026-05-01T13:28:11Z</time></trkpt><trkpt lat="42.297618111329314" lon="14.098391697280293"><ele>179.0</ele><time>2026-05-01T13:28:12Z</time></trkpt><trkpt lat="42.29762210764685" lon="14.098210386376435"><ele>179.0</ele><time>2026-05-01T13:28:13Z</time></trkpt><trkpt lat="42.297633120013344" lon="14.09805019767047"><ele>179.0</ele><time>2026-05-01T13:28:14Z</time></trkpt><trkpt lat="42.29766395682972" lon="14.097926956295126"><ele>179.2</ele><time>2026-05-01T13:28:15Z</time></trkpt><trkpt lat="42.29769057842594" lon="14.097814892102116"><ele>179.39999999999998</ele><time>2026-05-01T13:28:15.999Z</time></trkpt><trkpt lat="42.297714318225616" lon="14.09772006557433"><ele>179.6</ele><time>2026-05-01T13:28:16.999Z</time></trkpt><trkpt lat="42.297751538285254" lon="14.0976426465785"><ele>179.8</ele><time>2026-05-01T13:28:18.999Z</time></trkpt><trkpt lat="42.29777235709137" lon="14.097815577164432"><ele>180.0</ele><time>2026-05-01T13:28:21.999Z</time></trkpt><trkpt lat="42.297791635133024" lon="14.097959332931483"><ele>180.0</ele><time>2026-05-01T13:28:22.999Z</time></trkpt><trkpt lat="42.29784873886397" lon="14.098061351184064"><ele>180.0</ele><time>2026-05-01T13:28:23.999Z</time></trkpt><trkpt lat="42.29794740552836" lon="14.098108585157668"><ele>180.0</ele><time>2026-05-01T13:28:24.999Z</time></trkpt><trkpt lat="42.29803967952451" lon="14.098138599692641"><ele>180.0</ele><time>2026-05-01T13:28:25.999Z</time></trkpt><trkpt lat="42.29811971167674" lon="14.09819603486797"><ele>180.0</ele><time>2026-05-01T13:28:26.999Z</time></trkpt><trkpt lat="42.29816799991922" lon="14.098291883480917"><ele>176.66666666666666</ele><time>2026-05-01T13:28:27.999Z</time></trkpt><trkpt lat="42.298237863745534" lon="14.098362447019515"><ele>173.33333333333334</ele><time>2026-05-01T13:28:28.999Z</time></trkpt><trkpt lat="42.29829696806584" lon="14.098425928935859"><ele>170.0</ele><time>2026-05-01T13:28:29.999Z</time></trkpt><trkpt lat="42.29837048959099" lon="14.098478790958561"><ele>166.66666666666669</ele><time>2026-05-01T13:28:30.999Z</time></trkpt><trkpt lat="42.29845875493962" lon="14.098523863276112"><ele>163.33333333333334</ele><time>2026-05-01T13:28:31.999Z</time></trkpt><trkpt lat="42.29855205922904" lon="14.09858789796981"><ele>160.0</ele><time>2026-05-01T13:28:32.999Z</time></trkpt><trkpt lat="42.29863993640454" lon="14.098633028654868"><ele>160.0</ele><time>2026-05-01T13:28:33.999Z</time></trkpt><trkpt lat="42.298750496284185" lon="14.098660365042324"><ele>160.0</ele><time>2026-05-01T13:28:34.999Z</time></trkpt><trkpt lat="42.29888430294712" lon="14.098692439267566"><ele>160.0</ele><time>2026-05-01T13:28:35.999Z</time></trkpt><trkpt lat="42.29900797352816" lon="14.098705851913932"><ele>160.0</ele><time>2026-05-01T13:28:36.999Z</time></trkpt><trkpt lat="42.29912397290247" lon="14.098739739195464"><ele>154.75</ele><time>2026-05-01T13:28:37.999Z</time></trkpt><trkpt lat="42.29923589607005" lon="14.098767373840017"><ele>149.5</ele><time>2026-05-01T13:28:38.999Z</time></trkpt><trkpt lat="42.299342674315376" lon="14.098788882251606"><ele>144.25</ele><time>2026-05-01T13:28:39.999Z</time></trkpt><trkpt lat="42.2994606735328" lon="14.098801507763126"><ele>139.0</ele><time>2026-05-01T13:28:40.999Z</time></trkpt><trkpt lat="42.29958048142632" lon="14.098795056897877"><ele>139.0</ele><time>2026-05-01T13:28:41.999Z</time></trkpt><trkpt lat="42.29970016963918" lon="14.098769640670893"><ele>139.0</ele><time>2026-05-01T13:28:42.999Z</time></trkpt><trkpt lat="42.29981283138335" lon="14.098741246046615"><ele>139.0</ele><time>2026-05-01T13:28:43.999Z</time></trkpt><trkpt lat="42.29992008342983" lon="14.098711725042559"><ele>139.0</ele><time>2026-05-01T13:28:44.999Z</time></trkpt><trkpt lat="42.3000256671347" lon="14.098679862815498"><ele>135.75</ele><time>2026-05-01T13:28:45.999Z</time></trkpt><trkpt lat="42.30013279563642" lon="14.098639499932002"><ele>132.5</ele><time>2026-05-01T13:28:46.999Z</time></trkpt><trkpt lat="42.3002352421583" lon="14.098587392137588"><ele>129.25</ele><time>2026-05-01T13:28:47.999Z</time></trkpt><trkpt lat="42.30033875171876" lon="14.098517537678923"><ele>126.0</ele><time>2026-05-01T13:28:48.999Z</time></trkpt><trkpt lat="42.30044294753979" lon="14.098430300892431"><ele>126.0</ele><time>2026-05-01T13:28:49.999Z</time></trkpt><trkpt lat="42.30055146290963" lon="14.098327494235344"><ele>126.0</ele><time>2026-05-01T13:28:50.999Z</time></trkpt><trkpt lat="42.30064449510279" lon="14.098206328612953"><ele>126.0</ele><time>2026-05-01T13:28:51.999Z</time></trkpt><trkpt lat="42.30074040728643" lon="14.098093373753002"><ele>126.0</ele><time>2026-05-01T13:28:52.999Z</time></trkpt><trkpt lat="42.30085329657551" lon="14.098020328813716"><ele>122.25</ele><time>2026-05-01T13:28:53.999Z</time></trkpt><trkpt lat="42.30097410744089" lon="14.097943895037439"><ele>118.5</ele><time>2026-05-01T13:28:54.999Z</time></trkpt><trkpt lat="42.30111568255598" lon="14.097853840637239"><ele>114.75</ele><time>2026-05-01T13:28:55.999Z</time></trkpt><trkpt lat="42.30125848114403" lon="14.09782247713819"><ele>111.0</ele><time>2026-05-01T13:28:56.999Z</time></trkpt><trkpt lat="42.30138229424227" lon="14.097810569111592"><ele>110.0</ele><time>2026-05-01T13:28:57.999Z</time></trkpt><trkpt lat="42.301483771451785" lon="14.097818337139536"><ele>109.0</ele><time>2026-05-01T13:28:59Z</time></trkpt><trkpt lat="42.30156316478535" lon="14.09783121943244"><ele>108.0</ele><time>2026-05-01T13:29:00Z</time></trkpt><trkpt lat="42.30163729859416" lon="14.097849613920138"><ele>107.0</ele><time>2026-05-01T13:29:02Z</time></trkpt><trkpt lat="42.301673464664354" lon="14.097624915381711"><ele>106.0</ele><time>2026-05-01T13:29:04Z</time></trkpt><trkpt lat="42.301685287019346" lon="14.097475507083384"><ele>105.75</ele><time>2026-05-01T13:29:05Z</time></trkpt><trkpt lat="42.30171261538176" lon="14.097284385083936"><ele>105.5</ele><time>2026-05-01T13:29:06Z</time></trkpt><trkpt lat="42.301748891971954" lon="14.097108550482037"><ele>105.25</ele><time>2026-05-01T13:29:07Z</time></trkpt><trkpt lat="42.301787327556" lon="14.096917240714783"><ele>105.0</ele><time>2026-05-01T13:29:08Z</time></trkpt><trkpt lat="42.301829670203404" lon="14.096745894956474"><ele>105.75</ele><time>2026-05-01T13:29:09Z</time></trkpt><trkpt lat="42.301866429817146" lon="14.096558120741125"><ele>106.5</ele><time>2026-05-01T13:29:10Z</time></trkpt><trkpt lat="42.3018990327536" lon="14.096367751471526"><ele>107.25</ele><time>2026-05-01T13:29:11Z</time></trkpt><trkpt lat="42.30192734409598" lon="14.096161702709074"><ele>108.0</ele><time>2026-05-01T13:29:12Z</time></trkpt><trkpt lat="42.30195328385898" lon="14.095943300064668"><ele>107.33333333333334</ele><time>2026-05-01T13:29:13Z</time></trkpt><trkpt lat="42.30197756831272" lon="14.095725593402666"><ele>106.66666666666667</ele><time>2026-05-01T13:29:14Z</time></trkpt><trkpt lat="42.302000839990896" lon="14.09550282779466"><ele>106.0</ele><time>2026-05-01T13:29:15Z</time></trkpt><trkpt lat="42.302006929475205" lon="14.095283687006464"><ele>106.0</ele><time>2026-05-01T13:29:16Z</time></trkpt><trkpt lat="42.3020314578199" lon="14.095077111248315"><ele>106.0</ele><time>2026-05-01T13:29:17Z</time></trkpt><trkpt lat="42.30205321243999" lon="14.09489251262623"><ele>106.0</ele><time>2026-05-01T13:29:18Z</time></trkpt><trkpt lat="42.30208380039726" lon="14.094735758467243"><ele>106.0</ele><time>2026-05-01T13:29:19Z</time></trkpt><trkpt lat="42.30207352437335" lon="14.094574946262233"><ele>106.0</ele><time>2026-05-01T13:29:20Z</time></trkpt><trkpt lat="42.30200307709645" lon="14.094420281760602"><ele>106.0</ele><time>2026-05-01T13:29:21Z</time></trkpt><trkpt lat="42.30198542801472" lon="14.094240048228896"><ele>106.0</ele><time>2026-05-01T13:29:22Z</time></trkpt><trkpt lat="42.301965964889895" lon="14.094063414186557"><ele>106.0</ele><time>2026-05-01T13:29:23Z</time></trkpt><trkpt lat="42.301922218500316" lon="14.093913077188393"><ele>106.0</ele><time>2026-05-01T13:29:24Z</time></trkpt><trkpt lat="42.30180688762792" lon="14.093794424851797"><ele>106.0</ele><time>2026-05-01T13:29:25Z</time></trkpt><trkpt lat="42.30172592989782" lon="14.093650233286537"><ele>106.0</ele><time>2026-05-01T13:29:26Z</time></trkpt><trkpt lat="42.301670629400746" lon="14.093537788392585"><ele>106.0</ele><time>2026-05-01T13:29:27Z</time></trkpt><trkpt lat="42.3016524526605" lon="14.093435671963384"><ele>106.0</ele><time>2026-05-01T13:29:28Z</time></trkpt><trkpt lat="42.301694236564515" lon="14.093300911847267"><ele>106.0</ele><time>2026-05-01T13:29:30Z</time></trkpt><trkpt lat="42.30185446583557" lon="14.09329326757938"><ele>106.0</ele><time>2026-05-01T13:29:31Z</time></trkpt><trkpt lat="42.30196257569699" lon="14.093216277357252"><ele>106.0</ele><time>2026-05-01T13:29:32Z</time></trkpt><trkpt lat="42.30208259708938" lon="14.093155571030692"><ele>108.25</ele><time>2026-05-01T13:29:33Z</time></trkpt><trkpt lat="42.3022177425246" lon="14.093087473806655"><ele>110.5</ele><time>2026-05-01T13:29:34Z</time></trkpt><trkpt lat="42.302367774204136" lon="14.093016160769503"><ele>112.75</ele><time>2026-05-01T13:29:35Z</time></trkpt><trkpt lat="42.302503365239716" lon="14.092950098169693"><ele>115.0</ele><time>2026-05-01T13:29:36Z</time></trkpt><trkpt lat="42.302621312965215" lon="14.092884516647194"><ele>115.0</ele><time>2026-05-01T13:29:37Z</time></trkpt><trkpt lat="42.302742611477576" lon="14.09281322630793"><ele>115.0</ele><time>2026-05-01T13:29:38Z</time></trkpt><trkpt lat="42.302855846831434" lon="14.092724653505407"><ele>115.0</ele><time>2026-05-01T13:29:39Z</time></trkpt><trkpt lat="42.302968464531254" lon="14.09260366571674"><ele>115.0</ele><time>2026-05-01T13:29:40Z</time></trkpt><trkpt lat="42.303086991939814" lon="14.092442172877927"><ele>113.66666666666667</ele><time>2026-05-01T13:29:41Z</time></trkpt><trkpt lat="42.30320698822279" lon="14.092254615117952"><ele>112.33333333333334</ele><time>2026-05-01T13:29:42Z</time></trkpt><trkpt lat="42.30333281352458" lon="14.092074561369586"><ele>111.0</ele><time>2026-05-01T13:29:43Z</time></trkpt><trkpt lat="42.30346660650956" lon="14.09192750310168"><ele>111.0</ele><time>2026-05-01T13:29:44Z</time></trkpt><trkpt lat="42.303613375908775" lon="14.091830883270738"><ele>111.0</ele><time>2026-05-01T13:29:45Z</time></trkpt><trkpt lat="42.30376444207986" lon="14.091742896595031"><ele>111.0</ele><time>2026-05-01T13:29:46Z</time></trkpt><trkpt lat="42.303915888706776" lon="14.09163979890378"><ele>111.33333333333334</ele><time>2026-05-01T13:29:47Z</time></trkpt><trkpt lat="42.30410639090807" lon="14.091541171795377"><ele>111.66666666666667</ele><time>2026-05-01T13:29:48Z</time></trkpt><trkpt lat="42.30429046703492" lon="14.0914438834302"><ele>112.0</ele><time>2026-05-01T13:29:49Z</time></trkpt><trkpt lat="42.304466731625354" lon="14.09134728738611"><ele>112.0</ele><time>2026-05-01T13:29:50Z</time></trkpt><trkpt lat="42.30462586241746" lon="14.091259817436486"><ele>112.0</ele><time>2026-05-01T13:29:51Z</time></trkpt><trkpt lat="42.30477638379289" lon="14.091171984862614"><ele>112.0</ele><time>2026-05-01T13:29:52Z</time></trkpt><trkpt lat="42.304915788770856" lon="14.091087186341793"><ele>109.0</ele><time>2026-05-01T13:29:53Z</time></trkpt><trkpt lat="42.30504931914957" lon="14.090996935671102"><ele>106.0</ele><time>2026-05-01T13:29:54Z</time></trkpt><trkpt lat="42.30517353561688" lon="14.09091824725837"><ele>103.0</ele><time>2026-05-01T13:29:55Z</time></trkpt><trkpt lat="42.30529282326468" lon="14.090837189989236"><ele>100.0</ele><time>2026-05-01T13:29:56Z</time></trkpt><trkpt lat="42.30541137793553" lon="14.090763723474751"><ele>99.0</ele><time>2026-05-01T13:29:57Z</time></trkpt><trkpt lat="42.30554108205442" lon="14.090684349140533"><ele>98.0</ele><time>2026-05-01T13:29:58Z</time></trkpt><trkpt lat="42.305670127891034" lon="14.090601803550147"><ele>97.0</ele><time>2026-05-01T13:29:59Z</time></trkpt><trkpt lat="42.3057938488022" lon="14.090517234551758"><ele>96.0</ele><time>2026-05-01T13:30:00Z</time></trkpt><trkpt lat="42.305910241244675" lon="14.090426061140311"><ele>96.0</ele><time>2026-05-01T13:30:01Z</time></trkpt><trkpt lat="42.30602658629089" lon="14.090333981423639"><ele>96.0</ele><time>2026-05-01T13:30:02Z</time></trkpt><trkpt lat="42.30615136685143" lon="14.090229639022905"><ele>96.0</ele><time>2026-05-01T13:30:03Z</time></trkpt><trkpt lat="42.30625263568741" lon="14.090130240400214"><ele>96.0</ele><time>2026-05-01T13:30:04Z</time></trkpt><trkpt lat="42.306337993415525" lon="14.090004401322735"><ele>95.25</ele><time>2026-05-01T13:30:05Z</time></trkpt><trkpt lat="42.306414495662466" lon="14.089834806058441"><ele>94.5</ele><time>2026-05-01T13:30:06Z</time></trkpt><trkpt lat="42.30647733445927" lon="14.089657788837393"><ele>93.75</ele><time>2026-05-01T13:30:07Z</time></trkpt><trkpt lat="42.3065402861597" lon="14.089509257763817"><ele>93.0</ele><time>2026-05-01T13:30:08Z</time></trkpt><trkpt lat="42.306611272566236" lon="14.089413596426304"><ele>93.0</ele><time>2026-05-01T13:30:09Z</time></trkpt><trkpt lat="42.306680469842" lon="14.08936211039637"><ele>93.0</ele><time>2026-05-01T13:30:10Z</time></trkpt><trkpt lat="42.30676069865983" lon="14.08936241918704"><ele>93.0</ele><time>2026-05-01T13:30:11Z</time></trkpt><trkpt lat="42.30685259075851" lon="14.089413190015193"><ele>93.0</ele><time>2026-05-01T13:30:12Z</time></trkpt><trkpt lat="42.30697665948769" lon="14.089474446270218"><ele>93.0</ele><time>2026-05-01T13:30:13Z</time></trkpt><trkpt lat="42.30709389290449" lon="14.089546783023641"><ele>93.0</ele><time>2026-05-01T13:30:14Z</time></trkpt><trkpt lat="42.30720756559033" lon="14.089601067023215"><ele>93.0</ele><time>2026-05-01T13:30:15Z</time></trkpt><trkpt lat="42.307287672596445" lon="14.089635140203098"><ele>93.0</ele><time>2026-05-01T13:30:16Z</time></trkpt><trkpt lat="42.307367780147885" lon="14.089636073286677"><ele>93.0</ele><time>2026-05-01T13:30:17Z</time></trkpt><trkpt lat="42.30745208300792" lon="14.089626787378636"><ele>93.0</ele><time>2026-05-01T13:30:18Z</time></trkpt><trkpt lat="42.307567425557735" lon="14.08964752845035"><ele>92.75</ele><time>2026-05-01T13:30:19Z</time></trkpt><trkpt lat="42.307671653481464" lon="14.08971056687076"><ele>92.5</ele><time>2026-05-01T13:30:20Z</time></trkpt><trkpt lat="42.30781244703378" lon="14.089749481294444"><ele>92.25</ele><time>2026-05-01T13:30:21Z</time></trkpt><trkpt lat="42.3079577947439" lon="14.089803703474624"><ele>92.0</ele><time>2026-05-01T13:30:22Z</time></trkpt><trkpt lat="42.308117503756236" lon="14.089861473985206"><ele>90.33333333333334</ele><time>2026-05-01T13:30:23Z</time></trkpt><trkpt lat="42.30827889832137" lon="14.089907990752915"><ele>88.66666666666667</ele><time>2026-05-01T13:30:24Z</time></trkpt><trkpt lat="42.308437499216865" lon="14.089955340125352"><ele>87.0</ele><time>2026-05-01T13:30:25Z</time></trkpt><trkpt lat="42.30857892898415" lon="14.090009692269353"><ele>86.16666666666667</ele><time>2026-05-01T13:30:26Z</time></trkpt><trkpt lat="42.308701350431136" lon="14.09004777938531"><ele>85.33333333333333</ele><time>2026-05-01T13:30:27Z</time></trkpt><trkpt lat="42.308801469387014" lon="14.090080221266964"><ele>84.5</ele><time>2026-05-01T13:30:28Z</time></trkpt><trkpt lat="42.30887034699761" lon="14.090105724629305"><ele>83.66666666666666</ele><time>2026-05-01T13:30:29Z</time></trkpt><trkpt lat="42.30893924913787" lon="14.090155109872407"><ele>82.83333333333333</ele><time>2026-05-01T13:30:31Z</time></trkpt><trkpt lat="42.30900155284231" lon="14.090189308148737"><ele>82.0</ele><time>2026-05-01T13:30:34Z</time></trkpt><trkpt lat="42.30907376922141" lon="14.090251988857675"><ele>81.33333333333333</ele><time>2026-05-01T13:30:36Z</time></trkpt><trkpt lat="42.30913062504419" lon="14.09029138285785"><ele>80.66666666666666</ele><time>2026-05-01T13:30:37Z</time></trkpt><trkpt lat="42.30919137038059" lon="14.090327671297082"><ele>80.0</ele><time>2026-05-01T13:30:38Z</time></trkpt><trkpt lat="42.309242933559936" lon="14.090395376590536"><ele>79.33333333333333</ele><time>2026-05-01T13:30:39Z</time></trkpt><trkpt lat="42.30924319770106" lon="14.090527109597645"><ele>78.66666666666667</ele><time>2026-05-01T13:30:40Z</time></trkpt><trkpt lat="42.30926876150125" lon="14.090666711205575"><ele>78.0</ele><time>2026-05-01T13:30:42Z</time></trkpt><trkpt lat="42.30927717927525" lon="14.090753860342215"><ele>77.66666666666667</ele><time>2026-05-01T13:30:43Z</time></trkpt><trkpt lat="42.30929916679019" lon="14.090844257188502"><ele>77.33333333333333</ele><time>2026-05-01T13:30:43.999Z</time></trkpt><trkpt lat="42.309345870252145" lon="14.090923080042975"><ele>77.0</ele><time>2026-05-01T13:30:44.999Z</time></trkpt><trkpt lat="42.30945653713758" lon="14.09099727405968"><ele>76.66666666666666</ele><time>2026-05-01T13:30:46.999Z</time></trkpt><trkpt lat="42.309530374075194" lon="14.091048501232637"><ele>76.33333333333333</ele><time>2026-05-01T13:30:47.999Z</time></trkpt><trkpt lat="42.30959066226632" lon="14.091118470922037"><ele>76.0</ele><time>2026-05-01T13:30:48.999Z</time></trkpt><trkpt lat="42.30964621221535" lon="14.0912007771854"><ele>76.0</ele><time>2026-05-01T13:30:49.999Z</time></trkpt><trkpt lat="42.309700948528835" lon="14.091284358959626"><ele>76.0</ele><time>2026-05-01T13:30:50.999Z</time></trkpt><trkpt lat="42.309751061913396" lon="14.091355651321807"><ele>76.0</ele><time>2026-05-01T13:30:51.999Z</time></trkpt><trkpt lat="42.30981936099294" lon="14.091436340754921"><ele>76.0</ele><time>2026-05-01T13:30:52.999Z</time></trkpt><trkpt lat="42.30988009488009" lon="14.091515309534813"><ele>76.0</ele><time>2026-05-01T13:30:53.999Z</time></trkpt><trkpt lat="42.309925814359055" lon="14.09160053228514"><ele>76.0</ele><time>2026-05-01T13:30:54.999Z</time></trkpt><trkpt lat="42.309978398424164" lon="14.091711124696582"><ele>78.0</ele><time>2026-05-01T13:30:55.999Z</time></trkpt><trkpt lat="42.310032581971456" lon="14.09180286610296"><ele>80.0</ele><time>2026-05-01T13:30:56.999Z</time></trkpt><trkpt lat="42.310089287942546" lon="14.091898335729518"><ele>82.0</ele><time>2026-05-01T13:30:57.999Z</time></trkpt><trkpt lat="42.31015023269649" lon="14.092005322764019"><ele>84.0</ele><time>2026-05-01T13:30:58.999Z</time></trkpt><trkpt lat="42.31022235825877" lon="14.092114514626909"><ele>86.0</ele><time>2026-05-01T13:30:59.999Z</time></trkpt><trkpt lat="42.3102988163211" lon="14.092216174757178"><ele>86.0</ele><time>2026-05-01T13:31:00.999Z</time></trkpt><trkpt lat="42.31036404884547" lon="14.092307974662884"><ele>86.0</ele><time>2026-05-01T13:31:01.999Z</time></trkpt><trkpt lat="42.3104088114271" lon="14.092390707427342"><ele>86.0</ele><time>2026-05-01T13:31:02.999Z</time></trkpt><trkpt lat="42.310461495086" lon="14.092496293851907"><ele>86.0</ele><time>2026-05-01T13:31:03.999Z</time></trkpt><trkpt lat="42.31052477913251" lon="14.09261002292551"><ele>86.0</ele><time>2026-05-01T13:31:05Z</time></trkpt><trkpt lat="42.31059446693624" lon="14.092718855012714"><ele>87.5</ele><time>2026-05-01T13:31:06Z</time></trkpt><trkpt lat="42.310686126891326" lon="14.09286008777862"><ele>89.0</ele><time>2026-05-01T13:31:07Z</time></trkpt><trkpt lat="42.310770816592274" lon="14.092990830639527"><ele>90.5</ele><time>2026-05-01T13:31:08Z</time></trkpt><trkpt lat="42.310861054030816" lon="14.093127436384359"><ele>92.0</ele><time>2026-05-01T13:31:09Z</time></trkpt><trkpt lat="42.31094154242759" lon="14.093248072247501"><ele>93.0</ele><time>2026-05-01T13:31:10Z</time></trkpt><trkpt lat="42.31102531873224" lon="14.093363545590323"><ele>94.0</ele><time>2026-05-01T13:31:11Z</time></trkpt><trkpt lat="42.31109412949446" lon="14.093460806985755"><ele>95.0</ele><time>2026-05-01T13:31:12Z</time></trkpt><trkpt lat="42.31116865248325" lon="14.093559285768748"><ele>96.0</ele><time>2026-05-01T13:31:13Z</time></trkpt><trkpt lat="42.31122804900082" lon="14.093684448399289"><ele>97.0</ele><time>2026-05-01T13:31:14Z</time></trkpt><trkpt lat="42.31129142353192" lon="14.093806750309316"><ele>97.0</ele><time>2026-05-01T13:31:15Z</time></trkpt><trkpt lat="42.31135338226756" lon="14.09389108142857"><ele>97.0</ele><time>2026-05-01T13:31:16Z</time></trkpt><trkpt lat="42.311415423681474" lon="14.093921879931399"><ele>97.0</ele><time>2026-05-01T13:31:17.999Z</time></trkpt><trkpt lat="42.311462720985396" lon="14.093810198309264"><ele>97.0</ele><time>2026-05-01T13:31:19.999Z</time></trkpt><trkpt lat="42.31150341711598" lon="14.093710750706958"><ele>97.0</ele><time>2026-05-01T13:31:20.999Z</time></trkpt><trkpt lat="42.311562106530516" lon="14.093556807635313"><ele>96.75</ele><time>2026-05-01T13:31:21.999Z</time></trkpt><trkpt lat="42.31162748294773" lon="14.093412088892116"><ele>96.5</ele><time>2026-05-01T13:31:22.999Z</time></trkpt><trkpt lat="42.311724368524985" lon="14.093269978173849"><ele>96.25</ele><time>2026-05-01T13:31:23.999Z</time></trkpt><trkpt lat="42.31181666563625" lon="14.093120491392723"><ele>96.0</ele><time>2026-05-01T13:31:24.999Z</time></trkpt><trkpt lat="42.31190805980892" lon="14.092964766080748"><ele>94.66666666666667</ele><time>2026-05-01T13:31:25.999Z</time></trkpt><trkpt lat="42.31200225845968" lon="14.092796500491982"><ele>93.33333333333334</ele><time>2026-05-01T13:31:26.999Z</time></trkpt><trkpt lat="42.31208875403738" lon="14.092628418774366"><ele>92.0</ele><time>2026-05-01T13:31:27.999Z</time></trkpt><trkpt lat="42.312156957839335" lon="14.092452966218612"><ele>92.39999999999999</ele><time>2026-05-01T13:31:28.999Z</time></trkpt><trkpt lat="42.312251432139725" lon="14.092315172445872"><ele>92.8</ele><time>2026-05-01T13:31:29.999Z</time></trkpt><trkpt lat="42.312331028175024" lon="14.092194225285366"><ele>93.2</ele><time>2026-05-01T13:31:30.999Z</time></trkpt><trkpt lat="42.31239290025836" lon="14.092109928573336"><ele>93.6</ele><time>2026-05-01T13:31:31.999Z</time></trkpt><trkpt lat="42.31245757305518" lon="14.092033329759534"><ele>94.0</ele><time>2026-05-01T13:31:32.999Z</time></trkpt><trkpt lat="42.31253692923163" lon="14.091930382928002"><ele>94.0</ele><time>2026-05-01T13:31:33.999Z</time></trkpt><trkpt lat="42.31265226330197" lon="14.091841778292576"><ele>94.0</ele><time>2026-05-01T13:31:34.999Z</time></trkpt><trkpt lat="42.31277684175736" lon="14.091744415039075"><ele>94.0</ele><time>2026-05-01T13:31:35.999Z</time></trkpt><trkpt lat="42.31287664778728" lon="14.091654152558357"><ele>94.0</ele><time>2026-05-01T13:31:36.999Z</time></trkpt><trkpt lat="42.312960623150694" lon="14.091542517565541"><ele>94.0</ele><time>2026-05-01T13:31:37.999Z</time></trkpt><trkpt lat="42.31302794722534" lon="14.091412173195053"><ele>94.0</ele><time>2026-05-01T13:31:38.999Z</time></trkpt><trkpt lat="42.313069389750936" lon="14.091263292505925"><ele>94.0</ele><time>2026-05-01T13:31:39.999Z</time></trkpt><trkpt lat="42.31309296578963" lon="14.091085851155832"><ele>94.0</ele><time>2026-05-01T13:31:40.999Z</time></trkpt><trkpt lat="42.31311597164954" lon="14.09087674012604"><ele>94.0</ele><time>2026-05-01T13:31:41.999Z</time></trkpt><trkpt lat="42.31315393037422" lon="14.09065720184364"><ele>94.0</ele><time>2026-05-01T13:31:42.999Z</time></trkpt><trkpt lat="42.313190805829244" lon="14.090466175085036"><ele>94.0</ele><time>2026-05-01T13:31:43.999Z</time></trkpt><trkpt lat="42.31320653546156" lon="14.090293940055608"><ele>94.0</ele><time>2026-05-01T13:31:44.999Z</time></trkpt><trkpt lat="42.313227633169404" lon="14.090136389561136"><ele>94.0</ele><time>2026-05-01T13:31:45.999Z</time></trkpt><trkpt lat="42.31324567943922" lon="14.089985364051989"><ele>94.0</ele><time>2026-05-01T13:31:46.999Z</time></trkpt><trkpt lat="42.31327198961724" lon="14.08982834160474"><ele>94.0</ele><time>2026-05-01T13:31:47.999Z</time></trkpt><trkpt lat="42.31329793076476" lon="14.089659634428108"><ele>94.0</ele><time>2026-05-01T13:31:48.999Z</time></trkpt><trkpt lat="42.31333250638632" lon="14.089485930733144"><ele>93.33333333333333</ele><time>2026-05-01T13:31:49.999Z</time></trkpt><trkpt lat="42.31339851981858" lon="14.089317731447993"><ele>92.66666666666667</ele><time>2026-05-01T13:31:50.999Z</time></trkpt><trkpt lat="42.313455577593736" lon="14.089133804048043"><ele>92.0</ele><time>2026-05-01T13:31:51.999Z</time></trkpt><trkpt lat="42.313505503350115" lon="14.08892158500308"><ele>91.5</ele><time>2026-05-01T13:31:52.999Z</time></trkpt><trkpt lat="42.313568129154" lon="14.088737839690804"><ele>91.0</ele><time>2026-05-01T13:31:53.999Z</time></trkpt><trkpt lat="42.313627254042224" lon="14.08857654109239"><ele>90.5</ele><time>2026-05-01T13:31:54.999Z</time></trkpt><trkpt lat="42.31371842519707" lon="14.088431272943192"><ele>90.0</ele><time>2026-05-01T13:31:55.999Z</time></trkpt><trkpt lat="42.31382671223939" lon="14.088282037269503"><ele>88.0</ele><time>2026-05-01T13:31:56.999Z</time></trkpt><trkpt lat="42.313948517479254" lon="14.088116037215064"><ele>86.0</ele><time>2026-05-01T13:31:57.999Z</time></trkpt><trkpt lat="42.31407127347666" lon="14.08793015205862"><ele>84.0</ele><time>2026-05-01T13:31:58.999Z</time></trkpt><trkpt lat="42.314201604517564" lon="14.087755679683067"><ele>84.0</ele><time>2026-05-01T13:31:59.999Z</time></trkpt><trkpt lat="42.3143307969219" lon="14.087586100709142"><ele>84.0</ele><time>2026-05-01T13:32:00.999Z</time></trkpt><trkpt lat="42.314461598260344" lon="14.087420860545876"><ele>84.0</ele><time>2026-05-01T13:32:01.999Z</time></trkpt><trkpt lat="42.31458178622449" lon="14.087272760234857"><ele>83.33333333333333</ele><time>2026-05-01T13:32:02.999Z</time></trkpt><trkpt lat="42.31471421499198" lon="14.087147559005077"><ele>82.66666666666666</ele><time>2026-05-01T13:32:03.999Z</time></trkpt><trkpt lat="42.314836134039155" lon="14.087024905244014"><ele>82.0</ele><time>2026-05-01T13:32:04.999Z</time></trkpt><trkpt lat="42.314946985993586" lon="14.08690438536961"><ele>81.25</ele><time>2026-05-01T13:32:05.999Z</time></trkpt><trkpt lat="42.315055340094645" lon="14.08681878897561"><ele>80.5</ele><time>2026-05-01T13:32:06.999Z</time></trkpt><trkpt lat="42.31515654766649" lon="14.086754951086375"><ele>79.75</ele><time>2026-05-01T13:32:07.999Z</time></trkpt><trkpt lat="42.3152646460581" lon="14.086711906273457"><ele>79.0</ele><time>2026-05-01T13:32:08.999Z</time></trkpt><trkpt lat="42.315382809753295" lon="14.086723128214553"><ele>79.0</ele><time>2026-05-01T13:32:09.999Z</time></trkpt><trkpt lat="42.31550863719207" lon="14.086733536644921"><ele>79.0</ele><time>2026-05-01T13:32:10.999Z</time></trkpt><trkpt lat="42.31564398774814" lon="14.086758520401514"><ele>79.0</ele><time>2026-05-01T13:32:11.999Z</time></trkpt><trkpt lat="42.31580268294204" lon="14.086771724938531"><ele>79.0</ele><time>2026-05-01T13:32:12.999Z</time></trkpt><trkpt lat="42.31596558276423" lon="14.086800779205467"><ele>79.33333333333333</ele><time>2026-05-01T13:32:13.999Z</time></trkpt><trkpt lat="42.3161327985892" lon="14.086819694678683"><ele>79.66666666666667</ele><time>2026-05-01T13:32:14.999Z</time></trkpt><trkpt lat="42.31629391785546" lon="14.08684263209177"><ele>80.0</ele><time>2026-05-01T13:32:15.999Z</time></trkpt><trkpt lat="42.316438154883315" lon="14.086919313477782"><ele>79.0</ele><time>2026-05-01T13:32:16.999Z</time></trkpt><trkpt lat="42.31658495370414" lon="14.08701713813892"><ele>78.0</ele><time>2026-05-01T13:32:17.999Z</time></trkpt><trkpt lat="42.31674447490579" lon="14.087100472804664"><ele>77.0</ele><time>2026-05-01T13:32:18.999Z</time></trkpt><trkpt lat="42.31689297030478" lon="14.087210965026708"><ele>77.0</ele><time>2026-05-01T13:32:19.999Z</time></trkpt><trkpt lat="42.317048251487044" lon="14.087295309332895"><ele>77.0</ele><time>2026-05-01T13:32:20.999Z</time></trkpt><trkpt lat="42.31721001618653" lon="14.087379556776922"><ele>77.0</ele><time>2026-05-01T13:32:21.999Z</time></trkpt><trkpt lat="42.317369456351805" lon="14.087470561334024"><ele>73.66666666666667</ele><time>2026-05-01T13:32:22.999Z</time></trkpt><trkpt lat="42.31751110915287" lon="14.087562428020751"><ele>70.33333333333333</ele><time>2026-05-01T13:32:23.999Z</time></trkpt><trkpt lat="42.31763861539922" lon="14.087656739265842"><ele>67.0</ele><time>2026-05-01T13:32:24.999Z</time></trkpt><trkpt lat="42.31775131835294" lon="14.087787140242579"><ele>67.0</ele><time>2026-05-01T13:32:25.999Z</time></trkpt><trkpt lat="42.317865723630405" lon="14.087913948665665"><ele>67.0</ele><time>2026-05-01T13:32:26.999Z</time></trkpt><trkpt lat="42.31795373679138" lon="14.088043831255277"><ele>67.0</ele><time>2026-05-01T13:32:27.999Z</time></trkpt><trkpt lat="42.31804320993555" lon="14.08817452652835"><ele>67.0</ele><time>2026-05-01T13:32:28.999Z</time></trkpt><trkpt lat="42.318154047703246" lon="14.088255631292931"><ele>66.25</ele><time>2026-05-01T13:32:29.999Z</time></trkpt><trkpt lat="42.31825569185543" lon="14.088318833679638"><ele>65.5</ele><time>2026-05-01T13:32:30.999Z</time></trkpt><trkpt lat="42.3183706992543" lon="14.088339385446288"><ele>64.75</ele><time>2026-05-01T13:32:31.999Z</time></trkpt><trkpt lat="42.31850108293442" lon="14.088338666610266"><ele>64.0</ele><time>2026-05-01T13:32:32.999Z</time></trkpt><trkpt lat="42.31864570680302" lon="14.08834463515333"><ele>64.0</ele><time>2026-05-01T13:32:33.999Z</time></trkpt><trkpt lat="42.31876013880953" lon="14.088408253863395"><ele>64.0</ele><time>2026-05-01T13:32:34.999Z</time></trkpt><trkpt lat="42.318850881420985" lon="14.08845161116712"><ele>64.0</ele><time>2026-05-01T13:32:35.999Z</time></trkpt><trkpt lat="42.318945392039346" lon="14.088501081547454"><ele>64.0</ele><time>2026-05-01T13:32:36.999Z</time></trkpt><trkpt lat="42.31906707302684" lon="14.088553452062825"><ele>64.0</ele><time>2026-05-01T13:32:37.999Z</time></trkpt><trkpt lat="42.31919158879381" lon="14.088578467704213"><ele>63.6</ele><time>2026-05-01T13:32:38.999Z</time></trkpt><trkpt lat="42.31929678991953" lon="14.088596989622332"><ele>63.2</ele><time>2026-05-01T13:32:39.999Z</time></trkpt><trkpt lat="42.31938915017073" lon="14.088620791084702"><ele>62.800000000000004</ele><time>2026-05-01T13:32:40.999Z</time></trkpt><trkpt lat="42.3194528754595" lon="14.088670919884343"><ele>62.400000000000006</ele><time>2026-05-01T13:32:41.999Z</time></trkpt><trkpt lat="42.31954837511304" lon="14.088604592333065"><ele>62.0</ele><time>2026-05-01T13:32:43.999Z</time></trkpt><trkpt lat="42.31959085276635" lon="14.08849026920009"><ele>62.0</ele><time>2026-05-01T13:32:44.999Z</time></trkpt><trkpt lat="42.31968120115869" lon="14.088355670015288"><ele>62.0</ele><time>2026-05-01T13:32:45.999Z</time></trkpt><trkpt lat="42.31976360996234" lon="14.088201996598613"><ele>62.0</ele><time>2026-05-01T13:32:46.999Z</time></trkpt><trkpt lat="42.31983553082982" lon="14.088063792136515"><ele>62.0</ele><time>2026-05-01T13:32:47.999Z</time></trkpt><trkpt lat="42.31991123865212" lon="14.087935126147567"><ele>61.8</ele><time>2026-05-01T13:32:48.999Z</time></trkpt><trkpt lat="42.31997938875325" lon="14.087799534653495"><ele>61.6</ele><time>2026-05-01T13:32:49.999Z</time></trkpt><trkpt lat="42.32003693676587" lon="14.087677474366542"><ele>61.39999999999999</ele><time>2026-05-01T13:32:50.999Z</time></trkpt><trkpt lat="42.3200884993423" lon="14.08755376955947"><ele>61.199999999999996</ele><time>2026-05-01T13:32:51.999Z</time></trkpt><trkpt lat="42.32016778493572" lon="14.08746907406484"><ele>61.0</ele><time>2026-05-01T13:32:52.999Z</time></trkpt><trkpt lat="42.32023122733451" lon="14.087433599025003"><ele>61.0</ele><time>2026-05-01T13:32:53.999Z</time></trkpt><trkpt lat="42.32031324613728" lon="14.08736122406051"><ele>61.0</ele><time>2026-05-01T13:32:55.999Z</time></trkpt><trkpt lat="42.32041677124434" lon="14.087452749750021"><ele>61.0</ele><time>2026-05-01T13:32:58.999Z</time></trkpt><trkpt lat="42.3204683493749" lon="14.08758966905896"><ele>61.0</ele><time>2026-05-01T13:32:59.999Z</time></trkpt><trkpt lat="42.32054080676231" lon="14.087738924103109"><ele>60.75</ele><time>2026-05-01T13:33:00.999Z</time></trkpt><trkpt lat="42.32060976088724" lon="14.087876599713887"><ele>60.5</ele><time>2026-05-01T13:33:01.999Z</time></trkpt><trkpt lat="42.320681973742666" lon="14.08801800244534"><ele>60.25</ele><time>2026-05-01T13:33:02.999Z</time></trkpt><trkpt lat="42.32075430021589" lon="14.08816473200387"><ele>60.0</ele><time>2026-05-01T13:33:03.999Z</time></trkpt><trkpt lat="42.32082921833989" lon="14.088316885381237"><ele>60.0</ele><time>2026-05-01T13:33:04.999Z</time></trkpt><trkpt lat="42.32090658792005" lon="14.088481148508258"><ele>60.0</ele><time>2026-05-01T13:33:05.999Z</time></trkpt><trkpt lat="42.32098621775683" lon="14.088656309647718"><ele>60.0</ele><time>2026-05-01T13:33:06.999Z</time></trkpt><trkpt lat="42.321065833681" lon="14.088832232996394"><ele>60.0</ele><time>2026-05-01T13:33:07.999Z</time></trkpt><trkpt lat="42.32114943640614" lon="14.089000911688947"><ele>59.66666666666667</ele><time>2026-05-01T13:33:08.999Z</time></trkpt><trkpt lat="42.32123920838593" lon="14.089179491043943"><ele>59.333333333333336</ele><time>2026-05-01T13:33:09.999Z</time></trkpt><trkpt lat="42.321327497646415" lon="14.08935946939595"><ele>59.0</ele><time>2026-05-01T13:33:11Z</time></trkpt><trkpt lat="42.3214158562111" lon="14.089547786896373"><ele>59.0</ele><time>2026-05-01T13:33:12Z</time></trkpt><trkpt lat="42.32149810220872" lon="14.089726011991091"><ele>59.0</ele><time>2026-05-01T13:33:13Z</time></trkpt><trkpt lat="42.32157637578386" lon="14.089886884515487"><ele>59.0</ele><time>2026-05-01T13:33:14Z</time></trkpt><trkpt lat="42.32164885665726" lon="14.090038955386277"><ele>59.0</ele><time>2026-05-01T13:33:15Z</time></trkpt><trkpt lat="42.32171947989765" lon="14.090188925595891"><ele>58.75</ele><time>2026-05-01T13:33:16Z</time></trkpt><trkpt lat="42.321789448595894" lon="14.090337267023745"><ele>58.5</ele><time>2026-05-01T13:33:17Z</time></trkpt><trkpt lat="42.3218634770364" lon="14.090483353609303"><ele>58.25</ele><time>2026-05-01T13:33:18Z</time></trkpt><trkpt lat="42.321940673326175" lon="14.0906354972263"><ele>58.0</ele><time>2026-05-01T13:33:19Z</time></trkpt><trkpt lat="42.32201798595726" lon="14.090790780876613"><ele>58.0</ele><time>2026-05-01T13:33:20Z</time></trkpt><trkpt lat="42.32209174189389" lon="14.090945102369627"><ele>58.0</ele><time>2026-05-01T13:33:21Z</time></trkpt><trkpt lat="42.32216416849018" lon="14.091101536532326"><ele>58.0</ele><time>2026-05-01T13:33:22Z</time></trkpt><trkpt lat="42.32223498471239" lon="14.091256404455448"><ele>58.0</ele><time>2026-05-01T13:33:23Z</time></trkpt><trkpt lat="42.32230967779148" lon="14.091413298901436"><ele>58.25</ele><time>2026-05-01T13:33:24Z</time></trkpt><trkpt lat="42.322383560940814" lon="14.091568340817853"><ele>58.5</ele><time>2026-05-01T13:33:25Z</time></trkpt><trkpt lat="42.32246080052654" lon="14.091730722522062"><ele>58.75</ele><time>2026-05-01T13:33:26Z</time></trkpt><trkpt lat="42.32253724123291" lon="14.091895483443796"><ele>59.0</ele><time>2026-05-01T13:33:27Z</time></trkpt><trkpt lat="42.3226142065107" lon="14.092055242823555"><ele>59.0</ele><time>2026-05-01T13:33:28Z</time></trkpt><trkpt lat="42.32269655240884" lon="14.092223117654381"><ele>59.0</ele><time>2026-05-01T13:33:29Z</time></trkpt><trkpt lat="42.32278333067208" lon="14.092401416080255"><ele>59.0</ele><time>2026-05-01T13:33:30Z</time></trkpt><trkpt lat="42.32287618480816" lon="14.092587752268935"><ele>58.66666666666667</ele><time>2026-05-01T13:33:31Z</time></trkpt><trkpt lat="42.32296655899021" lon="14.092772885849564"><ele>58.33333333333333</ele><time>2026-05-01T13:33:32Z</time></trkpt><trkpt lat="42.3230568894798" lon="14.09295206324815"><ele>58.0</ele><time>2026-05-01T13:33:33Z</time></trkpt><trkpt lat="42.32315073830667" lon="14.093146397082528"><ele>58.0</ele><time>2026-05-01T13:33:34Z</time></trkpt><trkpt lat="42.32325946679476" lon="14.093376696863901"><ele>58.0</ele><time>2026-05-01T13:33:35Z</time></trkpt><trkpt lat="42.3233617089819" lon="14.093597929234289"><ele>58.0</ele><time>2026-05-01T13:33:36Z</time></trkpt><trkpt lat="42.323454605682116" lon="14.093823535391552"><ele>58.0</ele><time>2026-05-01T13:33:37Z</time></trkpt><trkpt lat="42.3235312523557" lon="14.0940430969303"><ele>58.0</ele><time>2026-05-01T13:33:38Z</time></trkpt><trkpt lat="42.32359576743414" lon="14.094265975522344"><ele>58.0</ele><time>2026-05-01T13:33:39Z</time></trkpt><trkpt lat="42.32365522962527" lon="14.094489772041191"><ele>58.0</ele><time>2026-05-01T13:33:39.999Z</time></trkpt><trkpt lat="42.32370839461087" lon="14.094726110027072"><ele>58.0</ele><time>2026-05-01T13:33:40.999Z</time></trkpt><trkpt lat="42.32375576416117" lon="14.094966643366591"><ele>58.0</ele><time>2026-05-01T13:33:41.999Z</time></trkpt><trkpt lat="42.323806101491655" lon="14.095214323089355"><ele>58.0</ele><time>2026-05-01T13:33:42.999Z</time></trkpt><trkpt lat="42.32385233483698" lon="14.09545637047737"><ele>58.0</ele><time>2026-05-01T13:33:43.999Z</time></trkpt><trkpt lat="42.32390362119401" lon="14.09570061968254"><ele>58.0</ele><time>2026-05-01T13:33:44.999Z</time></trkpt><trkpt lat="42.32395196830566" lon="14.095936021457781"><ele>58.0</ele><time>2026-05-01T13:33:45.999Z</time></trkpt><trkpt lat="42.32399561376605" lon="14.096158589203656"><ele>58.0</ele><time>2026-05-01T13:33:46.999Z</time></trkpt><trkpt lat="42.324040226902106" lon="14.096370339793157"><ele>58.0</ele><time>2026-05-01T13:33:47.999Z</time></trkpt><trkpt lat="42.324086787997004" lon="14.096581669981338"><ele>58.0</ele><time>2026-05-01T13:33:48.999Z</time></trkpt><trkpt lat="42.324123920651346" lon="14.096784438310596"><ele>58.0</ele><time>2026-05-01T13:33:49.999Z</time></trkpt><trkpt lat="42.324164777978034" lon="14.096978275016381"><ele>58.0</ele><time>2026-05-01T13:33:50.999Z</time></trkpt><trkpt lat="42.32420340870179" lon="14.097172040704175"><ele>58.0</ele><time>2026-05-01T13:33:51.999Z</time></trkpt><trkpt lat="42.32424165358011" lon="14.097362896844322"><ele>58.0</ele><time>2026-05-01T13:33:52.999Z</time></trkpt><trkpt lat="42.32428433872518" lon="14.097556476318877"><ele>58.0</ele><time>2026-05-01T13:33:53.999Z</time></trkpt><trkpt lat="42.32433383130665" lon="14.097738870465161"><ele>58.0</ele><time>2026-05-01T13:33:54.999Z</time></trkpt><trkpt lat="42.32440265398149" lon="14.097921420540825"><ele>57.666666666666664</ele><time>2026-05-01T13:33:55.999Z</time></trkpt><trkpt lat="42.32448679763531" lon="14.09810735143648"><ele>57.33333333333333</ele><time>2026-05-01T13:33:56.999Z</time></trkpt><trkpt lat="42.32458815982017" lon="14.098304797097565"><ele>57.0</ele><time>2026-05-01T13:33:57.999Z</time></trkpt><trkpt lat="42.32471211880687" lon="14.098514958084632"><ele>56.66666666666667</ele><time>2026-05-01T13:33:58.999Z</time></trkpt><trkpt lat="42.3248444035978" lon="14.098716963841419"><ele>56.333333333333336</ele><time>2026-05-01T13:33:59.999Z</time></trkpt><trkpt lat="42.3249741631734" lon="14.098915582632573"><ele>56.0</ele><time>2026-05-01T13:34:00.999Z</time></trkpt><trkpt lat="42.325099507046005" lon="14.09911759462678"><ele>56.0</ele><time>2026-05-01T13:34:01.999Z</time></trkpt><trkpt lat="42.32522124883313" lon="14.099315987808808"><ele>56.0</ele><time>2026-05-01T13:34:02.999Z</time></trkpt><trkpt lat="42.32534002279054" lon="14.099498309800168"><ele>56.0</ele><time>2026-05-01T13:34:03.999Z</time></trkpt><trkpt lat="42.325453615836366" lon="14.099677531766696"><ele>55.0</ele><time>2026-05-01T13:34:04.999Z</time></trkpt><trkpt lat="42.32556403916591" lon="14.099845455534872"><ele>54.0</ele><time>2026-05-01T13:34:05.999Z</time></trkpt><trkpt lat="42.32566434249844" lon="14.100007190966144"><ele>53.0</ele><time>2026-05-01T13:34:06.999Z</time></trkpt><trkpt lat="42.32575368414267" lon="14.1001542935624"><ele>53.0</ele><time>2026-05-01T13:34:07.999Z</time></trkpt><trkpt lat="42.32584020016524" lon="14.100286317118652"><ele>53.0</ele><time>2026-05-01T13:34:08.999Z</time></trkpt><trkpt lat="42.325917868616116" lon="14.100408038587881"><ele>53.0</ele><time>2026-05-01T13:34:09.999Z</time></trkpt><trkpt lat="42.325987599344806" lon="14.100522746694306"><ele>53.0</ele><time>2026-05-01T13:34:10.999Z</time></trkpt><trkpt lat="42.32604892584597" lon="14.100639661597882"><ele>53.4</ele><time>2026-05-01T13:34:11.999Z</time></trkpt><trkpt lat="42.326096678272606" lon="14.10075497249708"><ele>53.8</ele><time>2026-05-01T13:34:12.999Z</time></trkpt><trkpt lat="42.32613415139935" lon="14.100876945363318"><ele>54.2</ele><time>2026-05-01T13:34:13.999Z</time></trkpt><trkpt lat="42.326153155365304" lon="14.101005514513389"><ele>54.6</ele><time>2026-05-01T13:34:14.999Z</time></trkpt><trkpt lat="42.326172817514696" lon="14.101119067639537"><ele>55.0</ele><time>2026-05-01T13:34:15.999Z</time></trkpt><trkpt lat="42.32622264885381" lon="14.101210062105423"><ele>55.0</ele><time>2026-05-01T13:34:16.999Z</time></trkpt><trkpt lat="42.32629515236066" lon="14.101268602570089"><ele>55.0</ele><time>2026-05-01T13:34:17.999Z</time></trkpt><trkpt lat="42.32638910766339" lon="14.101309114675779"><ele>55.0</ele><time>2026-05-01T13:34:18.999Z</time></trkpt><trkpt lat="42.32650211301127" lon="14.10136596541187"><ele>55.0</ele><time>2026-05-01T13:34:19.999Z</time></trkpt><trkpt lat="42.326606301175" lon="14.101470795853345"><ele>55.0</ele><time>2026-05-01T13:34:20.999Z</time></trkpt><trkpt lat="42.32668885966707" lon="14.101636989696285"><ele>55.0</ele><time>2026-05-01T13:34:21.999Z</time></trkpt><trkpt lat="42.32679588763745" lon="14.101780849847902"><ele>55.0</ele><time>2026-05-01T13:34:22.999Z</time></trkpt><trkpt lat="42.326884038868506" lon="14.101931677714637"><ele>55.0</ele><time>2026-05-01T13:34:23.999Z</time></trkpt><trkpt lat="42.326980359331394" lon="14.102090017429722"><ele>55.0</ele><time>2026-05-01T13:34:24.999Z</time></trkpt><trkpt lat="42.32706858115491" lon="14.102252104101014"><ele>55.666666666666664</ele><time>2026-05-01T13:34:25.999Z</time></trkpt><trkpt lat="42.327148272141905" lon="14.102424783281599"><ele>56.33333333333333</ele><time>2026-05-01T13:34:26.999Z</time></trkpt><trkpt lat="42.32722830433067" lon="14.102620260291255"><ele>57.0</ele><time>2026-05-01T13:34:27.999Z</time></trkpt><trkpt lat="42.32729005001983" lon="14.102844421074312"><ele>55.0</ele><time>2026-05-01T13:34:28.999Z</time></trkpt><trkpt lat="42.32735151616109" lon="14.103040349887221"><ele>53.0</ele><time>2026-05-01T13:34:29.999Z</time></trkpt><trkpt lat="42.327405430932075" lon="14.103212207835911"><ele>51.0</ele><time>2026-05-01T13:34:30.999Z</time></trkpt><trkpt lat="42.32745367131223" lon="14.103365552094147"><ele>49.0</ele><time>2026-05-01T13:34:31.999Z</time></trkpt><trkpt lat="42.327509129206206" lon="14.103505147236762"><ele>49.0</ele><time>2026-05-01T13:34:32.999Z</time></trkpt><trkpt lat="42.32755639119626" lon="14.10365753940873"><ele>49.0</ele><time>2026-05-01T13:34:33.999Z</time></trkpt><trkpt lat="42.32760986481993" lon="14.103825732213688"><ele>49.0</ele><time>2026-05-01T13:34:34.999Z</time></trkpt><trkpt lat="42.32766500433905" lon="14.104035883992735"><ele>49.0</ele><time>2026-05-01T13:34:35.999Z</time></trkpt><trkpt lat="42.327745049421345" lon="14.104242592429314"><ele>48.33333333333333</ele><time>2026-05-01T13:34:36.999Z</time></trkpt><trkpt lat="42.32780769803109" lon="14.104453299483122"><ele>47.666666666666664</ele><time>2026-05-01T13:34:37.999Z</time></trkpt><trkpt lat="42.32787923851023" lon="14.104674666173267"><ele>47.0</ele><time>2026-05-01T13:34:38.999Z</time></trkpt><trkpt lat="42.32795548372053" lon="14.104909140342361"><ele>46.666666666666664</ele><time>2026-05-01T13:34:39.999Z</time></trkpt><trkpt lat="42.328025035703895" lon="14.105146870982704"><ele>46.333333333333336</ele><time>2026-05-01T13:34:40.999Z</time></trkpt><trkpt lat="42.32809087087702" lon="14.10536234405261"><ele>46.0</ele><time>2026-05-01T13:34:41.999Z</time></trkpt><trkpt lat="42.32815588687231" lon="14.105571705102445"><ele>46.0</ele><time>2026-05-01T13:34:42.999Z</time></trkpt><trkpt lat="42.32822518912576" lon="14.105780990670212"><ele>46.0</ele><time>2026-05-01T13:34:43.999Z</time></trkpt><trkpt lat="42.32829354182381" lon="14.105991458135097"><ele>46.0</ele><time>2026-05-01T13:34:44.999Z</time></trkpt><trkpt lat="42.32836408090873" lon="14.10620576733176"><ele>46.0</ele><time>2026-05-01T13:34:45.999Z</time></trkpt><trkpt lat="42.3284308360459" lon="14.106417333531429"><ele>46.0</ele><time>2026-05-01T13:34:46.999Z</time></trkpt><trkpt lat="42.3284912441479" lon="14.106625097726006"><ele>46.0</ele><time>2026-05-01T13:34:47.999Z</time></trkpt><trkpt lat="42.328555833171" lon="14.106833943098925"><ele>46.0</ele><time>2026-05-01T13:34:48.999Z</time></trkpt><trkpt lat="42.32862115156846" lon="14.107040051223487"><ele>46.0</ele><time>2026-05-01T13:34:49.999Z</time></trkpt><trkpt lat="42.32867880863732" lon="14.107228538914184"><ele>46.0</ele><time>2026-05-01T13:34:50.999Z</time></trkpt><trkpt lat="42.32873998235818" lon="14.107403999260383"><ele>46.0</ele><time>2026-05-01T13:34:51.999Z</time></trkpt><trkpt lat="42.32879920706271" lon="14.107579412537298"><ele>46.0</ele><time>2026-05-01T13:34:52.999Z</time></trkpt><trkpt lat="42.32885499893097" lon="14.107760090205693"><ele>46.0</ele><time>2026-05-01T13:34:53.999Z</time></trkpt><trkpt lat="42.32891637144288" lon="14.107949131242314"><ele>46.0</ele><time>2026-05-01T13:34:54.999Z</time></trkpt><trkpt lat="42.32896453913872" lon="14.108156532317647"><ele>44.333333333333336</ele><time>2026-05-01T13:34:55.999Z</time></trkpt><trkpt lat="42.32902620972043" lon="14.108352599287969"><ele>42.666666666666664</ele><time>2026-05-01T13:34:56.999Z</time></trkpt><trkpt lat="42.32908588327317" lon="14.108542317159499"><ele>41.0</ele><time>2026-05-01T13:34:57.999Z</time></trkpt><trkpt lat="42.329157763459015" lon="14.108726366605879"><ele>41.0</ele><time>2026-05-01T13:34:58.999Z</time></trkpt><trkpt lat="42.32921524825558" lon="14.108907627570089"><ele>41.0</ele><time>2026-05-01T13:34:59.999Z</time></trkpt><trkpt lat="42.32926290457036" lon="14.109104874076076"><ele>41.0</ele><time>2026-05-01T13:35:00.999Z</time></trkpt><trkpt lat="42.329324728830876" lon="14.10930125143493"><ele>41.666666666666664</ele><time>2026-05-01T13:35:01.999Z</time></trkpt><trkpt lat="42.32939158582293" lon="14.10951361462861"><ele>42.333333333333336</ele><time>2026-05-01T13:35:02.999Z</time></trkpt><trkpt lat="42.32945827814818" lon="14.109725454785023"><ele>43.0</ele><time>2026-05-01T13:35:03.999Z</time></trkpt><trkpt lat="42.329537124622284" lon="14.109935207711715"><ele>43.333333333333336</ele><time>2026-05-01T13:35:04.999Z</time></trkpt><trkpt lat="42.32960032188897" lon="14.110150575281615"><ele>43.666666666666664</ele><time>2026-05-01T13:35:05.999Z</time></trkpt><trkpt lat="42.32965738875555" lon="14.110325597890817"><ele>44.0</ele><time>2026-05-01T13:35:06.999Z</time></trkpt><trkpt lat="42.32971204953971" lon="14.110497169027965"><ele>43.33333333333333</ele><time>2026-05-01T13:35:07.999Z</time></trkpt><trkpt lat="42.32976099907627" lon="14.11069017576676"><ele>42.666666666666664</ele><time>2026-05-01T13:35:08.999Z</time></trkpt><trkpt lat="42.32982629778992" lon="14.110897245620185"><ele>42.0</ele><time>2026-05-01T13:35:09.999Z</time></trkpt><trkpt lat="42.32989700305268" lon="14.111121537367435"><ele>42.0</ele><time>2026-05-01T13:35:10.999Z</time></trkpt><trkpt lat="42.32996652962089" lon="14.11134347743053"><ele>42.0</ele><time>2026-05-01T13:35:11.999Z</time></trkpt><trkpt lat="42.33005263953311" lon="14.111560809997458"><ele>42.0</ele><time>2026-05-01T13:35:12.999Z</time></trkpt><trkpt lat="42.330107066205485" lon="14.11178944503741"><ele>42.333333333333336</ele><time>2026-05-01T13:35:13.999Z</time></trkpt><trkpt lat="42.33017353799602" lon="14.112000658220017"><ele>42.66666666666667</ele><time>2026-05-01T13:35:14.999Z</time></trkpt><trkpt lat="42.33023410517703" lon="14.112193109437825"><ele>43.0</ele><time>2026-05-01T13:35:15.999Z</time></trkpt><trkpt lat="42.33029909325071" lon="14.112361508996518"><ele>43.0</ele><time>2026-05-01T13:35:17Z</time></trkpt><trkpt lat="42.33034429546829" lon="14.112534271423357"><ele>43.0</ele><time>2026-05-01T13:35:18Z</time></trkpt><trkpt lat="42.33038241543298" lon="14.112684535708743"><ele>43.0</ele><time>2026-05-01T13:35:19Z</time></trkpt><trkpt lat="42.33041726300634" lon="14.11282153348462"><ele>43.0</ele><time>2026-05-01T13:35:20Z</time></trkpt><trkpt lat="42.330444297793896" lon="14.112967140786733"><ele>43.0</ele><time>2026-05-01T13:35:21Z</time></trkpt><trkpt lat="42.33045259723408" lon="14.113117359913481"><ele>43.0</ele><time>2026-05-01T13:35:22Z</time></trkpt><trkpt lat="42.33047711493598" lon="14.113244730496124"><ele>43.0</ele><time>2026-05-01T13:35:23Z</time></trkpt><trkpt lat="42.3305371755984" lon="14.113354533035377"><ele>43.0</ele><time>2026-05-01T13:35:24Z</time></trkpt><trkpt lat="42.33062276440046" lon="14.113456233510332"><ele>43.0</ele><time>2026-05-01T13:35:25Z</time></trkpt><trkpt lat="42.33069888026277" lon="14.11360182664759"><ele>41.333333333333336</ele><time>2026-05-01T13:35:26Z</time></trkpt><trkpt lat="42.33075599989244" lon="14.113796961684013"><ele>39.666666666666664</ele><time>2026-05-01T13:35:27Z</time></trkpt><trkpt lat="42.33080983765927" lon="14.113993521823202"><ele>38.0</ele><time>2026-05-01T13:35:28Z</time></trkpt><trkpt lat="42.330865656903626" lon="14.114186159814981"><ele>38.0</ele><time>2026-05-01T13:35:29Z</time></trkpt><trkpt lat="42.330925268506306" lon="14.11438428517804"><ele>38.0</ele><time>2026-05-01T13:35:30Z</time></trkpt><trkpt lat="42.33098764105595" lon="14.114590337301838"><ele>38.0</ele><time>2026-05-01T13:35:31Z</time></trkpt><trkpt lat="42.33105355693732" lon="14.114798879310097"><ele>38.0</ele><time>2026-05-01T13:35:32Z</time></trkpt><trkpt lat="42.3311186771485" lon="14.115002105452028"><ele>38.0</ele><time>2026-05-01T13:35:33Z</time></trkpt><trkpt lat="42.331188163488" lon="14.115219240652863"><ele>38.0</ele><time>2026-05-01T13:35:34Z</time></trkpt><trkpt lat="42.33125659291395" lon="14.115440601988674"><ele>38.0</ele><time>2026-05-01T13:35:35Z</time></trkpt><trkpt lat="42.33132758510166" lon="14.115656503906715"><ele>38.0</ele><time>2026-05-01T13:35:36Z</time></trkpt><trkpt lat="42.33139377450183" lon="14.115868719142545"><ele>38.0</ele><time>2026-05-01T13:35:37Z</time></trkpt><trkpt lat="42.33145681337649" lon="14.116067158582224"><ele>38.0</ele><time>2026-05-01T13:35:38Z</time></trkpt><trkpt lat="42.33152345487701" lon="14.116262167263008"><ele>38.0</ele><time>2026-05-01T13:35:39Z</time></trkpt><trkpt lat="42.331583221605584" lon="14.116456385546691"><ele>38.0</ele><time>2026-05-01T13:35:40Z</time></trkpt><trkpt lat="42.331643906002455" lon="14.116649160753763"><ele>38.0</ele><time>2026-05-01T13:35:41Z</time></trkpt><trkpt lat="42.331699808562966" lon="14.116837955638054"><ele>38.0</ele><time>2026-05-01T13:35:42Z</time></trkpt><trkpt lat="42.33175569831206" lon="14.11701554402503"><ele>38.0</ele><time>2026-05-01T13:35:43Z</time></trkpt><trkpt lat="42.33181551656969" lon="14.117200449409085"><ele>38.0</ele><time>2026-05-01T13:35:44Z</time></trkpt><trkpt lat="42.331874787952195" lon="14.117391712314499"><ele>38.5</ele><time>2026-05-01T13:35:45Z</time></trkpt><trkpt lat="42.33193473409789" lon="14.117581786084594"><ele>39.0</ele><time>2026-05-01T13:35:46Z</time></trkpt><trkpt lat="42.33199348221725" lon="14.117761258691"><ele>39.5</ele><time>2026-05-01T13:35:47Z</time></trkpt><trkpt lat="42.332047133990265" lon="14.117931952316312"><ele>40.0</ele><time>2026-05-01T13:35:47.999Z</time></trkpt><trkpt lat="42.33209163232268" lon="14.118086563283068"><ele>40.0</ele><time>2026-05-01T13:35:48.999Z</time></trkpt><trkpt lat="42.33213524899628" lon="14.118232938341505"><ele>40.0</ele><time>2026-05-01T13:35:49.999Z</time></trkpt><trkpt lat="42.332178231096144" lon="14.118377500203003"><ele>40.0</ele><time>2026-05-01T13:35:50.999Z</time></trkpt><trkpt lat="42.332223633885796" lon="14.118520995677184"><ele>40.0</ele><time>2026-05-01T13:35:51.999Z</time></trkpt><trkpt lat="42.33226567472891" lon="14.118666499887308"><ele>39.5</ele><time>2026-05-01T13:35:52.999Z</time></trkpt><trkpt lat="42.33231068609259" lon="14.118817354113075"><ele>39.0</ele><time>2026-05-01T13:35:53.999Z</time></trkpt><trkpt lat="42.33235030824513" lon="14.118988375845884"><ele>38.5</ele><time>2026-05-01T13:35:54.999Z</time></trkpt><trkpt lat="42.33239322294894" lon="14.119144011602481"><ele>38.0</ele><time>2026-05-01T13:35:55.999Z</time></trkpt><trkpt lat="42.33245627109418" lon="14.119292383017038"><ele>37.75</ele><time>2026-05-01T13:35:56.999Z</time></trkpt><trkpt lat="42.332522391877205" lon="14.119444297959198"><ele>37.5</ele><time>2026-05-01T13:35:57.999Z</time></trkpt><trkpt lat="42.332565527106574" lon="14.119600104682268"><ele>37.25</ele><time>2026-05-01T13:35:58.999Z</time></trkpt><trkpt lat="42.332609577119364" lon="14.119761115500092"><ele>37.0</ele><time>2026-05-01T13:35:59.999Z</time></trkpt><trkpt lat="42.33264861545274" lon="14.119932636314358"><ele>37.75</ele><time>2026-05-01T13:36:00.999Z</time></trkpt><trkpt lat="42.33270341394742" lon="14.120094069731199"><ele>38.5</ele><time>2026-05-01T13:36:01.999Z</time></trkpt><trkpt lat="42.33275355782425" lon="14.120250803804899"><ele>39.25</ele><time>2026-05-01T13:36:02.999Z</time></trkpt><trkpt lat="42.33280134217783" lon="14.120422541225654"><ele>40.0</ele><time>2026-05-01T13:36:03.999Z</time></trkpt><trkpt lat="42.33285415442623" lon="14.120583290740903"><ele>40.0</ele><time>2026-05-01T13:36:04.999Z</time></trkpt><trkpt lat="42.33290404820207" lon="14.120733135126981"><ele>40.0</ele><time>2026-05-01T13:36:05.999Z</time></trkpt><trkpt lat="42.33295217685244" lon="14.120878628410864"><ele>40.0</ele><time>2026-05-01T13:36:06.999Z</time></trkpt><trkpt lat="42.33299545546615" lon="14.121001340073244"><ele>40.0</ele><time>2026-05-01T13:36:07.999Z</time></trkpt><trkpt lat="42.333027031957315" lon="14.121108950652705"><ele>40.0</ele><time>2026-05-01T13:36:08.999Z</time></trkpt><trkpt lat="42.33305815308315" lon="14.121200157398318"><ele>40.333333333333336</ele><time>2026-05-01T13:36:09.999Z</time></trkpt><trkpt lat="42.33307517681642" lon="14.121285796488884"><ele>40.66666666666667</ele><time>2026-05-01T13:36:10.999Z</time></trkpt><trkpt lat="42.333086560372664" lon="14.12137196486849"><ele>41.0</ele><time>2026-05-01T13:36:11.999Z</time></trkpt><trkpt lat="42.33309459758223" lon="14.121507063363934"><ele>41.333333333333336</ele><time>2026-05-01T13:36:13.999Z</time></trkpt><trkpt lat="42.333105383184254" lon="14.121610912028519"><ele>41.666666666666664</ele><time>2026-05-01T13:36:16.999Z</time></trkpt><trkpt lat="42.33308202259938" lon="14.121703220674538"><ele>42.0</ele><time>2026-05-01T13:36:30.999Z</time></trkpt><trkpt lat="42.333142480697646" lon="14.121795913850752"><ele>42.0</ele><time>2026-05-01T13:37:45Z</time></trkpt><trkpt lat="42.33317321887974" lon="14.121874990001846"><ele>42.0</ele><time>2026-05-01T13:37:47Z</time></trkpt><trkpt lat="42.333257126932395" lon="14.121958363984717"><ele>42.0</ele><time>2026-05-01T13:37:49Z</time></trkpt><trkpt lat="42.33330898141836" lon="14.122007041233363"><ele>42.0</ele><time>2026-05-01T13:37:51Z</time></trkpt><trkpt lat="42.33335642522318" lon="14.12211981447514"><ele>42.0</ele><time>2026-05-01T13:37:54Z</time></trkpt><trkpt lat="42.33339337140689" lon="14.122197304151705"><ele>42.0</ele><time>2026-05-01T13:37:55Z</time></trkpt><trkpt lat="42.333416948489216" lon="14.122292015561872"><ele>42.0</ele><time>2026-05-01T13:37:56Z</time></trkpt><trkpt lat="42.333446819961516" lon="14.122391975452858"><ele>42.0</ele><time>2026-05-01T13:37:57Z</time></trkpt><trkpt lat="42.33347993784917" lon="14.12250701387662"><ele>42.0</ele><time>2026-05-01T13:37:58Z</time></trkpt><trkpt lat="42.33351544307453" lon="14.122626958457817"><ele>42.0</ele><time>2026-05-01T13:37:59Z</time></trkpt><trkpt lat="42.33354959425144" lon="14.122746441256421"><ele>42.0</ele><time>2026-05-01T13:38:00Z</time></trkpt><trkpt lat="42.33359255971755" lon="14.12286933137014"><ele>42.2</ele><time>2026-05-01T13:38:01Z</time></trkpt><trkpt lat="42.33363098328071" lon="14.12299188477713"><ele>42.400000000000006</ele><time>2026-05-01T13:38:02Z</time></trkpt><trkpt lat="42.3336692956139" lon="14.12312165148231"><ele>42.599999999999994</ele><time>2026-05-01T13:38:03Z</time></trkpt><trkpt lat="42.333715408706695" lon="14.123259079827978"><ele>42.8</ele><time>2026-05-01T13:38:04Z</time></trkpt><trkpt lat="42.33376070068018" lon="14.123403525034542"><ele>43.0</ele><time>2026-05-01T13:38:05Z</time></trkpt><trkpt lat="42.33380606418087" lon="14.123557584968042"><ele>43.0</ele><time>2026-05-01T13:38:06Z</time></trkpt><trkpt lat="42.333856036548546" lon="14.123715675126732"><ele>43.0</ele><time>2026-05-01T13:38:07Z</time></trkpt><trkpt lat="42.33390950845091" lon="14.123878149372668"><ele>43.0</ele><time>2026-05-01T13:38:07.999Z</time></trkpt><trkpt lat="42.33396262248439" lon="14.1240419941588"><ele>43.0</ele><time>2026-05-01T13:38:08.999Z</time></trkpt><trkpt lat="42.33401354210392" lon="14.124207987522672"><ele>42.5</ele><time>2026-05-01T13:38:09.999Z</time></trkpt><trkpt lat="42.33406287626589" lon="14.124375646177725"><ele>42.0</ele><time>2026-05-01T13:38:10.999Z</time></trkpt><trkpt lat="42.33411479158861" lon="14.1245429762688"><ele>41.5</ele><time>2026-05-01T13:38:11.999Z</time></trkpt><trkpt lat="42.33416655292233" lon="14.124709417756064"><ele>41.0</ele><time>2026-05-01T13:38:12.999Z</time></trkpt><trkpt lat="42.334219303075805" lon="14.124879077620184"><ele>41.5</ele><time>2026-05-01T13:38:13.999Z</time></trkpt><trkpt lat="42.33427239118825" lon="14.125046450965728"><ele>42.0</ele><time>2026-05-01T13:38:14.999Z</time></trkpt><trkpt lat="42.334331017571195" lon="14.125218971815336"><ele>42.5</ele><time>2026-05-01T13:38:15.999Z</time></trkpt><trkpt lat="42.3343910737524" lon="14.125393527190234"><ele>43.0</ele><time>2026-05-01T13:38:16.999Z</time></trkpt><trkpt lat="42.33444363311696" lon="14.125569461454843"><ele>43.5</ele><time>2026-05-01T13:38:17.999Z</time></trkpt><trkpt lat="42.33449215723472" lon="14.125736481854691"><ele>44.0</ele><time>2026-05-01T13:38:18.999Z</time></trkpt><trkpt lat="42.334542563279854" lon="14.12589823313557"><ele>44.5</ele><time>2026-05-01T13:38:19.999Z</time></trkpt><trkpt lat="42.334594889809686" lon="14.126063353177509"><ele>45.0</ele><time>2026-05-01T13:38:20.999Z</time></trkpt><trkpt lat="42.33464787295411" lon="14.126227278254724"><ele>45.0</ele><time>2026-05-01T13:38:21.999Z</time></trkpt><trkpt lat="42.334700541359204" lon="14.126394912704244"><ele>45.0</ele><time>2026-05-01T13:38:22.999Z</time></trkpt><trkpt lat="42.33475900724155" lon="14.126559479631016"><ele>45.0</ele><time>2026-05-01T13:38:23.999Z</time></trkpt><trkpt lat="42.33481723280228" lon="14.126736905524186"><ele>45.0</ele><time>2026-05-01T13:38:24.999Z</time></trkpt><trkpt lat="42.33486782511092" lon="14.126901140822213"><ele>45.25</ele><time>2026-05-01T13:38:25.999Z</time></trkpt><trkpt lat="42.334925269247" lon="14.127077552498777"><ele>45.5</ele><time>2026-05-01T13:38:26.999Z</time></trkpt><trkpt lat="42.334983082892315" lon="14.127255082901652"><ele>45.75</ele><time>2026-05-01T13:38:27.999Z</time></trkpt><trkpt lat="42.335037378523005" lon="14.127432017240036"><ele>46.0</ele><time>2026-05-01T13:38:28.999Z</time></trkpt><trkpt lat="42.335087192795" lon="14.127598811737816"><ele>46.4</ele><time>2026-05-01T13:38:29.999Z</time></trkpt><trkpt lat="42.335136680728496" lon="14.127751742281031"><ele>46.8</ele><time>2026-05-01T13:38:30.999Z</time></trkpt><trkpt lat="42.33518551033729" lon="14.127885390550729"><ele>47.199999999999996</ele><time>2026-05-01T13:38:31.999Z</time></trkpt><trkpt lat="42.3352198224632" lon="14.128025622446374"><ele>47.599999999999994</ele><time>2026-05-01T13:38:32.999Z</time></trkpt><trkpt lat="42.33525564271821" lon="14.128158177042584"><ele>48.0</ele><time>2026-05-01T13:38:33.999Z</time></trkpt><trkpt lat="42.33529320406024" lon="14.128279283774031"><ele>48.2</ele><time>2026-05-01T13:38:34.999Z</time></trkpt><trkpt lat="42.335330962427435" lon="14.128382540217478"><ele>48.4</ele><time>2026-05-01T13:38:35.999Z</time></trkpt><trkpt lat="42.33536421098382" lon="14.128495307801881"><ele>48.6</ele><time>2026-05-01T13:38:36.999Z</time></trkpt><trkpt lat="42.335404931635864" lon="14.128614516915032"><ele>48.800000000000004</ele><time>2026-05-01T13:38:37.999Z</time></trkpt><trkpt lat="42.33545392559219" lon="14.128741366106286"><ele>49.0</ele><time>2026-05-01T13:38:38.999Z</time></trkpt><trkpt lat="42.335507767819024" lon="14.128887037238549"><ele>49.0</ele><time>2026-05-01T13:38:39.999Z</time></trkpt><trkpt lat="42.335558531598274" lon="14.129039300038569"><ele>49.0</ele><time>2026-05-01T13:38:40.999Z</time></trkpt><trkpt lat="42.33559727337173" lon="14.1292195942078"><ele>49.0</ele><time>2026-05-01T13:38:41.999Z</time></trkpt><trkpt lat="42.33566842986816" lon="14.129399582292068"><ele>49.0</ele><time>2026-05-01T13:38:42.999Z</time></trkpt><trkpt lat="42.33572195451417" lon="14.129607193893445"><ele>49.33333333333333</ele><time>2026-05-01T13:38:43.999Z</time></trkpt><trkpt lat="42.33577756699163" lon="14.129804596546714"><ele>49.66666666666667</ele><time>2026-05-01T13:38:44.999Z</time></trkpt><trkpt lat="42.33583785579484" lon="14.12999835930441"><ele>50.0</ele><time>2026-05-01T13:38:45.999Z</time></trkpt><trkpt lat="42.335895751503685" lon="14.130183295447335"><ele>50.5</ele><time>2026-05-01T13:38:46.999Z</time></trkpt><trkpt lat="42.335946811110205" lon="14.13035302258376"><ele>51.0</ele><time>2026-05-01T13:38:47.999Z</time></trkpt><trkpt lat="42.33599162258558" lon="14.130509346956504"><ele>51.5</ele><time>2026-05-01T13:38:48.999Z</time></trkpt><trkpt lat="42.33603487602515" lon="14.130655673528057"><ele>52.0</ele><time>2026-05-01T13:38:49.999Z</time></trkpt><trkpt lat="42.33608279142648" lon="14.130808088933328"><ele>52.0</ele><time>2026-05-01T13:38:50.999Z</time></trkpt><trkpt lat="42.33613683598011" lon="14.130964809898988"><ele>52.0</ele><time>2026-05-01T13:38:51.999Z</time></trkpt><trkpt lat="42.336187599169556" lon="14.131124446420557"><ele>52.0</ele><time>2026-05-01T13:38:52.999Z</time></trkpt><trkpt lat="42.33623393783182" lon="14.131279665780825"><ele>52.0</ele><time>2026-05-01T13:38:53.999Z</time></trkpt><trkpt lat="42.33627969422869" lon="14.131441865967638"><ele>52.0</ele><time>2026-05-01T13:38:54.999Z</time></trkpt><trkpt lat="42.336324045529466" lon="14.13160147872146"><ele>52.0</ele><time>2026-05-01T13:38:55.999Z</time></trkpt><trkpt lat="42.33637910585871" lon="14.131758232640305"><ele>52.0</ele><time>2026-05-01T13:38:56.999Z</time></trkpt><trkpt lat="42.33644148593615" lon="14.131917125906453"><ele>52.0</ele><time>2026-05-01T13:38:57.999Z</time></trkpt><trkpt lat="42.336510467213174" lon="14.132072175648775"><ele>52.0</ele><time>2026-05-01T13:38:58.999Z</time></trkpt><trkpt lat="42.33659234467956" lon="14.132222480038141"><ele>52.0</ele><time>2026-05-01T13:38:59.999Z</time></trkpt><trkpt lat="42.33668694031678" lon="14.132362181943279"><ele>52.0</ele><time>2026-05-01T13:39:00.999Z</time></trkpt><trkpt lat="42.33678701626138" lon="14.13249161302818"><ele>52.0</ele><time>2026-05-01T13:39:01.999Z</time></trkpt><trkpt lat="42.336902248736656" lon="14.13260893349163"><ele>52.5</ele><time>2026-05-01T13:39:02.999Z</time></trkpt><trkpt lat="42.337019199850076" lon="14.132705993170891"><ele>53.0</ele><time>2026-05-01T13:39:03.999Z</time></trkpt><trkpt lat="42.33713586039887" lon="14.13278216052939"><ele>53.5</ele><time>2026-05-01T13:39:04.999Z</time></trkpt><trkpt lat="42.33726827308338" lon="14.132856172664685"><ele>54.0</ele><time>2026-05-01T13:39:05.999Z</time></trkpt><trkpt lat="42.33739655435599" lon="14.132913597097291"><ele>54.25</ele><time>2026-05-01T13:39:06.999Z</time></trkpt><trkpt lat="42.33753290599419" lon="14.132956910710279"><ele>54.5</ele><time>2026-05-01T13:39:07.999Z</time></trkpt><trkpt lat="42.33767292813521" lon="14.132995384637132"><ele>54.75</ele><time>2026-05-01T13:39:08.999Z</time></trkpt><trkpt lat="42.33780909841102" lon="14.133028113743798"><ele>55.0</ele><time>2026-05-01T13:39:09.999Z</time></trkpt><trkpt lat="42.33795138621698" lon="14.133072734978457"><ele>55.0</ele><time>2026-05-01T13:39:10.999Z</time></trkpt><trkpt lat="42.33809152097349" lon="14.133116573921136"><ele>55.0</ele><time>2026-05-01T13:39:11.999Z</time></trkpt><trkpt lat="42.33823228136122" lon="14.13316236724845"><ele>55.0</ele><time>2026-05-01T13:39:12.999Z</time></trkpt><trkpt lat="42.33837271151313" lon="14.133201768796365"><ele>55.0</ele><time>2026-05-01T13:39:13.999Z</time></trkpt><trkpt lat="42.338507267848264" lon="14.133245237477222"><ele>55.0</ele><time>2026-05-01T13:39:14.999Z</time></trkpt><trkpt lat="42.338642290879775" lon="14.133288380957662"><ele>55.0</ele><time>2026-05-01T13:39:15.999Z</time></trkpt><trkpt lat="42.33877570406848" lon="14.133333189598627"><ele>55.0</ele><time>2026-05-01T13:39:16.999Z</time></trkpt><trkpt lat="42.33890954104048" lon="14.133372777406562"><ele>55.0</ele><time>2026-05-01T13:39:17.999Z</time></trkpt><trkpt lat="42.33904684982056" lon="14.133412015123767"><ele>55.25</ele><time>2026-05-01T13:39:18.999Z</time></trkpt><trkpt lat="42.339174008722495" lon="14.133452070746886"><ele>55.5</ele><time>2026-05-01T13:39:19.999Z</time></trkpt><trkpt lat="42.339289134074725" lon="14.133487323268447"><ele>55.75</ele><time>2026-05-01T13:39:20.999Z</time></trkpt><trkpt lat="42.33940333122813" lon="14.133537798879452"><ele>56.0</ele><time>2026-05-01T13:39:21.999Z</time></trkpt><trkpt lat="42.3395353060667" lon="14.133573540273934"><ele>56.0</ele><time>2026-05-01T13:39:22.999Z</time></trkpt><trkpt lat="42.33967210056661" lon="14.133611912281744"><ele>56.0</ele><time>2026-05-01T13:39:23.999Z</time></trkpt><trkpt lat="42.33980692199285" lon="14.133648821206318"><ele>56.0</ele><time>2026-05-01T13:39:24.999Z</time></trkpt><trkpt lat="42.33993543185825" lon="14.133679187216893"><ele>56.0</ele><time>2026-05-01T13:39:25.999Z</time></trkpt><trkpt lat="42.340040799895085" lon="14.133713726554614"><ele>55.833333333333336</ele><time>2026-05-01T13:39:26.999Z</time></trkpt><trkpt lat="42.34014481157356" lon="14.133748438062511"><ele>55.66666666666667</ele><time>2026-05-01T13:39:27.999Z</time></trkpt><trkpt lat="42.340236541415166" lon="14.133778619808616"><ele>55.5</ele><time>2026-05-01T13:39:29Z</time></trkpt><trkpt lat="42.340318888044294" lon="14.133809460665368"><ele>55.33333333333333</ele><time>2026-05-01T13:39:30Z</time></trkpt><trkpt lat="42.34039212949868" lon="14.133847443906564"><ele>55.166666666666664</ele><time>2026-05-01T13:39:31Z</time></trkpt><trkpt lat="42.340456895504346" lon="14.133903364799098"><ele>55.0</ele><time>2026-05-01T13:39:32Z</time></trkpt><trkpt lat="42.34050995994454" lon="14.133975396739668"><ele>54.666666666666664</ele><time>2026-05-01T13:39:33Z</time></trkpt><trkpt lat="42.340560733442494" lon="14.13404390281233"><ele>54.33333333333333</ele><time>2026-05-01T13:39:34Z</time></trkpt><trkpt lat="42.34067019448719" lon="14.134031764830821"><ele>54.0</ele><time>2026-05-01T13:39:36Z</time></trkpt><trkpt lat="42.340730705197785" lon="14.133888969111739"><ele>53.66666666666667</ele><time>2026-05-01T13:39:38Z</time></trkpt><trkpt lat="42.34072533314105" lon="14.133803123116913"><ele>53.333333333333336</ele><time>2026-05-01T13:39:39Z</time></trkpt><trkpt lat="42.34068920581213" lon="14.133713828602776"><ele>53.0</ele><time>2026-05-01T13:39:40Z</time></trkpt><trkpt lat="42.34065429346046" lon="14.133612796750597"><ele>53.0</ele><time>2026-05-01T13:39:41Z</time></trkpt><trkpt lat="42.34066269011191" lon="14.133498339606426"><ele>53.0</ele><time>2026-05-01T13:39:42Z</time></trkpt><trkpt lat="42.34071600406203" lon="14.133377661701862"><ele>53.0</ele><time>2026-05-01T13:39:43Z</time></trkpt><trkpt lat="42.34078495221408" lon="14.133252201195699"><ele>53.0</ele><time>2026-05-01T13:39:44Z</time></trkpt><trkpt lat="42.340862006765065" lon="14.133108253948825"><ele>53.0</ele><time>2026-05-01T13:39:45Z</time></trkpt><trkpt lat="42.340947062889335" lon="14.13295747748887"><ele>52.5</ele><time>2026-05-01T13:39:46Z</time></trkpt><trkpt lat="42.34103613915664" lon="14.132813601493734"><ele>52.0</ele><time>2026-05-01T13:39:47Z</time></trkpt><trkpt lat="42.34111968276344" lon="14.132689424104289"><ele>51.5</ele><time>2026-05-01T13:39:48Z</time></trkpt><trkpt lat="42.34120161497071" lon="14.132571410717187"><ele>51.0</ele><time>2026-05-01T13:39:49Z</time></trkpt><trkpt lat="42.34128031690797" lon="14.132454837038562"><ele>50.599999999999994</ele><time>2026-05-01T13:39:50Z</time></trkpt><trkpt lat="42.341351597910275" lon="14.13234794737821"><ele>50.2</ele><time>2026-05-01T13:39:51Z</time></trkpt><trkpt lat="42.341421506144926" lon="14.13223791997404"><ele>49.8</ele><time>2026-05-01T13:39:52Z</time></trkpt><trkpt lat="42.341473569934394" lon="14.132130375127282"><ele>49.400000000000006</ele><time>2026-05-01T13:39:53Z</time></trkpt><trkpt lat="42.34151009423444" lon="14.132031590630904"><ele>49.0</ele><time>2026-05-01T13:39:54Z</time></trkpt><trkpt lat="42.34153973920873" lon="14.131945899630772"><ele>48.800000000000004</ele><time>2026-05-01T13:39:55Z</time></trkpt><trkpt lat="42.34157877938452" lon="14.131846052723496"><ele>48.6</ele><time>2026-05-01T13:39:57Z</time></trkpt><trkpt lat="42.34159044988785" lon="14.131719871696177"><ele>48.4</ele><time>2026-05-01T13:42:42Z</time></trkpt><trkpt lat="42.34163957833877" lon="14.131554966068158"><ele>48.2</ele><time>2026-05-01T13:42:44Z</time></trkpt><trkpt lat="42.34167293022939" lon="14.13145435485999"><ele>48.0</ele><time>2026-05-01T13:42:45Z</time></trkpt><trkpt lat="42.34171705725743" lon="14.13135887461066"><ele>47.8</ele><time>2026-05-01T13:42:46Z</time></trkpt><trkpt lat="42.341769768253805" lon="14.131263207831907"><ele>47.599999999999994</ele><time>2026-05-01T13:42:47Z</time></trkpt><trkpt lat="42.34183276867487" lon="14.131204982264846"><ele>47.400000000000006</ele><time>2026-05-01T13:42:48Z</time></trkpt><trkpt lat="42.34187054238833" lon="14.131068282791254"><ele>47.2</ele><time>2026-05-01T13:42:50Z</time></trkpt><trkpt lat="42.34177364166734" lon="14.130962957771011"><ele>47.0</ele><time>2026-05-01T13:42:51Z</time></trkpt><trkpt lat="42.34168861419443" lon="14.1310096437928"><ele>47.0</ele><time>2026-05-01T13:42:52Z</time></trkpt><trkpt lat="42.3416405665254" lon="14.13107026992675"><ele>47.0</ele><time>2026-05-01T13:42:53Z</time></trkpt><trkpt lat="42.34161117810533" lon="14.131164166545874"><ele>47.0</ele><time>2026-05-01T13:42:54Z</time></trkpt><trkpt lat="42.341595823823454" lon="14.131290026261235"><ele>47.0</ele><time>2026-05-01T13:42:55Z</time></trkpt><trkpt lat="42.34158856963379" lon="14.13142120941174"><ele>47.0</ele><time>2026-05-01T13:42:56Z</time></trkpt><trkpt lat="42.34155753585757" lon="14.131566211749554"><ele>47.0</ele><time>2026-05-01T13:42:57Z</time></trkpt><trkpt lat="42.34150171621127" lon="14.131712322876728"><ele>47.25</ele><time>2026-05-01T13:42:58Z</time></trkpt><trkpt lat="42.34144846241359" lon="14.131855165717308"><ele>47.5</ele><time>2026-05-01T13:42:59Z</time></trkpt><trkpt lat="42.341378017189975" lon="14.132041631583357"><ele>47.75</ele><time>2026-05-01T13:43:00Z</time></trkpt><trkpt lat="42.34129464506026" lon="14.132202845040402"><ele>48.0</ele><time>2026-05-01T13:43:01Z</time></trkpt><trkpt lat="42.34124417281514" lon="14.13235452239084"><ele>48.75</ele><time>2026-05-01T13:43:01.999Z</time></trkpt><trkpt lat="42.34117358554922" lon="14.132493350004378"><ele>49.5</ele><time>2026-05-01T13:43:02.999Z</time></trkpt><trkpt lat="42.34109376317503" lon="14.132626560697757"><ele>50.25</ele><time>2026-05-01T13:43:03.999Z</time></trkpt><trkpt lat="42.34101493822352" lon="14.132766760062628"><ele>51.0</ele><time>2026-05-01T13:43:04.999Z</time></trkpt><trkpt lat="42.34093606502546" lon="14.132908235571891"><ele>51.0</ele><time>2026-05-01T13:43:05.999Z</time></trkpt><trkpt lat="42.34086875005027" lon="14.133032149236518"><ele>51.0</ele><time>2026-05-01T13:43:06.999Z</time></trkpt><trkpt lat="42.34080599485087" lon="14.133148840610271"><ele>51.0</ele><time>2026-05-01T13:43:07.999Z</time></trkpt><trkpt lat="42.3407466789654" lon="14.133265675099905"><ele>51.0</ele><time>2026-05-01T13:43:08.999Z</time></trkpt><trkpt lat="42.34069595760046" lon="14.133379047506445"><ele>51.0</ele><time>2026-05-01T13:43:09.999Z</time></trkpt><trkpt lat="42.340646266291195" lon="14.133485686438434"><ele>51.4</ele><time>2026-05-01T13:43:10.999Z</time></trkpt><trkpt lat="42.3405979650313" lon="14.133591394555987"><ele>51.8</ele><time>2026-05-01T13:43:11.999Z</time></trkpt><trkpt lat="42.34055012553294" lon="14.133678187140989"><ele>52.199999999999996</ele><time>2026-05-01T13:43:12.999Z</time></trkpt><trkpt lat="42.34049131883051" lon="14.13374687694809"><ele>52.599999999999994</ele><time>2026-05-01T13:43:13.999Z</time></trkpt><trkpt lat="42.3404106605173" lon="14.133797962301902"><ele>53.0</ele><time>2026-05-01T13:43:14.999Z</time></trkpt><trkpt lat="42.34021484154652" lon="14.133725416262816"><ele>53.5</ele><time>2026-05-01T13:43:16.999Z</time></trkpt><trkpt lat="42.34008402378896" lon="14.133688367720053"><ele>54.0</ele><time>2026-05-01T13:43:17.999Z</time></trkpt><trkpt lat="42.339943084915014" lon="14.133642414478215"><ele>54.5</ele><time>2026-05-01T13:43:18.999Z</time></trkpt><trkpt lat="42.33978469117046" lon="14.133602859530125"><ele>55.0</ele><time>2026-05-01T13:43:19.999Z</time></trkpt><trkpt lat="42.33962412975892" lon="14.133560532052007"><ele>55.25</ele><time>2026-05-01T13:43:20.999Z</time></trkpt><trkpt lat="42.33947297332113" lon="14.13351389985492"><ele>55.5</ele><time>2026-05-01T13:43:21.999Z</time></trkpt><trkpt lat="42.33934429763137" lon="14.133474951391886"><ele>55.75</ele><time>2026-05-01T13:43:22.999Z</time></trkpt><trkpt lat="42.339219851404756" lon="14.133442965183985"><ele>56.0</ele><time>2026-05-01T13:43:23.999Z</time></trkpt><trkpt lat="42.33909171121957" lon="14.133401420193323"><ele>56.0</ele><time>2026-05-01T13:43:24.999Z</time></trkpt><trkpt lat="42.338952482230034" lon="14.133357416771641"><ele>56.0</ele><time>2026-05-01T13:43:25.999Z</time></trkpt><trkpt lat="42.338807007854115" lon="14.133318602505375"><ele>56.0</ele><time>2026-05-01T13:43:26.999Z</time></trkpt><trkpt lat="42.33866924026255" lon="14.133273077296362"><ele>56.0</ele><time>2026-05-01T13:43:27.999Z</time></trkpt><trkpt lat="42.33853094388299" lon="14.133230755286228"><ele>55.75</ele><time>2026-05-01T13:43:28.999Z</time></trkpt><trkpt lat="42.33839076000961" lon="14.133187412426969"><ele>55.5</ele><time>2026-05-01T13:43:29.999Z</time></trkpt><trkpt lat="42.33825319707904" lon="14.133122915008494"><ele>55.25</ele><time>2026-05-01T13:43:30.999Z</time></trkpt><trkpt lat="42.33811438397722" lon="14.133079411246074"><ele>55.0</ele><time>2026-05-01T13:43:31.999Z</time></trkpt><trkpt lat="42.33798525471839" lon="14.133038913247571"><ele>55.0</ele><time>2026-05-01T13:43:32.999Z</time></trkpt><trkpt lat="42.33785835431456" lon="14.133000068443435"><ele>55.0</ele><time>2026-05-01T13:43:33.999Z</time></trkpt><trkpt lat="42.33772743329401" lon="14.132961735982258"><ele>55.0</ele><time>2026-05-01T13:43:34.999Z</time></trkpt><trkpt lat="42.33760151371088" lon="14.13294783038373"><ele>55.0</ele><time>2026-05-01T13:43:35.999Z</time></trkpt><trkpt lat="42.337475033755496" lon="14.132900560564204"><ele>55.0</ele><time>2026-05-01T13:43:36.999Z</time></trkpt><trkpt lat="42.33734284950468" lon="14.132848003136376"><ele>55.0</ele><time>2026-05-01T13:43:37.999Z</time></trkpt><trkpt lat="42.33720847036219" lon="14.132785725729894"><ele>55.0</ele><time>2026-05-01T13:43:38.999Z</time></trkpt><trkpt lat="42.337082618472344" lon="14.132700466101403"><ele>55.0</ele><time>2026-05-01T13:43:40Z</time></trkpt><trkpt lat="42.33696405030269" lon="14.132604475842104"><ele>54.75</ele><time>2026-05-01T13:43:41Z</time></trkpt><trkpt lat="42.33685666313602" lon="14.132490968563726"><ele>54.5</ele><time>2026-05-01T13:43:42Z</time></trkpt><trkpt lat="42.33675290145432" lon="14.132370121868437"><ele>54.25</ele><time>2026-05-01T13:43:43Z</time></trkpt><trkpt lat="42.33664548810711" lon="14.132233638503928"><ele>54.0</ele><time>2026-05-01T13:43:44Z</time></trkpt><trkpt lat="42.3365527792434" lon="14.13207989833799"><ele>53.5</ele><time>2026-05-01T13:43:45Z</time></trkpt><trkpt lat="42.33648833285345" lon="14.13190209941814"><ele>53.0</ele><time>2026-05-01T13:43:46Z</time></trkpt><trkpt lat="42.33641969390169" lon="14.13172441695676"><ele>52.5</ele><time>2026-05-01T13:43:47Z</time></trkpt><trkpt lat="42.33634723996341" lon="14.131556667833319"><ele>52.0</ele><time>2026-05-01T13:43:48Z</time></trkpt><trkpt lat="42.33629145025374" lon="14.1313837581706"><ele>52.0</ele><time>2026-05-01T13:43:49Z</time></trkpt><trkpt lat="42.33623963290883" lon="14.131206906414592"><ele>52.0</ele><time>2026-05-01T13:43:50Z</time></trkpt><trkpt lat="42.33618616899821" lon="14.131026840434146"><ele>52.0</ele><time>2026-05-01T13:43:51Z</time></trkpt><trkpt lat="42.33613262746454" lon="14.130845634530068"><ele>52.0</ele><time>2026-05-01T13:43:52Z</time></trkpt><trkpt lat="42.33607830297867" lon="14.130668471347501"><ele>52.0</ele><time>2026-05-01T13:43:53Z</time></trkpt><trkpt lat="42.336020949330184" lon="14.130487155216668"><ele>52.0</ele><time>2026-05-01T13:43:54Z</time></trkpt><trkpt lat="42.335965683870434" lon="14.130307178619315"><ele>52.0</ele><time>2026-05-01T13:43:55Z</time></trkpt><trkpt lat="42.33590705647691" lon="14.130125245013835"><ele>52.0</ele><time>2026-05-01T13:43:56Z</time></trkpt><trkpt lat="42.335846098248666" lon="14.12994521625024"><ele>51.5</ele><time>2026-05-01T13:43:57Z</time></trkpt><trkpt lat="42.335788549777064" lon="14.129766227230352"><ele>51.0</ele><time>2026-05-01T13:43:58Z</time></trkpt><trkpt lat="42.33574114185829" lon="14.129592323451007"><ele>50.5</ele><time>2026-05-01T13:43:59Z</time></trkpt><trkpt lat="42.335687527606986" lon="14.129425133629686"><ele>50.0</ele><time>2026-05-01T13:44:00Z</time></trkpt><trkpt lat="42.33563681830972" lon="14.129260536579972"><ele>50.0</ele><time>2026-05-01T13:44:01Z</time></trkpt><trkpt lat="42.3355848697659" lon="14.1290925017633"><ele>50.0</ele><time>2026-05-01T13:44:02Z</time></trkpt><trkpt lat="42.33553096190565" lon="14.128922213154773"><ele>50.0</ele><time>2026-05-01T13:44:03Z</time></trkpt><trkpt lat="42.33547376884026" lon="14.12874559012715"><ele>50.0</ele><time>2026-05-01T13:44:04Z</time></trkpt><trkpt lat="42.33541658826044" lon="14.12856283140661"><ele>49.66666666666667</ele><time>2026-05-01T13:44:05Z</time></trkpt><trkpt lat="42.335355036763744" lon="14.128371887977895"><ele>49.33333333333333</ele><time>2026-05-01T13:44:06Z</time></trkpt><trkpt lat="42.335293339162455" lon="14.128181252107131"><ele>49.0</ele><time>2026-05-01T13:44:07Z</time></trkpt><trkpt lat="42.33523731920619" lon="14.127994695441567"><ele>48.75</ele><time>2026-05-01T13:44:08Z</time></trkpt><trkpt lat="42.33518130226896" lon="14.127814257207222"><ele>48.5</ele><time>2026-05-01T13:44:09Z</time></trkpt><trkpt lat="42.33512585768139" lon="14.127641802092285"><ele>48.25</ele><time>2026-05-01T13:44:10Z</time></trkpt><trkpt lat="42.3350746578654" lon="14.127474460259263"><ele>48.0</ele><time>2026-05-01T13:44:11Z</time></trkpt><trkpt lat="42.33502175040979" lon="14.127300032430405"><ele>47.5</ele><time>2026-05-01T13:44:12Z</time></trkpt><trkpt lat="42.33497336638951" lon="14.127136959979401"><ele>47.0</ele><time>2026-05-01T13:44:13Z</time></trkpt><trkpt lat="42.334924158580954" lon="14.12698665092517"><ele>46.5</ele><time>2026-05-01T13:44:14Z</time></trkpt><trkpt lat="42.33488220955783" lon="14.126842391980908"><ele>46.0</ele><time>2026-05-01T13:44:15Z</time></trkpt><trkpt lat="42.3348447736159" lon="14.126720376343478"><ele>46.0</ele><time>2026-05-01T13:44:16Z</time></trkpt><trkpt lat="42.33481590205737" lon="14.12660359127782"><ele>46.0</ele><time>2026-05-01T13:44:17Z</time></trkpt><trkpt lat="42.33479954828318" lon="14.12648258417211"><ele>46.0</ele><time>2026-05-01T13:44:18Z</time></trkpt><trkpt lat="42.33480493442039" lon="14.126353975294425"><ele>46.0</ele><time>2026-05-01T13:44:19Z</time></trkpt><trkpt lat="42.33483398440046" lon="14.12621040925081"><ele>46.0</ele><time>2026-05-01T13:44:20Z</time></trkpt><trkpt lat="42.33488517469243" lon="14.126060789833973"><ele>45.75</ele><time>2026-05-01T13:44:21Z</time></trkpt><trkpt lat="42.33494683491086" lon="14.125894171263306"><ele>45.5</ele><time>2026-05-01T13:44:22Z</time></trkpt><trkpt lat="42.33500874049548" lon="14.125730004684147"><ele>45.25</ele><time>2026-05-01T13:44:23Z</time></trkpt><trkpt lat="42.335065938252804" lon="14.125580090702979"><ele>45.0</ele><time>2026-05-01T13:44:24Z</time></trkpt><trkpt lat="42.335102382123516" lon="14.125433783986818"><ele>44.25</ele><time>2026-05-01T13:44:25Z</time></trkpt><trkpt lat="42.3350896726604" lon="14.125295273206781"><ele>43.5</ele><time>2026-05-01T13:44:26Z</time></trkpt><trkpt lat="42.33504528901261" lon="14.12513498088646"><ele>42.75</ele><time>2026-05-01T13:44:27Z</time></trkpt><trkpt lat="42.33501393320185" lon="14.124984223829475"><ele>42.0</ele><time>2026-05-01T13:44:28Z</time></trkpt><trkpt lat="42.33493215615528" lon="14.124860519006857"><ele>41.75</ele><time>2026-05-01T13:44:29Z</time></trkpt><trkpt lat="42.334824797024325" lon="14.124751734472317"><ele>41.5</ele><time>2026-05-01T13:44:30Z</time></trkpt><trkpt lat="42.334700640469066" lon="14.124648481945133"><ele>41.25</ele><time>2026-05-01T13:44:31Z</time></trkpt><trkpt lat="42.334571373443524" lon="14.124543894188275"><ele>41.0</ele><time>2026-05-01T13:44:32Z</time></trkpt><trkpt lat="42.33445670811941" lon="14.124442978847096"><ele>41.0</ele><time>2026-05-01T13:44:33Z</time></trkpt><trkpt lat="42.334355461119266" lon="14.124344501461664"><ele>41.0</ele><time>2026-05-01T13:44:34Z</time></trkpt><trkpt lat="42.33425899233049" lon="14.124251675613161"><ele>41.0</ele><time>2026-05-01T13:44:35Z</time></trkpt><trkpt lat="42.33416643066129" lon="14.124158475951948"><ele>41.0</ele><time>2026-05-01T13:44:36Z</time></trkpt><trkpt lat="42.3340799653658" lon="14.124050830222707"><ele>41.25</ele><time>2026-05-01T13:44:37Z</time></trkpt><trkpt lat="42.33400190859817" lon="14.123924068533931"><ele>41.5</ele><time>2026-05-01T13:44:38Z</time></trkpt><trkpt lat="42.333934145682896" lon="14.123776508724209"><ele>41.75</ele><time>2026-05-01T13:44:39Z</time></trkpt><trkpt lat="42.33387591682432" lon="14.123612567284447"><ele>42.0</ele><time>2026-05-01T13:44:40Z</time></trkpt><trkpt lat="42.33381817173787" lon="14.123444238949505"><ele>42.25</ele><time>2026-05-01T13:44:41Z</time></trkpt><trkpt lat="42.33376052725245" lon="14.123281649063017"><ele>42.5</ele><time>2026-05-01T13:44:42Z</time></trkpt><trkpt lat="42.33370410753999" lon="14.123111924908168"><ele>42.75</ele><time>2026-05-01T13:44:43Z</time></trkpt><trkpt lat="42.33364550400994" lon="14.122939249197014"><ele>43.0</ele><time>2026-05-01T13:44:44Z</time></trkpt><trkpt lat="42.333586776541196" lon="14.122767249198327"><ele>43.25</ele><time>2026-05-01T13:44:45Z</time></trkpt><trkpt lat="42.33353131317435" lon="14.122608010918636"><ele>43.5</ele><time>2026-05-01T13:44:46Z</time></trkpt><trkpt lat="42.33348639576449" lon="14.122452127129039"><ele>43.75</ele><time>2026-05-01T13:44:47Z</time></trkpt><trkpt lat="42.33344080729817" lon="14.122308067125191"><ele>44.0</ele><time>2026-05-01T13:44:48Z</time></trkpt><trkpt lat="42.33339892344869" lon="14.122188465818809"><ele>43.6</ele><time>2026-05-01T13:44:49Z</time></trkpt><trkpt lat="42.333361962748114" lon="14.122078704226755"><ele>43.2</ele><time>2026-05-01T13:44:50Z</time></trkpt><trkpt lat="42.33332728305052" lon="14.121970132819852"><ele>42.800000000000004</ele><time>2026-05-01T13:44:51Z</time></trkpt><trkpt lat="42.33329620088178" lon="14.121869169366953"><ele>42.400000000000006</ele><time>2026-05-01T13:44:52Z</time></trkpt><trkpt lat="42.3332686889737" lon="14.12177340677372"><ele>42.0</ele><time>2026-05-01T13:44:53Z</time></trkpt><trkpt lat="42.333209882317895" lon="14.121610867746556"><ele>42.0</ele><time>2026-05-01T13:44:55Z</time></trkpt><trkpt lat="42.3331392523884" lon="14.12149317474889"><ele>42.0</ele><time>2026-05-01T13:44:57Z</time></trkpt><trkpt lat="42.3330169810681" lon="14.121584703236637"><ele>42.0</ele><time>2026-05-01T13:45:00Z</time></trkpt><trkpt lat="42.33303423248243" lon="14.121701871537654"><ele>42.0</ele><time>2026-05-01T13:45:02Z</time></trkpt><trkpt lat="42.33309911328742" lon="14.1217679898572"><ele>42.0</ele><time>2026-05-01T13:45:04Z</time></trkpt><trkpt lat="42.33312076845372" lon="14.121876773217133"><ele>42.0</ele><time>2026-05-01T13:45:07Z</time></trkpt><trkpt lat="42.333042853946246" lon="14.121926610628975"><ele>42.0</ele><time>2026-05-01T13:45:10Z</time></trkpt><trkpt lat="42.33302522025584" lon="14.122012409788884"><ele>42.0</ele><time>2026-05-01T14:07:15Z</time></trkpt><trkpt lat="42.333108440215035" lon="14.122016238413956"><ele>42.0</ele><time>2026-05-01T14:07:18Z</time></trkpt><trkpt lat="42.33317595118351" lon="14.12199943948475"><ele>42.0</ele><time>2026-05-01T14:07:21Z</time></trkpt><trkpt lat="42.333260558639736" lon="14.122016079087558"><ele>42.0</ele><time>2026-05-01T14:07:23Z</time></trkpt><trkpt lat="42.33334484670995" lon="14.122109488877182"><ele>42.0</ele><time>2026-05-01T14:07:25Z</time></trkpt><trkpt lat="42.333382950118185" lon="14.122232345361843"><ele>42.0</ele><time>2026-05-01T14:07:26Z</time></trkpt><trkpt lat="42.333422938515795" lon="14.122374816366428"><ele>42.0</ele><time>2026-05-01T14:07:27Z</time></trkpt><trkpt lat="42.33346806533938" lon="14.122522688267502"><ele>42.0</ele><time>2026-05-01T14:07:28Z</time></trkpt><trkpt lat="42.33351290110815" lon="14.122655351836114"><ele>42.0</ele><time>2026-05-01T14:07:29Z</time></trkpt><trkpt lat="42.33355209381784" lon="14.122801294268069"><ele>42.25</ele><time>2026-05-01T14:07:30Z</time></trkpt><trkpt lat="42.333603997260084" lon="14.122950734292528"><ele>42.5</ele><time>2026-05-01T14:07:31Z</time></trkpt><trkpt lat="42.3336508579721" lon="14.123098741999867"><ele>42.75</ele><time>2026-05-01T14:07:32Z</time></trkpt><trkpt lat="42.333698796495554" lon="14.123241629022754"><ele>43.0</ele><time>2026-05-01T14:07:33Z</time></trkpt><trkpt lat="42.33374398444107" lon="14.12338580862527"><ele>43.0</ele><time>2026-05-01T14:07:34Z</time></trkpt><trkpt lat="42.33379101410038" lon="14.123533055433944"><ele>43.0</ele><time>2026-05-01T14:07:35Z</time></trkpt><trkpt lat="42.33383869477428" lon="14.1236793385667"><ele>43.0</ele><time>2026-05-01T14:07:36Z</time></trkpt><trkpt lat="42.3338890872113" lon="14.12383798653241"><ele>43.0</ele><time>2026-05-01T14:07:37Z</time></trkpt><trkpt lat="42.3339423951116" lon="14.124003181739907"><ele>42.5</ele><time>2026-05-01T14:07:38Z</time></trkpt><trkpt lat="42.33399688229714" lon="14.12417412594027"><ele>42.0</ele><time>2026-05-01T14:07:39Z</time></trkpt><trkpt lat="42.334051368924804" lon="14.124355959211938"><ele>41.5</ele><time>2026-05-01T14:07:40Z</time></trkpt><trkpt lat="42.334108763690296" lon="14.124537512694898"><ele>41.0</ele><time>2026-05-01T14:07:41Z</time></trkpt><trkpt lat="42.334167759058914" lon="14.124736807607537"><ele>41.666666666666664</ele><time>2026-05-01T14:07:42Z</time></trkpt><trkpt lat="42.33422874865674" lon="14.124927609876064"><ele>42.333333333333336</ele><time>2026-05-01T14:07:43Z</time></trkpt><trkpt lat="42.334291763460435" lon="14.125113762711818"><ele>43.0</ele><time>2026-05-01T14:07:44Z</time></trkpt><trkpt lat="42.33435765692944" lon="14.125310794363628"><ele>43.0</ele><time>2026-05-01T14:07:45Z</time></trkpt><trkpt lat="42.334417960338214" lon="14.125509982784868"><ele>43.0</ele><time>2026-05-01T14:07:46Z</time></trkpt><trkpt lat="42.33448169230304" lon="14.125714064163152"><ele>43.0</ele><time>2026-05-01T14:07:47Z</time></trkpt><trkpt lat="42.33454491626845" lon="14.125910065013803"><ele>43.66666666666667</ele><time>2026-05-01T14:07:48Z</time></trkpt><trkpt lat="42.33460724396793" lon="14.126103469068678"><ele>44.333333333333336</ele><time>2026-05-01T14:07:49Z</time></trkpt><trkpt lat="42.33466959667544" lon="14.126301214948462"><ele>45.0</ele><time>2026-05-01T14:07:50Z</time></trkpt><trkpt lat="42.334733487907044" lon="14.126513723489339"><ele>45.333333333333336</ele><time>2026-05-01T14:07:51Z</time></trkpt><trkpt lat="42.33480643180006" lon="14.126735774956655"><ele>45.66666666666667</ele><time>2026-05-01T14:07:52Z</time></trkpt><trkpt lat="42.334881368684705" lon="14.126966631374312"><ele>46.0</ele><time>2026-05-01T14:07:53Z</time></trkpt><trkpt lat="42.33496269412328" lon="14.127213609377424"><ele>46.66666666666667</ele><time>2026-05-01T14:07:54Z</time></trkpt><trkpt lat="42.335047106373494" lon="14.127470018939588"><ele>47.333333333333336</ele><time>2026-05-01T14:07:55Z</time></trkpt><trkpt lat="42.33512369122837" lon="14.127725990561293"><ele>48.0</ele><time>2026-05-01T14:07:56Z</time></trkpt><trkpt lat="42.33519183508196" lon="14.127949484773234"><ele>48.0</ele><time>2026-05-01T14:07:57Z</time></trkpt><trkpt lat="42.33525947286056" lon="14.128162974479913"><ele>48.0</ele><time>2026-05-01T14:07:58Z</time></trkpt><trkpt lat="42.33532512454065" lon="14.128381815631352"><ele>48.0</ele><time>2026-05-01T14:07:59Z</time></trkpt><trkpt lat="42.33539203655732" lon="14.128587153851223"><ele>48.33333333333333</ele><time>2026-05-01T14:08:00Z</time></trkpt><trkpt lat="42.33545930614704" lon="14.128796894140086"><ele>48.666666666666664</ele><time>2026-05-01T14:08:01Z</time></trkpt><trkpt lat="42.3355248203882" lon="14.129000811348751"><ele>49.0</ele><time>2026-05-01T14:08:02Z</time></trkpt><trkpt lat="42.335592610155636" lon="14.129213807012212"><ele>49.33333333333333</ele><time>2026-05-01T14:08:03Z</time></trkpt><trkpt lat="42.335663809842856" lon="14.129434001988693"><ele>49.66666666666667</ele><time>2026-05-01T14:08:04Z</time></trkpt><trkpt lat="42.33573356454768" lon="14.129650229801554"><ele>50.0</ele><time>2026-05-01T14:08:05Z</time></trkpt><trkpt lat="42.33579808118548" lon="14.129856535422599"><ele>50.66666666666667</ele><time>2026-05-01T14:08:06Z</time></trkpt><trkpt lat="42.33585583331816" lon="14.130057617030932"><ele>51.33333333333333</ele><time>2026-05-01T14:08:07Z</time></trkpt><trkpt lat="42.33591965525205" lon="14.130257565978342"><ele>52.0</ele><time>2026-05-01T14:08:08Z</time></trkpt><trkpt lat="42.33598493357008" lon="14.130463533555272"><ele>52.0</ele><time>2026-05-01T14:08:09Z</time></trkpt><trkpt lat="42.33604824842565" lon="14.13066453924927"><ele>52.0</ele><time>2026-05-01T14:08:10Z</time></trkpt><trkpt lat="42.33611347015509" lon="14.13087144636183"><ele>52.0</ele><time>2026-05-01T14:08:11Z</time></trkpt><trkpt lat="42.336179534331805" lon="14.131077643400001"><ele>52.0</ele><time>2026-05-01T14:08:12Z</time></trkpt><trkpt lat="42.33624618014236" lon="14.131288530487282"><ele>52.0</ele><time>2026-05-01T14:08:13Z</time></trkpt><trkpt lat="42.33631559875349" lon="14.131505649579784"><ele>52.0</ele><time>2026-05-01T14:08:14Z</time></trkpt><trkpt lat="42.3363843463048" lon="14.13171669601613"><ele>52.0</ele><time>2026-05-01T14:08:15Z</time></trkpt><trkpt lat="42.336461818068344" lon="14.131930358872404"><ele>52.0</ele><time>2026-05-01T14:08:16Z</time></trkpt><trkpt lat="42.33656281334644" lon="14.13213370770638"><ele>52.0</ele><time>2026-05-01T14:08:17Z</time></trkpt><trkpt lat="42.33668165518714" lon="14.132327620652681"><ele>52.666666666666664</ele><time>2026-05-01T14:08:18Z</time></trkpt><trkpt lat="42.33681157782547" lon="14.132502963114282"><ele>53.33333333333333</ele><time>2026-05-01T14:08:19Z</time></trkpt><trkpt lat="42.336947487706134" lon="14.132639377818434"><ele>54.0</ele><time>2026-05-01T14:08:20Z</time></trkpt><trkpt lat="42.33707909218844" lon="14.132742629757796"><ele>54.0</ele><time>2026-05-01T14:08:21Z</time></trkpt><trkpt lat="42.337205389616464" lon="14.132820613009708"><ele>54.0</ele><time>2026-05-01T14:08:22Z</time></trkpt><trkpt lat="42.337326778847704" lon="14.132889298341725"><ele>54.0</ele><time>2026-05-01T14:08:23Z</time></trkpt><trkpt lat="42.33744016843664" lon="14.13293460022999"><ele>54.0</ele><time>2026-05-01T14:08:23.999Z</time></trkpt><trkpt lat="42.3375679175499" lon="14.132967967748364"><ele>54.25</ele><time>2026-05-01T14:08:24.998Z</time></trkpt><trkpt lat="42.33771342363422" lon="14.132996495547577"><ele>54.5</ele><time>2026-05-01T14:08:25.998Z</time></trkpt><trkpt lat="42.33785335973811" lon="14.133035326356778"><ele>54.75</ele><time>2026-05-01T14:08:26.998Z</time></trkpt><trkpt lat="42.33799061871388" lon="14.133068342959374"><ele>55.0</ele><time>2026-05-01T14:08:27.998Z</time></trkpt><trkpt lat="42.33813729243961" lon="14.1331102092079"><ele>55.0</ele><time>2026-05-01T14:08:28.998Z</time></trkpt><trkpt lat="42.33827665329292" lon="14.133176361486735"><ele>55.0</ele><time>2026-05-01T14:08:29.998Z</time></trkpt><trkpt lat="42.33842608072819" lon="14.13320928473879"><ele>55.0</ele><time>2026-05-01T14:08:30.998Z</time></trkpt><trkpt lat="42.33856799400774" lon="14.133268470522314"><ele>55.0</ele><time>2026-05-01T14:08:31.998Z</time></trkpt><trkpt lat="42.33871811875135" lon="14.133317187556882"><ele>55.33333333333333</ele><time>2026-05-01T14:08:32.998Z</time></trkpt><trkpt lat="42.338884666646884" lon="14.133358791198722"><ele>55.66666666666667</ele><time>2026-05-01T14:08:33.998Z</time></trkpt><trkpt lat="42.33905709201512" lon="14.133400289945671"><ele>56.0</ele><time>2026-05-01T14:08:34.998Z</time></trkpt><trkpt lat="42.33923821360784" lon="14.133450916989796"><ele>56.0</ele><time>2026-05-01T14:08:35.998Z</time></trkpt><trkpt lat="42.339405577883" lon="14.133510743709707"><ele>56.0</ele><time>2026-05-01T14:08:36.998Z</time></trkpt><trkpt lat="42.33954926676669" lon="14.1335695797354"><ele>56.0</ele><time>2026-05-01T14:08:37.998Z</time></trkpt><trkpt lat="42.339666390090585" lon="14.133601453705023"><ele>56.0</ele><time>2026-05-01T14:08:38.998Z</time></trkpt><trkpt lat="42.33978933642138" lon="14.133637320309324"><ele>55.8</ele><time>2026-05-01T14:08:39.998Z</time></trkpt><trkpt lat="42.339904555158945" lon="14.133676512505046"><ele>55.599999999999994</ele><time>2026-05-01T14:08:40.998Z</time></trkpt><trkpt lat="42.340010331175435" lon="14.133707832302967"><ele>55.4</ele><time>2026-05-01T14:08:41.998Z</time></trkpt><trkpt lat="42.34010466781702" lon="14.133726354867852"><ele>55.2</ele><time>2026-05-01T14:08:42.998Z</time></trkpt><trkpt lat="42.34019719249234" lon="14.133748920360743"><ele>55.0</ele><time>2026-05-01T14:08:43.998Z</time></trkpt><trkpt lat="42.34027946865971" lon="14.133779042066578"><ele>55.0</ele><time>2026-05-01T14:08:44.998Z</time></trkpt><trkpt lat="42.340356187122815" lon="14.133808311333453"><ele>55.0</ele><time>2026-05-01T14:08:45.998Z</time></trkpt><trkpt lat="42.340458832548585" lon="14.133878512606344"><ele>55.0</ele><time>2026-05-01T14:08:47.999Z</time></trkpt><trkpt lat="42.34052871895326" lon="14.133986730997105"><ele>55.0</ele><time>2026-05-01T14:08:49.999Z</time></trkpt><trkpt lat="42.34060590412761" lon="14.13402462535227"><ele>55.0</ele><time>2026-05-01T14:08:51.999Z</time></trkpt><trkpt lat="42.34068726061262" lon="14.133960079572544"><ele>54.666666666666664</ele><time>2026-05-01T14:08:53.999Z</time></trkpt><trkpt lat="42.340726140102696" lon="14.133836752918677"><ele>54.33333333333333</ele><time>2026-05-01T14:08:55.999Z</time></trkpt><trkpt lat="42.340682005032114" lon="14.133748100575955"><ele>54.0</ele><time>2026-05-01T14:08:56.999Z</time></trkpt><trkpt lat="42.34064628405952" lon="14.133669070001655"><ele>53.66666666666667</ele><time>2026-05-01T14:08:57.999Z</time></trkpt><trkpt lat="42.34063415929846" lon="14.133582228653253"><ele>53.333333333333336</ele><time>2026-05-01T14:08:58.999Z</time></trkpt><trkpt lat="42.340648895332336" lon="14.133481154648154"><ele>53.0</ele><time>2026-05-01T14:08:59.999Z</time></trkpt><trkpt lat="42.340714945241935" lon="14.133404676644671"><ele>53.0</ele><time>2026-05-01T14:09:00.999Z</time></trkpt><trkpt lat="42.34076357812928" lon="14.133302283908844"><ele>53.0</ele><time>2026-05-01T14:09:01.999Z</time></trkpt><trkpt lat="42.34082340080047" lon="14.133195161013253"><ele>53.0</ele><time>2026-05-01T14:09:02.999Z</time></trkpt><trkpt lat="42.340886086943904" lon="14.133082367659151"><ele>53.0</ele><time>2026-05-01T14:09:03.999Z</time></trkpt><trkpt lat="42.34096320689932" lon="14.132946103913724"><ele>53.0</ele><time>2026-05-01T14:09:04.999Z</time></trkpt><trkpt lat="42.341054577997554" lon="14.132785141847545"><ele>52.5</ele><time>2026-05-01T14:09:05.999Z</time></trkpt><trkpt lat="42.34114289799894" lon="14.13261803432745"><ele>52.0</ele><time>2026-05-01T14:09:06.999Z</time></trkpt><trkpt lat="42.341249450816704" lon="14.132476960005489"><ele>51.5</ele><time>2026-05-01T14:09:07.999Z</time></trkpt><trkpt lat="42.34134607657197" lon="14.132328289384139"><ele>51.0</ele><time>2026-05-01T14:09:08.999Z</time></trkpt><trkpt lat="42.34143779938996" lon="14.13217525416223"><ele>50.0</ele><time>2026-05-01T14:09:09.999Z</time></trkpt><trkpt lat="42.341512944493964" lon="14.132014634873713"><ele>49.0</ele><time>2026-05-01T14:09:10.999Z</time></trkpt><trkpt lat="42.34157712451319" lon="14.131818983789989"><ele>48.0</ele><time>2026-05-01T14:09:11.999Z</time></trkpt><trkpt lat="42.3416327736778" lon="14.131616340830282"><ele>47.75</ele><time>2026-05-01T14:09:12.999Z</time></trkpt><trkpt lat="42.34167395097472" lon="14.131425188621847"><ele>47.5</ele><time>2026-05-01T14:09:13.999Z</time></trkpt><trkpt lat="42.341728574589624" lon="14.131295720377889"><ele>47.25</ele><time>2026-05-01T14:09:14.999Z</time></trkpt><trkpt lat="42.34183399327084" lon="14.131205110291946"><ele>47.0</ele><time>2026-05-01T14:09:15.999Z</time></trkpt><trkpt lat="42.341887079902385" lon="14.13106142897719"><ele>47.0</ele><time>2026-05-01T14:09:16.999Z</time></trkpt><trkpt lat="42.341880086752916" lon="14.130847893717164"><ele>47.0</ele><time>2026-05-01T14:09:17.999Z</time></trkpt><trkpt lat="42.34191422042713" lon="14.130635179550465"><ele>47.0</ele><time>2026-05-01T14:09:18.999Z</time></trkpt><trkpt lat="42.34195324591847" lon="14.130426736753922"><ele>46.8</ele><time>2026-05-01T14:09:19.999Z</time></trkpt><trkpt lat="42.34201170468877" lon="14.130263780497808"><ele>46.6</ele><time>2026-05-01T14:09:20.999Z</time></trkpt><trkpt lat="42.342037507558096" lon="14.130115234656252"><ele>46.4</ele><time>2026-05-01T14:09:21.999Z</time></trkpt><trkpt lat="42.342039176870244" lon="14.12997858009682"><ele>46.199999999999996</ele><time>2026-05-01T14:09:22.999Z</time></trkpt><trkpt lat="42.34204492634727" lon="14.12984700747542"><ele>46.0</ele><time>2026-05-01T14:09:23.999Z</time></trkpt><trkpt lat="42.342069311786304" lon="14.129728233411589"><ele>45.599999999999994</ele><time>2026-05-01T14:09:24.999Z</time></trkpt><trkpt lat="42.34215260808802" lon="14.129641713240293"><ele>45.2</ele><time>2026-05-01T14:09:25.999Z</time></trkpt><trkpt lat="42.3421977943702" lon="14.1295296916283"><ele>44.8</ele><time>2026-05-01T14:09:26.999Z</time></trkpt><trkpt lat="42.34222617089622" lon="14.129412685619897"><ele>44.400000000000006</ele><time>2026-05-01T14:09:27.999Z</time></trkpt><trkpt lat="42.34219037753502" lon="14.129285213471304"><ele>44.0</ele><time>2026-05-01T14:09:28.999Z</time></trkpt><trkpt lat="42.34210945075656" lon="14.129208926809525"><ele>44.0</ele><time>2026-05-01T14:09:29.999Z</time></trkpt><trkpt lat="42.34202463510134" lon="14.129142551463577"><ele>44.0</ele><time>2026-05-01T14:09:30.999Z</time></trkpt><trkpt lat="42.341931011132566" lon="14.129073925133266"><ele>44.0</ele><time>2026-05-01T14:09:31.999Z</time></trkpt><trkpt lat="42.34187068974194" lon="14.128966705127386"><ele>44.0</ele><time>2026-05-01T14:09:32.999Z</time></trkpt><trkpt lat="42.34184266135176" lon="14.128843137481843"><ele>44.0</ele><time>2026-05-01T14:09:33.999Z</time></trkpt><trkpt lat="42.34183645954522" lon="14.128700355694896"><ele>42.75</ele><time>2026-05-01T14:09:34.999Z</time></trkpt><trkpt lat="42.34180803459638" lon="14.128562617633772"><ele>41.5</ele><time>2026-05-01T14:09:35.999Z</time></trkpt><trkpt lat="42.34177413103459" lon="14.128392316519301"><ele>40.25</ele><time>2026-05-01T14:09:36.999Z</time></trkpt><trkpt lat="42.341736577936864" lon="14.128185542240967"><ele>39.0</ele><time>2026-05-01T14:09:37.999Z</time></trkpt><trkpt lat="42.34168942628849" lon="14.127960726366931"><ele>38.333333333333336</ele><time>2026-05-01T14:09:38.999Z</time></trkpt><trkpt lat="42.341653048707315" lon="14.127696989211918"><ele>37.66666666666667</ele><time>2026-05-01T14:09:39.999Z</time></trkpt><trkpt lat="42.34160784592681" lon="14.127429236949226"><ele>37.0</ele><time>2026-05-01T14:09:40.999Z</time></trkpt><trkpt lat="42.341557151602316" lon="14.127138102658321"><ele>36.333333333333336</ele><time>2026-05-01T14:09:41.999Z</time></trkpt><trkpt lat="42.341503589988925" lon="14.12683638020228"><ele>35.666666666666664</ele><time>2026-05-01T14:09:42.999Z</time></trkpt><trkpt lat="42.34144804588523" lon="14.126554802989673"><ele>35.0</ele><time>2026-05-01T14:09:43.999Z</time></trkpt><trkpt lat="42.3414002393937" lon="14.12626223478072"><ele>35.0</ele><time>2026-05-01T14:09:44.999Z</time></trkpt><trkpt lat="42.34135114358191" lon="14.125971365956786"><ele>35.0</ele><time>2026-05-01T14:09:45.999Z</time></trkpt><trkpt lat="42.34130135564579" lon="14.125681042533513"><ele>35.0</ele><time>2026-05-01T14:09:46.999Z</time></trkpt><trkpt lat="42.34125319608585" lon="14.125379660592417"><ele>35.0</ele><time>2026-05-01T14:09:47.999Z</time></trkpt><trkpt lat="42.34120153304904" lon="14.125083202324369"><ele>35.0</ele><time>2026-05-01T14:09:48.999Z</time></trkpt><trkpt lat="42.341151142653025" lon="14.124777198834272"><ele>35.0</ele><time>2026-05-01T14:09:49.999Z</time></trkpt><trkpt lat="42.341098958228116" lon="14.124464705440406"><ele>35.0</ele><time>2026-05-01T14:09:50.999Z</time></trkpt><trkpt lat="42.34105149568423" lon="14.12416338179826"><ele>35.33333333333333</ele><time>2026-05-01T14:09:51.999Z</time></trkpt><trkpt lat="42.341004993084844" lon="14.123897055832437"><ele>35.666666666666664</ele><time>2026-05-01T14:09:52.999Z</time></trkpt><trkpt lat="42.340961001394106" lon="14.123639281794311"><ele>36.0</ele><time>2026-05-01T14:09:53.999Z</time></trkpt><trkpt lat="42.34092442007975" lon="14.123396280926821"><ele>35.666666666666664</ele><time>2026-05-01T14:09:54.999Z</time></trkpt><trkpt lat="42.34088800010164" lon="14.12316674103975"><ele>35.33333333333333</ele><time>2026-05-01T14:09:55.999Z</time></trkpt><trkpt lat="42.34085088131287" lon="14.122953175413393"><ele>35.0</ele><time>2026-05-01T14:09:56.999Z</time></trkpt><trkpt lat="42.34082004078202" lon="14.122762828039425"><ele>35.0</ele><time>2026-05-01T14:09:57.999Z</time></trkpt><trkpt lat="42.34079347360565" lon="14.122579093997862"><ele>35.0</ele><time>2026-05-01T14:09:58.999Z</time></trkpt><trkpt lat="42.34078616163153" lon="14.122390555817491"><ele>35.0</ele><time>2026-05-01T14:09:59.999Z</time></trkpt><trkpt lat="42.340791294884866" lon="14.122191019352924"><ele>35.0</ele><time>2026-05-01T14:10:00.999Z</time></trkpt><trkpt lat="42.34081061346342" lon="14.121999876905477"><ele>34.8</ele><time>2026-05-01T14:10:01.999Z</time></trkpt><trkpt lat="42.34084318211469" lon="14.121855290472489"><ele>34.6</ele><time>2026-05-01T14:10:02.999Z</time></trkpt><trkpt lat="42.34088528969248" lon="14.121750072758378"><ele>34.4</ele><time>2026-05-01T14:10:03.999Z</time></trkpt><trkpt lat="42.34093877131507" lon="14.121669332605261"><ele>34.2</ele><time>2026-05-01T14:10:04.999Z</time></trkpt><trkpt lat="42.34099831904199" lon="14.121594689748608"><ele>34.0</ele><time>2026-05-01T14:10:05.999Z</time></trkpt><trkpt lat="42.341110345777" lon="14.121557937903225"><ele>33.2</ele><time>2026-05-01T14:10:06.999Z</time></trkpt><trkpt lat="42.34118601181393" lon="14.121475546113833"><ele>32.4</ele><time>2026-05-01T14:10:07.999Z</time></trkpt><trkpt lat="42.341228866344416" lon="14.121349610797418"><ele>31.6</ele><time>2026-05-01T14:10:08.999Z</time></trkpt><trkpt lat="42.34120767409526" lon="14.121187262691777"><ele>30.8</ele><time>2026-05-01T14:10:09.999Z</time></trkpt><trkpt lat="42.34121531286103" lon="14.12102438567878"><ele>30.0</ele><time>2026-05-01T14:10:10.999Z</time></trkpt><trkpt lat="42.341258365560115" lon="14.120883589328658"><ele>30.0</ele><time>2026-05-01T14:10:11.999Z</time></trkpt><trkpt lat="42.341335015935144" lon="14.120754625229234"><ele>30.0</ele><time>2026-05-01T14:10:12.999Z</time></trkpt><trkpt lat="42.34142412236213" lon="14.120604857034603"><ele>30.0</ele><time>2026-05-01T14:10:13.999Z</time></trkpt><trkpt lat="42.34151806602399" lon="14.120433722211382"><ele>30.0</ele><time>2026-05-01T14:10:14.999Z</time></trkpt><trkpt lat="42.341627391617365" lon="14.120240269508527"><ele>30.333333333333336</ele><time>2026-05-01T14:10:15.999Z</time></trkpt><trkpt lat="42.341745379216654" lon="14.120035807779143"><ele>30.666666666666668</ele><time>2026-05-01T14:10:16.999Z</time></trkpt><trkpt lat="42.34185697438969" lon="14.1198363844569"><ele>31.0</ele><time>2026-05-01T14:10:17.999Z</time></trkpt><trkpt lat="42.34197510099838" lon="14.119617820950412"><ele>31.0</ele><time>2026-05-01T14:10:18.999Z</time></trkpt><trkpt lat="42.342093837224134" lon="14.119403487464277"><ele>31.0</ele><time>2026-05-01T14:10:19.999Z</time></trkpt><trkpt lat="42.34220914039216" lon="14.119192276706736"><ele>31.0</ele><time>2026-05-01T14:10:20.999Z</time></trkpt><trkpt lat="42.34231412759099" lon="14.11898183628502"><ele>31.666666666666668</ele><time>2026-05-01T14:10:21.999Z</time></trkpt><trkpt lat="42.34241098355434" lon="14.118762165193832"><ele>32.333333333333336</ele><time>2026-05-01T14:10:22.999Z</time></trkpt><trkpt lat="42.342483214798854" lon="14.11852616327473"><ele>33.0</ele><time>2026-05-01T14:10:23.999Z</time></trkpt><trkpt lat="42.34253684849149" lon="14.118281869137217"><ele>35.0</ele><time>2026-05-01T14:10:24.999Z</time></trkpt><trkpt lat="42.342578568286214" lon="14.118039395402725"><ele>37.0</ele><time>2026-05-01T14:10:25.999Z</time></trkpt><trkpt lat="42.342638713825195" lon="14.117783120007394"><ele>39.0</ele><time>2026-05-01T14:10:26.999Z</time></trkpt><trkpt lat="42.34268736298395" lon="14.117529347938438"><ele>40.2</ele><time>2026-05-01T14:10:27.999Z</time></trkpt><trkpt lat="42.3427265634529" lon="14.11732282685844"><ele>41.4</ele><time>2026-05-01T14:10:28.999Z</time></trkpt><trkpt lat="42.34275088874939" lon="14.117193608359374"><ele>42.6</ele><time>2026-05-01T14:10:29.999Z</time></trkpt><trkpt lat="42.34276833639755" lon="14.117066729037003"><ele>43.8</ele><time>2026-05-01T14:10:31.999Z</time></trkpt><trkpt lat="42.34278417716311" lon="14.116969967250228"><ele>45.0</ele><time>2026-05-01T14:10:35.998Z</time></trkpt><trkpt lat="42.34281113965973" lon="14.116881395384658"><ele>45.0</ele><time>2026-05-01T14:10:36.998Z</time></trkpt><trkpt lat="42.34283435346707" lon="14.116709989468974"><ele>45.0</ele><time>2026-05-01T14:10:38.998Z</time></trkpt><trkpt lat="42.34285693809193" lon="14.116547926551297"><ele>45.0</ele><time>2026-05-01T14:10:39.998Z</time></trkpt><trkpt lat="42.34289615599842" lon="14.11640874381402"><ele>45.0</ele><time>2026-05-01T14:10:40.998Z</time></trkpt><trkpt lat="42.34292310625259" lon="14.116221209071929"><ele>45.333333333333336</ele><time>2026-05-01T14:10:41.998Z</time></trkpt><trkpt lat="42.34296090821102" lon="14.116002974603125"><ele>45.66666666666667</ele><time>2026-05-01T14:10:42.998Z</time></trkpt><trkpt lat="42.34299561562694" lon="14.11579925689709"><ele>46.0</ele><time>2026-05-01T14:10:43.998Z</time></trkpt><trkpt lat="42.34303640629908" lon="14.115579942002917"><ele>46.66666666666667</ele><time>2026-05-01T14:10:44.998Z</time></trkpt><trkpt lat="42.34307132459077" lon="14.115374703854204"><ele>47.333333333333336</ele><time>2026-05-01T14:10:45.998Z</time></trkpt><trkpt lat="42.34311022844498" lon="14.115153459300368"><ele>48.0</ele><time>2026-05-01T14:10:46.998Z</time></trkpt><trkpt lat="42.34314124435641" lon="14.114899913726555"><ele>48.0</ele><time>2026-05-01T14:10:47.998Z</time></trkpt><trkpt lat="42.34317633958398" lon="14.114645949277373"><ele>48.0</ele><time>2026-05-01T14:10:48.998Z</time></trkpt><trkpt lat="42.34321330054222" lon="14.114404298077496"><ele>48.0</ele><time>2026-05-01T14:10:49.998Z</time></trkpt><trkpt lat="42.34324970310575" lon="14.114151661750935"><ele>47.666666666666664</ele><time>2026-05-01T14:10:50.998Z</time></trkpt><trkpt lat="42.34328162114092" lon="14.113913027018798"><ele>47.33333333333333</ele><time>2026-05-01T14:10:51.998Z</time></trkpt><trkpt lat="42.34330440938819" lon="14.11368487104098"><ele>47.0</ele><time>2026-05-01T14:10:52.998Z</time></trkpt><trkpt lat="42.34333285440862" lon="14.113456606521268"><ele>47.0</ele><time>2026-05-01T14:10:53.999Z</time></trkpt><trkpt lat="42.34336328605545" lon="14.113224007181957"><ele>47.0</ele><time>2026-05-01T14:10:54.999Z</time></trkpt><trkpt lat="42.34339425968312" lon="14.112979859065806"><ele>47.0</ele><time>2026-05-01T14:10:55.999Z</time></trkpt><trkpt lat="42.343425528791485" lon="14.112730672029784"><ele>47.0</ele><time>2026-05-01T14:10:56.999Z</time></trkpt><trkpt lat="42.34345393430365" lon="14.11249756734298"><ele>47.0</ele><time>2026-05-01T14:10:57.999Z</time></trkpt><trkpt lat="42.34348166538663" lon="14.112280116449202"><ele>47.0</ele><time>2026-05-01T14:10:58.999Z</time></trkpt><trkpt lat="42.343505588694725" lon="14.11209452081688"><ele>47.0</ele><time>2026-05-01T14:10:59.999Z</time></trkpt><trkpt lat="42.34352887935865" lon="14.11192479659185"><ele>47.0</ele><time>2026-05-01T14:11:00.999Z</time></trkpt><trkpt lat="42.34354970011816" lon="14.111786034640613"><ele>47.0</ele><time>2026-05-01T14:11:01.999Z</time></trkpt><trkpt lat="42.34356624724058" lon="14.111667466388253"><ele>47.0</ele><time>2026-05-01T14:11:02.999Z</time></trkpt><trkpt lat="42.34358153146814" lon="14.1115599172135"><ele>47.0</ele><time>2026-05-01T14:11:03.999Z</time></trkpt><trkpt lat="42.343619339335255" lon="14.111465126772098"><ele>47.2</ele><time>2026-05-01T14:11:04.999Z</time></trkpt><trkpt lat="42.34368614069879" lon="14.111416542391202"><ele>47.400000000000006</ele><time>2026-05-01T14:11:05.999Z</time></trkpt><trkpt lat="42.34377055531881" lon="14.111434285027814"><ele>47.599999999999994</ele><time>2026-05-01T14:11:06.999Z</time></trkpt><trkpt lat="42.343862771896234" lon="14.111499920244496"><ele>47.8</ele><time>2026-05-01T14:11:07.999Z</time></trkpt><trkpt lat="42.343973465238925" lon="14.111597380802298"><ele>48.0</ele><time>2026-05-01T14:11:08.999Z</time></trkpt><trkpt lat="42.34409976413761" lon="14.111700311925913"><ele>48.0</ele><time>2026-05-01T14:11:09.999Z</time></trkpt><trkpt lat="42.344237125800035" lon="14.111782542044265"><ele>48.0</ele><time>2026-05-01T14:11:10.999Z</time></trkpt><trkpt lat="42.344387565172475" lon="14.111864038585633"><ele>48.0</ele><time>2026-05-01T14:11:11.999Z</time></trkpt><trkpt lat="42.344520879064596" lon="14.111972096437434"><ele>48.0</ele><time>2026-05-01T14:11:12.999Z</time></trkpt><trkpt lat="42.3446700753969" lon="14.112070691968357"><ele>48.0</ele><time>2026-05-01T14:11:13.999Z</time></trkpt><trkpt lat="42.34484009410775" lon="14.112183047835417"><ele>48.0</ele><time>2026-05-01T14:11:14.999Z</time></trkpt><trkpt lat="42.345021385561836" lon="14.11227851111118"><ele>47.333333333333336</ele><time>2026-05-01T14:11:15.999Z</time></trkpt><trkpt lat="42.3451728999159" lon="14.11237528068096"><ele>46.66666666666667</ele><time>2026-05-01T14:11:16.999Z</time></trkpt><trkpt lat="42.34534552603741" lon="14.1124568123014"><ele>46.0</ele><time>2026-05-01T14:11:17.999Z</time></trkpt><trkpt lat="42.34554593936568" lon="14.1125138746377"><ele>46.0</ele><time>2026-05-01T14:11:18.999Z</time></trkpt><trkpt lat="42.345759239937564" lon="14.11256940662209"><ele>46.0</ele><time>2026-05-01T14:11:19.999Z</time></trkpt><trkpt lat="42.34596303218342" lon="14.112627353637514"><ele>46.0</ele><time>2026-05-01T14:11:20.999Z</time></trkpt><trkpt lat="42.34614355070689" lon="14.11268804642901"><ele>46.0</ele><time>2026-05-01T14:11:21.999Z</time></trkpt><trkpt lat="42.34633035595073" lon="14.112762619492301"><ele>46.0</ele><time>2026-05-01T14:11:22.999Z</time></trkpt><trkpt lat="42.3465281693405" lon="14.11285111732187"><ele>46.0</ele><time>2026-05-01T14:11:23.999Z</time></trkpt><trkpt lat="42.346728224360106" lon="14.11294367473178"><ele>46.0</ele><time>2026-05-01T14:11:24.999Z</time></trkpt><trkpt lat="42.34691629726218" lon="14.113041031005855"><ele>46.0</ele><time>2026-05-01T14:11:25.999Z</time></trkpt><trkpt lat="42.34710007992562" lon="14.113137125912273"><ele>46.0</ele><time>2026-05-01T14:11:26.999Z</time></trkpt><trkpt lat="42.34728472620848" lon="14.113228486809989"><ele>45.66666666666667</ele><time>2026-05-01T14:11:27.999Z</time></trkpt><trkpt lat="42.347451214549125" lon="14.113309800151498"><ele>45.333333333333336</ele><time>2026-05-01T14:11:28.999Z</time></trkpt><trkpt lat="42.347614977427206" lon="14.113390690874734"><ele>45.0</ele><time>2026-05-01T14:11:29.999Z</time></trkpt><trkpt lat="42.347768379795305" lon="14.113467947497202"><ele>45.0</ele><time>2026-05-01T14:11:30.999Z</time></trkpt><trkpt lat="42.347908020850916" lon="14.11353981691696"><ele>45.0</ele><time>2026-05-01T14:11:31.999Z</time></trkpt><trkpt lat="42.34803915867414" lon="14.113603788454293"><ele>45.0</ele><time>2026-05-01T14:11:32.999Z</time></trkpt><trkpt lat="42.3481763510421" lon="14.11365844149814"><ele>45.0</ele><time>2026-05-01T14:11:33.999Z</time></trkpt><trkpt lat="42.34830893395115" lon="14.113682031206361"><ele>45.0</ele><time>2026-05-01T14:11:34.999Z</time></trkpt><trkpt lat="42.348436356881066" lon="14.113665429405398"><ele>45.0</ele><time>2026-05-01T14:11:35.999Z</time></trkpt><trkpt lat="42.34857498235035" lon="14.113598970839984"><ele>45.0</ele><time>2026-05-01T14:11:36.999Z</time></trkpt><trkpt lat="42.3487205799182" lon="14.113516353438175"><ele>45.0</ele><time>2026-05-01T14:11:37.999Z</time></trkpt><trkpt lat="42.348879905232344" lon="14.11341469094133"><ele>44.0</ele><time>2026-05-01T14:11:38.999Z</time></trkpt><trkpt lat="42.349044024639056" lon="14.113304071414962"><ele>43.0</ele><time>2026-05-01T14:11:39.999Z</time></trkpt><trkpt lat="42.34921434554494" lon="14.113188846087205"><ele>42.0</ele><time>2026-05-01T14:11:40.999Z</time></trkpt><trkpt lat="42.34936828909263" lon="14.113084984790383"><ele>41.75</ele><time>2026-05-01T14:11:41.999Z</time></trkpt><trkpt lat="42.349504800368365" lon="14.112986909054626"><ele>41.5</ele><time>2026-05-01T14:11:42.999Z</time></trkpt><trkpt lat="42.349627501592074" lon="14.112898055828"><ele>41.25</ele><time>2026-05-01T14:11:43.999Z</time></trkpt><trkpt lat="42.34975138940366" lon="14.112808959103885"><ele>41.0</ele><time>2026-05-01T14:11:44.999Z</time></trkpt><trkpt lat="42.3498902905894" lon="14.112722164582385"><ele>42.0</ele><time>2026-05-01T14:11:45.999Z</time></trkpt><trkpt lat="42.35003717627946" lon="14.112637779754971"><ele>43.0</ele><time>2026-05-01T14:11:46.999Z</time></trkpt><trkpt lat="42.350188716295975" lon="14.112578334874843"><ele>44.0</ele><time>2026-05-01T14:11:47.999Z</time></trkpt><trkpt lat="42.35035082502852" lon="14.112534552238023"><ele>44.0</ele><time>2026-05-01T14:11:48.999Z</time></trkpt><trkpt lat="42.35051981340001" lon="14.112504024572491"><ele>44.0</ele><time>2026-05-01T14:11:49.999Z</time></trkpt><trkpt lat="42.35068187666124" lon="14.112504487133718"><ele>44.0</ele><time>2026-05-01T14:11:50.999Z</time></trkpt><trkpt lat="42.35081846555539" lon="14.112526767068132"><ele>44.0</ele><time>2026-05-01T14:11:51.999Z</time></trkpt><trkpt lat="42.35093976258636" lon="14.112551139940567"><ele>44.0</ele><time>2026-05-01T14:11:52.999Z</time></trkpt><trkpt lat="42.35107032297523" lon="14.112592580959321"><ele>44.0</ele><time>2026-05-01T14:11:53.999Z</time></trkpt><trkpt lat="42.351221634360776" lon="14.112653682994253"><ele>44.0</ele><time>2026-05-01T14:11:54.999Z</time></trkpt><trkpt lat="42.351393317267004" lon="14.112725191834839"><ele>42.666666666666664</ele><time>2026-05-01T14:11:55.999Z</time></trkpt><trkpt lat="42.35156943343724" lon="14.112797527425467"><ele>41.333333333333336</ele><time>2026-05-01T14:11:56.999Z</time></trkpt><trkpt lat="42.351760947834386" lon="14.112869766709677"><ele>40.0</ele><time>2026-05-01T14:11:57.999Z</time></trkpt><trkpt lat="42.351962289576285" lon="14.1129510108399"><ele>40.0</ele><time>2026-05-01T14:11:58.999Z</time></trkpt><trkpt lat="42.352169937612295" lon="14.113036608676829"><ele>40.0</ele><time>2026-05-01T14:11:59.999Z</time></trkpt><trkpt lat="42.35238177883533" lon="14.11312924665194"><ele>40.0</ele><time>2026-05-01T14:12:00.999Z</time></trkpt><trkpt lat="42.35259609958231" lon="14.11322024781799"><ele>38.0</ele><time>2026-05-01T14:12:01.999Z</time></trkpt><trkpt lat="42.35281279117491" lon="14.113306796199089"><ele>36.0</ele><time>2026-05-01T14:12:02.999Z</time></trkpt><trkpt lat="42.35303310464564" lon="14.113393257580949"><ele>35.5</ele><time>2026-05-01T14:12:03.999Z</time></trkpt><trkpt lat="42.353251672005854" lon="14.113478777523907"><ele>35.0</ele><time>2026-05-01T14:12:04.999Z</time></trkpt><trkpt lat="42.353485942925666" lon="14.11358049923448"><ele>35.0</ele><time>2026-05-01T14:12:05.999Z</time></trkpt><trkpt lat="42.35370257560615" lon="14.113660082414825"><ele>35.0</ele><time>2026-05-01T14:12:06.999Z</time></trkpt><trkpt lat="42.35391801354739" lon="14.113755066323854"><ele>35.5</ele><time>2026-05-01T14:12:07.999Z</time></trkpt><trkpt lat="42.35413491405337" lon="14.113849805097898"><ele>36.0</ele><time>2026-05-01T14:12:08.999Z</time></trkpt><trkpt lat="42.35435256686766" lon="14.113932148167118"><ele>36.0</ele><time>2026-05-01T14:12:09.999Z</time></trkpt><trkpt lat="42.35456038472935" lon="14.114012208230832"><ele>36.0</ele><time>2026-05-01T14:12:10.999Z</time></trkpt><trkpt lat="42.3547652339536" lon="14.114094353062587"><ele>36.0</ele><time>2026-05-01T14:12:11.999Z</time></trkpt><trkpt lat="42.35496823280022" lon="14.114177477495495"><ele>36.333333333333336</ele><time>2026-05-01T14:12:12.999Z</time></trkpt><trkpt lat="42.3551618631653" lon="14.11425565360448"><ele>36.66666666666667</ele><time>2026-05-01T14:12:13.999Z</time></trkpt><trkpt lat="42.35534115079899" lon="14.114329953703306"><ele>37.0</ele><time>2026-05-01T14:12:14.999Z</time></trkpt><trkpt lat="42.355522952195415" lon="14.114397348297928"><ele>40.333333333333336</ele><time>2026-05-01T14:12:15.999Z</time></trkpt><trkpt lat="42.35570319540383" lon="14.114461202996369"><ele>43.666666666666664</ele><time>2026-05-01T14:12:16.999Z</time></trkpt><trkpt lat="42.35589412237833" lon="14.114536420006853"><ele>47.0</ele><time>2026-05-01T14:12:17.999Z</time></trkpt><trkpt lat="42.356097120840055" lon="14.114614706001058"><ele>47.0</ele><time>2026-05-01T14:12:18.999Z</time></trkpt><trkpt lat="42.356314265843544" lon="14.11469294452685"><ele>47.0</ele><time>2026-05-01T14:12:19.999Z</time></trkpt><trkpt lat="42.35653571409751" lon="14.114804547111559"><ele>48.0</ele><time>2026-05-01T14:12:20.999Z</time></trkpt><trkpt lat="42.35676469265845" lon="14.114878912074042"><ele>49.0</ele><time>2026-05-01T14:12:21.999Z</time></trkpt><trkpt lat="42.35699204972484" lon="14.114979525002903"><ele>45.0</ele><time>2026-05-01T14:12:22.999Z</time></trkpt><trkpt lat="42.3572171961893" lon="14.115077552875114"><ele>41.0</ele><time>2026-05-01T14:12:23.999Z</time></trkpt><trkpt lat="42.35744569064486" lon="14.11517279810886"><ele>41.0</ele><time>2026-05-01T14:12:24.999Z</time></trkpt><trkpt lat="42.3576706493216" lon="14.115269600074493"><ele>41.0</ele><time>2026-05-01T14:12:25.999Z</time></trkpt><trkpt lat="42.35789918733587" lon="14.115384273417355"><ele>41.0</ele><time>2026-05-01T14:12:26.999Z</time></trkpt><trkpt lat="42.35811094099783" lon="14.115433592768884"><ele>41.0</ele><time>2026-05-01T14:12:27.999Z</time></trkpt><trkpt lat="42.35833302650718" lon="14.11552333058285"><ele>41.0</ele><time>2026-05-01T14:12:28.999Z</time></trkpt><trkpt lat="42.35855489523911" lon="14.11560829483596"><ele>41.0</ele><time>2026-05-01T14:12:29.999Z</time></trkpt><trkpt lat="42.35877104021477" lon="14.11570103582449"><ele>41.0</ele><time>2026-05-01T14:12:30.999Z</time></trkpt><trkpt lat="42.35897587724455" lon="14.115794356074055"><ele>41.0</ele><time>2026-05-01T14:12:31.999Z</time></trkpt><trkpt lat="42.35917594931403" lon="14.115874577173779"><ele>39.666666666666664</ele><time>2026-05-01T14:12:32.999Z</time></trkpt><trkpt lat="42.359385135407614" lon="14.115957865913893"><ele>38.333333333333336</ele><time>2026-05-01T14:12:33.999Z</time></trkpt><trkpt lat="42.359601754941984" lon="14.116051771824798"><ele>37.0</ele><time>2026-05-01T14:12:34.999Z</time></trkpt><trkpt lat="42.35981843561201" lon="14.116150050626855"><ele>37.0</ele><time>2026-05-01T14:12:35.999Z</time></trkpt><trkpt lat="42.36004053721252" lon="14.116241018968566"><ele>37.0</ele><time>2026-05-01T14:12:36.999Z</time></trkpt><trkpt lat="42.36025529180862" lon="14.116338815469037"><ele>37.0</ele><time>2026-05-01T14:12:37.999Z</time></trkpt><trkpt lat="42.3604684458678" lon="14.116437293635526"><ele>37.0</ele><time>2026-05-01T14:12:38.999Z</time></trkpt><trkpt lat="42.3606823415952" lon="14.116535234311195"><ele>33.5</ele><time>2026-05-01T14:12:39.999Z</time></trkpt><trkpt lat="42.36089665162035" lon="14.116636385948661"><ele>30.0</ele><time>2026-05-01T14:12:40.999Z</time></trkpt><trkpt lat="42.361114888013006" lon="14.116735956652615"><ele>30.0</ele><time>2026-05-01T14:12:41.999Z</time></trkpt><trkpt lat="42.361332064625095" lon="14.116835096806806"><ele>30.0</ele><time>2026-05-01T14:12:42.999Z</time></trkpt><trkpt lat="42.361552015721564" lon="14.116930624735067"><ele>33.0</ele><time>2026-05-01T14:12:43.999Z</time></trkpt><trkpt lat="42.361775434270456" lon="14.117030003691665"><ele>36.0</ele><time>2026-05-01T14:12:44.999Z</time></trkpt><trkpt lat="42.3619990809444" lon="14.117128263371145"><ele>39.0</ele><time>2026-05-01T14:12:45.999Z</time></trkpt><trkpt lat="42.36220803346795" lon="14.117221764117893"><ele>42.0</ele><time>2026-05-01T14:12:46.999Z</time></trkpt><trkpt lat="42.36240485101236" lon="14.117307902286239"><ele>45.0</ele><time>2026-05-01T14:12:47.999Z</time></trkpt><trkpt lat="42.362591201654276" lon="14.117378692910831"><ele>40.333333333333336</ele><time>2026-05-01T14:12:48.999Z</time></trkpt><trkpt lat="42.36278729270105" lon="14.117460185734938"><ele>35.66666666666667</ele><time>2026-05-01T14:12:49.999Z</time></trkpt><trkpt lat="42.3629836424374" lon="14.117479608774662"><ele>31.0</ele><time>2026-05-01T14:12:50.998Z</time></trkpt><trkpt lat="42.36320469597905" lon="14.117499353058752"><ele>31.0</ele><time>2026-05-01T14:12:51.998Z</time></trkpt><trkpt lat="42.36343217471919" lon="14.117494738916504"><ele>31.0</ele><time>2026-05-01T14:12:52.998Z</time></trkpt><trkpt lat="42.36366638169919" lon="14.117487939826827"><ele>31.666666666666668</ele><time>2026-05-01T14:12:53.998Z</time></trkpt><trkpt lat="42.36387497318562" lon="14.117485154807836"><ele>32.333333333333336</ele><time>2026-05-01T14:12:54.998Z</time></trkpt><trkpt lat="42.36406457282278" lon="14.117491344775663"><ele>33.0</ele><time>2026-05-01T14:12:55.998Z</time></trkpt><trkpt lat="42.3642493342271" lon="14.11751763909754"><ele>33.0</ele><time>2026-05-01T14:12:56.998Z</time></trkpt><trkpt lat="42.3644417071738" lon="14.117567861342646"><ele>33.0</ele><time>2026-05-01T14:12:57.998Z</time></trkpt><trkpt lat="42.36462487293907" lon="14.117654810054562"><ele>33.0</ele><time>2026-05-01T14:12:58.999Z</time></trkpt><trkpt lat="42.364808959303886" lon="14.117782462384511"><ele>32.666666666666664</ele><time>2026-05-01T14:12:59.999Z</time></trkpt><trkpt lat="42.36499830532617" lon="14.117917960481684"><ele>32.33333333333333</ele><time>2026-05-01T14:13:00.999Z</time></trkpt><trkpt lat="42.365200794551626" lon="14.1180617697522"><ele>32.0</ele><time>2026-05-01T14:13:01.999Z</time></trkpt><trkpt lat="42.3654123040213" lon="14.118206127417123"><ele>30.0</ele><time>2026-05-01T14:13:02.999Z</time></trkpt><trkpt lat="42.36562718480564" lon="14.11835164545138"><ele>28.0</ele><time>2026-05-01T14:13:03.999Z</time></trkpt><trkpt lat="42.36583423035724" lon="14.118502752813383"><ele>28.0</ele><time>2026-05-01T14:13:04.999Z</time></trkpt><trkpt lat="42.36603708151434" lon="14.118648017112923"><ele>28.0</ele><time>2026-05-01T14:13:05.999Z</time></trkpt><trkpt lat="42.36624602861274" lon="14.118788881609003"><ele>28.0</ele><time>2026-05-01T14:13:06.999Z</time></trkpt><trkpt lat="42.366457346369884" lon="14.118937794848689"><ele>28.0</ele><time>2026-05-01T14:13:07.999Z</time></trkpt><trkpt lat="42.366673060544855" lon="14.119092886004198"><ele>27.5</ele><time>2026-05-01T14:13:09Z</time></trkpt><trkpt lat="42.36689637581629" lon="14.119247030630653"><ele>27.0</ele><time>2026-05-01T14:13:10Z</time></trkpt><trkpt lat="42.36712733669236" lon="14.119406474436554"><ele>27.5</ele><time>2026-05-01T14:13:11Z</time></trkpt><trkpt lat="42.367361826116934" lon="14.119567006543276"><ele>28.0</ele><time>2026-05-01T14:13:12Z</time></trkpt><trkpt lat="42.36758288168467" lon="14.119722371372829"><ele>28.0</ele><time>2026-05-01T14:13:13Z</time></trkpt><trkpt lat="42.367787341001566" lon="14.119867697534247"><ele>28.0</ele><time>2026-05-01T14:13:14Z</time></trkpt><trkpt lat="42.36797469603692" lon="14.119999083344002"><ele>28.0</ele><time>2026-05-01T14:13:15Z</time></trkpt><trkpt lat="42.368152074448325" lon="14.120108835278304"><ele>28.333333333333336</ele><time>2026-05-01T14:13:16Z</time></trkpt><trkpt lat="42.368326616860585" lon="14.120209068350258"><ele>28.666666666666664</ele><time>2026-05-01T14:13:17Z</time></trkpt><trkpt lat="42.36851533581458" lon="14.120285270717583"><ele>29.0</ele><time>2026-05-01T14:13:17.999Z</time></trkpt><trkpt lat="42.368721516738304" lon="14.120332562004087"><ele>33.0</ele><time>2026-05-01T14:13:18.999Z</time></trkpt><trkpt lat="42.368943921758735" lon="14.12035771290086"><ele>37.0</ele><time>2026-05-01T14:13:19.999Z</time></trkpt><trkpt lat="42.3691753209257" lon="14.120369488123055"><ele>37.0</ele><time>2026-05-01T14:13:20.999Z</time></trkpt><trkpt lat="42.36940741805015" lon="14.120383915582387"><ele>37.0</ele><time>2026-05-01T14:13:21.999Z</time></trkpt><trkpt lat="42.36963450085378" lon="14.120410401084762"><ele>37.0</ele><time>2026-05-01T14:13:22.999Z</time></trkpt><trkpt lat="42.36985584031937" lon="14.120432930547455"><ele>37.0</ele><time>2026-05-01T14:13:23.999Z</time></trkpt><trkpt lat="42.370076634272905" lon="14.120470987851869"><ele>37.0</ele><time>2026-05-01T14:13:24.999Z</time></trkpt><trkpt lat="42.370295439517804" lon="14.120496513256212"><ele>37.0</ele><time>2026-05-01T14:13:25.999Z</time></trkpt><trkpt lat="42.370500618892216" lon="14.120526382487531"><ele>37.0</ele><time>2026-05-01T14:13:26.999Z</time></trkpt><trkpt lat="42.370705147035565" lon="14.12056297585839"><ele>37.0</ele><time>2026-05-01T14:13:27.999Z</time></trkpt><trkpt lat="42.37092032194494" lon="14.120621362366442"><ele>37.333333333333336</ele><time>2026-05-01T14:13:28.999Z</time></trkpt><trkpt lat="42.371133539584115" lon="14.120698386172734"><ele>37.666666666666664</ele><time>2026-05-01T14:13:29.999Z</time></trkpt><trkpt lat="42.3713331343273" lon="14.120781485720505"><ele>38.0</ele><time>2026-05-01T14:13:30.999Z</time></trkpt><trkpt lat="42.37150764648432" lon="14.12085438534802"><ele>36.33333333333333</ele><time>2026-05-01T14:13:31.999Z</time></trkpt><trkpt lat="42.371664449565884" lon="14.120925883333697"><ele>34.666666666666664</ele><time>2026-05-01T14:13:32.999Z</time></trkpt><trkpt lat="42.371827445813004" lon="14.121003503004538"><ele>33.0</ele><time>2026-05-01T14:13:33.999Z</time></trkpt><trkpt lat="42.37200065981532" lon="14.12110099105484"><ele>33.0</ele><time>2026-05-01T14:13:34.999Z</time></trkpt><trkpt lat="42.372164458803546" lon="14.121203686725954"><ele>33.0</ele><time>2026-05-01T14:13:35.999Z</time></trkpt><trkpt lat="42.372333294292325" lon="14.12131783408086"><ele>33.0</ele><time>2026-05-01T14:13:36.999Z</time></trkpt><trkpt lat="42.372503895415505" lon="14.121447253109332"><ele>33.333333333333336</ele><time>2026-05-01T14:13:37.999Z</time></trkpt><trkpt lat="42.37267722231437" lon="14.121587442504751"><ele>33.66666666666667</ele><time>2026-05-01T14:13:38.999Z</time></trkpt><trkpt lat="42.37286656896997" lon="14.121737078302061"><ele>34.0</ele><time>2026-05-01T14:13:39.999Z</time></trkpt><trkpt lat="42.373054965146586" lon="14.121885948395947"><ele>36.333333333333336</ele><time>2026-05-01T14:13:40.999Z</time></trkpt><trkpt lat="42.37322932386353" lon="14.122027730725199"><ele>38.666666666666664</ele><time>2026-05-01T14:13:41.999Z</time></trkpt><trkpt lat="42.373388306667806" lon="14.122159063583116"><ele>41.0</ele><time>2026-05-01T14:13:42.999Z</time></trkpt><trkpt lat="42.37353302582777" lon="14.122276163865802"><ele>41.0</ele><time>2026-05-01T14:13:43.999Z</time></trkpt><trkpt lat="42.37367213671106" lon="14.1223885113967"><ele>41.0</ele><time>2026-05-01T14:13:44.999Z</time></trkpt><trkpt lat="42.373803737135496" lon="14.122491411933327"><ele>41.0</ele><time>2026-05-01T14:13:45.999Z</time></trkpt><trkpt lat="42.37394876293861" lon="14.122603878148988"><ele>41.0</ele><time>2026-05-01T14:13:46.999Z</time></trkpt><trkpt lat="42.37410330097787" lon="14.122727807281041"><ele>41.0</ele><time>2026-05-01T14:13:47.999Z</time></trkpt><trkpt lat="42.37427936296298" lon="14.122867857866655"><ele>41.0</ele><time>2026-05-01T14:13:48.999Z</time></trkpt><trkpt lat="42.37445918670556" lon="14.123011525304683"><ele>41.0</ele><time>2026-05-01T14:13:49.999Z</time></trkpt><trkpt lat="42.37464946632549" lon="14.123165278010811"><ele>41.0</ele><time>2026-05-01T14:13:50.999Z</time></trkpt><trkpt lat="42.37484614525241" lon="14.123320032865893"><ele>41.0</ele><time>2026-05-01T14:13:51.999Z</time></trkpt><trkpt lat="42.37504002388937" lon="14.123469409408358"><ele>40.33333333333333</ele><time>2026-05-01T14:13:52.999Z</time></trkpt><trkpt lat="42.37521623813967" lon="14.123605048722203"><ele>39.666666666666664</ele><time>2026-05-01T14:13:53.999Z</time></trkpt><trkpt lat="42.3753732341114" lon="14.12372771300675"><ele>39.0</ele><time>2026-05-01T14:13:54.999Z</time></trkpt><trkpt lat="42.37552926193743" lon="14.123841574205105"><ele>40.333333333333336</ele><time>2026-05-01T14:13:55.999Z</time></trkpt><trkpt lat="42.37567524200973" lon="14.123932821789476"><ele>41.66666666666667</ele><time>2026-05-01T14:13:56.999Z</time></trkpt><trkpt lat="42.37582300000306" lon="14.124006137248228"><ele>43.0</ele><time>2026-05-01T14:13:57.999Z</time></trkpt><trkpt lat="42.375969503739626" lon="14.124053039518994"><ele>41.75</ele><time>2026-05-01T14:13:58.999Z</time></trkpt><trkpt lat="42.37609900177951" lon="14.124086560508154"><ele>40.5</ele><time>2026-05-01T14:13:59.999Z</time></trkpt><trkpt lat="42.37620897657566" lon="14.124124612203113"><ele>39.25</ele><time>2026-05-01T14:14:00.999Z</time></trkpt><trkpt lat="42.376298983179545" lon="14.124195915349908"><ele>38.0</ele><time>2026-05-01T14:14:01.999Z</time></trkpt><trkpt lat="42.376365329200155" lon="14.124318453876114"><ele>37.83333333333333</ele><time>2026-05-01T14:14:02.999Z</time></trkpt><trkpt lat="42.376416859112005" lon="14.124448886339819"><ele>37.666666666666664</ele><time>2026-05-01T14:14:03.999Z</time></trkpt><trkpt lat="42.37646895510712" lon="14.12454121885943"><ele>37.5</ele><time>2026-05-01T14:14:04.999Z</time></trkpt><trkpt lat="42.37653832630193" lon="14.124566812374548"><ele>37.333333333333336</ele><time>2026-05-01T14:14:05.999Z</time></trkpt><trkpt lat="42.37661426914982" lon="14.124533365437403"><ele>37.16666666666667</ele><time>2026-05-01T14:14:06.999Z</time></trkpt><trkpt lat="42.376677728318896" lon="14.12444270988131"><ele>37.0</ele><time>2026-05-01T14:14:07.999Z</time></trkpt><trkpt lat="42.376712502359396" lon="14.124322215261357"><ele>37.0</ele><time>2026-05-01T14:14:08.999Z</time></trkpt><trkpt lat="42.37671478338536" lon="14.124161471626905"><ele>37.0</ele><time>2026-05-01T14:14:09.999Z</time></trkpt><trkpt lat="42.376855490692876" lon="14.124072562155279"><ele>37.0</ele><time>2026-05-01T14:14:10.999Z</time></trkpt><trkpt lat="42.376949210454825" lon="14.123928354707868"><ele>37.0</ele><time>2026-05-01T14:14:11.999Z</time></trkpt><trkpt lat="42.377037790219674" lon="14.123744981638152"><ele>38.75</ele><time>2026-05-01T14:14:12.999Z</time></trkpt><trkpt lat="42.37713744264708" lon="14.123585640975694"><ele>40.5</ele><time>2026-05-01T14:14:13.999Z</time></trkpt><trkpt lat="42.37724442914533" lon="14.123461919418604"><ele>42.25</ele><time>2026-05-01T14:14:14.999Z</time></trkpt><trkpt lat="42.37737256165808" lon="14.123396262455357"><ele>44.0</ele><time>2026-05-01T14:14:15.999Z</time></trkpt><trkpt lat="42.377517338944884" lon="14.123388015822977"><ele>44.666666666666664</ele><time>2026-05-01T14:14:16.999Z</time></trkpt><trkpt lat="42.37766476150832" lon="14.1234106304673"><ele>45.333333333333336</ele><time>2026-05-01T14:14:17.999Z</time></trkpt><trkpt lat="42.37783994837697" lon="14.1234466574801"><ele>46.0</ele><time>2026-05-01T14:14:18.999Z</time></trkpt><trkpt lat="42.37803090218716" lon="14.123484394409578"><ele>49.0</ele><time>2026-05-01T14:14:19.999Z</time></trkpt><trkpt lat="42.37821339468758" lon="14.123508788490398"><ele>52.0</ele><time>2026-05-01T14:14:20.999Z</time></trkpt><trkpt lat="42.37840921172246" lon="14.123537551436295"><ele>55.0</ele><time>2026-05-01T14:14:21.999Z</time></trkpt><trkpt lat="42.37861104829353" lon="14.123572870988319"><ele>55.0</ele><time>2026-05-01T14:14:22.999Z</time></trkpt><trkpt lat="42.37880397941194" lon="14.123607029440498"><ele>55.0</ele><time>2026-05-01T14:14:23.999Z</time></trkpt><trkpt lat="42.37898715830235" lon="14.123640155869147"><ele>55.0</ele><time>2026-05-01T14:14:24.999Z</time></trkpt><trkpt lat="42.37916923617885" lon="14.12367946795421"><ele>56.0</ele><time>2026-05-01T14:14:25.999Z</time></trkpt><trkpt lat="42.37932674180263" lon="14.123741905549904"><ele>57.0</ele><time>2026-05-01T14:14:26.999Z</time></trkpt><trkpt lat="42.37945238276343" lon="14.12381825375029"><ele>58.0</ele><time>2026-05-01T14:14:27.999Z</time></trkpt><trkpt lat="42.379562176992174" lon="14.123918684646533"><ele>59.0</ele><time>2026-05-01T14:14:28.999Z</time></trkpt><trkpt lat="42.37967477749758" lon="14.124052396989356"><ele>56.66666666666667</ele><time>2026-05-01T14:14:29.999Z</time></trkpt><trkpt lat="42.37981375197401" lon="14.124193070480727"><ele>54.33333333333333</ele><time>2026-05-01T14:14:30.999Z</time></trkpt><trkpt lat="42.379975012032226" lon="14.124329723616379"><ele>52.0</ele><time>2026-05-01T14:14:31.999Z</time></trkpt><trkpt lat="42.38015833995135" lon="14.124469791746494"><ele>52.0</ele><time>2026-05-01T14:14:32.999Z</time></trkpt><trkpt lat="42.38034649088736" lon="14.124600850790905"><ele>52.0</ele><time>2026-05-01T14:14:33.999Z</time></trkpt><trkpt lat="42.38053252654503" lon="14.124731317458822"><ele>52.0</ele><time>2026-05-01T14:14:34.999Z</time></trkpt><trkpt lat="42.380712553180494" lon="14.124888151767246"><ele>50.666666666666664</ele><time>2026-05-01T14:14:35.999Z</time></trkpt><trkpt lat="42.38091352199773" lon="14.125011302319525"><ele>49.33333333333333</ele><time>2026-05-01T14:14:36.999Z</time></trkpt><trkpt lat="42.381105283835" lon="14.125156293696708"><ele>48.0</ele><time>2026-05-01T14:14:37.999Z</time></trkpt><trkpt lat="42.381281017311935" lon="14.125283386083199"><ele>49.66666666666667</ele><time>2026-05-01T14:14:38.999Z</time></trkpt><trkpt lat="42.38145320427894" lon="14.12540163613254"><ele>51.333333333333336</ele><time>2026-05-01T14:14:39.999Z</time></trkpt><trkpt lat="42.38162729463843" lon="14.125525799621258"><ele>53.0</ele><time>2026-05-01T14:14:40.999Z</time></trkpt><trkpt lat="42.38180196490649" lon="14.12565372158429"><ele>53.0</ele><time>2026-05-01T14:14:41.999Z</time></trkpt><trkpt lat="42.38196135871417" lon="14.125792708869705"><ele>53.0</ele><time>2026-05-01T14:14:42.999Z</time></trkpt><trkpt lat="42.38211788356725" lon="14.12594131217913"><ele>53.0</ele><time>2026-05-01T14:14:43.999Z</time></trkpt><trkpt lat="42.382263756489714" lon="14.126082502367735"><ele>53.0</ele><time>2026-05-01T14:14:44.999Z</time></trkpt><trkpt lat="42.38239528299793" lon="14.12620184403997"><ele>53.0</ele><time>2026-05-01T14:14:45.999Z</time></trkpt><trkpt lat="42.38252542968595" lon="14.12629166844312"><ele>53.0</ele><time>2026-05-01T14:14:46.999Z</time></trkpt><trkpt lat="42.38267407154216" lon="14.126356689489016"><ele>53.0</ele><time>2026-05-01T14:14:47.999Z</time></trkpt><trkpt lat="42.38283272540148" lon="14.126392783182267"><ele>53.0</ele><time>2026-05-01T14:14:48.999Z</time></trkpt><trkpt lat="42.38298372460977" lon="14.126409027608224"><ele>53.0</ele><time>2026-05-01T14:14:49.999Z</time></trkpt><trkpt lat="42.38312060335353" lon="14.12641577862398"><ele>53.0</ele><time>2026-05-01T14:14:50.999Z</time></trkpt><trkpt lat="42.383231889638495" lon="14.126431784579573"><ele>53.0</ele><time>2026-05-01T14:14:51.999Z</time></trkpt><trkpt lat="42.38332627989976" lon="14.126433402994598"><ele>53.0</ele><time>2026-05-01T14:14:52.999Z</time></trkpt><trkpt lat="42.38343026615779" lon="14.1264477509461"><ele>53.0</ele><time>2026-05-01T14:14:53.999Z</time></trkpt><trkpt lat="42.38354446518604" lon="14.126501390505917"><ele>53.0</ele><time>2026-05-01T14:14:54.999Z</time></trkpt><trkpt lat="42.383678224481656" lon="14.126595320879728"><ele>49.333333333333336</ele><time>2026-05-01T14:14:55.999Z</time></trkpt><trkpt lat="42.38384290099731" lon="14.126669767036015"><ele>45.66666666666667</ele><time>2026-05-01T14:14:56.999Z</time></trkpt><trkpt lat="42.384015710614094" lon="14.12677113233214"><ele>42.0</ele><time>2026-05-01T14:14:57.999Z</time></trkpt><trkpt lat="42.38420828540206" lon="14.126874326159298"><ele>42.0</ele><time>2026-05-01T14:14:58.999Z</time></trkpt><trkpt lat="42.38441414667687" lon="14.126961869659771"><ele>42.0</ele><time>2026-05-01T14:14:59.999Z</time></trkpt><trkpt lat="42.38463431530241" lon="14.127036051274207"><ele>42.0</ele><time>2026-05-01T14:15:00.999Z</time></trkpt><trkpt lat="42.38484382410195" lon="14.12711066945252"><ele>43.0</ele><time>2026-05-01T14:15:01.999Z</time></trkpt><trkpt lat="42.38502500165326" lon="14.127203784856139"><ele>44.0</ele><time>2026-05-01T14:15:02.999Z</time></trkpt><trkpt lat="42.38519053882879" lon="14.127375041891314"><ele>45.0</ele><time>2026-05-01T14:15:03.999Z</time></trkpt><trkpt lat="42.38536274017702" lon="14.127560193753311"><ele>40.5</ele><time>2026-05-01T14:15:05Z</time></trkpt><trkpt lat="42.38554573887341" lon="14.12774364595281"><ele>36.0</ele><time>2026-05-01T14:15:06Z</time></trkpt><trkpt lat="42.38571760858227" lon="14.127939992309656"><ele>36.0</ele><time>2026-05-01T14:15:07Z</time></trkpt><trkpt lat="42.38590095575927" lon="14.128118713362895"><ele>36.0</ele><time>2026-05-01T14:15:08Z</time></trkpt><trkpt lat="42.38608232911245" lon="14.128293322786622"><ele>36.0</ele><time>2026-05-01T14:15:09Z</time></trkpt><trkpt lat="42.38623730871554" lon="14.128453698808071"><ele>36.333333333333336</ele><time>2026-05-01T14:15:10Z</time></trkpt><trkpt lat="42.386373944733414" lon="14.12863843161268"><ele>36.66666666666667</ele><time>2026-05-01T14:15:11Z</time></trkpt><trkpt lat="42.38649319359446" lon="14.128843274606062"><ele>37.0</ele><time>2026-05-01T14:15:12Z</time></trkpt><trkpt lat="42.386611268937855" lon="14.129048271880066"><ele>35.66666666666667</ele><time>2026-05-01T14:15:13Z</time></trkpt><trkpt lat="42.38673319012171" lon="14.129244649777993"><ele>34.333333333333336</ele><time>2026-05-01T14:15:14Z</time></trkpt><trkpt lat="42.386854784567795" lon="14.129412845421935"><ele>33.0</ele><time>2026-05-01T14:15:15Z</time></trkpt><trkpt lat="42.386978598322216" lon="14.129560726197537"><ele>33.0</ele><time>2026-05-01T14:15:16Z</time></trkpt><trkpt lat="42.38708710086632" lon="14.12966707900956"><ele>33.0</ele><time>2026-05-01T14:15:17Z</time></trkpt><trkpt lat="42.38718358745457" lon="14.129753940652563"><ele>33.0</ele><time>2026-05-01T14:15:18Z</time></trkpt><trkpt lat="42.38727855991942" lon="14.12984563511185"><ele>33.0</ele><time>2026-05-01T14:15:19Z</time></trkpt><trkpt lat="42.387374029614435" lon="14.129933259391779"><ele>32.75</ele><time>2026-05-01T14:15:20Z</time></trkpt><trkpt lat="42.38747672017279" lon="14.130031130409161"><ele>32.5</ele><time>2026-05-01T14:15:21Z</time></trkpt><trkpt lat="42.38758198122212" lon="14.130132359387947"><ele>32.25</ele><time>2026-05-01T14:15:22Z</time></trkpt><trkpt lat="42.38768801244112" lon="14.130235801846633"><ele>32.0</ele><time>2026-05-01T14:15:23Z</time></trkpt><trkpt lat="42.387794166633306" lon="14.130339579539923"><ele>32.0</ele><time>2026-05-01T14:15:24Z</time></trkpt><trkpt lat="42.38789360979228" lon="14.130428372113407"><ele>32.0</ele><time>2026-05-01T14:15:25Z</time></trkpt><trkpt lat="42.38800543332904" lon="14.13051107008124"><ele>32.0</ele><time>2026-05-01T14:15:26Z</time></trkpt><trkpt lat="42.388133198543194" lon="14.130572786411328"><ele>32.0</ele><time>2026-05-01T14:15:27Z</time></trkpt><trkpt lat="42.38827888916363" lon="14.130638504311912"><ele>32.0</ele><time>2026-05-01T14:15:28Z</time></trkpt><trkpt lat="42.38842234868277" lon="14.130713107534596"><ele>32.0</ele><time>2026-05-01T14:15:29Z</time></trkpt><trkpt lat="42.3885682175677" lon="14.130793669875292"><ele>32.0</ele><time>2026-05-01T14:15:30Z</time></trkpt><trkpt lat="42.388715513984764" lon="14.130880581654841"><ele>32.25</ele><time>2026-05-01T14:15:31Z</time></trkpt><trkpt lat="42.38884773174357" lon="14.13096504422651"><ele>32.5</ele><time>2026-05-01T14:15:32Z</time></trkpt><trkpt lat="42.38897161860746" lon="14.13105026571488"><ele>32.75</ele><time>2026-05-01T14:15:33Z</time></trkpt><trkpt lat="42.389088198942844" lon="14.131131518833305"><ele>33.0</ele><time>2026-05-01T14:15:34Z</time></trkpt><trkpt lat="42.38921192133057" lon="14.131222723358375"><ele>33.0</ele><time>2026-05-01T14:15:35Z</time></trkpt><trkpt lat="42.38934493902815" lon="14.131321380293627"><ele>33.0</ele><time>2026-05-01T14:15:36Z</time></trkpt><trkpt lat="42.38949172751791" lon="14.1314377907576"><ele>33.0</ele><time>2026-05-01T14:15:37Z</time></trkpt><trkpt lat="42.389656818390215" lon="14.131575808139246"><ele>32.333333333333336</ele><time>2026-05-01T14:15:38Z</time></trkpt><trkpt lat="42.38981820368854" lon="14.13171545271149"><ele>31.666666666666668</ele><time>2026-05-01T14:15:39Z</time></trkpt><trkpt lat="42.38997412059691" lon="14.131856953452159"><ele>31.0</ele><time>2026-05-01T14:15:39.999Z</time></trkpt><trkpt lat="42.39012959869864" lon="14.131998661991311"><ele>31.0</ele><time>2026-05-01T14:15:40.999Z</time></trkpt><trkpt lat="42.39027089432838" lon="14.13213635883872"><ele>31.0</ele><time>2026-05-01T14:15:41.999Z</time></trkpt><trkpt lat="42.39042229950977" lon="14.132271669611722"><ele>31.0</ele><time>2026-05-01T14:15:42.999Z</time></trkpt><trkpt lat="42.3905750825897" lon="14.132405497009051"><ele>30.666666666666668</ele><time>2026-05-01T14:15:43.999Z</time></trkpt><trkpt lat="42.39072843369108" lon="14.132544745879448"><ele>30.333333333333336</ele><time>2026-05-01T14:15:44.999Z</time></trkpt><trkpt lat="42.39088152365527" lon="14.132683506755273"><ele>30.0</ele><time>2026-05-01T14:15:45.999Z</time></trkpt><trkpt lat="42.39102913400492" lon="14.13282725997136"><ele>30.0</ele><time>2026-05-01T14:15:46.999Z</time></trkpt><trkpt lat="42.391183595921774" lon="14.132965891357376"><ele>30.0</ele><time>2026-05-01T14:15:47.999Z</time></trkpt><trkpt lat="42.39134073265206" lon="14.133100147272124"><ele>30.0</ele><time>2026-05-01T14:15:48.999Z</time></trkpt><trkpt lat="42.39149791002688" lon="14.133237801751713"><ele>30.0</ele><time>2026-05-01T14:15:49.999Z</time></trkpt><trkpt lat="42.391654009701824" lon="14.133376611994942"><ele>30.0</ele><time>2026-05-01T14:15:50.999Z</time></trkpt><trkpt lat="42.39179897128798" lon="14.133512386007256"><ele>30.0</ele><time>2026-05-01T14:15:51.999Z</time></trkpt><trkpt lat="42.39194781265361" lon="14.133647999939019"><ele>30.0</ele><time>2026-05-01T14:15:52.999Z</time></trkpt><trkpt lat="42.39210296936508" lon="14.133784660446793"><ele>30.0</ele><time>2026-05-01T14:15:53.999Z</time></trkpt><trkpt lat="42.3922620147979" lon="14.133929641348013"><ele>30.0</ele><time>2026-05-01T14:15:54.999Z</time></trkpt><trkpt lat="42.3924254321871" lon="14.134071806728603"><ele>29.666666666666664</ele><time>2026-05-01T14:15:55.999Z</time></trkpt><trkpt lat="42.39258861340441" lon="14.134224956703836"><ele>29.333333333333332</ele><time>2026-05-01T14:15:56.999Z</time></trkpt><trkpt lat="42.3927466380614" lon="14.134375535569122"><ele>29.0</ele><time>2026-05-01T14:15:57.999Z</time></trkpt><trkpt lat="42.39290957771465" lon="14.134534173354684"><ele>29.333333333333332</ele><time>2026-05-01T14:15:58.999Z</time></trkpt><trkpt lat="42.39307185568135" lon="14.13468652825877"><ele>29.666666666666664</ele><time>2026-05-01T14:15:59.999Z</time></trkpt><trkpt lat="42.39324863582892" lon="14.134852084124297"><ele>30.0</ele><time>2026-05-01T14:16:00.999Z</time></trkpt><trkpt lat="42.393429724385705" lon="14.134970142366807"><ele>30.0</ele><time>2026-05-01T14:16:01.999Z</time></trkpt><trkpt lat="42.39359509510676" lon="14.135109444841772"><ele>30.0</ele><time>2026-05-01T14:16:02.999Z</time></trkpt><trkpt lat="42.39376279491225" lon="14.135261413921413"><ele>30.0</ele><time>2026-05-01T14:16:03.999Z</time></trkpt><trkpt lat="42.39392730365271" lon="14.135409409132038"><ele>30.0</ele><time>2026-05-01T14:16:04.999Z</time></trkpt><trkpt lat="42.39409036506222" lon="14.135556977565471"><ele>30.0</ele><time>2026-05-01T14:16:05.999Z</time></trkpt><trkpt lat="42.39425341148368" lon="14.135701044079621"><ele>30.0</ele><time>2026-05-01T14:16:06.999Z</time></trkpt><trkpt lat="42.39441739418152" lon="14.135842974803666"><ele>29.666666666666664</ele><time>2026-05-01T14:16:07.999Z</time></trkpt><trkpt lat="42.39457511849463" lon="14.13598889217931"><ele>29.333333333333332</ele><time>2026-05-01T14:16:08.999Z</time></trkpt><trkpt lat="42.39473196099656" lon="14.1361274265967"><ele>29.0</ele><time>2026-05-01T14:16:09.999Z</time></trkpt><trkpt lat="42.39488481737714" lon="14.136264908881135"><ele>29.0</ele><time>2026-05-01T14:16:10.999Z</time></trkpt><trkpt lat="42.395038203354474" lon="14.136398290905971"><ele>29.0</ele><time>2026-05-01T14:16:11.999Z</time></trkpt><trkpt lat="42.395190345526366" lon="14.136535604121958"><ele>29.0</ele><time>2026-05-01T14:16:12.999Z</time></trkpt><trkpt lat="42.39534280462318" lon="14.136669510769092"><ele>28.0</ele><time>2026-05-01T14:16:13.999Z</time></trkpt><trkpt lat="42.395491728723954" lon="14.136807562247727"><ele>27.0</ele><time>2026-05-01T14:16:14.999Z</time></trkpt><trkpt lat="42.39563993160988" lon="14.13693893484902"><ele>26.0</ele><time>2026-05-01T14:16:15.999Z</time></trkpt><trkpt lat="42.395785469503366" lon="14.137067164388736"><ele>26.0</ele><time>2026-05-01T14:16:16.999Z</time></trkpt><trkpt lat="42.395928723443035" lon="14.137194460035234"><ele>26.0</ele><time>2026-05-01T14:16:17.999Z</time></trkpt><trkpt lat="42.39606570594937" lon="14.137316805824907"><ele>26.0</ele><time>2026-05-01T14:16:18.999Z</time></trkpt><trkpt lat="42.396202555093716" lon="14.137437279442569"><ele>26.333333333333332</ele><time>2026-05-01T14:16:19.999Z</time></trkpt><trkpt lat="42.396344820989285" lon="14.137562646120445"><ele>26.666666666666664</ele><time>2026-05-01T14:16:20.999Z</time></trkpt><trkpt lat="42.3964778635942" lon="14.13768224938419"><ele>27.0</ele><time>2026-05-01T14:16:21.999Z</time></trkpt><trkpt lat="42.3966271096883" lon="14.137810976153846"><ele>27.0</ele><time>2026-05-01T14:16:22.999Z</time></trkpt><trkpt lat="42.3967804582307" lon="14.137948863452685"><ele>27.0</ele><time>2026-05-01T14:16:23.999Z</time></trkpt><trkpt lat="42.396939721358365" lon="14.138086274608403"><ele>27.0</ele><time>2026-05-01T14:16:24.999Z</time></trkpt><trkpt lat="42.397095367385305" lon="14.138215640498004"><ele>26.666666666666664</ele><time>2026-05-01T14:16:25.999Z</time></trkpt><trkpt lat="42.397250793672875" lon="14.138365871937275"><ele>26.333333333333332</ele><time>2026-05-01T14:16:26.999Z</time></trkpt><trkpt lat="42.39740534478977" lon="14.13851276425943"><ele>26.0</ele><time>2026-05-01T14:16:27.999Z</time></trkpt><trkpt lat="42.39756637826155" lon="14.138660011311783"><ele>26.0</ele><time>2026-05-01T14:16:28.999Z</time></trkpt><trkpt lat="42.39771984631233" lon="14.138802712354305"><ele>26.0</ele><time>2026-05-01T14:16:29.999Z</time></trkpt><trkpt lat="42.39785898193351" lon="14.13893293709899"><ele>26.0</ele><time>2026-05-01T14:16:30.999Z</time></trkpt><trkpt lat="42.398004592512855" lon="14.139065634673043"><ele>26.0</ele><time>2026-05-01T14:16:31.999Z</time></trkpt><trkpt lat="42.398147616167186" lon="14.139195004242321"><ele>26.0</ele><time>2026-05-01T14:16:32.999Z</time></trkpt><trkpt lat="42.398288315471355" lon="14.139319071998042"><ele>26.0</ele><time>2026-05-01T14:16:33.999Z</time></trkpt><trkpt lat="42.398415791153134" lon="14.139429589251668"><ele>26.0</ele><time>2026-05-01T14:16:34.999Z</time></trkpt><trkpt lat="42.39853282608074" lon="14.139535999785592"><ele>26.0</ele><time>2026-05-01T14:16:35.999Z</time></trkpt><trkpt lat="42.39865024630435" lon="14.13964228486441"><ele>26.0</ele><time>2026-05-01T14:16:36.999Z</time></trkpt><trkpt lat="42.39876736014377" lon="14.139743514993516"><ele>26.0</ele><time>2026-05-01T14:16:37.999Z</time></trkpt><trkpt lat="42.39887863120313" lon="14.139839581394124"><ele>25.75</ele><time>2026-05-01T14:16:38.999Z</time></trkpt><trkpt lat="42.39899352918671" lon="14.139938411158655"><ele>25.5</ele><time>2026-05-01T14:16:39.999Z</time></trkpt><trkpt lat="42.39911500332533" lon="14.140050257697569"><ele>25.25</ele><time>2026-05-01T14:16:40.999Z</time></trkpt><trkpt lat="42.39924347181396" lon="14.140168638903441"><ele>25.0</ele><time>2026-05-01T14:16:41.999Z</time></trkpt><trkpt lat="42.3993762650735" lon="14.140288517004063"><ele>25.0</ele><time>2026-05-01T14:16:42.999Z</time></trkpt><trkpt lat="42.39950864874516" lon="14.140405682738605"><ele>25.0</ele><time>2026-05-01T14:16:43.999Z</time></trkpt><trkpt lat="42.39963793564927" lon="14.14052384829204"><ele>25.0</ele><time>2026-05-01T14:16:44.999Z</time></trkpt><trkpt lat="42.399769699064166" lon="14.140641591221584"><ele>25.25</ele><time>2026-05-01T14:16:45.999Z</time></trkpt><trkpt lat="42.399896601049534" lon="14.140757325600385"><ele>25.5</ele><time>2026-05-01T14:16:46.999Z</time></trkpt><trkpt lat="42.400023922129506" lon="14.140870592070428"><ele>25.75</ele><time>2026-05-01T14:16:47.999Z</time></trkpt><trkpt lat="42.400142542179886" lon="14.140970989461175"><ele>26.0</ele><time>2026-05-01T14:16:48.999Z</time></trkpt><trkpt lat="42.4002601789522" lon="14.14107074182055"><ele>26.0</ele><time>2026-05-01T14:16:49.999Z</time></trkpt><trkpt lat="42.40038099936295" lon="14.141179948410008"><ele>26.0</ele><time>2026-05-01T14:16:50.999Z</time></trkpt><trkpt lat="42.40050852244378" lon="14.14129803958966"><ele>26.0</ele><time>2026-05-01T14:16:51.999Z</time></trkpt><trkpt lat="42.400632875369865" lon="14.141412615625029"><ele>25.666666666666664</ele><time>2026-05-01T14:16:52.999Z</time></trkpt><trkpt lat="42.40075585175466" lon="14.141520511986057"><ele>25.333333333333336</ele><time>2026-05-01T14:16:53.999Z</time></trkpt><trkpt lat="42.40088143378028" lon="14.141633883534192"><ele>25.0</ele><time>2026-05-01T14:16:54.999Z</time></trkpt><trkpt lat="42.401009132567516" lon="14.141746452906998"><ele>25.0</ele><time>2026-05-01T14:16:55.999Z</time></trkpt><trkpt lat="42.40113760944953" lon="14.141863290173346"><ele>25.0</ele><time>2026-05-01T14:16:56.999Z</time></trkpt><trkpt lat="42.4012634490577" lon="14.141975895932964"><ele>25.0</ele><time>2026-05-01T14:16:57.999Z</time></trkpt><trkpt lat="42.401384920070534" lon="14.142081539885586"><ele>25.0</ele><time>2026-05-01T14:16:58.999Z</time></trkpt><trkpt lat="42.401505427224514" lon="14.142187490497404"><ele>25.0</ele><time>2026-05-01T14:16:59.999Z</time></trkpt><trkpt lat="42.40162028044722" lon="14.142291403021877"><ele>25.0</ele><time>2026-05-01T14:17:00.999Z</time></trkpt><trkpt lat="42.40173861712157" lon="14.142395699406269"><ele>25.0</ele><time>2026-05-01T14:17:01.999Z</time></trkpt><trkpt lat="42.401854480177434" lon="14.14249759043971"><ele>24.75</ele><time>2026-05-01T14:17:02.999Z</time></trkpt><trkpt lat="42.401971381637935" lon="14.142604258566442"><ele>24.5</ele><time>2026-05-01T14:17:03.999Z</time></trkpt><trkpt lat="42.40209288571634" lon="14.14270696010377"><ele>24.25</ele><time>2026-05-01T14:17:04.999Z</time></trkpt><trkpt lat="42.40222815761616" lon="14.142823451786692"><ele>24.0</ele><time>2026-05-01T14:17:05.999Z</time></trkpt><trkpt lat="42.40237047152074" lon="14.14293898361032"><ele>24.0</ele><time>2026-05-01T14:17:06.999Z</time></trkpt><trkpt lat="42.40251368077602" lon="14.14306621184483"><ele>24.0</ele><time>2026-05-01T14:17:07.999Z</time></trkpt><trkpt lat="42.402656929654526" lon="14.14319358919982"><ele>24.0</ele><time>2026-05-01T14:17:08.999Z</time></trkpt><trkpt lat="42.402801278628765" lon="14.143316638259709"><ele>24.0</ele><time>2026-05-01T14:17:09.999Z</time></trkpt><trkpt lat="42.402937203527024" lon="14.14343313791546"><ele>24.0</ele><time>2026-05-01T14:17:11Z</time></trkpt><trkpt lat="42.40306633354093" lon="14.143538794844053"><ele>24.0</ele><time>2026-05-01T14:17:12Z</time></trkpt><trkpt lat="42.403192477142746" lon="14.143656111712824"><ele>24.0</ele><time>2026-05-01T14:17:13Z</time></trkpt><trkpt lat="42.403327283386055" lon="14.14378332038085"><ele>24.0</ele><time>2026-05-01T14:17:14Z</time></trkpt><trkpt lat="42.40346969262714" lon="14.14391199830428"><ele>24.0</ele><time>2026-05-01T14:17:15Z</time></trkpt><trkpt lat="42.40359829097853" lon="14.144025659562217"><ele>24.25</ele><time>2026-05-01T14:17:16Z</time></trkpt><trkpt lat="42.40372068371521" lon="14.144133155852822"><ele>24.5</ele><time>2026-05-01T14:17:17Z</time></trkpt><trkpt lat="42.403850355560884" lon="14.144250120997603"><ele>24.75</ele><time>2026-05-01T14:17:18Z</time></trkpt><trkpt lat="42.403966982867516" lon="14.14435940778442"><ele>25.0</ele><time>2026-05-01T14:17:19Z</time></trkpt><trkpt lat="42.404083190896706" lon="14.144472891824606"><ele>25.0</ele><time>2026-05-01T14:17:20Z</time></trkpt><trkpt lat="42.40419858293111" lon="14.144585409692493"><ele>25.0</ele><time>2026-05-01T14:17:21Z</time></trkpt><trkpt lat="42.404305230302725" lon="14.144685748321521"><ele>25.0</ele><time>2026-05-01T14:17:22Z</time></trkpt><trkpt lat="42.40440653009341" lon="14.144780038566367"><ele>25.0</ele><time>2026-05-01T14:17:23Z</time></trkpt><trkpt lat="42.40451930039754" lon="14.144881154525494"><ele>25.333333333333336</ele><time>2026-05-01T14:17:24Z</time></trkpt><trkpt lat="42.404648457931486" lon="14.14499594174793"><ele>25.666666666666664</ele><time>2026-05-01T14:17:25Z</time></trkpt><trkpt lat="42.404786364576545" lon="14.145118228185371"><ele>26.0</ele><time>2026-05-01T14:17:26Z</time></trkpt><trkpt lat="42.404921814001355" lon="14.14523135241748"><ele>25.25</ele><time>2026-05-01T14:17:27Z</time></trkpt><trkpt lat="42.405047749249746" lon="14.145342545498687"><ele>24.5</ele><time>2026-05-01T14:17:28Z</time></trkpt><trkpt lat="42.40515875309659" lon="14.145443431151465"><ele>23.75</ele><time>2026-05-01T14:17:29Z</time></trkpt><trkpt lat="42.40525478744312" lon="14.145530656259478"><ele>23.0</ele><time>2026-05-01T14:17:30Z</time></trkpt><trkpt lat="42.40533161889522" lon="14.14560254225611"><ele>23.0</ele><time>2026-05-01T14:17:31Z</time></trkpt><trkpt lat="42.405398453619036" lon="14.14567141604285"><ele>23.0</ele><time>2026-05-01T14:17:32Z</time></trkpt><trkpt lat="42.405440322165155" lon="14.145743777393928"><ele>23.0</ele><time>2026-05-01T14:17:33Z</time></trkpt><trkpt lat="42.40545863807104" lon="14.145826353527378"><ele>23.0</ele><time>2026-05-01T14:17:33.999Z</time></trkpt><trkpt lat="42.405453961510574" lon="14.145927087214435"><ele>23.0</ele><time>2026-05-01T14:17:34.999Z</time></trkpt><trkpt lat="42.40544988069189" lon="14.146024312172162"><ele>23.0</ele><time>2026-05-01T14:17:35.999Z</time></trkpt><trkpt lat="42.40548028452027" lon="14.146101870426596"><ele>23.0</ele><time>2026-05-01T14:17:36.999Z</time></trkpt><trkpt lat="42.405540001552126" lon="14.14614476213486"><ele>22.833333333333336</ele><time>2026-05-01T14:17:37.999Z</time></trkpt><trkpt lat="42.40561335657975" lon="14.14613557689214"><ele>22.666666666666668</ele><time>2026-05-01T14:17:38.999Z</time></trkpt><trkpt lat="42.405677343834775" lon="14.146086532739405"><ele>22.5</ele><time>2026-05-01T14:17:39.999Z</time></trkpt><trkpt lat="42.40574868545831" lon="14.14604110902688"><ele>22.333333333333332</ele><time>2026-05-01T14:17:40.999Z</time></trkpt><trkpt lat="42.4058338463312" lon="14.146047189961696"><ele>22.166666666666664</ele><time>2026-05-01T14:17:41.999Z</time></trkpt><trkpt lat="42.40592629884936" lon="14.146112628381921"><ele>22.0</ele><time>2026-05-01T14:17:42.999Z</time></trkpt><trkpt lat="42.406018363087234" lon="14.146226075858037"><ele>22.0</ele><time>2026-05-01T14:17:43.999Z</time></trkpt><trkpt lat="42.40612963005605" lon="14.14631219153163"><ele>22.0</ele><time>2026-05-01T14:17:44.999Z</time></trkpt><trkpt lat="42.40623216893198" lon="14.146406557830234"><ele>22.0</ele><time>2026-05-01T14:17:45.999Z</time></trkpt><trkpt lat="42.40634495873993" lon="14.146506864566751"><ele>22.0</ele><time>2026-05-01T14:17:46.999Z</time></trkpt><trkpt lat="42.406471260718924" lon="14.146617439251788"><ele>22.0</ele><time>2026-05-01T14:17:47.999Z</time></trkpt><trkpt lat="42.40660278140866" lon="14.146728981757779"><ele>22.0</ele><time>2026-05-01T14:17:48.999Z</time></trkpt><trkpt lat="42.40674447159902" lon="14.14682501771001"><ele>22.0</ele><time>2026-05-01T14:17:49.999Z</time></trkpt><trkpt lat="42.40690456630787" lon="14.146903600704322"><ele>22.0</ele><time>2026-05-01T14:17:50.999Z</time></trkpt><trkpt lat="42.40707513802001" lon="14.146968040605989"><ele>22.0</ele><time>2026-05-01T14:17:51.999Z</time></trkpt><trkpt lat="42.40725252789387" lon="14.147033753536823"><ele>22.0</ele><time>2026-05-01T14:17:52.999Z</time></trkpt><trkpt lat="42.40742409709187" lon="14.147085678994348"><ele>20.666666666666664</ele><time>2026-05-01T14:17:53.999Z</time></trkpt><trkpt lat="42.407589048649484" lon="14.147128462436973"><ele>19.333333333333332</ele><time>2026-05-01T14:17:54.999Z</time></trkpt><trkpt lat="42.40775681611568" lon="14.147156798188616"><ele>18.0</ele><time>2026-05-01T14:17:55.999Z</time></trkpt><trkpt lat="42.40793258134976" lon="14.147183808153763"><ele>17.666666666666668</ele><time>2026-05-01T14:17:56.999Z</time></trkpt><trkpt lat="42.40810303162251" lon="14.147218962022242"><ele>17.333333333333336</ele><time>2026-05-01T14:17:57.999Z</time></trkpt><trkpt lat="42.40827269232465" lon="14.14726654136515"><ele>17.0</ele><time>2026-05-01T14:17:58.999Z</time></trkpt><trkpt lat="42.4084370691251" lon="14.147332334794973"><ele>17.0</ele><time>2026-05-01T14:17:59.999Z</time></trkpt><trkpt lat="42.40859070083723" lon="14.14741344517028"><ele>17.0</ele><time>2026-05-01T14:18:00.999Z</time></trkpt><trkpt lat="42.4087454389279" lon="14.147512623399763"><ele>17.0</ele><time>2026-05-01T14:18:01.999Z</time></trkpt><trkpt lat="42.408902960308794" lon="14.147624685638991"><ele>17.0</ele><time>2026-05-01T14:18:02.999Z</time></trkpt><trkpt lat="42.40905922408362" lon="14.147740806916783"><ele>17.0</ele><time>2026-05-01T14:18:03.999Z</time></trkpt><trkpt lat="42.40921133912784" lon="14.147863484557226"><ele>17.0</ele><time>2026-05-01T14:18:04.999Z</time></trkpt><trkpt lat="42.409364865237144" lon="14.147989983195329"><ele>17.0</ele><time>2026-05-01T14:18:05.999Z</time></trkpt><trkpt lat="42.409515911864155" lon="14.148111625624212"><ele>17.0</ele><time>2026-05-01T14:18:06.999Z</time></trkpt><trkpt lat="42.40966633489402" lon="14.148232980647858"><ele>17.0</ele><time>2026-05-01T14:18:07.999Z</time></trkpt><trkpt lat="42.40981858620204" lon="14.148353702846109"><ele>17.666666666666668</ele><time>2026-05-01T14:18:08.999Z</time></trkpt><trkpt lat="42.40996967188081" lon="14.14847415578934"><ele>18.333333333333332</ele><time>2026-05-01T14:18:09.999Z</time></trkpt><trkpt lat="42.41012151471207" lon="14.148597036374575"><ele>19.0</ele><time>2026-05-01T14:18:10.999Z</time></trkpt><trkpt lat="42.4102714448902" lon="14.1487158337773"><ele>19.0</ele><time>2026-05-01T14:18:11.999Z</time></trkpt><trkpt lat="42.41042656858111" lon="14.148836671643862"><ele>19.0</ele><time>2026-05-01T14:18:12.999Z</time></trkpt><trkpt lat="42.41057477454135" lon="14.148956206978157"><ele>19.0</ele><time>2026-05-01T14:18:13.999Z</time></trkpt><trkpt lat="42.410726569261726" lon="14.149074004655562"><ele>19.666666666666664</ele><time>2026-05-01T14:18:14.999Z</time></trkpt><trkpt lat="42.41088634551963" lon="14.149196698747359"><ele>20.333333333333332</ele><time>2026-05-01T14:18:15.999Z</time></trkpt><trkpt lat="42.41104844589443" lon="14.149324966309814"><ele>21.0</ele><time>2026-05-01T14:18:16.999Z</time></trkpt><trkpt lat="42.41120854747058" lon="14.149454571703508"><ele>21.0</ele><time>2026-05-01T14:18:17.999Z</time></trkpt><trkpt lat="42.41137294522446" lon="14.149584036308495"><ele>21.0</ele><time>2026-05-01T14:18:18.999Z</time></trkpt><trkpt lat="42.41153170350265" lon="14.149711375289817"><ele>21.0</ele><time>2026-05-01T14:18:19.999Z</time></trkpt><trkpt lat="42.41168836676767" lon="14.149834850602806"><ele>20.0</ele><time>2026-05-01T14:18:20.999Z</time></trkpt><trkpt lat="42.41184608485674" lon="14.149961006791141"><ele>19.0</ele><time>2026-05-01T14:18:21.999Z</time></trkpt><trkpt lat="42.41200423389604" lon="14.150085750016029"><ele>18.0</ele><time>2026-05-01T14:18:22.999Z</time></trkpt><trkpt lat="42.412161298775466" lon="14.150210900451734"><ele>17.0</ele><time>2026-05-01T14:18:23.999Z</time></trkpt><trkpt lat="42.41231994121606" lon="14.150333648142112"><ele>16.0</ele><time>2026-05-01T14:18:24.999Z</time></trkpt><trkpt lat="42.41247797880196" lon="14.150453891309947"><ele>15.0</ele><time>2026-05-01T14:18:25.999Z</time></trkpt><trkpt lat="42.41263377825538" lon="14.150572523925728"><ele>15.0</ele><time>2026-05-01T14:18:26.999Z</time></trkpt><trkpt lat="42.412782721820896" lon="14.150693917630825"><ele>15.0</ele><time>2026-05-01T14:18:27.999Z</time></trkpt><trkpt lat="42.41292736477181" lon="14.15082215218381"><ele>15.0</ele><time>2026-05-01T14:18:28.999Z</time></trkpt><trkpt lat="42.41305855473413" lon="14.150959332862728"><ele>15.0</ele><time>2026-05-01T14:18:29.999Z</time></trkpt><trkpt lat="42.413182880558836" lon="14.151102293463454"><ele>15.0</ele><time>2026-05-01T14:18:30.999Z</time></trkpt><trkpt lat="42.41331772539462" lon="14.151254018453278"><ele>15.0</ele><time>2026-05-01T14:18:31.999Z</time></trkpt><trkpt lat="42.41345880069408" lon="14.151396638956118"><ele>15.0</ele><time>2026-05-01T14:18:32.999Z</time></trkpt><trkpt lat="42.41361056712913" lon="14.151532579330338"><ele>15.0</ele><time>2026-05-01T14:18:33.999Z</time></trkpt><trkpt lat="42.413773676941986" lon="14.15166064551524"><ele>15.0</ele><time>2026-05-01T14:18:34.999Z</time></trkpt><trkpt lat="42.41393342441729" lon="14.151766059883544"><ele>15.333333333333332</ele><time>2026-05-01T14:18:35.999Z</time></trkpt><trkpt lat="42.41409324796544" lon="14.151858834160258"><ele>15.666666666666666</ele><time>2026-05-01T14:18:36.999Z</time></trkpt><trkpt lat="42.41426455219366" lon="14.15193652867461"><ele>16.0</ele><time>2026-05-01T14:18:37.999Z</time></trkpt><trkpt lat="42.414449095714666" lon="14.152002183044477"><ele>16.0</ele><time>2026-05-01T14:18:38.999Z</time></trkpt><trkpt lat="42.414638077144176" lon="14.152045523856527"><ele>16.0</ele><time>2026-05-01T14:18:39.999Z</time></trkpt><trkpt lat="42.41482768601425" lon="14.152067227606734"><ele>16.0</ele><time>2026-05-01T14:18:40.999Z</time></trkpt><trkpt lat="42.41501903954971" lon="14.152077400917193"><ele>16.0</ele><time>2026-05-01T14:18:41.999Z</time></trkpt><trkpt lat="42.4152123330349" lon="14.15207910243762"><ele>16.0</ele><time>2026-05-01T14:18:42.999Z</time></trkpt><trkpt lat="42.415400671825836" lon="14.152088294291659"><ele>16.0</ele><time>2026-05-01T14:18:43.999Z</time></trkpt><trkpt lat="42.41557704860133" lon="14.152100774076931"><ele>16.0</ele><time>2026-05-01T14:18:44.999Z</time></trkpt><trkpt lat="42.41574381757701" lon="14.152125884756495"><ele>16.0</ele><time>2026-05-01T14:18:45.999Z</time></trkpt><trkpt lat="42.415897353355945" lon="14.152157233438027"><ele>16.0</ele><time>2026-05-01T14:18:46.999Z</time></trkpt><trkpt lat="42.416039068958746" lon="14.152210046027053"><ele>16.0</ele><time>2026-05-01T14:18:47.999Z</time></trkpt><trkpt lat="42.416189601027945" lon="14.152308625095085"><ele>16.0</ele><time>2026-05-01T14:18:48.999Z</time></trkpt><trkpt lat="42.41633474894125" lon="14.152439355979904"><ele>16.0</ele><time>2026-05-01T14:18:49.999Z</time></trkpt><trkpt lat="42.416476159832264" lon="14.152611702992578"><ele>17.333333333333332</ele><time>2026-05-01T14:18:50.999Z</time></trkpt><trkpt lat="42.41660571331951" lon="14.152793411311029"><ele>18.666666666666668</ele><time>2026-05-01T14:18:51.998Z</time></trkpt><trkpt lat="42.41673211728036" lon="14.152979084157721"><ele>20.0</ele><time>2026-05-01T14:18:52.998Z</time></trkpt><trkpt lat="42.416859720860955" lon="14.153162592830556"><ele>19.666666666666668</ele><time>2026-05-01T14:18:53.998Z</time></trkpt><trkpt lat="42.41699706810833" lon="14.153347323193149"><ele>19.333333333333332</ele><time>2026-05-01T14:18:54.998Z</time></trkpt><trkpt lat="42.41713379755248" lon="14.153526458780094"><ele>19.0</ele><time>2026-05-01T14:18:55.998Z</time></trkpt><trkpt lat="42.41726219956852" lon="14.1537015289295"><ele>19.0</ele><time>2026-05-01T14:18:56.998Z</time></trkpt><trkpt lat="42.41739533081057" lon="14.153877053562683"><ele>19.0</ele><time>2026-05-01T14:18:57.998Z</time></trkpt><trkpt lat="42.41753232512465" lon="14.154058916237918"><ele>19.0</ele><time>2026-05-01T14:18:58.998Z</time></trkpt><trkpt lat="42.41766652610913" lon="14.154242868996105"><ele>19.0</ele><time>2026-05-01T14:18:59.998Z</time></trkpt><trkpt lat="42.41780136076237" lon="14.154428356492062"><ele>19.0</ele><time>2026-05-01T14:19:00.998Z</time></trkpt><trkpt lat="42.417941314847035" lon="14.154615669443853"><ele>19.0</ele><time>2026-05-01T14:19:01.998Z</time></trkpt><trkpt lat="42.41808036239633" lon="14.154802299727368"><ele>18.333333333333332</ele><time>2026-05-01T14:19:02.998Z</time></trkpt><trkpt lat="42.4182154910237" lon="14.154987112935961"><ele>17.666666666666668</ele><time>2026-05-01T14:19:03.998Z</time></trkpt><trkpt lat="42.41834935329616" lon="14.155165076265046"><ele>17.0</ele><time>2026-05-01T14:19:04.998Z</time></trkpt><trkpt lat="42.41848098978844" lon="14.155347831693415"><ele>17.0</ele><time>2026-05-01T14:19:05.998Z</time></trkpt><trkpt lat="42.41861292169894" lon="14.155525700298437"><ele>17.0</ele><time>2026-05-01T14:19:06.998Z</time></trkpt><trkpt lat="42.4187438633138" lon="14.155707821198714"><ele>17.0</ele><time>2026-05-01T14:19:07.998Z</time></trkpt><trkpt lat="42.418873583138144" lon="14.155893695925553"><ele>19.0</ele><time>2026-05-01T14:19:08.998Z</time></trkpt><trkpt lat="42.41900288756953" lon="14.156082141234547"><ele>21.0</ele><time>2026-05-01T14:19:09.998Z</time></trkpt><trkpt lat="42.419136021541156" lon="14.15625362426548"><ele>23.0</ele><time>2026-05-01T14:19:10.998Z</time></trkpt><trkpt lat="42.41928019596072" lon="14.156391620512235"><ele>23.0</ele><time>2026-05-01T14:19:11.998Z</time></trkpt><trkpt lat="42.419451614335536" lon="14.156488516563345"><ele>23.0</ele><time>2026-05-01T14:19:12.998Z</time></trkpt><trkpt lat="42.419638847973104" lon="14.156558507649965"><ele>23.0</ele><time>2026-05-01T14:19:13.998Z</time></trkpt><trkpt lat="42.4198260147669" lon="14.15662464285163"><ele>22.0</ele><time>2026-05-01T14:19:14.998Z</time></trkpt><trkpt lat="42.42001309930317" lon="14.15669168551453"><ele>21.0</ele><time>2026-05-01T14:19:15.998Z</time></trkpt><trkpt lat="42.42020485202401" lon="14.156770437376919"><ele>20.0</ele><time>2026-05-01T14:19:16.999Z</time></trkpt><trkpt lat="42.42040336300667" lon="14.156850091575476"><ele>20.333333333333336</ele><time>2026-05-01T14:19:17.999Z</time></trkpt><trkpt lat="42.42060963124302" lon="14.156934668702348"><ele>20.666666666666668</ele><time>2026-05-01T14:19:18.999Z</time></trkpt><trkpt lat="42.4207968282684" lon="14.15701628781709"><ele>21.0</ele><time>2026-05-01T14:19:19.999Z</time></trkpt><trkpt lat="42.420977171319024" lon="14.157094217892535"><ele>21.0</ele><time>2026-05-01T14:19:20.999Z</time></trkpt><trkpt lat="42.42115040633262" lon="14.157172293736595"><ele>21.0</ele><time>2026-05-01T14:19:21.999Z</time></trkpt><trkpt lat="42.42131924897595" lon="14.157237597178776"><ele>21.0</ele><time>2026-05-01T14:19:22.999Z</time></trkpt><trkpt lat="42.42147736765072" lon="14.157300222095039"><ele>21.5</ele><time>2026-05-01T14:19:23.999Z</time></trkpt><trkpt lat="42.42162893185394" lon="14.157364683175306"><ele>22.0</ele><time>2026-05-01T14:19:25Z</time></trkpt><trkpt lat="42.42177801941932" lon="14.157422309291197"><ele>22.5</ele><time>2026-05-01T14:19:26Z</time></trkpt><trkpt lat="42.421910188677636" lon="14.157445933098044"><ele>23.0</ele><time>2026-05-01T14:19:27Z</time></trkpt><trkpt lat="42.42202885928662" lon="14.157441389603965"><ele>22.4</ele><time>2026-05-01T14:19:28Z</time></trkpt><trkpt lat="42.42213529402092" lon="14.157425032679718"><ele>21.799999999999997</ele><time>2026-05-01T14:19:29Z</time></trkpt><trkpt lat="42.42223355073644" lon="14.157434827686577"><ele>21.2</ele><time>2026-05-01T14:19:30Z</time></trkpt><trkpt lat="42.4223285321272" lon="14.15748317416081"><ele>20.6</ele><time>2026-05-01T14:19:31Z</time></trkpt><trkpt lat="42.422439572085125" lon="14.157547186199011"><ele>20.0</ele><time>2026-05-01T14:19:32Z</time></trkpt><trkpt lat="42.422547008996695" lon="14.1576157715208"><ele>20.0</ele><time>2026-05-01T14:19:33Z</time></trkpt><trkpt lat="42.42265778746384" lon="14.157694616782921"><ele>20.0</ele><time>2026-05-01T14:19:34Z</time></trkpt><trkpt lat="42.42277257911976" lon="14.157781742254736"><ele>20.0</ele><time>2026-05-01T14:19:35Z</time></trkpt><trkpt lat="42.42288440357338" lon="14.157849080786585"><ele>20.0</ele><time>2026-05-01T14:19:36Z</time></trkpt><trkpt lat="42.42299176618015" lon="14.157895230442469"><ele>19.6</ele><time>2026-05-01T14:19:37Z</time></trkpt><trkpt lat="42.42309052364141" lon="14.15792836112842"><ele>19.2</ele><time>2026-05-01T14:19:38Z</time></trkpt><trkpt lat="42.42318649576021" lon="14.157963295460874"><ele>18.8</ele><time>2026-05-01T14:19:39Z</time></trkpt><trkpt lat="42.42329847262409" lon="14.158007019260546"><ele>18.4</ele><time>2026-05-01T14:19:40Z</time></trkpt><trkpt lat="42.42341688035371" lon="14.158056487205275"><ele>18.0</ele><time>2026-05-01T14:19:41Z</time></trkpt><trkpt lat="42.42354184116155" lon="14.158104790245787"><ele>18.0</ele><time>2026-05-01T14:19:42Z</time></trkpt><trkpt lat="42.423663127417306" lon="14.158153126056781"><ele>18.0</ele><time>2026-05-01T14:19:43Z</time></trkpt><trkpt lat="42.4237894514721" lon="14.158209933622638"><ele>18.0</ele><time>2026-05-01T14:19:44Z</time></trkpt><trkpt lat="42.42389960966786" lon="14.158259245190415"><ele>18.0</ele><time>2026-05-01T14:19:45Z</time></trkpt><trkpt lat="42.42399002122131" lon="14.158283126793155"><ele>17.8</ele><time>2026-05-01T14:19:46Z</time></trkpt><trkpt lat="42.424071850232174" lon="14.158322173749557"><ele>17.6</ele><time>2026-05-01T14:19:47Z</time></trkpt><trkpt lat="42.4241618134127" lon="14.158364383094467"><ele>17.4</ele><time>2026-05-01T14:19:48Z</time></trkpt><trkpt lat="42.42427145746244" lon="14.158414338485157"><ele>17.2</ele><time>2026-05-01T14:19:49Z</time></trkpt><trkpt lat="42.42439355380381" lon="14.158459058273383"><ele>17.0</ele><time>2026-05-01T14:19:50Z</time></trkpt><trkpt lat="42.42450934348121" lon="14.158514875831536"><ele>17.0</ele><time>2026-05-01T14:19:51Z</time></trkpt><trkpt lat="42.424633314787926" lon="14.158565305319048"><ele>17.0</ele><time>2026-05-01T14:19:52Z</time></trkpt><trkpt lat="42.42475693717938" lon="14.158619342800598"><ele>17.0</ele><time>2026-05-01T14:19:53Z</time></trkpt><trkpt lat="42.42487774482901" lon="14.158673530793232"><ele>17.0</ele><time>2026-05-01T14:19:54Z</time></trkpt><trkpt lat="42.42500065968392" lon="14.158727785161183"><ele>17.25</ele><time>2026-05-01T14:19:55Z</time></trkpt><trkpt lat="42.42512465447545" lon="14.15878581606982"><ele>17.5</ele><time>2026-05-01T14:19:56Z</time></trkpt><trkpt lat="42.42524588658552" lon="14.158842010453395"><ele>17.75</ele><time>2026-05-01T14:19:57Z</time></trkpt><trkpt lat="42.42536749644935" lon="14.158895688149894"><ele>18.0</ele><time>2026-05-01T14:19:58Z</time></trkpt><trkpt lat="42.42548883539052" lon="14.15895102703634"><ele>18.25</ele><time>2026-05-01T14:19:59Z</time></trkpt><trkpt lat="42.42560191290742" lon="14.159004563091452"><ele>18.5</ele><time>2026-05-01T14:20:00Z</time></trkpt><trkpt lat="42.42571289528737" lon="14.159066432761005"><ele>18.75</ele><time>2026-05-01T14:20:01Z</time></trkpt><trkpt lat="42.425827414193584" lon="14.15911895903626"><ele>19.0</ele><time>2026-05-01T14:20:02Z</time></trkpt><trkpt lat="42.42594590334171" lon="14.159180625869457"><ele>19.0</ele><time>2026-05-01T14:20:03Z</time></trkpt><trkpt lat="42.42606505177839" lon="14.15925551642496"><ele>19.0</ele><time>2026-05-01T14:20:04Z</time></trkpt><trkpt lat="42.426183328224106" lon="14.15934188479605"><ele>19.0</ele><time>2026-05-01T14:20:05Z</time></trkpt><trkpt lat="42.42629537448366" lon="14.159423571807524"><ele>19.0</ele><time>2026-05-01T14:20:06Z</time></trkpt><trkpt lat="42.4263922035927" lon="14.159502029737117"><ele>19.25</ele><time>2026-05-01T14:20:07Z</time></trkpt><trkpt lat="42.42648726985231" lon="14.15956090011222"><ele>19.5</ele><time>2026-05-01T14:20:08Z</time></trkpt><trkpt lat="42.42658016149781" lon="14.159631150944827"><ele>19.75</ele><time>2026-05-01T14:20:09Z</time></trkpt><trkpt lat="42.42667987287744" lon="14.159698463495921"><ele>20.0</ele><time>2026-05-01T14:20:10Z</time></trkpt><trkpt lat="42.42679323819922" lon="14.159782686909052"><ele>19.75</ele><time>2026-05-01T14:20:11Z</time></trkpt><trkpt lat="42.426905167430014" lon="14.159868215931475"><ele>19.5</ele><time>2026-05-01T14:20:12Z</time></trkpt><trkpt lat="42.42701905162567" lon="14.159967165497802"><ele>19.25</ele><time>2026-05-01T14:20:13Z</time></trkpt><trkpt lat="42.42713011875072" lon="14.160061646511716"><ele>19.0</ele><time>2026-05-01T14:20:14Z</time></trkpt><trkpt lat="42.42724635604718" lon="14.160157172207128"><ele>18.75</ele><time>2026-05-01T14:20:15Z</time></trkpt><trkpt lat="42.42736849286419" lon="14.160256547473159"><ele>18.5</ele><time>2026-05-01T14:20:16Z</time></trkpt><trkpt lat="42.427493157882864" lon="14.16036107425584"><ele>18.25</ele><time>2026-05-01T14:20:17Z</time></trkpt><trkpt lat="42.42760923471919" lon="14.160453718554463"><ele>18.0</ele><time>2026-05-01T14:20:18Z</time></trkpt><trkpt lat="42.42774581917268" lon="14.160578975053738"><ele>18.0</ele><time>2026-05-01T14:20:19Z</time></trkpt><trkpt lat="42.42786754674527" lon="14.160705656318202"><ele>18.0</ele><time>2026-05-01T14:20:20Z</time></trkpt><trkpt lat="42.42798779373469" lon="14.160826799188678"><ele>18.0</ele><time>2026-05-01T14:20:21Z</time></trkpt><trkpt lat="42.428091061745974" lon="14.160936825954378"><ele>18.0</ele><time>2026-05-01T14:20:22Z</time></trkpt><trkpt lat="42.428187420450264" lon="14.16103810721564"><ele>17.75</ele><time>2026-05-01T14:20:23Z</time></trkpt><trkpt lat="42.42827856917679" lon="14.161130552936918"><ele>17.5</ele><time>2026-05-01T14:20:24Z</time></trkpt><trkpt lat="42.42837353707477" lon="14.161226924389624"><ele>17.25</ele><time>2026-05-01T14:20:25Z</time></trkpt><trkpt lat="42.428467626092555" lon="14.161319036744414"><ele>17.0</ele><time>2026-05-01T14:20:26Z</time></trkpt><trkpt lat="42.42855635783701" lon="14.161397554232899"><ele>17.0</ele><time>2026-05-01T14:20:27Z</time></trkpt><trkpt lat="42.428648723012" lon="14.161480583738749"><ele>17.0</ele><time>2026-05-01T14:20:28Z</time></trkpt><trkpt lat="42.428740983871904" lon="14.161570800771326"><ele>17.0</ele><time>2026-05-01T14:20:29Z</time></trkpt><trkpt lat="42.428836024764585" lon="14.16166823443752"><ele>17.0</ele><time>2026-05-01T14:20:30Z</time></trkpt><trkpt lat="42.42893715045069" lon="14.16176900113908"><ele>19.5</ele><time>2026-05-01T14:20:31Z</time></trkpt><trkpt lat="42.429038331294215" lon="14.161873358958362"><ele>22.0</ele><time>2026-05-01T14:20:32Z</time></trkpt><trkpt lat="42.42914044413442" lon="14.161982509050848"><ele>24.5</ele><time>2026-05-01T14:20:33Z</time></trkpt><trkpt lat="42.42924256811992" lon="14.162091082792767"><ele>27.0</ele><time>2026-05-01T14:20:34Z</time></trkpt><trkpt lat="42.42934563489373" lon="14.162192755770405"><ele>27.0</ele><time>2026-05-01T14:20:35Z</time></trkpt><trkpt lat="42.42944354780024" lon="14.16228913140095"><ele>27.0</ele><time>2026-05-01T14:20:36Z</time></trkpt><trkpt lat="42.42954117655025" lon="14.162385443321979"><ele>27.0</ele><time>2026-05-01T14:20:36.999Z</time></trkpt><trkpt lat="42.42963544439089" lon="14.162471284467212"><ele>27.0</ele><time>2026-05-01T14:20:37.999Z</time></trkpt><trkpt lat="42.42973262185321" lon="14.162553772214615"><ele>25.5</ele><time>2026-05-01T14:20:38.999Z</time></trkpt><trkpt lat="42.429841650858684" lon="14.162633502436242"><ele>24.0</ele><time>2026-05-01T14:20:39.999Z</time></trkpt><trkpt lat="42.42996268593647" lon="14.16270249214098"><ele>22.5</ele><time>2026-05-01T14:20:40.999Z</time></trkpt><trkpt lat="42.43008170310289" lon="14.162751315890732"><ele>21.0</ele><time>2026-05-01T14:20:41.999Z</time></trkpt><trkpt lat="42.430198977934545" lon="14.162785160414801"><ele>21.0</ele><time>2026-05-01T14:20:42.999Z</time></trkpt><trkpt lat="42.43032062003591" lon="14.162799838586094"><ele>21.0</ele><time>2026-05-01T14:20:43.999Z</time></trkpt><trkpt lat="42.430444302746764" lon="14.162820511821911"><ele>21.0</ele><time>2026-05-01T14:20:44.999Z</time></trkpt><trkpt lat="42.43056971030138" lon="14.162833436356856"><ele>21.0</ele><time>2026-05-01T14:20:45.999Z</time></trkpt><trkpt lat="42.43068521327692" lon="14.162846659365437"><ele>21.200000000000003</ele><time>2026-05-01T14:20:46.999Z</time></trkpt><trkpt lat="42.43079777446982" lon="14.16285894064422"><ele>21.400000000000002</ele><time>2026-05-01T14:20:47.999Z</time></trkpt><trkpt lat="42.43089244970793" lon="14.162872254730637"><ele>21.6</ele><time>2026-05-01T14:20:48.999Z</time></trkpt><trkpt lat="42.430977256126944" lon="14.162885185065297"><ele>21.8</ele><time>2026-05-01T14:20:49.999Z</time></trkpt><trkpt lat="42.43104951743815" lon="14.162895669591697"><ele>22.0</ele><time>2026-05-01T14:20:50.999Z</time></trkpt><trkpt lat="42.43114976685249" lon="14.162908007787996"><ele>22.0</ele><time>2026-05-01T14:20:52.999Z</time></trkpt><trkpt lat="42.43122731772926" lon="14.162903263284816"><ele>22.0</ele><time>2026-05-01T14:20:54.999Z</time></trkpt><trkpt lat="42.43128806528139" lon="14.162837789356228"><ele>22.0</ele><time>2026-05-01T14:20:56.999Z</time></trkpt><trkpt lat="42.43128440068395" lon="14.16270955463064"><ele>22.0</ele><time>2026-05-01T14:20:58.999Z</time></trkpt><trkpt lat="42.43125749674646" lon="14.162628583904382"><ele>22.0</ele><time>2026-05-01T14:20:59.999Z</time></trkpt><trkpt lat="42.43122039783664" lon="14.162521314140596"><ele>22.0</ele><time>2026-05-01T14:21:00.999Z</time></trkpt><trkpt lat="42.431199068592086" lon="14.162381678424005"><ele>22.25</ele><time>2026-05-01T14:21:01.999Z</time></trkpt><trkpt lat="42.431157195297324" lon="14.162237640750677"><ele>22.5</ele><time>2026-05-01T14:21:02.999Z</time></trkpt><trkpt lat="42.431109252250764" lon="14.162073654147337"><ele>22.75</ele><time>2026-05-01T14:21:03.999Z</time></trkpt><trkpt lat="42.43106116140457" lon="14.16190940441285"><ele>23.0</ele><time>2026-05-01T14:21:04.999Z</time></trkpt><trkpt lat="42.4309988541325" lon="14.161751588087368"><ele>23.0</ele><time>2026-05-01T14:21:05.999Z</time></trkpt><trkpt lat="42.43095955570362" lon="14.161577944427613"><ele>23.0</ele><time>2026-05-01T14:21:06.999Z</time></trkpt><trkpt lat="42.43094569731393" lon="14.161411155566169"><ele>23.0</ele><time>2026-05-01T14:21:07.999Z</time></trkpt><trkpt lat="42.430914439954805" lon="14.161245107191792"><ele>23.0</ele><time>2026-05-01T14:21:08.999Z</time></trkpt><trkpt lat="42.43091368869577" lon="14.161076802462823"><ele>24.0</ele><time>2026-05-01T14:21:09.999Z</time></trkpt><trkpt lat="42.43095622943249" lon="14.16091363670448"><ele>25.0</ele><time>2026-05-01T14:21:10.999Z</time></trkpt><trkpt lat="42.43101620713023" lon="14.160758828665225"><ele>26.0</ele><time>2026-05-01T14:21:11.999Z</time></trkpt><trkpt lat="42.431084459254826" lon="14.16058810410067"><ele>27.0</ele><time>2026-05-01T14:21:12.999Z</time></trkpt><trkpt lat="42.43115403002323" lon="14.160418372425593"><ele>27.0</ele><time>2026-05-01T14:21:13.999Z</time></trkpt><trkpt lat="42.43122567179774" lon="14.160243588042057"><ele>27.0</ele><time>2026-05-01T14:21:14.999Z</time></trkpt><trkpt lat="42.431299752875866" lon="14.16006285392305"><ele>27.0</ele><time>2026-05-01T14:21:15.999Z</time></trkpt><trkpt lat="42.43138154998878" lon="14.159862338398435"><ele>28.666666666666664</ele><time>2026-05-01T14:21:16.999Z</time></trkpt><trkpt lat="42.431465424919296" lon="14.159660123512054"><ele>30.333333333333332</ele><time>2026-05-01T14:21:17.999Z</time></trkpt><trkpt lat="42.431534987950364" lon="14.159456882459235"><ele>32.0</ele><time>2026-05-01T14:21:18.999Z</time></trkpt><trkpt lat="42.43160688170849" lon="14.159288278395852"><ele>32.0</ele><time>2026-05-01T14:21:19.999Z</time></trkpt><trkpt lat="42.43167982422621" lon="14.159108260765613"><ele>32.0</ele><time>2026-05-01T14:21:20.999Z</time></trkpt><trkpt lat="42.431756950662184" lon="14.158937660231096"><ele>32.0</ele><time>2026-05-01T14:21:21.999Z</time></trkpt><trkpt lat="42.43182764760145" lon="14.158769180148864"><ele>32.0</ele><time>2026-05-01T14:21:23Z</time></trkpt><trkpt lat="42.43189169828512" lon="14.15860149493461"><ele>32.25</ele><time>2026-05-01T14:21:24Z</time></trkpt><trkpt lat="42.43195669365848" lon="14.158437025136392"><ele>32.5</ele><time>2026-05-01T14:21:25Z</time></trkpt><trkpt lat="42.432019862050055" lon="14.158276062265328"><ele>32.75</ele><time>2026-05-01T14:21:26Z</time></trkpt><trkpt lat="42.43208674975423" lon="14.15810946698545"><ele>33.0</ele><time>2026-05-01T14:21:27Z</time></trkpt><trkpt lat="42.43215473614281" lon="14.15794996227085"><ele>35.0</ele><time>2026-05-01T14:21:28Z</time></trkpt><trkpt lat="42.43222142543576" lon="14.157794611560481"><ele>37.0</ele><time>2026-05-01T14:21:29Z</time></trkpt><trkpt lat="42.43229264663446" lon="14.157645227219522"><ele>39.0</ele><time>2026-05-01T14:21:30Z</time></trkpt><trkpt lat="42.43237035991445" lon="14.157499030098679"><ele>41.0</ele><time>2026-05-01T14:21:31Z</time></trkpt><trkpt lat="42.43245810181299" lon="14.157365055376863"><ele>42.0</ele><time>2026-05-01T14:21:32Z</time></trkpt><trkpt lat="42.432559118089486" lon="14.157238105160065"><ele>43.0</ele><time>2026-05-01T14:21:33Z</time></trkpt><trkpt lat="42.43267433008923" lon="14.15711931169199"><ele>44.0</ele><time>2026-05-01T14:21:34Z</time></trkpt><trkpt lat="42.43279390346782" lon="14.157006099972183"><ele>45.0</ele><time>2026-05-01T14:21:35Z</time></trkpt><trkpt lat="42.43292205183948" lon="14.156895897398641"><ele>46.66666666666667</ele><time>2026-05-01T14:21:36Z</time></trkpt><trkpt lat="42.43305682539387" lon="14.156785552747083"><ele>48.333333333333336</ele><time>2026-05-01T14:21:37Z</time></trkpt><trkpt lat="42.433184000101924" lon="14.156683006373926"><ele>50.0</ele><time>2026-05-01T14:21:38Z</time></trkpt><trkpt lat="42.433311302767116" lon="14.156579598641157"><ele>50.5</ele><time>2026-05-01T14:21:39Z</time></trkpt><trkpt lat="42.4334384103688" lon="14.156477838001223"><ele>51.0</ele><time>2026-05-01T14:21:40Z</time></trkpt><trkpt lat="42.43356446333359" lon="14.156380783067409"><ele>51.5</ele><time>2026-05-01T14:21:41Z</time></trkpt><trkpt lat="42.43368769726809" lon="14.15628420140681"><ele>52.0</ele><time>2026-05-01T14:21:42Z</time></trkpt><trkpt lat="42.43382169966336" lon="14.156182704427769"><ele>52.666666666666664</ele><time>2026-05-01T14:21:43Z</time></trkpt><trkpt lat="42.4339519044607" lon="14.156083323471792"><ele>53.33333333333333</ele><time>2026-05-01T14:21:44Z</time></trkpt><trkpt lat="42.43408458769767" lon="14.155980481557842"><ele>54.0</ele><time>2026-05-01T14:21:45Z</time></trkpt><trkpt lat="42.434218723508344" lon="14.155880996782377"><ele>54.0</ele><time>2026-05-01T14:21:46Z</time></trkpt><trkpt lat="42.434358831170904" lon="14.155789284006685"><ele>54.0</ele><time>2026-05-01T14:21:47Z</time></trkpt><trkpt lat="42.434493324482624" lon="14.155687847376358"><ele>54.0</ele><time>2026-05-01T14:21:48Z</time></trkpt><trkpt lat="42.43463323257192" lon="14.155583825807804"><ele>55.66666666666667</ele><time>2026-05-01T14:21:49Z</time></trkpt><trkpt lat="42.434773286864925" lon="14.155476587945325"><ele>57.333333333333336</ele><time>2026-05-01T14:21:50Z</time></trkpt><trkpt lat="42.434911435844235" lon="14.155370671500387"><ele>59.0</ele><time>2026-05-01T14:21:51Z</time></trkpt><trkpt lat="42.43505244115518" lon="14.155263346222018"><ele>59.0</ele><time>2026-05-01T14:21:52Z</time></trkpt><trkpt lat="42.43519411351196" lon="14.15515985959847"><ele>59.0</ele><time>2026-05-01T14:21:53Z</time></trkpt><trkpt lat="42.43534008288565" lon="14.155051291690693"><ele>59.0</ele><time>2026-05-01T14:21:54Z</time></trkpt><trkpt lat="42.435480530820826" lon="14.154942583548834"><ele>60.333333333333336</ele><time>2026-05-01T14:21:55Z</time></trkpt><trkpt lat="42.43562277824548" lon="14.15483179392352"><ele>61.66666666666667</ele><time>2026-05-01T14:21:56Z</time></trkpt><trkpt lat="42.435767650186" lon="14.154718525446967"><ele>63.0</ele><time>2026-05-01T14:21:57Z</time></trkpt><trkpt lat="42.43591710410851" lon="14.154603020786434"><ele>63.0</ele><time>2026-05-01T14:21:58Z</time></trkpt><trkpt lat="42.436058104667964" lon="14.154493983788756"><ele>63.0</ele><time>2026-05-01T14:21:59Z</time></trkpt><trkpt lat="42.43620533549861" lon="14.154378657409117"><ele>63.0</ele><time>2026-05-01T14:22:00Z</time></trkpt><trkpt lat="42.436340973273744" lon="14.154264032942908"><ele>63.33333333333333</ele><time>2026-05-01T14:22:01Z</time></trkpt><trkpt lat="42.43647739496853" lon="14.154146071294113"><ele>63.666666666666664</ele><time>2026-05-01T14:22:02Z</time></trkpt><trkpt lat="42.43661255201095" lon="14.154033044732959"><ele>64.0</ele><time>2026-05-01T14:22:03Z</time></trkpt><trkpt lat="42.43674567826695" lon="14.153920364505366"><ele>66.0</ele><time>2026-05-01T14:22:04Z</time></trkpt><trkpt lat="42.43687621666848" lon="14.153803897509011"><ele>68.0</ele><time>2026-05-01T14:22:05Z</time></trkpt><trkpt lat="42.43700199663344" lon="14.153694585332355"><ele>70.0</ele><time>2026-05-01T14:22:06Z</time></trkpt><trkpt lat="42.43713285090384" lon="14.153581963350675"><ele>69.75</ele><time>2026-05-01T14:22:07Z</time></trkpt><trkpt lat="42.43725802795335" lon="14.153478388545382"><ele>69.5</ele><time>2026-05-01T14:22:08Z</time></trkpt><trkpt lat="42.437383875112914" lon="14.153384622478061"><ele>69.25</ele><time>2026-05-01T14:22:09Z</time></trkpt><trkpt lat="42.43751351722772" lon="14.153310244378192"><ele>69.0</ele><time>2026-05-01T14:22:10Z</time></trkpt><trkpt lat="42.4376491695842" lon="14.153260826960917"><ele>69.0</ele><time>2026-05-01T14:22:11Z</time></trkpt><trkpt lat="42.43779351231109" lon="14.153232212371474"><ele>69.0</ele><time>2026-05-01T14:22:12Z</time></trkpt><trkpt lat="42.437931589954914" lon="14.1532037480608"><ele>69.0</ele><time>2026-05-01T14:22:13Z</time></trkpt><trkpt lat="42.43806936644527" lon="14.15316163403259"><ele>69.0</ele><time>2026-05-01T14:22:14Z</time></trkpt><trkpt lat="42.438206556556416" lon="14.153103433897275"><ele>67.0</ele><time>2026-05-01T14:22:15Z</time></trkpt><trkpt lat="42.43834525757397" lon="14.153024399630091"><ele>65.0</ele><time>2026-05-01T14:22:16Z</time></trkpt><trkpt lat="42.438482491608916" lon="14.15291773139017"><ele>63.0</ele><time>2026-05-01T14:22:17Z</time></trkpt><trkpt lat="42.438616973202656" lon="14.15278811496292"><ele>63.0</ele><time>2026-05-01T14:22:18Z</time></trkpt><trkpt lat="42.4387481541272" lon="14.152639787618417"><ele>63.0</ele><time>2026-05-01T14:22:19Z</time></trkpt><trkpt lat="42.438875735387455" lon="14.152471685705153"><ele>63.0</ele><time>2026-05-01T14:22:20Z</time></trkpt><trkpt lat="42.438993862967614" lon="14.152301462336704"><ele>66.33333333333333</ele><time>2026-05-01T14:22:21Z</time></trkpt><trkpt lat="42.43910594071945" lon="14.15213001038912"><ele>69.66666666666666</ele><time>2026-05-01T14:22:22Z</time></trkpt><trkpt lat="42.43921466512214" lon="14.15196382545425"><ele>73.0</ele><time>2026-05-01T14:22:23Z</time></trkpt><trkpt lat="42.439334661906294" lon="14.15180235556634"><ele>73.0</ele><time>2026-05-01T14:22:24Z</time></trkpt><trkpt lat="42.43946617864685" lon="14.15167543023513"><ele>73.0</ele><time>2026-05-01T14:22:25Z</time></trkpt><trkpt lat="42.43960372092554" lon="14.151575871776215"><ele>73.0</ele><time>2026-05-01T14:22:26Z</time></trkpt><trkpt lat="42.43975607111738" lon="14.151495928302207"><ele>74.0</ele><time>2026-05-01T14:22:27Z</time></trkpt><trkpt lat="42.43991188203463" lon="14.151421634891234"><ele>75.0</ele><time>2026-05-01T14:22:28Z</time></trkpt><trkpt lat="42.44006725463587" lon="14.151354384972166"><ele>76.0</ele><time>2026-05-01T14:22:29Z</time></trkpt><trkpt lat="42.440214797657646" lon="14.151278382706213"><ele>76.0</ele><time>2026-05-01T14:22:30Z</time></trkpt><trkpt lat="42.44036525693716" lon="14.151182163544425"><ele>76.0</ele><time>2026-05-01T14:22:31Z</time></trkpt><trkpt lat="42.44050194138541" lon="14.15106951118731"><ele>76.0</ele><time>2026-05-01T14:22:32Z</time></trkpt><trkpt lat="42.44064841035493" lon="14.150956542197349"><ele>80.0</ele><time>2026-05-01T14:22:33Z</time></trkpt><trkpt lat="42.44079424359208" lon="14.150869941837705"><ele>84.0</ele><time>2026-05-01T14:22:34Z</time></trkpt><trkpt lat="42.44095784026782" lon="14.150813204800773"><ele>88.0</ele><time>2026-05-01T14:22:35Z</time></trkpt><trkpt lat="42.441115133493795" lon="14.150821151630987"><ele>88.0</ele><time>2026-05-01T14:22:36Z</time></trkpt><trkpt lat="42.44126258615109" lon="14.15085272240037"><ele>88.0</ele><time>2026-05-01T14:22:37Z</time></trkpt><trkpt lat="42.44140947392896" lon="14.150909931385964"><ele>88.0</ele><time>2026-05-01T14:22:38Z</time></trkpt><trkpt lat="42.44157704858562" lon="14.150957289192636"><ele>89.0</ele><time>2026-05-01T14:22:39Z</time></trkpt><trkpt lat="42.44173325994082" lon="14.15098806369308"><ele>90.0</ele><time>2026-05-01T14:22:40Z</time></trkpt><trkpt lat="42.44190863474154" lon="14.150967750617113"><ele>91.0</ele><time>2026-05-01T14:22:41Z</time></trkpt><trkpt lat="42.442077941314324" lon="14.150898290807417"><ele>91.75</ele><time>2026-05-01T14:22:42Z</time></trkpt><trkpt lat="42.442223359888814" lon="14.15080323571735"><ele>92.5</ele><time>2026-05-01T14:22:43Z</time></trkpt><trkpt lat="42.44233579466055" lon="14.150678714070859"><ele>93.25</ele><time>2026-05-01T14:22:44Z</time></trkpt><trkpt lat="42.442400033875806" lon="14.150523477659043"><ele>94.0</ele><time>2026-05-01T14:22:45Z</time></trkpt><trkpt lat="42.44243346750078" lon="14.15033741613874"><ele>94.0</ele><time>2026-05-01T14:22:46Z</time></trkpt><trkpt lat="42.44246496439803" lon="14.150128399550052"><ele>94.0</ele><time>2026-05-01T14:22:47Z</time></trkpt><trkpt lat="42.44249581146383" lon="14.149906027652841"><ele>94.0</ele><time>2026-05-01T14:22:48Z</time></trkpt><trkpt lat="42.442543520572144" lon="14.149693136493513"><ele>95.33333333333333</ele><time>2026-05-01T14:22:49Z</time></trkpt><trkpt lat="42.442605045590874" lon="14.149468629361962"><ele>96.66666666666666</ele><time>2026-05-01T14:22:50Z</time></trkpt><trkpt lat="42.44267240015312" lon="14.149255734237164"><ele>98.0</ele><time>2026-05-01T14:22:51Z</time></trkpt><trkpt lat="42.44275731375873" lon="14.149047205370392"><ele>100.0</ele><time>2026-05-01T14:22:52Z</time></trkpt><trkpt lat="42.44282632188854" lon="14.148867367861456"><ele>102.0</ele><time>2026-05-01T14:22:53Z</time></trkpt><trkpt lat="42.44291387961054" lon="14.148691706544215"><ele>104.0</ele><time>2026-05-01T14:22:54Z</time></trkpt><trkpt lat="42.4430177362925" lon="14.148530158923567"><ele>104.0</ele><time>2026-05-01T14:22:55Z</time></trkpt><trkpt lat="42.443125991247754" lon="14.148381082144484"><ele>104.0</ele><time>2026-05-01T14:22:55.999Z</time></trkpt><trkpt lat="42.44324278866193" lon="14.148224271558634"><ele>104.0</ele><time>2026-05-01T14:22:56.999Z</time></trkpt><trkpt lat="42.44335732663019" lon="14.148058781344101"><ele>106.5</ele><time>2026-05-01T14:22:57.999Z</time></trkpt><trkpt lat="42.44345900295644" lon="14.147906973192633"><ele>109.0</ele><time>2026-05-01T14:22:58.999Z</time></trkpt><trkpt lat="42.44356036110798" lon="14.147773723448612"><ele>111.5</ele><time>2026-05-01T14:22:59.999Z</time></trkpt><trkpt lat="42.443665525586596" lon="14.147652925980946"><ele>114.0</ele><time>2026-05-01T14:23:00.999Z</time></trkpt><trkpt lat="42.44380429225557" lon="14.1475717197429"><ele>114.0</ele><time>2026-05-01T14:23:01.999Z</time></trkpt><trkpt lat="42.44394808096915" lon="14.147505270904123"><ele>114.0</ele><time>2026-05-01T14:23:02.999Z</time></trkpt><trkpt lat="42.444101679525964" lon="14.147447157480583"><ele>114.0</ele><time>2026-05-01T14:23:03.999Z</time></trkpt><trkpt lat="42.44425287459309" lon="14.147417440409624"><ele>116.5</ele><time>2026-05-01T14:23:04.999Z</time></trkpt><trkpt lat="42.44438394664106" lon="14.147363375203117"><ele>119.0</ele><time>2026-05-01T14:23:05.999Z</time></trkpt><trkpt lat="42.44447797190292" lon="14.14725917037753"><ele>121.5</ele><time>2026-05-01T14:23:06.999Z</time></trkpt><trkpt lat="42.44454669539144" lon="14.14711345971352"><ele>124.0</ele><time>2026-05-01T14:23:07.999Z</time></trkpt><trkpt lat="42.4445991351465" lon="14.146952734536745"><ele>124.5</ele><time>2026-05-01T14:23:08.999Z</time></trkpt><trkpt lat="42.44466077645678" lon="14.146811017166302"><ele>125.0</ele><time>2026-05-01T14:23:09.999Z</time></trkpt><trkpt lat="42.44474808215838" lon="14.14668045708403"><ele>125.5</ele><time>2026-05-01T14:23:10.999Z</time></trkpt><trkpt lat="42.44485210937745" lon="14.146532146663592"><ele>126.0</ele><time>2026-05-01T14:23:11.999Z</time></trkpt><trkpt lat="42.44495206332949" lon="14.146362238991582"><ele>126.0</ele><time>2026-05-01T14:23:12.999Z</time></trkpt><trkpt lat="42.44505755056712" lon="14.146161765865552"><ele>126.0</ele><time>2026-05-01T14:23:13.999Z</time></trkpt><trkpt lat="42.445158485364324" lon="14.145972789585972"><ele>126.0</ele><time>2026-05-01T14:23:14.999Z</time></trkpt><trkpt lat="42.44525077241484" lon="14.145803919215517"><ele>124.5</ele><time>2026-05-01T14:23:15.999Z</time></trkpt><trkpt lat="42.44535034659737" lon="14.145643878077154"><ele>123.0</ele><time>2026-05-01T14:23:16.999Z</time></trkpt><trkpt lat="42.44544397735527" lon="14.145498512366478"><ele>121.5</ele><time>2026-05-01T14:23:17.999Z</time></trkpt><trkpt lat="42.44553855816995" lon="14.145364123324176"><ele>120.0</ele><time>2026-05-01T14:23:18.999Z</time></trkpt><trkpt lat="42.44565112581676" lon="14.14523156391466"><ele>120.0</ele><time>2026-05-01T14:23:19.999Z</time></trkpt><trkpt lat="42.44578207716448" lon="14.145109448559685"><ele>120.0</ele><time>2026-05-01T14:23:20.999Z</time></trkpt><trkpt lat="42.44593087120617" lon="14.145018126310495"><ele>120.0</ele><time>2026-05-01T14:23:21.999Z</time></trkpt><trkpt lat="42.44608609691708" lon="14.144887083703564"><ele>120.33333333333334</ele><time>2026-05-01T14:23:22.999Z</time></trkpt><trkpt lat="42.44625684276823" lon="14.14479254405093"><ele>120.66666666666667</ele><time>2026-05-01T14:23:23.999Z</time></trkpt><trkpt lat="42.446429310398344" lon="14.144714311824066"><ele>121.0</ele><time>2026-05-01T14:23:24.999Z</time></trkpt><trkpt lat="42.44661453298626" lon="14.144675232864104"><ele>121.0</ele><time>2026-05-01T14:23:25.999Z</time></trkpt><trkpt lat="42.44679949782141" lon="14.144626714083147"><ele>121.0</ele><time>2026-05-01T14:23:26.999Z</time></trkpt><trkpt lat="42.446974642494816" lon="14.144563403758141"><ele>121.0</ele><time>2026-05-01T14:23:28Z</time></trkpt><trkpt lat="42.44713635500333" lon="14.14452569171856"><ele>122.25</ele><time>2026-05-01T14:23:29Z</time></trkpt><trkpt lat="42.447267082643435" lon="14.144497674969081"><ele>123.5</ele><time>2026-05-01T14:23:30Z</time></trkpt><trkpt lat="42.44736990866055" lon="14.144519069620445"><ele>124.75</ele><time>2026-05-01T14:23:31Z</time></trkpt><trkpt lat="42.44746893384105" lon="14.144587516442076"><ele>126.0</ele><time>2026-05-01T14:23:32Z</time></trkpt><trkpt lat="42.4475377770145" lon="14.14469518644187"><ele>126.0</ele><time>2026-05-01T14:23:33Z</time></trkpt><trkpt lat="42.447568916537435" lon="14.14483234238462"><ele>126.0</ele><time>2026-05-01T14:23:34Z</time></trkpt><trkpt lat="42.44757147251115" lon="14.145002005269305"><ele>126.0</ele><time>2026-05-01T14:23:35Z</time></trkpt><trkpt lat="42.447562932173426" lon="14.145185453945164"><ele>126.0</ele><time>2026-05-01T14:23:36Z</time></trkpt><trkpt lat="42.44755975031227" lon="14.145354089313251"><ele>126.25</ele><time>2026-05-01T14:23:37Z</time></trkpt><trkpt lat="42.44756905031965" lon="14.145547373903277"><ele>126.5</ele><time>2026-05-01T14:23:38Z</time></trkpt><trkpt lat="42.44759388612309" lon="14.145706447074298"><ele>126.75</ele><time>2026-05-01T14:23:39Z</time></trkpt><trkpt lat="42.44764579641604" lon="14.145847704613889"><ele>127.0</ele><time>2026-05-01T14:23:40Z</time></trkpt><trkpt lat="42.447727079427416" lon="14.14597742163413"><ele>127.5</ele><time>2026-05-01T14:23:41Z</time></trkpt><trkpt lat="42.44783724645736" lon="14.146099618972414"><ele>128.0</ele><time>2026-05-01T14:23:42Z</time></trkpt><trkpt lat="42.44795623749945" lon="14.146207805513766"><ele>128.5</ele><time>2026-05-01T14:23:43Z</time></trkpt><trkpt lat="42.44809633760755" lon="14.1463022813881"><ele>129.0</ele><time>2026-05-01T14:23:44Z</time></trkpt><trkpt lat="42.44825570233682" lon="14.146371450472895"><ele>133.33333333333334</ele><time>2026-05-01T14:23:45Z</time></trkpt><trkpt lat="42.44843047558542" lon="14.14642715881748"><ele>137.66666666666669</ele><time>2026-05-01T14:23:46Z</time></trkpt><trkpt lat="42.448586258236745" lon="14.146451646007932"><ele>142.0</ele><time>2026-05-01T14:23:47Z</time></trkpt><trkpt lat="42.4487388576506" lon="14.146442931056564"><ele>142.5</ele><time>2026-05-01T14:23:48Z</time></trkpt><trkpt lat="42.448880233806655" lon="14.146402844487636"><ele>143.0</ele><time>2026-05-01T14:23:49Z</time></trkpt><trkpt lat="42.449005021603924" lon="14.146328020356249"><ele>143.5</ele><time>2026-05-01T14:23:50Z</time></trkpt><trkpt lat="42.449113135144486" lon="14.146207147762546"><ele>144.0</ele><time>2026-05-01T14:23:51Z</time></trkpt><trkpt lat="42.449206942723606" lon="14.146061592702432"><ele>144.0</ele><time>2026-05-01T14:23:52Z</time></trkpt><trkpt lat="42.44929625163568" lon="14.145895087294106"><ele>144.0</ele><time>2026-05-01T14:23:53Z</time></trkpt><trkpt lat="42.449393292857295" lon="14.145714586600212"><ele>144.0</ele><time>2026-05-01T14:23:54Z</time></trkpt><trkpt lat="42.44949749902925" lon="14.145522524497931"><ele>141.33333333333334</ele><time>2026-05-01T14:23:55Z</time></trkpt><trkpt lat="42.44959919833486" lon="14.145338452675752"><ele>138.66666666666669</ele><time>2026-05-01T14:23:56Z</time></trkpt><trkpt lat="42.44968713422347" lon="14.145124662867483"><ele>136.0</ele><time>2026-05-01T14:23:57Z</time></trkpt><trkpt lat="42.4497755990497" lon="14.144902968849433"><ele>138.0</ele><time>2026-05-01T14:23:58Z</time></trkpt><trkpt lat="42.44984463032544" lon="14.144691555975058"><ele>140.0</ele><time>2026-05-01T14:23:59Z</time></trkpt><trkpt lat="42.44990710467362" lon="14.144477173884917"><ele>142.0</ele><time>2026-05-01T14:24:00Z</time></trkpt><trkpt lat="42.449946493802436" lon="14.144265096414369"><ele>140.66666666666669</ele><time>2026-05-01T14:24:01Z</time></trkpt><trkpt lat="42.44996111921186" lon="14.144037495297914"><ele>139.33333333333334</ele><time>2026-05-01T14:24:02Z</time></trkpt><trkpt lat="42.44995082582045" lon="14.143793292196086"><ele>138.0</ele><time>2026-05-01T14:24:03Z</time></trkpt><trkpt lat="42.449933634380784" lon="14.143551840895492"><ele>138.0</ele><time>2026-05-01T14:24:04Z</time></trkpt><trkpt lat="42.44991346535614" lon="14.143327182698979"><ele>138.0</ele><time>2026-05-01T14:24:05Z</time></trkpt><trkpt lat="42.44988935535215" lon="14.143110632372913"><ele>138.0</ele><time>2026-05-01T14:24:06Z</time></trkpt><trkpt lat="42.44984032248833" lon="14.142879492818812"><ele>137.66666666666666</ele><time>2026-05-01T14:24:07Z</time></trkpt><trkpt lat="42.44977494022015" lon="14.14267109283496"><ele>137.33333333333331</ele><time>2026-05-01T14:24:08Z</time></trkpt><trkpt lat="42.449702839211746" lon="14.142494623589345"><ele>137.0</ele><time>2026-05-01T14:24:09Z</time></trkpt><trkpt lat="42.44963860352474" lon="14.14233172160137"><ele>137.6</ele><time>2026-05-01T14:24:10Z</time></trkpt><trkpt lat="42.44958528028973" lon="14.142188861885304"><ele>138.2</ele><time>2026-05-01T14:24:11Z</time></trkpt><trkpt lat="42.44955129566168" lon="14.142053824882577"><ele>138.8</ele><time>2026-05-01T14:24:12Z</time></trkpt><trkpt lat="42.44955033809671" lon="14.141911573181286"><ele>139.4</ele><time>2026-05-01T14:24:13Z</time></trkpt><trkpt lat="42.44959433516698" lon="14.141784167612093"><ele>140.0</ele><time>2026-05-01T14:24:14Z</time></trkpt><trkpt lat="42.449669795363455" lon="14.141687594623749"><ele>140.0</ele><time>2026-05-01T14:24:15Z</time></trkpt><trkpt lat="42.44974664953144" lon="14.141561704442463"><ele>140.0</ele><time>2026-05-01T14:24:16Z</time></trkpt><trkpt lat="42.44990382527167" lon="14.141531270427699"><ele>140.0</ele><time>2026-05-01T14:24:17Z</time></trkpt><trkpt lat="42.450035007350166" lon="14.14145632604942"><ele>140.0</ele><time>2026-05-01T14:24:18Z</time></trkpt><trkpt lat="42.45017779397496" lon="14.141386762760861"><ele>141.66666666666666</ele><time>2026-05-01T14:24:19Z</time></trkpt><trkpt lat="42.45033487582792" lon="14.141324404644134"><ele>143.33333333333334</ele><time>2026-05-01T14:24:20Z</time></trkpt><trkpt lat="42.450497209565725" lon="14.14125821108197"><ele>145.0</ele><time>2026-05-01T14:24:21Z</time></trkpt><trkpt lat="42.45065671701165" lon="14.141195348013195"><ele>146.66666666666669</ele><time>2026-05-01T14:24:22Z</time></trkpt><trkpt lat="42.45083617718273" lon="14.141138645011885"><ele>148.33333333333334</ele><time>2026-05-01T14:24:23Z</time></trkpt><trkpt lat="42.451018225582516" lon="14.141076750907095"><ele>150.0</ele><time>2026-05-01T14:24:24Z</time></trkpt><trkpt lat="42.451202584974126" lon="14.141017216637481"><ele>150.66666666666666</ele><time>2026-05-01T14:24:25Z</time></trkpt><trkpt lat="42.451390132351094" lon="14.140965800825796"><ele>151.33333333333331</ele><time>2026-05-01T14:24:26Z</time></trkpt><trkpt lat="42.4515636712806" lon="14.140920936175213"><ele>152.0</ele><time>2026-05-01T14:24:27Z</time></trkpt><trkpt lat="42.45173429910901" lon="14.140878924861145"><ele>152.0</ele><time>2026-05-01T14:24:28Z</time></trkpt><trkpt lat="42.451906836838106" lon="14.140845856996522"><ele>152.0</ele><time>2026-05-01T14:24:29Z</time></trkpt><trkpt lat="42.45208801582831" lon="14.140816344616535"><ele>152.0</ele><time>2026-05-01T14:24:30Z</time></trkpt><trkpt lat="42.45225691424061" lon="14.140780642705593"><ele>152.0</ele><time>2026-05-01T14:24:31Z</time></trkpt><trkpt lat="42.452427597254555" lon="14.140744232288956"><ele>152.0</ele><time>2026-05-01T14:24:32Z</time></trkpt><trkpt lat="42.45260088440919" lon="14.14071020644489"><ele>152.0</ele><time>2026-05-01T14:24:33Z</time></trkpt><trkpt lat="42.45276842115838" lon="14.140669515018088"><ele>152.0</ele><time>2026-05-01T14:24:34Z</time></trkpt><trkpt lat="42.452910035176" lon="14.14063278189684"><ele>152.0</ele><time>2026-05-01T14:24:35Z</time></trkpt><trkpt lat="42.45300026884738" lon="14.140597442147557"><ele>152.0</ele><time>2026-05-01T14:24:36Z</time></trkpt><trkpt lat="42.45306595107403" lon="14.140574398421991"><ele>152.0</ele><time>2026-05-01T14:24:37Z</time></trkpt><trkpt lat="42.45313315883341" lon="14.140537422190196"><ele>152.0</ele><time>2026-05-01T14:24:38Z</time></trkpt><trkpt lat="42.4532382790311" lon="14.140479603486325"><ele>156.25</ele><time>2026-05-01T14:24:39Z</time></trkpt><trkpt lat="42.45336179852075" lon="14.140415509394293"><ele>160.5</ele><time>2026-05-01T14:24:40Z</time></trkpt><trkpt lat="42.45349001781483" lon="14.140331563660183"><ele>164.75</ele><time>2026-05-01T14:24:41Z</time></trkpt><trkpt lat="42.45363033073336" lon="14.140246463824687"><ele>169.0</ele><time>2026-05-01T14:24:42Z</time></trkpt><trkpt lat="42.45375858537088" lon="14.14016424510838"><ele>169.75</ele><time>2026-05-01T14:24:43Z</time></trkpt><trkpt lat="42.453871700821864" lon="14.14007308761711"><ele>170.5</ele><time>2026-05-01T14:24:44Z</time></trkpt><trkpt lat="42.45396429273467" lon="14.139940803936643"><ele>171.25</ele><time>2026-05-01T14:24:45Z</time></trkpt><trkpt lat="42.45404299482448" lon="14.139768642171406"><ele>172.0</ele><time>2026-05-01T14:24:46Z</time></trkpt><trkpt lat="42.45412464569911" lon="14.13956579790679"><ele>172.66666666666669</ele><time>2026-05-01T14:24:47Z</time></trkpt><trkpt lat="42.45421988237827" lon="14.139379952818002"><ele>173.33333333333334</ele><time>2026-05-01T14:24:48Z</time></trkpt><trkpt lat="42.45430839492801" lon="14.139202898999052"><ele>174.0</ele><time>2026-05-01T14:24:49Z</time></trkpt><trkpt lat="42.454398962302825" lon="14.1390397677285"><ele>173.75</ele><time>2026-05-01T14:24:50Z</time></trkpt><trkpt lat="42.45448850385881" lon="14.138876022487214"><ele>173.5</ele><time>2026-05-01T14:24:51Z</time></trkpt><trkpt lat="42.45457927464734" lon="14.138717150427455"><ele>173.25</ele><time>2026-05-01T14:24:52Z</time></trkpt><trkpt lat="42.45467160924141" lon="14.138562249222625"><ele>173.0</ele><time>2026-05-01T14:24:53Z</time></trkpt><trkpt lat="42.454764849443606" lon="14.138407644260026"><ele>173.0</ele><time>2026-05-01T14:24:54Z</time></trkpt><trkpt lat="42.45486574497413" lon="14.138250928122023"><ele>173.0</ele><time>2026-05-01T14:24:55Z</time></trkpt><trkpt lat="42.45495036656598" lon="14.138089929911521"><ele>173.0</ele><time>2026-05-01T14:24:56Z</time></trkpt><trkpt lat="42.45501770399199" lon="14.137932160599899"><ele>173.0</ele><time>2026-05-01T14:24:57Z</time></trkpt><trkpt lat="42.45505620538076" lon="14.137764522849956"><ele>173.0</ele><time>2026-05-01T14:24:58Z</time></trkpt><trkpt lat="42.45506573969975" lon="14.13757970962361"><ele>173.0</ele><time>2026-05-01T14:24:59Z</time></trkpt><trkpt lat="42.45505830811404" lon="14.13738024712168"><ele>173.0</ele><time>2026-05-01T14:25:00Z</time></trkpt><trkpt lat="42.45504426139048" lon="14.13718192754997"><ele>173.0</ele><time>2026-05-01T14:25:01Z</time></trkpt><trkpt lat="42.45503477425186" lon="14.1369863368015"><ele>173.0</ele><time>2026-05-01T14:25:02Z</time></trkpt><trkpt lat="42.45503192231207" lon="14.136810063064692"><ele>173.0</ele><time>2026-05-01T14:25:03Z</time></trkpt><trkpt lat="42.455028863182825" lon="14.136660470334279"><ele>173.0</ele><time>2026-05-01T14:25:04Z</time></trkpt><trkpt lat="42.455039647270475" lon="14.136534382907508"><ele>173.0</ele><time>2026-05-01T14:25:05Z</time></trkpt><trkpt lat="42.455076766942305" lon="14.136432564717643"><ele>173.0</ele><time>2026-05-01T14:25:06Z</time></trkpt><trkpt lat="42.45514017037801" lon="14.13637430792984"><ele>174.75</ele><time>2026-05-01T14:25:07Z</time></trkpt><trkpt lat="42.45524077467955" lon="14.136387175727856"><ele>176.5</ele><time>2026-05-01T14:25:08Z</time></trkpt><trkpt lat="42.455349219131776" lon="14.136345345250252"><ele>178.25</ele><time>2026-05-01T14:25:09Z</time></trkpt><trkpt lat="42.455469586861255" lon="14.136297409952084"><ele>180.0</ele><time>2026-05-01T14:25:10Z</time></trkpt><trkpt lat="42.45557786435288" lon="14.136234504083513"><ele>180.0</ele><time>2026-05-01T14:25:10.999Z</time></trkpt><trkpt lat="42.45568838836494" lon="14.136149728548801"><ele>180.0</ele><time>2026-05-01T14:25:11.999Z</time></trkpt><trkpt lat="42.455804765550845" lon="14.1360700784278"><ele>180.0</ele><time>2026-05-01T14:25:12.999Z</time></trkpt><trkpt lat="42.45592165527913" lon="14.135969117244"><ele>180.0</ele><time>2026-05-01T14:25:13.999Z</time></trkpt><trkpt lat="42.45603123280914" lon="14.135832314197579"><ele>184.66666666666669</ele><time>2026-05-01T14:25:14.999Z</time></trkpt><trkpt lat="42.45612481935055" lon="14.135667807609403"><ele>189.33333333333334</ele><time>2026-05-01T14:25:15.999Z</time></trkpt><trkpt lat="42.45620389995734" lon="14.135473291622123"><ele>194.0</ele><time>2026-05-01T14:25:16.999Z</time></trkpt><trkpt lat="42.45626525944617" lon="14.135246066246697"><ele>185.33333333333334</ele><time>2026-05-01T14:25:17.999Z</time></trkpt><trkpt lat="42.45633696792818" lon="14.134985978076964"><ele>176.66666666666669</ele><time>2026-05-01T14:25:18.999Z</time></trkpt><trkpt lat="42.45641618277088" lon="14.134730460476069"><ele>168.0</ele><time>2026-05-01T14:25:19.999Z</time></trkpt><trkpt lat="42.45650330554129" lon="14.134470477475135"><ele>168.0</ele><time>2026-05-01T14:25:20.999Z</time></trkpt><trkpt lat="42.45659321855156" lon="14.134200416050044"><ele>168.0</ele><time>2026-05-01T14:25:21.999Z</time></trkpt><trkpt lat="42.4566762245126" lon="14.133914687556963"><ele>168.0</ele><time>2026-05-01T14:25:22.999Z</time></trkpt><trkpt lat="42.456737260747566" lon="14.133639128441382"><ele>168.0</ele><time>2026-05-01T14:25:23.999Z</time></trkpt><trkpt lat="42.45677240746199" lon="14.133380323502879"><ele>168.0</ele><time>2026-05-01T14:25:24.999Z</time></trkpt><trkpt lat="42.4567972148065" lon="14.13313673373935"><ele>168.0</ele><time>2026-05-01T14:25:25.999Z</time></trkpt><trkpt lat="42.45683028146412" lon="14.132891738507324"><ele>167.33333333333334</ele><time>2026-05-01T14:25:26.999Z</time></trkpt><trkpt lat="42.456875791605114" lon="14.132650489572384"><ele>166.66666666666669</ele><time>2026-05-01T14:25:27.999Z</time></trkpt><trkpt lat="42.45693404848837" lon="14.132419051772368"><ele>166.0</ele><time>2026-05-01T14:25:28.999Z</time></trkpt><trkpt lat="42.45701361549182" lon="14.132204463293585"><ele>166.0</ele><time>2026-05-01T14:25:29.999Z</time></trkpt><trkpt lat="42.45710044836824" lon="14.131987395549185"><ele>166.0</ele><time>2026-05-01T14:25:30.999Z</time></trkpt><trkpt lat="42.457195316238014" lon="14.131762352475402"><ele>166.0</ele><time>2026-05-01T14:25:31.999Z</time></trkpt><trkpt lat="42.45728904427032" lon="14.131535069330353"><ele>164.0</ele><time>2026-05-01T14:25:32.999Z</time></trkpt><trkpt lat="42.45738561180302" lon="14.131311966087162"><ele>162.0</ele><time>2026-05-01T14:25:34Z</time></trkpt><trkpt lat="42.45748400066517" lon="14.131093485122136"><ele>160.0</ele><time>2026-05-01T14:25:35Z</time></trkpt><trkpt lat="42.45757904778692" lon="14.130891275020504"><ele>160.33333333333334</ele><time>2026-05-01T14:25:36Z</time></trkpt><trkpt lat="42.45769301774536" lon="14.13069527165097"><ele>160.66666666666666</ele><time>2026-05-01T14:25:37Z</time></trkpt><trkpt lat="42.45781860386363" lon="14.130518756383596"><ele>161.0</ele><time>2026-05-01T14:25:38Z</time></trkpt><trkpt lat="42.457965708329624" lon="14.130374192240671"><ele>160.66666666666666</ele><time>2026-05-01T14:25:39Z</time></trkpt><trkpt lat="42.458116812754746" lon="14.130225880010368"><ele>160.33333333333334</ele><time>2026-05-01T14:25:40Z</time></trkpt><trkpt lat="42.45825833994139" lon="14.13006402847926"><ele>160.0</ele><time>2026-05-01T14:25:41Z</time></trkpt><trkpt lat="42.45838699379025" lon="14.12988234609287"><ele>160.0</ele><time>2026-05-01T14:25:42Z</time></trkpt><trkpt lat="42.458501364951736" lon="14.129685809153996"><ele>160.0</ele><time>2026-05-01T14:25:43Z</time></trkpt><trkpt lat="42.458589208431746" lon="14.129478146534877"><ele>160.0</ele><time>2026-05-01T14:25:44Z</time></trkpt><trkpt lat="42.45865342050663" lon="14.129265290122536"><ele>158.33333333333334</ele><time>2026-05-01T14:25:45Z</time></trkpt><trkpt lat="42.45869923164856" lon="14.129055319163777"><ele>156.66666666666666</ele><time>2026-05-01T14:25:46Z</time></trkpt><trkpt lat="42.45872769940745" lon="14.12885023576521"><ele>155.0</ele><time>2026-05-01T14:25:47Z</time></trkpt><trkpt lat="42.458724491802755" lon="14.128641958281047"><ele>155.0</ele><time>2026-05-01T14:25:48Z</time></trkpt><trkpt lat="42.45869103810115" lon="14.128411938576612"><ele>155.0</ele><time>2026-05-01T14:25:49Z</time></trkpt><trkpt lat="42.45862544111579" lon="14.128171212158795"><ele>155.0</ele><time>2026-05-01T14:25:50Z</time></trkpt><trkpt lat="42.45853631223978" lon="14.127939092504791"><ele>157.66666666666666</ele><time>2026-05-01T14:25:51Z</time></trkpt><trkpt lat="42.458438523386064" lon="14.127722102703583"><ele>160.33333333333334</ele><time>2026-05-01T14:25:52Z</time></trkpt><trkpt lat="42.458358250785054" lon="14.127523060569727"><ele>163.0</ele><time>2026-05-01T14:25:53Z</time></trkpt><trkpt lat="42.458277295094426" lon="14.12733694249325"><ele>160.66666666666669</ele><time>2026-05-01T14:25:54Z</time></trkpt><trkpt lat="42.4581701530686" lon="14.127190554220238"><ele>158.33333333333334</ele><time>2026-05-01T14:25:55Z</time></trkpt><trkpt lat="42.458034084311755" lon="14.12706396388028"><ele>156.0</ele><time>2026-05-01T14:25:56Z</time></trkpt><trkpt lat="42.457910084631585" lon="14.126939601425217"><ele>156.0</ele><time>2026-05-01T14:25:57Z</time></trkpt><trkpt lat="42.45782493785147" lon="14.126756496376595"><ele>156.0</ele><time>2026-05-01T14:25:58Z</time></trkpt><trkpt lat="42.45772695370859" lon="14.12656117347607"><ele>156.0</ele><time>2026-05-01T14:25:59Z</time></trkpt><trkpt lat="42.45762404541564" lon="14.126363506836654"><ele>158.75</ele><time>2026-05-01T14:26:00Z</time></trkpt><trkpt lat="42.457518742279966" lon="14.126188442372575"><ele>161.5</ele><time>2026-05-01T14:26:01Z</time></trkpt><trkpt lat="42.45743761508249" lon="14.1260195227389"><ele>164.25</ele><time>2026-05-01T14:26:02Z</time></trkpt><trkpt lat="42.45737831149463" lon="14.125868847759081"><ele>167.0</ele><time>2026-05-01T14:26:03Z</time></trkpt><trkpt lat="42.457331736112025" lon="14.125722618658358"><ele>168.39999999999998</ele><time>2026-05-01T14:26:04Z</time></trkpt><trkpt lat="42.457299639539585" lon="14.125584752970099"><ele>169.79999999999998</ele><time>2026-05-01T14:26:05Z</time></trkpt><trkpt lat="42.457274966777106" lon="14.125461185898732"><ele>171.2</ele><time>2026-05-01T14:26:06Z</time></trkpt><trkpt lat="42.45725822704211" lon="14.125347287838817"><ele>172.6</ele><time>2026-05-01T14:26:07Z</time></trkpt><trkpt lat="42.45723711116272" lon="14.125223226342476"><ele>174.0</ele><time>2026-05-01T14:26:08Z</time></trkpt><trkpt lat="42.45722099864853" lon="14.125082237584051"><ele>174.0</ele><time>2026-05-01T14:26:09Z</time></trkpt><trkpt lat="42.45721942702947" lon="14.124931379024801"><ele>174.0</ele><time>2026-05-01T14:26:10Z</time></trkpt><trkpt lat="42.45722387903371" lon="14.124746435409808"><ele>174.0</ele><time>2026-05-01T14:26:11Z</time></trkpt><trkpt lat="42.45723743142045" lon="14.124556406381243"><ele>174.0</ele><time>2026-05-01T14:26:12Z</time></trkpt><trkpt lat="42.4572649092148" lon="14.124360055717878"><ele>173.0</ele><time>2026-05-01T14:26:13Z</time></trkpt><trkpt lat="42.45732747334431" lon="14.124161768437274"><ele>172.0</ele><time>2026-05-01T14:26:14Z</time></trkpt><trkpt lat="42.45738884282531" lon="14.123943384429683"><ele>171.0</ele><time>2026-05-01T14:26:15Z</time></trkpt><trkpt lat="42.45745846503403" lon="14.123704389954142"><ele>168.66666666666666</ele><time>2026-05-01T14:26:16Z</time></trkpt><trkpt lat="42.457524838724936" lon="14.123448750141987"><ele>166.33333333333331</ele><time>2026-05-01T14:26:17Z</time></trkpt><trkpt lat="42.45760716313469" lon="14.12320461584706"><ele>164.0</ele><time>2026-05-01T14:26:18Z</time></trkpt><trkpt lat="42.45767494526839" lon="14.122996666714915"><ele>163.33333333333331</ele><time>2026-05-01T14:26:19Z</time></trkpt><trkpt lat="42.457735435927475" lon="14.12279072061122"><ele>162.66666666666666</ele><time>2026-05-01T14:26:20Z</time></trkpt><trkpt lat="42.45778998269393" lon="14.122594019949426"><ele>162.0</ele><time>2026-05-01T14:26:21Z</time></trkpt><trkpt lat="42.45785399763312" lon="14.122411244897046"><ele>161.33333333333334</ele><time>2026-05-01T14:26:22Z</time></trkpt><trkpt lat="42.457930154456086" lon="14.12223181990158"><ele>160.66666666666669</ele><time>2026-05-01T14:26:23Z</time></trkpt><trkpt lat="42.458023987954235" lon="14.122057696373187"><ele>160.0</ele><time>2026-05-01T14:26:24Z</time></trkpt><trkpt lat="42.458134196689294" lon="14.121886531598106"><ele>160.0</ele><time>2026-05-01T14:26:25Z</time></trkpt><trkpt lat="42.45825962534117" lon="14.121732295286948"><ele>160.0</ele><time>2026-05-01T14:26:26Z</time></trkpt><trkpt lat="42.458397673314536" lon="14.121592817690138"><ele>160.0</ele><time>2026-05-01T14:26:27Z</time></trkpt><trkpt lat="42.458535087361724" lon="14.121450298624346"><ele>160.0</ele><time>2026-05-01T14:26:28Z</time></trkpt><trkpt lat="42.458665884264114" lon="14.121316307171353"><ele>160.0</ele><time>2026-05-01T14:26:29Z</time></trkpt><trkpt lat="42.45879578449489" lon="14.121175545131363"><ele>160.0</ele><time>2026-05-01T14:26:30Z</time></trkpt><trkpt lat="42.45891928377619" lon="14.121044321687227"><ele>160.0</ele><time>2026-05-01T14:26:31Z</time></trkpt><trkpt lat="42.459044988003086" lon="14.120907848784707"><ele>160.0</ele><time>2026-05-01T14:26:32Z</time></trkpt><trkpt lat="42.45916616538819" lon="14.120779476702266"><ele>160.0</ele><time>2026-05-01T14:26:33Z</time></trkpt><trkpt lat="42.45928542727206" lon="14.12064525554608"><ele>160.0</ele><time>2026-05-01T14:26:34Z</time></trkpt><trkpt lat="42.459402548374" lon="14.12052460739616"><ele>160.0</ele><time>2026-05-01T14:26:35Z</time></trkpt><trkpt lat="42.45951605557091" lon="14.120407195023626"><ele>160.0</ele><time>2026-05-01T14:26:36Z</time></trkpt><trkpt lat="42.45962384833497" lon="14.120304878882134"><ele>160.0</ele><time>2026-05-01T14:26:37Z</time></trkpt><trkpt lat="42.459721166192416" lon="14.120210852298955"><ele>160.0</ele><time>2026-05-01T14:26:38Z</time></trkpt><trkpt lat="42.459806931214246" lon="14.120133147796905"><ele>160.0</ele><time>2026-05-01T14:26:39Z</time></trkpt><trkpt lat="42.45989339845413" lon="14.120076992847308"><ele>160.0</ele><time>2026-05-01T14:26:40Z</time></trkpt><trkpt lat="42.459994731219076" lon="14.120077248548807"><ele>160.0</ele><time>2026-05-01T14:26:41Z</time></trkpt><trkpt lat="42.46010629444244" lon="14.120019549793762"><ele>160.0</ele><time>2026-05-01T14:26:42Z</time></trkpt><trkpt lat="42.46022821021863" lon="14.120003511684379"><ele>160.0</ele><time>2026-05-01T14:26:43Z</time></trkpt><trkpt lat="42.46034979639448" lon="14.120038424952337"><ele>160.0</ele><time>2026-05-01T14:26:44Z</time></trkpt><trkpt lat="42.46048991483141" lon="14.120099936016612"><ele>160.0</ele><time>2026-05-01T14:26:45Z</time></trkpt><trkpt lat="42.46065419052253" lon="14.12015384449546"><ele>160.0</ele><time>2026-05-01T14:26:46Z</time></trkpt><trkpt lat="42.46081219917312" lon="14.12022145334772"><ele>160.66666666666669</ele><time>2026-05-01T14:26:47Z</time></trkpt><trkpt lat="42.46097351322066" lon="14.120264329199843"><ele>161.33333333333334</ele><time>2026-05-01T14:26:48Z</time></trkpt><trkpt lat="42.46113420978449" lon="14.120304459159367"><ele>162.0</ele><time>2026-05-01T14:26:49Z</time></trkpt><trkpt lat="42.461299927716745" lon="14.120355873638095"><ele>164.33333333333334</ele><time>2026-05-01T14:26:49.999Z</time></trkpt><trkpt lat="42.461451911843874" lon="14.120457135507698"><ele>166.66666666666669</ele><time>2026-05-01T14:26:50.999Z</time></trkpt><trkpt lat="42.46161074953836" lon="14.12058488544925"><ele>169.0</ele><time>2026-05-01T14:26:51.999Z</time></trkpt><trkpt lat="42.46178484363504" lon="14.120706356243065"><ele>168.0</ele><time>2026-05-01T14:26:52.999Z</time></trkpt><trkpt lat="42.461953062912045" lon="14.120833327338971"><ele>167.0</ele><time>2026-05-01T14:26:53.999Z</time></trkpt><trkpt lat="42.462123878676756" lon="14.120959378983962"><ele>166.0</ele><time>2026-05-01T14:26:54.999Z</time></trkpt><trkpt lat="42.462279322018894" lon="14.121080911102261"><ele>166.0</ele><time>2026-05-01T14:26:55.999Z</time></trkpt><trkpt lat="42.46242838046537" lon="14.121182449097367"><ele>166.0</ele><time>2026-05-01T14:26:56.999Z</time></trkpt><trkpt lat="42.46257007806385" lon="14.121284804343254"><ele>166.0</ele><time>2026-05-01T14:26:57.999Z</time></trkpt><trkpt lat="42.46271185826175" lon="14.121391768717222"><ele>166.0</ele><time>2026-05-01T14:26:58.999Z</time></trkpt><trkpt lat="42.46286419931063" lon="14.12150524656694"><ele>166.0</ele><time>2026-05-01T14:26:59.999Z</time></trkpt><trkpt lat="42.463024158469764" lon="14.121625558049777"><ele>166.0</ele><time>2026-05-01T14:27:00.999Z</time></trkpt><trkpt lat="42.46317604202596" lon="14.121736365724866"><ele>163.25</ele><time>2026-05-01T14:27:01.999Z</time></trkpt><trkpt lat="42.46331522327565" lon="14.121838852250386"><ele>160.5</ele><time>2026-05-01T14:27:02.999Z</time></trkpt><trkpt lat="42.463442850106475" lon="14.121936261006866"><ele>157.75</ele><time>2026-05-01T14:27:03.999Z</time></trkpt><trkpt lat="42.46356684988496" lon="14.122023417446998"><ele>155.0</ele><time>2026-05-01T14:27:04.999Z</time></trkpt><trkpt lat="42.46368314585354" lon="14.122118076695934"><ele>153.66666666666666</ele><time>2026-05-01T14:27:05.999Z</time></trkpt><trkpt lat="42.46380067893575" lon="14.122223437918922"><ele>152.33333333333334</ele><time>2026-05-01T14:27:06.999Z</time></trkpt><trkpt lat="42.463916960414416" lon="14.122364227776997"><ele>151.0</ele><time>2026-05-01T14:27:07.999Z</time></trkpt><trkpt lat="42.46401268590695" lon="14.122532710471283"><ele>150.33333333333334</ele><time>2026-05-01T14:27:08.999Z</time></trkpt><trkpt lat="42.46410615197859" lon="14.122729729539408"><ele>149.66666666666666</ele><time>2026-05-01T14:27:09.999Z</time></trkpt><trkpt lat="42.464191987173876" lon="14.122923585163893"><ele>149.0</ele><time>2026-05-01T14:27:10.999Z</time></trkpt><trkpt lat="42.46425854762454" lon="14.123118877139442"><ele>149.0</ele><time>2026-05-01T14:27:11.999Z</time></trkpt><trkpt lat="42.46430077423715" lon="14.12333202828283"><ele>149.0</ele><time>2026-05-01T14:27:12.999Z</time></trkpt><trkpt lat="42.464351429981754" lon="14.12354056397226"><ele>149.0</ele><time>2026-05-01T14:27:13.999Z</time></trkpt><trkpt lat="42.464420213061146" lon="14.12373965477195"><ele>149.0</ele><time>2026-05-01T14:27:14.999Z</time></trkpt><trkpt lat="42.4644862433821" lon="14.123937980335612"><ele>149.0</ele><time>2026-05-01T14:27:15.999Z</time></trkpt><trkpt lat="42.464568006349346" lon="14.124124207113178"><ele>149.0</ele><time>2026-05-01T14:27:16.999Z</time></trkpt><trkpt lat="42.464676776552245" lon="14.124296913575987"><ele>146.33333333333331</ele><time>2026-05-01T14:27:17.999Z</time></trkpt><trkpt lat="42.46480832268448" lon="14.124455241343291"><ele>143.66666666666666</ele><time>2026-05-01T14:27:18.999Z</time></trkpt><trkpt lat="42.464946568294636" lon="14.124618264104846"><ele>141.0</ele><time>2026-05-01T14:27:19.999Z</time></trkpt><trkpt lat="42.46504794194019" lon="14.124797786660583"><ele>143.33333333333334</ele><time>2026-05-01T14:27:20.999Z</time></trkpt><trkpt lat="42.465137709609884" lon="14.124968715141787"><ele>145.66666666666669</ele><time>2026-05-01T14:27:21.999Z</time></trkpt><trkpt lat="42.465220997608654" lon="14.125128197157562"><ele>148.0</ele><time>2026-05-01T14:27:22.999Z</time></trkpt><trkpt lat="42.465329371308215" lon="14.125284314555275"><ele>148.0</ele><time>2026-05-01T14:27:23.999Z</time></trkpt><trkpt lat="42.46542200192163" lon="14.125452450534745"><ele>148.0</ele><time>2026-05-01T14:27:24.999Z</time></trkpt><trkpt lat="42.46553416022558" lon="14.125610558017415"><ele>148.0</ele><time>2026-05-01T14:27:25.999Z</time></trkpt><trkpt lat="42.465657559650026" lon="14.12575706170866"><ele>146.33333333333334</ele><time>2026-05-01T14:27:26.999Z</time></trkpt><trkpt lat="42.465775561685206" lon="14.125885687504294"><ele>144.66666666666666</ele><time>2026-05-01T14:27:27.999Z</time></trkpt><trkpt lat="42.46590726885808" lon="14.125999714209184"><ele>143.0</ele><time>2026-05-01T14:27:28.999Z</time></trkpt><trkpt lat="42.466057422920194" lon="14.126080390298227"><ele>143.0</ele><time>2026-05-01T14:27:29.999Z</time></trkpt><trkpt lat="42.4662264380999" lon="14.12612358681468"><ele>143.0</ele><time>2026-05-01T14:27:30.999Z</time></trkpt><trkpt lat="42.466396545943915" lon="14.126144838951415"><ele>143.0</ele><time>2026-05-01T14:27:31.999Z</time></trkpt><trkpt lat="42.46655780206007" lon="14.126173176073715"><ele>142.0</ele><time>2026-05-01T14:27:32.999Z</time></trkpt><trkpt lat="42.46668865732853" lon="14.126227797909081"><ele>141.0</ele><time>2026-05-01T14:27:33.999Z</time></trkpt><trkpt lat="42.466781302456546" lon="14.12635346981583"><ele>140.0</ele><time>2026-05-01T14:27:34.999Z</time></trkpt><trkpt lat="42.46685155928764" lon="14.126499959927731"><ele>139.0</ele><time>2026-05-01T14:27:35.999Z</time></trkpt><trkpt lat="42.46693272134961" lon="14.126666962959845"><ele>139.0</ele><time>2026-05-01T14:27:36.999Z</time></trkpt><trkpt lat="42.467020008254536" lon="14.126851822070916"><ele>139.0</ele><time>2026-05-01T14:27:37.999Z</time></trkpt><trkpt lat="42.46711746661566" lon="14.127031054486746"><ele>139.0</ele><time>2026-05-01T14:27:38.999Z</time></trkpt><trkpt lat="42.46720624209934" lon="14.127214796547195"><ele>141.0</ele><time>2026-05-01T14:27:40Z</time></trkpt><trkpt lat="42.46729682980834" lon="14.127404687026594"><ele>143.0</ele><time>2026-05-01T14:27:41Z</time></trkpt><trkpt lat="42.467380149201816" lon="14.127607671995026"><ele>145.0</ele><time>2026-05-01T14:27:42Z</time></trkpt><trkpt lat="42.467445134978874" lon="14.127827705817108"><ele>145.0</ele><time>2026-05-01T14:27:43Z</time></trkpt><trkpt lat="42.46752296831207" lon="14.128042516424925"><ele>145.0</ele><time>2026-05-01T14:27:44Z</time></trkpt><trkpt lat="42.4676111964024" lon="14.128241193967492"><ele>145.0</ele><time>2026-05-01T14:27:45Z</time></trkpt><trkpt lat="42.467674666086445" lon="14.12842746576278"><ele>145.5</ele><time>2026-05-01T14:27:46Z</time></trkpt><trkpt lat="42.46773375948393" lon="14.128574091763124"><ele>146.0</ele><time>2026-05-01T14:27:47Z</time></trkpt><trkpt lat="42.46781478287634" lon="14.128694289492122"><ele>146.5</ele><time>2026-05-01T14:27:48Z</time></trkpt><trkpt lat="42.46792946794732" lon="14.12878752312507"><ele>147.0</ele><time>2026-05-01T14:27:49Z</time></trkpt><trkpt lat="42.46807720026561" lon="14.12885173366599"><ele>150.33333333333334</ele><time>2026-05-01T14:27:50Z</time></trkpt><trkpt lat="42.468243160415476" lon="14.128890593473068"><ele>153.66666666666669</ele><time>2026-05-01T14:27:51Z</time></trkpt><trkpt lat="42.468416992129335" lon="14.12893649130898"><ele>157.0</ele><time>2026-05-01T14:27:52Z</time></trkpt><trkpt lat="42.468586167170876" lon="14.128995698911273"><ele>154.66666666666669</ele><time>2026-05-01T14:27:53Z</time></trkpt><trkpt lat="42.46876393873881" lon="14.129060001379852"><ele>152.33333333333334</ele><time>2026-05-01T14:27:54Z</time></trkpt><trkpt lat="42.468913652518836" lon="14.129114713931694"><ele>150.0</ele><time>2026-05-01T14:27:55Z</time></trkpt><trkpt lat="42.469060185715165" lon="14.129170927372453"><ele>150.0</ele><time>2026-05-01T14:27:56Z</time></trkpt><trkpt lat="42.46920257010816" lon="14.129231934938845"><ele>150.0</ele><time>2026-05-01T14:27:57Z</time></trkpt><trkpt lat="42.46934583248513" lon="14.12930944416045"><ele>150.0</ele><time>2026-05-01T14:27:58Z</time></trkpt><trkpt lat="42.46948191481631" lon="14.129418355709266"><ele>150.0</ele><time>2026-05-01T14:27:59Z</time></trkpt><trkpt lat="42.469607341472894" lon="14.129556736898795"><ele>150.0</ele><time>2026-05-01T14:28:00Z</time></trkpt><trkpt lat="42.46973333930096" lon="14.129718394440179"><ele>150.0</ele><time>2026-05-01T14:28:01Z</time></trkpt><trkpt lat="42.469860323343866" lon="14.129863131911312"><ele>150.0</ele><time>2026-05-01T14:28:02Z</time></trkpt><trkpt lat="42.46998989132416" lon="14.130020831451905"><ele>150.0</ele><time>2026-05-01T14:28:03Z</time></trkpt><trkpt lat="42.47012171769963" lon="14.1301863299282"><ele>150.0</ele><time>2026-05-01T14:28:04Z</time></trkpt><trkpt lat="42.47025532781049" lon="14.130352970679093"><ele>150.0</ele><time>2026-05-01T14:28:05Z</time></trkpt><trkpt lat="42.470395439661246" lon="14.130526505447591"><ele>150.0</ele><time>2026-05-01T14:28:06Z</time></trkpt><trkpt lat="42.47052639507498" lon="14.130676723088243"><ele>150.0</ele><time>2026-05-01T14:28:07Z</time></trkpt><trkpt lat="42.470648721837286" lon="14.130828923720888"><ele>148.0</ele><time>2026-05-01T14:28:08Z</time></trkpt><trkpt lat="42.47076500794021" lon="14.130971315033339"><ele>146.0</ele><time>2026-05-01T14:28:09Z</time></trkpt><trkpt lat="42.47087743556798" lon="14.1311120495318"><ele>144.0</ele><time>2026-05-01T14:28:10Z</time></trkpt><trkpt lat="42.47099617748721" lon="14.131258099922348"><ele>144.0</ele><time>2026-05-01T14:28:11Z</time></trkpt><trkpt lat="42.47111604042301" lon="14.131405345748773"><ele>144.0</ele><time>2026-05-01T14:28:12Z</time></trkpt><trkpt lat="42.47122856780199" lon="14.13154893830421"><ele>144.0</ele><time>2026-05-01T14:28:12.999Z</time></trkpt><trkpt lat="42.47134267205645" lon="14.131691721874201"><ele>143.5</ele><time>2026-05-01T14:28:13.999Z</time></trkpt><trkpt lat="42.47143504930706" lon="14.131825226591108"><ele>143.0</ele><time>2026-05-01T14:28:14.999Z</time></trkpt><trkpt lat="42.47150396356038" lon="14.13196847386183"><ele>142.5</ele><time>2026-05-01T14:28:15.999Z</time></trkpt><trkpt lat="42.47153919978641" lon="14.132132475967374"><ele>142.0</ele><time>2026-05-01T14:28:16.999Z</time></trkpt><trkpt lat="42.47154944035605" lon="14.132320435203923"><ele>143.5</ele><time>2026-05-01T14:28:17.999Z</time></trkpt><trkpt lat="42.471550235840624" lon="14.132514931887432"><ele>145.0</ele><time>2026-05-01T14:28:18.999Z</time></trkpt><trkpt lat="42.47156122655997" lon="14.132706407553883"><ele>146.5</ele><time>2026-05-01T14:28:19.999Z</time></trkpt><trkpt lat="42.47159057548907" lon="14.132898042075462"><ele>148.0</ele><time>2026-05-01T14:28:20.999Z</time></trkpt><trkpt lat="42.47164875586488" lon="14.133073271547474"><ele>148.0</ele><time>2026-05-01T14:28:21.999Z</time></trkpt><trkpt lat="42.47174127032808" lon="14.13322064939476"><ele>148.0</ele><time>2026-05-01T14:28:22.999Z</time></trkpt><trkpt lat="42.47185182734353" lon="14.133334207295897"><ele>148.0</ele><time>2026-05-01T14:28:23.999Z</time></trkpt><trkpt lat="42.471979111528476" lon="14.13339347738792"><ele>148.0</ele><time>2026-05-01T14:28:24.999Z</time></trkpt><trkpt lat="42.47212433566891" lon="14.133399962785262"><ele>150.5</ele><time>2026-05-01T14:28:25.999Z</time></trkpt><trkpt lat="42.47227769671954" lon="14.133382441834124"><ele>153.0</ele><time>2026-05-01T14:28:26.999Z</time></trkpt><trkpt lat="42.472427365290365" lon="14.133383078510459"><ele>155.5</ele><time>2026-05-01T14:28:27.999Z</time></trkpt><trkpt lat="42.47254990880038" lon="14.133469433420403"><ele>158.0</ele><time>2026-05-01T14:28:28.999Z</time></trkpt><trkpt lat="42.472658717582824" lon="14.133603849930102"><ele>158.0</ele><time>2026-05-01T14:28:29.999Z</time></trkpt><trkpt lat="42.47277188566607" lon="14.133745479828056"><ele>158.0</ele><time>2026-05-01T14:28:30.999Z</time></trkpt><trkpt lat="42.472903618574534" lon="14.133870688217483"><ele>158.0</ele><time>2026-05-01T14:28:31.999Z</time></trkpt><trkpt lat="42.47305145634196" lon="14.133974158496741"><ele>160.66666666666666</ele><time>2026-05-01T14:28:32.999Z</time></trkpt><trkpt lat="42.47320789095704" lon="14.13406755204172"><ele>163.33333333333334</ele><time>2026-05-01T14:28:33.999Z</time></trkpt><trkpt lat="42.47334324581856" lon="14.134189907007439"><ele>166.0</ele><time>2026-05-01T14:28:34.999Z</time></trkpt><trkpt lat="42.473452420481856" lon="14.134332509396772"><ele>166.0</ele><time>2026-05-01T14:28:35.999Z</time></trkpt><trkpt lat="42.47351921651483" lon="14.134508391343802"><ele>166.0</ele><time>2026-05-01T14:28:36.999Z</time></trkpt><trkpt lat="42.473564055173924" lon="14.134670067185835"><ele>166.0</ele><time>2026-05-01T14:28:37.999Z</time></trkpt><trkpt lat="42.47359038406819" lon="14.134847959839007"><ele>166.0</ele><time>2026-05-01T14:28:38.999Z</time></trkpt><trkpt lat="42.473632023982255" lon="14.135041393856742"><ele>164.0</ele><time>2026-05-01T14:28:39.999Z</time></trkpt><trkpt lat="42.4736727001399" lon="14.135220225634429"><ele>162.0</ele><time>2026-05-01T14:28:40.999Z</time></trkpt><trkpt lat="42.473726916081816" lon="14.13536392039754"><ele>160.0</ele><time>2026-05-01T14:28:41.999Z</time></trkpt><trkpt lat="42.4738044203953" lon="14.135477658076178"><ele>158.0</ele><time>2026-05-01T14:28:42.999Z</time></trkpt><trkpt lat="42.473914715498246" lon="14.135557706601789"><ele>160.66666666666666</ele><time>2026-05-01T14:28:43.999Z</time></trkpt><trkpt lat="42.47405160841481" lon="14.135615642802346"><ele>163.33333333333334</ele><time>2026-05-01T14:28:44.999Z</time></trkpt><trkpt lat="42.47420178273318" lon="14.135671523159825"><ele>166.0</ele><time>2026-05-01T14:28:45.999Z</time></trkpt><trkpt lat="42.4743480293192" lon="14.135748485655204"><ele>166.0</ele><time>2026-05-01T14:28:46.999Z</time></trkpt><trkpt lat="42.47447437121818" lon="14.135867886608397"><ele>166.0</ele><time>2026-05-01T14:28:47.999Z</time></trkpt><trkpt lat="42.47459685816747" lon="14.136001578899963"><ele>166.0</ele><time>2026-05-01T14:28:48.999Z</time></trkpt><trkpt lat="42.474718279878005" lon="14.136103047918404"><ele>170.25</ele><time>2026-05-01T14:28:49.999Z</time></trkpt><trkpt lat="42.47486052677103" lon="14.136164018812975"><ele>174.5</ele><time>2026-05-01T14:28:50.999Z</time></trkpt><trkpt lat="42.47501033689548" lon="14.13619801450635"><ele>178.75</ele><time>2026-05-01T14:28:51.999Z</time></trkpt><trkpt lat="42.475131095076826" lon="14.136264770946765"><ele>183.0</ele><time>2026-05-01T14:28:52.999Z</time></trkpt><trkpt lat="42.47522388593717" lon="14.136355918706528"><ele>183.0</ele><time>2026-05-01T14:28:53.999Z</time></trkpt><trkpt lat="42.475291132325964" lon="14.136493024019508"><ele>183.0</ele><time>2026-05-01T14:28:54.999Z</time></trkpt><trkpt lat="42.47538097406841" lon="14.13663451634114"><ele>183.0</ele><time>2026-05-01T14:28:55.999Z</time></trkpt><trkpt lat="42.475489930398425" lon="14.13676027228238"><ele>183.0</ele><time>2026-05-01T14:28:56.999Z</time></trkpt><trkpt lat="42.47563768251476" lon="14.136869014134845"><ele>183.0</ele><time>2026-05-01T14:28:57.999Z</time></trkpt><trkpt lat="42.475800261355054" lon="14.136965248517482"><ele>183.0</ele><time>2026-05-01T14:28:58.999Z</time></trkpt><trkpt lat="42.47597546927718" lon="14.137058054482921"><ele>183.0</ele><time>2026-05-01T14:28:59.999Z</time></trkpt><trkpt lat="42.47613199596917" lon="14.137163721780285"><ele>181.66666666666666</ele><time>2026-05-01T14:29:00.999Z</time></trkpt><trkpt lat="42.476296406486945" lon="14.137261012708956"><ele>180.33333333333331</ele><time>2026-05-01T14:29:01.999Z</time></trkpt><trkpt lat="42.47646241117376" lon="14.137328006247351"><ele>179.0</ele><time>2026-05-01T14:29:02.999Z</time></trkpt><trkpt lat="42.47661246676394" lon="14.137399484475486"><ele>179.0</ele><time>2026-05-01T14:29:03.999Z</time></trkpt><trkpt lat="42.476765181614205" lon="14.13744589037782"><ele>179.0</ele><time>2026-05-01T14:29:04.999Z</time></trkpt><trkpt lat="42.47692911398651" lon="14.137465821418026"><ele>179.0</ele><time>2026-05-01T14:29:05.999Z</time></trkpt><trkpt lat="42.47708956906351" lon="14.137467762602013"><ele>180.0</ele><time>2026-05-01T14:29:06.999Z</time></trkpt><trkpt lat="42.47724960407422" lon="14.13746681725358"><ele>181.0</ele><time>2026-05-01T14:29:07.999Z</time></trkpt><trkpt lat="42.47741261840112" lon="14.137451616239737"><ele>182.0</ele><time>2026-05-01T14:29:08.999Z</time></trkpt><trkpt lat="42.47757145886238" lon="14.137406831486297"><ele>179.33333333333331</ele><time>2026-05-01T14:29:09.999Z</time></trkpt><trkpt lat="42.47772926051999" lon="14.137331357908103"><ele>176.66666666666666</ele><time>2026-05-01T14:29:10.999Z</time></trkpt><trkpt lat="42.47787984951348" lon="14.137260383441122"><ele>174.0</ele><time>2026-05-01T14:29:11.999Z</time></trkpt><trkpt lat="42.478020822465844" lon="14.137207737047692"><ele>172.5</ele><time>2026-05-01T14:29:12.999Z</time></trkpt><trkpt lat="42.47814695992569" lon="14.137165670783082"><ele>171.0</ele><time>2026-05-01T14:29:13.999Z</time></trkpt><trkpt lat="42.478271464023194" lon="14.137182154513992"><ele>169.5</ele><time>2026-05-01T14:29:14.999Z</time></trkpt><trkpt lat="42.47839219633694" lon="14.137220993732596"><ele>168.0</ele><time>2026-05-01T14:29:15.999Z</time></trkpt><trkpt lat="42.47852169643761" lon="14.137279033230152"><ele>168.0</ele><time>2026-05-01T14:29:16.999Z</time></trkpt><trkpt lat="42.47864961727503" lon="14.137326410269115"><ele>168.0</ele><time>2026-05-01T14:29:17.999Z</time></trkpt><trkpt lat="42.47877881247901" lon="14.13731957950348"><ele>168.0</ele><time>2026-05-01T14:29:18.999Z</time></trkpt><trkpt lat="42.478919105429384" lon="14.137249463890113"><ele>168.0</ele><time>2026-05-01T14:29:19.999Z</time></trkpt><trkpt lat="42.47906268791718" lon="14.137155975490922"><ele>167.75</ele><time>2026-05-01T14:29:20.999Z</time></trkpt><trkpt lat="42.47919988409353" lon="14.137058349998993"><ele>167.5</ele><time>2026-05-01T14:29:21.999Z</time></trkpt><trkpt lat="42.47931014629335" lon="14.136939994413732"><ele>167.25</ele><time>2026-05-01T14:29:22.999Z</time></trkpt><trkpt lat="42.47939128251228" lon="14.136777521890187"><ele>167.0</ele><time>2026-05-01T14:29:23.999Z</time></trkpt><trkpt lat="42.479478484921465" lon="14.136582076135076"><ele>166.5</ele><time>2026-05-01T14:29:24.999Z</time></trkpt><trkpt lat="42.47958042785689" lon="14.136430485378797"><ele>166.0</ele><time>2026-05-01T14:29:25.999Z</time></trkpt><trkpt lat="42.479687391846845" lon="14.136301975419192"><ele>165.5</ele><time>2026-05-01T14:29:26.999Z</time></trkpt><trkpt lat="42.47978786084305" lon="14.13616091139512"><ele>165.0</ele><time>2026-05-01T14:29:27.999Z</time></trkpt><trkpt lat="42.47988592357502" lon="14.13601402659501"><ele>165.0</ele><time>2026-05-01T14:29:28.999Z</time></trkpt><trkpt lat="42.4799488339024" lon="14.135823108024107"><ele>165.0</ele><time>2026-05-01T14:29:29.999Z</time></trkpt><trkpt lat="42.47999691421319" lon="14.13560695379364"><ele>165.0</ele><time>2026-05-01T14:29:30.999Z</time></trkpt><trkpt lat="42.48003897916658" lon="14.13540002450944"><ele>163.0</ele><time>2026-05-01T14:29:31.999Z</time></trkpt><trkpt lat="42.48011929855572" lon="14.135234942669893"><ele>161.0</ele><time>2026-05-01T14:29:32.999Z</time></trkpt><trkpt lat="42.480198545612254" lon="14.135087293917904"><ele>159.0</ele><time>2026-05-01T14:29:33.999Z</time></trkpt><trkpt lat="42.48032241970108" lon="14.134993079097283"><ele>157.0</ele><time>2026-05-01T14:29:34.999Z</time></trkpt><trkpt lat="42.48043451997769" lon="14.134878504104204"><ele>155.0</ele><time>2026-05-01T14:29:35.999Z</time></trkpt><trkpt lat="42.48055153373933" lon="14.134804196485867"><ele>153.0</ele><time>2026-05-01T14:29:36.999Z</time></trkpt><trkpt lat="42.48067008513532" lon="14.134775094159128"><ele>151.0</ele><time>2026-05-01T14:29:37.999Z</time></trkpt><trkpt lat="42.48077381847974" lon="14.134772982687963"><ele>149.0</ele><time>2026-05-01T14:29:38.999Z</time></trkpt><trkpt lat="42.48087683409032" lon="14.134880540605975"><ele>151.25</ele><time>2026-05-01T14:29:39.999Z</time></trkpt><trkpt lat="42.48099361328075" lon="14.13498646732948"><ele>153.5</ele><time>2026-05-01T14:29:40.999Z</time></trkpt><trkpt lat="42.48108716572769" lon="14.135135989434417"><ele>155.75</ele><time>2026-05-01T14:29:41.999Z</time></trkpt><trkpt lat="42.48113749186784" lon="14.135317891890187"><ele>158.0</ele><time>2026-05-01T14:29:42.999Z</time></trkpt><trkpt lat="42.48121677618358" lon="14.13550547006603"><ele>155.25</ele><time>2026-05-01T14:29:43.999Z</time></trkpt><trkpt lat="42.4812667333124" lon="14.13570081908489"><ele>152.5</ele><time>2026-05-01T14:29:44.999Z</time></trkpt><trkpt lat="42.48132950570831" lon="14.135874568472028"><ele>149.75</ele><time>2026-05-01T14:29:46Z</time></trkpt><trkpt lat="42.48139244464321" lon="14.136043604616049"><ele>147.0</ele><time>2026-05-01T14:29:47Z</time></trkpt><trkpt lat="42.48143764062832" lon="14.136227579625881"><ele>147.0</ele><time>2026-05-01T14:29:48Z</time></trkpt><trkpt lat="42.481513196941755" lon="14.136376564514153"><ele>147.0</ele><time>2026-05-01T14:29:49Z</time></trkpt><trkpt lat="42.481590241437374" lon="14.13650969841637"><ele>147.0</ele><time>2026-05-01T14:29:50Z</time></trkpt><trkpt lat="42.48168864263531" lon="14.13658317954065"><ele>147.0</ele><time>2026-05-01T14:29:51Z</time></trkpt><trkpt lat="42.481804516380414" lon="14.136600164683554"><ele>147.0</ele><time>2026-05-01T14:29:52Z</time></trkpt><trkpt lat="42.48191973649172" lon="14.136553238958205"><ele>147.0</ele><time>2026-05-01T14:29:53Z</time></trkpt><trkpt lat="42.48201914104353" lon="14.136450250850448"><ele>147.0</ele><time>2026-05-01T14:29:54Z</time></trkpt><trkpt lat="42.482101986183054" lon="14.136312503892944"><ele>147.0</ele><time>2026-05-01T14:29:55Z</time></trkpt><trkpt lat="42.48216758191153" lon="14.136124331545522"><ele>145.33333333333334</ele><time>2026-05-01T14:29:56Z</time></trkpt><trkpt lat="42.48221011345351" lon="14.135893350882334"><ele>143.66666666666669</ele><time>2026-05-01T14:29:57Z</time></trkpt><trkpt lat="42.48224661575464" lon="14.135652244972306"><ele>142.0</ele><time>2026-05-01T14:29:58Z</time></trkpt><trkpt lat="42.482291053335565" lon="14.135411986040848"><ele>141.0</ele><time>2026-05-01T14:29:59Z</time></trkpt><trkpt lat="42.48234178111488" lon="14.135169752652452"><ele>140.0</ele><time>2026-05-01T14:30:00Z</time></trkpt><trkpt lat="42.48239085726861" lon="14.13493339629184"><ele>139.0</ele><time>2026-05-01T14:30:01Z</time></trkpt><trkpt lat="42.482442567954145" lon="14.13468586633952"><ele>138.33333333333334</ele><time>2026-05-01T14:30:02Z</time></trkpt><trkpt lat="42.48250739581799" lon="14.134443614380677"><ele>137.66666666666666</ele><time>2026-05-01T14:30:03Z</time></trkpt><trkpt lat="42.48257050248822" lon="14.13421713565095"><ele>137.0</ele><time>2026-05-01T14:30:04Z</time></trkpt><trkpt lat="42.48259661872894" lon="14.134010007688929"><ele>136.0</ele><time>2026-05-01T14:30:05Z</time></trkpt><trkpt lat="42.48263903038163" lon="14.133805138927036"><ele>135.0</ele><time>2026-05-01T14:30:06Z</time></trkpt><trkpt lat="42.48268906296427" lon="14.133614249438338"><ele>134.0</ele><time>2026-05-01T14:30:07Z</time></trkpt><trkpt lat="42.48275225556136" lon="14.133446734267583"><ele>133.0</ele><time>2026-05-01T14:30:08Z</time></trkpt><trkpt lat="42.48283493817709" lon="14.133300806116992"><ele>132.25</ele><time>2026-05-01T14:30:09Z</time></trkpt><trkpt lat="42.4829600332382" lon="14.133237541546093"><ele>131.5</ele><time>2026-05-01T14:30:10Z</time></trkpt><trkpt lat="42.48310008553605" lon="14.133170121526465"><ele>130.75</ele><time>2026-05-01T14:30:11Z</time></trkpt><trkpt lat="42.483244423105276" lon="14.13308761687221"><ele>130.0</ele><time>2026-05-01T14:30:12Z</time></trkpt><trkpt lat="42.48340404724515" lon="14.133013770433582"><ele>129.66666666666669</ele><time>2026-05-01T14:30:13Z</time></trkpt><trkpt lat="42.4835653660959" lon="14.13294407374836"><ele>129.33333333333334</ele><time>2026-05-01T14:30:14Z</time></trkpt><trkpt lat="42.483729723953104" lon="14.132862997280595"><ele>129.0</ele><time>2026-05-01T14:30:15Z</time></trkpt><trkpt lat="42.48389657800924" lon="14.13277833727861"><ele>127.66666666666666</ele><time>2026-05-01T14:30:16Z</time></trkpt><trkpt lat="42.48405791117876" lon="14.132698448015258"><ele>126.33333333333333</ele><time>2026-05-01T14:30:17Z</time></trkpt><trkpt lat="42.48421867480234" lon="14.132622535767762"><ele>125.0</ele><time>2026-05-01T14:30:18Z</time></trkpt><trkpt lat="42.484371231351666" lon="14.132551150716377"><ele>125.0</ele><time>2026-05-01T14:30:19Z</time></trkpt><trkpt lat="42.484521473969515" lon="14.132480295701741"><ele>125.0</ele><time>2026-05-01T14:30:20Z</time></trkpt><trkpt lat="42.48466425869165" lon="14.132413175156113"><ele>125.0</ele><time>2026-05-01T14:30:21Z</time></trkpt><trkpt lat="42.48479628328381" lon="14.132358678612995"><ele>125.0</ele><time>2026-05-01T14:30:22Z</time></trkpt><trkpt lat="42.484923887123465" lon="14.13231705314397"><ele>123.75</ele><time>2026-05-01T14:30:23Z</time></trkpt><trkpt lat="42.48505562425942" lon="14.132304582704108"><ele>122.5</ele><time>2026-05-01T14:30:24Z</time></trkpt><trkpt lat="42.48519869138531" lon="14.132342270959413"><ele>121.25</ele><time>2026-05-01T14:30:25Z</time></trkpt><trkpt lat="42.48532825989174" lon="14.132418424681031"><ele>120.0</ele><time>2026-05-01T14:30:26Z</time></trkpt><trkpt lat="42.48545274312735" lon="14.132537747192295"><ele>119.33333333333334</ele><time>2026-05-01T14:30:27Z</time></trkpt><trkpt lat="42.48557279889558" lon="14.132688957205502"><ele>118.66666666666667</ele><time>2026-05-01T14:30:28Z</time></trkpt><trkpt lat="42.485688951024564" lon="14.13284733098371"><ele>118.0</ele><time>2026-05-01T14:30:29Z</time></trkpt><trkpt lat="42.485816951050744" lon="14.133003300462727"><ele>118.0</ele><time>2026-05-01T14:30:30Z</time></trkpt><trkpt lat="42.48595112950851" lon="14.133160466706324"><ele>118.0</ele><time>2026-05-01T14:30:31Z</time></trkpt><trkpt lat="42.486074462027645" lon="14.133305707052328"><ele>118.0</ele><time>2026-05-01T14:30:31.999Z</time></trkpt><trkpt lat="42.48619488733513" lon="14.133443135115547"><ele>118.25</ele><time>2026-05-01T14:30:32.999Z</time></trkpt><trkpt lat="42.48630430178036" lon="14.13356759693835"><ele>118.5</ele><time>2026-05-01T14:30:33.999Z</time></trkpt><trkpt lat="42.48640631082951" lon="14.133688896024264"><ele>118.75</ele><time>2026-05-01T14:30:34.999Z</time></trkpt><trkpt lat="42.486501584185945" lon="14.13380881457966"><ele>119.0</ele><time>2026-05-01T14:30:35.999Z</time></trkpt><trkpt lat="42.486587698039834" lon="14.133931913335243"><ele>118.5</ele><time>2026-05-01T14:30:36.999Z</time></trkpt><trkpt lat="42.486653796670595" lon="14.134079340485936"><ele>118.0</ele><time>2026-05-01T14:30:37.999Z</time></trkpt><trkpt lat="42.48667642998815" lon="14.134268748431968"><ele>117.5</ele><time>2026-05-01T14:30:38.999Z</time></trkpt><trkpt lat="42.48672851617444" lon="14.134466525379004"><ele>117.0</ele><time>2026-05-01T14:30:39.999Z</time></trkpt><trkpt lat="42.486760285151085" lon="14.134700943393053"><ele>117.0</ele><time>2026-05-01T14:30:40.999Z</time></trkpt><trkpt lat="42.48680159944974" lon="14.13494454551405"><ele>117.0</ele><time>2026-05-01T14:30:41.999Z</time></trkpt><trkpt lat="42.486847230496934" lon="14.135186916729964"><ele>117.0</ele><time>2026-05-01T14:30:42.999Z</time></trkpt><trkpt lat="42.48689054410198" lon="14.135428644117914"><ele>117.0</ele><time>2026-05-01T14:30:43.999Z</time></trkpt><trkpt lat="42.48693499935806" lon="14.13564754089748"><ele>117.0</ele><time>2026-05-01T14:30:44.999Z</time></trkpt><trkpt lat="42.48698992293723" lon="14.135853864719312"><ele>117.0</ele><time>2026-05-01T14:30:45.999Z</time></trkpt><trkpt lat="42.48705325464427" lon="14.136060703853142"><ele>117.66666666666666</ele><time>2026-05-01T14:30:46.999Z</time></trkpt><trkpt lat="42.48713122870096" lon="14.13626358836141"><ele>118.33333333333333</ele><time>2026-05-01T14:30:47.999Z</time></trkpt><trkpt lat="42.4872080371875" lon="14.13644977061147"><ele>119.0</ele><time>2026-05-01T14:30:48.999Z</time></trkpt><trkpt lat="42.48728726285401" lon="14.136634773382022"><ele>120.25</ele><time>2026-05-01T14:30:49.999Z</time></trkpt><trkpt lat="42.487355616284134" lon="14.136807623966684"><ele>121.5</ele><time>2026-05-01T14:30:50.999Z</time></trkpt><trkpt lat="42.487413695874785" lon="14.136979621009116"><ele>122.75</ele><time>2026-05-01T14:30:51.999Z</time></trkpt><trkpt lat="42.48747148496757" lon="14.137153817225016"><ele>124.0</ele><time>2026-05-01T14:30:52.999Z</time></trkpt><trkpt lat="42.48752136804423" lon="14.137309237549243"><ele>124.0</ele><time>2026-05-01T14:30:53.999Z</time></trkpt><trkpt lat="42.48755608710238" lon="14.137475416780427"><ele>124.0</ele><time>2026-05-01T14:30:54.999Z</time></trkpt><trkpt lat="42.4876048318287" lon="14.13763819323499"><ele>124.0</ele><time>2026-05-01T14:30:55.999Z</time></trkpt><trkpt lat="42.487646536159126" lon="14.137810381694722"><ele>124.0</ele><time>2026-05-01T14:30:56.999Z</time></trkpt><trkpt lat="42.487674010008455" lon="14.137986546157657"><ele>124.0</ele><time>2026-05-01T14:30:57.999Z</time></trkpt><trkpt lat="42.48765024366891" lon="14.138187644545184"><ele>124.0</ele><time>2026-05-01T14:30:58.999Z</time></trkpt><trkpt lat="42.48762830869833" lon="14.138379461343154"><ele>124.0</ele><time>2026-05-01T14:30:59.999Z</time></trkpt><trkpt lat="42.487628988422095" lon="14.138565684605506"><ele>124.0</ele><time>2026-05-01T14:31:00.999Z</time></trkpt><trkpt lat="42.487672090459014" lon="14.1387505616139"><ele>124.33333333333334</ele><time>2026-05-01T14:31:01.999Z</time></trkpt><trkpt lat="42.487750419338994" lon="14.138940236894701"><ele>124.66666666666666</ele><time>2026-05-01T14:31:02.999Z</time></trkpt><trkpt lat="42.487846502299575" lon="14.13910289841344"><ele>125.0</ele><time>2026-05-01T14:31:03.999Z</time></trkpt><trkpt lat="42.487970240160706" lon="14.139236273073537"><ele>128.0</ele><time>2026-05-01T14:31:04.999Z</time></trkpt><trkpt lat="42.48810168893081" lon="14.139328834046239"><ele>131.0</ele><time>2026-05-01T14:31:05.999Z</time></trkpt><trkpt lat="42.48825672178859" lon="14.139373659908419"><ele>134.0</ele><time>2026-05-01T14:31:06.999Z</time></trkpt><trkpt lat="42.488413216668796" lon="14.13938058076497"><ele>134.0</ele><time>2026-05-01T14:31:07.999Z</time></trkpt><trkpt lat="42.488565044707705" lon="14.13937642535617"><ele>134.0</ele><time>2026-05-01T14:31:08.999Z</time></trkpt><trkpt lat="42.48868856076747" lon="14.13937114234093"><ele>134.0</ele><time>2026-05-01T14:31:09.999Z</time></trkpt><trkpt lat="42.488804377396754" lon="14.139387462655202"><ele>134.0</ele><time>2026-05-01T14:31:10.999Z</time></trkpt><trkpt lat="42.48890708867294" lon="14.139412801066262"><ele>134.5</ele><time>2026-05-01T14:31:11.999Z</time></trkpt><trkpt lat="42.4890013994435" lon="14.139445957634157"><ele>135.0</ele><time>2026-05-01T14:31:12.999Z</time></trkpt><trkpt lat="42.48908142794109" lon="14.139490683679512"><ele>135.5</ele><time>2026-05-01T14:31:13.999Z</time></trkpt><trkpt lat="42.48914668562875" lon="14.139557993058625"><ele>136.0</ele><time>2026-05-01T14:31:14.999Z</time></trkpt><trkpt lat="42.489226750811476" lon="14.139634531610271"><ele>136.5</ele><time>2026-05-01T14:31:15.999Z</time></trkpt><trkpt lat="42.48929903624626" lon="14.139664547268255"><ele>137.0</ele><time>2026-05-01T14:31:16.999Z</time></trkpt><trkpt lat="42.48938590297929" lon="14.139594974655145"><ele>137.0</ele><time>2026-05-01T14:31:17.999Z</time></trkpt><trkpt lat="42.489453834237516" lon="14.139465845323445"><ele>137.0</ele><time>2026-05-01T14:31:18.999Z</time></trkpt><trkpt lat="42.48958349588647" lon="14.139444498090874"><ele>137.0</ele><time>2026-05-01T14:31:19.999Z</time></trkpt><trkpt lat="42.4897129965732" lon="14.139452580228792"><ele>137.0</ele><time>2026-05-01T14:31:20.999Z</time></trkpt><trkpt lat="42.489861110475886" lon="14.139459061969387"><ele>138.33333333333331</ele><time>2026-05-01T14:31:21.999Z</time></trkpt><trkpt lat="42.48999720266088" lon="14.139461135754683"><ele>139.66666666666666</ele><time>2026-05-01T14:31:22.999Z</time></trkpt><trkpt lat="42.49026513100507" lon="14.1394681849598"><ele>141.0</ele><time>2026-05-01T14:31:24.999Z</time></trkpt><trkpt lat="42.490401000824924" lon="14.139479086076326"><ele>143.0</ele><time>2026-05-01T14:31:25.999Z</time></trkpt><trkpt lat="42.49052729629721" lon="14.139487994310466"><ele>145.0</ele><time>2026-05-01T14:31:26.999Z</time></trkpt><trkpt lat="42.49062112221363" lon="14.139500534804343"><ele>147.0</ele><time>2026-05-01T14:31:27.999Z</time></trkpt><trkpt lat="42.49070800874215" lon="14.139504075965291"><ele>149.0</ele><time>2026-05-01T14:31:28.999Z</time></trkpt><trkpt lat="42.49078580104032" lon="14.13952373662151"><ele>151.0</ele><time>2026-05-01T14:31:29.999Z</time></trkpt><trkpt lat="42.49088224994885" lon="14.13963525512851"><ele>151.0</ele><time>2026-05-01T14:31:31.999Z</time></trkpt><trkpt lat="42.49087819940278" lon="14.13976392211314"><ele>151.0</ele><time>2026-05-01T14:31:32.999Z</time></trkpt><trkpt lat="42.490871646152186" lon="14.13992524985418"><ele>151.0</ele><time>2026-05-01T14:31:33.999Z</time></trkpt><trkpt lat="42.49087164615626" lon="14.14011587141043"><ele>151.0</ele><time>2026-05-01T14:31:34.999Z</time></trkpt><trkpt lat="42.49087039138546" lon="14.140320199368078"><ele>151.8</ele><time>2026-05-01T14:31:35.999Z</time></trkpt><trkpt lat="42.49086907835062" lon="14.140529387833507"><ele>152.6</ele><time>2026-05-01T14:31:36.999Z</time></trkpt><trkpt lat="42.49086909887044" lon="14.140688739503481"><ele>153.4</ele><time>2026-05-01T14:31:37.999Z</time></trkpt><trkpt lat="42.49089424357232" lon="14.140807247199946"><ele>154.2</ele><time>2026-05-01T14:31:38.999Z</time></trkpt><trkpt lat="42.490949355695264" lon="14.140885291514792"><ele>155.0</ele><time>2026-05-01T14:31:39.999Z</time></trkpt><trkpt lat="42.49101183440272" lon="14.140943211572258"><ele>156.0</ele><time>2026-05-01T14:31:40.999Z</time></trkpt><trkpt lat="42.49112574208326" lon="14.140879125701314"><ele>157.0</ele><time>2026-05-01T14:31:41.999Z</time></trkpt><trkpt lat="42.49119430125943" lon="14.140779031889833"><ele>158.0</ele><time>2026-05-01T14:31:42.999Z</time></trkpt><trkpt lat="42.491265482323165" lon="14.140638709595148"><ele>159.0</ele><time>2026-05-01T14:31:43.999Z</time></trkpt><trkpt lat="42.49132998242635" lon="14.140495224353002"><ele>159.4</ele><time>2026-05-01T14:31:44.999Z</time></trkpt><trkpt lat="42.49137561288753" lon="14.140424816599195"><ele>159.8</ele><time>2026-05-01T14:31:45.999Z</time></trkpt><trkpt lat="42.49142297287169" lon="14.140351741754008"><ele>160.20000000000002</ele><time>2026-05-01T14:31:46.999Z</time></trkpt><trkpt lat="42.491521285954065" lon="14.140341218966348"><ele>160.60000000000002</ele><time>2026-05-01T14:31:48.999Z</time></trkpt><trkpt lat="42.491588797251296" lon="14.140456020307008"><ele>161.0</ele><time>2026-05-01T14:31:49.999Z</time></trkpt><trkpt lat="42.49163321599666" lon="14.140595373155593"><ele>161.0</ele><time>2026-05-01T14:31:51Z</time></trkpt><trkpt lat="42.49167778126917" lon="14.140773432521325"><ele>161.0</ele><time>2026-05-01T14:31:52Z</time></trkpt><trkpt lat="42.49170884053304" lon="14.140944553008735"><ele>161.0</ele><time>2026-05-01T14:31:53Z</time></trkpt><trkpt lat="42.49175563295691" lon="14.141104812625313"><ele>161.0</ele><time>2026-05-01T14:31:54Z</time></trkpt><trkpt lat="42.4917841367793" lon="14.141244566173604"><ele>161.0</ele><time>2026-05-01T14:31:55Z</time></trkpt><trkpt lat="42.4917853263518" lon="14.141416612857377"><ele>161.0</ele><time>2026-05-01T14:31:56Z</time></trkpt><trkpt lat="42.4917516728484" lon="14.141615597395475"><ele>161.0</ele><time>2026-05-01T14:31:57Z</time></trkpt><trkpt lat="42.49169512580405" lon="14.141787692752013"><ele>161.0</ele><time>2026-05-01T14:31:58Z</time></trkpt><trkpt lat="42.49163665231386" lon="14.141945166046023"><ele>161.0</ele><time>2026-05-01T14:31:59Z</time></trkpt><trkpt lat="42.491584920914065" lon="14.1420907439706"><ele>161.0</ele><time>2026-05-01T14:32:00Z</time></trkpt><trkpt lat="42.491581494537215" lon="14.142226823084526"><ele>161.0</ele><time>2026-05-01T14:32:01Z</time></trkpt><trkpt lat="42.49160320921124" lon="14.142342994687205"><ele>161.0</ele><time>2026-05-01T14:32:02Z</time></trkpt><trkpt lat="42.491669215271635" lon="14.142492117873502"><ele>161.0</ele><time>2026-05-01T14:32:03Z</time></trkpt><trkpt lat="42.491753312408086" lon="14.142629442469458"><ele>160.0</ele><time>2026-05-01T14:32:04Z</time></trkpt><trkpt lat="42.49182061633261" lon="14.142758346232503"><ele>159.0</ele><time>2026-05-01T14:32:05Z</time></trkpt><trkpt lat="42.49183279023882" lon="14.142908252535713"><ele>158.0</ele><time>2026-05-01T14:32:06Z</time></trkpt><trkpt lat="42.49179478360501" lon="14.143047868370408"><ele>157.0</ele><time>2026-05-01T14:32:07Z</time></trkpt><trkpt lat="42.49170746225335" lon="14.143151371367033"><ele>156.0</ele><time>2026-05-01T14:32:08Z</time></trkpt><trkpt lat="42.491600860043505" lon="14.14324425538962"><ele>155.0</ele><time>2026-05-01T14:32:09Z</time></trkpt><trkpt lat="42.49155468470845" lon="14.143376610920567"><ele>154.0</ele><time>2026-05-01T14:32:10Z</time></trkpt><trkpt lat="42.491550968609175" lon="14.143518617680638"><ele>153.0</ele><time>2026-05-01T14:32:11Z</time></trkpt><trkpt lat="42.49156373910333" lon="14.143673561788235"><ele>153.0</ele><time>2026-05-01T14:32:12Z</time></trkpt><trkpt lat="42.49163954067517" lon="14.143832270673538"><ele>153.0</ele><time>2026-05-01T14:32:13Z</time></trkpt><trkpt lat="42.491727775688" lon="14.143997002930865"><ele>153.0</ele><time>2026-05-01T14:32:14Z</time></trkpt><trkpt lat="42.49183580392576" lon="14.14413062639753"><ele>153.0</ele><time>2026-05-01T14:32:15Z</time></trkpt><trkpt lat="42.49197065805709" lon="14.144207047896582"><ele>146.0</ele><time>2026-05-01T14:32:16Z</time></trkpt><trkpt lat="42.49213093481043" lon="14.144268085817588"><ele>139.0</ele><time>2026-05-01T14:32:17Z</time></trkpt><trkpt lat="42.49229922928895" lon="14.144355278200775"><ele>132.0</ele><time>2026-05-01T14:32:18Z</time></trkpt><trkpt lat="42.492476820124594" lon="14.144448946866786"><ele>132.0</ele><time>2026-05-01T14:32:19Z</time></trkpt><trkpt lat="42.49263555356593" lon="14.144535539118003"><ele>132.0</ele><time>2026-05-01T14:32:20Z</time></trkpt><trkpt lat="42.4927673759091" lon="14.144608448014166"><ele>132.0</ele><time>2026-05-01T14:32:21Z</time></trkpt><trkpt lat="42.49287049059223" lon="14.144672361056667"><ele>132.0</ele><time>2026-05-01T14:32:22Z</time></trkpt><trkpt lat="42.492964435166236" lon="14.144776293706862"><ele>133.25</ele><time>2026-05-01T14:32:23Z</time></trkpt><trkpt lat="42.493047454460665" lon="14.144904104924622"><ele>134.5</ele><time>2026-05-01T14:32:24Z</time></trkpt><trkpt lat="42.493139936663766" lon="14.14505394736903"><ele>135.75</ele><time>2026-05-01T14:32:25Z</time></trkpt><trkpt lat="42.49324265794355" lon="14.145194509883495"><ele>137.0</ele><time>2026-05-01T14:32:26Z</time></trkpt><trkpt lat="42.49335725700025" lon="14.14527738414195"><ele>137.0</ele><time>2026-05-01T14:32:27Z</time></trkpt><trkpt lat="42.49346453202665" lon="14.14530416258885"><ele>137.0</ele><time>2026-05-01T14:32:28Z</time></trkpt><trkpt lat="42.49357480803865" lon="14.145312191486838"><ele>137.0</ele><time>2026-05-01T14:32:29Z</time></trkpt><trkpt lat="42.49369678871414" lon="14.145248972046994"><ele>137.0</ele><time>2026-05-01T14:32:30Z</time></trkpt><trkpt lat="42.49379899769548" lon="14.145163472719585"><ele>135.5</ele><time>2026-05-01T14:32:31Z</time></trkpt><trkpt lat="42.493865614716235" lon="14.145016923390823"><ele>134.0</ele><time>2026-05-01T14:32:32Z</time></trkpt><trkpt lat="42.49390956263955" lon="14.144844490966232"><ele>132.5</ele><time>2026-05-01T14:32:33Z</time></trkpt><trkpt lat="42.49396327077739" lon="14.144658651091687"><ele>131.0</ele><time>2026-05-01T14:32:34Z</time></trkpt><trkpt lat="42.49399582733659" lon="14.144464696872046"><ele>127.75</ele><time>2026-05-01T14:32:35Z</time></trkpt><trkpt lat="42.494059494736476" lon="14.14430350756238"><ele>124.5</ele><time>2026-05-01T14:32:36Z</time></trkpt><trkpt lat="42.49411838987219" lon="14.14414775385686"><ele>121.25</ele><time>2026-05-01T14:32:37Z</time></trkpt><trkpt lat="42.494215375433384" lon="14.144031614527654"><ele>118.0</ele><time>2026-05-01T14:32:38Z</time></trkpt><trkpt lat="42.49433209325353" lon="14.143918306208414"><ele>113.33333333333334</ele><time>2026-05-01T14:32:39Z</time></trkpt><trkpt lat="42.49448336150317" lon="14.14386640590554"><ele>108.66666666666666</ele><time>2026-05-01T14:32:40Z</time></trkpt><trkpt lat="42.49462976916959" lon="14.143827012782008"><ele>104.0</ele><time>2026-05-01T14:32:41Z</time></trkpt><trkpt lat="42.494796265348945" lon="14.14383462594543"><ele>104.0</ele><time>2026-05-01T14:32:42Z</time></trkpt><trkpt lat="42.49497413710012" lon="14.14385807733611"><ele>104.0</ele><time>2026-05-01T14:32:43Z</time></trkpt><trkpt lat="42.49516349251373" lon="14.143813201923068"><ele>104.0</ele><time>2026-05-01T14:32:43.999Z</time></trkpt><trkpt lat="42.49533966496399" lon="14.14376000488446"><ele>106.33333333333333</ele><time>2026-05-01T14:32:44.999Z</time></trkpt><trkpt lat="42.49550396472014" lon="14.143699654421"><ele>108.66666666666666</ele><time>2026-05-01T14:32:45.999Z</time></trkpt><trkpt lat="42.495642264403365" lon="14.143631425170732"><ele>111.0</ele><time>2026-05-01T14:32:46.999Z</time></trkpt><trkpt lat="42.49578695882984" lon="14.143520289852301"><ele>111.0</ele><time>2026-05-01T14:32:47.999Z</time></trkpt><trkpt lat="42.495929008875784" lon="14.143376226784255"><ele>111.0</ele><time>2026-05-01T14:32:48.999Z</time></trkpt><trkpt lat="42.496056823608896" lon="14.143224319039737"><ele>111.0</ele><time>2026-05-01T14:32:49.999Z</time></trkpt><trkpt lat="42.496186148374505" lon="14.143111927224437"><ele>107.33333333333334</ele><time>2026-05-01T14:32:50.999Z</time></trkpt><trkpt lat="42.49631111015857" lon="14.143009834436526"><ele>103.66666666666667</ele><time>2026-05-01T14:32:51.999Z</time></trkpt><trkpt lat="42.496442581124946" lon="14.142906876096626"><ele>100.0</ele><time>2026-05-01T14:32:52.999Z</time></trkpt><trkpt lat="42.496575571678754" lon="14.142801668141903"><ele>100.0</ele><time>2026-05-01T14:32:53.999Z</time></trkpt><trkpt lat="42.49670932468276" lon="14.142690625608065"><ele>100.0</ele><time>2026-05-01T14:32:54.999Z</time></trkpt><trkpt lat="42.49684498329372" lon="14.142565586570518"><ele>100.0</ele><time>2026-05-01T14:32:55.999Z</time></trkpt><trkpt lat="42.49698258000391" lon="14.142459698185636"><ele>96.25</ele><time>2026-05-01T14:32:56.999Z</time></trkpt><trkpt lat="42.497096110907144" lon="14.142330284335822"><ele>92.5</ele><time>2026-05-01T14:32:57.999Z</time></trkpt><trkpt lat="42.49720127602032" lon="14.142205892306027"><ele>88.75</ele><time>2026-05-01T14:32:58.999Z</time></trkpt><trkpt lat="42.49729372172313" lon="14.142098927317534"><ele>85.0</ele><time>2026-05-01T14:32:59.999Z</time></trkpt><trkpt lat="42.49737190535352" lon="14.142013723495435"><ele>85.0</ele><time>2026-05-01T14:33:00.999Z</time></trkpt><trkpt lat="42.49743051262394" lon="14.1419317596497"><ele>85.0</ele><time>2026-05-01T14:33:01.999Z</time></trkpt><trkpt lat="42.497499628164555" lon="14.141923680195383"><ele>85.0</ele><time>2026-05-01T14:33:02.999Z</time></trkpt><trkpt lat="42.4975654546827" lon="14.14199164703164"><ele>85.0</ele><time>2026-05-01T14:33:03.999Z</time></trkpt><trkpt lat="42.497612668951334" lon="14.142099173050513"><ele>85.0</ele><time>2026-05-01T14:33:04.999Z</time></trkpt><trkpt lat="42.497609672456065" lon="14.142222562300388"><ele>85.0</ele><time>2026-05-01T14:33:05.999Z</time></trkpt><trkpt lat="42.497555945107614" lon="14.142352803976266"><ele>85.25</ele><time>2026-05-01T14:33:06.999Z</time></trkpt><trkpt lat="42.49747454283024" lon="14.142493841623217"><ele>85.5</ele><time>2026-05-01T14:33:07.999Z</time></trkpt><trkpt lat="42.49737867516839" lon="14.142644370107137"><ele>85.75</ele><time>2026-05-01T14:33:08.999Z</time></trkpt><trkpt lat="42.49728641349557" lon="14.142797581721794"><ele>86.0</ele><time>2026-05-01T14:33:09.999Z</time></trkpt><trkpt lat="42.497202307210706" lon="14.142943859333434"><ele>86.0</ele><time>2026-05-01T14:33:10.999Z</time></trkpt><trkpt lat="42.49712119577961" lon="14.143091912632022"><ele>86.0</ele><time>2026-05-01T14:33:11.999Z</time></trkpt><trkpt lat="42.497037012393804" lon="14.143243428958938"><ele>86.0</ele><time>2026-05-01T14:33:12.999Z</time></trkpt><trkpt lat="42.496948703599806" lon="14.14339419658791"><ele>86.0</ele><time>2026-05-01T14:33:13.999Z</time></trkpt><trkpt lat="42.4968548689759" lon="14.143556810439629"><ele>88.5</ele><time>2026-05-01T14:33:14.999Z</time></trkpt><trkpt lat="42.496764500179495" lon="14.1437033488576"><ele>91.0</ele><time>2026-05-01T14:33:15.999Z</time></trkpt><trkpt lat="42.4966740585259" lon="14.143837461009076"><ele>93.5</ele><time>2026-05-01T14:33:16.999Z</time></trkpt><trkpt lat="42.496587778357615" lon="14.143937985674969"><ele>96.0</ele><time>2026-05-01T14:33:17.999Z</time></trkpt><trkpt lat="42.49651343343307" lon="14.144024941549873"><ele>92.5</ele><time>2026-05-01T14:33:18.999Z</time></trkpt><trkpt lat="42.49644067874687" lon="14.144131491599293"><ele>89.0</ele><time>2026-05-01T14:33:19.999Z</time></trkpt><trkpt lat="42.496398677399675" lon="14.144278595076816"><ele>85.5</ele><time>2026-05-01T14:33:20.999Z</time></trkpt><trkpt lat="42.49638233674264" lon="14.144457633780519"><ele>82.0</ele><time>2026-05-01T14:33:21.999Z</time></trkpt><trkpt lat="42.49638826099529" lon="14.144652864471654"><ele>82.0</ele><time>2026-05-01T14:33:22.999Z</time></trkpt><trkpt lat="42.49640898252449" lon="14.144831612731222"><ele>82.0</ele><time>2026-05-01T14:33:23.999Z</time></trkpt><trkpt lat="42.496406700862245" lon="14.145001586085149"><ele>82.0</ele><time>2026-05-01T14:33:24.999Z</time></trkpt><trkpt lat="42.49636078918273" lon="14.145155215839052"><ele>82.0</ele><time>2026-05-01T14:33:25.999Z</time></trkpt><trkpt lat="42.496275976407176" lon="14.145305541784241"><ele>82.0</ele><time>2026-05-01T14:33:26.999Z</time></trkpt><trkpt lat="42.49619502476769" lon="14.145441845811426"><ele>82.0</ele><time>2026-05-01T14:33:27.999Z</time></trkpt><trkpt lat="42.49614876162396" lon="14.145569540881045"><ele>82.0</ele><time>2026-05-01T14:33:28.999Z</time></trkpt><trkpt lat="42.49614708514217" lon="14.145705943826538"><ele>82.0</ele><time>2026-05-01T14:33:29.999Z</time></trkpt><trkpt lat="42.49616580659302" lon="14.145848543776852"><ele>82.0</ele><time>2026-05-01T14:33:30.999Z</time></trkpt><trkpt lat="42.496248075228564" lon="14.145963547494055"><ele>80.0</ele><time>2026-05-01T14:33:31.999Z</time></trkpt><trkpt lat="42.496343006657575" lon="14.146035822237385"><ele>78.0</ele><time>2026-05-01T14:33:32.999Z</time></trkpt><trkpt lat="42.496464874964985" lon="14.146042687448237"><ele>76.0</ele><time>2026-05-01T14:33:33.999Z</time></trkpt><trkpt lat="42.496571760175684" lon="14.145995475777553"><ele>74.0</ele><time>2026-05-01T14:33:34.999Z</time></trkpt><trkpt lat="42.496655669781276" lon="14.145909025835877"><ele>72.0</ele><time>2026-05-01T14:33:35.999Z</time></trkpt><trkpt lat="42.496707539014366" lon="14.145763328478912"><ele>71.5</ele><time>2026-05-01T14:33:36.999Z</time></trkpt><trkpt lat="42.49673326006509" lon="14.145582175471677"><ele>71.0</ele><time>2026-05-01T14:33:37.999Z</time></trkpt><trkpt lat="42.49673126355392" lon="14.14537258051226"><ele>70.5</ele><time>2026-05-01T14:33:38.999Z</time></trkpt><trkpt lat="42.49674707589665" lon="14.145197784397785"><ele>70.0</ele><time>2026-05-01T14:33:39.999Z</time></trkpt><trkpt lat="42.496798391512364" lon="14.1450299032691"><ele>67.5</ele><time>2026-05-01T14:33:40.999Z</time></trkpt><trkpt lat="42.4968850842305" lon="14.144862288621601"><ele>65.0</ele><time>2026-05-01T14:33:41.999Z</time></trkpt><trkpt lat="42.49698499296698" lon="14.144714986620473"><ele>62.5</ele><time>2026-05-01T14:33:42.999Z</time></trkpt><trkpt lat="42.49710049829663" lon="14.144597323214336"><ele>60.0</ele><time>2026-05-01T14:33:43.999Z</time></trkpt><trkpt lat="42.49724130459942" lon="14.144525185422806"><ele>60.0</ele><time>2026-05-01T14:33:44.999Z</time></trkpt><trkpt lat="42.49737964231666" lon="14.14441597204081"><ele>60.0</ele><time>2026-05-01T14:33:45.999Z</time></trkpt><trkpt lat="42.497521578594466" lon="14.14431824422157"><ele>60.0</ele><time>2026-05-01T14:33:46.999Z</time></trkpt><trkpt lat="42.497653185283795" lon="14.144184294558277"><ele>57.0</ele><time>2026-05-01T14:33:47.999Z</time></trkpt><trkpt lat="42.49777646332933" lon="14.14401649217531"><ele>54.0</ele><time>2026-05-01T14:33:48.999Z</time></trkpt><trkpt lat="42.49789208238299" lon="14.143830678365463"><ele>51.0</ele><time>2026-05-01T14:33:49.999Z</time></trkpt><trkpt lat="42.49800671755041" lon="14.143647470446929"><ele>51.0</ele><time>2026-05-01T14:33:50.999Z</time></trkpt><trkpt lat="42.49812859579194" lon="14.143495288279718"><ele>51.0</ele><time>2026-05-01T14:33:51.999Z</time></trkpt><trkpt lat="42.49822163976016" lon="14.14331727030004"><ele>51.0</ele><time>2026-05-01T14:33:52.999Z</time></trkpt><trkpt lat="42.49832084785194" lon="14.143168670225634"><ele>53.599999999999994</ele><time>2026-05-01T14:33:53.999Z</time></trkpt><trkpt lat="42.49840587278261" lon="14.143025338367234"><ele>56.2</ele><time>2026-05-01T14:33:54.999Z</time></trkpt><trkpt lat="42.49848262586932" lon="14.14290326400485"><ele>58.800000000000004</ele><time>2026-05-01T14:33:55.999Z</time></trkpt><trkpt lat="42.49854703065374" lon="14.142807781535671"><ele>61.400000000000006</ele><time>2026-05-01T14:33:57Z</time></trkpt><trkpt lat="42.498602707659295" lon="14.142735254849455"><ele>64.0</ele><time>2026-05-01T14:33:58Z</time></trkpt><trkpt lat="42.498665609253486" lon="14.142685781993535"><ele>64.0</ele><time>2026-05-01T14:34:00Z</time></trkpt><trkpt lat="42.49874930491717" lon="14.142656425691612"><ele>64.0</ele><time>2026-05-01T14:34:14Z</time></trkpt><trkpt lat="42.498772193752636" lon="14.142487206999153"><ele>64.0</ele><time>2026-05-01T14:34:15Z</time></trkpt><trkpt lat="42.4988063723316" lon="14.14233959808964"><ele>64.0</ele><time>2026-05-01T14:34:16Z</time></trkpt><trkpt lat="42.4988581941452" lon="14.1421581186031"><ele>57.0</ele><time>2026-05-01T14:34:17Z</time></trkpt><trkpt lat="42.498931341348936" lon="14.141963336895495"><ele>50.0</ele><time>2026-05-01T14:34:18Z</time></trkpt><trkpt lat="42.49900907294907" lon="14.141779835999635"><ele>43.0</ele><time>2026-05-01T14:34:19Z</time></trkpt><trkpt lat="42.49910671957585" lon="14.141612582863601"><ele>46.0</ele><time>2026-05-01T14:34:20Z</time></trkpt><trkpt lat="42.499207388590904" lon="14.141455761426403"><ele>49.0</ele><time>2026-05-01T14:34:21Z</time></trkpt><trkpt lat="42.49931651394924" lon="14.141303678839149"><ele>52.0</ele><time>2026-05-01T14:34:22Z</time></trkpt><trkpt lat="42.499431699221454" lon="14.141161934698786"><ele>52.0</ele><time>2026-05-01T14:34:23Z</time></trkpt><trkpt lat="42.499552183469554" lon="14.14103009688724"><ele>52.0</ele><time>2026-05-01T14:34:24Z</time></trkpt><trkpt lat="42.49968614050885" lon="14.140908042839332"><ele>52.0</ele><time>2026-05-01T14:34:25Z</time></trkpt><trkpt lat="42.49980951378641" lon="14.14079056401715"><ele>48.75</ele><time>2026-05-01T14:34:26Z</time></trkpt><trkpt lat="42.49991782865654" lon="14.140668780831701"><ele>45.5</ele><time>2026-05-01T14:34:27Z</time></trkpt><trkpt lat="42.50001536543098" lon="14.140526016190773"><ele>42.25</ele><time>2026-05-01T14:34:28Z</time></trkpt><trkpt lat="42.500117558268855" lon="14.140355448027886"><ele>39.0</ele><time>2026-05-01T14:34:29Z</time></trkpt><trkpt lat="42.500208081152536" lon="14.140212184182198"><ele>39.0</ele><time>2026-05-01T14:34:30Z</time></trkpt><trkpt lat="42.50030120833876" lon="14.140076217777107"><ele>39.0</ele><time>2026-05-01T14:34:31Z</time></trkpt><trkpt lat="42.50039118880194" lon="14.139936922494106"><ele>39.0</ele><time>2026-05-01T14:34:32Z</time></trkpt><trkpt lat="42.50047646027365" lon="14.13979869867591"><ele>39.0</ele><time>2026-05-01T14:34:33Z</time></trkpt><trkpt lat="42.5005559055064" lon="14.139667838611162"><ele>35.75</ele><time>2026-05-01T14:34:34Z</time></trkpt><trkpt lat="42.50063261819259" lon="14.13954277658965"><ele>32.5</ele><time>2026-05-01T14:34:35Z</time></trkpt><trkpt lat="42.5007131563703" lon="14.139407073629217"><ele>29.25</ele><time>2026-05-01T14:34:36Z</time></trkpt><trkpt lat="42.500784128633654" lon="14.139262913146394"><ele>26.0</ele><time>2026-05-01T14:34:37Z</time></trkpt><trkpt lat="42.50085368987543" lon="14.139117791396215"><ele>24.75</ele><time>2026-05-01T14:34:38Z</time></trkpt><trkpt lat="42.50092120941804" lon="14.138971754378435"><ele>23.5</ele><time>2026-05-01T14:34:39Z</time></trkpt><trkpt lat="42.5009842747423" lon="14.138832276021663"><ele>22.25</ele><time>2026-05-01T14:34:40Z</time></trkpt><trkpt lat="42.50104376966966" lon="14.138701059906168"><ele>21.0</ele><time>2026-05-01T14:34:41Z</time></trkpt><trkpt lat="42.50110113921924" lon="14.138589993522483"><ele>21.0</ele><time>2026-05-01T14:34:42Z</time></trkpt><trkpt lat="42.50114475598092" lon="14.138492990024693"><ele>21.0</ele><time>2026-05-01T14:34:43Z</time></trkpt><trkpt lat="42.50118731781738" lon="14.138382922871116"><ele>21.0</ele><time>2026-05-01T14:34:44Z</time></trkpt><trkpt lat="42.50122989964057" lon="14.13825282218287"><ele>21.0</ele><time>2026-05-01T14:34:45Z</time></trkpt><trkpt lat="42.50126075307035" lon="14.13808895736414"><ele>21.0</ele><time>2026-05-01T14:34:46Z</time></trkpt><trkpt lat="42.501293155110105" lon="14.137905724618804"><ele>19.75</ele><time>2026-05-01T14:34:47Z</time></trkpt><trkpt lat="42.501333189362725" lon="14.137720912785268"><ele>18.5</ele><time>2026-05-01T14:34:48Z</time></trkpt><trkpt lat="42.50139282410342" lon="14.137541613453907"><ele>17.25</ele><time>2026-05-01T14:34:49Z</time></trkpt><trkpt lat="42.501449310002464" lon="14.137350678595185"><ele>16.0</ele><time>2026-05-01T14:34:50Z</time></trkpt><trkpt lat="42.501494470869396" lon="14.137173044604074"><ele>15.5</ele><time>2026-05-01T14:34:51Z</time></trkpt><trkpt lat="42.50153596989714" lon="14.137014419380819"><ele>15.0</ele><time>2026-05-01T14:34:52Z</time></trkpt><trkpt lat="42.501575291247605" lon="14.136856078385055"><ele>14.5</ele><time>2026-05-01T14:34:53Z</time></trkpt><trkpt lat="42.5016134817428" lon="14.136689245751347"><ele>14.0</ele><time>2026-05-01T14:34:54Z</time></trkpt><trkpt lat="42.501654973168655" lon="14.136521881189118"><ele>14.0</ele><time>2026-05-01T14:34:55Z</time></trkpt><trkpt lat="42.50169635831387" lon="14.13635520785335"><ele>14.0</ele><time>2026-05-01T14:34:56Z</time></trkpt><trkpt lat="42.5017369976733" lon="14.136197667921184"><ele>14.0</ele><time>2026-05-01T14:34:57Z</time></trkpt><trkpt lat="42.50177795038402" lon="14.136049974760962"><ele>14.0</ele><time>2026-05-01T14:34:58Z</time></trkpt><trkpt lat="42.50181773504291" lon="14.13590806082307"><ele>14.0</ele><time>2026-05-01T14:34:59Z</time></trkpt><trkpt lat="42.5018469032329" lon="14.135774445054825"><ele>13.999999999999998</ele><time>2026-05-01T14:35:00Z</time></trkpt><trkpt lat="42.501890887222835" lon="14.135631566547383"><ele>13.999999999999998</ele><time>2026-05-01T14:35:01Z</time></trkpt><trkpt lat="42.50192937074537" lon="14.135485261437708"><ele>14.0</ele><time>2026-05-01T14:35:02Z</time></trkpt><trkpt lat="42.50195123306324" lon="14.13534949495446"><ele>14.0</ele><time>2026-05-01T14:35:03Z</time></trkpt><trkpt lat="42.50198886458557" lon="14.135222113971224"><ele>14.0</ele><time>2026-05-01T14:35:03.999Z</time></trkpt><trkpt lat="42.50202231829996" lon="14.135099625711655"><ele>13.999999999999998</ele><time>2026-05-01T14:35:04.999Z</time></trkpt><trkpt lat="42.502050239408526" lon="14.135007112158858"><ele>13.999999999999998</ele><time>2026-05-01T14:35:05.999Z</time></trkpt><trkpt lat="42.50212796794543" lon="14.134886329757617"><ele>14.0</ele><time>2026-05-01T14:35:07.999Z</time></trkpt><trkpt lat="42.50218820527436" lon="14.134809420562775"><ele>14.0</ele><time>2026-05-01T14:35:08.999Z</time></trkpt><trkpt lat="42.50226042929559" lon="14.134751520097307"><ele>14.0</ele><time>2026-05-01T14:35:09.999Z</time></trkpt><trkpt lat="42.502363124400304" lon="14.134724690455817"><ele>13.999999999999998</ele><time>2026-05-01T14:35:10.999Z</time></trkpt><trkpt lat="42.50247784432342" lon="14.13473879216897"><ele>13.999999999999998</ele><time>2026-05-01T14:35:11.999Z</time></trkpt><trkpt lat="42.502568909426785" lon="14.13479732653975"><ele>14.0</ele><time>2026-05-01T14:35:12.999Z</time></trkpt><trkpt lat="42.50264525001885" lon="14.134882186570817"><ele>14.0</ele><time>2026-05-01T14:35:13.999Z</time></trkpt><trkpt lat="42.50272934206458" lon="14.134986116070682"><ele>14.000000000000002</ele><time>2026-05-01T14:35:14.999Z</time></trkpt><trkpt lat="42.5028119356263" lon="14.135083801910419"><ele>14.0</ele><time>2026-05-01T14:35:15.999Z</time></trkpt><trkpt lat="42.502877143149554" lon="14.135155652549269"><ele>14.0</ele><time>2026-05-01T14:35:16.999Z</time></trkpt><trkpt lat="42.502944820672326" lon="14.135217678638083"><ele>14.0</ele><time>2026-05-01T14:35:17.999Z</time></trkpt><trkpt lat="42.5030097655419" lon="14.135276663120916"><ele>14.000000000000002</ele><time>2026-05-01T14:35:18.999Z</time></trkpt><trkpt lat="42.50308916112853" lon="14.135317652685965"><ele>14.0</ele><time>2026-05-01T14:35:20.999Z</time></trkpt><trkpt lat="42.50316758616272" lon="14.135029671336723"><ele>13.75</ele><time>2026-05-01T14:35:23.999Z</time></trkpt><trkpt lat="42.503205476474854" lon="14.134852520479834"><ele>13.5</ele><time>2026-05-01T14:35:24.999Z</time></trkpt><trkpt lat="42.503263758298665" lon="14.134656843593966"><ele>13.25</ele><time>2026-05-01T14:35:25.999Z</time></trkpt><trkpt lat="42.503330388727996" lon="14.134468063595163"><ele>13.0</ele><time>2026-05-01T14:35:26.999Z</time></trkpt><trkpt lat="42.503382690234005" lon="14.134277050183494"><ele>13.0</ele><time>2026-05-01T14:35:27.999Z</time></trkpt><trkpt lat="42.50341841601766" lon="14.134105083479946"><ele>13.0</ele><time>2026-05-01T14:35:28.999Z</time></trkpt><trkpt lat="42.503461362057365" lon="14.13394795915583"><ele>13.0</ele><time>2026-05-01T14:35:29.999Z</time></trkpt><trkpt lat="42.503510943634666" lon="14.133808105287914"><ele>13.0</ele><time>2026-05-01T14:35:30.999Z</time></trkpt><trkpt lat="42.50355787233565" lon="14.133691396846054"><ele>13.0</ele><time>2026-05-01T14:35:31.999Z</time></trkpt><trkpt lat="42.50363069589131" lon="14.133595845485331"><ele>13.0</ele><time>2026-05-01T14:35:32.999Z</time></trkpt><trkpt lat="42.50372739490028" lon="14.133502210169745"><ele>13.0</ele><time>2026-05-01T14:35:33.999Z</time></trkpt><trkpt lat="42.503847859689444" lon="14.13339617366052"><ele>13.0</ele><time>2026-05-01T14:35:34.999Z</time></trkpt><trkpt lat="42.50397835030521" lon="14.133277397659864"><ele>13.0</ele><time>2026-05-01T14:35:35.999Z</time></trkpt><trkpt lat="42.504124522045" lon="14.133141277517508"><ele>13.0</ele><time>2026-05-01T14:35:36.999Z</time></trkpt><trkpt lat="42.50427637358414" lon="14.133007693971079"><ele>13.0</ele><time>2026-05-01T14:35:37.999Z</time></trkpt><trkpt lat="42.504420306916636" lon="14.132873469103814"><ele>13.0</ele><time>2026-05-01T14:35:38.999Z</time></trkpt><trkpt lat="42.504548948529475" lon="14.13275463403134"><ele>13.0</ele><time>2026-05-01T14:35:39.999Z</time></trkpt><trkpt lat="42.50468310207755" lon="14.132636459360526"><ele>13.0</ele><time>2026-05-01T14:35:40.999Z</time></trkpt><trkpt lat="42.504831116122034" lon="14.132501508753556"><ele>11.666666666666666</ele><time>2026-05-01T14:35:41.999Z</time></trkpt><trkpt lat="42.50497023723234" lon="14.132372631813867"><ele>10.333333333333332</ele><time>2026-05-01T14:35:42.999Z</time></trkpt><trkpt lat="42.50510486142496" lon="14.13223639147948"><ele>9.0</ele><time>2026-05-01T14:35:43.999Z</time></trkpt><trkpt lat="42.50525247882337" lon="14.132097286144985"><ele>9.0</ele><time>2026-05-01T14:35:44.999Z</time></trkpt><trkpt lat="42.5053959737069" lon="14.131969344981556"><ele>9.0</ele><time>2026-05-01T14:35:45.999Z</time></trkpt><trkpt lat="42.50553728254531" lon="14.131838977923024"><ele>9.0</ele><time>2026-05-01T14:35:46.999Z</time></trkpt><trkpt lat="42.505668669994755" lon="14.131718705437397"><ele>9.0</ele><time>2026-05-01T14:35:47.999Z</time></trkpt><trkpt lat="42.505804593613234" lon="14.131597547113413"><ele>9.0</ele><time>2026-05-01T14:35:48.999Z</time></trkpt><trkpt lat="42.505930539888716" lon="14.131485776023942"><ele>9.0</ele><time>2026-05-01T14:35:49.999Z</time></trkpt><trkpt lat="42.50606252189394" lon="14.131367286547007"><ele>9.0</ele><time>2026-05-01T14:35:50.999Z</time></trkpt><trkpt lat="42.506193948676064" lon="14.131251224505986"><ele>9.0</ele><time>2026-05-01T14:35:51.999Z</time></trkpt><trkpt lat="42.50631932296026" lon="14.13114169953944"><ele>9.0</ele><time>2026-05-01T14:35:52.999Z</time></trkpt><trkpt lat="42.50644812985776" lon="14.131041909358645"><ele>9.0</ele><time>2026-05-01T14:35:53.999Z</time></trkpt><trkpt lat="42.50659484768797" lon="14.130973685785662"><ele>9.0</ele><time>2026-05-01T14:35:54.999Z</time></trkpt><trkpt lat="42.506739882297836" lon="14.130903939612686"><ele>9.0</ele><time>2026-05-01T14:35:55.999Z</time></trkpt><trkpt lat="42.50687947042579" lon="14.13083520966262"><ele>9.0</ele><time>2026-05-01T14:35:56.999Z</time></trkpt><trkpt lat="42.50704174201705" lon="14.130785081894373"><ele>9.0</ele><time>2026-05-01T14:35:57.999Z</time></trkpt><trkpt lat="42.50719383281786" lon="14.130715338781753"><ele>9.0</ele><time>2026-05-01T14:35:58.999Z</time></trkpt><trkpt lat="42.5073416686977" lon="14.130673429093273"><ele>9.75</ele><time>2026-05-01T14:35:59.999Z</time></trkpt><trkpt lat="42.50747517547861" lon="14.130633359736546"><ele>10.5</ele><time>2026-05-01T14:36:00.999Z</time></trkpt><trkpt lat="42.50760853236643" lon="14.13058583192625"><ele>11.25</ele><time>2026-05-01T14:36:01.999Z</time></trkpt><trkpt lat="42.507746622950684" lon="14.130515161643375"><ele>12.0</ele><time>2026-05-01T14:36:03Z</time></trkpt><trkpt lat="42.507888640036704" lon="14.130422061183058"><ele>12.0</ele><time>2026-05-01T14:36:04Z</time></trkpt><trkpt lat="42.50802765867183" lon="14.130309395015626"><ele>12.0</ele><time>2026-05-01T14:36:05Z</time></trkpt><trkpt lat="42.50816264224337" lon="14.1301886684525"><ele>12.0</ele><time>2026-05-01T14:36:06Z</time></trkpt><trkpt lat="42.50828765048744" lon="14.130080260247164"><ele>12.0</ele><time>2026-05-01T14:36:07Z</time></trkpt><trkpt lat="42.50839849919459" lon="14.129983863139143"><ele>12.0</ele><time>2026-05-01T14:36:08Z</time></trkpt><trkpt lat="42.50849758143375" lon="14.129903259301143"><ele>12.0</ele><time>2026-05-01T14:36:09Z</time></trkpt><trkpt lat="42.508586974824205" lon="14.129827915737154"><ele>12.0</ele><time>2026-05-01T14:36:10Z</time></trkpt><trkpt lat="42.50866245118141" lon="14.129761814111642"><ele>12.0</ele><time>2026-05-01T14:36:11Z</time></trkpt><trkpt lat="42.5087561269049" lon="14.129716946428738"><ele>10.75</ele><time>2026-05-01T14:36:12Z</time></trkpt><trkpt lat="42.50886458642352" lon="14.129746645501724"><ele>9.5</ele><time>2026-05-01T14:36:13Z</time></trkpt><trkpt lat="42.508982644815404" lon="14.12978473790092"><ele>8.25</ele><time>2026-05-01T14:36:14Z</time></trkpt><trkpt lat="42.50909622586925" lon="14.12988286709881"><ele>7.0</ele><time>2026-05-01T14:36:15Z</time></trkpt><trkpt lat="42.509191870337666" lon="14.130000470536887"><ele>7.0</ele><time>2026-05-01T14:36:16Z</time></trkpt><trkpt lat="42.509296128444824" lon="14.130145551377483"><ele>7.0</ele><time>2026-05-01T14:36:17Z</time></trkpt><trkpt lat="42.50941899444514" lon="14.130308674559382"><ele>7.0</ele><time>2026-05-01T14:36:18Z</time></trkpt><trkpt lat="42.50953102726266" lon="14.130475680957328"><ele>7.0</ele><time>2026-05-01T14:36:19Z</time></trkpt><trkpt lat="42.509650394402534" lon="14.130660015307274"><ele>7.0</ele><time>2026-05-01T14:36:20Z</time></trkpt><trkpt lat="42.50976439826493" lon="14.13083887953015"><ele>7.0</ele><time>2026-05-01T14:36:21Z</time></trkpt><trkpt lat="42.509882187459674" lon="14.131017135301956"><ele>6.333333333333334</ele><time>2026-05-01T14:36:22Z</time></trkpt><trkpt lat="42.509997314060726" lon="14.131192216446136"><ele>5.666666666666667</ele><time>2026-05-01T14:36:23Z</time></trkpt><trkpt lat="42.51010659082556" lon="14.131373295568547"><ele>5.0</ele><time>2026-05-01T14:36:24Z</time></trkpt><trkpt lat="42.51021012068624" lon="14.131549233703733"><ele>5.333333333333334</ele><time>2026-05-01T14:36:25Z</time></trkpt><trkpt lat="42.51030854418643" lon="14.131729280613865"><ele>5.666666666666667</ele><time>2026-05-01T14:36:26Z</time></trkpt><trkpt lat="42.51040585789371" lon="14.131913330374308"><ele>6.0</ele><time>2026-05-01T14:36:27Z</time></trkpt><trkpt lat="42.51050333699354" lon="14.13209763370228"><ele>6.0</ele><time>2026-05-01T14:36:28Z</time></trkpt><trkpt lat="42.51059433740332" lon="14.132271962615516"><ele>6.0</ele><time>2026-05-01T14:36:29Z</time></trkpt><trkpt lat="42.510679949748926" lon="14.132439354975133"><ele>6.0</ele><time>2026-05-01T14:36:30Z</time></trkpt><trkpt lat="42.51076080674859" lon="14.132598708462053"><ele>6.0</ele><time>2026-05-01T14:36:31Z</time></trkpt><trkpt lat="42.51084029713413" lon="14.132748524162308"><ele>6.0</ele><time>2026-05-01T14:36:32Z</time></trkpt><trkpt lat="42.51092002535114" lon="14.132893944987522"><ele>6.0</ele><time>2026-05-01T14:36:33Z</time></trkpt><trkpt lat="42.51100219463687" lon="14.133034039207859"><ele>6.0</ele><time>2026-05-01T14:36:34Z</time></trkpt><trkpt lat="42.511085551466" lon="14.133167229814887"><ele>6.25</ele><time>2026-05-01T14:36:35Z</time></trkpt><trkpt lat="42.51117093876488" lon="14.133303415714442"><ele>6.5</ele><time>2026-05-01T14:36:36Z</time></trkpt><trkpt lat="42.51125514839053" lon="14.1334466088228"><ele>6.75</ele><time>2026-05-01T14:36:37Z</time></trkpt><trkpt lat="42.51133572984887" lon="14.13359102461324"><ele>7.0</ele><time>2026-05-01T14:36:38Z</time></trkpt><trkpt lat="42.51141067137874" lon="14.133734604001882"><ele>6.5</ele><time>2026-05-01T14:36:39Z</time></trkpt><trkpt lat="42.51147985985366" lon="14.13387910881832"><ele>6.0</ele><time>2026-05-01T14:36:40Z</time></trkpt><trkpt lat="42.51154596418451" lon="14.134019319218366"><ele>5.5</ele><time>2026-05-01T14:36:41Z</time></trkpt><trkpt lat="42.51161670478413" lon="14.134171120582423"><ele>5.0</ele><time>2026-05-01T14:36:42Z</time></trkpt><trkpt lat="42.511708807330784" lon="14.134309609911504"><ele>5.0</ele><time>2026-05-01T14:36:43Z</time></trkpt><trkpt lat="42.5118209514393" lon="14.134432383169313"><ele>5.0</ele><time>2026-05-01T14:36:44Z</time></trkpt><trkpt lat="42.51196328464191" lon="14.134552823162664"><ele>5.0</ele><time>2026-05-01T14:36:45Z</time></trkpt><trkpt lat="42.51212804414045" lon="14.134670386542737"><ele>4.333333333333334</ele><time>2026-05-01T14:36:46Z</time></trkpt><trkpt lat="42.5123018637298" lon="14.134777659609993"><ele>3.666666666666667</ele><time>2026-05-01T14:36:47Z</time></trkpt><trkpt lat="42.51247087155809" lon="14.134892679803702"><ele>3.0</ele><time>2026-05-01T14:36:48Z</time></trkpt><trkpt lat="42.5126261347003" lon="14.13500496231213"><ele>3.0</ele><time>2026-05-01T14:36:49Z</time></trkpt><trkpt lat="42.51276821724032" lon="14.135123016947206"><ele>3.0</ele><time>2026-05-01T14:36:50Z</time></trkpt><trkpt lat="42.51290684170846" lon="14.13526424451295"><ele>3.0</ele><time>2026-05-01T14:36:51Z</time></trkpt><trkpt lat="42.5130308349595" lon="14.13542981421111"><ele>3.0</ele><time>2026-05-01T14:36:52Z</time></trkpt><trkpt lat="42.513137970900075" lon="14.135612580707878"><ele>3.0</ele><time>2026-05-01T14:36:53Z</time></trkpt><trkpt lat="42.513228775512786" lon="14.135821646836787"><ele>3.0</ele><time>2026-05-01T14:36:54Z</time></trkpt><trkpt lat="42.51331312996607" lon="14.136047487942163"><ele>3.0</ele><time>2026-05-01T14:36:55Z</time></trkpt><trkpt lat="42.5133719161164" lon="14.136289372957526"><ele>3.0</ele><time>2026-05-01T14:36:56Z</time></trkpt><trkpt lat="42.513416199812916" lon="14.136539752573976"><ele>3.0</ele><time>2026-05-01T14:36:57Z</time></trkpt><trkpt lat="42.51346534803439" lon="14.136778530607415"><ele>3.25</ele><time>2026-05-01T14:36:58Z</time></trkpt><trkpt lat="42.513530756000065" lon="14.136987350147512"><ele>3.5</ele><time>2026-05-01T14:36:59Z</time></trkpt><trkpt lat="42.51359693306519" lon="14.137161208308397"><ele>3.75</ele><time>2026-05-01T14:37:00Z</time></trkpt><trkpt lat="42.51365594071565" lon="14.137314471340872"><ele>4.0</ele><time>2026-05-01T14:37:01Z</time></trkpt><trkpt lat="42.51370988309811" lon="14.137442797621434"><ele>4.4</ele><time>2026-05-01T14:37:02Z</time></trkpt><trkpt lat="42.513746048465556" lon="14.137557520492386"><ele>4.800000000000001</ele><time>2026-05-01T14:37:03Z</time></trkpt><trkpt lat="42.51377840353667" lon="14.137653900119478"><ele>5.199999999999999</ele><time>2026-05-01T14:37:04Z</time></trkpt><trkpt lat="42.513796137008235" lon="14.137786813737643"><ele>5.6</ele><time>2026-05-01T14:37:05Z</time></trkpt><trkpt lat="42.513706726860974" lon="14.137951682070428"><ele>6.0</ele><time>2026-05-01T14:37:06Z</time></trkpt><trkpt lat="42.513650808140255" lon="14.138109732435405"><ele>5.666666666666667</ele><time>2026-05-01T14:37:07Z</time></trkpt><trkpt lat="42.51357397862969" lon="14.138282979640985"><ele>5.333333333333334</ele><time>2026-05-01T14:37:08Z</time></trkpt><trkpt lat="42.513499340686174" lon="14.138474748031761"><ele>5.0</ele><time>2026-05-01T14:37:09Z</time></trkpt><trkpt lat="42.51340327207438" lon="14.138705370489998"><ele>5.0</ele><time>2026-05-01T14:37:10Z</time></trkpt><trkpt lat="42.51330916592089" lon="14.138924987433352"><ele>5.0</ele><time>2026-05-01T14:37:11Z</time></trkpt><trkpt lat="42.51322764446569" lon="14.139149658545866"><ele>5.0</ele><time>2026-05-01T14:37:12Z</time></trkpt><trkpt lat="42.51315268809514" lon="14.139344495695942"><ele>5.333333333333334</ele><time>2026-05-01T14:37:13Z</time></trkpt><trkpt lat="42.513079830713956" lon="14.139519983276642"><ele>5.666666666666667</ele><time>2026-05-01T14:37:14Z</time></trkpt><trkpt lat="42.51300995775877" lon="14.1397011530933"><ele>6.0</ele><time>2026-05-01T14:37:15Z</time></trkpt><trkpt lat="42.51294103279403" lon="14.139894346745095"><ele>6.0</ele><time>2026-05-01T14:37:16Z</time></trkpt><trkpt lat="42.5128818159131" lon="14.140069830686329"><ele>6.0</ele><time>2026-05-01T14:37:17Z</time></trkpt><trkpt lat="42.512821441249976" lon="14.140236570634938"><ele>6.0</ele><time>2026-05-01T14:37:18Z</time></trkpt><trkpt lat="42.512767898034184" lon="14.140394281877315"><ele>6.0</ele><time>2026-05-01T14:37:19Z</time></trkpt><trkpt lat="42.51270667028831" lon="14.140558906626653"><ele>6.0</ele><time>2026-05-01T14:37:20Z</time></trkpt><trkpt lat="42.5126468248527" lon="14.140711259154054"><ele>6.0</ele><time>2026-05-01T14:37:20.999Z</time></trkpt><trkpt lat="42.512587406193134" lon="14.140860059399328"><ele>6.0</ele><time>2026-05-01T14:37:21.999Z</time></trkpt><trkpt lat="42.51253360263912" lon="14.14100348868998"><ele>6.0</ele><time>2026-05-01T14:37:22.999Z</time></trkpt><trkpt lat="42.51248819554706" lon="14.141134342478702"><ele>6.333333333333333</ele><time>2026-05-01T14:37:23.999Z</time></trkpt><trkpt lat="42.51245242492434" lon="14.141245751239282"><ele>6.666666666666666</ele><time>2026-05-01T14:37:24.999Z</time></trkpt><trkpt lat="42.51243132049953" lon="14.141342294131018"><ele>7.0</ele><time>2026-05-01T14:37:25.999Z</time></trkpt><trkpt lat="42.51245103422232" lon="14.141439456751879"><ele>7.333333333333333</ele><time>2026-05-01T14:37:26.999Z</time></trkpt><trkpt lat="42.51249507119091" lon="14.141525821430594"><ele>7.666666666666666</ele><time>2026-05-01T14:37:27.999Z</time></trkpt><trkpt lat="42.51259720111312" lon="14.141524093162118"><ele>8.0</ele><time>2026-05-01T14:37:28.999Z</time></trkpt><trkpt lat="42.51270759584747" lon="14.14150244428617"><ele>8.0</ele><time>2026-05-01T14:37:29.999Z</time></trkpt><trkpt lat="42.51282739691875" lon="14.141478465008738"><ele>8.0</ele><time>2026-05-01T14:37:30.999Z</time></trkpt><trkpt lat="42.51297399788981" lon="14.141450758117612"><ele>8.0</ele><time>2026-05-01T14:37:31.999Z</time></trkpt><trkpt lat="42.51313679602793" lon="14.141449959107685"><ele>8.0</ele><time>2026-05-01T14:37:32.999Z</time></trkpt><trkpt lat="42.51328751864543" lon="14.141474499439644"><ele>7.5</ele><time>2026-05-01T14:37:33.999Z</time></trkpt><trkpt lat="42.51342847999109" lon="14.141518854627622"><ele>7.0</ele><time>2026-05-01T14:37:34.999Z</time></trkpt><trkpt lat="42.5135587122643" lon="14.141585493641252"><ele>6.5</ele><time>2026-05-01T14:37:35.999Z</time></trkpt><trkpt lat="42.51368718364988" lon="14.141670260671372"><ele>6.0</ele><time>2026-05-01T14:37:36.999Z</time></trkpt><trkpt lat="42.51381120449098" lon="14.14176036871905"><ele>5.25</ele><time>2026-05-01T14:37:37.999Z</time></trkpt><trkpt lat="42.513923727635536" lon="14.141842834537414"><ele>4.5</ele><time>2026-05-01T14:37:38.999Z</time></trkpt><trkpt lat="42.51402460799046" lon="14.141923725836534"><ele>3.75</ele><time>2026-05-01T14:37:39.999Z</time></trkpt><trkpt lat="42.514122057092834" lon="14.142004027652183"><ele>3.0</ele><time>2026-05-01T14:37:40.999Z</time></trkpt><trkpt lat="42.51420623887248" lon="14.142089414874732"><ele>3.0</ele><time>2026-05-01T14:37:41.999Z</time></trkpt><trkpt lat="42.51426357266989" lon="14.142198283786616"><ele>3.0</ele><time>2026-05-01T14:37:42.999Z</time></trkpt><trkpt lat="42.51429116409757" lon="14.14231611043285"><ele>3.0</ele><time>2026-05-01T14:37:43.999Z</time></trkpt><trkpt lat="42.51431845854954" lon="14.142422604283897"><ele>3.0</ele><time>2026-05-01T14:37:44.999Z</time></trkpt><trkpt lat="42.51435048845976" lon="14.142514895480092"><ele>3.0</ele><time>2026-05-01T14:37:45.999Z</time></trkpt><trkpt lat="42.51440838090474" lon="14.142568871680503"><ele>3.0</ele><time>2026-05-01T14:37:46.999Z</time></trkpt><trkpt lat="42.51454139050352" lon="14.142479146330677"><ele>2.8</ele><time>2026-05-01T14:37:47.999Z</time></trkpt><trkpt lat="42.514627181875184" lon="14.142420834069439"><ele>2.5999999999999996</ele><time>2026-05-01T14:37:48.999Z</time></trkpt><trkpt lat="42.514720265278314" lon="14.142410108342748"><ele>2.4000000000000004</ele><time>2026-05-01T14:37:49.999Z</time></trkpt><trkpt lat="42.51481129676266" lon="14.14248781143816"><ele>2.2</ele><time>2026-05-01T14:37:50.999Z</time></trkpt><trkpt lat="42.514920067595924" lon="14.142556514619438"><ele>2.0</ele><time>2026-05-01T14:37:51.999Z</time></trkpt><trkpt lat="42.515028256865726" lon="14.142655659185603"><ele>2.0</ele><time>2026-05-01T14:37:52.999Z</time></trkpt><trkpt lat="42.51512781136878" lon="14.142748266373024"><ele>2.0</ele><time>2026-05-01T14:37:53.999Z</time></trkpt><trkpt lat="42.51524535082347" lon="14.142847235540858"><ele>2.0</ele><time>2026-05-01T14:37:54.999Z</time></trkpt><trkpt lat="42.5153501832086" lon="14.142933065793894"><ele>2.0</ele><time>2026-05-01T14:37:55.999Z</time></trkpt><trkpt lat="42.51548254008716" lon="14.14299381094174"><ele>2.25</ele><time>2026-05-01T14:37:56.999Z</time></trkpt><trkpt lat="42.5156084272806" lon="14.143047951376847"><ele>2.5</ele><time>2026-05-01T14:37:57.999Z</time></trkpt><trkpt lat="42.51571557816388" lon="14.14314898529323"><ele>2.75</ele><time>2026-05-01T14:37:58.999Z</time></trkpt><trkpt lat="42.51587361971888" lon="14.14326304536058"><ele>3.0</ele><time>2026-05-01T14:37:59.999Z</time></trkpt><trkpt lat="42.515992360736426" lon="14.14334450229253"><ele>3.25</ele><time>2026-05-01T14:38:00.999Z</time></trkpt><trkpt lat="42.51610575936028" lon="14.143424608680922"><ele>3.5</ele><time>2026-05-01T14:38:01.999Z</time></trkpt><trkpt lat="42.51622060463925" lon="14.143504832147197"><ele>3.75</ele><time>2026-05-01T14:38:02.999Z</time></trkpt><trkpt lat="42.51633249250188" lon="14.143591238283665"><ele>4.0</ele><time>2026-05-01T14:38:03.999Z</time></trkpt><trkpt lat="42.51644196062888" lon="14.143664933190596"><ele>4.5</ele><time>2026-05-01T14:38:04.999Z</time></trkpt><trkpt lat="42.51655590787646" lon="14.143753623566004"><ele>5.0</ele><time>2026-05-01T14:38:05.999Z</time></trkpt><trkpt lat="42.51667154903491" lon="14.143834979980472"><ele>5.5</ele><time>2026-05-01T14:38:06.999Z</time></trkpt><trkpt lat="42.51676948441308" lon="14.14390835802934"><ele>6.0</ele><time>2026-05-01T14:38:07.999Z</time></trkpt><trkpt lat="42.516843686619445" lon="14.143958541226759"><ele>6.0</ele><time>2026-05-01T14:38:09Z</time></trkpt><trkpt lat="42.51692804264414" lon="14.144010181986012"><ele>6.0</ele><time>2026-05-01T14:38:10Z</time></trkpt><trkpt lat="42.51703463486713" lon="14.144089009373808"><ele>6.0</ele><time>2026-05-01T14:38:11Z</time></trkpt><trkpt lat="42.51715455552296" lon="14.144175520699086"><ele>6.0</ele><time>2026-05-01T14:38:12Z</time></trkpt><trkpt lat="42.51727880781295" lon="14.144269379762385"><ele>5.25</ele><time>2026-05-01T14:38:13Z</time></trkpt><trkpt lat="42.51740730498244" lon="14.144364530221704"><ele>4.5</ele><time>2026-05-01T14:38:14Z</time></trkpt><trkpt lat="42.51753777359152" lon="14.144457800539458"><ele>3.75</ele><time>2026-05-01T14:38:15Z</time></trkpt><trkpt lat="42.51766722423718" lon="14.14455010617841"><ele>3.0</ele><time>2026-05-01T14:38:16Z</time></trkpt><trkpt lat="42.51778152708085" lon="14.144630498662792"><ele>3.0</ele><time>2026-05-01T14:38:17Z</time></trkpt><trkpt lat="42.5179058434648" lon="14.144713809828838"><ele>3.0</ele><time>2026-05-01T14:38:18Z</time></trkpt><trkpt lat="42.518045595507104" lon="14.144815111633305"><ele>3.0</ele><time>2026-05-01T14:38:19Z</time></trkpt><trkpt lat="42.51818092670117" lon="14.144916310589776"><ele>3.0</ele><time>2026-05-01T14:38:20Z</time></trkpt><trkpt lat="42.518310982315676" lon="14.145010293795476"><ele>3.0</ele><time>2026-05-01T14:38:21Z</time></trkpt><trkpt lat="42.51843062860092" lon="14.145100574510298"><ele>3.0</ele><time>2026-05-01T14:38:22Z</time></trkpt><trkpt lat="42.51855586976264" lon="14.145189936677905"><ele>3.0</ele><time>2026-05-01T14:38:23Z</time></trkpt><trkpt lat="42.51867010365106" lon="14.145266867561821"><ele>3.0</ele><time>2026-05-01T14:38:24Z</time></trkpt><trkpt lat="42.51878155186214" lon="14.145348008504405"><ele>3.0</ele><time>2026-05-01T14:38:25Z</time></trkpt><trkpt lat="42.51888058947856" lon="14.145426318021965"><ele>3.0</ele><time>2026-05-01T14:38:26Z</time></trkpt><trkpt lat="42.51897640504534" lon="14.145493562636398"><ele>3.0</ele><time>2026-05-01T14:38:27Z</time></trkpt><trkpt lat="42.51907627333031" lon="14.145561592074301"><ele>3.0</ele><time>2026-05-01T14:38:28Z</time></trkpt><trkpt lat="42.519161123330356" lon="14.145624249051002"><ele>3.0</ele><time>2026-05-01T14:38:29Z</time></trkpt><trkpt lat="42.51924117873336" lon="14.14567770031432"><ele>3.0</ele><time>2026-05-01T14:38:30Z</time></trkpt><trkpt lat="42.51931538476036" lon="14.14572508708528"><ele>3.0</ele><time>2026-05-01T14:38:31Z</time></trkpt><trkpt lat="42.519389370319054" lon="14.145768631107154"><ele>3.0</ele><time>2026-05-01T14:38:32Z</time></trkpt><trkpt lat="42.519468009737444" lon="14.145849636901008"><ele>3.0</ele><time>2026-05-01T14:38:33Z</time></trkpt><trkpt lat="42.51951428428615" lon="14.14590787488312"><ele>3.0</ele><time>2026-05-01T14:38:34Z</time></trkpt><trkpt lat="42.519565935252004" lon="14.146013566936105"><ele>3.0</ele><time>2026-05-01T14:38:36Z</time></trkpt><trkpt lat="42.51956732107179" lon="14.146108879470912"><ele>3.0</ele><time>2026-05-01T14:38:38Z</time></trkpt><trkpt lat="42.51947651084056" lon="14.146258171263893"><ele>3.0</ele><time>2026-05-01T14:38:40Z</time></trkpt><trkpt lat="42.51939164790796" lon="14.146385613548427"><ele>3.0</ele><time>2026-05-01T14:38:41Z</time></trkpt><trkpt lat="42.51930157330487" lon="14.146526491925774"><ele>3.0</ele><time>2026-05-01T14:38:42Z</time></trkpt><trkpt lat="42.51920563734757" lon="14.146654097532776"><ele>3.0</ele><time>2026-05-01T14:38:43Z</time></trkpt><trkpt lat="42.51914008353776" lon="14.146737562206276"><ele>3.0</ele><time>2026-05-01T14:38:44Z</time></trkpt><trkpt lat="42.519083646405974" lon="14.146790804792106"><ele>3.0</ele><time>2026-05-01T14:38:45Z</time></trkpt><trkpt lat="42.51901977575071" lon="14.146867965318465"><ele>3.0</ele><time>2026-05-01T14:38:46Z</time></trkpt><trkpt lat="42.519054441493914" lon="14.14702518627476"><ele>3.0</ele><time>2026-05-01T14:38:47Z</time></trkpt><trkpt lat="42.51908584719624" lon="14.147127763250314"><ele>3.0</ele><time>2026-05-01T14:38:48Z</time></trkpt><trkpt lat="42.51915254014935" lon="14.147207633736661"><ele>3.0</ele><time>2026-05-01T14:38:49Z</time></trkpt><trkpt lat="42.51926261333202" lon="14.14726986391493"><ele>3.0</ele><time>2026-05-01T14:38:50Z</time></trkpt><trkpt lat="42.51938007809605" lon="14.14731583463374"><ele>3.0</ele><time>2026-05-01T14:38:51Z</time></trkpt><trkpt lat="42.519516513394386" lon="14.147326812601166"><ele>3.0</ele><time>2026-05-01T14:38:52Z</time></trkpt><trkpt lat="42.519561565610935" lon="14.147487711269086"><ele>3.0</ele><time>2026-05-01T14:38:53Z</time></trkpt><trkpt lat="42.51966072972719" lon="14.14766188636921"><ele>3.0</ele><time>2026-05-01T14:38:54Z</time></trkpt><trkpt lat="42.51980009470649" lon="14.147884082149108"><ele>2.75</ele><time>2026-05-01T14:38:55Z</time></trkpt><trkpt lat="42.5198930543395" lon="14.148013909966354"><ele>2.5</ele><time>2026-05-01T14:38:56Z</time></trkpt><trkpt lat="42.519954743394166" lon="14.148172342532876"><ele>2.25</ele><time>2026-05-01T14:38:57Z</time></trkpt><trkpt lat="42.52003681904779" lon="14.148327789997131"><ele>2.0</ele><time>2026-05-01T14:38:58Z</time></trkpt><trkpt lat="42.52008835469859" lon="14.148486891118345"><ele>2.0</ele><time>2026-05-01T14:38:59Z</time></trkpt><trkpt lat="42.520139562061104" lon="14.148652058418723"><ele>2.0</ele><time>2026-05-01T14:39:00Z</time></trkpt><trkpt lat="42.5202055964291" lon="14.14883352490656"><ele>2.0</ele><time>2026-05-01T14:39:01Z</time></trkpt><trkpt lat="42.52028080116711" lon="14.149041258108838"><ele>2.0</ele><time>2026-05-01T14:39:02Z</time></trkpt><trkpt lat="42.52034020358162" lon="14.149251336158173"><ele>2.0</ele><time>2026-05-01T14:39:03Z</time></trkpt><trkpt lat="42.52040973433741" lon="14.149464691966488"><ele>2.0</ele><time>2026-05-01T14:39:04Z</time></trkpt><trkpt lat="42.52048054480041" lon="14.149676825400364"><ele>2.0</ele><time>2026-05-01T14:39:05Z</time></trkpt><trkpt lat="42.52054657684841" lon="14.149867919625741"><ele>2.0</ele><time>2026-05-01T14:39:06Z</time></trkpt><trkpt lat="42.5206056344964" lon="14.150039181043672"><ele>2.0</ele><time>2026-05-01T14:39:07Z</time></trkpt><trkpt lat="42.52066608479435" lon="14.150204889252167"><ele>2.0</ele><time>2026-05-01T14:39:08Z</time></trkpt><trkpt lat="42.52072256413181" lon="14.150360223176826"><ele>2.0</ele><time>2026-05-01T14:39:09Z</time></trkpt><trkpt lat="42.52078414346048" lon="14.15052448080246"><ele>2.0</ele><time>2026-05-01T14:39:10Z</time></trkpt><trkpt lat="42.520847894683705" lon="14.150694267669095"><ele>2.0</ele><time>2026-05-01T14:39:11Z</time></trkpt><trkpt lat="42.5209053233755" lon="14.150872348968646"><ele>2.0</ele><time>2026-05-01T14:39:12Z</time></trkpt><trkpt lat="42.52096392212523" lon="14.151034136075905"><ele>2.0</ele><time>2026-05-01T14:39:13Z</time></trkpt><trkpt lat="42.52101687176418" lon="14.151194998972244"><ele>2.0</ele><time>2026-05-01T14:39:14Z</time></trkpt><trkpt lat="42.52106142700693" lon="14.151330702420124"><ele>2.0</ele><time>2026-05-01T14:39:15Z</time></trkpt><trkpt lat="42.52109247424541" lon="14.151415369232588"><ele>2.0</ele><time>2026-05-01T14:39:16Z</time></trkpt><trkpt lat="42.5211170588571" lon="14.151507831556163"><ele>2.0</ele><time>2026-05-01T14:39:17Z</time></trkpt><trkpt lat="42.52114911627956" lon="14.15160334332738"><ele>1.9999999999999998</ele><time>2026-05-01T14:39:18Z</time></trkpt><trkpt lat="42.52117528001022" lon="14.151683714833526"><ele>2.0</ele><time>2026-05-01T14:39:19Z</time></trkpt><trkpt lat="42.52121642896603" lon="14.151789797633032"><ele>2.0</ele><time>2026-05-01T14:39:22Z</time></trkpt><trkpt lat="42.52125500616386" lon="14.151899727269237"><ele>2.0</ele><time>2026-05-01T14:39:24Z</time></trkpt><trkpt lat="42.52129147262697" lon="14.152002899677203"><ele>1.9999999999999998</ele><time>2026-05-01T14:39:26Z</time></trkpt><trkpt lat="42.5213411708807" lon="14.152138701031157"><ele>2.0</ele><time>2026-05-01T14:39:27.999Z</time></trkpt><trkpt lat="42.521375135830965" lon="14.152227418672078"><ele>1.6666666666666665</ele><time>2026-05-01T14:39:28.999Z</time></trkpt><trkpt lat="42.52141022302255" lon="14.152326849652624"><ele>1.3333333333333333</ele><time>2026-05-01T14:39:29.999Z</time></trkpt><trkpt lat="42.521438241554684" lon="14.152416979407887"><ele>1.0</ele><time>2026-05-01T14:39:30.999Z</time></trkpt><trkpt lat="42.52147126176267" lon="14.152507696097999"><ele>0.6666666666666666</ele><time>2026-05-01T14:39:31.999Z</time></trkpt><trkpt lat="42.52150613342008" lon="14.152615639190536"><ele>0.3333333333333333</ele><time>2026-05-01T14:39:32.999Z</time></trkpt><trkpt lat="42.52154017181991" lon="14.152728278105236"><ele>0.0</ele><time>2026-05-01T14:39:33.999Z</time></trkpt><trkpt lat="42.5215795161629" lon="14.15283601482629"><ele>0.0</ele><time>2026-05-01T14:39:34.999Z</time></trkpt><trkpt lat="42.5216197203563" lon="14.152950881647744"><ele>0.0</ele><time>2026-05-01T14:39:35.999Z</time></trkpt><trkpt lat="42.52165472358214" lon="14.153067131717403"><ele>0.0</ele><time>2026-05-01T14:39:36.999Z</time></trkpt><trkpt lat="42.52169677721386" lon="14.153177579973597"><ele>0.0</ele><time>2026-05-01T14:39:37.999Z</time></trkpt><trkpt lat="42.52173119952193" lon="14.15327673773226"><ele>0.0</ele><time>2026-05-01T14:39:38.999Z</time></trkpt><trkpt lat="42.521761583930406" lon="14.153373775411847"><ele>0.0</ele><time>2026-05-01T14:39:39.999Z</time></trkpt><trkpt lat="42.52179159111929" lon="14.153460216059335"><ele>0.0</ele><time>2026-05-01T14:39:40.999Z</time></trkpt><trkpt lat="42.521823351308356" lon="14.153543173125389"><ele>0.0</ele><time>2026-05-01T14:39:41.999Z</time></trkpt><trkpt lat="42.5218605901891" lon="14.15368761693687"><ele>0.0</ele><time>2026-05-01T14:39:43.999Z</time></trkpt><trkpt lat="42.522037510334826" lon="14.153621862075983"><ele>0.0</ele><time>2026-05-01T14:39:45.999Z</time></trkpt><trkpt lat="42.52211582033655" lon="14.15355289970531"><ele>0.3333333333333333</ele><time>2026-05-01T14:39:46.999Z</time></trkpt><trkpt lat="42.522203294072" lon="14.153466620765995"><ele>0.6666666666666666</ele><time>2026-05-01T14:39:47.999Z</time></trkpt><trkpt lat="42.522262554650844" lon="14.153396290801483"><ele>1.0</ele><time>2026-05-01T14:39:48.999Z</time></trkpt><trkpt lat="42.52230919644737" lon="14.153332750744937"><ele>1.3333333333333333</ele><time>2026-05-01T14:39:50.999Z</time></trkpt><trkpt lat="42.52228998014177" lon="14.153247478606943"><ele>1.6666666666666665</ele><time>2026-05-01T14:39:52.999Z</time></trkpt><trkpt lat="42.52227073540488" lon="14.153164234709207"><ele>2.0</ele><time>2026-05-01T14:39:59.999Z</time></trkpt><trkpt lat="42.52242795533035" lon="14.153072449835843"><ele>1.9999999999999998</ele><time>2026-05-01T14:40:10.999Z</time></trkpt><trkpt lat="42.52234111168185" lon="14.152878169879747"><ele>2.0</ele><time>2026-05-01T14:40:12.999Z</time></trkpt><trkpt lat="42.52229970257699" lon="14.152803195793554"><ele>2.0</ele><time>2026-05-01T14:40:16Z</time></trkpt><trkpt lat="42.522266324240654" lon="14.152727977649972"><ele>2.0</ele><time>2026-05-01T14:40:19Z</time></trkpt><trkpt lat="42.522237119111246" lon="14.152652284556225"><ele>1.9999999999999998</ele><time>2026-05-01T14:40:21Z</time></trkpt><trkpt lat="42.522187234166715" lon="14.152572996721496"><ele>2.0</ele><time>2026-05-01T14:40:24Z</time></trkpt><trkpt lat="42.52214747926168" lon="14.152491382766971"><ele>2.0</ele><time>2026-05-01T14:40:27Z</time></trkpt><trkpt lat="42.52211324959861" lon="14.15241705548059"><ele>2.0</ele><time>2026-05-01T14:40:31Z</time></trkpt><trkpt lat="42.522094297986875" lon="14.152335376035621"><ele>2.0</ele><time>2026-05-01T14:40:35Z</time></trkpt></trkseg></trk></gpx>